﻿<?xml version="1.0" encoding="utf-8"?><gpx creator="Garmin Desktop App" version="1.1" xsi:schemaLocation="http://www.topografix.com/GPX/1/1 http://www.topografix.com/GPX/1/1/gpx.xsd http://www.garmin.com/xmlschemas/WaypointExtension/v1 http://www8.garmin.com/xmlschemas/WaypointExtensionv1.xsd http://www.garmin.com/xmlschemas/TrackPointExtension/v1 http://www.garmin.com/xmlschemas/TrackPointExtensionv1.xsd http://www.garmin.com/xmlschemas/GpxExtensions/v3 http://www8.garmin.com/xmlschemas/GpxExtensionsv3.xsd http://www.garmin.com/xmlschemas/ActivityExtension/v1 http://www8.garmin.com/xmlschemas/ActivityExtensionv1.xsd http://www.garmin.com/xmlschemas/AdventuresExtensions/v1 http://www8.garmin.com/xmlschemas/AdventuresExtensionv1.xsd http://www.garmin.com/xmlschemas/PressureExtension/v1 http://www.garmin.com/xmlschemas/PressureExtensionv1.xsd http://www.garmin.com/xmlschemas/TripExtensions/v1 http://www.garmin.com/xmlschemas/TripExtensionsv1.xsd http://www.garmin.com/xmlschemas/TripMetaDataExtensions/v1 http://www.garmin.com/xmlschemas/TripMetaDataExtensionsv1.xsd http://www.garmin.com/xmlschemas/ViaPointTransportationModeExtensions/v1 http://www.garmin.com/xmlschemas/ViaPointTransportationModeExtensionsv1.xsd http://www.garmin.com/xmlschemas/CreationTimeExtension/v1 http://www.garmin.com/xmlschemas/CreationTimeExtensionsv1.xsd http://www.garmin.com/xmlschemas/AccelerationExtension/v1 http://www.garmin.com/xmlschemas/AccelerationExtensionv1.xsd http://www.garmin.com/xmlschemas/PowerExtension/v1 http://www.garmin.com/xmlschemas/PowerExtensionv1.xsd http://www.garmin.com/xmlschemas/VideoExtension/v1 http://www.garmin.com/xmlschemas/VideoExtensionv1.xsd" xmlns="http://www.topografix.com/GPX/1/1" xmlns:xsi="http://www.w3.org/2001/XMLSchema-instance" xmlns:wptx1="http://www.garmin.com/xmlschemas/WaypointExtension/v1" xmlns:gpxtrx="http://www.garmin.com/xmlschemas/GpxExtensions/v3" xmlns:gpxtpx="http://www.garmin.com/xmlschemas/TrackPointExtension/v1" xmlns:gpxx="http://www.garmin.com/xmlschemas/GpxExtensions/v3" xmlns:trp="http://www.garmin.com/xmlschemas/TripExtensions/v1" xmlns:adv="http://www.garmin.com/xmlschemas/AdventuresExtensions/v1" xmlns:prs="http://www.garmin.com/xmlschemas/PressureExtension/v1" xmlns:tmd="http://www.garmin.com/xmlschemas/TripMetaDataExtensions/v1" xmlns:vptm="http://www.garmin.com/xmlschemas/ViaPointTransportationModeExtensions/v1" xmlns:ctx="http://www.garmin.com/xmlschemas/CreationTimeExtension/v1" xmlns:gpxacc="http://www.garmin.com/xmlschemas/AccelerationExtension/v1" xmlns:gpxpx="http://www.garmin.com/xmlschemas/PowerExtension/v1" xmlns:vidx1="http://www.garmin.com/xmlschemas/VideoExtension/v1">

  <metadata>
    <link href="http://www.garmin.com">
      <text>Garmin International</text>
    </link>
    <time>2025-05-15T21:50:09Z</time>
    <bounds maxlat="42.70707699470222" maxlon="3.316148025915027" minlat="42.227715030312538" minlon="1.733344970270991" />
  </metadata>

  <trk>
    <name>250515 _G_Track</name>
    <extensions>
      <gpxx:TrackExtension>
        <gpxx:DisplayColor>DarkGray</gpxx:DisplayColor>
      </gpxx:TrackExtension>
    </extensions>
    <trkseg>
      <trkpt lat="42.539678988978267" lon="1.733516966924071">
        <ele>2128.5</ele>
        <time>2025-05-15T05:48:31Z</time>
      </trkpt>
      <trkpt lat="42.539678988978267" lon="1.733528031036258">
        <ele>2128.98</ele>
        <time>2025-05-15T05:49:20Z</time>
      </trkpt>
      <trkpt lat="42.53968401812017" lon="1.733538005501032">
        <ele>2128.5</ele>
        <time>2025-05-15T05:50:09Z</time>
      </trkpt>
      <trkpt lat="42.539688041433692" lon="1.733543034642935">
        <ele>2128.02</ele>
        <time>2025-05-15T05:50:55Z</time>
      </trkpt>
      <trkpt lat="42.539688041433692" lon="1.733543034642935">
        <ele>2128.02</ele>
        <time>2025-05-15T05:51:31Z</time>
      </trkpt>
      <trkpt lat="42.539688963443041" lon="1.733559966087341">
        <ele>2128.02</ele>
        <time>2025-05-15T05:52:25Z</time>
      </trkpt>
      <trkpt lat="42.539690975099802" lon="1.733570024371147">
        <ele>2128.02</ele>
        <time>2025-05-15T05:53:15Z</time>
      </trkpt>
      <trkpt lat="42.539694998413324" lon="1.733573963865638">
        <ele>2127.5300000000002</ele>
        <time>2025-05-15T05:54:04Z</time>
      </trkpt>
      <trkpt lat="42.539694998413324" lon="1.733582010492683">
        <ele>2127.5300000000002</ele>
        <time>2025-05-15T05:54:58Z</time>
      </trkpt>
      <trkpt lat="42.539693992584944" lon="1.733588967472315">
        <ele>2127.5300000000002</ele>
        <time>2025-05-15T05:55:39Z</time>
      </trkpt>
      <trkpt lat="42.539692986756563" lon="1.733596008270979">
        <ele>2127.5300000000002</ele>
        <time>2025-05-15T05:56:20Z</time>
      </trkpt>
      <trkpt lat="42.539689969271421" lon="1.733596008270979">
        <ele>2128.02</ele>
        <time>2025-05-15T05:57:03Z</time>
      </trkpt>
      <trkpt lat="42.539689969271421" lon="1.733596008270979">
        <ele>2128.02</ele>
        <time>2025-05-15T05:57:27Z</time>
      </trkpt>
      <trkpt lat="42.539624003693461" lon="1.733386041596532">
        <ele>2128.02</ele>
        <time>2025-05-15T05:57:31Z</time>
      </trkpt>
      <trkpt lat="42.539584022015333" lon="1.733376989141107">
        <ele>2128.02</ele>
        <time>2025-05-15T05:57:32Z</time>
      </trkpt>
      <trkpt lat="42.539545968174934" lon="1.733368020504713">
        <ele>2128.02</ele>
        <time>2025-05-15T05:57:33Z</time>
      </trkpt>
      <trkpt lat="42.539489977061749" lon="1.733355028554797">
        <ele>2126.5700000000002</ele>
        <time>2025-05-15T05:57:42Z</time>
      </trkpt>
      <trkpt lat="42.539451001212001" lon="1.733344970270991">
        <ele>2126.0900000000001</ele>
        <time>2025-05-15T05:57:47Z</time>
      </trkpt>
      <trkpt lat="42.539807986468077" lon="1.733429040759802">
        <ele>2124.1700000000001</ele>
        <time>2025-05-15T05:57:58Z</time>
      </trkpt>
      <trkpt lat="42.539850985631347" lon="1.733440021052957">
        <ele>2124.1700000000001</ele>
        <time>2025-05-15T05:57:59Z</time>
      </trkpt>
      <trkpt lat="42.5399000197649" lon="1.733451001346111">
        <ele>2124.1700000000001</ele>
        <time>2025-05-15T05:58:00Z</time>
      </trkpt>
      <trkpt lat="42.540125995874405" lon="1.733503974974155">
        <ele>2122.25</ele>
        <time>2025-05-15T05:58:04Z</time>
      </trkpt>
      <trkpt lat="42.540183998644352" lon="1.733517972752452">
        <ele>2121.77</ele>
        <time>2025-05-15T05:58:05Z</time>
      </trkpt>
      <trkpt lat="42.540294975042343" lon="1.733544040471315">
        <ele>2120.8099999999999</ele>
        <time>2025-05-15T05:58:07Z</time>
      </trkpt>
      <trkpt lat="42.540350966155529" lon="1.733558038249612">
        <ele>2119.8400000000001</ele>
        <time>2025-05-15T05:58:08Z</time>
      </trkpt>
      <trkpt lat="42.541165016591549" lon="1.733685024082661">
        <ele>2114.5599999999999</ele>
        <time>2025-05-15T05:58:20Z</time>
      </trkpt>
      <trkpt lat="42.5413609854877" lon="1.733707990497351">
        <ele>2112.6300000000001</ele>
        <time>2025-05-15T05:58:23Z</time>
      </trkpt>
      <trkpt lat="42.541423011571169" lon="1.733716037124395">
        <ele>2112.1500000000001</ele>
        <time>2025-05-15T05:58:24Z</time>
      </trkpt>
      <trkpt lat="42.541477996855974" lon="1.733729029074311">
        <ele>2111.1900000000001</ele>
        <time>2025-05-15T05:58:25Z</time>
      </trkpt>
      <trkpt lat="42.541535999625921" lon="1.733743026852608">
        <ele>2110.71</ele>
        <time>2025-05-15T05:58:26Z</time>
      </trkpt>
      <trkpt lat="42.541599031537771" lon="1.733759036287665">
        <ele>2109.75</ele>
        <time>2025-05-15T05:58:27Z</time>
      </trkpt>
      <trkpt lat="42.541661979630589" lon="1.733774961903691">
        <ele>2109.27</ele>
        <time>2025-05-15T05:58:28Z</time>
      </trkpt>
      <trkpt lat="42.541787037625909" lon="1.733803041279316">
        <ele>2108.3099999999999</ele>
        <time>2025-05-15T05:58:30Z</time>
      </trkpt>
      <trkpt lat="42.541842022910714" lon="1.733807986602187">
        <ele>2107.3499999999999</ele>
        <time>2025-05-15T05:58:31Z</time>
      </trkpt>
      <trkpt lat="42.541901031509042" lon="1.73381301574409">
        <ele>2106.8699999999999</ele>
        <time>2025-05-15T05:58:32Z</time>
      </trkpt>
      <trkpt lat="42.541950987651944" lon="1.733817961066961">
        <ele>2106.3899999999999</ele>
        <time>2025-05-15T05:58:33Z</time>
      </trkpt>
      <trkpt lat="42.542003039270639" lon="1.733822990208864">
        <ele>2105.9099999999999</ele>
        <time>2025-05-15T05:58:34Z</time>
      </trkpt>
      <trkpt lat="42.542048972100019" lon="1.733819972723723">
        <ele>2105.4200000000001</ele>
        <time>2025-05-15T05:58:35Z</time>
      </trkpt>
      <trkpt lat="42.542169000953436" lon="1.73381301574409">
        <ele>2103.02</ele>
        <time>2025-05-15T05:58:38Z</time>
      </trkpt>
      <trkpt lat="42.542205965146422" lon="1.733809998258948">
        <ele>2103.5</ele>
        <time>2025-05-15T05:58:39Z</time>
      </trkpt>
      <trkpt lat="42.542244018986821" lon="1.733807986602187">
        <ele>2103.98</ele>
        <time>2025-05-15T05:58:40Z</time>
      </trkpt>
      <trkpt lat="42.542291041463614" lon="1.733804969117045">
        <ele>2104.46</ele>
        <time>2025-05-15T05:58:41Z</time>
      </trkpt>
      <trkpt lat="42.542346026748419" lon="1.733801029622555">
        <ele>2104.46</ele>
        <time>2025-05-15T05:58:42Z</time>
      </trkpt>
      <trkpt lat="42.542391959577799" lon="1.733799017965794">
        <ele>2104.9400000000001</ele>
        <time>2025-05-15T05:58:43Z</time>
      </trkpt>
      <trkpt lat="42.542458008974791" lon="1.733794994652271">
        <ele>2104.9400000000001</ele>
        <time>2025-05-15T05:58:44Z</time>
      </trkpt>
      <trkpt lat="42.542547024786472" lon="1.733789965510368">
        <ele>2104.46</ele>
        <time>2025-05-15T05:58:45Z</time>
      </trkpt>
      <trkpt lat="42.542704017832875" lon="1.733779991045594">
        <ele>2104.9400000000001</ele>
        <time>2025-05-15T05:58:47Z</time>
      </trkpt>
      <trkpt lat="42.542710974812508" lon="1.733779991045594">
        <ele>2105.4200000000001</ele>
        <time>2025-05-15T05:58:48Z</time>
      </trkpt>
      <trkpt lat="42.543190000578761" lon="1.733872024342418">
        <ele>2108.79</ele>
        <time>2025-05-15T05:58:53Z</time>
      </trkpt>
      <trkpt lat="42.543567018583417" lon="1.733821984380484">
        <ele>2110.23</ele>
        <time>2025-05-15T05:58:58Z</time>
      </trkpt>
      <trkpt lat="42.543619992211461" lon="1.733889961615205">
        <ele>2110.23</ele>
        <time>2025-05-15T05:58:59Z</time>
      </trkpt>
      <trkpt lat="42.543659973889589" lon="1.733944024890661">
        <ele>2110.23</ele>
        <time>2025-05-15T05:59:00Z</time>
      </trkpt>
      <trkpt lat="42.543698027729988" lon="1.733994986861944">
        <ele>2110.23</ele>
        <time>2025-05-15T05:59:01Z</time>
      </trkpt>
      <trkpt lat="42.543698027729988" lon="1.733994986861944">
        <ele>2110.23</ele>
        <time>2025-05-15T05:59:02Z</time>
      </trkpt>
      <trkpt lat="42.543718982487917" lon="1.734131025150418">
        <ele>2110.23</ele>
        <time>2025-05-15T05:59:03Z</time>
      </trkpt>
      <trkpt lat="42.543730968609452" lon="1.734209982678294">
        <ele>2110.23</ele>
        <time>2025-05-15T05:59:04Z</time>
      </trkpt>
      <trkpt lat="42.543741026893258" lon="1.734281983226538">
        <ele>2110.23</ele>
        <time>2025-05-15T05:59:05Z</time>
      </trkpt>
      <trkpt lat="42.543741026893258" lon="1.7343720048666">
        <ele>2109.75</ele>
        <time>2025-05-15T05:59:06Z</time>
      </trkpt>
      <trkpt lat="42.543741026893258" lon="1.734469989314675">
        <ele>2109.27</ele>
        <time>2025-05-15T05:59:07Z</time>
      </trkpt>
      <trkpt lat="42.543741026893258" lon="1.734570991247892">
        <ele>2107.8299999999999</ele>
        <time>2025-05-15T05:59:08Z</time>
      </trkpt>
      <trkpt lat="42.543741026893258" lon="1.734670987352729">
        <ele>2106.8699999999999</ele>
        <time>2025-05-15T05:59:09Z</time>
      </trkpt>
      <trkpt lat="42.543716970831156" lon="1.734764026477933">
        <ele>2105.4200000000001</ele>
        <time>2025-05-15T05:59:10Z</time>
      </trkpt>
      <trkpt lat="42.543648993596435" lon="1.734939962625504">
        <ele>2103.02</ele>
        <time>2025-05-15T05:59:12Z</time>
      </trkpt>
      <trkpt lat="42.543584033846855" lon="1.735119000077248">
        <ele>2101.5799999999999</ele>
        <time>2025-05-15T05:59:14Z</time>
      </trkpt>
      <trkpt lat="42.543537011370063" lon="1.735177002847195">
        <ele>2100.6199999999999</ele>
        <time>2025-05-15T05:59:15Z</time>
      </trkpt>
      <trkpt lat="42.543398039415479" lon="1.735359979793429">
        <ele>2098.21</ele>
        <time>2025-05-15T05:59:18Z</time>
      </trkpt>
      <trkpt lat="42.543355962261558" lon="1.735443966463208">
        <ele>2097.73</ele>
        <time>2025-05-15T05:59:19Z</time>
      </trkpt>
      <trkpt lat="42.543370965868235" lon="1.735529964789748">
        <ele>2097.25</ele>
        <time>2025-05-15T05:59:20Z</time>
      </trkpt>
      <trkpt lat="42.543400973081589" lon="1.735586039721966">
        <ele>2096.77</ele>
        <time>2025-05-15T05:59:21Z</time>
      </trkpt>
      <trkpt lat="42.543461993336678" lon="1.735646976158023">
        <ele>2096.29</ele>
        <time>2025-05-15T05:59:22Z</time>
      </trkpt>
      <trkpt lat="42.543502980843186" lon="1.735715037211776">
        <ele>2095.8099999999999</ele>
        <time>2025-05-15T05:59:23Z</time>
      </trkpt>
      <trkpt lat="42.543544974178076" lon="1.735786031931639">
        <ele>2094.8499999999999</ele>
        <time>2025-05-15T05:59:24Z</time>
      </trkpt>
      <trkpt lat="42.543969014659524" lon="1.736228009685874">
        <ele>2090.04</ele>
        <time>2025-05-15T05:59:31Z</time>
      </trkpt>
      <trkpt lat="42.544790022075176" lon="1.736531015485525">
        <ele>2084.7600000000002</ele>
        <time>2025-05-15T05:59:40Z</time>
      </trkpt>
      <trkpt lat="42.546221986413002" lon="1.736798984929919">
        <ele>2073.2199999999998</ele>
        <time>2025-05-15T05:59:51Z</time>
      </trkpt>
      <trkpt lat="42.546512000262737" lon="1.736891018226743">
        <ele>2070.8200000000002</ele>
        <time>2025-05-15T05:59:53Z</time>
      </trkpt>
      <trkpt lat="42.546640997752547" lon="1.736965030431747">
        <ele>2069.3800000000001</ele>
        <time>2025-05-15T05:59:54Z</time>
      </trkpt>
      <trkpt lat="42.546772006899118" lon="1.737040970474482">
        <ele>2068.4099999999999</ele>
        <time>2025-05-15T05:59:55Z</time>
      </trkpt>
      <trkpt lat="42.547811027616262" lon="1.737588979303837">
        <ele>2059.7600000000002</ele>
        <time>2025-05-15T06:00:03Z</time>
      </trkpt>
      <trkpt lat="42.548211012035608" lon="1.737755024805665">
        <ele>2056.8800000000001</ele>
        <time>2025-05-15T06:00:06Z</time>
      </trkpt>
      <trkpt lat="42.548348978161812" lon="1.737771034240723">
        <ele>2055.9200000000001</ele>
        <time>2025-05-15T06:00:07Z</time>
      </trkpt>
      <trkpt lat="42.548739993944764" lon="1.737815961241722">
        <ele>2053.0300000000002</ele>
        <time>2025-05-15T06:00:10Z</time>
      </trkpt>
      <trkpt lat="42.548847030848265" lon="1.737828031182289">
        <ele>2052.5500000000002</ele>
        <time>2025-05-15T06:00:11Z</time>
      </trkpt>
      <trkpt lat="42.548954989761114" lon="1.738006984815002">
        <ele>2052.0700000000002</ele>
        <time>2025-05-15T06:00:12Z</time>
      </trkpt>
      <trkpt lat="42.549003018066287" lon="1.7380450386554">
        <ele>2051.5900000000001</ele>
        <time>2025-05-15T06:00:13Z</time>
      </trkpt>
      <trkpt lat="42.549090022221208" lon="1.738083008676767">
        <ele>2051.1100000000001</ele>
        <time>2025-05-15T06:00:14Z</time>
      </trkpt>
      <trkpt lat="42.549157999455929" lon="1.738057024776936">
        <ele>2050.6300000000001</ele>
        <time>2025-05-15T06:00:15Z</time>
      </trkpt>
      <trkpt lat="42.549228994175792" lon="1.738031040877104">
        <ele>2050.1500000000001</ele>
        <time>2025-05-15T06:00:16Z</time>
      </trkpt>
      <trkpt lat="42.549234023317695" lon="1.738029029220343">
        <ele>2049.6700000000001</ele>
        <time>2025-05-15T06:00:17Z</time>
      </trkpt>
      <trkpt lat="42.54939503967762" lon="1.737907994538546">
        <ele>2049.6700000000001</ele>
        <time>2025-05-15T06:00:18Z</time>
      </trkpt>
      <trkpt lat="42.549485983327031" lon="1.737931966781616">
        <ele>2049.1900000000001</ele>
        <time>2025-05-15T06:00:19Z</time>
      </trkpt>
      <trkpt lat="42.549586985260248" lon="1.73795904032886">
        <ele>2048.71</ele>
        <time>2025-05-15T06:00:20Z</time>
      </trkpt>
      <trkpt lat="42.550467001274228" lon="1.738309990614653">
        <ele>2044.3800000000001</ele>
        <time>2025-05-15T06:00:27Z</time>
      </trkpt>
      <trkpt lat="42.552214041352272" lon="1.739575993269682">
        <ele>2031.4000000000001</ele>
        <time>2025-05-15T06:00:39Z</time>
      </trkpt>
      <trkpt lat="42.553433021530509" lon="1.740674022585154">
        <ele>2022.75</ele>
        <time>2025-05-15T06:00:48Z</time>
      </trkpt>
      <trkpt lat="42.554227039217949" lon="1.741769034415484">
        <ele>2016.02</ele>
        <time>2025-05-15T06:00:55Z</time>
      </trkpt>
      <trkpt lat="42.555019967257977" lon="1.743237040936947">
        <ele>2010.25</ele>
        <time>2025-05-15T06:01:03Z</time>
      </trkpt>
      <trkpt lat="42.55635897628963" lon="1.74500897526741">
        <ele>1998.72</ele>
        <time>2025-05-15T06:01:14Z</time>
      </trkpt>
      <trkpt lat="42.557414006441832" lon="1.746463989838958">
        <ele>1989.0999999999999</ele>
        <time>2025-05-15T06:01:23Z</time>
      </trkpt>
      <trkpt lat="42.558474987745285" lon="1.747942976653576">
        <ele>1980.45</ele>
        <time>2025-05-15T06:01:32Z</time>
      </trkpt>
      <trkpt lat="42.558537013828754" lon="1.748138023540378">
        <ele>1979.97</ele>
        <time>2025-05-15T06:01:33Z</time>
      </trkpt>
      <trkpt lat="42.558599961921573" lon="1.748336004093289">
        <ele>1979.01</ele>
        <time>2025-05-15T06:01:34Z</time>
      </trkpt>
      <trkpt lat="42.558932974934578" lon="1.749810967594385">
        <ele>1971.8</ele>
        <time>2025-05-15T06:01:41Z</time>
      </trkpt>
      <trkpt lat="42.558932974934578" lon="1.749994028359652">
        <ele>1970.8399999999999</ele>
        <time>2025-05-15T06:01:42Z</time>
      </trkpt>
      <trkpt lat="42.55891403183341" lon="1.750172981992364">
        <ele>1970.3599999999999</ele>
        <time>2025-05-15T06:01:43Z</time>
      </trkpt>
      <trkpt lat="42.558826021850109" lon="1.750581013038755">
        <ele>1968.9200000000001</ele>
        <time>2025-05-15T06:01:45Z</time>
      </trkpt>
      <trkpt lat="42.55883096717298" lon="1.75074596889317">
        <ele>1967.96</ele>
        <time>2025-05-15T06:01:46Z</time>
      </trkpt>
      <trkpt lat="42.558812024071813" lon="1.751506961882114">
        <ele>1965.0699999999999</ele>
        <time>2025-05-15T06:01:50Z</time>
      </trkpt>
      <trkpt lat="42.55878796800971" lon="1.751670995727181">
        <ele>1964.1099999999999</ele>
        <time>2025-05-15T06:01:51Z</time>
      </trkpt>
      <trkpt lat="42.55876399576664" lon="1.751832012087107">
        <ele>1963.6300000000001</ele>
        <time>2025-05-15T06:01:52Z</time>
      </trkpt>
      <trkpt lat="42.558740023523569" lon="1.751996967941523">
        <ele>1962.6700000000001</ele>
        <time>2025-05-15T06:01:53Z</time>
      </trkpt>
      <trkpt lat="42.558760978281498" lon="1.752149015665054">
        <ele>1962.1900000000001</ele>
        <time>2025-05-15T06:01:54Z</time>
      </trkpt>
      <trkpt lat="42.5587850343436" lon="1.752323023974896">
        <ele>1961.71</ele>
        <time>2025-05-15T06:01:55Z</time>
      </trkpt>
      <trkpt lat="42.558924006298184" lon="1.753736967220902">
        <ele>1955.46</ele>
        <time>2025-05-15T06:02:03Z</time>
      </trkpt>
      <trkpt lat="42.558929035440087" lon="1.755000036209822">
        <ele>1950.1700000000001</ele>
        <time>2025-05-15T06:02:12Z</time>
      </trkpt>
      <trkpt lat="42.559147970750928" lon="1.756081972271204">
        <ele>1944.8800000000001</ele>
        <time>2025-05-15T06:02:23Z</time>
      </trkpt>
      <trkpt lat="42.559163980185986" lon="1.756147015839815">
        <ele>1944.4000000000001</ele>
        <time>2025-05-15T06:02:24Z</time>
      </trkpt>
      <trkpt lat="42.559192981570959" lon="1.756274001672864">
        <ele>1943.4400000000001</ele>
        <time>2025-05-15T06:02:26Z</time>
      </trkpt>
      <trkpt lat="42.559275962412357" lon="1.75663199275732">
        <ele>1940.5599999999999</ele>
        <time>2025-05-15T06:02:32Z</time>
      </trkpt>
      <trkpt lat="42.559320973232388" lon="1.756865009665489">
        <ele>1938.6400000000001</ele>
        <time>2025-05-15T06:02:36Z</time>
      </trkpt>
      <trkpt lat="42.559338994324207" lon="1.756958970800042">
        <ele>1937.6700000000001</ele>
        <time>2025-05-15T06:02:38Z</time>
      </trkpt>
      <trkpt lat="42.559347962960601" lon="1.757006999105215">
        <ele>1937.1900000000001</ele>
        <time>2025-05-15T06:02:39Z</time>
      </trkpt>
      <trkpt lat="42.559491964057088" lon="1.757750976830721">
        <ele>1934.79</ele>
        <time>2025-05-15T06:02:48Z</time>
      </trkpt>
      <trkpt lat="42.559539992362261" lon="1.75783596932888">
        <ele>1934.79</ele>
        <time>2025-05-15T06:02:49Z</time>
      </trkpt>
      <trkpt lat="42.559891026467085" lon="1.758462013676763">
        <ele>1932.3900000000001</ele>
        <time>2025-05-15T06:02:58Z</time>
      </trkpt>
      <trkpt lat="42.559909969568253" lon="1.758495960384607">
        <ele>1931.4300000000001</ele>
        <time>2025-05-15T06:03:05Z</time>
      </trkpt>
      <trkpt lat="42.559909969568253" lon="1.758495960384607">
        <ele>1931.9100000000001</ele>
        <time>2025-05-15T06:03:46Z</time>
      </trkpt>
      <trkpt lat="42.559963027015328" lon="1.758592016994953">
        <ele>1932.3900000000001</ele>
        <time>2025-05-15T06:04:28Z</time>
      </trkpt>
      <trkpt lat="42.559993034228683" lon="1.758645996451378">
        <ele>1932.8699999999999</ele>
        <time>2025-05-15T06:04:29Z</time>
      </trkpt>
      <trkpt lat="42.560029998421669" lon="1.758711962029338">
        <ele>1932.8699999999999</ele>
        <time>2025-05-15T06:04:30Z</time>
      </trkpt>
      <trkpt lat="42.560092024505138" lon="1.7588210105896">
        <ele>1932.8699999999999</ele>
        <time>2025-05-15T06:04:31Z</time>
      </trkpt>
      <trkpt lat="42.560105016455054" lon="1.758902985602617">
        <ele>1932.3900000000001</ele>
        <time>2025-05-15T06:04:32Z</time>
      </trkpt>
      <trkpt lat="42.560141980648041" lon="1.759044975042343">
        <ele>1931.9100000000001</ele>
        <time>2025-05-15T06:04:33Z</time>
      </trkpt>
      <trkpt lat="42.560337027534842" lon="1.759857013821602">
        <ele>1928.0599999999999</ele>
        <time>2025-05-15T06:04:38Z</time>
      </trkpt>
      <trkpt lat="42.560369968414307" lon="1.760001014918089">
        <ele>1927.5799999999999</ele>
        <time>2025-05-15T06:04:39Z</time>
      </trkpt>
      <trkpt lat="42.560378015041351" lon="1.760220034047961">
        <ele>1926.6199999999999</ele>
        <time>2025-05-15T06:04:40Z</time>
      </trkpt>
      <trkpt lat="42.560445992276073" lon="1.762352976948023">
        <ele>1917.97</ele>
        <time>2025-05-15T06:04:50Z</time>
      </trkpt>
      <trkpt lat="42.560320012271404" lon="1.764500001445413">
        <ele>1908.3499999999999</ele>
        <time>2025-05-15T06:05:00Z</time>
      </trkpt>
      <trkpt lat="42.560208030045033" lon="1.765380017459393">
        <ele>1903.55</ele>
        <time>2025-05-15T06:05:05Z</time>
      </trkpt>
      <trkpt lat="42.560164025053382" lon="1.765540027990937">
        <ele>1902.5899999999999</ele>
        <time>2025-05-15T06:05:06Z</time>
      </trkpt>
      <trkpt lat="42.560100993141532" lon="1.765690986067057">
        <ele>1901.6300000000001</ele>
        <time>2025-05-15T06:05:07Z</time>
      </trkpt>
      <trkpt lat="42.560012983158231" lon="1.765814032405615">
        <ele>1900.1800000000001</ele>
        <time>2025-05-15T06:05:08Z</time>
      </trkpt>
      <trkpt lat="42.55992497317493" lon="1.765936994925141">
        <ele>1899.22</ele>
        <time>2025-05-15T06:05:09Z</time>
      </trkpt>
      <trkpt lat="42.559813996776938" lon="1.766017964109778">
        <ele>1898.26</ele>
        <time>2025-05-15T06:05:10Z</time>
      </trkpt>
      <trkpt lat="42.559697991237044" lon="1.766099017113447">
        <ele>1897.3</ele>
        <time>2025-05-15T06:05:11Z</time>
      </trkpt>
      <trkpt lat="42.559574022889137" lon="1.766184009611607">
        <ele>1896.3399999999999</ele>
        <time>2025-05-15T06:05:12Z</time>
      </trkpt>
      <trkpt lat="42.559446031227708" lon="1.766273025423288">
        <ele>1895.3800000000001</ele>
        <time>2025-05-15T06:05:13Z</time>
      </trkpt>
      <trkpt lat="42.559318961575627" lon="1.766376961022615">
        <ele>1894.4200000000001</ele>
        <time>2025-05-15T06:05:14Z</time>
      </trkpt>
      <trkpt lat="42.559199016541243" lon="1.766507970169187">
        <ele>1893.45</ele>
        <time>2025-05-15T06:05:15Z</time>
      </trkpt>
      <trkpt lat="42.558681014925241" lon="1.766998982056975">
        <ele>1890.0899999999999</ele>
        <time>2025-05-15T06:05:19Z</time>
      </trkpt>
      <trkpt lat="42.558546988293529" lon="1.767081962898374">
        <ele>1889.1300000000001</ele>
        <time>2025-05-15T06:05:20Z</time>
      </trkpt>
      <trkpt lat="42.558396030217409" lon="1.767120016738772">
        <ele>1888.1700000000001</ele>
        <time>2025-05-15T06:05:21Z</time>
      </trkpt>
      <trkpt lat="42.557438984513283" lon="1.767559982836247">
        <ele>1881.4400000000001</ele>
        <time>2025-05-15T06:05:28Z</time>
      </trkpt>
      <trkpt lat="42.557329013943672" lon="1.767658973112702">
        <ele>1880.48</ele>
        <time>2025-05-15T06:05:29Z</time>
      </trkpt>
      <trkpt lat="42.557227006182075" lon="1.76778101362288">
        <ele>1880</ele>
        <time>2025-05-15T06:05:30Z</time>
      </trkpt>
      <trkpt lat="42.557015027850866" lon="1.768031967803836">
        <ele>1878.0699999999999</ele>
        <time>2025-05-15T06:05:32Z</time>
      </trkpt>
      <trkpt lat="42.5569390039891" lon="1.768179992213845">
        <ele>1877.5899999999999</ele>
        <time>2025-05-15T06:05:33Z</time>
      </trkpt>
      <trkpt lat="42.55687203258276" lon="1.768321981653571">
        <ele>1876.6300000000001</ele>
        <time>2025-05-15T06:05:34Z</time>
      </trkpt>
      <trkpt lat="42.55681000649929" lon="1.768450979143381">
        <ele>1876.1500000000001</ele>
        <time>2025-05-15T06:05:35Z</time>
      </trkpt>
      <trkpt lat="42.556793997064233" lon="1.768583999946713">
        <ele>1875.6700000000001</ele>
        <time>2025-05-15T06:05:36Z</time>
      </trkpt>
      <trkpt lat="42.556798020377755" lon="1.768680978566408">
        <ele>1875.1900000000001</ele>
        <time>2025-05-15T06:05:37Z</time>
      </trkpt>
      <trkpt lat="42.556830961257219" lon="1.768779968842864">
        <ele>1875.1900000000001</ele>
        <time>2025-05-15T06:05:38Z</time>
      </trkpt>
      <trkpt lat="42.556869015097618" lon="1.768850963562727">
        <ele>1875.1900000000001</ele>
        <time>2025-05-15T06:05:39Z</time>
      </trkpt>
      <trkpt lat="42.556962976232171" lon="1.768902009353042">
        <ele>1874.71</ele>
        <time>2025-05-15T06:05:40Z</time>
      </trkpt>
      <trkpt lat="42.557064983993769" lon="1.768958000466228">
        <ele>1874.23</ele>
        <time>2025-05-15T06:05:41Z</time>
      </trkpt>
      <trkpt lat="42.55717302672565" lon="1.769026983529329">
        <ele>1873.75</ele>
        <time>2025-05-15T06:05:42Z</time>
      </trkpt>
      <trkpt lat="42.557289032265544" lon="1.769105019047856">
        <ele>1872.79</ele>
        <time>2025-05-15T06:05:43Z</time>
      </trkpt>
      <trkpt lat="42.557416018098593" lon="1.769189005717635">
        <ele>1872.3</ele>
        <time>2025-05-15T06:05:44Z</time>
      </trkpt>
      <trkpt lat="42.557941982522607" lon="1.769659984856844">
        <ele>1868.9400000000001</ele>
        <time>2025-05-15T06:05:48Z</time>
      </trkpt>
      <trkpt lat="42.558062011376023" lon="1.769813038408756">
        <ele>1867.98</ele>
        <time>2025-05-15T06:05:49Z</time>
      </trkpt>
      <trkpt lat="42.55814197473228" lon="1.769999032840133">
        <ele>1867.02</ele>
        <time>2025-05-15T06:05:50Z</time>
      </trkpt>
      <trkpt lat="42.558223027735949" lon="1.77018603309989">
        <ele>1866.0599999999999</ele>
        <time>2025-05-15T06:05:51Z</time>
      </trkpt>
      <trkpt lat="42.558303996920586" lon="1.770373033359647">
        <ele>1864.6099999999999</ele>
        <time>2025-05-15T06:05:52Z</time>
      </trkpt>
      <trkpt lat="42.558374991640449" lon="1.770536983385682">
        <ele>1863.6500000000001</ele>
        <time>2025-05-15T06:05:53Z</time>
      </trkpt>
      <trkpt lat="42.558479011058807" lon="1.770692970603705">
        <ele>1862.6900000000001</ele>
        <time>2025-05-15T06:05:54Z</time>
      </trkpt>
      <trkpt lat="42.558584958314896" lon="1.770779974758625">
        <ele>1862.21</ele>
        <time>2025-05-15T06:05:55Z</time>
      </trkpt>
      <trkpt lat="42.558709010481834" lon="1.770857004448772">
        <ele>1861.25</ele>
        <time>2025-05-15T06:05:56Z</time>
      </trkpt>
      <trkpt lat="42.558841025456786" lon="1.77093998529017">
        <ele>1860.29</ele>
        <time>2025-05-15T06:05:57Z</time>
      </trkpt>
      <trkpt lat="42.55897999741137" lon="1.771024977788329">
        <ele>1859.3299999999999</ele>
        <time>2025-05-15T06:05:58Z</time>
      </trkpt>
      <trkpt lat="42.559130033478141" lon="1.771121034398675">
        <ele>1858.3699999999999</ele>
        <time>2025-05-15T06:05:59Z</time>
      </trkpt>
      <trkpt lat="42.56005397066474" lon="1.772148991003633">
        <ele>1851.1600000000001</ele>
        <time>2025-05-15T06:06:06Z</time>
      </trkpt>
      <trkpt lat="42.560154972597957" lon="1.772310007363558">
        <ele>1849.71</ele>
        <time>2025-05-15T06:06:07Z</time>
      </trkpt>
      <trkpt lat="42.560250023379922" lon="1.772475969046354">
        <ele>1848.75</ele>
        <time>2025-05-15T06:06:08Z</time>
      </trkpt>
      <trkpt lat="42.560308026149869" lon="1.772684007883072">
        <ele>1847.3099999999999</ele>
        <time>2025-05-15T06:06:09Z</time>
      </trkpt>
      <trkpt lat="42.560368962585926" lon="1.772902021184564">
        <ele>1846.3499999999999</ele>
        <time>2025-05-15T06:06:10Z</time>
      </trkpt>
      <trkpt lat="42.560954019427299" lon="1.775121968239546">
        <ele>1833.8499999999999</ele>
        <time>2025-05-15T06:06:20Z</time>
      </trkpt>
      <trkpt lat="42.56095502525568" lon="1.775306034833193">
        <ele>1832.4100000000001</ele>
        <time>2025-05-15T06:06:21Z</time>
      </trkpt>
      <trkpt lat="42.560904985293746" lon="1.775457998737693">
        <ele>1831.45</ele>
        <time>2025-05-15T06:06:22Z</time>
      </trkpt>
      <trkpt lat="42.560852011665702" lon="1.775615997612476">
        <ele>1830.01</ele>
        <time>2025-05-15T06:06:23Z</time>
      </trkpt>
      <trkpt lat="42.560800965875387" lon="1.775769973173738">
        <ele>1829.05</ele>
        <time>2025-05-15T06:06:24Z</time>
      </trkpt>
      <trkpt lat="42.560786968097091" lon="1.775911962613463">
        <ele>1828.0799999999999</ele>
        <time>2025-05-15T06:06:25Z</time>
      </trkpt>
      <trkpt lat="42.560799960047007" lon="1.776029979810119">
        <ele>1826.6400000000001</ele>
        <time>2025-05-15T06:06:26Z</time>
      </trkpt>
      <trkpt lat="42.560850000008941" lon="1.776106003671885">
        <ele>1826.1600000000001</ele>
        <time>2025-05-15T06:06:27Z</time>
      </trkpt>
      <trkpt lat="42.560915965586901" lon="1.77620499394834">
        <ele>1825.6800000000001</ele>
        <time>2025-05-15T06:06:28Z</time>
      </trkpt>
      <trkpt lat="42.560992995277047" lon="1.776319993659854">
        <ele>1824.72</ele>
        <time>2025-05-15T06:06:29Z</time>
      </trkpt>
      <trkpt lat="42.561075976118445" lon="1.776444967836142">
        <ele>1824.24</ele>
        <time>2025-05-15T06:06:30Z</time>
      </trkpt>
      <trkpt lat="42.561144037172198" lon="1.776593998074532">
        <ele>1823.28</ele>
        <time>2025-05-15T06:06:31Z</time>
      </trkpt>
      <trkpt lat="42.561200028285384" lon="1.77674101665616">
        <ele>1822.8</ele>
        <time>2025-05-15T06:06:32Z</time>
      </trkpt>
      <trkpt lat="42.561190975829959" lon="1.776887029409409">
        <ele>1821.8399999999999</ele>
        <time>2025-05-15T06:06:33Z</time>
      </trkpt>
      <trkpt lat="42.561172032728791" lon="1.777039999142289">
        <ele>1820.8699999999999</ele>
        <time>2025-05-15T06:06:34Z</time>
      </trkpt>
      <trkpt lat="42.56112702190876" lon="1.777177965268493">
        <ele>1819.9100000000001</ele>
        <time>2025-05-15T06:06:35Z</time>
      </trkpt>
      <trkpt lat="42.561053009703755" lon="1.777325989678502">
        <ele>1819.4300000000001</ele>
        <time>2025-05-15T06:06:36Z</time>
      </trkpt>
      <trkpt lat="42.56097799167037" lon="1.777465967461467">
        <ele>1818.95</ele>
        <time>2025-05-15T06:06:37Z</time>
      </trkpt>
      <trkpt lat="42.560863997787237" lon="1.777618015184999">
        <ele>1817.99</ele>
        <time>2025-05-15T06:06:38Z</time>
      </trkpt>
      <trkpt lat="42.560781016945839" lon="1.777700996026397">
        <ele>1817.03</ele>
        <time>2025-05-15T06:06:39Z</time>
      </trkpt>
      <trkpt lat="42.560685966163874" lon="1.77779596298933">
        <ele>1816.55</ele>
        <time>2025-05-15T06:06:40Z</time>
      </trkpt>
      <trkpt lat="42.560617988929152" lon="1.777902999892831">
        <ele>1816.0699999999999</ele>
        <time>2025-05-15T06:06:41Z</time>
      </trkpt>
      <trkpt lat="42.560594016686082" lon="1.778024034574628">
        <ele>1815.1099999999999</ele>
        <time>2025-05-15T06:06:42Z</time>
      </trkpt>
      <trkpt lat="42.560615977272391" lon="1.778130987659097">
        <ele>1814.6300000000001</ele>
        <time>2025-05-15T06:06:43Z</time>
      </trkpt>
      <trkpt lat="42.560665011405945" lon="1.778228972107172">
        <ele>1814.1500000000001</ele>
        <time>2025-05-15T06:06:44Z</time>
      </trkpt>
      <trkpt lat="42.560727959498763" lon="1.7782879807055">
        <ele>1813.6600000000001</ele>
        <time>2025-05-15T06:06:45Z</time>
      </trkpt>
      <trkpt lat="42.56080599501729" lon="1.778349000960589">
        <ele>1812.7</ele>
        <time>2025-05-15T06:06:46Z</time>
      </trkpt>
      <trkpt lat="42.560925018042326" lon="1.778368027880788">
        <ele>1812.22</ele>
        <time>2025-05-15T06:06:47Z</time>
      </trkpt>
      <trkpt lat="42.56106298416853" lon="1.778390994295478">
        <ele>1811.26</ele>
        <time>2025-05-15T06:06:48Z</time>
      </trkpt>
      <trkpt lat="42.561728004366159" lon="1.778511023148894">
        <ele>1807.4200000000001</ele>
        <time>2025-05-15T06:06:52Z</time>
      </trkpt>
      <trkpt lat="42.561873011291027" lon="1.778584029525518">
        <ele>1805.97</ele>
        <time>2025-05-15T06:06:53Z</time>
      </trkpt>
      <trkpt lat="42.562026986852288" lon="1.778702968731523">
        <ele>1804.53</ele>
        <time>2025-05-15T06:06:54Z</time>
      </trkpt>
      <trkpt lat="42.562177022919059" lon="1.778828026726842">
        <ele>1803.0899999999999</ele>
        <time>2025-05-15T06:06:55Z</time>
      </trkpt>
      <trkpt lat="42.562317000702024" lon="1.778992982581258">
        <ele>1802.1300000000001</ele>
        <time>2025-05-15T06:06:56Z</time>
      </trkpt>
      <trkpt lat="42.562961988151073" lon="1.779810972511768">
        <ele>1795.4000000000001</ele>
        <time>2025-05-15T06:07:01Z</time>
      </trkpt>
      <trkpt lat="42.563019990921021" lon="1.77998598664999">
        <ele>1793.96</ele>
        <time>2025-05-15T06:07:02Z</time>
      </trkpt>
      <trkpt lat="42.563059972599149" lon="1.780172986909747">
        <ele>1792.52</ele>
        <time>2025-05-15T06:07:03Z</time>
      </trkpt>
      <trkpt lat="42.563092997297645" lon="1.780370967462659">
        <ele>1791.0699999999999</ele>
        <time>2025-05-15T06:07:04Z</time>
      </trkpt>
      <trkpt lat="42.56312501616776" lon="1.780564002692699">
        <ele>1790.1099999999999</ele>
        <time>2025-05-15T06:07:05Z</time>
      </trkpt>
      <trkpt lat="42.563178995624185" lon="1.780889974907041">
        <ele>1787.71</ele>
        <time>2025-05-15T06:07:07Z</time>
      </trkpt>
      <trkpt lat="42.563223000615835" lon="1.781013021245599">
        <ele>1786.75</ele>
        <time>2025-05-15T06:07:08Z</time>
      </trkpt>
      <trkpt lat="42.563286032527685" lon="1.781102037057281">
        <ele>1786.27</ele>
        <time>2025-05-15T06:07:09Z</time>
      </trkpt>
      <trkpt lat="42.563367001712322" lon="1.78114696405828">
        <ele>1785.79</ele>
        <time>2025-05-15T06:07:10Z</time>
      </trkpt>
      <trkpt lat="42.563465991988778" lon="1.781174037605524">
        <ele>1784.8199999999999</ele>
        <time>2025-05-15T06:07:11Z</time>
      </trkpt>
      <trkpt lat="42.563575962558389" lon="1.781203038990498">
        <ele>1784.3399999999999</ele>
        <time>2025-05-15T06:07:12Z</time>
      </trkpt>
      <trkpt lat="42.563819959759712" lon="1.781281996518374">
        <ele>1782.4200000000001</ele>
        <time>2025-05-15T06:07:14Z</time>
      </trkpt>
      <trkpt lat="42.563915010541677" lon="1.781376963481307">
        <ele>1781.46</ele>
        <time>2025-05-15T06:07:15Z</time>
      </trkpt>
      <trkpt lat="42.56400897167623" lon="1.781471008434892">
        <ele>1780.98</ele>
        <time>2025-05-15T06:07:16Z</time>
      </trkpt>
      <trkpt lat="42.564082983881235" lon="1.781545020639896">
        <ele>1780.02</ele>
        <time>2025-05-15T06:07:17Z</time>
      </trkpt>
      <trkpt lat="42.564147021621466" lon="1.781700002029538">
        <ele>1779.54</ele>
        <time>2025-05-15T06:07:18Z</time>
      </trkpt>
      <trkpt lat="42.564196977764368" lon="1.781821958720684">
        <ele>1778.5799999999999</ele>
        <time>2025-05-15T06:07:19Z</time>
      </trkpt>
      <trkpt lat="42.564248023554683" lon="1.78194098174572">
        <ele>1778.0999999999999</ele>
        <time>2025-05-15T06:07:20Z</time>
      </trkpt>
      <trkpt lat="42.564303008839488" lon="1.782050030305982">
        <ele>1777.6099999999999</ele>
        <time>2025-05-15T06:07:21Z</time>
      </trkpt>
      <trkpt lat="42.564447009935975" lon="1.782080959528685">
        <ele>1777.1300000000001</ele>
        <time>2025-05-15T06:07:22Z</time>
      </trkpt>
      <trkpt lat="42.564498977735639" lon="1.782124964520335">
        <ele>1776.6500000000001</ele>
        <time>2025-05-15T06:07:23Z</time>
      </trkpt>
      <trkpt lat="42.564591011032462" lon="1.782205011695623">
        <ele>1776.1700000000001</ele>
        <time>2025-05-15T06:07:24Z</time>
      </trkpt>
      <trkpt lat="42.564691007137299" lon="1.782291010022163">
        <ele>1776.1700000000001</ele>
        <time>2025-05-15T06:07:25Z</time>
      </trkpt>
      <trkpt lat="42.564797038212419" lon="1.782382037490606">
        <ele>1775.6900000000001</ele>
        <time>2025-05-15T06:07:26Z</time>
      </trkpt>
      <trkpt lat="42.565671019256115" lon="1.783197009935975">
        <ele>1780.5</ele>
        <time>2025-05-15T06:07:33Z</time>
      </trkpt>
      <trkpt lat="42.566088018938899" lon="1.783464979380369">
        <ele>1782.9000000000001</ele>
        <time>2025-05-15T06:07:36Z</time>
      </trkpt>
      <trkpt lat="42.566211987286806" lon="1.783603029325604">
        <ele>1783.3800000000001</ele>
        <time>2025-05-15T06:07:37Z</time>
      </trkpt>
      <trkpt lat="42.566324975341558" lon="1.783775025978684">
        <ele>1784.3399999999999</ele>
        <time>2025-05-15T06:07:38Z</time>
      </trkpt>
      <trkpt lat="42.566983038559556" lon="1.7849260289222">
        <ele>1790.5899999999999</ele>
        <time>2025-05-15T06:07:44Z</time>
      </trkpt>
      <trkpt lat="42.567050009965897" lon="1.78514395840466">
        <ele>1791.55</ele>
        <time>2025-05-15T06:07:45Z</time>
      </trkpt>
      <trkpt lat="42.567117987200618" lon="1.785364989191294">
        <ele>1792.52</ele>
        <time>2025-05-15T06:07:46Z</time>
      </trkpt>
      <trkpt lat="42.567493999376893" lon="1.787594994530082">
        <ele>1802.1300000000001</ele>
        <time>2025-05-15T06:07:55Z</time>
      </trkpt>
      <trkpt lat="42.567498022690415" lon="1.788066979497671">
        <ele>1804.05</ele>
        <time>2025-05-15T06:07:57Z</time>
      </trkpt>
      <trkpt lat="42.567485030740499" lon="1.788298990577459">
        <ele>1804.53</ele>
        <time>2025-05-15T06:07:58Z</time>
      </trkpt>
      <trkpt lat="42.567461980506778" lon="1.788528990000486">
        <ele>1805.49</ele>
        <time>2025-05-15T06:07:59Z</time>
      </trkpt>
      <trkpt lat="42.567388974130154" lon="1.78875002078712">
        <ele>1806.45</ele>
        <time>2025-05-15T06:08:00Z</time>
      </trkpt>
      <trkpt lat="42.567312028259039" lon="1.788979014381766">
        <ele>1807.9000000000001</ele>
        <time>2025-05-15T06:08:01Z</time>
      </trkpt>
      <trkpt lat="42.567070964723825" lon="1.789667000994086">
        <ele>1810.78</ele>
        <time>2025-05-15T06:08:04Z</time>
      </trkpt>
      <trkpt lat="42.566571990028024" lon="1.79068598896265">
        <ele>1817.03</ele>
        <time>2025-05-15T06:08:09Z</time>
      </trkpt>
      <trkpt lat="42.566523039713502" lon="1.790938032791019">
        <ele>1817.99</ele>
        <time>2025-05-15T06:08:10Z</time>
      </trkpt>
      <trkpt lat="42.56647601723671" lon="1.791183035820723">
        <ele>1818.95</ele>
        <time>2025-05-15T06:08:11Z</time>
      </trkpt>
      <trkpt lat="42.56632698699832" lon="1.792141003534198">
        <ele>1823.28</ele>
        <time>2025-05-15T06:08:15Z</time>
      </trkpt>
      <trkpt lat="42.56634802557528" lon="1.792358011007309">
        <ele>1824.24</ele>
        <time>2025-05-15T06:08:16Z</time>
      </trkpt>
      <trkpt lat="42.566395970061421" lon="1.792572000995278">
        <ele>1825.6800000000001</ele>
        <time>2025-05-15T06:08:17Z</time>
      </trkpt>
      <trkpt lat="42.566462019458413" lon="1.792781967669725">
        <ele>1826.6400000000001</ele>
        <time>2025-05-15T06:08:18Z</time>
      </trkpt>
      <trkpt lat="42.566528990864754" lon="1.792999980971217">
        <ele>1827.1199999999999</ele>
        <time>2025-05-15T06:08:19Z</time>
      </trkpt>
      <trkpt lat="42.566580958664417" lon="1.793231992051005">
        <ele>1828.0799999999999</ele>
        <time>2025-05-15T06:08:20Z</time>
      </trkpt>
      <trkpt lat="42.566625969484448" lon="1.793470960110426">
        <ele>1828.5599999999999</ele>
        <time>2025-05-15T06:08:21Z</time>
      </trkpt>
      <trkpt lat="42.56667198613286" lon="1.793715041130781">
        <ele>1829.53</ele>
        <time>2025-05-15T06:08:22Z</time>
      </trkpt>
      <trkpt lat="42.566791009157896" lon="1.796611994504929">
        <ele>1842.02</ele>
        <time>2025-05-15T06:08:33Z</time>
      </trkpt>
      <trkpt lat="42.566755972802639" lon="1.796824978664517">
        <ele>1842.98</ele>
        <time>2025-05-15T06:08:34Z</time>
      </trkpt>
      <trkpt lat="42.566702999174595" lon="1.797012984752655">
        <ele>1843.95</ele>
        <time>2025-05-15T06:08:35Z</time>
      </trkpt>
      <trkpt lat="42.566652037203312" lon="1.79719302803278">
        <ele>1845.3900000000001</ele>
        <time>2025-05-15T06:08:36Z</time>
      </trkpt>
      <trkpt lat="42.566621024161577" lon="1.797372987493873">
        <ele>1846.3499999999999</ele>
        <time>2025-05-15T06:08:37Z</time>
      </trkpt>
      <trkpt lat="42.566593028604984" lon="1.797595024108887">
        <ele>1847.79</ele>
        <time>2025-05-15T06:08:38Z</time>
      </trkpt>
      <trkpt lat="42.566624041646719" lon="1.797748999670148">
        <ele>1848.75</ele>
        <time>2025-05-15T06:08:39Z</time>
      </trkpt>
      <trkpt lat="42.566657988354564" lon="1.797916973009706">
        <ele>1850.1900000000001</ele>
        <time>2025-05-15T06:08:40Z</time>
      </trkpt>
      <trkpt lat="42.566750021651387" lon="1.798083018511534">
        <ele>1851.1600000000001</ele>
        <time>2025-05-15T06:08:41Z</time>
      </trkpt>
      <trkpt lat="42.566834008321166" lon="1.798233976587653">
        <ele>1852.1199999999999</ele>
        <time>2025-05-15T06:08:42Z</time>
      </trkpt>
      <trkpt lat="42.566903997212648" lon="1.798391975462437">
        <ele>1853.0799999999999</ele>
        <time>2025-05-15T06:08:43Z</time>
      </trkpt>
      <trkpt lat="42.566960994154215" lon="1.798551985993981">
        <ele>1853.5599999999999</ele>
        <time>2025-05-15T06:08:44Z</time>
      </trkpt>
      <trkpt lat="42.566987983882427" lon="1.798736974596977">
        <ele>1854.52</ele>
        <time>2025-05-15T06:08:45Z</time>
      </trkpt>
      <trkpt lat="42.566997958347201" lon="1.798946019262075">
        <ele>1855.48</ele>
        <time>2025-05-15T06:08:46Z</time>
      </trkpt>
      <trkpt lat="42.56697298027575" lon="1.79914902895689">
        <ele>1855.48</ele>
        <time>2025-05-15T06:08:47Z</time>
      </trkpt>
      <trkpt lat="42.5669289752841" lon="1.799337035045028">
        <ele>1855.96</ele>
        <time>2025-05-15T06:08:48Z</time>
      </trkpt>
      <trkpt lat="42.566859992220998" lon="1.799497967585921">
        <ele>1856.9200000000001</ele>
        <time>2025-05-15T06:08:49Z</time>
      </trkpt>
      <trkpt lat="42.566758990287781" lon="1.799639035016298">
        <ele>1857.4000000000001</ele>
        <time>2025-05-15T06:08:50Z</time>
      </trkpt>
      <trkpt lat="42.566638961434364" lon="1.799758980050683">
        <ele>1858.3699999999999</ele>
        <time>2025-05-15T06:08:51Z</time>
      </trkpt>
      <trkpt lat="42.566494960337877" lon="1.799853025004268">
        <ele>1859.3299999999999</ele>
        <time>2025-05-15T06:08:52Z</time>
      </trkpt>
      <trkpt lat="42.566342996433377" lon="1.799942040815949">
        <ele>1860.29</ele>
        <time>2025-05-15T06:08:53Z</time>
      </trkpt>
      <trkpt lat="42.566182985901833" lon="1.800034996122122">
        <ele>1861.25</ele>
        <time>2025-05-15T06:08:54Z</time>
      </trkpt>
      <trkpt lat="42.566017024219036" lon="1.800131974741817">
        <ele>1862.21</ele>
        <time>2025-05-15T06:08:55Z</time>
      </trkpt>
      <trkpt lat="42.564621018245816" lon="1.801029006019235">
        <ele>1870.8599999999999</ele>
        <time>2025-05-15T06:09:03Z</time>
      </trkpt>
      <trkpt lat="42.564473999664187" lon="1.801177030429244">
        <ele>1871.8199999999999</ele>
        <time>2025-05-15T06:09:04Z</time>
      </trkpt>
      <trkpt lat="42.564341984689236" lon="1.801363024860621">
        <ele>1872.79</ele>
        <time>2025-05-15T06:09:05Z</time>
      </trkpt>
      <trkpt lat="42.564063034951687" lon="1.801757980138063">
        <ele>1875.1900000000001</ele>
        <time>2025-05-15T06:09:07Z</time>
      </trkpt>
      <trkpt lat="42.56392003968358" lon="1.801960989832878">
        <ele>1876.1500000000001</ele>
        <time>2025-05-15T06:09:08Z</time>
      </trkpt>
      <trkpt lat="42.563773021101952" lon="1.802168022841215">
        <ele>1877.1099999999999</ele>
        <time>2025-05-15T06:09:09Z</time>
      </trkpt>
      <trkpt lat="42.563624996691942" lon="1.802377989515662">
        <ele>1878.0699999999999</ele>
        <time>2025-05-15T06:09:10Z</time>
      </trkpt>
      <trkpt lat="42.563474038615823" lon="1.802590973675251">
        <ele>1879.03</ele>
        <time>2025-05-15T06:09:11Z</time>
      </trkpt>
      <trkpt lat="42.562420014292002" lon="1.80437296628952">
        <ele>1888.6500000000001</ele>
        <time>2025-05-15T06:09:19Z</time>
      </trkpt>
      <trkpt lat="42.562350025400519" lon="1.804643031209707">
        <ele>1890.0899999999999</ele>
        <time>2025-05-15T06:09:20Z</time>
      </trkpt>
      <trkpt lat="42.562277019023895" lon="1.804927010089159">
        <ele>1891.05</ele>
        <time>2025-05-15T06:09:21Z</time>
      </trkpt>
      <trkpt lat="42.561764968559146" lon="1.806913018226624">
        <ele>1899.7</ele>
        <time>2025-05-15T06:09:28Z</time>
      </trkpt>
      <trkpt lat="42.561647035181522" lon="1.807159027084708">
        <ele>1900.6600000000001</ele>
        <time>2025-05-15T06:09:29Z</time>
      </trkpt>
      <trkpt lat="42.561248978599906" lon="1.807881966233254">
        <ele>1904.99</ele>
        <time>2025-05-15T06:09:32Z</time>
      </trkpt>
      <trkpt lat="42.560713039711118" lon="1.809219969436526">
        <ele>1910.76</ele>
        <time>2025-05-15T06:09:37Z</time>
      </trkpt>
      <trkpt lat="42.560600973665714" lon="1.809423984959722">
        <ele>1911.72</ele>
        <time>2025-05-15T06:09:38Z</time>
      </trkpt>
      <trkpt lat="42.560479016974568" lon="1.809601010754705">
        <ele>1913.1600000000001</ele>
        <time>2025-05-15T06:09:39Z</time>
      </trkpt>
      <trkpt lat="42.559791030362248" lon="1.810569036751986">
        <ele>1919.8900000000001</ele>
        <time>2025-05-15T06:09:46Z</time>
      </trkpt>
      <trkpt lat="42.559645017609" lon="1.810828037559986">
        <ele>1920.3699999999999</ele>
        <time>2025-05-15T06:09:48Z</time>
      </trkpt>
      <trkpt lat="42.559585003182292" lon="1.810970026999712">
        <ele>1919.8900000000001</ele>
        <time>2025-05-15T06:09:49Z</time>
      </trkpt>
      <trkpt lat="42.559532029554248" lon="1.811105981469154">
        <ele>1919.8900000000001</ele>
        <time>2025-05-15T06:09:50Z</time>
      </trkpt>
      <trkpt lat="42.559510990977287" lon="1.811272026970983">
        <ele>1919.4100000000001</ele>
        <time>2025-05-15T06:09:51Z</time>
      </trkpt>
      <trkpt lat="42.559490036219358" lon="1.811437988653779">
        <ele>1918.9300000000001</ele>
        <time>2025-05-15T06:09:52Z</time>
      </trkpt>
      <trkpt lat="42.55947302095592" lon="1.811613002792001">
        <ele>1918.45</ele>
        <time>2025-05-15T06:09:53Z</time>
      </trkpt>
      <trkpt lat="42.559419041499496" lon="1.812160005792975">
        <ele>1915.0799999999999</ele>
        <time>2025-05-15T06:09:58Z</time>
      </trkpt>
      <trkpt lat="42.559415018185973" lon="1.812203004956245">
        <ele>1912.2</ele>
        <time>2025-05-15T06:10:05Z</time>
      </trkpt>
      <trkpt lat="42.559415018185973" lon="1.812203004956245">
        <ele>1912.2</ele>
        <time>2025-05-15T06:10:42Z</time>
      </trkpt>
      <trkpt lat="42.559406971558928" lon="1.812285985797644">
        <ele>1911.24</ele>
        <time>2025-05-15T06:10:53Z</time>
      </trkpt>
      <trkpt lat="42.559347040951252" lon="1.812801975756884">
        <ele>1909.3199999999999</ele>
        <time>2025-05-15T06:10:57Z</time>
      </trkpt>
      <trkpt lat="42.558962982147932" lon="1.814163029193878">
        <ele>1906.4300000000001</ele>
        <time>2025-05-15T06:11:04Z</time>
      </trkpt>
      <trkpt lat="42.557986993342638" lon="1.816117018461227">
        <ele>1899.22</ele>
        <time>2025-05-15T06:11:13Z</time>
      </trkpt>
      <trkpt lat="42.556574977934361" lon="1.818799981847405">
        <ele>1884.3199999999999</ele>
        <time>2025-05-15T06:11:24Z</time>
      </trkpt>
      <trkpt lat="42.555344011634588" lon="1.820749025791884">
        <ele>1872.3</ele>
        <time>2025-05-15T06:11:33Z</time>
      </trkpt>
      <trkpt lat="42.554233996197581" lon="1.822663033381105">
        <ele>1860.29</ele>
        <time>2025-05-15T06:11:42Z</time>
      </trkpt>
      <trkpt lat="42.553937025368214" lon="1.823413968086243">
        <ele>1856.9200000000001</ele>
        <time>2025-05-15T06:11:46Z</time>
      </trkpt>
      <trkpt lat="42.553790006786585" lon="1.82394496165216">
        <ele>1855</ele>
        <time>2025-05-15T06:11:50Z</time>
      </trkpt>
      <trkpt lat="42.553762011229992" lon="1.82405199855566">
        <ele>1854.52</ele>
        <time>2025-05-15T06:11:51Z</time>
      </trkpt>
      <trkpt lat="42.553711971268058" lon="1.82411402463913">
        <ele>1854.52</ele>
        <time>2025-05-15T06:11:52Z</time>
      </trkpt>
      <trkpt lat="42.553633013740182" lon="1.824145037680864">
        <ele>1854.04</ele>
        <time>2025-05-15T06:11:53Z</time>
      </trkpt>
      <trkpt lat="42.553582973778248" lon="1.82409499771893">
        <ele>1854.04</ele>
        <time>2025-05-15T06:11:54Z</time>
      </trkpt>
      <trkpt lat="42.553540980443358" lon="1.82403196580708">
        <ele>1854.04</ele>
        <time>2025-05-15T06:11:55Z</time>
      </trkpt>
      <trkpt lat="42.553531005978584" lon="1.823956025764346">
        <ele>1853.5599999999999</ele>
        <time>2025-05-15T06:11:56Z</time>
      </trkpt>
      <trkpt lat="42.553547015413642" lon="1.82381596416235">
        <ele>1853.5599999999999</ele>
        <time>2025-05-15T06:11:57Z</time>
      </trkpt>
      <trkpt lat="42.553590014576912" lon="1.823739018291235">
        <ele>1854.04</ele>
        <time>2025-05-15T06:11:58Z</time>
      </trkpt>
      <trkpt lat="42.553647011518478" lon="1.823634998872876">
        <ele>1854.52</ele>
        <time>2025-05-15T06:11:59Z</time>
      </trkpt>
      <trkpt lat="42.554108016192913" lon="1.822627997025847">
        <ele>1852.5999999999999</ele>
        <time>2025-05-15T06:12:06Z</time>
      </trkpt>
      <trkpt lat="42.55489700473845" lon="1.820515003055334">
        <ele>1846.8299999999999</ele>
        <time>2025-05-15T06:12:16Z</time>
      </trkpt>
      <trkpt lat="42.555775009095669" lon="1.817865986377001">
        <ele>1836.74</ele>
        <time>2025-05-15T06:12:28Z</time>
      </trkpt>
      <trkpt lat="42.555789006873965" lon="1.817683009430766">
        <ele>1835.77</ele>
        <time>2025-05-15T06:12:29Z</time>
      </trkpt>
      <trkpt lat="42.555801998823881" lon="1.817504977807403">
        <ele>1834.8099999999999</ele>
        <time>2025-05-15T06:12:30Z</time>
      </trkpt>
      <trkpt lat="42.555814990773797" lon="1.817329041659832">
        <ele>1834.3299999999999</ele>
        <time>2025-05-15T06:12:31Z</time>
      </trkpt>
      <trkpt lat="42.555844997987151" lon="1.817158972844482">
        <ele>1833.3699999999999</ele>
        <time>2025-05-15T06:12:32Z</time>
      </trkpt>
      <trkpt lat="42.555890008807182" lon="1.816993011161685">
        <ele>1832.8900000000001</ele>
        <time>2025-05-15T06:12:33Z</time>
      </trkpt>
      <trkpt lat="42.555934013798833" lon="1.816825037822127">
        <ele>1832.4100000000001</ele>
        <time>2025-05-15T06:12:34Z</time>
      </trkpt>
      <trkpt lat="42.555977012962103" lon="1.816662009805441">
        <ele>1831.45</ele>
        <time>2025-05-15T06:12:35Z</time>
      </trkpt>
      <trkpt lat="42.556015988811851" lon="1.816501999273896">
        <ele>1830.97</ele>
        <time>2025-05-15T06:12:36Z</time>
      </trkpt>
      <trkpt lat="42.556025963276625" lon="1.816323967650533">
        <ele>1830.01</ele>
        <time>2025-05-15T06:12:37Z</time>
      </trkpt>
      <trkpt lat="42.556033004075289" lon="1.81614501401782">
        <ele>1829.05</ele>
        <time>2025-05-15T06:12:38Z</time>
      </trkpt>
      <trkpt lat="42.555991010740399" lon="1.815976034849882">
        <ele>1828.5599999999999</ele>
        <time>2025-05-15T06:12:39Z</time>
      </trkpt>
      <trkpt lat="42.555950023233891" lon="1.815810995176435">
        <ele>1827.1199999999999</ele>
        <time>2025-05-15T06:12:40Z</time>
      </trkpt>
      <trkpt lat="42.555872993543744" lon="1.815658025443554">
        <ele>1826.1600000000001</ele>
        <time>2025-05-15T06:12:41Z</time>
      </trkpt>
      <trkpt lat="42.555414000526071" lon="1.814567958936095">
        <ele>1819.9100000000001</ele>
        <time>2025-05-15T06:12:48Z</time>
      </trkpt>
      <trkpt lat="42.555300006642938" lon="1.814427981153131">
        <ele>1818.95</ele>
        <time>2025-05-15T06:12:49Z</time>
      </trkpt>
      <trkpt lat="42.555217025801539" lon="1.814325973391533">
        <ele>1818.47</ele>
        <time>2025-05-15T06:12:50Z</time>
      </trkpt>
      <trkpt lat="42.55513496696949" lon="1.814224971458316">
        <ele>1817.51</ele>
        <time>2025-05-15T06:12:51Z</time>
      </trkpt>
      <trkpt lat="42.555042011663318" lon="1.814179038628936">
        <ele>1816.55</ele>
        <time>2025-05-15T06:12:52Z</time>
      </trkpt>
      <trkpt lat="42.554955007508397" lon="1.814135033637285">
        <ele>1816.0699999999999</ele>
        <time>2025-05-15T06:12:53Z</time>
      </trkpt>
      <trkpt lat="42.55487403832376" lon="1.814128998667002">
        <ele>1815.1099999999999</ele>
        <time>2025-05-15T06:12:54Z</time>
      </trkpt>
      <trkpt lat="42.55481100641191" lon="1.814165040850639">
        <ele>1814.6300000000001</ele>
        <time>2025-05-15T06:12:55Z</time>
      </trkpt>
      <trkpt lat="42.554744035005569" lon="1.814238969236612">
        <ele>1814.1500000000001</ele>
        <time>2025-05-15T06:12:56Z</time>
      </trkpt>
      <trkpt lat="42.554641021415591" lon="1.814352963119745">
        <ele>1813.6600000000001</ele>
        <time>2025-05-15T06:12:57Z</time>
      </trkpt>
      <trkpt lat="42.554595004767179" lon="1.814450025558472">
        <ele>1812.7</ele>
        <time>2025-05-15T06:12:58Z</time>
      </trkpt>
      <trkpt lat="42.554525015875697" lon="1.81459603831172">
        <ele>1811.74</ele>
        <time>2025-05-15T06:12:59Z</time>
      </trkpt>
      <trkpt lat="42.554194014519453" lon="1.81528695859015">
        <ele>1808.8599999999999</ele>
        <time>2025-05-15T06:13:03Z</time>
      </trkpt>
      <trkpt lat="42.554086977615952" lon="1.815422996878624">
        <ele>1807.9000000000001</ele>
        <time>2025-05-15T06:13:04Z</time>
      </trkpt>
      <trkpt lat="42.553955968469381" lon="1.815507989376783">
        <ele>1807.4200000000001</ele>
        <time>2025-05-15T06:13:05Z</time>
      </trkpt>
      <trkpt lat="42.553819008171558" lon="1.815598011016846">
        <ele>1806.45</ele>
        <time>2025-05-15T06:13:06Z</time>
      </trkpt>
      <trkpt lat="42.553675007075071" lon="1.815691972151399">
        <ele>1805.49</ele>
        <time>2025-05-15T06:13:07Z</time>
      </trkpt>
      <trkpt lat="42.552976040169597" lon="1.816071001812816">
        <ele>1800.6900000000001</ele>
        <time>2025-05-15T06:13:12Z</time>
      </trkpt>
      <trkpt lat="42.552758026868105" lon="1.816161023452878">
        <ele>1799.73</ele>
        <time>2025-05-15T06:13:14Z</time>
      </trkpt>
      <trkpt lat="42.552686026319861" lon="1.81625003926456">
        <ele>1798.76</ele>
        <time>2025-05-15T06:13:15Z</time>
      </trkpt>
      <trkpt lat="42.552624000236392" lon="1.816327990964055">
        <ele>1798.28</ele>
        <time>2025-05-15T06:13:16Z</time>
      </trkpt>
      <trkpt lat="42.552634980529547" lon="1.816428992897272">
        <ele>1798.28</ele>
        <time>2025-05-15T06:13:17Z</time>
      </trkpt>
      <trkpt lat="42.552645960822701" lon="1.816521026194096">
        <ele>1797.8</ele>
        <time>2025-05-15T06:13:18Z</time>
      </trkpt>
      <trkpt lat="42.552702035754919" lon="1.816566959023476">
        <ele>1797.3199999999999</ele>
        <time>2025-05-15T06:13:19Z</time>
      </trkpt>
      <trkpt lat="42.552774036303163" lon="1.816627979278565">
        <ele>1797.3199999999999</ele>
        <time>2025-05-15T06:13:20Z</time>
      </trkpt>
      <trkpt lat="42.552865985780954" lon="1.816615993157029">
        <ele>1796.8399999999999</ele>
        <time>2025-05-15T06:13:21Z</time>
      </trkpt>
      <trkpt lat="42.552990037947893" lon="1.816598977893591">
        <ele>1796.3599999999999</ele>
        <time>2025-05-15T06:13:22Z</time>
      </trkpt>
      <trkpt lat="42.553125992417336" lon="1.816580034792423">
        <ele>1795.4000000000001</ele>
        <time>2025-05-15T06:13:23Z</time>
      </trkpt>
      <trkpt lat="42.553572999313474" lon="1.816519014537334">
        <ele>1793.48</ele>
        <time>2025-05-15T06:13:26Z</time>
      </trkpt>
      <trkpt lat="42.553712977096438" lon="1.816499987617135">
        <ele>1793.48</ele>
        <time>2025-05-15T06:13:27Z</time>
      </trkpt>
      <trkpt lat="42.553839962929487" lon="1.816576011478901">
        <ele>1792.52</ele>
        <time>2025-05-15T06:13:28Z</time>
      </trkpt>
      <trkpt lat="42.553949011489749" lon="1.816646000370383">
        <ele>1792.03</ele>
        <time>2025-05-15T06:13:29Z</time>
      </trkpt>
      <trkpt lat="42.554031992331147" lon="1.8167660292238">
        <ele>1791.0699999999999</ele>
        <time>2025-05-15T06:13:30Z</time>
      </trkpt>
      <trkpt lat="42.554095024242997" lon="1.816913969814777">
        <ele>1790.5899999999999</ele>
        <time>2025-05-15T06:13:31Z</time>
      </trkpt>
      <trkpt lat="42.554156966507435" lon="1.817070040851831">
        <ele>1790.1099999999999</ele>
        <time>2025-05-15T06:13:32Z</time>
      </trkpt>
      <trkpt lat="42.554169036448002" lon="1.817232985049486">
        <ele>1789.1500000000001</ele>
        <time>2025-05-15T06:13:33Z</time>
      </trkpt>
      <trkpt lat="42.554169036448002" lon="1.817404981702566">
        <ele>1788.1900000000001</ele>
        <time>2025-05-15T06:13:34Z</time>
      </trkpt>
      <trkpt lat="42.554151015356183" lon="1.817570021376014">
        <ele>1787.23</ele>
        <time>2025-05-15T06:13:35Z</time>
      </trkpt>
      <trkpt lat="42.554097035899758" lon="1.817752998322249">
        <ele>1786.75</ele>
        <time>2025-05-15T06:13:36Z</time>
      </trkpt>
      <trkpt lat="42.554040038958192" lon="1.817948967218399">
        <ele>1785.79</ele>
        <time>2025-05-15T06:13:37Z</time>
      </trkpt>
      <trkpt lat="42.553492030128837" lon="1.819859035313129">
        <ele>1779.54</ele>
        <time>2025-05-15T06:13:45Z</time>
      </trkpt>
      <trkpt lat="42.553404020145535" lon="1.820099009200931">
        <ele>1778.5799999999999</ele>
        <time>2025-05-15T06:13:46Z</time>
      </trkpt>
      <trkpt lat="42.553290026262403" lon="1.820286009460688">
        <ele>1777.6099999999999</ele>
        <time>2025-05-15T06:13:47Z</time>
      </trkpt>
      <trkpt lat="42.55317896604538" lon="1.820466974750161">
        <ele>1777.1300000000001</ele>
        <time>2025-05-15T06:13:48Z</time>
      </trkpt>
      <trkpt lat="42.553095985203981" lon="1.820666966959834">
        <ele>1776.6500000000001</ele>
        <time>2025-05-15T06:13:49Z</time>
      </trkpt>
      <trkpt lat="42.553022978827357" lon="1.820890009403229">
        <ele>1775.6900000000001</ele>
        <time>2025-05-15T06:13:50Z</time>
      </trkpt>
      <trkpt lat="42.552948966622353" lon="1.821119002997875">
        <ele>1774.73</ele>
        <time>2025-05-15T06:13:51Z</time>
      </trkpt>
      <trkpt lat="42.552865985780954" lon="1.821354031562805">
        <ele>1773.77</ele>
        <time>2025-05-15T06:13:52Z</time>
      </trkpt>
      <trkpt lat="42.55274998024106" lon="1.821553017944098">
        <ele>1772.8099999999999</ele>
        <time>2025-05-15T06:13:53Z</time>
      </trkpt>
      <trkpt lat="42.551942970603704" lon="1.823176005855203">
        <ele>1764.6400000000001</ele>
        <time>2025-05-15T06:14:01Z</time>
      </trkpt>
      <trkpt lat="42.551874993368983" lon="1.823369041085243">
        <ele>1763.6800000000001</ele>
        <time>2025-05-15T06:14:02Z</time>
      </trkpt>
      <trkpt lat="42.551809027791023" lon="1.82355897501111">
        <ele>1763.2</ele>
        <time>2025-05-15T06:14:03Z</time>
      </trkpt>
      <trkpt lat="42.551753958687186" lon="1.823744969442487">
        <ele>1762.23</ele>
        <time>2025-05-15T06:14:04Z</time>
      </trkpt>
      <trkpt lat="42.55169402807951" lon="1.823940016329289">
        <ele>1761.75</ele>
        <time>2025-05-15T06:14:05Z</time>
      </trkpt>
      <trkpt lat="42.551614986732602" lon="1.824121987447143">
        <ele>1760.79</ele>
        <time>2025-05-15T06:14:06Z</time>
      </trkpt>
      <trkpt lat="42.551538040861487" lon="1.824300019070506">
        <ele>1760.3099999999999</ele>
        <time>2025-05-15T06:14:07Z</time>
      </trkpt>
      <trkpt lat="42.551463022828102" lon="1.824471009895206">
        <ele>1759.3499999999999</ele>
        <time>2025-05-15T06:14:08Z</time>
      </trkpt>
      <trkpt lat="42.551391022279859" lon="1.824635965749621">
        <ele>1758.8699999999999</ele>
        <time>2025-05-15T06:14:09Z</time>
      </trkpt>
      <trkpt lat="42.551332013681531" lon="1.824807040393353">
        <ele>1757.9100000000001</ele>
        <time>2025-05-15T06:14:10Z</time>
      </trkpt>
      <trkpt lat="42.551312986761332" lon="1.825006026774645">
        <ele>1756.95</ele>
        <time>2025-05-15T06:14:11Z</time>
      </trkpt>
      <trkpt lat="42.551292032003403" lon="1.825215993449092">
        <ele>1755.99</ele>
        <time>2025-05-15T06:14:12Z</time>
      </trkpt>
      <trkpt lat="42.551269987598062" lon="1.825440041720867">
        <ele>1755.5</ele>
        <time>2025-05-15T06:14:13Z</time>
      </trkpt>
      <trkpt lat="42.551197987049818" lon="1.827465025708079">
        <ele>1747.8099999999999</ele>
        <time>2025-05-15T06:14:21Z</time>
      </trkpt>
      <trkpt lat="42.551332013681531" lon="1.829475006088615">
        <ele>1740.5999999999999</ele>
        <time>2025-05-15T06:14:29Z</time>
      </trkpt>
      <trkpt lat="42.55130996927619" lon="1.829712968319655">
        <ele>1739.6400000000001</ele>
        <time>2025-05-15T06:14:30Z</time>
      </trkpt>
      <trkpt lat="42.551259007304907" lon="1.830459041520953">
        <ele>1736.28</ele>
        <time>2025-05-15T06:14:33Z</time>
      </trkpt>
      <trkpt lat="42.551285997033119" lon="1.830694992095232">
        <ele>1734.8399999999999</ele>
        <time>2025-05-15T06:14:34Z</time>
      </trkpt>
      <trkpt lat="42.551402002573013" lon="1.831373004242778">
        <ele>1731.47</ele>
        <time>2025-05-15T06:14:37Z</time>
      </trkpt>
      <trkpt lat="42.551464028656483" lon="1.831589005887508">
        <ele>1730.51</ele>
        <time>2025-05-15T06:14:38Z</time>
      </trkpt>
      <trkpt lat="42.551641976460814" lon="1.832203986123204">
        <ele>1727.1500000000001</ele>
        <time>2025-05-15T06:14:41Z</time>
      </trkpt>
      <trkpt lat="42.551671983674169" lon="1.832383023574948">
        <ele>1726.1800000000001</ele>
        <time>2025-05-15T06:14:42Z</time>
      </trkpt>
      <trkpt lat="42.551644993945956" lon="1.832556026056409">
        <ele>1725.22</ele>
        <time>2025-05-15T06:14:43Z</time>
      </trkpt>
      <trkpt lat="42.551619010046124" lon="1.832719976082444">
        <ele>1724.26</ele>
        <time>2025-05-15T06:14:44Z</time>
      </trkpt>
      <trkpt lat="42.551595037803054" lon="1.832863977178931">
        <ele>1723.3</ele>
        <time>2025-05-15T06:14:45Z</time>
      </trkpt>
      <trkpt lat="42.551537035033107" lon="1.832938995212317">
        <ele>1722.3399999999999</ele>
        <time>2025-05-15T06:14:46Z</time>
      </trkpt>
      <trkpt lat="42.551466040313244" lon="1.833021976053715">
        <ele>1721.3800000000001</ele>
        <time>2025-05-15T06:14:47Z</time>
      </trkpt>
      <trkpt lat="42.551406025886536" lon="1.833038991317153">
        <ele>1720.9000000000001</ele>
        <time>2025-05-15T06:14:48Z</time>
      </trkpt>
      <trkpt lat="42.551314998418093" lon="1.833064975216985">
        <ele>1719.9400000000001</ele>
        <time>2025-05-15T06:14:49Z</time>
      </trkpt>
      <trkpt lat="42.55122103728354" lon="1.833124989643693">
        <ele>1719.46</ele>
        <time>2025-05-15T06:14:50Z</time>
      </trkpt>
      <trkpt lat="42.551127998158336" lon="1.83318299241364">
        <ele>1718.97</ele>
        <time>2025-05-15T06:14:51Z</time>
      </trkpt>
      <trkpt lat="42.551049962639809" lon="1.833277959376574">
        <ele>1718.01</ele>
        <time>2025-05-15T06:14:52Z</time>
      </trkpt>
      <trkpt lat="42.550994977355003" lon="1.833401005715132">
        <ele>1717.53</ele>
        <time>2025-05-15T06:14:53Z</time>
      </trkpt>
      <trkpt lat="42.550962036475539" lon="1.833559004589915">
        <ele>1716.5699999999999</ele>
        <time>2025-05-15T06:14:54Z</time>
      </trkpt>
      <trkpt lat="42.55094401538372" lon="1.833736030384898">
        <ele>1716.0899999999999</ele>
        <time>2025-05-15T06:14:55Z</time>
      </trkpt>
      <trkpt lat="42.550709992647171" lon="1.835328005254269">
        <ele>1710.8</ele>
        <time>2025-05-15T06:15:02Z</time>
      </trkpt>
      <trkpt lat="42.550577977672219" lon="1.835797978565097">
        <ele>1708.8800000000001</ele>
        <time>2025-05-15T06:15:04Z</time>
      </trkpt>
      <trkpt lat="42.550502959638834" lon="1.836005011573434">
        <ele>1707.9200000000001</ele>
        <time>2025-05-15T06:15:05Z</time>
      </trkpt>
      <trkpt lat="42.55043095909059" lon="1.836208021268249">
        <ele>1706.96</ele>
        <time>2025-05-15T06:15:06Z</time>
      </trkpt>
      <trkpt lat="42.550349989905953" lon="1.836432991549373">
        <ele>1706</ele>
        <time>2025-05-15T06:15:07Z</time>
      </trkpt>
      <trkpt lat="42.550319982692599" lon="1.836642036214471">
        <ele>1705.04</ele>
        <time>2025-05-15T06:15:08Z</time>
      </trkpt>
      <trkpt lat="42.550075985491276" lon="1.839175969362259">
        <ele>1695.4200000000001</ele>
        <time>2025-05-15T06:15:18Z</time>
      </trkpt>
      <trkpt lat="42.550048995763063" lon="1.840854026377201">
        <ele>1688.21</ele>
        <time>2025-05-15T06:15:25Z</time>
      </trkpt>
      <trkpt lat="42.550090989097953" lon="1.841051001101732">
        <ele>1687.25</ele>
        <time>2025-05-15T06:15:26Z</time>
      </trkpt>
      <trkpt lat="42.550186961889267" lon="1.841686014086008">
        <ele>1685.3299999999999</ele>
        <time>2025-05-15T06:15:30Z</time>
      </trkpt>
      <trkpt lat="42.550177993252873" lon="1.84177603572607">
        <ele>1684.8499999999999</ele>
        <time>2025-05-15T06:15:31Z</time>
      </trkpt>
      <trkpt lat="42.55012703128159" lon="1.841837977990508">
        <ele>1684.3699999999999</ele>
        <time>2025-05-15T06:15:32Z</time>
      </trkpt>
      <trkpt lat="42.550058970227838" lon="1.841902015730739">
        <ele>1683.8900000000001</ele>
        <time>2025-05-15T06:15:33Z</time>
      </trkpt>
      <trkpt lat="42.549983030185103" lon="1.841879971325398">
        <ele>1683.4100000000001</ele>
        <time>2025-05-15T06:15:34Z</time>
      </trkpt>
      <trkpt lat="42.549896026030183" lon="1.841812999919057">
        <ele>1682.9300000000001</ele>
        <time>2025-05-15T06:15:35Z</time>
      </trkpt>
      <trkpt lat="42.549878004938364" lon="1.841677967458963">
        <ele>1682.4400000000001</ele>
        <time>2025-05-15T06:15:36Z</time>
      </trkpt>
      <trkpt lat="42.549878004938364" lon="1.841549975797534">
        <ele>1681.96</ele>
        <time>2025-05-15T06:15:37Z</time>
      </trkpt>
      <trkpt lat="42.549878004938364" lon="1.841402035206556">
        <ele>1681.48</ele>
        <time>2025-05-15T06:15:38Z</time>
      </trkpt>
      <trkpt lat="42.549878004938364" lon="1.841236995533109">
        <ele>1681.48</ele>
        <time>2025-05-15T06:15:39Z</time>
      </trkpt>
      <trkpt lat="42.549878004938364" lon="1.841060975566506">
        <ele>1681.48</ele>
        <time>2025-05-15T06:15:40Z</time>
      </trkpt>
      <trkpt lat="42.549878004938364" lon="1.840868024155498">
        <ele>1681</ele>
        <time>2025-05-15T06:15:41Z</time>
      </trkpt>
      <trkpt lat="42.549878004938364" lon="1.840665014460683">
        <ele>1680.52</ele>
        <time>2025-05-15T06:15:42Z</time>
      </trkpt>
      <trkpt lat="42.54973903298378" lon="1.838752012699843">
        <ele>1675.72</ele>
        <time>2025-05-15T06:15:50Z</time>
      </trkpt>
      <trkpt lat="42.549684969708323" lon="1.835918007418513">
        <ele>1665.1400000000001</ele>
        <time>2025-05-15T06:16:01Z</time>
      </trkpt>
      <trkpt lat="42.549716988578439" lon="1.834012968465686">
        <ele>1657.45</ele>
        <time>2025-05-15T06:16:09Z</time>
      </trkpt>
      <trkpt lat="42.549706008285284" lon="1.833095988258719">
        <ele>1653.1199999999999</ele>
        <time>2025-05-15T06:16:14Z</time>
      </trkpt>
      <trkpt lat="42.549738027155399" lon="1.832788037136197">
        <ele>1651.2</ele>
        <time>2025-05-15T06:16:16Z</time>
      </trkpt>
      <trkpt lat="42.549764011055231" lon="1.832521995529532">
        <ele>1649.76</ele>
        <time>2025-05-15T06:16:18Z</time>
      </trkpt>
      <trkpt lat="42.549751019105315" lon="1.832412024959922">
        <ele>1649.28</ele>
        <time>2025-05-15T06:16:19Z</time>
      </trkpt>
      <trkpt lat="42.549700979143381" lon="1.832340024411678">
        <ele>1648.8</ele>
        <time>2025-05-15T06:16:20Z</time>
      </trkpt>
      <trkpt lat="42.549638031050563" lon="1.832276992499828">
        <ele>1648.3199999999999</ele>
        <time>2025-05-15T06:16:21Z</time>
      </trkpt>
      <trkpt lat="42.549553960561752" lon="1.832228964194655">
        <ele>1647.8399999999999</ele>
        <time>2025-05-15T06:16:22Z</time>
      </trkpt>
      <trkpt lat="42.549467040225863" lon="1.832178002223373">
        <ele>1647.3599999999999</ele>
        <time>2025-05-15T06:16:23Z</time>
      </trkpt>
      <trkpt lat="42.549378024414182" lon="1.832126034423709">
        <ele>1646.4000000000001</ele>
        <time>2025-05-15T06:16:24Z</time>
      </trkpt>
      <trkpt lat="42.549202004447579" lon="1.832023020833731">
        <ele>1645.4300000000001</ele>
        <time>2025-05-15T06:16:26Z</time>
      </trkpt>
      <trkpt lat="42.549122963100672" lon="1.831952026113868">
        <ele>1644.47</ele>
        <time>2025-05-15T06:16:27Z</time>
      </trkpt>
      <trkpt lat="42.549064960330725" lon="1.831858986988664">
        <ele>1643.99</ele>
        <time>2025-05-15T06:16:28Z</time>
      </trkpt>
      <trkpt lat="42.549033025279641" lon="1.831744993105531">
        <ele>1643.03</ele>
        <time>2025-05-15T06:16:29Z</time>
      </trkpt>
      <trkpt lat="42.549020033329725" lon="1.831623036414385">
        <ele>1642.55</ele>
        <time>2025-05-15T06:16:30Z</time>
      </trkpt>
      <trkpt lat="42.549032019451261" lon="1.831495966762304">
        <ele>1642.0699999999999</ele>
        <time>2025-05-15T06:16:31Z</time>
      </trkpt>
      <trkpt lat="42.549045011401176" lon="1.83135699480772">
        <ele>1641.1099999999999</ele>
        <time>2025-05-15T06:16:32Z</time>
      </trkpt>
      <trkpt lat="42.549151964485645" lon="1.830617962405086">
        <ele>1637.74</ele>
        <time>2025-05-15T06:16:37Z</time>
      </trkpt>
      <trkpt lat="42.549166968092322" lon="1.830472033470869">
        <ele>1636.78</ele>
        <time>2025-05-15T06:16:38Z</time>
      </trkpt>
      <trkpt lat="42.549152970314026" lon="1.830331971868873">
        <ele>1636.3</ele>
        <time>2025-05-15T06:16:39Z</time>
      </trkpt>
      <trkpt lat="42.549134027212858" lon="1.830197023227811">
        <ele>1635.3399999999999</ele>
        <time>2025-05-15T06:16:40Z</time>
      </trkpt>
      <trkpt lat="42.549107037484646" lon="1.83006601408124">
        <ele>1634.8599999999999</ele>
        <time>2025-05-15T06:16:41Z</time>
      </trkpt>
      <trkpt lat="42.54907401278615" lon="1.829936010763049">
        <ele>1634.3800000000001</ele>
        <time>2025-05-15T06:16:42Z</time>
      </trkpt>
      <trkpt lat="42.549041993916035" lon="1.829799972474575">
        <ele>1633.9000000000001</ele>
        <time>2025-05-15T06:16:43Z</time>
      </trkpt>
      <trkpt lat="42.548961024731398" lon="1.829353971406817">
        <ele>1632.46</ele>
        <time>2025-05-15T06:16:46Z</time>
      </trkpt>
      <trkpt lat="42.548764972016215" lon="1.827825028449297">
        <ele>1626.21</ele>
        <time>2025-05-15T06:16:55Z</time>
      </trkpt>
      <trkpt lat="42.548684002831578" lon="1.827527973800898">
        <ele>1625.25</ele>
        <time>2025-05-15T06:16:57Z</time>
      </trkpt>
      <trkpt lat="42.548618037253618" lon="1.827408028766513">
        <ele>1624.28</ele>
        <time>2025-05-15T06:16:58Z</time>
      </trkpt>
      <trkpt lat="42.548532960936427" lon="1.827309038490057">
        <ele>1623.8</ele>
        <time>2025-05-15T06:16:59Z</time>
      </trkpt>
      <trkpt lat="42.548421984538436" lon="1.827227985486388">
        <ele>1623.3199999999999</ele>
        <time>2025-05-15T06:17:00Z</time>
      </trkpt>
      <trkpt lat="42.54830002784729" lon="1.827138969674707">
        <ele>1622.3599999999999</ele>
        <time>2025-05-15T06:17:01Z</time>
      </trkpt>
      <trkpt lat="42.547910017892718" lon="1.826854990795255">
        <ele>1620.9200000000001</ele>
        <time>2025-05-15T06:17:04Z</time>
      </trkpt>
      <trkpt lat="42.547774985432625" lon="1.826756000518799">
        <ele>1620.4400000000001</ele>
        <time>2025-05-15T06:17:05Z</time>
      </trkpt>
      <trkpt lat="42.54769803956151" lon="1.826642006635666">
        <ele>1619.96</ele>
        <time>2025-05-15T06:17:06Z</time>
      </trkpt>
      <trkpt lat="42.547625033184886" lon="1.826502028852701">
        <ele>1619.48</ele>
        <time>2025-05-15T06:17:07Z</time>
      </trkpt>
      <trkpt lat="42.547569964081049" lon="1.826341012492776">
        <ele>1619</ele>
        <time>2025-05-15T06:17:08Z</time>
      </trkpt>
      <trkpt lat="42.547514978796244" lon="1.82617899030447">
        <ele>1618.52</ele>
        <time>2025-05-15T06:17:09Z</time>
      </trkpt>
      <trkpt lat="42.547415988519788" lon="1.825890988111496">
        <ele>1617.5599999999999</ele>
        <time>2025-05-15T06:17:11Z</time>
      </trkpt>
      <trkpt lat="42.547367038205266" lon="1.825793003663421">
        <ele>1617.0699999999999</ele>
        <time>2025-05-15T06:17:12Z</time>
      </trkpt>
      <trkpt lat="42.547287996858358" lon="1.825724020600319">
        <ele>1616.5899999999999</ele>
        <time>2025-05-15T06:17:13Z</time>
      </trkpt>
      <trkpt lat="42.547199986875057" lon="1.825653025880456">
        <ele>1616.1099999999999</ele>
        <time>2025-05-15T06:17:14Z</time>
      </trkpt>
      <trkpt lat="42.547086998820305" lon="1.825594017282128">
        <ele>1615.6300000000001</ele>
        <time>2025-05-15T06:17:15Z</time>
      </trkpt>
      <trkpt lat="42.546336986124516" lon="1.82536100037396">
        <ele>1612.27</ele>
        <time>2025-05-15T06:17:21Z</time>
      </trkpt>
      <trkpt lat="42.546120984479785" lon="1.825380027294159">
        <ele>1610.3499999999999</ele>
        <time>2025-05-15T06:17:23Z</time>
      </trkpt>
      <trkpt lat="42.546026017516851" lon="1.8254469987005">
        <ele>1609.3800000000001</ele>
        <time>2025-05-15T06:17:24Z</time>
      </trkpt>
      <trkpt lat="42.545943036675453" lon="1.825521010905504">
        <ele>1608.4200000000001</ele>
        <time>2025-05-15T06:17:25Z</time>
      </trkpt>
      <trkpt lat="42.545869024470448" lon="1.825613966211677">
        <ele>1607.9400000000001</ele>
        <time>2025-05-15T06:17:26Z</time>
      </trkpt>
      <trkpt lat="42.545814039185643" lon="1.825721003115177">
        <ele>1607.46</ele>
        <time>2025-05-15T06:17:27Z</time>
      </trkpt>
      <trkpt lat="42.545756958425045" lon="1.82583499699831">
        <ele>1606.5</ele>
        <time>2025-05-15T06:17:28Z</time>
      </trkpt>
      <trkpt lat="42.545641958713531" lon="1.826052004471421">
        <ele>1605.0599999999999</ele>
        <time>2025-05-15T06:17:30Z</time>
      </trkpt>
      <trkpt lat="42.545565012842417" lon="1.826090980321169">
        <ele>1604.0999999999999</ele>
        <time>2025-05-15T06:17:31Z</time>
      </trkpt>
      <trkpt lat="42.545457975938916" lon="1.826078994199634">
        <ele>1603.1400000000001</ele>
        <time>2025-05-15T06:17:32Z</time>
      </trkpt>
      <trkpt lat="42.545353034511209" lon="1.826067008078098">
        <ele>1602.1700000000001</ele>
        <time>2025-05-15T06:17:33Z</time>
      </trkpt>
      <trkpt lat="42.545235017314553" lon="1.826054016128182">
        <ele>1601.21</ele>
        <time>2025-05-15T06:17:34Z</time>
      </trkpt>
      <trkpt lat="42.545108031481504" lon="1.826040018349886">
        <ele>1600.25</ele>
        <time>2025-05-15T06:17:35Z</time>
      </trkpt>
      <trkpt lat="42.544972999021411" lon="1.826028032228351">
        <ele>1599.29</ele>
        <time>2025-05-15T06:17:36Z</time>
      </trkpt>
      <trkpt lat="42.544835032895207" lon="1.826047981157899">
        <ele>1598.3299999999999</ele>
        <time>2025-05-15T06:17:37Z</time>
      </trkpt>
      <trkpt lat="42.54408803768456" lon="1.826326008886099">
        <ele>1594</ele>
        <time>2025-05-15T06:17:42Z</time>
      </trkpt>
      <trkpt lat="42.543938001617789" lon="1.826402032747865">
        <ele>1593.04</ele>
        <time>2025-05-15T06:17:43Z</time>
      </trkpt>
      <trkpt lat="42.543786037713289" lon="1.82647897861898">
        <ele>1592.0799999999999</ele>
        <time>2025-05-15T06:17:44Z</time>
      </trkpt>
      <trkpt lat="42.542145028710365" lon="1.827307026833296">
        <ele>1584.8699999999999</ele>
        <time>2025-05-15T06:17:54Z</time>
      </trkpt>
      <trkpt lat="42.541125034913421" lon="1.827704999595881">
        <ele>1580.54</ele>
        <time>2025-05-15T06:18:00Z</time>
      </trkpt>
      <trkpt lat="42.540965024381876" lon="1.827740035951138">
        <ele>1580.0599999999999</ele>
        <time>2025-05-15T06:18:01Z</time>
      </trkpt>
      <trkpt lat="42.540814988315105" lon="1.827675998210907">
        <ele>1579.5799999999999</ele>
        <time>2025-05-15T06:18:02Z</time>
      </trkpt>
      <trkpt lat="42.540657995268703" lon="1.827608020976186">
        <ele>1579.0999999999999</ele>
        <time>2025-05-15T06:18:03Z</time>
      </trkpt>
      <trkpt lat="42.54050200805068" lon="1.827534008771181">
        <ele>1578.6199999999999</ele>
        <time>2025-05-15T06:18:04Z</time>
      </trkpt>
      <trkpt lat="42.540362030267715" lon="1.82742303237319">
        <ele>1577.6600000000001</ele>
        <time>2025-05-15T06:18:05Z</time>
      </trkpt>
      <trkpt lat="42.540224986150861" lon="1.827314989641309">
        <ele>1577.1800000000001</ele>
        <time>2025-05-15T06:18:06Z</time>
      </trkpt>
      <trkpt lat="42.54009397700429" lon="1.827194038778544">
        <ele>1576.7</ele>
        <time>2025-05-15T06:18:07Z</time>
      </trkpt>
      <trkpt lat="42.539993980899453" lon="1.827027993276715">
        <ele>1576.22</ele>
        <time>2025-05-15T06:18:08Z</time>
      </trkpt>
      <trkpt lat="42.539895996451378" lon="1.826850967481732">
        <ele>1575.74</ele>
        <time>2025-05-15T06:18:09Z</time>
      </trkpt>
      <trkpt lat="42.539805974811316" lon="1.826654998585582">
        <ele>1575.26</ele>
        <time>2025-05-15T06:18:10Z</time>
      </trkpt>
      <trkpt lat="42.53942602314055" lon="1.825908003374934">
        <ele>1573.3299999999999</ele>
        <time>2025-05-15T06:18:14Z</time>
      </trkpt>
      <trkpt lat="42.539327032864094" lon="1.825762996450067">
        <ele>1572.3699999999999</ele>
        <time>2025-05-15T06:18:15Z</time>
      </trkpt>
      <trkpt lat="42.539193006232381" lon="1.82566199451685">
        <ele>1571.8900000000001</ele>
        <time>2025-05-15T06:18:16Z</time>
      </trkpt>
      <trkpt lat="42.539059985429049" lon="1.825560992583633">
        <ele>1571.4100000000001</ele>
        <time>2025-05-15T06:18:17Z</time>
      </trkpt>
      <trkpt lat="42.538931993767619" lon="1.825464013963938">
        <ele>1570.45</ele>
        <time>2025-05-15T06:18:18Z</time>
      </trkpt>
      <trkpt lat="42.537700021639466" lon="1.824625991284847">
        <ele>1562.28</ele>
        <time>2025-05-15T06:18:28Z</time>
      </trkpt>
      <trkpt lat="42.536873985081911" lon="1.824245033785701">
        <ele>1556.51</ele>
        <time>2025-05-15T06:18:35Z</time>
      </trkpt>
      <trkpt lat="42.536821011453867" lon="1.824156017974019">
        <ele>1555.55</ele>
        <time>2025-05-15T06:18:36Z</time>
      </trkpt>
      <trkpt lat="42.536810031160712" lon="1.824119975790381">
        <ele>1555.0699999999999</ele>
        <time>2025-05-15T06:18:37Z</time>
      </trkpt>
      <trkpt lat="42.536843977868557" lon="1.823748992756009">
        <ele>1549.78</ele>
        <time>2025-05-15T06:18:43Z</time>
      </trkpt>
      <trkpt lat="42.536758985370398" lon="1.823651008307934">
        <ele>1549.3</ele>
        <time>2025-05-15T06:18:44Z</time>
      </trkpt>
      <trkpt lat="42.536702994257212" lon="1.823624018579722">
        <ele>1548.3399999999999</ele>
        <time>2025-05-15T06:18:45Z</time>
      </trkpt>
      <trkpt lat="42.536636022850871" lon="1.823589988052845">
        <ele>1547.8599999999999</ele>
        <time>2025-05-15T06:18:46Z</time>
      </trkpt>
      <trkpt lat="42.536557987332344" lon="1.823551012203097">
        <ele>1547.3800000000001</ele>
        <time>2025-05-15T06:18:47Z</time>
      </trkpt>
      <trkpt lat="42.536467965692282" lon="1.823506001383066">
        <ele>1546.4200000000001</ele>
        <time>2025-05-15T06:18:48Z</time>
      </trkpt>
      <trkpt lat="42.53551603294909" lon="1.823094030842185">
        <ele>1543.05</ele>
        <time>2025-05-15T06:18:56Z</time>
      </trkpt>
      <trkpt lat="42.534630987793207" lon="1.822640988975763">
        <ele>1539.6900000000001</ele>
        <time>2025-05-15T06:19:05Z</time>
      </trkpt>
      <trkpt lat="42.53362599760294" lon="1.822258019819856">
        <ele>1538.25</ele>
        <time>2025-05-15T06:19:17Z</time>
      </trkpt>
      <trkpt lat="42.53263701684773" lon="1.821654019877315">
        <ele>1540.6500000000001</ele>
        <time>2025-05-15T06:19:29Z</time>
      </trkpt>
      <trkpt lat="42.531735962256789" lon="1.821575984358788">
        <ele>1543.05</ele>
        <time>2025-05-15T06:19:40Z</time>
      </trkpt>
      <trkpt lat="42.531655998900533" lon="1.821596017107368">
        <ele>1543.53</ele>
        <time>2025-05-15T06:19:41Z</time>
      </trkpt>
      <trkpt lat="42.531410995870829" lon="1.821704981848598">
        <ele>1543.53</ele>
        <time>2025-05-15T06:19:44Z</time>
      </trkpt>
      <trkpt lat="42.531254002824426" lon="1.821793997660279">
        <ele>1544.01</ele>
        <time>2025-05-15T06:19:46Z</time>
      </trkpt>
      <trkpt lat="42.530502984300256" lon="1.822487013414502">
        <ele>1543.05</ele>
        <time>2025-05-15T06:19:57Z</time>
      </trkpt>
      <trkpt lat="42.529983976855874" lon="1.823021024465561">
        <ele>1541.1300000000001</ele>
        <time>2025-05-15T06:20:04Z</time>
      </trkpt>
      <trkpt lat="42.529907030984759" lon="1.823100987821817">
        <ele>1541.1300000000001</ele>
        <time>2025-05-15T06:20:05Z</time>
      </trkpt>
      <trkpt lat="42.529363967478275" lon="1.823660982772708">
        <ele>1537.77</ele>
        <time>2025-05-15T06:20:12Z</time>
      </trkpt>
      <trkpt lat="42.528821993619204" lon="1.824082005769014">
        <ele>1533.9200000000001</ele>
        <time>2025-05-15T06:20:18Z</time>
      </trkpt>
      <trkpt lat="42.528728032484651" lon="1.824123999103904">
        <ele>1533.4400000000001</ele>
        <time>2025-05-15T06:20:19Z</time>
      </trkpt>
      <trkpt lat="42.528445981442928" lon="1.82422399520874">
        <ele>1531.04</ele>
        <time>2025-05-15T06:20:22Z</time>
      </trkpt>
      <trkpt lat="42.527574012055993" lon="1.824123999103904">
        <ele>1522.8699999999999</ele>
        <time>2025-05-15T06:20:33Z</time>
      </trkpt>
      <trkpt lat="42.527259020134807" lon="1.823930041864514">
        <ele>1519.02</ele>
        <time>2025-05-15T06:20:38Z</time>
      </trkpt>
      <trkpt lat="42.526757027953863" lon="1.823500972241163">
        <ele>1514.21</ele>
        <time>2025-05-15T06:20:45Z</time>
      </trkpt>
      <trkpt lat="42.526677986606956" lon="1.823452021926642">
        <ele>1513.25</ele>
        <time>2025-05-15T06:20:46Z</time>
      </trkpt>
      <trkpt lat="42.526601040735841" lon="1.823403993621469">
        <ele>1512.77</ele>
        <time>2025-05-15T06:20:47Z</time>
      </trkpt>
      <trkpt lat="42.525614993646741" lon="1.823008032515645">
        <ele>1508.9300000000001</ele>
        <time>2025-05-15T06:20:59Z</time>
      </trkpt>
      <trkpt lat="42.524416968226433" lon="1.822717012837529">
        <ele>1506.04</ele>
        <time>2025-05-15T06:21:12Z</time>
      </trkpt>
      <trkpt lat="42.523529995232821" lon="1.822745008394122">
        <ele>1505.0799999999999</ele>
        <time>2025-05-15T06:21:22Z</time>
      </trkpt>
      <trkpt lat="42.522346973419189" lon="1.822765041142702">
        <ele>1505.5599999999999</ele>
        <time>2025-05-15T06:21:33Z</time>
      </trkpt>
      <trkpt lat="42.521179961040616" lon="1.822298001497984">
        <ele>1506.04</ele>
        <time>2025-05-15T06:21:42Z</time>
      </trkpt>
      <trkpt lat="42.520881984382868" lon="1.822276962921023">
        <ele>1506.04</ele>
        <time>2025-05-15T06:21:44Z</time>
      </trkpt>
      <trkpt lat="42.520744018256664" lon="1.822287021204829">
        <ele>1506.04</ele>
        <time>2025-05-15T06:21:45Z</time>
      </trkpt>
      <trkpt lat="42.519800970330834" lon="1.822487013414502">
        <ele>1506.04</ele>
        <time>2025-05-15T06:21:53Z</time>
      </trkpt>
      <trkpt lat="42.518604034557939" lon="1.822759006172419">
        <ele>1501.24</ele>
        <time>2025-05-15T06:22:04Z</time>
      </trkpt>
      <trkpt lat="42.518231961876154" lon="1.822758000344038">
        <ele>1497.8699999999999</ele>
        <time>2025-05-15T06:22:08Z</time>
      </trkpt>
      <trkpt lat="42.518140012398362" lon="1.822793036699295">
        <ele>1497.3900000000001</ele>
        <time>2025-05-15T06:22:09Z</time>
      </trkpt>
      <trkpt lat="42.517549004405737" lon="1.8230190128088">
        <ele>1493.0599999999999</ele>
        <time>2025-05-15T06:22:16Z</time>
      </trkpt>
      <trkpt lat="42.517479015514255" lon="1.823087995871902">
        <ele>1492.0999999999999</ele>
        <time>2025-05-15T06:22:17Z</time>
      </trkpt>
      <trkpt lat="42.517327973619103" lon="1.823248006403446">
        <ele>1490.6600000000001</ele>
        <time>2025-05-15T06:22:19Z</time>
      </trkpt>
      <trkpt lat="42.516925977542996" lon="1.823658971115947">
        <ele>1487.3</ele>
        <time>2025-05-15T06:22:24Z</time>
      </trkpt>
      <trkpt lat="42.516853976994753" lon="1.82372996583581">
        <ele>1486.8199999999999</ele>
        <time>2025-05-15T06:22:25Z</time>
      </trkpt>
      <trkpt lat="42.515852004289627" lon="1.824359027668834">
        <ele>1478.6500000000001</ele>
        <time>2025-05-15T06:22:35Z</time>
      </trkpt>
      <trkpt lat="42.515610018745065" lon="1.82439599186182">
        <ele>1476.24</ele>
        <time>2025-05-15T06:22:38Z</time>
      </trkpt>
      <trkpt lat="42.515527959913015" lon="1.824388029053807">
        <ele>1475.76</ele>
        <time>2025-05-15T06:22:39Z</time>
      </trkpt>
      <trkpt lat="42.515454031527042" lon="1.824379982426763">
        <ele>1475.28</ele>
        <time>2025-05-15T06:22:40Z</time>
      </trkpt>
      <trkpt lat="42.515379013493657" lon="1.82437302544713">
        <ele>1474.3199999999999</ele>
        <time>2025-05-15T06:22:41Z</time>
      </trkpt>
      <trkpt lat="42.515305001288652" lon="1.824364978820086">
        <ele>1473.8399999999999</ele>
        <time>2025-05-15T06:22:42Z</time>
      </trkpt>
      <trkpt lat="42.515227971598506" lon="1.824358021840453">
        <ele>1472.8800000000001</ele>
        <time>2025-05-15T06:22:43Z</time>
      </trkpt>
      <trkpt lat="42.514752969145775" lon="1.824273029342294">
        <ele>1468.55</ele>
        <time>2025-05-15T06:22:50Z</time>
      </trkpt>
      <trkpt lat="42.514711981639266" lon="1.824260959401727">
        <ele>1468.0699999999999</ele>
        <time>2025-05-15T06:22:51Z</time>
      </trkpt>
      <trkpt lat="42.514679040759802" lon="1.824249979108572">
        <ele>1467.5899999999999</ele>
        <time>2025-05-15T06:22:52Z</time>
      </trkpt>
      <trkpt lat="42.514650961384177" lon="1.824241010472179">
        <ele>1467.1099999999999</ele>
        <time>2025-05-15T06:22:53Z</time>
      </trkpt>
      <trkpt lat="42.514616008847952" lon="1.824229024350643">
        <ele>1466.1500000000001</ele>
        <time>2025-05-15T06:22:54Z</time>
      </trkpt>
      <trkpt lat="42.514566974714398" lon="1.824213014915586">
        <ele>1465.6700000000001</ele>
        <time>2025-05-15T06:22:55Z</time>
      </trkpt>
      <trkpt lat="42.51450402662158" lon="1.824190970510244">
        <ele>1465.1900000000001</ele>
        <time>2025-05-15T06:22:56Z</time>
      </trkpt>
      <trkpt lat="42.514426996931434" lon="1.824185019358993">
        <ele>1464.71</ele>
        <time>2025-05-15T06:22:57Z</time>
      </trkpt>
      <trkpt lat="42.514352984726429" lon="1.824191976338625">
        <ele>1464.23</ele>
        <time>2025-05-15T06:22:58Z</time>
      </trkpt>
      <trkpt lat="42.514235973358154" lon="1.824203040450811">
        <ele>1463.74</ele>
        <time>2025-05-15T06:22:59Z</time>
      </trkpt>
      <trkpt lat="42.514176964759827" lon="1.824252996593714">
        <ele>1463.74</ele>
        <time>2025-05-15T06:23:00Z</time>
      </trkpt>
      <trkpt lat="42.514103036373854" lon="1.824316028505564">
        <ele>1463.26</ele>
        <time>2025-05-15T06:23:01Z</time>
      </trkpt>
      <trkpt lat="42.514023995026946" lon="1.824381994083524">
        <ele>1462.78</ele>
        <time>2025-05-15T06:23:02Z</time>
      </trkpt>
      <trkpt lat="42.513942020013928" lon="1.824453994631767">
        <ele>1461.8199999999999</ele>
        <time>2025-05-15T06:23:03Z</time>
      </trkpt>
      <trkpt lat="42.513859961181879" lon="1.824535969644785">
        <ele>1461.3399999999999</ele>
        <time>2025-05-15T06:23:04Z</time>
      </trkpt>
      <trkpt lat="42.513776980340481" lon="1.824619034305215">
        <ele>1460.8599999999999</ele>
        <time>2025-05-15T06:23:05Z</time>
      </trkpt>
      <trkpt lat="42.513695005327463" lon="1.824701009318233">
        <ele>1460.3800000000001</ele>
        <time>2025-05-15T06:23:06Z</time>
      </trkpt>
      <trkpt lat="42.513592997565866" lon="1.82480301707983">
        <ele>1460.3800000000001</ele>
        <time>2025-05-15T06:23:07Z</time>
      </trkpt>
      <trkpt lat="42.513551004230976" lon="1.824907958507538">
        <ele>1459.9000000000001</ele>
        <time>2025-05-15T06:23:08Z</time>
      </trkpt>
      <trkpt lat="42.513421000912786" lon="1.82523300871253">
        <ele>1458.9400000000001</ele>
        <time>2025-05-15T06:23:11Z</time>
      </trkpt>
      <trkpt lat="42.513347994536161" lon="1.825316995382309">
        <ele>1457.98</ele>
        <time>2025-05-15T06:23:12Z</time>
      </trkpt>
      <trkpt lat="42.513270964846015" lon="1.82540500536561">
        <ele>1457.5</ele>
        <time>2025-05-15T06:23:13Z</time>
      </trkpt>
      <trkpt lat="42.51265799626708" lon="1.826020991429687">
        <ele>1454.6099999999999</ele>
        <time>2025-05-15T06:23:21Z</time>
      </trkpt>
      <trkpt lat="42.512589013203979" lon="1.826087040826678">
        <ele>1454.6099999999999</ele>
        <time>2025-05-15T06:23:22Z</time>
      </trkpt>
      <trkpt lat="42.512530004605651" lon="1.826176978647709">
        <ele>1454.6099999999999</ele>
        <time>2025-05-15T06:23:23Z</time>
      </trkpt>
      <trkpt lat="42.512476025149226" lon="1.826288038864732">
        <ele>1454.1300000000001</ele>
        <time>2025-05-15T06:23:24Z</time>
      </trkpt>
      <trkpt lat="42.512450963258743" lon="1.826415024697781">
        <ele>1454.1300000000001</ele>
        <time>2025-05-15T06:23:25Z</time>
      </trkpt>
      <trkpt lat="42.512425985187292" lon="1.826535975560546">
        <ele>1454.1300000000001</ele>
        <time>2025-05-15T06:23:26Z</time>
      </trkpt>
      <trkpt lat="42.51237996853888" lon="1.826868988573551">
        <ele>1454.1300000000001</ele>
        <time>2025-05-15T06:23:29Z</time>
      </trkpt>
      <trkpt lat="42.512349039316177" lon="1.826981976628304">
        <ele>1454.1300000000001</ele>
        <time>2025-05-15T06:23:30Z</time>
      </trkpt>
      <trkpt lat="42.512294976040721" lon="1.827067974954844">
        <ele>1453.6500000000001</ele>
        <time>2025-05-15T06:23:31Z</time>
      </trkpt>
      <trkpt lat="42.512229010462761" lon="1.827150033786893">
        <ele>1453.1700000000001</ele>
        <time>2025-05-15T06:23:32Z</time>
      </trkpt>
      <trkpt lat="42.512138988822699" lon="1.827228991314769">
        <ele>1453.1700000000001</ele>
        <time>2025-05-15T06:23:33Z</time>
      </trkpt>
      <trkpt lat="42.512026000767946" lon="1.827326975762844">
        <ele>1452.6900000000001</ele>
        <time>2025-05-15T06:23:34Z</time>
      </trkpt>
      <trkpt lat="42.511897003278136" lon="1.827440969645977">
        <ele>1452.21</ele>
        <time>2025-05-15T06:23:35Z</time>
      </trkpt>
      <trkpt lat="42.510818000882864" lon="1.828392986208201">
        <ele>1448.3599999999999</ele>
        <time>2025-05-15T06:23:42Z</time>
      </trkpt>
      <trkpt lat="42.510473001748323" lon="1.828829012811184">
        <ele>1445.48</ele>
        <time>2025-05-15T06:23:45Z</time>
      </trkpt>
      <trkpt lat="42.510154992341995" lon="1.829396970570087">
        <ele>1443.0799999999999</ele>
        <time>2025-05-15T06:23:48Z</time>
      </trkpt>
      <trkpt lat="42.509716032072902" lon="1.830249996855855">
        <ele>1438.75</ele>
        <time>2025-05-15T06:23:52Z</time>
      </trkpt>
      <trkpt lat="42.509589968249202" lon="1.830459963530302">
        <ele>1437.79</ele>
        <time>2025-05-15T06:23:53Z</time>
      </trkpt>
      <trkpt lat="42.509449990466237" lon="1.830642018467188">
        <ele>1436.8299999999999</ele>
        <time>2025-05-15T06:23:54Z</time>
      </trkpt>
      <trkpt lat="42.50930598936975" lon="1.830814015120268">
        <ele>1436.3499999999999</ele>
        <time>2025-05-15T06:23:55Z</time>
      </trkpt>
      <trkpt lat="42.509159976616502" lon="1.83099003508687">
        <ele>1435.8699999999999</ele>
        <time>2025-05-15T06:23:56Z</time>
      </trkpt>
      <trkpt lat="42.507741004228592" lon="1.83225897140801">
        <ele>1432.02</ele>
        <time>2025-05-15T06:24:04Z</time>
      </trkpt>
      <trkpt lat="42.505979966372252" lon="1.833812976256013">
        <ele>1428.6600000000001</ele>
        <time>2025-05-15T06:24:14Z</time>
      </trkpt>
      <trkpt lat="42.504564011469483" lon="1.834874963387847">
        <ele>1425.77</ele>
        <time>2025-05-15T06:24:22Z</time>
      </trkpt>
      <trkpt lat="42.503673015162349" lon="1.83567501604557">
        <ele>1423.3699999999999</ele>
        <time>2025-05-15T06:24:29Z</time>
      </trkpt>
      <trkpt lat="42.503484003245831" lon="1.835841983556747">
        <ele>1422.8900000000001</ele>
        <time>2025-05-15T06:24:31Z</time>
      </trkpt>
      <trkpt lat="42.503404961898923" lon="1.835899986326695">
        <ele>1422.4100000000001</ele>
        <time>2025-05-15T06:24:32Z</time>
      </trkpt>
      <trkpt lat="42.503326004371047" lon="1.83591297827661">
        <ele>1422.4100000000001</ele>
        <time>2025-05-15T06:24:33Z</time>
      </trkpt>
      <trkpt lat="42.503249980509281" lon="1.835895041003823">
        <ele>1422.8900000000001</ele>
        <time>2025-05-15T06:24:34Z</time>
      </trkpt>
      <trkpt lat="42.503177979961038" lon="1.835854975506663">
        <ele>1422.8900000000001</ele>
        <time>2025-05-15T06:24:35Z</time>
      </trkpt>
      <trkpt lat="42.503089969977736" lon="1.835810970515013">
        <ele>1422.8900000000001</ele>
        <time>2025-05-15T06:24:36Z</time>
      </trkpt>
      <trkpt lat="42.502978993579745" lon="1.835810970515013">
        <ele>1422.8900000000001</ele>
        <time>2025-05-15T06:24:37Z</time>
      </trkpt>
      <trkpt lat="42.502853013575077" lon="1.835839971899986">
        <ele>1422.8900000000001</ele>
        <time>2025-05-15T06:24:38Z</time>
      </trkpt>
      <trkpt lat="42.502719992771745" lon="1.835892023518682">
        <ele>1423.3699999999999</ele>
        <time>2025-05-15T06:24:39Z</time>
      </trkpt>
      <trkpt lat="42.502576997503638" lon="1.835948014631867">
        <ele>1423.3699999999999</ele>
        <time>2025-05-15T06:24:40Z</time>
      </trkpt>
      <trkpt lat="42.502282038331032" lon="1.836143983528018">
        <ele>1422.8900000000001</ele>
        <time>2025-05-15T06:24:42Z</time>
      </trkpt>
      <trkpt lat="42.502130996435881" lon="1.836269041523337">
        <ele>1422.4100000000001</ele>
        <time>2025-05-15T06:24:43Z</time>
      </trkpt>
      <trkpt lat="42.500890977680683" lon="1.83726598508656">
        <ele>1417.1199999999999</ele>
        <time>2025-05-15T06:24:50Z</time>
      </trkpt>
      <trkpt lat="42.499198000878096" lon="1.838780008256435">
        <ele>1407.03</ele>
        <time>2025-05-15T06:24:59Z</time>
      </trkpt>
      <trkpt lat="42.499108985066414" lon="1.838923003524542">
        <ele>1406.0699999999999</ele>
        <time>2025-05-15T06:25:00Z</time>
      </trkpt>
      <trkpt lat="42.499038996174932" lon="1.839106986299157">
        <ele>1405.0999999999999</ele>
        <time>2025-05-15T06:25:01Z</time>
      </trkpt>
      <trkpt lat="42.498978981748223" lon="1.839277977123857">
        <ele>1404.1400000000001</ele>
        <time>2025-05-15T06:25:02Z</time>
      </trkpt>
      <trkpt lat="42.498958026990294" lon="1.839490039274097">
        <ele>1403.1800000000001</ele>
        <time>2025-05-15T06:25:03Z</time>
      </trkpt>
      <trkpt lat="42.498935982584953" lon="1.839725989848375">
        <ele>1402.22</ele>
        <time>2025-05-15T06:25:04Z</time>
      </trkpt>
      <trkpt lat="42.498909998685122" lon="1.839985996484757">
        <ele>1401.26</ele>
        <time>2025-05-15T06:25:05Z</time>
      </trkpt>
      <trkpt lat="42.49888502061367" lon="1.840252038091421">
        <ele>1400.3</ele>
        <time>2025-05-15T06:25:06Z</time>
      </trkpt>
      <trkpt lat="42.498850990086794" lon="1.840811027213931">
        <ele>1397.8900000000001</ele>
        <time>2025-05-15T06:25:08Z</time>
      </trkpt>
      <trkpt lat="42.498730961233377" lon="1.841226015239954">
        <ele>1395.49</ele>
        <time>2025-05-15T06:25:10Z</time>
      </trkpt>
      <trkpt lat="42.498641023412347" lon="1.841434976086021">
        <ele>1394.05</ele>
        <time>2025-05-15T06:25:11Z</time>
      </trkpt>
      <trkpt lat="42.498545972630382" lon="1.841651983559132">
        <ele>1392.6099999999999</ele>
        <time>2025-05-15T06:25:12Z</time>
      </trkpt>
      <trkpt lat="42.498287977650762" lon="1.842005029320717">
        <ele>1390.2</ele>
        <time>2025-05-15T06:25:14Z</time>
      </trkpt>
      <trkpt lat="42.498157974332571" lon="1.842174008488655">
        <ele>1389.24</ele>
        <time>2025-05-15T06:25:15Z</time>
      </trkpt>
      <trkpt lat="42.497907020151615" lon="1.842500986531377">
        <ele>1386.8399999999999</ele>
        <time>2025-05-15T06:25:17Z</time>
      </trkpt>
      <trkpt lat="42.497797971591353" lon="1.842668959870935">
        <ele>1385.8800000000001</ele>
        <time>2025-05-15T06:25:18Z</time>
      </trkpt>
      <trkpt lat="42.497713984921575" lon="1.842874987050891">
        <ele>1384.9200000000001</ele>
        <time>2025-05-15T06:25:19Z</time>
      </trkpt>
      <trkpt lat="42.497033039107919" lon="1.844736021012068">
        <ele>1377.23</ele>
        <time>2025-05-15T06:25:27Z</time>
      </trkpt>
      <trkpt lat="42.496719975024462" lon="1.845696000382304">
        <ele>1373.3800000000001</ele>
        <time>2025-05-15T06:25:31Z</time>
      </trkpt>
      <trkpt lat="42.49660799279809" lon="1.845919964835048">
        <ele>1372.4200000000001</ele>
        <time>2025-05-15T06:25:32Z</time>
      </trkpt>
      <trkpt lat="42.496057972311974" lon="1.846940964460373">
        <ele>1367.1300000000001</ele>
        <time>2025-05-15T06:25:37Z</time>
      </trkpt>
      <trkpt lat="42.496022013947368" lon="1.847085971385241">
        <ele>1366.1700000000001</ele>
        <time>2025-05-15T06:25:38Z</time>
      </trkpt>
      <trkpt lat="42.496036011725664" lon="1.847226032987237">
        <ele>1365.21</ele>
        <time>2025-05-15T06:25:39Z</time>
      </trkpt>
      <trkpt lat="42.496052021160722" lon="1.847344972193241">
        <ele>1364.25</ele>
        <time>2025-05-15T06:25:40Z</time>
      </trkpt>
      <trkpt lat="42.496043974533677" lon="1.847459971904755">
        <ele>1363.29</ele>
        <time>2025-05-15T06:25:41Z</time>
      </trkpt>
      <trkpt lat="42.495997035875916" lon="1.847570026293397">
        <ele>1362.3299999999999</ele>
        <time>2025-05-15T06:25:42Z</time>
      </trkpt>
      <trkpt lat="42.495911959558725" lon="1.847656024619937">
        <ele>1361.3599999999999</ele>
        <time>2025-05-15T06:25:43Z</time>
      </trkpt>
      <trkpt lat="42.495794026181102" lon="1.847733976319432">
        <ele>1360.8800000000001</ele>
        <time>2025-05-15T06:25:44Z</time>
      </trkpt>
      <trkpt lat="42.49566201120615" lon="1.847808994352818">
        <ele>1359.9200000000001</ele>
        <time>2025-05-15T06:25:45Z</time>
      </trkpt>
      <trkpt lat="42.495509963482618" lon="1.847874037921429">
        <ele>1358.96</ele>
        <time>2025-05-15T06:25:46Z</time>
      </trkpt>
      <trkpt lat="42.494848966598511" lon="1.848207972943783">
        <ele>1356.5599999999999</ele>
        <time>2025-05-15T06:25:50Z</time>
      </trkpt>
      <trkpt lat="42.494709994643927" lon="1.848362032324076">
        <ele>1356.0799999999999</ele>
        <time>2025-05-15T06:25:51Z</time>
      </trkpt>
      <trkpt lat="42.493634009733796" lon="1.849827021360397">
        <ele>1352.23</ele>
        <time>2025-05-15T06:25:58Z</time>
      </trkpt>
      <trkpt lat="42.492729015648365" lon="1.851188996806741">
        <ele>1347.4300000000001</ele>
        <time>2025-05-15T06:26:04Z</time>
      </trkpt>
      <trkpt lat="42.492595994845033" lon="1.851415978744626">
        <ele>1346.9400000000001</ele>
        <time>2025-05-15T06:26:05Z</time>
      </trkpt>
      <trkpt lat="42.492349985986948" lon="1.851840019226074">
        <ele>1345.98</ele>
        <time>2025-05-15T06:26:07Z</time>
      </trkpt>
      <trkpt lat="42.492186035960913" lon="1.852016961202025">
        <ele>1345.5</ele>
        <time>2025-05-15T06:26:08Z</time>
      </trkpt>
      <trkpt lat="42.492028037086129" lon="1.852178983390331">
        <ele>1345.02</ele>
        <time>2025-05-15T06:26:09Z</time>
      </trkpt>
      <trkpt lat="42.490533962845802" lon="1.853385977447033">
        <ele>1341.6600000000001</ele>
        <time>2025-05-15T06:26:17Z</time>
      </trkpt>
      <trkpt lat="42.490384010598063" lon="1.853555962443352">
        <ele>1340.7</ele>
        <time>2025-05-15T06:26:18Z</time>
      </trkpt>
      <trkpt lat="42.489285981282592" lon="1.855159001424909">
        <ele>1335.4100000000001</ele>
        <time>2025-05-15T06:26:25Z</time>
      </trkpt>
      <trkpt lat="42.488217037171125" lon="1.856357026845217">
        <ele>1328.2</ele>
        <time>2025-05-15T06:26:31Z</time>
      </trkpt>
      <trkpt lat="42.488051997497678" lon="1.856436990201473">
        <ele>1326.76</ele>
        <time>2025-05-15T06:26:32Z</time>
      </trkpt>
      <trkpt lat="42.487869020551443" lon="1.856489041820169">
        <ele>1325.3099999999999</ele>
        <time>2025-05-15T06:26:33Z</time>
      </trkpt>
      <trkpt lat="42.486837040632963" lon="1.856784000992775">
        <ele>1319.55</ele>
        <time>2025-05-15T06:26:39Z</time>
      </trkpt>
      <trkpt lat="42.486727992072701" lon="1.856861030682921">
        <ele>1319.0699999999999</ele>
        <time>2025-05-15T06:26:40Z</time>
      </trkpt>
      <trkpt lat="42.486676024273038" lon="1.856953985989094">
        <ele>1318.5899999999999</ele>
        <time>2025-05-15T06:26:41Z</time>
      </trkpt>
      <trkpt lat="42.486613998189569" lon="1.85709597542882">
        <ele>1318.0999999999999</ele>
        <time>2025-05-15T06:26:42Z</time>
      </trkpt>
      <trkpt lat="42.486586002632976" lon="1.857273001223803">
        <ele>1317.6199999999999</ele>
        <time>2025-05-15T06:26:43Z</time>
      </trkpt>
      <trkpt lat="42.486554989591241" lon="1.857468970119953">
        <ele>1316.6600000000001</ele>
        <time>2025-05-15T06:26:44Z</time>
      </trkpt>
      <trkpt lat="42.486521964892745" lon="1.857679020613432">
        <ele>1316.1800000000001</ele>
        <time>2025-05-15T06:26:45Z</time>
      </trkpt>
      <trkpt lat="42.486492041498423" lon="1.85786996036768">
        <ele>1315.22</ele>
        <time>2025-05-15T06:26:46Z</time>
      </trkpt>
      <trkpt lat="42.486391961574554" lon="1.858055032789707">
        <ele>1314.74</ele>
        <time>2025-05-15T06:26:47Z</time>
      </trkpt>
      <trkpt lat="42.486279979348183" lon="1.858210014179349">
        <ele>1313.78</ele>
        <time>2025-05-15T06:26:48Z</time>
      </trkpt>
      <trkpt lat="42.486136984080076" lon="1.858353009447455">
        <ele>1313.3</ele>
        <time>2025-05-15T06:26:49Z</time>
      </trkpt>
      <trkpt lat="42.48476997949183" lon="1.859533013775945">
        <ele>1308.01</ele>
        <time>2025-05-15T06:26:57Z</time>
      </trkpt>
      <trkpt lat="42.483796002343297" lon="1.860161991789937">
        <ele>1303.6900000000001</ele>
        <time>2025-05-15T06:27:03Z</time>
      </trkpt>
      <trkpt lat="42.483664993196726" lon="1.860337005928159">
        <ele>1302.24</ele>
        <time>2025-05-15T06:27:04Z</time>
      </trkpt>
      <trkpt lat="42.48305001296103" lon="1.861090958118439">
        <ele>1298.8800000000001</ele>
        <time>2025-05-15T06:27:08Z</time>
      </trkpt>
      <trkpt lat="42.482585990801454" lon="1.861623041331768">
        <ele>1296.96</ele>
        <time>2025-05-15T06:27:11Z</time>
      </trkpt>
      <trkpt lat="42.482478031888604" lon="1.861835019662976">
        <ele>1296.48</ele>
        <time>2025-05-15T06:27:12Z</time>
      </trkpt>
      <trkpt lat="42.482029013335705" lon="1.862632976844907">
        <ele>1293.5899999999999</ele>
        <time>2025-05-15T06:27:16Z</time>
      </trkpt>
      <trkpt lat="42.481876965612173" lon="1.862720986828208">
        <ele>1293.1099999999999</ele>
        <time>2025-05-15T06:27:17Z</time>
      </trkpt>
      <trkpt lat="42.481712009757757" lon="1.862807990983129">
        <ele>1292.6300000000001</ele>
        <time>2025-05-15T06:27:18Z</time>
      </trkpt>
      <trkpt lat="42.481113960966468" lon="1.863059028983116">
        <ele>1291.1900000000001</ele>
        <time>2025-05-15T06:27:21Z</time>
      </trkpt>
      <trkpt lat="42.480921009555459" lon="1.863192971795797">
        <ele>1290.71</ele>
        <time>2025-05-15T06:27:22Z</time>
      </trkpt>
      <trkpt lat="42.479842007160187" lon="1.864095032215118">
        <ele>1287.3399999999999</ele>
        <time>2025-05-15T06:27:28Z</time>
      </trkpt>
      <trkpt lat="42.479685014113784" lon="1.864296030253172">
        <ele>1286.8599999999999</ele>
        <time>2025-05-15T06:27:29Z</time>
      </trkpt>
      <trkpt lat="42.479392988607287" lon="1.86472300440073">
        <ele>1285.4200000000001</ele>
        <time>2025-05-15T06:27:31Z</time>
      </trkpt>
      <trkpt lat="42.479262985289097" lon="1.864972030743957">
        <ele>1284.46</ele>
        <time>2025-05-15T06:27:32Z</time>
      </trkpt>
      <trkpt lat="42.478304011747241" lon="1.866984022781253">
        <ele>1279.6500000000001</ele>
        <time>2025-05-15T06:27:39Z</time>
      </trkpt>
      <trkpt lat="42.477115960791707" lon="1.86938401311636">
        <ele>1274.8499999999999</ele>
        <time>2025-05-15T06:27:48Z</time>
      </trkpt>
      <trkpt lat="42.477029962465167" lon="1.869632033631206">
        <ele>1274.3599999999999</ele>
        <time>2025-05-15T06:27:49Z</time>
      </trkpt>
      <trkpt lat="42.476834999397397" lon="1.870424039661884">
        <ele>1274.3599999999999</ele>
        <time>2025-05-15T06:27:52Z</time>
      </trkpt>
      <trkpt lat="42.476725028827786" lon="1.870666025206447">
        <ele>1274.3599999999999</ele>
        <time>2025-05-15T06:27:53Z</time>
      </trkpt>
      <trkpt lat="42.475780975073576" lon="1.872509960085154">
        <ele>1274.3599999999999</ele>
        <time>2025-05-15T06:28:01Z</time>
      </trkpt>
      <trkpt lat="42.474771961569786" lon="1.874441988766193">
        <ele>1274.8499999999999</ele>
        <time>2025-05-15T06:28:11Z</time>
      </trkpt>
      <trkpt lat="42.473740987479687" lon="1.876723039895296">
        <ele>1275.8099999999999</ele>
        <time>2025-05-15T06:28:22Z</time>
      </trkpt>
      <trkpt lat="42.47310203500092" lon="1.878619026392698">
        <ele>1276.77</ele>
        <time>2025-05-15T06:28:30Z</time>
      </trkpt>
      <trkpt lat="42.472970020025969" lon="1.878851037472487">
        <ele>1276.77</ele>
        <time>2025-05-15T06:28:31Z</time>
      </trkpt>
      <trkpt lat="42.471889005973935" lon="1.880589025095105">
        <ele>1277.25</ele>
        <time>2025-05-15T06:28:39Z</time>
      </trkpt>
      <trkpt lat="42.470697015523911" lon="1.882072035223246">
        <ele>1275.8099999999999</ele>
        <time>2025-05-15T06:28:47Z</time>
      </trkpt>
      <trkpt lat="42.470545973628759" lon="1.88216901384294">
        <ele>1275.8099999999999</ele>
        <time>2025-05-15T06:28:48Z</time>
      </trkpt>
      <trkpt lat="42.470383029431105" lon="1.882200026884675">
        <ele>1275.3299999999999</ele>
        <time>2025-05-15T06:28:49Z</time>
      </trkpt>
      <trkpt lat="42.470227964222431" lon="1.882220981642604">
        <ele>1275.3299999999999</ele>
        <time>2025-05-15T06:28:50Z</time>
      </trkpt>
      <trkpt lat="42.470081029459834" lon="1.882194997742772">
        <ele>1275.3299999999999</ele>
        <time>2025-05-15T06:28:51Z</time>
      </trkpt>
      <trkpt lat="42.469942979514599" lon="1.882161973044276">
        <ele>1275.3299999999999</ele>
        <time>2025-05-15T06:28:52Z</time>
      </trkpt>
      <trkpt lat="42.469840971753001" lon="1.882138000801206">
        <ele>1275.3299999999999</ele>
        <time>2025-05-15T06:28:53Z</time>
      </trkpt>
      <trkpt lat="42.469703005626798" lon="1.882175970822573">
        <ele>1274.8499999999999</ele>
        <time>2025-05-15T06:28:54Z</time>
      </trkpt>
      <trkpt lat="42.469596974551678" lon="1.882210001349449">
        <ele>1274.3599999999999</ele>
        <time>2025-05-15T06:28:55Z</time>
      </trkpt>
      <trkpt lat="42.46949496679008" lon="1.882313014939427">
        <ele>1274.3599999999999</ele>
        <time>2025-05-15T06:28:56Z</time>
      </trkpt>
      <trkpt lat="42.469380972906947" lon="1.882441006600857">
        <ele>1273.8800000000001</ele>
        <time>2025-05-15T06:28:57Z</time>
      </trkpt>
      <trkpt lat="42.468530964106321" lon="1.883441973477602">
        <ele>1271</ele>
        <time>2025-05-15T06:29:03Z</time>
      </trkpt>
      <trkpt lat="42.467229003086686" lon="1.885074013844132">
        <ele>1263.3099999999999</ele>
        <time>2025-05-15T06:29:12Z</time>
      </trkpt>
      <trkpt lat="42.466718964278698" lon="1.885961992666125">
        <ele>1258.98</ele>
        <time>2025-05-15T06:29:19Z</time>
      </trkpt>
      <trkpt lat="42.466382011771202" lon="1.886827005073428">
        <ele>1257.54</ele>
        <time>2025-05-15T06:29:26Z</time>
      </trkpt>
      <trkpt lat="42.465898962691426" lon="1.888203984126449">
        <ele>1254.1800000000001</ele>
        <time>2025-05-15T06:29:36Z</time>
      </trkpt>
      <trkpt lat="42.465701987966895" lon="1.888744030147791">
        <ele>1252.74</ele>
        <time>2025-05-15T06:29:41Z</time>
      </trkpt>
      <trkpt lat="42.465652031823993" lon="1.888901023194194">
        <ele>1252.74</ele>
        <time>2025-05-15T06:29:43Z</time>
      </trkpt>
      <trkpt lat="42.465633004903793" lon="1.888961959630251">
        <ele>1252.25</ele>
        <time>2025-05-15T06:29:44Z</time>
      </trkpt>
      <trkpt lat="42.465614983811975" lon="1.889017028734088">
        <ele>1252.25</ele>
        <time>2025-05-15T06:29:45Z</time>
      </trkpt>
      <trkpt lat="42.465600986033678" lon="1.889062039554119">
        <ele>1252.25</ele>
        <time>2025-05-15T06:29:46Z</time>
      </trkpt>
      <trkpt lat="42.465590005740523" lon="1.889096992090344">
        <ele>1251.77</ele>
        <time>2025-05-15T06:29:47Z</time>
      </trkpt>
      <trkpt lat="42.46558397077024" lon="1.889118030667305">
        <ele>1251.77</ele>
        <time>2025-05-15T06:29:48Z</time>
      </trkpt>
      <trkpt lat="42.465599980205297" lon="1.889064973220229">
        <ele>1251.77</ele>
        <time>2025-05-15T06:29:51Z</time>
      </trkpt>
      <trkpt lat="42.465612972155213" lon="1.889024991542101">
        <ele>1252.25</ele>
        <time>2025-05-15T06:29:52Z</time>
      </trkpt>
      <trkpt lat="42.465625964105129" lon="1.888982998207212">
        <ele>1252.25</ele>
        <time>2025-05-15T06:29:53Z</time>
      </trkpt>
      <trkpt lat="42.465636022388935" lon="1.888952990993857">
        <ele>1252.74</ele>
        <time>2025-05-15T06:29:54Z</time>
      </trkpt>
      <trkpt lat="42.465752027928829" lon="1.888966988772154">
        <ele>1253.22</ele>
        <time>2025-05-15T06:30:02Z</time>
      </trkpt>
      <trkpt lat="42.465823022648692" lon="1.88891502097249">
        <ele>1234.47</ele>
        <time>2025-05-15T06:58:56Z</time>
      </trkpt>
      <trkpt lat="42.465719003230333" lon="1.888953996822238">
        <ele>1248.4100000000001</ele>
        <time>2025-05-15T06:59:32Z</time>
      </trkpt>
      <trkpt lat="42.46571397408843" lon="1.888966988772154">
        <ele>1254.6600000000001</ele>
        <time>2025-05-15T07:00:16Z</time>
      </trkpt>
      <trkpt lat="42.465743981301785" lon="1.88895701430738">
        <ele>1254.6600000000001</ele>
        <time>2025-05-15T07:01:02Z</time>
      </trkpt>
      <trkpt lat="42.465743981301785" lon="1.888956008478999">
        <ele>1255.1400000000001</ele>
        <time>2025-05-15T07:01:39Z</time>
      </trkpt>
      <trkpt lat="42.465737024322152" lon="1.889038989320397">
        <ele>1254.6600000000001</ele>
        <time>2025-05-15T07:02:07Z</time>
      </trkpt>
      <trkpt lat="42.465737024322152" lon="1.889038989320397">
        <ele>1254.6600000000001</ele>
        <time>2025-05-15T07:02:26Z</time>
      </trkpt>
      <trkpt lat="42.465613977983594" lon="1.889020968228579">
        <ele>1254.1800000000001</ele>
        <time>2025-05-15T07:02:28Z</time>
      </trkpt>
      <trkpt lat="42.46560400351882" lon="1.889053992927074">
        <ele>1254.1800000000001</ele>
        <time>2025-05-15T07:02:29Z</time>
      </trkpt>
      <trkpt lat="42.465571984648705" lon="1.889164969325066">
        <ele>1255.6199999999999</ele>
        <time>2025-05-15T07:02:35Z</time>
      </trkpt>
      <trkpt lat="42.465549018234015" lon="1.889247028157115">
        <ele>1255.6199999999999</ele>
        <time>2025-05-15T07:02:36Z</time>
      </trkpt>
      <trkpt lat="42.465161019936204" lon="1.890459973365068">
        <ele>1253.22</ele>
        <time>2025-05-15T07:02:47Z</time>
      </trkpt>
      <trkpt lat="42.465127995237708" lon="1.890580002218485">
        <ele>1252.74</ele>
        <time>2025-05-15T07:02:48Z</time>
      </trkpt>
      <trkpt lat="42.465014001354575" lon="1.891180984675884">
        <ele>1252.25</ele>
        <time>2025-05-15T07:02:53Z</time>
      </trkpt>
      <trkpt lat="42.464997991919518" lon="1.891311993822455">
        <ele>1252.25</ele>
        <time>2025-05-15T07:02:54Z</time>
      </trkpt>
      <trkpt lat="42.465090025216341" lon="1.891846004873514">
        <ele>1252.74</ele>
        <time>2025-05-15T07:02:58Z</time>
      </trkpt>
      <trkpt lat="42.465203013271093" lon="1.892392002046108">
        <ele>1253.7</ele>
        <time>2025-05-15T07:03:02Z</time>
      </trkpt>
      <trkpt lat="42.465302003547549" lon="1.892959959805012">
        <ele>1253.7</ele>
        <time>2025-05-15T07:03:06Z</time>
      </trkpt>
      <trkpt lat="42.465284988284111" lon="1.893407972529531">
        <ele>1253.7</ele>
        <time>2025-05-15T07:03:09Z</time>
      </trkpt>
      <trkpt lat="42.465271996334195" lon="1.893559014424682">
        <ele>1253.7</ele>
        <time>2025-05-15T07:03:10Z</time>
      </trkpt>
      <trkpt lat="42.465235032141209" lon="1.893707038834691">
        <ele>1254.1800000000001</ele>
        <time>2025-05-15T07:03:11Z</time>
      </trkpt>
      <trkpt lat="42.465140987187624" lon="1.893977019935846">
        <ele>1254.6600000000001</ele>
        <time>2025-05-15T07:03:13Z</time>
      </trkpt>
      <trkpt lat="42.465076027438045" lon="1.894096964970231">
        <ele>1254.6600000000001</ele>
        <time>2025-05-15T07:03:14Z</time>
      </trkpt>
      <trkpt lat="42.464511003345251" lon="1.895225001499057">
        <ele>1257.0599999999999</ele>
        <time>2025-05-15T07:03:23Z</time>
      </trkpt>
      <trkpt lat="42.464458029717207" lon="1.895358022302389">
        <ele>1257.0599999999999</ele>
        <time>2025-05-15T07:03:24Z</time>
      </trkpt>
      <trkpt lat="42.46442299336195" lon="1.895507974550128">
        <ele>1257.54</ele>
        <time>2025-05-15T07:03:25Z</time>
      </trkpt>
      <trkpt lat="42.464171033352613" lon="1.896742964163423">
        <ele>1258.98</ele>
        <time>2025-05-15T07:03:32Z</time>
      </trkpt>
      <trkpt lat="42.463389001786709" lon="1.89875696785748">
        <ele>1263.3099999999999</ele>
        <time>2025-05-15T07:03:42Z</time>
      </trkpt>
      <trkpt lat="42.462650975212455" lon="1.900669969618321">
        <ele>1269.0799999999999</ele>
        <time>2025-05-15T07:03:51Z</time>
      </trkpt>
      <trkpt lat="42.461961982771754" lon="1.902819005772471">
        <ele>1271.48</ele>
        <time>2025-05-15T07:04:00Z</time>
      </trkpt>
      <trkpt lat="42.46182200498879" lon="1.903702039271593">
        <ele>1270.04</ele>
        <time>2025-05-15T07:04:04Z</time>
      </trkpt>
      <trkpt lat="42.461831979453564" lon="1.903900019824505">
        <ele>1270.52</ele>
        <time>2025-05-15T07:04:05Z</time>
      </trkpt>
      <trkpt lat="42.461860980838537" lon="1.904090959578753">
        <ele>1270.04</ele>
        <time>2025-05-15T07:04:06Z</time>
      </trkpt>
      <trkpt lat="42.461916971951723" lon="1.904289023950696">
        <ele>1270.04</ele>
        <time>2025-05-15T07:04:07Z</time>
      </trkpt>
      <trkpt lat="42.461975980550051" lon="1.904495973140001">
        <ele>1269.5599999999999</ele>
        <time>2025-05-15T07:04:08Z</time>
      </trkpt>
      <trkpt lat="42.462413012981415" lon="1.906033968552947">
        <ele>1267.1600000000001</ele>
        <time>2025-05-15T07:04:16Z</time>
      </trkpt>
      <trkpt lat="42.462432961910963" lon="1.906202025711536">
        <ele>1267.1600000000001</ele>
        <time>2025-05-15T07:04:17Z</time>
      </trkpt>
      <trkpt lat="42.462459029629827" lon="1.906406963244081">
        <ele>1266.6700000000001</ele>
        <time>2025-05-15T07:04:18Z</time>
      </trkpt>
      <trkpt lat="42.462459029629827" lon="1.906572002917528">
        <ele>1266.6700000000001</ele>
        <time>2025-05-15T07:04:19Z</time>
      </trkpt>
      <trkpt lat="42.462459029629827" lon="1.906793033704162">
        <ele>1266.1900000000001</ele>
        <time>2025-05-15T07:04:20Z</time>
      </trkpt>
      <trkpt lat="42.462306981906295" lon="1.908216029405594">
        <ele>1266.1900000000001</ele>
        <time>2025-05-15T07:04:28Z</time>
      </trkpt>
      <trkpt lat="42.461929963901639" lon="1.909759975969791">
        <ele>1266.6700000000001</ele>
        <time>2025-05-15T07:04:38Z</time>
      </trkpt>
      <trkpt lat="42.461358988657594" lon="1.911382963880897">
        <ele>1266.6700000000001</ele>
        <time>2025-05-15T07:04:49Z</time>
      </trkpt>
      <trkpt lat="42.460922040045261" lon="1.912687020376325">
        <ele>1266.1900000000001</ele>
        <time>2025-05-15T07:04:59Z</time>
      </trkpt>
      <trkpt lat="42.460783990100026" lon="1.913294037804008">
        <ele>1265.23</ele>
        <time>2025-05-15T07:05:05Z</time>
      </trkpt>
      <trkpt lat="42.460293984040618" lon="1.91484603099525">
        <ele>1264.27</ele>
        <time>2025-05-15T07:05:20Z</time>
      </trkpt>
      <trkpt lat="42.460015034303069" lon="1.916225021705031">
        <ele>1258.5</ele>
        <time>2025-05-15T07:05:32Z</time>
      </trkpt>
      <trkpt lat="42.459853012114763" lon="1.916881995275617">
        <ele>1257.54</ele>
        <time>2025-05-15T07:05:38Z</time>
      </trkpt>
      <trkpt lat="42.459815964102745" lon="1.916984003037214">
        <ele>1257.54</ele>
        <time>2025-05-15T07:05:39Z</time>
      </trkpt>
      <trkpt lat="42.459774976596236" lon="1.917093973606825">
        <ele>1257.54</ele>
        <time>2025-05-15T07:05:40Z</time>
      </trkpt>
      <trkpt lat="42.45943701826036" lon="1.918240031227469">
        <ele>1255.6199999999999</ele>
        <time>2025-05-15T07:05:48Z</time>
      </trkpt>
      <trkpt lat="42.459335010498762" lon="1.918700030073524">
        <ele>1255.1400000000001</ele>
        <time>2025-05-15T07:05:51Z</time>
      </trkpt>
      <trkpt lat="42.459280025213957" lon="1.918846964836121">
        <ele>1255.1400000000001</ele>
        <time>2025-05-15T07:05:52Z</time>
      </trkpt>
      <trkpt lat="42.459225039929152" lon="1.918992977589369">
        <ele>1255.1400000000001</ele>
        <time>2025-05-15T07:05:53Z</time>
      </trkpt>
      <trkpt lat="42.458517020568252" lon="1.92071202211082">
        <ele>1254.1800000000001</ele>
        <time>2025-05-15T07:06:05Z</time>
      </trkpt>
      <trkpt lat="42.458461029455066" lon="1.920858034864068">
        <ele>1254.1800000000001</ele>
        <time>2025-05-15T07:06:06Z</time>
      </trkpt>
      <trkpt lat="42.458405960351229" lon="1.921003963798285">
        <ele>1253.7</ele>
        <time>2025-05-15T07:06:07Z</time>
      </trkpt>
      <trkpt lat="42.458033971488476" lon="1.922599961981177">
        <ele>1252.25</ele>
        <time>2025-05-15T07:06:15Z</time>
      </trkpt>
      <trkpt lat="42.45761102065444" lon="1.924882018938661">
        <ele>1249.8499999999999</ele>
        <time>2025-05-15T07:06:24Z</time>
      </trkpt>
      <trkpt lat="42.456930996850133" lon="1.927745025604963">
        <ele>1249.3699999999999</ele>
        <time>2025-05-15T07:06:35Z</time>
      </trkpt>
      <trkpt lat="42.45612901635468" lon="1.931273974478245">
        <ele>1243.5999999999999</ele>
        <time>2025-05-15T07:06:49Z</time>
      </trkpt>
      <trkpt lat="42.45559299364686" lon="1.933036018162966">
        <ele>1242.1600000000001</ele>
        <time>2025-05-15T07:06:56Z</time>
      </trkpt>
      <trkpt lat="42.455458967015147" lon="1.933232992887497">
        <ele>1242.1600000000001</ele>
        <time>2025-05-15T07:06:57Z</time>
      </trkpt>
      <trkpt lat="42.454306036233902" lon="1.935058990493417">
        <ele>1236.3900000000001</ele>
        <time>2025-05-15T07:07:06Z</time>
      </trkpt>
      <trkpt lat="42.454225989058614" lon="1.935240961611271">
        <ele>1235.9100000000001</ele>
        <time>2025-05-15T07:07:07Z</time>
      </trkpt>
      <trkpt lat="42.454197993502021" lon="1.935396026819944">
        <ele>1235.4300000000001</ele>
        <time>2025-05-15T07:07:08Z</time>
      </trkpt>
      <trkpt lat="42.454214002937078" lon="1.935590989887714">
        <ele>1235.4300000000001</ele>
        <time>2025-05-15T07:07:09Z</time>
      </trkpt>
      <trkpt lat="42.454255996271968" lon="1.935757035389543">
        <ele>1234.95</ele>
        <time>2025-05-15T07:07:10Z</time>
      </trkpt>
      <trkpt lat="42.454312993213534" lon="1.935916962102056">
        <ele>1234.47</ele>
        <time>2025-05-15T07:07:11Z</time>
      </trkpt>
      <trkpt lat="42.454416006803513" lon="1.936005977913737">
        <ele>1233.51</ele>
        <time>2025-05-15T07:07:12Z</time>
      </trkpt>
      <trkpt lat="42.454535029828548" lon="1.93607596680522">
        <ele>1233.03</ele>
        <time>2025-05-15T07:07:13Z</time>
      </trkpt>
      <trkpt lat="42.454658998176455" lon="1.936106979846954">
        <ele>1232.55</ele>
        <time>2025-05-15T07:07:14Z</time>
      </trkpt>
      <trkpt lat="42.454808028414845" lon="1.936113014817238">
        <ele>1232.0699999999999</ele>
        <time>2025-05-15T07:07:15Z</time>
      </trkpt>
      <trkpt lat="42.45496703311801" lon="1.93611997179687">
        <ele>1231.5899999999999</ele>
        <time>2025-05-15T07:07:16Z</time>
      </trkpt>
      <trkpt lat="42.456400003284216" lon="1.936093987897039">
        <ele>1223.9000000000001</ele>
        <time>2025-05-15T07:07:24Z</time>
      </trkpt>
      <trkpt lat="42.456587003543973" lon="1.93603296764195">
        <ele>1222.9300000000001</ele>
        <time>2025-05-15T07:07:25Z</time>
      </trkpt>
      <trkpt lat="42.458307975903153" lon="1.935763992369175">
        <ele>1215.72</ele>
        <time>2025-05-15T07:07:34Z</time>
      </trkpt>
      <trkpt lat="42.458688011392951" lon="1.93583901040256">
        <ele>1214.28</ele>
        <time>2025-05-15T07:07:36Z</time>
      </trkpt>
      <trkpt lat="42.458867970854044" lon="1.935901958495379">
        <ele>1213.3199999999999</ele>
        <time>2025-05-15T07:07:37Z</time>
      </trkpt>
      <trkpt lat="42.459971029311419" lon="1.936126006767154">
        <ele>1207.0699999999999</ele>
        <time>2025-05-15T07:07:44Z</time>
      </trkpt>
      <trkpt lat="42.460821960121393" lon="1.936223991215229">
        <ele>1202.27</ele>
        <time>2025-05-15T07:07:51Z</time>
      </trkpt>
      <trkpt lat="42.460932014510036" lon="1.936280988156796">
        <ele>1201.79</ele>
        <time>2025-05-15T07:07:52Z</time>
      </trkpt>
      <trkpt lat="42.461045002564788" lon="1.936347037553787">
        <ele>1201.3</ele>
        <time>2025-05-15T07:07:53Z</time>
      </trkpt>
      <trkpt lat="42.461138041689992" lon="1.936428006738424">
        <ele>1201.3</ele>
        <time>2025-05-15T07:07:54Z</time>
      </trkpt>
      <trkpt lat="42.46122001670301" lon="1.93654702976346">
        <ele>1200.8199999999999</ele>
        <time>2025-05-15T07:07:55Z</time>
      </trkpt>
      <trkpt lat="42.461301991716027" lon="1.936665968969464">
        <ele>1200.3399999999999</ele>
        <time>2025-05-15T07:07:56Z</time>
      </trkpt>
      <trkpt lat="42.46137198060751" lon="1.936792032793164">
        <ele>1200.3399999999999</ele>
        <time>2025-05-15T07:07:57Z</time>
      </trkpt>
      <trkpt lat="42.461428977549076" lon="1.936920024454594">
        <ele>1199.8599999999999</ele>
        <time>2025-05-15T07:07:58Z</time>
      </trkpt>
      <trkpt lat="42.461444986984134" lon="1.937066037207842">
        <ele>1199.3800000000001</ele>
        <time>2025-05-15T07:07:59Z</time>
      </trkpt>
      <trkpt lat="42.461462002247572" lon="1.937215989455581">
        <ele>1198.9000000000001</ele>
        <time>2025-05-15T07:08:00Z</time>
      </trkpt>
      <trkpt lat="42.461464013904333" lon="1.937345992773771">
        <ele>1198.9000000000001</ele>
        <time>2025-05-15T07:08:01Z</time>
      </trkpt>
      <trkpt lat="42.461437024176121" lon="1.937479013577104">
        <ele>1198.4200000000001</ele>
        <time>2025-05-15T07:08:02Z</time>
      </trkpt>
      <trkpt lat="42.461408022791147" lon="1.937563000246882">
        <ele>1198.4200000000001</ele>
        <time>2025-05-15T07:08:03Z</time>
      </trkpt>
      <trkpt lat="42.461327975615859" lon="1.93768403492868">
        <ele>1198.4200000000001</ele>
        <time>2025-05-15T07:08:04Z</time>
      </trkpt>
      <trkpt lat="42.461262010037899" lon="1.937785958871245">
        <ele>1198.9000000000001</ele>
        <time>2025-05-15T07:08:05Z</time>
      </trkpt>
      <trkpt lat="42.460687011480331" lon="1.938675027340651">
        <ele>1197.46</ele>
        <time>2025-05-15T07:08:15Z</time>
      </trkpt>
      <trkpt lat="42.460164986550808" lon="1.93942504003644">
        <ele>1194.0899999999999</ele>
        <time>2025-05-15T07:08:24Z</time>
      </trkpt>
      <trkpt lat="42.460143025964499" lon="1.939456975087524">
        <ele>1193.6099999999999</ele>
        <time>2025-05-15T07:08:25Z</time>
      </trkpt>
      <trkpt lat="42.460130034014583" lon="1.939476002007723">
        <ele>1193.6099999999999</ele>
        <time>2025-05-15T07:08:26Z</time>
      </trkpt>
      <trkpt lat="42.460120981559157" lon="1.939487988129258">
        <ele>1193.1300000000001</ele>
        <time>2025-05-15T07:08:31Z</time>
      </trkpt>
      <trkpt lat="42.460130034014583" lon="1.939474996179342">
        <ele>1192.6500000000001</ele>
        <time>2025-05-15T07:08:32Z</time>
      </trkpt>
      <trkpt lat="42.46014897711575" lon="1.939449012279511">
        <ele>1192.6500000000001</ele>
        <time>2025-05-15T07:08:33Z</time>
      </trkpt>
      <trkpt lat="42.460175966843963" lon="1.939409030601382">
        <ele>1192.6500000000001</ele>
        <time>2025-05-15T07:08:34Z</time>
      </trkpt>
      <trkpt lat="42.460207985714078" lon="1.93936200812459">
        <ele>1192.6500000000001</ele>
        <time>2025-05-15T07:08:35Z</time>
      </trkpt>
      <trkpt lat="42.460653986781836" lon="1.938723977655172">
        <ele>1192.1700000000001</ele>
        <time>2025-05-15T07:08:41Z</time>
      </trkpt>
      <trkpt lat="42.461120020598173" lon="1.938002966344357">
        <ele>1192.6500000000001</ele>
        <time>2025-05-15T07:08:48Z</time>
      </trkpt>
      <trkpt lat="42.461408022791147" lon="1.937563000246882">
        <ele>1194.0899999999999</ele>
        <time>2025-05-15T07:08:53Z</time>
      </trkpt>
      <trkpt lat="42.461428977549076" lon="1.937521006911993">
        <ele>1194.0899999999999</ele>
        <time>2025-05-15T07:08:54Z</time>
      </trkpt>
      <trkpt lat="42.461448004469275" lon="1.937424028292298">
        <ele>1194.0899999999999</ele>
        <time>2025-05-15T07:08:55Z</time>
      </trkpt>
      <trkpt lat="42.461469965055585" lon="1.937313973903656">
        <ele>1194.0899999999999</ele>
        <time>2025-05-15T07:08:56Z</time>
      </trkpt>
      <trkpt lat="42.461579013615847" lon="1.937228981405497">
        <ele>1194.5799999999999</ele>
        <time>2025-05-15T07:08:57Z</time>
      </trkpt>
      <trkpt lat="42.461663000285625" lon="1.937147006392479">
        <ele>1195.0599999999999</ele>
        <time>2025-05-15T07:08:58Z</time>
      </trkpt>
      <trkpt lat="42.461826028302312" lon="1.936965035274625">
        <ele>1196.02</ele>
        <time>2025-05-15T07:09:00Z</time>
      </trkpt>
      <trkpt lat="42.461929963901639" lon="1.936922036111355">
        <ele>1196.02</ele>
        <time>2025-05-15T07:09:01Z</time>
      </trkpt>
      <trkpt lat="42.462027026340365" lon="1.936931004747748">
        <ele>1196.5</ele>
        <time>2025-05-15T07:09:02Z</time>
      </trkpt>
      <trkpt lat="42.462125010788441" lon="1.936939973384142">
        <ele>1196.5</ele>
        <time>2025-05-15T07:09:03Z</time>
      </trkpt>
      <trkpt lat="42.462213020771742" lon="1.936997976154089">
        <ele>1196.5</ele>
        <time>2025-05-15T07:09:04Z</time>
      </trkpt>
      <trkpt lat="42.462280998006463" lon="1.937064025551081">
        <ele>1196.98</ele>
        <time>2025-05-15T07:09:05Z</time>
      </trkpt>
      <trkpt lat="42.462335983291268" lon="1.937166033312678">
        <ele>1196.98</ele>
        <time>2025-05-15T07:09:06Z</time>
      </trkpt>
      <trkpt lat="42.462389962747693" lon="1.937274998053908">
        <ele>1197.46</ele>
        <time>2025-05-15T07:09:07Z</time>
      </trkpt>
      <trkpt lat="42.462446037679911" lon="1.9373859744519">
        <ele>1197.46</ele>
        <time>2025-05-15T07:09:08Z</time>
      </trkpt>
      <trkpt lat="42.462501022964716" lon="1.937498040497303">
        <ele>1197.9400000000001</ele>
        <time>2025-05-15T07:09:09Z</time>
      </trkpt>
      <trkpt lat="42.462556008249521" lon="1.937608011066914">
        <ele>1197.9400000000001</ele>
        <time>2025-05-15T07:09:10Z</time>
      </trkpt>
      <trkpt lat="42.462602024897933" lon="1.93772703409195">
        <ele>1198.4200000000001</ele>
        <time>2025-05-15T07:09:11Z</time>
      </trkpt>
      <trkpt lat="42.462719958275557" lon="1.938054012134671">
        <ele>1198.9000000000001</ele>
        <time>2025-05-15T07:09:14Z</time>
      </trkpt>
      <trkpt lat="42.462795982137322" lon="1.938262972980738">
        <ele>1198.9000000000001</ele>
        <time>2025-05-15T07:09:16Z</time>
      </trkpt>
      <trkpt lat="42.462836969643831" lon="1.938376966863871">
        <ele>1199.3800000000001</ele>
        <time>2025-05-15T07:09:17Z</time>
      </trkpt>
      <trkpt lat="42.462880974635482" lon="1.938482997938991">
        <ele>1199.3800000000001</ele>
        <time>2025-05-15T07:09:18Z</time>
      </trkpt>
      <trkpt lat="42.463103011250496" lon="1.939214989542961">
        <ele>1200.3399999999999</ele>
        <time>2025-05-15T07:09:25Z</time>
      </trkpt>
      <trkpt lat="42.463151961565018" lon="1.939294030889869">
        <ele>1200.8199999999999</ele>
        <time>2025-05-15T07:09:26Z</time>
      </trkpt>
      <trkpt lat="42.463196972385049" lon="1.939366031438112">
        <ele>1200.8199999999999</ele>
        <time>2025-05-15T07:09:27Z</time>
      </trkpt>
      <trkpt lat="42.463256986811757" lon="1.93938204087317">
        <ele>1201.3</ele>
        <time>2025-05-15T07:09:28Z</time>
      </trkpt>
      <trkpt lat="42.463330999016762" lon="1.939371982589364">
        <ele>1201.79</ele>
        <time>2025-05-15T07:09:29Z</time>
      </trkpt>
      <trkpt lat="42.463409034535289" lon="1.939356978982687">
        <ele>1202.75</ele>
        <time>2025-05-15T07:09:30Z</time>
      </trkpt>
      <trkpt lat="42.463497966527939" lon="1.939326971769333">
        <ele>1203.23</ele>
        <time>2025-05-15T07:09:31Z</time>
      </trkpt>
      <trkpt lat="42.463603997603059" lon="1.939329989254475">
        <ele>1203.71</ele>
        <time>2025-05-15T07:09:32Z</time>
      </trkpt>
      <trkpt lat="42.46371497400105" lon="1.939338035881519">
        <ele>1204.1900000000001</ele>
        <time>2025-05-15T07:09:33Z</time>
      </trkpt>
      <trkpt lat="42.463829973712564" lon="1.939334012567997">
        <ele>1204.6700000000001</ele>
        <time>2025-05-15T07:09:34Z</time>
      </trkpt>
      <trkpt lat="42.463952014222741" lon="1.939301993697882">
        <ele>1205.6300000000001</ele>
        <time>2025-05-15T07:09:35Z</time>
      </trkpt>
      <trkpt lat="42.464077994227409" lon="1.939269974827766">
        <ele>1206.5899999999999</ele>
        <time>2025-05-15T07:09:36Z</time>
      </trkpt>
      <trkpt lat="42.464493988081813" lon="1.939186993986368">
        <ele>1209</ele>
        <time>2025-05-15T07:09:40Z</time>
      </trkpt>
      <trkpt lat="42.464578980579972" lon="1.939218007028103">
        <ele>1209.48</ele>
        <time>2025-05-15T07:09:41Z</time>
      </trkpt>
      <trkpt lat="42.464690962806344" lon="1.939258994534612">
        <ele>1210.4400000000001</ele>
        <time>2025-05-15T07:09:42Z</time>
      </trkpt>
      <trkpt lat="42.46476698666811" lon="1.939324960112572">
        <ele>1210.9200000000001</ele>
        <time>2025-05-15T07:09:43Z</time>
      </trkpt>
      <trkpt lat="42.464862037450075" lon="1.939409030601382">
        <ele>1211.4000000000001</ele>
        <time>2025-05-15T07:09:44Z</time>
      </trkpt>
      <trkpt lat="42.465849006548524" lon="1.940323999151588">
        <ele>1213.8</ele>
        <time>2025-05-15T07:09:52Z</time>
      </trkpt>
      <trkpt lat="42.466602958738804" lon="1.941066971048713">
        <ele>1216.21</ele>
        <time>2025-05-15T07:09:58Z</time>
      </trkpt>
      <trkpt lat="42.466694992035627" lon="1.941216001287103">
        <ele>1216.6900000000001</ele>
        <time>2025-05-15T07:09:59Z</time>
      </trkpt>
      <trkpt lat="42.467134036123753" lon="1.942223003134131">
        <ele>1219.5699999999999</ele>
        <time>2025-05-15T07:10:04Z</time>
      </trkpt>
      <trkpt lat="42.467249035835266" lon="1.942429030314088">
        <ele>1220.05</ele>
        <time>2025-05-15T07:10:05Z</time>
      </trkpt>
      <trkpt lat="42.468409007415175" lon="1.943897036835551">
        <ele>1226.3</ele>
        <time>2025-05-15T07:10:13Z</time>
      </trkpt>
      <trkpt lat="42.468798011541367" lon="1.944253016263247">
        <ele>1227.74</ele>
        <time>2025-05-15T07:10:16Z</time>
      </trkpt>
      <trkpt lat="42.468903958797455" lon="1.944363992661238">
        <ele>1228.22</ele>
        <time>2025-05-15T07:10:17Z</time>
      </trkpt>
      <trkpt lat="42.468966990709305" lon="1.944520985707641">
        <ele>1228.22</ele>
        <time>2025-05-15T07:10:18Z</time>
      </trkpt>
      <trkpt lat="42.469028010964394" lon="1.944678984582424">
        <ele>1228.7</ele>
        <time>2025-05-15T07:10:19Z</time>
      </trkpt>
      <trkpt lat="42.469074027612805" lon="1.944861961528659">
        <ele>1229.1800000000001</ele>
        <time>2025-05-15T07:10:20Z</time>
      </trkpt>
      <trkpt lat="42.469364963471889" lon="1.946313036605716">
        <ele>1234.47</ele>
        <time>2025-05-15T07:10:27Z</time>
      </trkpt>
      <trkpt lat="42.46942900121212" lon="1.946476986631751">
        <ele>1235.4300000000001</ele>
        <time>2025-05-15T07:10:28Z</time>
      </trkpt>
      <trkpt lat="42.469502007588744" lon="1.946638002991676">
        <ele>1235.9100000000001</ele>
        <time>2025-05-15T07:10:29Z</time>
      </trkpt>
      <trkpt lat="42.469599992036819" lon="1.946791978552938">
        <ele>1236.8699999999999</ele>
        <time>2025-05-15T07:10:30Z</time>
      </trkpt>
      <trkpt lat="42.469902997836471" lon="1.947267986834049">
        <ele>1238.8</ele>
        <time>2025-05-15T07:10:33Z</time>
      </trkpt>
      <trkpt lat="42.470037024468184" lon="1.947386004030705">
        <ele>1239.28</ele>
        <time>2025-05-15T07:10:34Z</time>
      </trkpt>
      <trkpt lat="42.470471039414406" lon="1.947735026478767">
        <ele>1241.2</ele>
        <time>2025-05-15T07:10:37Z</time>
      </trkpt>
      <trkpt lat="42.470600036904216" lon="1.94789101369679">
        <ele>1242.1600000000001</ele>
        <time>2025-05-15T07:10:38Z</time>
      </trkpt>
      <trkpt lat="42.470719981938601" lon="1.948035014793277">
        <ele>1243.1199999999999</ele>
        <time>2025-05-15T07:10:39Z</time>
      </trkpt>
      <trkpt lat="42.47082500718534" lon="1.94823601283133">
        <ele>1244.0799999999999</ele>
        <time>2025-05-15T07:10:40Z</time>
      </trkpt>
      <trkpt lat="42.470925003290176" lon="1.948425024747849">
        <ele>1245.04</ele>
        <time>2025-05-15T07:10:41Z</time>
      </trkpt>
      <trkpt lat="42.471029022708535" lon="1.948625016957521">
        <ele>1246.01</ele>
        <time>2025-05-15T07:10:42Z</time>
      </trkpt>
      <trkpt lat="42.471581976860762" lon="1.949899988248944">
        <ele>1251.29</ele>
        <time>2025-05-15T07:10:48Z</time>
      </trkpt>
      <trkpt lat="42.47164299711585" lon="1.950052035972476">
        <ele>1252.25</ele>
        <time>2025-05-15T07:10:49Z</time>
      </trkpt>
      <trkpt lat="42.471750034019351" lon="1.950172986835241">
        <ele>1252.74</ele>
        <time>2025-05-15T07:10:50Z</time>
      </trkpt>
      <trkpt lat="42.47183796018362" lon="1.950245993211865">
        <ele>1253.7</ele>
        <time>2025-05-15T07:10:51Z</time>
      </trkpt>
      <trkpt lat="42.471944997087121" lon="1.95029896683991">
        <ele>1254.6600000000001</ele>
        <time>2025-05-15T07:10:52Z</time>
      </trkpt>
      <trkpt lat="42.472062008455396" lon="1.950357975438237">
        <ele>1255.1400000000001</ele>
        <time>2025-05-15T07:10:53Z</time>
      </trkpt>
      <trkpt lat="42.472322015091777" lon="1.950487978756428">
        <ele>1256.0999999999999</ele>
        <time>2025-05-15T07:10:55Z</time>
      </trkpt>
      <trkpt lat="42.47245998121798" lon="1.950556039810181">
        <ele>1256.5799999999999</ele>
        <time>2025-05-15T07:10:56Z</time>
      </trkpt>
      <trkpt lat="42.472595013678074" lon="1.950637008994818">
        <ele>1257.0599999999999</ele>
        <time>2025-05-15T07:10:57Z</time>
      </trkpt>
      <trkpt lat="42.472724011167884" lon="1.950757037848234">
        <ele>1257.54</ele>
        <time>2025-05-15T07:10:58Z</time>
      </trkpt>
      <trkpt lat="42.472849991172552" lon="1.950873965397477">
        <ele>1258.02</ele>
        <time>2025-05-15T07:10:59Z</time>
      </trkpt>
      <trkpt lat="42.473079990595579" lon="1.951088039204478">
        <ele>1259.46</ele>
        <time>2025-05-15T07:11:01Z</time>
      </trkpt>
      <trkpt lat="42.47318803332746" lon="1.951189041137695">
        <ele>1260.4300000000001</ele>
        <time>2025-05-15T07:11:02Z</time>
      </trkpt>
      <trkpt lat="42.473333962261677" lon="1.951233968138695">
        <ele>1260.9100000000001</ele>
        <time>2025-05-15T07:11:03Z</time>
      </trkpt>
      <trkpt lat="42.473466983065009" lon="1.951275039464235">
        <ele>1261.3900000000001</ele>
        <time>2025-05-15T07:11:04Z</time>
      </trkpt>
      <trkpt lat="42.473607966676354" lon="1.951244026422501">
        <ele>1261.8699999999999</ele>
        <time>2025-05-15T07:11:05Z</time>
      </trkpt>
      <trkpt lat="42.473761020228267" lon="1.951209995895624">
        <ele>1261.8699999999999</ele>
        <time>2025-05-15T07:11:06Z</time>
      </trkpt>
      <trkpt lat="42.473920024931431" lon="1.951174037531018">
        <ele>1262.3499999999999</ele>
        <time>2025-05-15T07:11:07Z</time>
      </trkpt>
      <trkpt lat="42.47409101575613" lon="1.951147969812155">
        <ele>1262.8299999999999</ele>
        <time>2025-05-15T07:11:08Z</time>
      </trkpt>
      <trkpt lat="42.47426200658083" lon="1.951154004782438">
        <ele>1263.3099999999999</ele>
        <time>2025-05-15T07:11:09Z</time>
      </trkpt>
      <trkpt lat="42.474796017631888" lon="1.951215025037527">
        <ele>1265.23</ele>
        <time>2025-05-15T07:11:12Z</time>
      </trkpt>
      <trkpt lat="42.474972037598491" lon="1.951271016150713">
        <ele>1266.1900000000001</ele>
        <time>2025-05-15T07:11:13Z</time>
      </trkpt>
      <trkpt lat="42.475141016766429" lon="1.951324995607138">
        <ele>1267.1600000000001</ele>
        <time>2025-05-15T07:11:14Z</time>
      </trkpt>
      <trkpt lat="42.475586012005806" lon="1.951466985046864">
        <ele>1270.04</ele>
        <time>2025-05-15T07:11:17Z</time>
      </trkpt>
      <trkpt lat="42.475735964253545" lon="1.951459022238851">
        <ele>1271.48</ele>
        <time>2025-05-15T07:11:18Z</time>
      </trkpt>
      <trkpt lat="42.475884994491935" lon="1.951401019468904">
        <ele>1272.4400000000001</ele>
        <time>2025-05-15T07:11:19Z</time>
      </trkpt>
      <trkpt lat="42.476047016680241" lon="1.951338993385434">
        <ele>1273.8800000000001</ele>
        <time>2025-05-15T07:11:20Z</time>
      </trkpt>
      <trkpt lat="42.476214990019798" lon="1.951274033635855">
        <ele>1275.3299999999999</ele>
        <time>2025-05-15T07:11:21Z</time>
      </trkpt>
      <trkpt lat="42.476684963330626" lon="1.951091978698969">
        <ele>1280.1300000000001</ele>
        <time>2025-05-15T07:11:24Z</time>
      </trkpt>
      <trkpt lat="42.476813960820436" lon="1.951042022556067">
        <ele>1281.5699999999999</ele>
        <time>2025-05-15T07:11:25Z</time>
      </trkpt>
      <trkpt lat="42.476943964138627" lon="1.951035987585783">
        <ele>1282.54</ele>
        <time>2025-05-15T07:11:26Z</time>
      </trkpt>
      <trkpt lat="42.477058041840792" lon="1.951086027547717">
        <ele>1283.98</ele>
        <time>2025-05-15T07:11:27Z</time>
      </trkpt>
      <trkpt lat="42.477142028510571" lon="1.951159033924341">
        <ele>1284.9400000000001</ele>
        <time>2025-05-15T07:11:28Z</time>
      </trkpt>
      <trkpt lat="42.477219980210066" lon="1.951237991452217">
        <ele>1286.3800000000001</ele>
        <time>2025-05-15T07:11:29Z</time>
      </trkpt>
      <trkpt lat="42.477296004071832" lon="1.951344022527337">
        <ele>1287.3399999999999</ele>
        <time>2025-05-15T07:11:30Z</time>
      </trkpt>
      <trkpt lat="42.477625999599695" lon="1.951876021921635">
        <ele>1291.6700000000001</ele>
        <time>2025-05-15T07:11:34Z</time>
      </trkpt>
      <trkpt lat="42.478103013709188" lon="1.952673979103565">
        <ele>1298.8800000000001</ele>
        <time>2025-05-15T07:11:41Z</time>
      </trkpt>
      <trkpt lat="42.478146012872458" lon="1.952741034328938">
        <ele>1299.3599999999999</ele>
        <time>2025-05-15T07:11:42Z</time>
      </trkpt>
      <trkpt lat="42.478208960965276" lon="1.952908001840115">
        <ele>1300.8</ele>
        <time>2025-05-15T07:11:44Z</time>
      </trkpt>
      <trkpt lat="42.478208960965276" lon="1.952970027923584">
        <ele>1301.28</ele>
        <time>2025-05-15T07:11:45Z</time>
      </trkpt>
      <trkpt lat="42.47823997400701" lon="1.953143030405045">
        <ele>1302.24</ele>
        <time>2025-05-15T07:11:46Z</time>
      </trkpt>
      <trkpt lat="42.478255983442068" lon="1.953592970967293">
        <ele>1304.1700000000001</ele>
        <time>2025-05-15T07:11:49Z</time>
      </trkpt>
      <trkpt lat="42.47836796566844" lon="1.954559991136193">
        <ele>1307.05</ele>
        <time>2025-05-15T07:11:55Z</time>
      </trkpt>
      <trkpt lat="42.478395961225033" lon="1.954714972525835">
        <ele>1307.53</ele>
        <time>2025-05-15T07:11:56Z</time>
      </trkpt>
      <trkpt lat="42.478468967601657" lon="1.95485302247107">
        <ele>1308.01</ele>
        <time>2025-05-15T07:11:57Z</time>
      </trkpt>
      <trkpt lat="42.478556977584958" lon="1.954986965283752">
        <ele>1308.01</ele>
        <time>2025-05-15T07:11:58Z</time>
      </trkpt>
      <trkpt lat="42.47864599339664" lon="1.955124009400606">
        <ele>1308.01</ele>
        <time>2025-05-15T07:11:59Z</time>
      </trkpt>
      <trkpt lat="42.478987975046039" lon="1.955715017393231">
        <ele>1310.9000000000001</ele>
        <time>2025-05-15T07:12:03Z</time>
      </trkpt>
      <trkpt lat="42.479155026376247" lon="1.956150960177183">
        <ele>1312.3399999999999</ele>
        <time>2025-05-15T07:12:06Z</time>
      </trkpt>
      <trkpt lat="42.479324005544186" lon="1.95676501840353">
        <ele>1315.22</ele>
        <time>2025-05-15T07:12:10Z</time>
      </trkpt>
      <trkpt lat="42.479399023577571" lon="1.956895021721721">
        <ele>1316.1800000000001</ele>
        <time>2025-05-15T07:12:11Z</time>
      </trkpt>
      <trkpt lat="42.479473035782576" lon="1.95702200755477">
        <ele>1316.6600000000001</ele>
        <time>2025-05-15T07:12:12Z</time>
      </trkpt>
      <trkpt lat="42.48023402877152" lon="1.958033032715321">
        <ele>1321.95</ele>
        <time>2025-05-15T07:12:21Z</time>
      </trkpt>
      <trkpt lat="42.481440016999841" lon="1.958799976855516">
        <ele>1328.6800000000001</ele>
        <time>2025-05-15T07:12:32Z</time>
      </trkpt>
      <trkpt lat="42.481836983934045" lon="1.959155034273863">
        <ele>1331.5599999999999</ele>
        <time>2025-05-15T07:12:36Z</time>
      </trkpt>
      <trkpt lat="42.481922982260585" lon="1.959254024550319">
        <ele>1332.52</ele>
        <time>2025-05-15T07:12:37Z</time>
      </trkpt>
      <trkpt lat="42.482163961976767" lon="1.959529034793377">
        <ele>1334.9300000000001</ele>
        <time>2025-05-15T07:12:41Z</time>
      </trkpt>
      <trkpt lat="42.482214001938701" lon="1.959587959572673">
        <ele>1335.4100000000001</ele>
        <time>2025-05-15T07:12:42Z</time>
      </trkpt>
      <trkpt lat="42.482263036072254" lon="1.959645040333271">
        <ele>1335.8900000000001</ele>
        <time>2025-05-15T07:12:43Z</time>
      </trkpt>
      <trkpt lat="42.482316009700298" lon="1.959705976769328">
        <ele>1335.8900000000001</ele>
        <time>2025-05-15T07:12:44Z</time>
      </trkpt>
      <trkpt lat="42.482370994985104" lon="1.959768002852798">
        <ele>1336.3699999999999</ele>
        <time>2025-05-15T07:12:45Z</time>
      </trkpt>
      <trkpt lat="42.48242799192667" lon="1.959813013672829">
        <ele>1336.8499999999999</ele>
        <time>2025-05-15T07:12:46Z</time>
      </trkpt>
      <trkpt lat="42.48249102383852" lon="1.959847966209054">
        <ele>1337.3299999999999</ele>
        <time>2025-05-15T07:12:47Z</time>
      </trkpt>
      <trkpt lat="42.482554977759719" lon="1.959883002564311">
        <ele>1337.8099999999999</ele>
        <time>2025-05-15T07:12:48Z</time>
      </trkpt>
      <trkpt lat="42.48262002132833" lon="1.959906974807382">
        <ele>1338.29</ele>
        <time>2025-05-15T07:12:49Z</time>
      </trkpt>
      <trkpt lat="42.482689004391432" lon="1.959918960928917">
        <ele>1339.25</ele>
        <time>2025-05-15T07:12:50Z</time>
      </trkpt>
      <trkpt lat="42.482758993282914" lon="1.959931030869484">
        <ele>1340.22</ele>
        <time>2025-05-15T07:12:51Z</time>
      </trkpt>
      <trkpt lat="42.482967032119632" lon="1.959973024204373">
        <ele>1341.1800000000001</ele>
        <time>2025-05-15T07:12:54Z</time>
      </trkpt>
      <trkpt lat="42.483040960505605" lon="1.96000998839736">
        <ele>1341.1800000000001</ele>
        <time>2025-05-15T07:12:55Z</time>
      </trkpt>
      <trkpt lat="42.483170963823795" lon="1.960135968402028">
        <ele>1342.6199999999999</ele>
        <time>2025-05-15T07:12:57Z</time>
      </trkpt>
      <trkpt lat="42.483233995735645" lon="1.960208974778652">
        <ele>1343.0999999999999</ele>
        <time>2025-05-15T07:12:58Z</time>
      </trkpt>
      <trkpt lat="42.483300967141986" lon="1.960287010297179">
        <ele>1343.5799999999999</ele>
        <time>2025-05-15T07:12:59Z</time>
      </trkpt>
      <trkpt lat="42.483367016538978" lon="1.960370996966958">
        <ele>1344.0599999999999</ele>
        <time>2025-05-15T07:13:00Z</time>
      </trkpt>
      <trkpt lat="42.483428036794066" lon="1.960455989465118">
        <ele>1344.0599999999999</ele>
        <time>2025-05-15T07:13:01Z</time>
      </trkpt>
      <trkpt lat="42.483548987656832" lon="1.96061298251152">
        <ele>1344.54</ele>
        <time>2025-05-15T07:13:03Z</time>
      </trkpt>
      <trkpt lat="42.484066989272833" lon="1.961295017972589">
        <ele>1345.5</ele>
        <time>2025-05-15T07:13:13Z</time>
      </trkpt>
      <trkpt lat="42.484735026955605" lon="1.962150977924466">
        <ele>1347.4300000000001</ele>
        <time>2025-05-15T07:13:25Z</time>
      </trkpt>
      <trkpt lat="42.485470036044717" lon="1.963100982829928">
        <ele>1348.3900000000001</ele>
        <time>2025-05-15T07:13:35Z</time>
      </trkpt>
      <trkpt lat="42.485933974385262" lon="1.963699031621218">
        <ele>1350.3099999999999</ele>
        <time>2025-05-15T07:13:41Z</time>
      </trkpt>
      <trkpt lat="42.486000023782253" lon="1.963784024119377">
        <ele>1351.27</ele>
        <time>2025-05-15T07:13:42Z</time>
      </trkpt>
      <trkpt lat="42.486365977674723" lon="1.964357011020184">
        <ele>1355.1199999999999</ele>
        <time>2025-05-15T07:13:48Z</time>
      </trkpt>
      <trkpt lat="42.486383998766541" lon="1.964482991024852">
        <ele>1355.5999999999999</ele>
        <time>2025-05-15T07:13:49Z</time>
      </trkpt>
      <trkpt lat="42.486383998766541" lon="1.964618023484945">
        <ele>1356.0799999999999</ele>
        <time>2025-05-15T07:13:50Z</time>
      </trkpt>
      <trkpt lat="42.486383998766541" lon="1.964750038459897">
        <ele>1356.0799999999999</ele>
        <time>2025-05-15T07:13:51Z</time>
      </trkpt>
      <trkpt lat="42.486339993774891" lon="1.964847017079592">
        <ele>1356.5599999999999</ele>
        <time>2025-05-15T07:13:52Z</time>
      </trkpt>
      <trkpt lat="42.486288025975227" lon="1.964960005134344">
        <ele>1357.04</ele>
        <time>2025-05-15T07:13:53Z</time>
      </trkpt>
      <trkpt lat="42.48623002320528" lon="1.965050026774406">
        <ele>1357.52</ele>
        <time>2025-05-15T07:13:54Z</time>
      </trkpt>
      <trkpt lat="42.486145030707121" lon="1.965118004009128">
        <ele>1358</ele>
        <time>2025-05-15T07:13:55Z</time>
      </trkpt>
      <trkpt lat="42.48605702072382" lon="1.96518799290061">
        <ele>1358</ele>
        <time>2025-05-15T07:13:56Z</time>
      </trkpt>
      <trkpt lat="42.485787961632013" lon="1.965418998152018">
        <ele>1357.52</ele>
        <time>2025-05-15T07:13:59Z</time>
      </trkpt>
      <trkpt lat="42.485698023810983" lon="1.965500973165035">
        <ele>1357.04</ele>
        <time>2025-05-15T07:14:00Z</time>
      </trkpt>
      <trkpt lat="42.485203994438052" lon="1.966110002249479">
        <ele>1356.5599999999999</ele>
        <time>2025-05-15T07:14:07Z</time>
      </trkpt>
      <trkpt lat="42.485140040516853" lon="1.966166999191046">
        <ele>1356.0799999999999</ele>
        <time>2025-05-15T07:14:08Z</time>
      </trkpt>
      <trkpt lat="42.48502797447145" lon="1.966216033324599">
        <ele>1356.0799999999999</ele>
        <time>2025-05-15T07:14:09Z</time>
      </trkpt>
      <trkpt lat="42.484930995851755" lon="1.966249980032444">
        <ele>1356.0799999999999</ele>
        <time>2025-05-15T07:14:10Z</time>
      </trkpt>
      <trkpt lat="42.484827982261777" lon="1.966230031102896">
        <ele>1356.0799999999999</ele>
        <time>2025-05-15T07:14:11Z</time>
      </trkpt>
      <trkpt lat="42.484720023348927" lon="1.966209998354316">
        <ele>1356.5599999999999</ele>
        <time>2025-05-15T07:14:12Z</time>
      </trkpt>
      <trkpt lat="42.484606029465795" lon="1.966188037768006">
        <ele>1357.04</ele>
        <time>2025-05-15T07:14:13Z</time>
      </trkpt>
      <trkpt lat="42.48448901809752" lon="1.966174961999059">
        <ele>1357.52</ele>
        <time>2025-05-15T07:14:14Z</time>
      </trkpt>
      <trkpt lat="42.484366977587342" lon="1.966178985312581">
        <ele>1358</ele>
        <time>2025-05-15T07:14:15Z</time>
      </trkpt>
      <trkpt lat="42.484239991754293" lon="1.96621703915298">
        <ele>1358.48</ele>
        <time>2025-05-15T07:14:16Z</time>
      </trkpt>
      <trkpt lat="42.484106970950961" lon="1.966256015002728">
        <ele>1358.96</ele>
        <time>2025-05-15T07:14:17Z</time>
      </trkpt>
      <trkpt lat="42.482868963852525" lon="1.966487020254135">
        <ele>1364.73</ele>
        <time>2025-05-15T07:14:26Z</time>
      </trkpt>
      <trkpt lat="42.482707025483251" lon="1.966522978618741">
        <ele>1365.21</ele>
        <time>2025-05-15T07:14:27Z</time>
      </trkpt>
      <trkpt lat="42.482542991638184" lon="1.966560026630759">
        <ele>1366.1700000000001</ele>
        <time>2025-05-15T07:14:28Z</time>
      </trkpt>
      <trkpt lat="42.482373006641865" lon="1.966554997488856">
        <ele>1366.6500000000001</ele>
        <time>2025-05-15T07:14:29Z</time>
      </trkpt>
      <trkpt lat="42.481434987857938" lon="1.966352993622422">
        <ele>1370.5</ele>
        <time>2025-05-15T07:14:34Z</time>
      </trkpt>
      <trkpt lat="42.481243964284658" lon="1.966257020831108">
        <ele>1371.46</ele>
        <time>2025-05-15T07:14:35Z</time>
      </trkpt>
      <trkpt lat="42.481066016480327" lon="1.966116959229112">
        <ele>1372.9000000000001</ele>
        <time>2025-05-15T07:14:36Z</time>
      </trkpt>
      <trkpt lat="42.480889996513724" lon="1.965973963961005">
        <ele>1374.3399999999999</ele>
        <time>2025-05-15T07:14:37Z</time>
      </trkpt>
      <trkpt lat="42.480725040659308" lon="1.965841026976705">
        <ele>1375.3</ele>
        <time>2025-05-15T07:14:38Z</time>
      </trkpt>
      <trkpt lat="42.480610040947795" lon="1.965680010616779">
        <ele>1376.26</ele>
        <time>2025-05-15T07:14:39Z</time>
      </trkpt>
      <trkpt lat="42.480521025136113" lon="1.965516982600093">
        <ele>1377.71</ele>
        <time>2025-05-15T07:14:40Z</time>
      </trkpt>
      <trkpt lat="42.480439972132444" lon="1.965369964018464">
        <ele>1378.6700000000001</ele>
        <time>2025-05-15T07:14:41Z</time>
      </trkpt>
      <trkpt lat="42.48036696575582" lon="1.965236021205783">
        <ele>1379.6300000000001</ele>
        <time>2025-05-15T07:14:42Z</time>
      </trkpt>
      <trkpt lat="42.480311980471015" lon="1.965137030929327">
        <ele>1380.5899999999999</ele>
        <time>2025-05-15T07:14:43Z</time>
      </trkpt>
      <trkpt lat="42.480221958830953" lon="1.965137030929327">
        <ele>1381.55</ele>
        <time>2025-05-15T07:14:44Z</time>
      </trkpt>
      <trkpt lat="42.480139983817935" lon="1.965137030929327">
        <ele>1382.03</ele>
        <time>2025-05-15T07:14:45Z</time>
      </trkpt>
      <trkpt lat="42.480079969391227" lon="1.965221017599106">
        <ele>1382.99</ele>
        <time>2025-05-15T07:14:46Z</time>
      </trkpt>
      <trkpt lat="42.480028001591563" lon="1.965335011482239">
        <ele>1383.96</ele>
        <time>2025-05-15T07:14:47Z</time>
      </trkpt>
      <trkpt lat="42.480010986328125" lon="1.965500973165035">
        <ele>1384.9200000000001</ele>
        <time>2025-05-15T07:14:48Z</time>
      </trkpt>
      <trkpt lat="42.480046022683382" lon="1.965685039758682">
        <ele>1385.8800000000001</ele>
        <time>2025-05-15T07:14:49Z</time>
      </trkpt>
      <trkpt lat="42.48008600436151" lon="1.965890983119607">
        <ele>1386.3599999999999</ele>
        <time>2025-05-15T07:14:50Z</time>
      </trkpt>
      <trkpt lat="42.480102013796568" lon="1.966127017512918">
        <ele>1387.3199999999999</ele>
        <time>2025-05-15T07:14:51Z</time>
      </trkpt>
      <trkpt lat="42.480106959119439" lon="1.966360034421086">
        <ele>1387.8</ele>
        <time>2025-05-15T07:14:52Z</time>
      </trkpt>
      <trkpt lat="42.480112994089723" lon="1.966591039672494">
        <ele>1388.76</ele>
        <time>2025-05-15T07:14:53Z</time>
      </trkpt>
      <trkpt lat="42.480123974382877" lon="1.96682003326714">
        <ele>1389.24</ele>
        <time>2025-05-15T07:14:54Z</time>
      </trkpt>
      <trkpt lat="42.480221958830953" lon="1.967021031305194">
        <ele>1390.2</ele>
        <time>2025-05-15T07:14:55Z</time>
      </trkpt>
      <trkpt lat="42.480327989906073" lon="1.967237032949925">
        <ele>1391.6500000000001</ele>
        <time>2025-05-15T07:14:56Z</time>
      </trkpt>
      <trkpt lat="42.480441983789206" lon="1.967468038201332">
        <ele>1392.1300000000001</ele>
        <time>2025-05-15T07:14:57Z</time>
      </trkpt>
      <trkpt lat="42.481499025598168" lon="1.969373999163508">
        <ele>1401.26</ele>
        <time>2025-05-15T07:15:05Z</time>
      </trkpt>
      <trkpt lat="42.481662975624204" lon="1.969515988603234">
        <ele>1402.7</ele>
        <time>2025-05-15T07:15:06Z</time>
      </trkpt>
      <trkpt lat="42.482203021645546" lon="1.969873979687691">
        <ele>1405.0999999999999</ele>
        <time>2025-05-15T07:15:09Z</time>
      </trkpt>
      <trkpt lat="42.483358969911933" lon="1.970930015668273">
        <ele>1412.79</ele>
        <time>2025-05-15T07:15:16Z</time>
      </trkpt>
      <trkpt lat="42.483530966565013" lon="1.970982989296317">
        <ele>1414.24</ele>
        <time>2025-05-15T07:15:17Z</time>
      </trkpt>
      <trkpt lat="42.483697012066841" lon="1.971005033701658">
        <ele>1415.2</ele>
        <time>2025-05-15T07:15:18Z</time>
      </trkpt>
      <trkpt lat="42.483869008719921" lon="1.970973014831543">
        <ele>1416.1600000000001</ele>
        <time>2025-05-15T07:15:19Z</time>
      </trkpt>
      <trkpt lat="42.484046034514904" lon="1.970921969041228">
        <ele>1417.1199999999999</ele>
        <time>2025-05-15T07:15:20Z</time>
      </trkpt>
      <trkpt lat="42.484229011461139" lon="1.97083898819983">
        <ele>1418.5599999999999</ele>
        <time>2025-05-15T07:15:21Z</time>
      </trkpt>
      <trkpt lat="42.485945038497448" lon="1.969878003001213">
        <ele>1431.0599999999999</ele>
        <time>2025-05-15T07:15:30Z</time>
      </trkpt>
      <trkpt lat="42.486112006008625" lon="1.969761997461319">
        <ele>1432.5</ele>
        <time>2025-05-15T07:15:31Z</time>
      </trkpt>
      <trkpt lat="42.486300012096763" lon="1.969682034105063">
        <ele>1433.9400000000001</ele>
        <time>2025-05-15T07:15:32Z</time>
      </trkpt>
      <trkpt lat="42.486869981512427" lon="1.969583965837956">
        <ele>1437.79</ele>
        <time>2025-05-15T07:15:35Z</time>
      </trkpt>
      <trkpt lat="42.487042983993888" lon="1.969622019678354">
        <ele>1439.23</ele>
        <time>2025-05-15T07:15:36Z</time>
      </trkpt>
      <trkpt lat="42.487196959555149" lon="1.969689996913075">
        <ele>1440.6700000000001</ele>
        <time>2025-05-15T07:15:37Z</time>
      </trkpt>
      <trkpt lat="42.48732503503561" lon="1.96978596970439">
        <ele>1441.6300000000001</ele>
        <time>2025-05-15T07:15:38Z</time>
      </trkpt>
      <trkpt lat="42.487426958978176" lon="1.969932988286018">
        <ele>1443.0799999999999</ele>
        <time>2025-05-15T07:15:39Z</time>
      </trkpt>
      <trkpt lat="42.487524021416903" lon="1.97008696384728">
        <ele>1444.52</ele>
        <time>2025-05-15T07:15:40Z</time>
      </trkpt>
      <trkpt lat="42.487556962296367" lon="1.9703000318259">
        <ele>1445.96</ele>
        <time>2025-05-15T07:15:41Z</time>
      </trkpt>
      <trkpt lat="42.487591998651624" lon="1.970527013763785">
        <ele>1447.4000000000001</ele>
        <time>2025-05-15T07:15:42Z</time>
      </trkpt>
      <trkpt lat="42.487628040835261" lon="1.970762964338064">
        <ele>1448.8399999999999</ele>
        <time>2025-05-15T07:15:43Z</time>
      </trkpt>
      <trkpt lat="42.488115029409528" lon="1.972574964165688">
        <ele>1458.46</ele>
        <time>2025-05-15T07:15:50Z</time>
      </trkpt>
      <trkpt lat="42.488639988005161" lon="1.973885977640748">
        <ele>1465.6700000000001</ele>
        <time>2025-05-15T07:15:55Z</time>
      </trkpt>
      <trkpt lat="42.488706037402153" lon="1.974171968176961">
        <ele>1467.1099999999999</ele>
        <time>2025-05-15T07:15:56Z</time>
      </trkpt>
      <trkpt lat="42.488739984109998" lon="1.974456030875444">
        <ele>1468.0699999999999</ele>
        <time>2025-05-15T07:15:57Z</time>
      </trkpt>
      <trkpt lat="42.488727997988462" lon="1.974724000319839">
        <ele>1469.51</ele>
        <time>2025-05-15T07:15:58Z</time>
      </trkpt>
      <trkpt lat="42.488696984946728" lon="1.974990963935852">
        <ele>1470.95</ele>
        <time>2025-05-15T07:15:59Z</time>
      </trkpt>
      <trkpt lat="42.4886570032686" lon="1.975255999714136">
        <ele>1472.4000000000001</ele>
        <time>2025-05-15T07:16:00Z</time>
      </trkpt>
      <trkpt lat="42.488556001335382" lon="1.975924037396908">
        <ele>1475.76</ele>
        <time>2025-05-15T07:16:03Z</time>
      </trkpt>
      <trkpt lat="42.488580979406834" lon="1.97608295828104">
        <ele>1476.72</ele>
        <time>2025-05-15T07:16:04Z</time>
      </trkpt>
      <trkpt lat="42.488633031025529" lon="1.976182032376528">
        <ele>1477.6800000000001</ele>
        <time>2025-05-15T07:16:05Z</time>
      </trkpt>
      <trkpt lat="42.488702014088631" lon="1.976226959377527">
        <ele>1478.1600000000001</ele>
        <time>2025-05-15T07:16:06Z</time>
      </trkpt>
      <trkpt lat="42.488776026293635" lon="1.976216984912753">
        <ele>1478.6500000000001</ele>
        <time>2025-05-15T07:16:07Z</time>
      </trkpt>
      <trkpt lat="42.488847021013498" lon="1.976175997406244">
        <ele>1479.1300000000001</ele>
        <time>2025-05-15T07:16:08Z</time>
      </trkpt>
      <trkpt lat="42.488898988813162" lon="1.976072983816266">
        <ele>1479.6099999999999</ele>
        <time>2025-05-15T07:16:09Z</time>
      </trkpt>
      <trkpt lat="42.488939976319671" lon="1.975958989933133">
        <ele>1480.5699999999999</ele>
        <time>2025-05-15T07:16:10Z</time>
      </trkpt>
      <trkpt lat="42.488950034603477" lon="1.975807026028633">
        <ele>1481.53</ele>
        <time>2025-05-15T07:16:11Z</time>
      </trkpt>
      <trkpt lat="42.488961014896631" lon="1.975640980526805">
        <ele>1482.49</ele>
        <time>2025-05-15T07:16:12Z</time>
      </trkpt>
      <trkpt lat="42.488973001018167" lon="1.975464038550854">
        <ele>1483.45</ele>
        <time>2025-05-15T07:16:13Z</time>
      </trkpt>
      <trkpt lat="42.489011976867914" lon="1.975288018584251">
        <ele>1483.9300000000001</ele>
        <time>2025-05-15T07:16:14Z</time>
      </trkpt>
      <trkpt lat="42.489092024043202" lon="1.975127002224326">
        <ele>1484.4100000000001</ele>
        <time>2025-05-15T07:16:15Z</time>
      </trkpt>
      <trkpt lat="42.489201994612813" lon="1.974993981420994">
        <ele>1485.3699999999999</ele>
        <time>2025-05-15T07:16:16Z</time>
      </trkpt>
      <trkpt lat="42.489342978224158" lon="1.974881999194622">
        <ele>1486.3399999999999</ele>
        <time>2025-05-15T07:16:17Z</time>
      </trkpt>
      <trkpt lat="42.489492008462548" lon="1.974762976169586">
        <ele>1486.8199999999999</ele>
        <time>2025-05-15T07:16:18Z</time>
      </trkpt>
      <trkpt lat="42.489644978195429" lon="1.974642025306821">
        <ele>1487.78</ele>
        <time>2025-05-15T07:16:19Z</time>
      </trkpt>
      <trkpt lat="42.489797025918961" lon="1.974520990625024">
        <ele>1489.22</ele>
        <time>2025-05-15T07:16:20Z</time>
      </trkpt>
      <trkpt lat="42.489938009530306" lon="1.974373972043395">
        <ele>1490.1800000000001</ele>
        <time>2025-05-15T07:16:21Z</time>
      </trkpt>
      <trkpt lat="42.490058960393071" lon="1.97419099509716">
        <ele>1491.6199999999999</ele>
        <time>2025-05-15T07:16:22Z</time>
      </trkpt>
      <trkpt lat="42.490144036710262" lon="1.973983040079474">
        <ele>1492.5799999999999</ele>
        <time>2025-05-15T07:16:23Z</time>
      </trkpt>
      <trkpt lat="42.490225005894899" lon="1.97378296405077">
        <ele>1494.03</ele>
        <time>2025-05-15T07:16:24Z</time>
      </trkpt>
      <trkpt lat="42.490325001999736" lon="1.973604010418057">
        <ele>1494.99</ele>
        <time>2025-05-15T07:16:25Z</time>
      </trkpt>
      <trkpt lat="42.490445030853152" lon="1.973451040685177">
        <ele>1495.95</ele>
        <time>2025-05-15T07:16:26Z</time>
      </trkpt>
      <trkpt lat="42.490584002807736" lon="1.973327994346619">
        <ele>1496.9100000000001</ele>
        <time>2025-05-15T07:16:27Z</time>
      </trkpt>
      <trkpt lat="42.490732027217746" lon="1.973236966878176">
        <ele>1497.8699999999999</ele>
        <time>2025-05-15T07:16:28Z</time>
      </trkpt>
      <trkpt lat="42.49089103192091" lon="1.973139988258481">
        <ele>1498.8299999999999</ele>
        <time>2025-05-15T07:16:29Z</time>
      </trkpt>
      <trkpt lat="42.491027992218733" lon="1.973169995471835">
        <ele>1499.79</ele>
        <time>2025-05-15T07:16:30Z</time>
      </trkpt>
      <trkpt lat="42.491191020235419" lon="1.973205031827092">
        <ele>1500.76</ele>
        <time>2025-05-15T07:16:31Z</time>
      </trkpt>
      <trkpt lat="42.491337032988667" lon="1.973289018496871">
        <ele>1502.2</ele>
        <time>2025-05-15T07:16:32Z</time>
      </trkpt>
      <trkpt lat="42.491479022428393" lon="1.973370993509889">
        <ele>1503.1600000000001</ele>
        <time>2025-05-15T07:16:33Z</time>
      </trkpt>
      <trkpt lat="42.491598967462778" lon="1.973440982401371">
        <ele>1504.5999999999999</ele>
        <time>2025-05-15T07:16:34Z</time>
      </trkpt>
      <trkpt lat="42.491749003529549" lon="1.973398989066482">
        <ele>1505.5599999999999</ele>
        <time>2025-05-15T07:16:35Z</time>
      </trkpt>
      <trkpt lat="42.491895016282797" lon="1.973356995731592">
        <ele>1507</ele>
        <time>2025-05-15T07:16:36Z</time>
      </trkpt>
      <trkpt lat="42.492041029036045" lon="1.973316008225083">
        <ele>1507.97</ele>
        <time>2025-05-15T07:16:37Z</time>
      </trkpt>
      <trkpt lat="42.492177989333868" lon="1.973278038203716">
        <ele>1508.9300000000001</ele>
        <time>2025-05-15T07:16:38Z</time>
      </trkpt>
      <trkpt lat="42.492315033450723" lon="1.973255993798375">
        <ele>1509.8900000000001</ele>
        <time>2025-05-15T07:16:39Z</time>
      </trkpt>
      <trkpt lat="42.492457022890449" lon="1.973315002396703">
        <ele>1510.8499999999999</ele>
        <time>2025-05-15T07:16:40Z</time>
      </trkpt>
      <trkpt lat="42.492564981803298" lon="1.973437964916229">
        <ele>1511.3299999999999</ele>
        <time>2025-05-15T07:16:41Z</time>
      </trkpt>
      <trkpt lat="42.492643017321825" lon="1.973606022074819">
        <ele>1512.29</ele>
        <time>2025-05-15T07:16:42Z</time>
      </trkpt>
      <trkpt lat="42.492692973464727" lon="1.973800985142589">
        <ele>1513.25</ele>
        <time>2025-05-15T07:16:43Z</time>
      </trkpt>
      <trkpt lat="42.492731027305126" lon="1.974012963473797">
        <ele>1514.21</ele>
        <time>2025-05-15T07:16:44Z</time>
      </trkpt>
      <trkpt lat="42.492732033133507" lon="1.974248997867107">
        <ele>1515.1800000000001</ele>
        <time>2025-05-15T07:16:45Z</time>
      </trkpt>
      <trkpt lat="42.492728009819984" lon="1.974494000896812">
        <ele>1516.1400000000001</ele>
        <time>2025-05-15T07:16:46Z</time>
      </trkpt>
      <trkpt lat="42.492767991498113" lon="1.975811971351504">
        <ele>1521.4200000000001</ele>
        <time>2025-05-15T07:16:51Z</time>
      </trkpt>
      <trkpt lat="42.492811996489763" lon="1.976070972159505">
        <ele>1522.3900000000001</ele>
        <time>2025-05-15T07:16:52Z</time>
      </trkpt>
      <trkpt lat="42.492872010916471" lon="1.976327039301395">
        <ele>1523.3499999999999</ele>
        <time>2025-05-15T07:16:53Z</time>
      </trkpt>
      <trkpt lat="42.493030009791255" lon="1.976796006783843">
        <ele>1524.79</ele>
        <time>2025-05-15T07:16:55Z</time>
      </trkpt>
      <trkpt lat="42.493120031431317" lon="1.976993987336755">
        <ele>1525.27</ele>
        <time>2025-05-15T07:16:56Z</time>
      </trkpt>
      <trkpt lat="42.493240982294083" lon="1.97713396511972">
        <ele>1525.75</ele>
        <time>2025-05-15T07:16:57Z</time>
      </trkpt>
      <trkpt lat="42.493380038067698" lon="1.97726002894342">
        <ele>1525.75</ele>
        <time>2025-05-15T07:16:58Z</time>
      </trkpt>
      <trkpt lat="42.493530996143818" lon="1.977319959551096">
        <ele>1526.23</ele>
        <time>2025-05-15T07:16:59Z</time>
      </trkpt>
      <trkpt lat="42.493687989190221" lon="1.977362958714366">
        <ele>1526.71</ele>
        <time>2025-05-15T07:17:00Z</time>
      </trkpt>
      <trkpt lat="42.493829978629947" lon="1.977389026433229">
        <ele>1526.71</ele>
        <time>2025-05-15T07:17:01Z</time>
      </trkpt>
      <trkpt lat="42.493980014696717" lon="1.977319959551096">
        <ele>1527.1900000000001</ele>
        <time>2025-05-15T07:17:02Z</time>
      </trkpt>
      <trkpt lat="42.494119992479682" lon="1.977247036993504">
        <ele>1527.6700000000001</ele>
        <time>2025-05-15T07:17:03Z</time>
      </trkpt>
      <trkpt lat="42.494239015504718" lon="1.977104963734746">
        <ele>1528.1500000000001</ele>
        <time>2025-05-15T07:17:04Z</time>
      </trkpt>
      <trkpt lat="42.494362983852625" lon="1.976956017315388">
        <ele>1528.6300000000001</ele>
        <time>2025-05-15T07:17:05Z</time>
      </trkpt>
      <trkpt lat="42.49450396746397" lon="1.976821990683675">
        <ele>1529.5899999999999</ele>
        <time>2025-05-15T07:17:06Z</time>
      </trkpt>
      <trkpt lat="42.494660038501024" lon="1.976710008457303">
        <ele>1530.5599999999999</ele>
        <time>2025-05-15T07:17:07Z</time>
      </trkpt>
      <trkpt lat="42.494799010455608" lon="1.976557038724423">
        <ele>1531.52</ele>
        <time>2025-05-15T07:17:08Z</time>
      </trkpt>
      <trkpt lat="42.494922978803515" lon="1.976370960474014">
        <ele>1532.96</ele>
        <time>2025-05-15T07:17:09Z</time>
      </trkpt>
      <trkpt lat="42.495049964636564" lon="1.976182032376528">
        <ele>1534.4000000000001</ele>
        <time>2025-05-15T07:17:10Z</time>
      </trkpt>
      <trkpt lat="42.495500994846225" lon="1.975665958598256">
        <ele>1538.73</ele>
        <time>2025-05-15T07:17:14Z</time>
      </trkpt>
      <trkpt lat="42.495595039799809" lon="1.975624971091747">
        <ele>1539.21</ele>
        <time>2025-05-15T07:17:15Z</time>
      </trkpt>
      <trkpt lat="42.495670979842544" lon="1.975639974698424">
        <ele>1539.6900000000001</ele>
        <time>2025-05-15T07:17:16Z</time>
      </trkpt>
      <trkpt lat="42.495739962905645" lon="1.975697977468371">
        <ele>1540.6500000000001</ele>
        <time>2025-05-15T07:17:17Z</time>
      </trkpt>
      <trkpt lat="42.495769970118999" lon="1.975814988836646">
        <ele>1541.1300000000001</ele>
        <time>2025-05-15T07:17:18Z</time>
      </trkpt>
      <trkpt lat="42.495778016746044" lon="1.975979022681713">
        <ele>1541.6099999999999</ele>
        <time>2025-05-15T07:17:19Z</time>
      </trkpt>
      <trkpt lat="42.49570501036942" lon="1.976069966331124">
        <ele>1542.0899999999999</ele>
        <time>2025-05-15T07:17:20Z</time>
      </trkpt>
      <trkpt lat="42.495615994557738" lon="1.976181026548147">
        <ele>1542.5699999999999</ele>
        <time>2025-05-15T07:17:21Z</time>
      </trkpt>
      <trkpt lat="42.495513986796141" lon="1.976308012381196">
        <ele>1543.05</ele>
        <time>2025-05-15T07:17:22Z</time>
      </trkpt>
      <trkpt lat="42.495406027883291" lon="1.976442961022258">
        <ele>1543.05</ele>
        <time>2025-05-15T07:17:23Z</time>
      </trkpt>
      <trkpt lat="42.495331009849906" lon="1.976603977382183">
        <ele>1543.53</ele>
        <time>2025-05-15T07:17:24Z</time>
      </trkpt>
      <trkpt lat="42.495282981544733" lon="1.976801035925746">
        <ele>1543.53</ele>
        <time>2025-05-15T07:17:25Z</time>
      </trkpt>
      <trkpt lat="42.49523201957345" lon="1.977012008428574">
        <ele>1543.53</ele>
        <time>2025-05-15T07:17:26Z</time>
      </trkpt>
      <trkpt lat="42.495204024016857" lon="1.97724100202322">
        <ele>1544.01</ele>
        <time>2025-05-15T07:17:27Z</time>
      </trkpt>
      <trkpt lat="42.495204024016857" lon="1.977492040023208">
        <ele>1544.01</ele>
        <time>2025-05-15T07:17:28Z</time>
      </trkpt>
      <trkpt lat="42.495204024016857" lon="1.978823002427816">
        <ele>1544.98</ele>
        <time>2025-05-15T07:17:33Z</time>
      </trkpt>
      <trkpt lat="42.495251968502998" lon="1.979041015729308">
        <ele>1545.46</ele>
        <time>2025-05-15T07:17:34Z</time>
      </trkpt>
      <trkpt lat="42.495328998193145" lon="1.979213012382388">
        <ele>1545.9400000000001</ele>
        <time>2025-05-15T07:17:35Z</time>
      </trkpt>
      <trkpt lat="42.495411979034543" lon="1.979387020692229">
        <ele>1546.4200000000001</ele>
        <time>2025-05-15T07:17:36Z</time>
      </trkpt>
      <trkpt lat="42.495508035644889" lon="1.979537978768349">
        <ele>1546.4200000000001</ele>
        <time>2025-05-15T07:17:37Z</time>
      </trkpt>
      <trkpt lat="42.495566038414836" lon="1.979707041755319">
        <ele>1546.9000000000001</ele>
        <time>2025-05-15T07:17:38Z</time>
      </trkpt>
      <trkpt lat="42.495600990951061" lon="1.97990502230823">
        <ele>1546.9000000000001</ele>
        <time>2025-05-15T07:17:39Z</time>
      </trkpt>
      <trkpt lat="42.495575007051229" lon="1.980109959840775">
        <ele>1547.3800000000001</ele>
        <time>2025-05-15T07:17:40Z</time>
      </trkpt>
      <trkpt lat="42.495520021766424" lon="1.980319004505873">
        <ele>1547.8599999999999</ele>
        <time>2025-05-15T07:17:41Z</time>
      </trkpt>
      <trkpt lat="42.49542698264122" lon="1.980503993108869">
        <ele>1548.3399999999999</ele>
        <time>2025-05-15T07:17:42Z</time>
      </trkpt>
      <trkpt lat="42.495332015678287" lon="1.980694010853767">
        <ele>1548.8199999999999</ele>
        <time>2025-05-15T07:17:43Z</time>
      </trkpt>
      <trkpt lat="42.495242999866605" lon="1.980882016941905">
        <ele>1549.3</ele>
        <time>2025-05-15T07:17:44Z</time>
      </trkpt>
      <trkpt lat="42.495197989046574" lon="1.981076980009675">
        <ele>1549.78</ele>
        <time>2025-05-15T07:17:45Z</time>
      </trkpt>
      <trkpt lat="42.495205029845238" lon="1.981277978047729">
        <ele>1550.74</ele>
        <time>2025-05-15T07:17:46Z</time>
      </trkpt>
      <trkpt lat="42.495240988209844" lon="1.981486016884446">
        <ele>1551.71</ele>
        <time>2025-05-15T07:17:47Z</time>
      </trkpt>
      <trkpt lat="42.495279964059591" lon="1.981707969680429">
        <ele>1552.6700000000001</ele>
        <time>2025-05-15T07:17:48Z</time>
      </trkpt>
      <trkpt lat="42.495321035385132" lon="1.981941992416978">
        <ele>1553.1500000000001</ele>
        <time>2025-05-15T07:17:49Z</time>
      </trkpt>
      <trkpt lat="42.495351964607835" lon="1.98218003846705">
        <ele>1554.1099999999999</ele>
        <time>2025-05-15T07:17:50Z</time>
      </trkpt>
      <trkpt lat="42.49534098431468" lon="1.982430992648006">
        <ele>1555.0699999999999</ele>
        <time>2025-05-15T07:17:51Z</time>
      </trkpt>
      <trkpt lat="42.495325980708003" lon="1.982687981799245">
        <ele>1555.55</ele>
        <time>2025-05-15T07:17:52Z</time>
      </trkpt>
      <trkpt lat="42.495283987373114" lon="1.982946982607245">
        <ele>1556.51</ele>
        <time>2025-05-15T07:17:53Z</time>
      </trkpt>
      <trkpt lat="42.495195977389812" lon="1.983881983906031">
        <ele>1558.9200000000001</ele>
        <time>2025-05-15T07:17:57Z</time>
      </trkpt>
      <trkpt lat="42.495213998481631" lon="1.984089016914368">
        <ele>1559.8800000000001</ele>
        <time>2025-05-15T07:17:58Z</time>
      </trkpt>
      <trkpt lat="42.495252974331379" lon="1.984274005517364">
        <ele>1559.8800000000001</ele>
        <time>2025-05-15T07:17:59Z</time>
      </trkpt>
      <trkpt lat="42.495289016515017" lon="1.984448013827205">
        <ele>1560.3599999999999</ele>
        <time>2025-05-15T07:18:00Z</time>
      </trkpt>
      <trkpt lat="42.495350036770105" lon="1.984614981338382">
        <ele>1560.8399999999999</ele>
        <time>2025-05-15T07:18:01Z</time>
      </trkpt>
      <trkpt lat="42.495408039540052" lon="1.984775997698307">
        <ele>1561.3199999999999</ele>
        <time>2025-05-15T07:18:02Z</time>
      </trkpt>
      <trkpt lat="42.49546998180449" lon="1.984937014058232">
        <ele>1561.3199999999999</ele>
        <time>2025-05-15T07:18:03Z</time>
      </trkpt>
      <trkpt lat="42.495546005666256" lon="1.985079003497958">
        <ele>1561.8</ele>
        <time>2025-05-15T07:18:04Z</time>
      </trkpt>
      <trkpt lat="42.496313033625484" lon="1.986175021156669">
        <ele>1565.6400000000001</ele>
        <time>2025-05-15T07:18:13Z</time>
      </trkpt>
      <trkpt lat="42.496526017785072" lon="1.986558996140957">
        <ele>1567.5699999999999</ele>
        <time>2025-05-15T07:18:16Z</time>
      </trkpt>
      <trkpt lat="42.496558036655188" lon="1.986730992794037">
        <ele>1568.05</ele>
        <time>2025-05-15T07:18:17Z</time>
      </trkpt>
      <trkpt lat="42.496582008898258" lon="1.986895026639104">
        <ele>1568.53</ele>
        <time>2025-05-15T07:18:18Z</time>
      </trkpt>
      <trkpt lat="42.496601035818458" lon="1.987062999978662">
        <ele>1569.01</ele>
        <time>2025-05-15T07:18:19Z</time>
      </trkpt>
      <trkpt lat="42.496606986969709" lon="1.987222004681826">
        <ele>1569.97</ele>
        <time>2025-05-15T07:18:20Z</time>
      </trkpt>
      <trkpt lat="42.496613021939993" lon="1.98738201521337">
        <ele>1570.45</ele>
        <time>2025-05-15T07:18:21Z</time>
      </trkpt>
      <trkpt lat="42.496619978919625" lon="1.987559963017702">
        <ele>1571.4100000000001</ele>
        <time>2025-05-15T07:18:22Z</time>
      </trkpt>
      <trkpt lat="42.496654009446502" lon="1.98770203627646">
        <ele>1571.8900000000001</ele>
        <time>2025-05-15T07:18:23Z</time>
      </trkpt>
      <trkpt lat="42.496860036626458" lon="1.988808028399944">
        <ele>1574.78</ele>
        <time>2025-05-15T07:18:30Z</time>
      </trkpt>
      <trkpt lat="42.496879985556006" lon="1.988962003961206">
        <ele>1575.26</ele>
        <time>2025-05-15T07:18:31Z</time>
      </trkpt>
      <trkpt lat="42.496987022459507" lon="1.989569021388888">
        <ele>1577.6600000000001</ele>
        <time>2025-05-15T07:18:35Z</time>
      </trkpt>
      <trkpt lat="42.497041001915932" lon="1.989715034142137">
        <ele>1579.0999999999999</ele>
        <time>2025-05-15T07:18:36Z</time>
      </trkpt>
      <trkpt lat="42.49759403988719" lon="1.990985982120037">
        <ele>1586.79</ele>
        <time>2025-05-15T07:18:45Z</time>
      </trkpt>
      <trkpt lat="42.497607031837106" lon="1.99118597432971">
        <ele>1587.27</ele>
        <time>2025-05-15T07:18:46Z</time>
      </trkpt>
      <trkpt lat="42.497627986595035" lon="1.99127197265625">
        <ele>1587.75</ele>
        <time>2025-05-15T07:18:47Z</time>
      </trkpt>
      <trkpt lat="42.497786991298199" lon="1.991414967924357">
        <ele>1588.24</ele>
        <time>2025-05-15T07:18:48Z</time>
      </trkpt>
      <trkpt lat="42.49783300794661" lon="1.991566009819508">
        <ele>1588.72</ele>
        <time>2025-05-15T07:18:49Z</time>
      </trkpt>
      <trkpt lat="42.498211031779647" lon="1.992823965847492">
        <ele>1590.1600000000001</ele>
        <time>2025-05-15T07:18:57Z</time>
      </trkpt>
      <trkpt lat="42.498512025922537" lon="1.993823004886508">
        <ele>1594</ele>
        <time>2025-05-15T07:19:05Z</time>
      </trkpt>
      <trkpt lat="42.498630965128541" lon="1.994216032326222">
        <ele>1595.45</ele>
        <time>2025-05-15T07:19:09Z</time>
      </trkpt>
      <trkpt lat="42.498659966513515" lon="1.994312005117536">
        <ele>1595.45</ele>
        <time>2025-05-15T07:19:10Z</time>
      </trkpt>
      <trkpt lat="42.498878985643387" lon="1.995090013369918">
        <ele>1594.48</ele>
        <time>2025-05-15T07:19:18Z</time>
      </trkpt>
      <trkpt lat="42.498918967321515" lon="1.995286988094449">
        <ele>1594.48</ele>
        <time>2025-05-15T07:19:20Z</time>
      </trkpt>
      <trkpt lat="42.498941011726856" lon="1.995391007512808">
        <ele>1594</ele>
        <time>2025-05-15T07:19:21Z</time>
      </trkpt>
      <trkpt lat="42.499132035300136" lon="1.996619962155819">
        <ele>1595.45</ele>
        <time>2025-05-15T07:19:33Z</time>
      </trkpt>
      <trkpt lat="42.499173022806644" lon="1.997373998165131">
        <ele>1597.8499999999999</ele>
        <time>2025-05-15T07:19:41Z</time>
      </trkpt>
      <trkpt lat="42.499173022806644" lon="1.997464019805193">
        <ele>1597.8499999999999</ele>
        <time>2025-05-15T07:19:42Z</time>
      </trkpt>
      <trkpt lat="42.499170005321503" lon="1.997962994500995">
        <ele>1597.8499999999999</ele>
        <time>2025-05-15T07:19:47Z</time>
      </trkpt>
      <trkpt lat="42.499149972572923" lon="1.998074976727366">
        <ele>1597.8499999999999</ele>
        <time>2025-05-15T07:19:48Z</time>
      </trkpt>
      <trkpt lat="42.499128011986613" lon="1.998199028894305">
        <ele>1597.8499999999999</ele>
        <time>2025-05-15T07:19:49Z</time>
      </trkpt>
      <trkpt lat="42.499096998944879" lon="1.998336995020509">
        <ele>1597.8499999999999</ele>
        <time>2025-05-15T07:19:50Z</time>
      </trkpt>
      <trkpt lat="42.499038996174932" lon="1.998463980853558">
        <ele>1597.8499999999999</ele>
        <time>2025-05-15T07:19:51Z</time>
      </trkpt>
      <trkpt lat="42.498981999233365" lon="1.998589038848877">
        <ele>1597.8499999999999</ele>
        <time>2025-05-15T07:19:52Z</time>
      </trkpt>
      <trkpt lat="42.498629037290812" lon="1.999297980219126">
        <ele>1598.8099999999999</ele>
        <time>2025-05-15T07:19:59Z</time>
      </trkpt>
      <trkpt lat="42.498273979872465" lon="1.999846994876862">
        <ele>1598.8099999999999</ele>
        <time>2025-05-15T07:20:05Z</time>
      </trkpt>
      <trkpt lat="42.498217988759279" lon="1.999949002638459">
        <ele>1598.8099999999999</ele>
        <time>2025-05-15T07:20:06Z</time>
      </trkpt>
      <trkpt lat="42.498170966282487" lon="2.000050004571676">
        <ele>1599.29</ele>
        <time>2025-05-15T07:20:07Z</time>
      </trkpt>
      <trkpt lat="42.49813299626112" lon="2.00016500428319">
        <ele>1599.29</ele>
        <time>2025-05-15T07:20:08Z</time>
      </trkpt>
      <trkpt lat="42.498096032068133" lon="2.000283021479845">
        <ele>1599.77</ele>
        <time>2025-05-15T07:20:09Z</time>
      </trkpt>
      <trkpt lat="42.497982960194349" lon="2.00081099756062">
        <ele>1600.73</ele>
        <time>2025-05-15T07:20:13Z</time>
      </trkpt>
      <trkpt lat="42.497993018478155" lon="2.000954998657107">
        <ele>1601.21</ele>
        <time>2025-05-15T07:20:14Z</time>
      </trkpt>
      <trkpt lat="42.498026965186" lon="2.001097993925214">
        <ele>1601.6900000000001</ele>
        <time>2025-05-15T07:20:15Z</time>
      </trkpt>
      <trkpt lat="42.498117992654443" lon="2.001421032473445">
        <ele>1603.1400000000001</ele>
        <time>2025-05-15T07:20:17Z</time>
      </trkpt>
      <trkpt lat="42.498172977939248" lon="2.001595962792635">
        <ele>1603.6199999999999</ele>
        <time>2025-05-15T07:20:18Z</time>
      </trkpt>
      <trkpt lat="42.498413035646081" lon="2.003229008987546">
        <ele>1608.4200000000001</ele>
        <time>2025-05-15T07:20:25Z</time>
      </trkpt>
      <trkpt lat="42.498616967350245" lon="2.003949014469981">
        <ele>1611.3099999999999</ele>
        <time>2025-05-15T07:20:28Z</time>
      </trkpt>
      <trkpt lat="42.498701037839055" lon="2.004103995859623">
        <ele>1612.75</ele>
        <time>2025-05-15T07:20:29Z</time>
      </trkpt>
      <trkpt lat="42.498846966773272" lon="2.004264006391168">
        <ele>1613.23</ele>
        <time>2025-05-15T07:20:30Z</time>
      </trkpt>
      <trkpt lat="42.498986022546887" lon="2.004416976124048">
        <ele>1613.71</ele>
        <time>2025-05-15T07:20:31Z</time>
      </trkpt>
      <trkpt lat="42.499137986451387" lon="2.004584027454257">
        <ele>1613.71</ele>
        <time>2025-05-15T07:20:32Z</time>
      </trkpt>
      <trkpt lat="42.499301014468074" lon="2.004762981086969">
        <ele>1613.71</ele>
        <time>2025-05-15T07:20:33Z</time>
      </trkpt>
      <trkpt lat="42.499441998079419" lon="2.004989041015506">
        <ele>1613.23</ele>
        <time>2025-05-15T07:20:34Z</time>
      </trkpt>
      <trkpt lat="42.499578036367893" lon="2.005235971882939">
        <ele>1612.75</ele>
        <time>2025-05-15T07:20:35Z</time>
      </trkpt>
      <trkpt lat="42.499714996665716" lon="2.005495978519321">
        <ele>1612.27</ele>
        <time>2025-05-15T07:20:36Z</time>
      </trkpt>
      <trkpt lat="42.499806024134159" lon="2.005796972662211">
        <ele>1611.3099999999999</ele>
        <time>2025-05-15T07:20:37Z</time>
      </trkpt>
      <trkpt lat="42.499875007197261" lon="2.006107019260526">
        <ele>1610.8299999999999</ele>
        <time>2025-05-15T07:20:38Z</time>
      </trkpt>
      <trkpt lat="42.499930998310447" lon="2.006416982039809">
        <ele>1609.8599999999999</ele>
        <time>2025-05-15T07:20:39Z</time>
      </trkpt>
      <trkpt lat="42.500310027971864" lon="2.008611029013991">
        <ele>1606.02</ele>
        <time>2025-05-15T07:20:47Z</time>
      </trkpt>
      <trkpt lat="42.500306004658341" lon="2.008869023993611">
        <ele>1606.02</ele>
        <time>2025-05-15T07:20:48Z</time>
      </trkpt>
      <trkpt lat="42.500300975516438" lon="2.009130036458373">
        <ele>1606.02</ele>
        <time>2025-05-15T07:20:49Z</time>
      </trkpt>
      <trkpt lat="42.500308016315103" lon="2.010080041363835">
        <ele>1607.9400000000001</ele>
        <time>2025-05-15T07:20:53Z</time>
      </trkpt>
      <trkpt lat="42.500363001599908" lon="2.010268969461322">
        <ele>1608.4200000000001</ele>
        <time>2025-05-15T07:20:54Z</time>
      </trkpt>
      <trkpt lat="42.500440031290054" lon="2.010452030226588">
        <ele>1608.9000000000001</ele>
        <time>2025-05-15T07:20:55Z</time>
      </trkpt>
      <trkpt lat="42.500532986596227" lon="2.010626960545778">
        <ele>1609.3800000000001</ele>
        <time>2025-05-15T07:20:56Z</time>
      </trkpt>
      <trkpt lat="42.500623008236289" lon="2.010797029361129">
        <ele>1610.3499999999999</ele>
        <time>2025-05-15T07:20:57Z</time>
      </trkpt>
      <trkpt lat="42.500706994906068" lon="2.010954022407532">
        <ele>1610.8299999999999</ele>
        <time>2025-05-15T07:20:58Z</time>
      </trkpt>
      <trkpt lat="42.50077698379755" lon="2.011104980483651">
        <ele>1611.3099999999999</ele>
        <time>2025-05-15T07:20:59Z</time>
      </trkpt>
      <trkpt lat="42.500825012102723" lon="2.011248981580138">
        <ele>1611.3099999999999</ele>
        <time>2025-05-15T07:21:00Z</time>
      </trkpt>
      <trkpt lat="42.500825012102723" lon="2.011416032910347">
        <ele>1611.79</ele>
        <time>2025-05-15T07:21:01Z</time>
      </trkpt>
      <trkpt lat="42.500788969919086" lon="2.011555004864931">
        <ele>1612.27</ele>
        <time>2025-05-15T07:21:02Z</time>
      </trkpt>
      <trkpt lat="42.500723004341125" lon="2.011684002354741">
        <ele>1612.75</ele>
        <time>2025-05-15T07:21:03Z</time>
      </trkpt>
      <trkpt lat="42.50062501989305" lon="2.011720966547728">
        <ele>1613.71</ele>
        <time>2025-05-15T07:21:04Z</time>
      </trkpt>
      <trkpt lat="42.500513037666678" lon="2.011733958497644">
        <ele>1614.1900000000001</ele>
        <time>2025-05-15T07:21:05Z</time>
      </trkpt>
      <trkpt lat="42.500384040176868" lon="2.011713003739715">
        <ele>1614.6700000000001</ele>
        <time>2025-05-15T07:21:06Z</time>
      </trkpt>
      <trkpt lat="42.500245990231633" lon="2.011690959334374">
        <ele>1615.6300000000001</ele>
        <time>2025-05-15T07:21:07Z</time>
      </trkpt>
      <trkpt lat="42.500100983306766" lon="2.011667992919684">
        <ele>1616.5899999999999</ele>
        <time>2025-05-15T07:21:08Z</time>
      </trkpt>
      <trkpt lat="42.499952958896756" lon="2.011690959334374">
        <ele>1617.5599999999999</ele>
        <time>2025-05-15T07:21:09Z</time>
      </trkpt>
      <trkpt lat="42.499803006649017" lon="2.011757008731365">
        <ele>1618.52</ele>
        <time>2025-05-15T07:21:10Z</time>
      </trkpt>
      <trkpt lat="42.499656993895769" lon="2.011837977916002">
        <ele>1619.48</ele>
        <time>2025-05-15T07:21:11Z</time>
      </trkpt>
      <trkpt lat="42.499521961435676" lon="2.011973010376096">
        <ele>1620.4400000000001</ele>
        <time>2025-05-15T07:21:12Z</time>
      </trkpt>
      <trkpt lat="42.499389024451375" lon="2.012106031179428">
        <ele>1621.4000000000001</ele>
        <time>2025-05-15T07:21:13Z</time>
      </trkpt>
      <trkpt lat="42.499265978112817" lon="2.012229999527335">
        <ele>1621.8800000000001</ele>
        <time>2025-05-15T07:21:14Z</time>
      </trkpt>
      <trkpt lat="42.498930031433702" lon="2.012536022812128">
        <ele>1624.28</ele>
        <time>2025-05-15T07:21:17Z</time>
      </trkpt>
      <trkpt lat="42.498808996751904" lon="2.012616991996765">
        <ele>1624.77</ele>
        <time>2025-05-15T07:21:18Z</time>
      </trkpt>
      <trkpt lat="42.498693997040391" lon="2.012696033343673">
        <ele>1625.73</ele>
        <time>2025-05-15T07:21:19Z</time>
      </trkpt>
      <trkpt lat="42.498587965965271" lon="2.012768033891916">
        <ele>1626.6900000000001</ele>
        <time>2025-05-15T07:21:20Z</time>
      </trkpt>
      <trkpt lat="42.498494004830718" lon="2.012831987813115">
        <ele>1627.6500000000001</ele>
        <time>2025-05-15T07:21:21Z</time>
      </trkpt>
      <trkpt lat="42.498425021767616" lon="2.012922009453178">
        <ele>1628.6099999999999</ele>
        <time>2025-05-15T07:21:22Z</time>
      </trkpt>
      <trkpt lat="42.498355032876134" lon="2.013018988072872">
        <ele>1629.0899999999999</ele>
        <time>2025-05-15T07:21:23Z</time>
      </trkpt>
      <trkpt lat="42.498285965994" lon="2.013114960864186">
        <ele>1629.5699999999999</ele>
        <time>2025-05-15T07:21:24Z</time>
      </trkpt>
      <trkpt lat="42.497864020988345" lon="2.013588035479188">
        <ele>1632.46</ele>
        <time>2025-05-15T07:21:30Z</time>
      </trkpt>
      <trkpt lat="42.497752038761973" lon="2.013667998835445">
        <ele>1632.9400000000001</ele>
        <time>2025-05-15T07:21:32Z</time>
      </trkpt>
      <trkpt lat="42.497699987143278" lon="2.013741005212069">
        <ele>1632.9400000000001</ele>
        <time>2025-05-15T07:21:33Z</time>
      </trkpt>
      <trkpt lat="42.497677020728588" lon="2.013844018802047">
        <ele>1632.9400000000001</ele>
        <time>2025-05-15T07:21:34Z</time>
      </trkpt>
      <trkpt lat="42.497686995193362" lon="2.013940997421742">
        <ele>1632.9400000000001</ele>
        <time>2025-05-15T07:21:35Z</time>
      </trkpt>
      <trkpt lat="42.497734017670155" lon="2.014030013233423">
        <ele>1632.9400000000001</ele>
        <time>2025-05-15T07:21:36Z</time>
      </trkpt>
      <trkpt lat="42.497801994904876" lon="2.01408701017499">
        <ele>1632.9400000000001</ele>
        <time>2025-05-15T07:21:37Z</time>
      </trkpt>
      <trkpt lat="42.497821021825075" lon="2.014103019610047">
        <ele>1632.46</ele>
        <time>2025-05-15T07:21:38Z</time>
      </trkpt>
      <trkpt lat="42.497937027364969" lon="2.014074018225074">
        <ele>1632.46</ele>
        <time>2025-05-15T07:21:39Z</time>
      </trkpt>
      <trkpt lat="42.498051021248102" lon="2.014244003221393">
        <ele>1632.46</ele>
        <time>2025-05-15T07:21:40Z</time>
      </trkpt>
      <trkpt lat="42.49808999709785" lon="2.014366965740919">
        <ele>1632.46</ele>
        <time>2025-05-15T07:21:41Z</time>
      </trkpt>
      <trkpt lat="42.498124027624726" lon="2.01451800763607">
        <ele>1632.46</ele>
        <time>2025-05-15T07:21:42Z</time>
      </trkpt>
      <trkpt lat="42.498130984604359" lon="2.014692015945911">
        <ele>1632.46</ele>
        <time>2025-05-15T07:21:43Z</time>
      </trkpt>
      <trkpt lat="42.498138025403023" lon="2.014870969578624">
        <ele>1632.9400000000001</ele>
        <time>2025-05-15T07:21:44Z</time>
      </trkpt>
      <trkpt lat="42.498144982382655" lon="2.015040032565594">
        <ele>1632.9400000000001</ele>
        <time>2025-05-15T07:21:45Z</time>
      </trkpt>
      <trkpt lat="42.498180018737912" lon="2.015659036114812">
        <ele>1635.8199999999999</ele>
        <time>2025-05-15T07:21:51Z</time>
      </trkpt>
      <trkpt lat="42.498208014294505" lon="2.015872020274401">
        <ele>1638.22</ele>
        <time>2025-05-15T07:21:59Z</time>
      </trkpt>
      <trkpt lat="42.498212037608027" lon="2.015901021659374">
        <ele>1638.22</ele>
        <time>2025-05-15T07:22:08Z</time>
      </trkpt>
      <trkpt lat="42.498208014294505" lon="2.015873026102781">
        <ele>1639.1900000000001</ele>
        <time>2025-05-15T07:22:10Z</time>
      </trkpt>
      <trkpt lat="42.498203990980983" lon="2.015842013061047">
        <ele>1639.6700000000001</ele>
        <time>2025-05-15T07:22:11Z</time>
      </trkpt>
      <trkpt lat="42.49819703400135" lon="2.015789961442351">
        <ele>1639.6700000000001</ele>
        <time>2025-05-15T07:22:12Z</time>
      </trkpt>
      <trkpt lat="42.498185969889164" lon="2.015705974772573">
        <ele>1639.6700000000001</ele>
        <time>2025-05-15T07:22:13Z</time>
      </trkpt>
      <trkpt lat="42.498170966282487" lon="2.01559198088944">
        <ele>1639.6700000000001</ele>
        <time>2025-05-15T07:22:14Z</time>
      </trkpt>
      <trkpt lat="42.498160991817713" lon="2.015458038076758">
        <ele>1639.1900000000001</ele>
        <time>2025-05-15T07:22:15Z</time>
      </trkpt>
      <trkpt lat="42.498155040666461" lon="2.015299033373594">
        <ele>1639.1900000000001</ele>
        <time>2025-05-15T07:22:16Z</time>
      </trkpt>
      <trkpt lat="42.498097037896514" lon="2.01438901014626">
        <ele>1636.78</ele>
        <time>2025-05-15T07:22:21Z</time>
      </trkpt>
      <trkpt lat="42.498002992942929" lon="2.014092961326242">
        <ele>1635.8199999999999</ele>
        <time>2025-05-15T07:22:23Z</time>
      </trkpt>
      <trkpt lat="42.498031994327903" lon="2.013781992718577">
        <ele>1635.3399999999999</ele>
        <time>2025-05-15T07:22:25Z</time>
      </trkpt>
      <trkpt lat="42.497996035963297" lon="2.013692976906896">
        <ele>1635.3399999999999</ele>
        <time>2025-05-15T07:22:26Z</time>
      </trkpt>
      <trkpt lat="42.497925963252783" lon="2.013613013550639">
        <ele>1634.8599999999999</ele>
        <time>2025-05-15T07:22:27Z</time>
      </trkpt>
      <trkpt lat="42.497837031260133" lon="2.013601027429104">
        <ele>1634.3800000000001</ele>
        <time>2025-05-15T07:22:28Z</time>
      </trkpt>
      <trkpt lat="42.497781040146947" lon="2.013629022985697">
        <ele>1633.9000000000001</ele>
        <time>2025-05-15T07:22:29Z</time>
      </trkpt>
      <trkpt lat="42.497739968821406" lon="2.013684008270502">
        <ele>1633.4200000000001</ele>
        <time>2025-05-15T07:22:30Z</time>
      </trkpt>
      <trkpt lat="42.497700992971659" lon="2.013738993555307">
        <ele>1632.9400000000001</ele>
        <time>2025-05-15T07:22:31Z</time>
      </trkpt>
      <trkpt lat="42.497675009071827" lon="2.013816023245454">
        <ele>1632.46</ele>
        <time>2025-05-15T07:22:32Z</time>
      </trkpt>
      <trkpt lat="42.49768397770822" lon="2.013908978551626">
        <ele>1631.98</ele>
        <time>2025-05-15T07:22:33Z</time>
      </trkpt>
      <trkpt lat="42.497678026556969" lon="2.014043005183339">
        <ele>1631.49</ele>
        <time>2025-05-15T07:22:34Z</time>
      </trkpt>
      <trkpt lat="42.497642990201712" lon="2.014162028208375">
        <ele>1631.01</ele>
        <time>2025-05-15T07:22:35Z</time>
      </trkpt>
      <trkpt lat="42.497602002695203" lon="2.014297982677817">
        <ele>1630.53</ele>
        <time>2025-05-15T07:22:36Z</time>
      </trkpt>
      <trkpt lat="42.497560009360313" lon="2.014450030401349">
        <ele>1629.5699999999999</ele>
        <time>2025-05-15T07:22:37Z</time>
      </trkpt>
      <trkpt lat="42.497533019632101" lon="2.014629989862442">
        <ele>1629.0899999999999</ele>
        <time>2025-05-15T07:22:38Z</time>
      </trkpt>
      <trkpt lat="42.497504018247128" lon="2.014825958758593">
        <ele>1628.1300000000001</ele>
        <time>2025-05-15T07:22:39Z</time>
      </trkpt>
      <trkpt lat="42.497522961348295" lon="2.015035003423691">
        <ele>1627.1700000000001</ele>
        <time>2025-05-15T07:22:40Z</time>
      </trkpt>
      <trkpt lat="42.497551962733269" lon="2.015261985361576">
        <ele>1625.73</ele>
        <time>2025-05-15T07:22:41Z</time>
      </trkpt>
      <trkpt lat="42.497584987431765" lon="2.015749979764223">
        <ele>1623.3199999999999</ele>
        <time>2025-05-15T07:22:43Z</time>
      </trkpt>
      <trkpt lat="42.497584987431765" lon="2.016007974743843">
        <ele>1621.8800000000001</ele>
        <time>2025-05-15T07:22:44Z</time>
      </trkpt>
      <trkpt lat="42.497579036280513" lon="2.016273010522127">
        <ele>1620.4400000000001</ele>
        <time>2025-05-15T07:22:45Z</time>
      </trkpt>
      <trkpt lat="42.497519021853805" lon="2.016522036865354">
        <ele>1619</ele>
        <time>2025-05-15T07:22:46Z</time>
      </trkpt>
      <trkpt lat="42.497458001598716" lon="2.016770979389548">
        <ele>1617.5599999999999</ele>
        <time>2025-05-15T07:22:47Z</time>
      </trkpt>
      <trkpt lat="42.497398993000388" lon="2.017014976590872">
        <ele>1616.5899999999999</ele>
        <time>2025-05-15T07:22:48Z</time>
      </trkpt>
      <trkpt lat="42.497325986623764" lon="2.017489979043603">
        <ele>1614.6700000000001</ele>
        <time>2025-05-15T07:22:50Z</time>
      </trkpt>
      <trkpt lat="42.497292039915919" lon="2.017721990123391">
        <ele>1613.71</ele>
        <time>2025-05-15T07:22:51Z</time>
      </trkpt>
      <trkpt lat="42.497302014380693" lon="2.017950983718038">
        <ele>1612.75</ele>
        <time>2025-05-15T07:22:52Z</time>
      </trkpt>
      <trkpt lat="42.497323974967003" lon="2.018177965655923">
        <ele>1611.79</ele>
        <time>2025-05-15T07:22:53Z</time>
      </trkpt>
      <trkpt lat="42.497346019372344" lon="2.018406037241221">
        <ele>1610.8299999999999</ele>
        <time>2025-05-15T07:22:54Z</time>
      </trkpt>
      <trkpt lat="42.497368985787034" lon="2.018638970330358">
        <ele>1609.8599999999999</ele>
        <time>2025-05-15T07:22:55Z</time>
      </trkpt>
      <trkpt lat="42.497377032414079" lon="2.019923999905586">
        <ele>1604.0999999999999</ele>
        <time>2025-05-15T07:23:01Z</time>
      </trkpt>
      <trkpt lat="42.497377032414079" lon="2.020114017650485">
        <ele>1603.1400000000001</ele>
        <time>2025-05-15T07:23:02Z</time>
      </trkpt>
      <trkpt lat="42.49740201048553" lon="2.02029699459672">
        <ele>1602.1700000000001</ele>
        <time>2025-05-15T07:23:03Z</time>
      </trkpt>
      <trkpt lat="42.497426988556981" lon="2.020479971542954">
        <ele>1601.21</ele>
        <time>2025-05-15T07:23:04Z</time>
      </trkpt>
      <trkpt lat="42.497479040175676" lon="2.020649034529924">
        <ele>1600.25</ele>
        <time>2025-05-15T07:23:05Z</time>
      </trkpt>
      <trkpt lat="42.497539976611733" lon="2.020803010091186">
        <ele>1599.77</ele>
        <time>2025-05-15T07:23:06Z</time>
      </trkpt>
      <trkpt lat="42.497603008523583" lon="2.020958997309208">
        <ele>1598.8099999999999</ele>
        <time>2025-05-15T07:23:07Z</time>
      </trkpt>
      <trkpt lat="42.497664028778672" lon="2.021111967042089">
        <ele>1597.8499999999999</ele>
        <time>2025-05-15T07:23:08Z</time>
      </trkpt>
      <trkpt lat="42.497793026268482" lon="2.02143500559032">
        <ele>1596.4100000000001</ele>
        <time>2025-05-15T07:23:10Z</time>
      </trkpt>
      <trkpt lat="42.497996035963297" lon="2.02240202575922">
        <ele>1593.52</ele>
        <time>2025-05-15T07:23:15Z</time>
      </trkpt>
      <trkpt lat="42.498025959357619" lon="2.023751009255648">
        <ele>1588.72</ele>
        <time>2025-05-15T07:23:22Z</time>
      </trkpt>
      <trkpt lat="42.498056972399354" lon="2.02588303014636">
        <ele>1579.5799999999999</ele>
        <time>2025-05-15T07:23:35Z</time>
      </trkpt>
      <trkpt lat="42.498075999319553" lon="2.02732396312058">
        <ele>1572.3699999999999</ele>
        <time>2025-05-15T07:23:45Z</time>
      </trkpt>
      <trkpt lat="42.49806703068316" lon="2.027635015547276">
        <ele>1570.45</ele>
        <time>2025-05-15T07:23:48Z</time>
      </trkpt>
      <trkpt lat="42.498044986277819" lon="2.027737023308873">
        <ele>1569.97</ele>
        <time>2025-05-15T07:23:49Z</time>
      </trkpt>
      <trkpt lat="42.498022019863129" lon="2.027843976393342">
        <ele>1569.97</ele>
        <time>2025-05-15T07:23:50Z</time>
      </trkpt>
      <trkpt lat="42.497973991557956" lon="2.027952019125223">
        <ele>1569.97</ele>
        <time>2025-05-15T07:23:51Z</time>
      </trkpt>
      <trkpt lat="42.497916994616389" lon="2.028054026886821">
        <ele>1569.97</ele>
        <time>2025-05-15T07:23:52Z</time>
      </trkpt>
      <trkpt lat="42.497825967147946" lon="2.028114963322878">
        <ele>1569.97</ele>
        <time>2025-05-15T07:23:53Z</time>
      </trkpt>
      <trkpt lat="42.497735023498535" lon="2.028162991628051">
        <ele>1569.97</ele>
        <time>2025-05-15T07:23:54Z</time>
      </trkpt>
      <trkpt lat="42.497643996030092" lon="2.028211019933224">
        <ele>1569.97</ele>
        <time>2025-05-15T07:23:55Z</time>
      </trkpt>
      <trkpt lat="42.497556991875172" lon="2.028257036581636">
        <ele>1569.97</ele>
        <time>2025-05-15T07:23:56Z</time>
      </trkpt>
      <trkpt lat="42.497253986075521" lon="2.028417969122529">
        <ele>1570.45</ele>
        <time>2025-05-15T07:24:02Z</time>
      </trkpt>
      <trkpt lat="42.497148038819432" lon="2.028507990762591">
        <ele>1571.4100000000001</ele>
        <time>2025-05-15T07:24:11Z</time>
      </trkpt>
      <trkpt lat="42.497085006907582" lon="2.028616033494473">
        <ele>1572.8499999999999</ele>
        <time>2025-05-15T07:24:57Z</time>
      </trkpt>
      <trkpt lat="42.497043013572693" lon="2.028686022385955">
        <ele>1573.3299999999999</ele>
        <time>2025-05-15T07:24:58Z</time>
      </trkpt>
      <trkpt lat="42.497001020237803" lon="2.028758022934198">
        <ele>1573.8199999999999</ele>
        <time>2025-05-15T07:24:59Z</time>
      </trkpt>
      <trkpt lat="42.496961960569024" lon="2.028834968805313">
        <ele>1573.8199999999999</ele>
        <time>2025-05-15T07:25:00Z</time>
      </trkpt>
      <trkpt lat="42.496939999982715" lon="2.029034039005637">
        <ele>1574.78</ele>
        <time>2025-05-15T07:25:02Z</time>
      </trkpt>
      <trkpt lat="42.496928013861179" lon="2.029135962948203">
        <ele>1575.26</ele>
        <time>2025-05-15T07:25:03Z</time>
      </trkpt>
      <trkpt lat="42.496867999434471" lon="2.030410012230277">
        <ele>1580.0599999999999</ele>
        <time>2025-05-15T07:25:12Z</time>
      </trkpt>
      <trkpt lat="42.496860036626458" lon="2.031150972470641">
        <ele>1582.95</ele>
        <time>2025-05-15T07:25:17Z</time>
      </trkpt>
      <trkpt lat="42.496776971966028" lon="2.031712979078293">
        <ele>1585.3499999999999</ele>
        <time>2025-05-15T07:25:24Z</time>
      </trkpt>
      <trkpt lat="42.496747970581055" lon="2.032906981185079">
        <ele>1583.9100000000001</ele>
        <time>2025-05-15T07:25:33Z</time>
      </trkpt>
      <trkpt lat="42.496717041358352" lon="2.033734023571014">
        <ele>1581.99</ele>
        <time>2025-05-15T07:25:39Z</time>
      </trkpt>
      <trkpt lat="42.496660966426134" lon="2.033999981358647">
        <ele>1581.03</ele>
        <time>2025-05-15T07:25:41Z</time>
      </trkpt>
      <trkpt lat="42.496576979756355" lon="2.034252025187016">
        <ele>1579.5799999999999</ele>
        <time>2025-05-15T07:25:43Z</time>
      </trkpt>
      <trkpt lat="42.496496010571718" lon="2.034315979108214">
        <ele>1578.6199999999999</ele>
        <time>2025-05-15T07:25:44Z</time>
      </trkpt>
      <trkpt lat="42.496412023901939" lon="2.034384040161967">
        <ele>1578.1400000000001</ele>
        <time>2025-05-15T07:25:45Z</time>
      </trkpt>
      <trkpt lat="42.496328959241509" lon="2.034450005739927">
        <ele>1577.6600000000001</ele>
        <time>2025-05-15T07:25:46Z</time>
      </trkpt>
      <trkpt lat="42.496251007542014" lon="2.034511025995016">
        <ele>1577.6600000000001</ele>
        <time>2025-05-15T07:25:47Z</time>
      </trkpt>
      <trkpt lat="42.495152978226542" lon="2.035332033410668">
        <ele>1570.9300000000001</ele>
        <time>2025-05-15T07:26:00Z</time>
      </trkpt>
      <trkpt lat="42.495077960193157" lon="2.035406967625022">
        <ele>1570.45</ele>
        <time>2025-05-15T07:26:01Z</time>
      </trkpt>
      <trkpt lat="42.495009982958436" lon="2.035500006750226">
        <ele>1569.97</ele>
        <time>2025-05-15T07:26:02Z</time>
      </trkpt>
      <trkpt lat="42.494957009330392" lon="2.03561601229012">
        <ele>1569.97</ele>
        <time>2025-05-15T07:26:03Z</time>
      </trkpt>
      <trkpt lat="42.494900012388825" lon="2.035740986466408">
        <ele>1569.49</ele>
        <time>2025-05-15T07:26:04Z</time>
      </trkpt>
      <trkpt lat="42.494762968271971" lon="2.036142982542515">
        <ele>1567.5699999999999</ele>
        <time>2025-05-15T07:26:07Z</time>
      </trkpt>
      <trkpt lat="42.49458895996213" lon="2.036654027178884">
        <ele>1566.6099999999999</ele>
        <time>2025-05-15T07:26:11Z</time>
      </trkpt>
      <trkpt lat="42.494403971359134" lon="2.03699198551476">
        <ele>1565.1600000000001</ele>
        <time>2025-05-15T07:26:14Z</time>
      </trkpt>
      <trkpt lat="42.49437396414578" lon="2.037041019648314">
        <ele>1564.6800000000001</ele>
        <time>2025-05-15T07:26:15Z</time>
      </trkpt>
      <trkpt lat="42.494357032701373" lon="2.037069015204907">
        <ele>1564.2</ele>
        <time>2025-05-15T07:26:16Z</time>
      </trkpt>
      <trkpt lat="42.494344040751457" lon="2.037088964134455">
        <ele>1563.72</ele>
        <time>2025-05-15T07:26:17Z</time>
      </trkpt>
      <trkpt lat="42.494344040751457" lon="2.037088964134455">
        <ele>1563.24</ele>
        <time>2025-05-15T07:26:27Z</time>
      </trkpt>
      <trkpt lat="42.49433096498251" lon="2.037111008539796">
        <ele>1562.76</ele>
        <time>2025-05-15T07:26:32Z</time>
      </trkpt>
      <trkpt lat="42.494310010224581" lon="2.037144033238292">
        <ele>1561.3199999999999</ele>
        <time>2025-05-15T07:26:46Z</time>
      </trkpt>
      <trkpt lat="42.49420297332108" lon="2.037274036556482">
        <ele>1557.95</ele>
        <time>2025-05-15T07:27:01Z</time>
      </trkpt>
      <trkpt lat="42.494183024391532" lon="2.037294991314411">
        <ele>1557.47</ele>
        <time>2025-05-15T07:27:04Z</time>
      </trkpt>
      <trkpt lat="42.494123009964824" lon="2.037359029054642">
        <ele>1556.03</ele>
        <time>2025-05-15T07:27:06Z</time>
      </trkpt>
      <trkpt lat="42.49407297000289" lon="2.037414014339447">
        <ele>1556.03</ele>
        <time>2025-05-15T07:27:07Z</time>
      </trkpt>
      <trkpt lat="42.49400801025331" lon="2.037482997402549">
        <ele>1555.55</ele>
        <time>2025-05-15T07:27:08Z</time>
      </trkpt>
      <trkpt lat="42.493906002491713" lon="2.037551980465651">
        <ele>1555.55</ele>
        <time>2025-05-15T07:27:09Z</time>
      </trkpt>
      <trkpt lat="42.493799971416593" lon="2.037588022649288">
        <ele>1555.0699999999999</ele>
        <time>2025-05-15T07:27:10Z</time>
      </trkpt>
      <trkpt lat="42.493678014725447" lon="2.037620963528752">
        <ele>1554.5899999999999</ele>
        <time>2025-05-15T07:27:11Z</time>
      </trkpt>
      <trkpt lat="42.493552034720778" lon="2.037620963528752">
        <ele>1554.5899999999999</ele>
        <time>2025-05-15T07:27:12Z</time>
      </trkpt>
      <trkpt lat="42.493423037230968" lon="2.037620963528752">
        <ele>1554.1099999999999</ele>
        <time>2025-05-15T07:27:13Z</time>
      </trkpt>
      <trkpt lat="42.493284987285733" lon="2.037562960758805">
        <ele>1554.1099999999999</ele>
        <time>2025-05-15T07:27:14Z</time>
      </trkpt>
      <trkpt lat="42.493164958432317" lon="2.037513004615903">
        <ele>1554.1099999999999</ele>
        <time>2025-05-15T07:27:15Z</time>
      </trkpt>
      <trkpt lat="42.493054987862706" lon="2.037406973540783">
        <ele>1553.6300000000001</ele>
        <time>2025-05-15T07:27:16Z</time>
      </trkpt>
      <trkpt lat="42.492953985929489" lon="2.037308989092708">
        <ele>1553.6300000000001</ele>
        <time>2025-05-15T07:27:17Z</time>
      </trkpt>
      <trkpt lat="42.492845021188259" lon="2.037203041836619">
        <ele>1553.6300000000001</ele>
        <time>2025-05-15T07:27:18Z</time>
      </trkpt>
      <trkpt lat="42.492727003991604" lon="2.037087958306074">
        <ele>1553.1500000000001</ele>
        <time>2025-05-15T07:27:19Z</time>
      </trkpt>
      <trkpt lat="42.492498010396957" lon="2.036866005510092">
        <ele>1552.1900000000001</ele>
        <time>2025-05-15T07:27:21Z</time>
      </trkpt>
      <trkpt lat="42.492373958230019" lon="2.03677698969841">
        <ele>1551.71</ele>
        <time>2025-05-15T07:27:22Z</time>
      </trkpt>
      <trkpt lat="42.492240015417337" lon="2.036728961393237">
        <ele>1550.74</ele>
        <time>2025-05-15T07:27:23Z</time>
      </trkpt>
      <trkpt lat="42.492106994614005" lon="2.03668998554349">
        <ele>1549.78</ele>
        <time>2025-05-15T07:27:24Z</time>
      </trkpt>
      <trkpt lat="42.491975985467434" lon="2.036650003865361">
        <ele>1548.8199999999999</ele>
        <time>2025-05-15T07:27:25Z</time>
      </trkpt>
      <trkpt lat="42.491332003846765" lon="2.036493010818958">
        <ele>1544.5</ele>
        <time>2025-05-15T07:27:30Z</time>
      </trkpt>
      <trkpt lat="42.491209963336587" lon="2.036487981677055">
        <ele>1543.05</ele>
        <time>2025-05-15T07:27:31Z</time>
      </trkpt>
      <trkpt lat="42.491094963625073" lon="2.036500973626971">
        <ele>1542.0899999999999</ele>
        <time>2025-05-15T07:27:32Z</time>
      </trkpt>
      <trkpt lat="42.490997985005379" lon="2.036526035517454">
        <ele>1541.1300000000001</ele>
        <time>2025-05-15T07:27:33Z</time>
      </trkpt>
      <trkpt lat="42.49089103192091" lon="2.036601975560188">
        <ele>1540.1700000000001</ele>
        <time>2025-05-15T07:27:34Z</time>
      </trkpt>
      <trkpt lat="42.490792963653803" lon="2.03667095862329">
        <ele>1538.73</ele>
        <time>2025-05-15T07:27:35Z</time>
      </trkpt>
      <trkpt lat="42.490694979205728" lon="2.036740025505424">
        <ele>1537.77</ele>
        <time>2025-05-15T07:27:36Z</time>
      </trkpt>
      <trkpt lat="42.490483000874519" lon="2.036890983581543">
        <ele>1535.8399999999999</ele>
        <time>2025-05-15T07:27:38Z</time>
      </trkpt>
      <trkpt lat="42.490167003124952" lon="2.037289040163159">
        <ele>1531.04</ele>
        <time>2025-05-15T07:27:42Z</time>
      </trkpt>
      <trkpt lat="42.489876989275217" lon="2.037906032055616">
        <ele>1527.1900000000001</ele>
        <time>2025-05-15T07:27:47Z</time>
      </trkpt>
      <trkpt lat="42.489551017060876" lon="2.039331961423159">
        <ele>1521.4200000000001</ele>
        <time>2025-05-15T07:27:56Z</time>
      </trkpt>
      <trkpt lat="42.489386983215809" lon="2.039996981620789">
        <ele>1519.02</ele>
        <time>2025-05-15T07:28:03Z</time>
      </trkpt>
      <trkpt lat="42.489349013194442" lon="2.04006495885551">
        <ele>1518.54</ele>
        <time>2025-05-15T07:28:04Z</time>
      </trkpt>
      <trkpt lat="42.489304002374411" lon="2.040111981332302">
        <ele>1518.0599999999999</ele>
        <time>2025-05-15T07:28:05Z</time>
      </trkpt>
      <trkpt lat="42.489236025139689" lon="2.040122039616108">
        <ele>1517.5799999999999</ele>
        <time>2025-05-15T07:28:06Z</time>
      </trkpt>
      <trkpt lat="42.489161007106304" lon="2.040135031566024">
        <ele>1517.0999999999999</ele>
        <time>2025-05-15T07:28:07Z</time>
      </trkpt>
      <trkpt lat="42.489089006558061" lon="2.040159003809094">
        <ele>1516.6199999999999</ele>
        <time>2025-05-15T07:28:08Z</time>
      </trkpt>
      <trkpt lat="42.488945005461574" lon="2.0402139890939">
        <ele>1516.1400000000001</ele>
        <time>2025-05-15T07:28:10Z</time>
      </trkpt>
      <trkpt lat="42.488876022398472" lon="2.040241984650493">
        <ele>1515.6600000000001</ele>
        <time>2025-05-15T07:28:11Z</time>
      </trkpt>
      <trkpt lat="42.488756999373436" lon="2.040334017947316">
        <ele>1515.1800000000001</ele>
        <time>2025-05-15T07:28:13Z</time>
      </trkpt>
      <trkpt lat="42.488702014088631" lon="2.040389003232122">
        <ele>1515.1800000000001</ele>
        <time>2025-05-15T07:28:14Z</time>
      </trkpt>
      <trkpt lat="42.488682987168431" lon="2.040468966588378">
        <ele>1515.1800000000001</ele>
        <time>2025-05-15T07:28:15Z</time>
      </trkpt>
      <trkpt lat="42.488663038238883" lon="2.040552031248808">
        <ele>1515.1800000000001</ele>
        <time>2025-05-15T07:28:16Z</time>
      </trkpt>
      <trkpt lat="42.488641999661922" lon="2.040640963241458">
        <ele>1515.6600000000001</ele>
        <time>2025-05-15T07:28:17Z</time>
      </trkpt>
      <trkpt lat="42.488616015762091" lon="2.040753029286861">
        <ele>1515.6600000000001</ele>
        <time>2025-05-15T07:28:18Z</time>
      </trkpt>
      <trkpt lat="42.488587014377117" lon="2.040811032056809">
        <ele>1515.6600000000001</ele>
        <time>2025-05-15T07:28:19Z</time>
      </trkpt>
      <trkpt lat="42.488547032698989" lon="2.040895018726587">
        <ele>1515.6600000000001</ele>
        <time>2025-05-15T07:28:20Z</time>
      </trkpt>
      <trkpt lat="42.488509984686971" lon="2.040994009003043">
        <ele>1515.6600000000001</ele>
        <time>2025-05-15T07:28:21Z</time>
      </trkpt>
      <trkpt lat="42.488472014665604" lon="2.041098028421402">
        <ele>1515.1800000000001</ele>
        <time>2025-05-15T07:28:22Z</time>
      </trkpt>
      <trkpt lat="42.488433960825205" lon="2.041200958192349">
        <ele>1515.1800000000001</ele>
        <time>2025-05-15T07:28:23Z</time>
      </trkpt>
      <trkpt lat="42.488391967490315" lon="2.041312018409371">
        <ele>1515.1800000000001</ele>
        <time>2025-05-15T07:28:24Z</time>
      </trkpt>
      <trkpt lat="42.48831401579082" lon="2.041670009493828">
        <ele>1515.1800000000001</ele>
        <time>2025-05-15T07:28:27Z</time>
      </trkpt>
      <trkpt lat="42.488209996372461" lon="2.04313499853015">
        <ele>1511.3299999999999</ele>
        <time>2025-05-15T07:28:36Z</time>
      </trkpt>
      <trkpt lat="42.488299012184143" lon="2.044949010014534">
        <ele>1505.0799999999999</ele>
        <time>2025-05-15T07:28:45Z</time>
      </trkpt>
      <trkpt lat="42.488524988293648" lon="2.046046033501625">
        <ele>1501.72</ele>
        <time>2025-05-15T07:28:50Z</time>
      </trkpt>
      <trkpt lat="42.488544015213847" lon="2.046276032924652">
        <ele>1500.76</ele>
        <time>2025-05-15T07:28:51Z</time>
      </trkpt>
      <trkpt lat="42.488523982465267" lon="2.046503014862537">
        <ele>1500.27</ele>
        <time>2025-05-15T07:28:52Z</time>
      </trkpt>
      <trkpt lat="42.488476037979126" lon="2.046723961830139">
        <ele>1499.79</ele>
        <time>2025-05-15T07:28:53Z</time>
      </trkpt>
      <trkpt lat="42.488427003845572" lon="2.046950021758676">
        <ele>1499.3099999999999</ele>
        <time>2025-05-15T07:28:54Z</time>
      </trkpt>
      <trkpt lat="42.48837998136878" lon="2.047169040888548">
        <ele>1498.8299999999999</ele>
        <time>2025-05-15T07:28:55Z</time>
      </trkpt>
      <trkpt lat="42.48829398304224" lon="2.047379007562995">
        <ele>1498.8299999999999</ele>
        <time>2025-05-15T07:28:56Z</time>
      </trkpt>
      <trkpt lat="42.488208990544081" lon="2.047586040571332">
        <ele>1498.3499999999999</ele>
        <time>2025-05-15T07:28:57Z</time>
      </trkpt>
      <trkpt lat="42.487899027764797" lon="2.048339992761612">
        <ele>1497.3900000000001</ele>
        <time>2025-05-15T07:29:01Z</time>
      </trkpt>
      <trkpt lat="42.487869020551443" lon="2.048532022163272">
        <ele>1497.3900000000001</ele>
        <time>2025-05-15T07:29:02Z</time>
      </trkpt>
      <trkpt lat="42.487849993631244" lon="2.048712987452745">
        <ele>1496.9100000000001</ele>
        <time>2025-05-15T07:29:03Z</time>
      </trkpt>
      <trkpt lat="42.487831972539425" lon="2.048882972449064">
        <ele>1495.95</ele>
        <time>2025-05-15T07:29:04Z</time>
      </trkpt>
      <trkpt lat="42.487839013338089" lon="2.049046000465751">
        <ele>1495.95</ele>
        <time>2025-05-15T07:29:05Z</time>
      </trkpt>
      <trkpt lat="42.487871032208204" lon="2.049190001562238">
        <ele>1495.47</ele>
        <time>2025-05-15T07:29:06Z</time>
      </trkpt>
      <trkpt lat="42.487907996401191" lon="2.049357974901795">
        <ele>1494.99</ele>
        <time>2025-05-15T07:29:07Z</time>
      </trkpt>
      <trkpt lat="42.487962981685996" lon="2.049451014027">
        <ele>1494.03</ele>
        <time>2025-05-15T07:29:08Z</time>
      </trkpt>
      <trkpt lat="42.48803498223424" lon="2.049574982374907">
        <ele>1493.55</ele>
        <time>2025-05-15T07:29:09Z</time>
      </trkpt>
      <trkpt lat="42.488112011924386" lon="2.049705991521478">
        <ele>1492.5799999999999</ele>
        <time>2025-05-15T07:29:10Z</time>
      </trkpt>
      <trkpt lat="42.488366989418864" lon="2.050185017287731">
        <ele>1490.6600000000001</ele>
        <time>2025-05-15T07:29:13Z</time>
      </trkpt>
      <trkpt lat="42.488819025456905" lon="2.051267959177494">
        <ele>1487.3</ele>
        <time>2025-05-15T07:29:18Z</time>
      </trkpt>
      <trkpt lat="42.488831011578441" lon="2.051462000235915">
        <ele>1486.8199999999999</ele>
        <time>2025-05-15T07:29:19Z</time>
      </trkpt>
      <trkpt lat="42.488782983273268" lon="2.051625028252602">
        <ele>1485.8499999999999</ele>
        <time>2025-05-15T07:29:20Z</time>
      </trkpt>
      <trkpt lat="42.488719029352069" lon="2.051790989935398">
        <ele>1485.3699999999999</ele>
        <time>2025-05-15T07:29:21Z</time>
      </trkpt>
      <trkpt lat="42.48863697052002" lon="2.051954017952085">
        <ele>1484.4100000000001</ele>
        <time>2025-05-15T07:29:22Z</time>
      </trkpt>
      <trkpt lat="42.488534040749073" lon="2.052104976028204">
        <ele>1483.9300000000001</ele>
        <time>2025-05-15T07:29:23Z</time>
      </trkpt>
      <trkpt lat="42.488436978310347" lon="2.05224797129631">
        <ele>1482.97</ele>
        <time>2025-05-15T07:29:24Z</time>
      </trkpt>
      <trkpt lat="42.488345028832555" lon="2.052383003756404">
        <ele>1482.49</ele>
        <time>2025-05-15T07:29:25Z</time>
      </trkpt>
      <trkpt lat="42.488236986100674" lon="2.052485011518002">
        <ele>1482.01</ele>
        <time>2025-05-15T07:29:26Z</time>
      </trkpt>
      <trkpt lat="42.488144030794501" lon="2.052555000409484">
        <ele>1481.53</ele>
        <time>2025-05-15T07:29:27Z</time>
      </trkpt>
      <trkpt lat="42.487987959757447" lon="2.052534967660904">
        <ele>1481.05</ele>
        <time>2025-05-15T07:29:28Z</time>
      </trkpt>
      <trkpt lat="42.487848987802863" lon="2.052517030388117">
        <ele>1480.5699999999999</ele>
        <time>2025-05-15T07:29:29Z</time>
      </trkpt>
      <trkpt lat="42.487704986706376" lon="2.052499009296298">
        <ele>1480.0899999999999</ele>
        <time>2025-05-15T07:29:30Z</time>
      </trkpt>
      <trkpt lat="42.487567020580173" lon="2.052480988204479">
        <ele>1479.6099999999999</ele>
        <time>2025-05-15T07:29:31Z</time>
      </trkpt>
      <trkpt lat="42.487437017261982" lon="2.052495991811156">
        <ele>1479.1300000000001</ele>
        <time>2025-05-15T07:29:32Z</time>
      </trkpt>
      <trkpt lat="42.487301984801888" lon="2.052580984309316">
        <ele>1478.1600000000001</ele>
        <time>2025-05-15T07:29:33Z</time>
      </trkpt>
      <trkpt lat="42.487018005922437" lon="2.05276002176106">
        <ele>1476.24</ele>
        <time>2025-05-15T07:29:35Z</time>
      </trkpt>
      <trkpt lat="42.486754981800914" lon="2.052925983443856">
        <ele>1474.3199999999999</ele>
        <time>2025-05-15T07:29:37Z</time>
      </trkpt>
      <trkpt lat="42.486629001796246" lon="2.052973005920649">
        <ele>1473.3599999999999</ele>
        <time>2025-05-15T07:29:38Z</time>
      </trkpt>
      <trkpt lat="42.486489024013281" lon="2.052927995100617">
        <ele>1472.8800000000001</ele>
        <time>2025-05-15T07:29:39Z</time>
      </trkpt>
      <trkpt lat="42.48633798211813" lon="2.052878960967064">
        <ele>1471.9200000000001</ele>
        <time>2025-05-15T07:29:40Z</time>
      </trkpt>
      <trkpt lat="42.486188029870391" lon="2.052830010652542">
        <ele>1471.4400000000001</ele>
        <time>2025-05-15T07:29:41Z</time>
      </trkpt>
      <trkpt lat="42.485933974385262" lon="2.052748035639525">
        <ele>1469.99</ele>
        <time>2025-05-15T07:29:43Z</time>
      </trkpt>
      <trkpt lat="42.485812017694116" lon="2.05278298817575">
        <ele>1469.03</ele>
        <time>2025-05-15T07:29:44Z</time>
      </trkpt>
      <trkpt lat="42.485746974125504" lon="2.052854988723993">
        <ele>1468.55</ele>
        <time>2025-05-15T07:29:45Z</time>
      </trkpt>
      <trkpt lat="42.485696012154222" lon="2.052959008142352">
        <ele>1467.5899999999999</ele>
        <time>2025-05-15T07:29:46Z</time>
      </trkpt>
      <trkpt lat="42.485681008547544" lon="2.053118012845516">
        <ele>1466.6300000000001</ele>
        <time>2025-05-15T07:29:47Z</time>
      </trkpt>
      <trkpt lat="42.485662987455726" lon="2.053303001448512">
        <ele>1465.6700000000001</ele>
        <time>2025-05-15T07:29:48Z</time>
      </trkpt>
      <trkpt lat="42.485586041584611" lon="2.054572021588683">
        <ele>1461.3399999999999</ele>
        <time>2025-05-15T07:29:54Z</time>
      </trkpt>
      <trkpt lat="42.485599033534527" lon="2.054788023233414">
        <ele>1460.8599999999999</ele>
        <time>2025-05-15T07:29:55Z</time>
      </trkpt>
      <trkpt lat="42.4856280349195" lon="2.055271994322538">
        <ele>1459.9000000000001</ele>
        <time>2025-05-15T07:29:57Z</time>
      </trkpt>
      <trkpt lat="42.485643960535526" lon="2.055529989302158">
        <ele>1459.9000000000001</ele>
        <time>2025-05-15T07:29:58Z</time>
      </trkpt>
      <trkpt lat="42.485634991899133" lon="2.056282013654709">
        <ele>1457.98</ele>
        <time>2025-05-15T07:30:01Z</time>
      </trkpt>
      <trkpt lat="42.48562702909112" lon="2.056527016684413">
        <ele>1457.5</ele>
        <time>2025-05-15T07:30:02Z</time>
      </trkpt>
      <trkpt lat="42.485618982464075" lon="2.056770008057356">
        <ele>1456.53</ele>
        <time>2025-05-15T07:30:03Z</time>
      </trkpt>
      <trkpt lat="42.485611019656062" lon="2.057014005258679">
        <ele>1455.5699999999999</ele>
        <time>2025-05-15T07:30:04Z</time>
      </trkpt>
      <trkpt lat="42.485601967200637" lon="2.057261019945145">
        <ele>1454.6099999999999</ele>
        <time>2025-05-15T07:30:05Z</time>
      </trkpt>
      <trkpt lat="42.48558796942234" lon="2.058693990111351">
        <ele>1451.25</ele>
        <time>2025-05-15T07:30:11Z</time>
      </trkpt>
      <trkpt lat="42.48560699634254" lon="2.05914300866425">
        <ele>1451.25</ele>
        <time>2025-05-15T07:30:13Z</time>
      </trkpt>
      <trkpt lat="42.485589981079102" lon="2.059353981167078">
        <ele>1451.25</ele>
        <time>2025-05-15T07:30:14Z</time>
      </trkpt>
      <trkpt lat="42.485547987744212" lon="2.059555985033512">
        <ele>1451.25</ele>
        <time>2025-05-15T07:30:15Z</time>
      </trkpt>
      <trkpt lat="42.485486967489123" lon="2.059756983071566">
        <ele>1451.73</ele>
        <time>2025-05-15T07:30:16Z</time>
      </trkpt>
      <trkpt lat="42.485407004132867" lon="2.059954963624477">
        <ele>1452.21</ele>
        <time>2025-05-15T07:30:17Z</time>
      </trkpt>
      <trkpt lat="42.48532603494823" lon="2.060157973319292">
        <ele>1452.6900000000001</ele>
        <time>2025-05-15T07:30:18Z</time>
      </trkpt>
      <trkpt lat="42.485271971672773" lon="2.060380009934306">
        <ele>1453.1700000000001</ele>
        <time>2025-05-15T07:30:19Z</time>
      </trkpt>
      <trkpt lat="42.485183039680123" lon="2.060794997960329">
        <ele>1454.6099999999999</ele>
        <time>2025-05-15T07:30:21Z</time>
      </trkpt>
      <trkpt lat="42.485102992504835" lon="2.060960037633777">
        <ele>1455.0899999999999</ele>
        <time>2025-05-15T07:30:22Z</time>
      </trkpt>
      <trkpt lat="42.484923033043742" lon="2.061364967375994">
        <ele>1457.02</ele>
        <time>2025-05-15T07:30:26Z</time>
      </trkpt>
      <trkpt lat="42.484918003901839" lon="2.061425987631083">
        <ele>1457.5</ele>
        <time>2025-05-15T07:30:27Z</time>
      </trkpt>
      <trkpt lat="42.484913980588317" lon="2.061480972915888">
        <ele>1457.5</ele>
        <time>2025-05-15T07:30:28Z</time>
      </trkpt>
      <trkpt lat="42.484908029437065" lon="2.061558002606034">
        <ele>1458.46</ele>
        <time>2025-05-15T07:30:36Z</time>
      </trkpt>
      <trkpt lat="42.484904006123543" lon="2.061609970405698">
        <ele>1459.9000000000001</ele>
        <time>2025-05-15T07:30:39Z</time>
      </trkpt>
      <trkpt lat="42.484978018328547" lon="2.061558002606034">
        <ele>1460.3800000000001</ele>
        <time>2025-05-15T07:30:40Z</time>
      </trkpt>
      <trkpt lat="42.485044989734888" lon="2.061510980129242">
        <ele>1460.8599999999999</ele>
        <time>2025-05-15T07:30:41Z</time>
      </trkpt>
      <trkpt lat="42.485117996111512" lon="2.061460018157959">
        <ele>1460.8599999999999</ele>
        <time>2025-05-15T07:30:42Z</time>
      </trkpt>
      <trkpt lat="42.485155966132879" lon="2.061372008174658">
        <ele>1461.3399999999999</ele>
        <time>2025-05-15T07:30:43Z</time>
      </trkpt>
      <trkpt lat="42.485202988609672" lon="2.061261031776667">
        <ele>1461.8199999999999</ele>
        <time>2025-05-15T07:30:44Z</time>
      </trkpt>
      <trkpt lat="42.485250011086464" lon="2.061149971559644">
        <ele>1462.3</ele>
        <time>2025-05-15T07:30:45Z</time>
      </trkpt>
      <trkpt lat="42.485374985262752" lon="2.060856018215418">
        <ele>1463.74</ele>
        <time>2025-05-15T07:30:48Z</time>
      </trkpt>
      <trkpt lat="42.485439023002982" lon="2.060749987140298">
        <ele>1464.23</ele>
        <time>2025-05-15T07:30:49Z</time>
      </trkpt>
      <trkpt lat="42.485502976924181" lon="2.060743030160666">
        <ele>1464.71</ele>
        <time>2025-05-15T07:30:50Z</time>
      </trkpt>
      <trkpt lat="42.485583024099469" lon="2.06073397770524">
        <ele>1465.1900000000001</ele>
        <time>2025-05-15T07:30:51Z</time>
      </trkpt>
      <trkpt lat="42.485683020204306" lon="2.060779994353652">
        <ele>1465.6700000000001</ele>
        <time>2025-05-15T07:30:52Z</time>
      </trkpt>
      <trkpt lat="42.485773041844368" lon="2.060843026265502">
        <ele>1465.6700000000001</ele>
        <time>2025-05-15T07:30:53Z</time>
      </trkpt>
      <trkpt lat="42.485853005200624" lon="2.060965988785029">
        <ele>1466.1500000000001</ele>
        <time>2025-05-15T07:30:54Z</time>
      </trkpt>
      <trkpt lat="42.485893992707133" lon="2.0610969979316">
        <ele>1466.1500000000001</ele>
        <time>2025-05-15T07:30:55Z</time>
      </trkpt>
      <trkpt lat="42.485933974385262" lon="2.061242004856467">
        <ele>1466.6300000000001</ele>
        <time>2025-05-15T07:30:56Z</time>
      </trkpt>
      <trkpt lat="42.485941015183926" lon="2.061411989852786">
        <ele>1467.1099999999999</ele>
        <time>2025-05-15T07:30:57Z</time>
      </trkpt>
      <trkpt lat="42.485947972163558" lon="2.061588009819388">
        <ele>1467.5899999999999</ele>
        <time>2025-05-15T07:30:58Z</time>
      </trkpt>
      <trkpt lat="42.485956018790603" lon="2.061770986765623">
        <ele>1467.5899999999999</ele>
        <time>2025-05-15T07:30:59Z</time>
      </trkpt>
      <trkpt lat="42.48597102239728" lon="2.062146998941898">
        <ele>1468.55</ele>
        <time>2025-05-15T07:31:01Z</time>
      </trkpt>
      <trkpt lat="42.48599499464035" lon="2.062339028343558">
        <ele>1469.03</ele>
        <time>2025-05-15T07:31:02Z</time>
      </trkpt>
      <trkpt lat="42.486070012673736" lon="2.062518987804651">
        <ele>1469.99</ele>
        <time>2025-05-15T07:31:03Z</time>
      </trkpt>
      <trkpt lat="42.4862099904567" lon="2.062912015244365">
        <ele>1471.9200000000001</ele>
        <time>2025-05-15T07:31:05Z</time>
      </trkpt>
      <trkpt lat="42.486249972134829" lon="2.063130028545857">
        <ele>1472.8800000000001</ele>
        <time>2025-05-15T07:31:06Z</time>
      </trkpt>
      <trkpt lat="42.486292971298099" lon="2.063357010483742">
        <ele>1473.8399999999999</ele>
        <time>2025-05-15T07:31:07Z</time>
      </trkpt>
      <trkpt lat="42.486335970461369" lon="2.063590027391911">
        <ele>1475.28</ele>
        <time>2025-05-15T07:31:08Z</time>
      </trkpt>
      <trkpt lat="42.486362960189581" lon="2.063834024593234">
        <ele>1475.76</ele>
        <time>2025-05-15T07:31:09Z</time>
      </trkpt>
      <trkpt lat="42.486362960189581" lon="2.064073998481035">
        <ele>1476.72</ele>
        <time>2025-05-15T07:31:10Z</time>
      </trkpt>
      <trkpt lat="42.486364971846342" lon="2.064306009560823">
        <ele>1477.6800000000001</ele>
        <time>2025-05-15T07:31:11Z</time>
      </trkpt>
      <trkpt lat="42.486403025686741" lon="2.064529974013567">
        <ele>1478.6500000000001</ele>
        <time>2025-05-15T07:31:12Z</time>
      </trkpt>
      <trkpt lat="42.486483994871378" lon="2.064734995365143">
        <ele>1480.0899999999999</ele>
        <time>2025-05-15T07:31:13Z</time>
      </trkpt>
      <trkpt lat="42.4866590090096" lon="2.065145960077643">
        <ele>1482.01</ele>
        <time>2025-05-15T07:31:15Z</time>
      </trkpt>
      <trkpt lat="42.486761016771197" lon="2.065323991701007">
        <ele>1482.97</ele>
        <time>2025-05-15T07:31:16Z</time>
      </trkpt>
      <trkpt lat="42.487127976492047" lon="2.065763035789132">
        <ele>1484.4100000000001</ele>
        <time>2025-05-15T07:31:19Z</time>
      </trkpt>
      <trkpt lat="42.487190002575517" lon="2.065973002463579">
        <ele>1485.3699999999999</ele>
        <time>2025-05-15T07:31:20Z</time>
      </trkpt>
      <trkpt lat="42.487245993688703" lon="2.066183974966407">
        <ele>1486.3399999999999</ele>
        <time>2025-05-15T07:31:21Z</time>
      </trkpt>
      <trkpt lat="42.487302990630269" lon="2.066394025459886">
        <ele>1486.8199999999999</ele>
        <time>2025-05-15T07:31:22Z</time>
      </trkpt>
      <trkpt lat="42.487361999228597" lon="2.066595023497939">
        <ele>1487.3</ele>
        <time>2025-05-15T07:31:23Z</time>
      </trkpt>
      <trkpt lat="42.487458977848291" lon="2.066765008494258">
        <ele>1487.78</ele>
        <time>2025-05-15T07:31:24Z</time>
      </trkpt>
      <trkpt lat="42.487586969509721" lon="2.066902974620462">
        <ele>1487.78</ele>
        <time>2025-05-15T07:31:25Z</time>
      </trkpt>
      <trkpt lat="42.487726025283337" lon="2.067044964060187">
        <ele>1488.26</ele>
        <time>2025-05-15T07:31:26Z</time>
      </trkpt>
      <trkpt lat="42.488801004365087" lon="2.068180041387677">
        <ele>1490.1800000000001</ele>
        <time>2025-05-15T07:31:33Z</time>
      </trkpt>
      <trkpt lat="42.488918015733361" lon="2.068356983363628">
        <ele>1490.6600000000001</ele>
        <time>2025-05-15T07:31:34Z</time>
      </trkpt>
      <trkpt lat="42.488984987139702" lon="2.068578014150262">
        <ele>1491.1400000000001</ele>
        <time>2025-05-15T07:31:35Z</time>
      </trkpt>
      <trkpt lat="42.489053970202804" lon="2.068803990259767">
        <ele>1492.0999999999999</ele>
        <time>2025-05-15T07:31:36Z</time>
      </trkpt>
      <trkpt lat="42.489125970751047" lon="2.069037007167935">
        <ele>1493.0599999999999</ele>
        <time>2025-05-15T07:31:37Z</time>
      </trkpt>
      <trkpt lat="42.489198977127671" lon="2.069274969398975">
        <ele>1493.55</ele>
        <time>2025-05-15T07:31:38Z</time>
      </trkpt>
      <trkpt lat="42.489309031516314" lon="2.06947797909379">
        <ele>1494.51</ele>
        <time>2025-05-15T07:31:39Z</time>
      </trkpt>
      <trkpt lat="42.489434005692601" lon="2.069673025980592">
        <ele>1495.47</ele>
        <time>2025-05-15T07:31:40Z</time>
      </trkpt>
      <trkpt lat="42.489561997354031" lon="2.069871006533504">
        <ele>1495.95</ele>
        <time>2025-05-15T07:31:41Z</time>
      </trkpt>
      <trkpt lat="42.489680014550686" lon="2.070066975429654">
        <ele>1496.9100000000001</ele>
        <time>2025-05-15T07:31:42Z</time>
      </trkpt>
      <trkpt lat="42.489777998998761" lon="2.070268979296088">
        <ele>1497.8699999999999</ele>
        <time>2025-05-15T07:31:43Z</time>
      </trkpt>
      <trkpt lat="42.489852011203766" lon="2.070490010082722">
        <ele>1498.8299999999999</ele>
        <time>2025-05-15T07:31:44Z</time>
      </trkpt>
      <trkpt lat="42.489867014810443" lon="2.070739958435297">
        <ele>1499.79</ele>
        <time>2025-05-15T07:31:45Z</time>
      </trkpt>
      <trkpt lat="42.489873971790075" lon="2.070988984778523">
        <ele>1500.76</ele>
        <time>2025-05-15T07:31:46Z</time>
      </trkpt>
      <trkpt lat="42.489881012588739" lon="2.071240022778511">
        <ele>1501.72</ele>
        <time>2025-05-15T07:31:47Z</time>
      </trkpt>
      <trkpt lat="42.489909008145332" lon="2.071703961119056">
        <ele>1503.6400000000001</ele>
        <time>2025-05-15T07:31:49Z</time>
      </trkpt>
      <trkpt lat="42.489957958459854" lon="2.071910994127393">
        <ele>1504.5999999999999</ele>
        <time>2025-05-15T07:31:50Z</time>
      </trkpt>
      <trkpt lat="42.490049991756678" lon="2.072087014093995">
        <ele>1505.5599999999999</ele>
        <time>2025-05-15T07:31:51Z</time>
      </trkpt>
      <trkpt lat="42.490159962326288" lon="2.072258004918695">
        <ele>1506.04</ele>
        <time>2025-05-15T07:31:52Z</time>
      </trkpt>
      <trkpt lat="42.490285020321608" lon="2.072423966601491">
        <ele>1506.52</ele>
        <time>2025-05-15T07:31:53Z</time>
      </trkpt>
      <trkpt lat="42.490415023639798" lon="2.072595963254571">
        <ele>1507.48</ele>
        <time>2025-05-15T07:31:54Z</time>
      </trkpt>
      <trkpt lat="42.490547960624099" lon="2.072770977392793">
        <ele>1507.97</ele>
        <time>2025-05-15T07:31:55Z</time>
      </trkpt>
      <trkpt lat="42.490681987255812" lon="2.072955965995789">
        <ele>1508.45</ele>
        <time>2025-05-15T07:31:56Z</time>
      </trkpt>
      <trkpt lat="42.490772008895874" lon="2.073192000389099">
        <ele>1509.4100000000001</ele>
        <time>2025-05-15T07:31:57Z</time>
      </trkpt>
      <trkpt lat="42.490861024707556" lon="2.073437003418803">
        <ele>1509.8900000000001</ele>
        <time>2025-05-15T07:31:58Z</time>
      </trkpt>
      <trkpt lat="42.490933025255799" lon="2.073700027540326">
        <ele>1510.8499999999999</ele>
        <time>2025-05-15T07:31:59Z</time>
      </trkpt>
      <trkpt lat="42.491684965789318" lon="2.076127007603645">
        <ele>1517.5799999999999</ele>
        <time>2025-05-15T07:32:08Z</time>
      </trkpt>
      <trkpt lat="42.491800971329212" lon="2.076347032561898">
        <ele>1518.54</ele>
        <time>2025-05-15T07:32:09Z</time>
      </trkpt>
      <trkpt lat="42.491942038759589" lon="2.076565967872739">
        <ele>1519.5</ele>
        <time>2025-05-15T07:32:10Z</time>
      </trkpt>
      <trkpt lat="42.492112023755908" lon="2.076722960919142">
        <ele>1520.46</ele>
        <time>2025-05-15T07:32:11Z</time>
      </trkpt>
      <trkpt lat="42.492288965731859" lon="2.076888000592589">
        <ele>1520.9400000000001</ele>
        <time>2025-05-15T07:32:12Z</time>
      </trkpt>
      <trkpt lat="42.492468003183603" lon="2.077053040266037">
        <ele>1521.9000000000001</ele>
        <time>2025-05-15T07:32:13Z</time>
      </trkpt>
      <trkpt lat="42.492615021765232" lon="2.077264012768865">
        <ele>1522.3900000000001</ele>
        <time>2025-05-15T07:32:14Z</time>
      </trkpt>
      <trkpt lat="42.493454972282052" lon="2.078706035390496">
        <ele>1528.1500000000001</ele>
        <time>2025-05-15T07:32:20Z</time>
      </trkpt>
      <trkpt lat="42.493612971156836" lon="2.078902004286647">
        <ele>1529.1099999999999</ele>
        <time>2025-05-15T07:32:21Z</time>
      </trkpt>
      <trkpt lat="42.493784967809916" lon="2.079074000939727">
        <ele>1530.0799999999999</ele>
        <time>2025-05-15T07:32:22Z</time>
      </trkpt>
      <trkpt lat="42.493951013311744" lon="2.079239962622523">
        <ele>1530.5599999999999</ele>
        <time>2025-05-15T07:32:23Z</time>
      </trkpt>
      <trkpt lat="42.49411404132843" lon="2.07940399646759">
        <ele>1531.04</ele>
        <time>2025-05-15T07:32:24Z</time>
      </trkpt>
      <trkpt lat="42.494263993576169" lon="2.079586973413825">
        <ele>1532</ele>
        <time>2025-05-15T07:32:25Z</time>
      </trkpt>
      <trkpt lat="42.494370024651289" lon="2.079824013635516">
        <ele>1532.96</ele>
        <time>2025-05-15T07:32:26Z</time>
      </trkpt>
      <trkpt lat="42.494446970522404" lon="2.080082008615136">
        <ele>1533.4400000000001</ele>
        <time>2025-05-15T07:32:27Z</time>
      </trkpt>
      <trkpt lat="42.494508996605873" lon="2.080361964181066">
        <ele>1534.4000000000001</ele>
        <time>2025-05-15T07:32:28Z</time>
      </trkpt>
      <trkpt lat="42.494558030739427" lon="2.080661030486226">
        <ele>1534.8800000000001</ele>
        <time>2025-05-15T07:32:29Z</time>
      </trkpt>
      <trkpt lat="42.494949968531728" lon="2.084933035075665">
        <ele>1547.8599999999999</ele>
        <time>2025-05-15T07:32:43Z</time>
      </trkpt>
      <trkpt lat="42.495092041790485" lon="2.086941003799439">
        <ele>1556.03</ele>
        <time>2025-05-15T07:32:50Z</time>
      </trkpt>
      <trkpt lat="42.496045986190438" lon="2.090719984844327">
        <ele>1570.9300000000001</ele>
        <time>2025-05-15T07:33:04Z</time>
      </trkpt>
      <trkpt lat="42.496381010860205" lon="2.092033009976149">
        <ele>1576.7</ele>
        <time>2025-05-15T07:33:11Z</time>
      </trkpt>
      <trkpt lat="42.496750988066196" lon="2.093356009572744">
        <ele>1581.03</ele>
        <time>2025-05-15T07:33:20Z</time>
      </trkpt>
      <trkpt lat="42.496955003589392" lon="2.093936037272215">
        <ele>1581.51</ele>
        <time>2025-05-15T07:33:24Z</time>
      </trkpt>
      <trkpt lat="42.497027004137635" lon="2.09403301589191">
        <ele>1581.51</ele>
        <time>2025-05-15T07:33:25Z</time>
      </trkpt>
      <trkpt lat="42.497145021334291" lon="2.094097975641489">
        <ele>1581.51</ele>
        <time>2025-05-15T07:33:26Z</time>
      </trkpt>
      <trkpt lat="42.497249962761998" lon="2.094139968976378">
        <ele>1581.03</ele>
        <time>2025-05-15T07:33:27Z</time>
      </trkpt>
      <trkpt lat="42.497367979958653" lon="2.094139968976378">
        <ele>1580.54</ele>
        <time>2025-05-15T07:33:28Z</time>
      </trkpt>
      <trkpt lat="42.497498989105225" lon="2.094139968976378">
        <ele>1580.0599999999999</ele>
        <time>2025-05-15T07:33:29Z</time>
      </trkpt>
      <trkpt lat="42.497605020180345" lon="2.094113985076547">
        <ele>1579.5799999999999</ele>
        <time>2025-05-15T07:33:30Z</time>
      </trkpt>
      <trkpt lat="42.497974997386336" lon="2.094040978699923">
        <ele>1578.1400000000001</ele>
        <time>2025-05-15T07:33:33Z</time>
      </trkpt>
      <trkpt lat="42.498096032068133" lon="2.094061011448503">
        <ele>1577.6600000000001</ele>
        <time>2025-05-15T07:33:34Z</time>
      </trkpt>
      <trkpt lat="42.498217988759279" lon="2.094080960378051">
        <ele>1576.7</ele>
        <time>2025-05-15T07:33:35Z</time>
      </trkpt>
      <trkpt lat="42.498342040926218" lon="2.094109039753676">
        <ele>1576.22</ele>
        <time>2025-05-15T07:33:36Z</time>
      </trkpt>
      <trkpt lat="42.498458968475461" lon="2.094161007553339">
        <ele>1575.74</ele>
        <time>2025-05-15T07:33:37Z</time>
      </trkpt>
      <trkpt lat="42.498572962358594" lon="2.094222027808428">
        <ele>1575.26</ele>
        <time>2025-05-15T07:33:38Z</time>
      </trkpt>
      <trkpt lat="42.498682010918856" lon="2.09429201669991">
        <ele>1574.78</ele>
        <time>2025-05-15T07:33:39Z</time>
      </trkpt>
      <trkpt lat="42.498787036165595" lon="2.094380026683211">
        <ele>1574.3</ele>
        <time>2025-05-15T07:33:40Z</time>
      </trkpt>
      <trkpt lat="42.498878985643387" lon="2.094482034444809">
        <ele>1573.8199999999999</ele>
        <time>2025-05-15T07:33:41Z</time>
      </trkpt>
      <trkpt lat="42.49897001311183" lon="2.094585970044136">
        <ele>1573.3299999999999</ele>
        <time>2025-05-15T07:33:42Z</time>
      </trkpt>
      <trkpt lat="42.499046958982944" lon="2.094707004725933">
        <ele>1572.8499999999999</ele>
        <time>2025-05-15T07:33:43Z</time>
      </trkpt>
      <trkpt lat="42.49912197701633" lon="2.09482803940773">
        <ele>1572.8499999999999</ele>
        <time>2025-05-15T07:33:44Z</time>
      </trkpt>
      <trkpt lat="42.499639978632331" lon="2.095906035974622">
        <ele>1573.8199999999999</ele>
        <time>2025-05-15T07:33:52Z</time>
      </trkpt>
      <trkpt lat="42.499675014987588" lon="2.096061017364264">
        <ele>1573.8199999999999</ele>
        <time>2025-05-15T07:33:53Z</time>
      </trkpt>
      <trkpt lat="42.499709967523813" lon="2.096213987097144">
        <ele>1574.3</ele>
        <time>2025-05-15T07:33:54Z</time>
      </trkpt>
      <trkpt lat="42.499827984720469" lon="2.096965005621314">
        <ele>1575.26</ele>
        <time>2025-05-15T07:33:58Z</time>
      </trkpt>
      <trkpt lat="42.499885987490416" lon="2.097171032801271">
        <ele>1575.74</ele>
        <time>2025-05-15T07:33:59Z</time>
      </trkpt>
      <trkpt lat="42.499967040494084" lon="2.097373036667705">
        <ele>1575.74</ele>
        <time>2025-05-15T07:34:00Z</time>
      </trkpt>
      <trkpt lat="42.500077011063695" lon="2.097561964765191">
        <ele>1576.22</ele>
        <time>2025-05-15T07:34:01Z</time>
      </trkpt>
      <trkpt lat="42.500210031867027" lon="2.097734967246652">
        <ele>1576.7</ele>
        <time>2025-05-15T07:34:02Z</time>
      </trkpt>
      <trkpt lat="42.500347997993231" lon="2.097905036062002">
        <ele>1576.7</ele>
        <time>2025-05-15T07:34:03Z</time>
      </trkpt>
      <trkpt lat="42.501362962648273" lon="2.099055033177137">
        <ele>1578.1400000000001</ele>
        <time>2025-05-15T07:34:10Z</time>
      </trkpt>
      <trkpt lat="42.501522973179817" lon="2.099173972383142">
        <ele>1578.1400000000001</ele>
        <time>2025-05-15T07:34:11Z</time>
      </trkpt>
      <trkpt lat="42.501694969832897" lon="2.099266005679965">
        <ele>1578.1400000000001</ele>
        <time>2025-05-15T07:34:12Z</time>
      </trkpt>
      <trkpt lat="42.501879958435893" lon="2.099312022328377">
        <ele>1578.1400000000001</ele>
        <time>2025-05-15T07:34:13Z</time>
      </trkpt>
      <trkpt lat="42.502067964524031" lon="2.099358960986137">
        <ele>1578.1400000000001</ele>
        <time>2025-05-15T07:34:14Z</time>
      </trkpt>
      <trkpt lat="42.502438025549054" lon="2.099464992061257">
        <ele>1577.1800000000001</ele>
        <time>2025-05-15T07:34:16Z</time>
      </trkpt>
      <trkpt lat="42.502607004716992" lon="2.099557025358081">
        <ele>1576.7</ele>
        <time>2025-05-15T07:34:17Z</time>
      </trkpt>
      <trkpt lat="42.502762991935015" lon="2.099694991484284">
        <ele>1576.22</ele>
        <time>2025-05-15T07:34:18Z</time>
      </trkpt>
      <trkpt lat="42.502915039658546" lon="2.099837986752391">
        <ele>1576.22</ele>
        <time>2025-05-15T07:34:19Z</time>
      </trkpt>
      <trkpt lat="42.503044037148356" lon="2.100031021982431">
        <ele>1575.74</ele>
        <time>2025-05-15T07:34:20Z</time>
      </trkpt>
      <trkpt lat="42.503155013546348" lon="2.100245011970401">
        <ele>1575.74</ele>
        <time>2025-05-15T07:34:21Z</time>
      </trkpt>
      <trkpt lat="42.5032680016011" lon="2.100463025271893">
        <ele>1575.74</ele>
        <time>2025-05-15T07:34:22Z</time>
      </trkpt>
      <trkpt lat="42.503370009362698" lon="2.100704004988074">
        <ele>1575.26</ele>
        <time>2025-05-15T07:34:23Z</time>
      </trkpt>
      <trkpt lat="42.503472017124295" lon="2.100948002189398">
        <ele>1575.26</ele>
        <time>2025-05-15T07:34:24Z</time>
      </trkpt>
      <trkpt lat="42.504402995109558" lon="2.103283032774925">
        <ele>1572.8499999999999</ele>
        <time>2025-05-15T07:34:33Z</time>
      </trkpt>
      <trkpt lat="42.504433002322912" lon="2.103572962805629">
        <ele>1572.8499999999999</ele>
        <time>2025-05-15T07:34:34Z</time>
      </trkpt>
      <trkpt lat="42.504457980394363" lon="2.103859037160873">
        <ele>1572.3699999999999</ele>
        <time>2025-05-15T07:34:35Z</time>
      </trkpt>
      <trkpt lat="42.504506008699536" lon="2.1044119913131">
        <ele>1572.3699999999999</ele>
        <time>2025-05-15T07:34:37Z</time>
      </trkpt>
      <trkpt lat="42.5045579764992" lon="2.104677027091384">
        <ele>1572.3699999999999</ele>
        <time>2025-05-15T07:34:38Z</time>
      </trkpt>
      <trkpt lat="42.504781018942595" lon="2.105757035315037">
        <ele>1571.4100000000001</ele>
        <time>2025-05-15T07:34:42Z</time>
      </trkpt>
      <trkpt lat="42.504783030599356" lon="2.10604696534574">
        <ele>1571.4100000000001</ele>
        <time>2025-05-15T07:34:43Z</time>
      </trkpt>
      <trkpt lat="42.504765009507537" lon="2.106334967538714">
        <ele>1571.8900000000001</ele>
        <time>2025-05-15T07:34:44Z</time>
      </trkpt>
      <trkpt lat="42.504709018394351" lon="2.107208026573062">
        <ele>1572.3699999999999</ele>
        <time>2025-05-15T07:34:47Z</time>
      </trkpt>
      <trkpt lat="42.504739025607705" lon="2.107494017109275">
        <ele>1572.8499999999999</ele>
        <time>2025-05-15T07:34:48Z</time>
      </trkpt>
      <trkpt lat="42.504833992570639" lon="2.108668992295861">
        <ele>1573.8199999999999</ele>
        <time>2025-05-15T07:34:52Z</time>
      </trkpt>
      <trkpt lat="42.5048169773072" lon="2.10950399748981">
        <ele>1574.3</ele>
        <time>2025-05-15T07:34:55Z</time>
      </trkpt>
      <trkpt lat="42.504846984520555" lon="2.109723016619682">
        <ele>1573.8199999999999</ele>
        <time>2025-05-15T07:34:56Z</time>
      </trkpt>
      <trkpt lat="42.504914961755276" lon="2.109928959980607">
        <ele>1574.3</ele>
        <time>2025-05-15T07:34:57Z</time>
      </trkpt>
      <trkpt lat="42.505011018365622" lon="2.110129036009312">
        <ele>1574.3</ele>
        <time>2025-05-15T07:34:58Z</time>
      </trkpt>
      <trkpt lat="42.505124006420374" lon="2.11032098159194">
        <ele>1573.8199999999999</ele>
        <time>2025-05-15T07:34:59Z</time>
      </trkpt>
      <trkpt lat="42.505236994475126" lon="2.110510999336839">
        <ele>1573.8199999999999</ele>
        <time>2025-05-15T07:35:00Z</time>
      </trkpt>
      <trkpt lat="42.505313018336892" lon="2.110722977668047">
        <ele>1573.8199999999999</ele>
        <time>2025-05-15T07:35:01Z</time>
      </trkpt>
      <trkpt lat="42.505359034985304" lon="2.110961023718119">
        <ele>1573.3299999999999</ele>
        <time>2025-05-15T07:35:02Z</time>
      </trkpt>
      <trkpt lat="42.50545802526176" lon="2.111418005079031">
        <ele>1573.3299999999999</ele>
        <time>2025-05-15T07:35:04Z</time>
      </trkpt>
      <trkpt lat="42.505540000274777" lon="2.111624032258987">
        <ele>1573.3299999999999</ele>
        <time>2025-05-15T07:35:05Z</time>
      </trkpt>
      <trkpt lat="42.505644019693136" lon="2.111812960356474">
        <ele>1573.3299999999999</ele>
        <time>2025-05-15T07:35:06Z</time>
      </trkpt>
      <trkpt lat="42.505762036889791" lon="2.111999960616231">
        <ele>1573.3299999999999</ele>
        <time>2025-05-15T07:35:07Z</time>
      </trkpt>
      <trkpt lat="42.505904026329517" lon="2.112178998067975">
        <ele>1573.3299999999999</ele>
        <time>2025-05-15T07:35:08Z</time>
      </trkpt>
      <trkpt lat="42.506568040698767" lon="2.113049039617181">
        <ele>1573.3299999999999</ele>
        <time>2025-05-15T07:35:13Z</time>
      </trkpt>
      <trkpt lat="42.506650015711784" lon="2.113251965492964">
        <ele>1573.3299999999999</ele>
        <time>2025-05-15T07:35:14Z</time>
      </trkpt>
      <trkpt lat="42.506717992946506" lon="2.113466961309314">
        <ele>1572.8499999999999</ele>
        <time>2025-05-15T07:35:15Z</time>
      </trkpt>
      <trkpt lat="42.506743976846337" lon="2.113696038722992">
        <ele>1572.8499999999999</ele>
        <time>2025-05-15T07:35:16Z</time>
      </trkpt>
      <trkpt lat="42.506763003766537" lon="2.113916985690594">
        <ele>1572.8499999999999</ele>
        <time>2025-05-15T07:35:17Z</time>
      </trkpt>
      <trkpt lat="42.506800973787904" lon="2.11431797593832">
        <ele>1572.8499999999999</ele>
        <time>2025-05-15T07:35:19Z</time>
      </trkpt>
      <trkpt lat="42.507090987637639" lon="2.115319026634097">
        <ele>1570.9300000000001</ele>
        <time>2025-05-15T07:35:26Z</time>
      </trkpt>
      <trkpt lat="42.50715603120625" lon="2.11536998860538">
        <ele>1571.4100000000001</ele>
        <time>2025-05-15T07:35:27Z</time>
      </trkpt>
      <trkpt lat="42.507202969864011" lon="2.115407958626747">
        <ele>1571.4100000000001</ele>
        <time>2025-05-15T07:35:28Z</time>
      </trkpt>
      <trkpt lat="42.507248986512423" lon="2.115445006638765">
        <ele>1571.4100000000001</ele>
        <time>2025-05-15T07:35:29Z</time>
      </trkpt>
      <trkpt lat="42.50724102370441" lon="2.115640975534916">
        <ele>1571.4100000000001</ele>
        <time>2025-05-15T07:35:30Z</time>
      </trkpt>
      <trkpt lat="42.507255021482706" lon="2.115721022710204">
        <ele>1571.4100000000001</ele>
        <time>2025-05-15T07:35:31Z</time>
      </trkpt>
      <trkpt lat="42.507329033687711" lon="2.115819007158279">
        <ele>1571.8900000000001</ele>
        <time>2025-05-15T07:35:32Z</time>
      </trkpt>
      <trkpt lat="42.507348982617259" lon="2.115834010764957">
        <ele>1571.8900000000001</ele>
        <time>2025-05-15T07:35:33Z</time>
      </trkpt>
      <trkpt lat="42.5075420178473" lon="2.115940963849425">
        <ele>1571.4100000000001</ele>
        <time>2025-05-15T07:35:34Z</time>
      </trkpt>
      <trkpt lat="42.507591973990202" lon="2.115980023518205">
        <ele>1571.4100000000001</ele>
        <time>2025-05-15T07:35:35Z</time>
      </trkpt>
      <trkpt lat="42.507687024772167" lon="2.116054035723209">
        <ele>1571.4100000000001</ele>
        <time>2025-05-15T07:35:36Z</time>
      </trkpt>
      <trkpt lat="42.507791966199875" lon="2.116106003522873">
        <ele>1571.4100000000001</ele>
        <time>2025-05-15T07:35:37Z</time>
      </trkpt>
      <trkpt lat="42.507917024195194" lon="2.116137016564608">
        <ele>1570.9300000000001</ele>
        <time>2025-05-15T07:35:38Z</time>
      </trkpt>
      <trkpt lat="42.508441982790828" lon="2.116298032924533">
        <ele>1569.49</ele>
        <time>2025-05-15T07:35:42Z</time>
      </trkpt>
      <trkpt lat="42.508540973067284" lon="2.116397023200989">
        <ele>1569.01</ele>
        <time>2025-05-15T07:35:43Z</time>
      </trkpt>
      <trkpt lat="42.508615991100669" lon="2.1164879668504">
        <ele>1568.53</ele>
        <time>2025-05-15T07:35:44Z</time>
      </trkpt>
      <trkpt lat="42.508679023012519" lon="2.116562984883785">
        <ele>1567.5699999999999</ele>
        <time>2025-05-15T07:35:45Z</time>
      </trkpt>
      <trkpt lat="42.508692014962435" lon="2.116635991260409">
        <ele>1567.0899999999999</ele>
        <time>2025-05-15T07:35:46Z</time>
      </trkpt>
      <trkpt lat="42.50870400108397" lon="2.116705980151892">
        <ele>1566.6099999999999</ele>
        <time>2025-05-15T07:35:47Z</time>
      </trkpt>
      <trkpt lat="42.508714981377125" lon="2.1167659945786">
        <ele>1565.6400000000001</ele>
        <time>2025-05-15T07:35:48Z</time>
      </trkpt>
      <trkpt lat="42.508725039660931" lon="2.116822991520166">
        <ele>1565.1600000000001</ele>
        <time>2025-05-15T07:35:49Z</time>
      </trkpt>
      <trkpt lat="42.508742976933718" lon="2.116928016766906">
        <ele>1564.6800000000001</ele>
        <time>2025-05-15T07:35:50Z</time>
      </trkpt>
      <trkpt lat="42.508727973327041" lon="2.116989037021995">
        <ele>1564.2</ele>
        <time>2025-05-15T07:35:51Z</time>
      </trkpt>
      <trkpt lat="42.50870400108397" lon="2.117086015641689">
        <ele>1563.72</ele>
        <time>2025-05-15T07:35:52Z</time>
      </trkpt>
      <trkpt lat="42.508671982213855" lon="2.117201015353203">
        <ele>1563.24</ele>
        <time>2025-05-15T07:35:53Z</time>
      </trkpt>
      <trkpt lat="42.508624037727714" lon="2.117316015064716">
        <ele>1563.24</ele>
        <time>2025-05-15T07:35:54Z</time>
      </trkpt>
      <trkpt lat="42.508322959765792" lon="2.118004001677036">
        <ele>1561.8</ele>
        <time>2025-05-15T07:35:59Z</time>
      </trkpt>
      <trkpt lat="42.50825397670269" lon="2.11814196780324">
        <ele>1561.8</ele>
        <time>2025-05-15T07:36:00Z</time>
      </trkpt>
      <trkpt lat="42.508164960891008" lon="2.118255039677024">
        <ele>1561.8</ele>
        <time>2025-05-15T07:36:01Z</time>
      </trkpt>
      <trkpt lat="42.50808097422123" lon="2.11835796944797">
        <ele>1561.3199999999999</ele>
        <time>2025-05-15T07:36:02Z</time>
      </trkpt>
      <trkpt lat="42.508006962016225" lon="2.118447991088033">
        <ele>1561.3199999999999</ele>
        <time>2025-05-15T07:36:03Z</time>
      </trkpt>
      <trkpt lat="42.507946025580168" lon="2.118523009121418">
        <ele>1561.3199999999999</ele>
        <time>2025-05-15T07:36:04Z</time>
      </trkpt>
      <trkpt lat="42.507713008671999" lon="2.118838001042604">
        <ele>1561.3199999999999</ele>
        <time>2025-05-15T07:36:08Z</time>
      </trkpt>
      <trkpt lat="42.50767101533711" lon="2.118940008804202">
        <ele>1561.3199999999999</ele>
        <time>2025-05-15T07:36:09Z</time>
      </trkpt>
      <trkpt lat="42.507605971768498" lon="2.119094990193844">
        <ele>1561.3199999999999</ele>
        <time>2025-05-15T07:36:10Z</time>
      </trkpt>
      <trkpt lat="42.507437998428941" lon="2.11975296959281">
        <ele>1560.3599999999999</ele>
        <time>2025-05-15T07:36:14Z</time>
      </trkpt>
      <trkpt lat="42.507364992052317" lon="2.119899988174439">
        <ele>1560.3599999999999</ele>
        <time>2025-05-15T07:36:15Z</time>
      </trkpt>
      <trkpt lat="42.507277987897396" lon="2.120042983442545">
        <ele>1559.8800000000001</ele>
        <time>2025-05-15T07:36:16Z</time>
      </trkpt>
      <trkpt lat="42.506989985704422" lon="2.120436010882258">
        <ele>1558.9200000000001</ele>
        <time>2025-05-15T07:36:19Z</time>
      </trkpt>
      <trkpt lat="42.506799967959523" lon="2.12069601751864">
        <ele>1558.4300000000001</ele>
        <time>2025-05-15T07:36:21Z</time>
      </trkpt>
      <trkpt lat="42.506712041795254" lon="2.120815040543675">
        <ele>1557.95</ele>
        <time>2025-05-15T07:36:22Z</time>
      </trkpt>
      <trkpt lat="42.506669964641333" lon="2.120964992791414">
        <ele>1557.95</ele>
        <time>2025-05-15T07:36:23Z</time>
      </trkpt>
      <trkpt lat="42.506651021540165" lon="2.121131960302591">
        <ele>1557.95</ele>
        <time>2025-05-15T07:36:24Z</time>
      </trkpt>
      <trkpt lat="42.506651021540165" lon="2.121295994147658">
        <ele>1557.95</ele>
        <time>2025-05-15T07:36:25Z</time>
      </trkpt>
      <trkpt lat="42.506674993783236" lon="2.121464973315597">
        <ele>1557.95</ele>
        <time>2025-05-15T07:36:26Z</time>
      </trkpt>
      <trkpt lat="42.50672603957355" lon="2.122002001851797">
        <ele>1557.47</ele>
        <time>2025-05-15T07:36:29Z</time>
      </trkpt>
      <trkpt lat="42.506734002381563" lon="2.122499970719218">
        <ele>1557.47</ele>
        <time>2025-05-15T07:36:32Z</time>
      </trkpt>
      <trkpt lat="42.506767027080059" lon="2.122645983472467">
        <ele>1557.47</ele>
        <time>2025-05-15T07:36:33Z</time>
      </trkpt>
      <trkpt lat="42.506828969344497" lon="2.122756959870458">
        <ele>1557.47</ele>
        <time>2025-05-15T07:36:34Z</time>
      </trkpt>
      <trkpt lat="42.50689996406436" lon="2.122873971238732">
        <ele>1557.47</ele>
        <time>2025-05-15T07:36:35Z</time>
      </trkpt>
      <trkpt lat="42.506991997361183" lon="2.12297597900033">
        <ele>1556.99</ele>
        <time>2025-05-15T07:36:36Z</time>
      </trkpt>
      <trkpt lat="42.507084030658007" lon="2.123075975105166">
        <ele>1556.99</ele>
        <time>2025-05-15T07:36:37Z</time>
      </trkpt>
      <trkpt lat="42.507160976529121" lon="2.12318804115057">
        <ele>1556.99</ele>
        <time>2025-05-15T07:36:38Z</time>
      </trkpt>
      <trkpt lat="42.507274970412254" lon="2.123457016423345">
        <ele>1557.47</ele>
        <time>2025-05-15T07:36:40Z</time>
      </trkpt>
      <trkpt lat="42.5075229909271" lon="2.124060010537505">
        <ele>1558.9200000000001</ele>
        <time>2025-05-15T07:36:44Z</time>
      </trkpt>
      <trkpt lat="42.507615024223924" lon="2.124167969450355">
        <ele>1558.9200000000001</ele>
        <time>2025-05-15T07:36:45Z</time>
      </trkpt>
      <trkpt lat="42.507721977308393" lon="2.124269977211952">
        <ele>1559.4000000000001</ele>
        <time>2025-05-15T07:36:46Z</time>
      </trkpt>
      <trkpt lat="42.507937978953123" lon="2.124473992735148">
        <ele>1559.4000000000001</ele>
        <time>2025-05-15T07:36:48Z</time>
      </trkpt>
      <trkpt lat="42.508036969229579" lon="2.124583963304758">
        <ele>1558.9200000000001</ele>
        <time>2025-05-15T07:36:49Z</time>
      </trkpt>
      <trkpt lat="42.508141994476318" lon="2.124683959409595">
        <ele>1558.4300000000001</ele>
        <time>2025-05-15T07:36:50Z</time>
      </trkpt>
      <trkpt lat="42.5082500372082" lon="2.124775992706418">
        <ele>1557.47</ele>
        <time>2025-05-15T07:36:51Z</time>
      </trkpt>
      <trkpt lat="42.50836000777781" lon="2.124854028224945">
        <ele>1556.51</ele>
        <time>2025-05-15T07:36:52Z</time>
      </trkpt>
      <trkpt lat="42.50846897251904" lon="2.124942960217595">
        <ele>1555.55</ele>
        <time>2025-05-15T07:36:53Z</time>
      </trkpt>
      <trkpt lat="42.508581960573792" lon="2.12503700517118">
        <ele>1555.0699999999999</ele>
        <time>2025-05-15T07:36:54Z</time>
      </trkpt>
      <trkpt lat="42.50868396833539" lon="2.125168014317751">
        <ele>1554.1099999999999</ele>
        <time>2025-05-15T07:36:55Z</time>
      </trkpt>
      <trkpt lat="42.50876703299582" lon="2.12531503289938">
        <ele>1553.1500000000001</ele>
        <time>2025-05-15T07:36:56Z</time>
      </trkpt>
      <trkpt lat="42.508846996352077" lon="2.125460039824247">
        <ele>1552.6700000000001</ele>
        <time>2025-05-15T07:36:57Z</time>
      </trkpt>
      <trkpt lat="42.509009018540382" lon="2.12570202536881">
        <ele>1550.74</ele>
        <time>2025-05-15T07:36:59Z</time>
      </trkpt>
      <trkpt lat="42.509067021310329" lon="2.125747036188841">
        <ele>1549.78</ele>
        <time>2025-05-15T07:37:00Z</time>
      </trkpt>
      <trkpt lat="42.509152013808489" lon="2.125747036188841">
        <ele>1548.8199999999999</ele>
        <time>2025-05-15T07:37:01Z</time>
      </trkpt>
      <trkpt lat="42.509214961901307" lon="2.125747036188841">
        <ele>1547.8599999999999</ele>
        <time>2025-05-15T07:37:02Z</time>
      </trkpt>
      <trkpt lat="42.509267013520002" lon="2.12568199262023">
        <ele>1546.4200000000001</ele>
        <time>2025-05-15T07:37:03Z</time>
      </trkpt>
      <trkpt lat="42.509304983541369" lon="2.125608986243606">
        <ele>1545.9400000000001</ele>
        <time>2025-05-15T07:37:04Z</time>
      </trkpt>
      <trkpt lat="42.509323004633188" lon="2.1254469640553">
        <ele>1544.98</ele>
        <time>2025-05-15T07:37:05Z</time>
      </trkpt>
      <trkpt lat="42.509313030168414" lon="2.125326013192534">
        <ele>1544.5</ele>
        <time>2025-05-15T07:37:06Z</time>
      </trkpt>
      <trkpt lat="42.509300960227847" lon="2.125155022367835">
        <ele>1543.53</ele>
        <time>2025-05-15T07:37:07Z</time>
      </trkpt>
      <trkpt lat="42.509300960227847" lon="2.124796025454998">
        <ele>1541.6099999999999</ele>
        <time>2025-05-15T07:37:09Z</time>
      </trkpt>
      <trkpt lat="42.509376984089613" lon="2.124497964978218">
        <ele>1539.21</ele>
        <time>2025-05-15T07:37:11Z</time>
      </trkpt>
      <trkpt lat="42.509430041536689" lon="2.124330997467041">
        <ele>1538.25</ele>
        <time>2025-05-15T07:37:12Z</time>
      </trkpt>
      <trkpt lat="42.509516039863229" lon="2.124198982492089">
        <ele>1537.29</ele>
        <time>2025-05-15T07:37:13Z</time>
      </trkpt>
      <trkpt lat="42.510115010663867" lon="2.123307986184955">
        <ele>1531.52</ele>
        <time>2025-05-15T07:37:19Z</time>
      </trkpt>
      <trkpt lat="42.51020897179842" lon="2.123193992301822">
        <ele>1530.5599999999999</ele>
        <time>2025-05-15T07:37:20Z</time>
      </trkpt>
      <trkpt lat="42.510333023965359" lon="2.123150993138552">
        <ele>1529.5899999999999</ele>
        <time>2025-05-15T07:37:21Z</time>
      </trkpt>
      <trkpt lat="42.510461015626788" lon="2.123156022280455">
        <ele>1528.6300000000001</ele>
        <time>2025-05-15T07:37:22Z</time>
      </trkpt>
      <trkpt lat="42.510597975924611" lon="2.123186029493809">
        <ele>1527.6700000000001</ele>
        <time>2025-05-15T07:37:23Z</time>
      </trkpt>
      <trkpt lat="42.510735020041466" lon="2.123216958716512">
        <ele>1526.71</ele>
        <time>2025-05-15T07:37:24Z</time>
      </trkpt>
      <trkpt lat="42.51085395924747" lon="2.123223999515176">
        <ele>1525.27</ele>
        <time>2025-05-15T07:37:25Z</time>
      </trkpt>
      <trkpt lat="42.51095999032259" lon="2.123176977038384">
        <ele>1524.3099999999999</ele>
        <time>2025-05-15T07:37:26Z</time>
      </trkpt>
      <trkpt lat="42.511050011962652" lon="2.123117968440056">
        <ele>1523.8299999999999</ele>
        <time>2025-05-15T07:37:27Z</time>
      </trkpt>
      <trkpt lat="42.511127963662148" lon="2.123036999255419">
        <ele>1523.3499999999999</ele>
        <time>2025-05-15T07:37:28Z</time>
      </trkpt>
      <trkpt lat="42.511197030544281" lon="2.122966004535556">
        <ele>1522.3900000000001</ele>
        <time>2025-05-15T07:37:29Z</time>
      </trkpt>
      <trkpt lat="42.511657029390335" lon="2.122522015124559">
        <ele>1518.54</ele>
        <time>2025-05-15T07:37:36Z</time>
      </trkpt>
      <trkpt lat="42.511732969433069" lon="2.122510029003024">
        <ele>1518.54</ele>
        <time>2025-05-15T07:37:37Z</time>
      </trkpt>
      <trkpt lat="42.511796001344919" lon="2.122539030387998">
        <ele>1518.0599999999999</ele>
        <time>2025-05-15T07:37:38Z</time>
      </trkpt>
      <trkpt lat="42.511870013549924" lon="2.1225889865309">
        <ele>1518.0599999999999</ele>
        <time>2025-05-15T07:37:39Z</time>
      </trkpt>
      <trkpt lat="42.511943019926548" lon="2.122638020664454">
        <ele>1517.5799999999999</ele>
        <time>2025-05-15T07:37:40Z</time>
      </trkpt>
      <trkpt lat="42.512000016868114" lon="2.122700968757272">
        <ele>1517.5799999999999</ele>
        <time>2025-05-15T07:37:41Z</time>
      </trkpt>
      <trkpt lat="42.512049973011017" lon="2.122756037861109">
        <ele>1517.0999999999999</ele>
        <time>2025-05-15T07:37:42Z</time>
      </trkpt>
      <trkpt lat="42.512096995487809" lon="2.122808005660772">
        <ele>1517.0999999999999</ele>
        <time>2025-05-15T07:37:43Z</time>
      </trkpt>
      <trkpt lat="42.512154998257756" lon="2.122871959581971">
        <ele>1516.6199999999999</ele>
        <time>2025-05-15T07:37:44Z</time>
      </trkpt>
      <trkpt lat="42.512166984379292" lon="2.122954018414021">
        <ele>1516.6199999999999</ele>
        <time>2025-05-15T07:37:45Z</time>
      </trkpt>
      <trkpt lat="42.512170001864433" lon="2.123054014518857">
        <ele>1516.6199999999999</ele>
        <time>2025-05-15T07:37:46Z</time>
      </trkpt>
      <trkpt lat="42.512148041278124" lon="2.123159961774945">
        <ele>1516.6199999999999</ele>
        <time>2025-05-15T07:37:47Z</time>
      </trkpt>
      <trkpt lat="42.512122979387641" lon="2.123283008113504">
        <ele>1516.1400000000001</ele>
        <time>2025-05-15T07:37:48Z</time>
      </trkpt>
      <trkpt lat="42.512095989659429" lon="2.123412005603313">
        <ele>1516.1400000000001</ele>
        <time>2025-05-15T07:37:49Z</time>
      </trkpt>
      <trkpt lat="42.512067994102836" lon="2.123546032235026">
        <ele>1516.1400000000001</ele>
        <time>2025-05-15T07:37:50Z</time>
      </trkpt>
      <trkpt lat="42.511965986341238" lon="2.123791035264731">
        <ele>1515.6600000000001</ele>
        <time>2025-05-15T07:37:52Z</time>
      </trkpt>
      <trkpt lat="42.511878982186317" lon="2.123889019712806">
        <ele>1515.6600000000001</ele>
        <time>2025-05-15T07:37:53Z</time>
      </trkpt>
      <trkpt lat="42.511778986081481" lon="2.12396495975554">
        <ele>1515.6600000000001</ele>
        <time>2025-05-15T07:37:54Z</time>
      </trkpt>
      <trkpt lat="42.511672032997012" lon="2.124032014980912">
        <ele>1515.6600000000001</ele>
        <time>2025-05-15T07:37:55Z</time>
      </trkpt>
      <trkpt lat="42.51156298443675" lon="2.124099992215633">
        <ele>1515.6600000000001</ele>
        <time>2025-05-15T07:37:56Z</time>
      </trkpt>
      <trkpt lat="42.51145301386714" lon="2.124168975278735">
        <ele>1515.6600000000001</ele>
        <time>2025-05-15T07:37:57Z</time>
      </trkpt>
      <trkpt lat="42.511343965306878" lon="2.124237036332488">
        <ele>1515.6600000000001</ele>
        <time>2025-05-15T07:37:58Z</time>
      </trkpt>
      <trkpt lat="42.511242041364312" lon="2.124300990253687">
        <ele>1516.1400000000001</ele>
        <time>2025-05-15T07:37:59Z</time>
      </trkpt>
      <trkpt lat="42.511146990582347" lon="2.124359998852015">
        <ele>1516.1400000000001</ele>
        <time>2025-05-15T07:38:00Z</time>
      </trkpt>
      <trkpt lat="42.511083958670497" lon="2.124451026320458">
        <ele>1516.6199999999999</ele>
        <time>2025-05-15T07:38:01Z</time>
      </trkpt>
      <trkpt lat="42.511021010577679" lon="2.124569965526462">
        <ele>1516.6199999999999</ele>
        <time>2025-05-15T07:38:02Z</time>
      </trkpt>
      <trkpt lat="42.51095999032259" lon="2.124684965237975">
        <ele>1516.6199999999999</ele>
        <time>2025-05-15T07:38:03Z</time>
      </trkpt>
      <trkpt lat="42.510939035564661" lon="2.124799964949489">
        <ele>1516.1400000000001</ele>
        <time>2025-05-15T07:38:04Z</time>
      </trkpt>
      <trkpt lat="42.510954039171338" lon="2.124941032379866">
        <ele>1516.1400000000001</ele>
        <time>2025-05-15T07:38:05Z</time>
      </trkpt>
      <trkpt lat="42.510969964787364" lon="2.125091990455985">
        <ele>1516.6199999999999</ele>
        <time>2025-05-15T07:38:06Z</time>
      </trkpt>
      <trkpt lat="42.510986980050802" lon="2.12525200098753">
        <ele>1516.6199999999999</ele>
        <time>2025-05-15T07:38:07Z</time>
      </trkpt>
      <trkpt lat="42.511094016954303" lon="2.125728009268642">
        <ele>1515.6600000000001</ele>
        <time>2025-05-15T07:38:10Z</time>
      </trkpt>
      <trkpt lat="42.511133998632431" lon="2.125891037285328">
        <ele>1515.6600000000001</ele>
        <time>2025-05-15T07:38:11Z</time>
      </trkpt>
      <trkpt lat="42.511245980858803" lon="2.126364028081298">
        <ele>1513.73</ele>
        <time>2025-05-15T07:38:14Z</time>
      </trkpt>
      <trkpt lat="42.511274982243776" lon="2.126497970893979">
        <ele>1513.73</ele>
        <time>2025-05-15T07:38:15Z</time>
      </trkpt>
      <trkpt lat="42.511257966980338" lon="2.126674996688962">
        <ele>1513.25</ele>
        <time>2025-05-15T07:38:16Z</time>
      </trkpt>
      <trkpt lat="42.511223014444113" lon="2.126826038584113">
        <ele>1512.77</ele>
        <time>2025-05-15T07:38:17Z</time>
      </trkpt>
      <trkpt lat="42.511169034987688" lon="2.126978002488613">
        <ele>1512.77</ele>
        <time>2025-05-15T07:38:18Z</time>
      </trkpt>
      <trkpt lat="42.51093802973628" lon="2.127957008779049">
        <ele>1509.8900000000001</ele>
        <time>2025-05-15T07:38:24Z</time>
      </trkpt>
      <trkpt lat="42.510888995602727" lon="2.128096986562014">
        <ele>1509.8900000000001</ele>
        <time>2025-05-15T07:38:25Z</time>
      </trkpt>
      <trkpt lat="42.510825041681528" lon="2.1282790414989">
        <ele>1508.9300000000001</ele>
        <time>2025-05-15T07:38:26Z</time>
      </trkpt>
      <trkpt lat="42.510821018368006" lon="2.128381971269846">
        <ele>1508.45</ele>
        <time>2025-05-15T07:38:27Z</time>
      </trkpt>
      <trkpt lat="42.510815989226103" lon="2.128528989851475">
        <ele>1507.97</ele>
        <time>2025-05-15T07:38:28Z</time>
      </trkpt>
      <trkpt lat="42.510806014761329" lon="2.128810035064817">
        <ele>1506.52</ele>
        <time>2025-05-15T07:38:30Z</time>
      </trkpt>
      <trkpt lat="42.510797968134284" lon="2.128906007856131">
        <ele>1506.04</ele>
        <time>2025-05-15T07:38:31Z</time>
      </trkpt>
      <trkpt lat="42.510736025869846" lon="2.128964010626078">
        <ele>1505.5599999999999</ele>
        <time>2025-05-15T07:38:32Z</time>
      </trkpt>
      <trkpt lat="42.510667964816093" lon="2.129026036709547">
        <ele>1505.5599999999999</ele>
        <time>2025-05-15T07:38:33Z</time>
      </trkpt>
      <trkpt lat="42.510590013116598" lon="2.129098037257791">
        <ele>1505.5599999999999</ele>
        <time>2025-05-15T07:38:34Z</time>
      </trkpt>
      <trkpt lat="42.510504014790058" lon="2.129169031977654">
        <ele>1506.04</ele>
        <time>2025-05-15T07:38:35Z</time>
      </trkpt>
      <trkpt lat="42.510416004806757" lon="2.129213036969304">
        <ele>1506.04</ele>
        <time>2025-05-15T07:38:36Z</time>
      </trkpt>
      <trkpt lat="42.510323971509933" lon="2.129246983677149">
        <ele>1505.5599999999999</ele>
        <time>2025-05-15T07:38:37Z</time>
      </trkpt>
      <trkpt lat="42.510225987061858" lon="2.129256958141923">
        <ele>1505.5599999999999</ele>
        <time>2025-05-15T07:38:38Z</time>
      </trkpt>
      <trkpt lat="42.51012003980577" lon="2.129267016425729">
        <ele>1505.5599999999999</ele>
        <time>2025-05-15T07:38:39Z</time>
      </trkpt>
      <trkpt lat="42.510007973760366" lon="2.129277996718884">
        <ele>1505.0799999999999</ele>
        <time>2025-05-15T07:38:40Z</time>
      </trkpt>
      <trkpt lat="42.509902026504278" lon="2.129287971183658">
        <ele>1505.0799999999999</ele>
        <time>2025-05-15T07:38:41Z</time>
      </trkpt>
      <trkpt lat="42.509812004864216" lon="2.129376986995339">
        <ele>1504.5999999999999</ele>
        <time>2025-05-15T07:38:42Z</time>
      </trkpt>
      <trkpt lat="42.508902987465262" lon="2.130203023552895">
        <ele>1504.1199999999999</ele>
        <time>2025-05-15T07:38:50Z</time>
      </trkpt>
      <trkpt lat="42.508768960833549" lon="2.130224984139204">
        <ele>1504.1199999999999</ele>
        <time>2025-05-15T07:38:51Z</time>
      </trkpt>
      <trkpt lat="42.508173007518053" lon="2.130315005779266">
        <ele>1502.2</ele>
        <time>2025-05-15T07:38:55Z</time>
      </trkpt>
      <trkpt lat="42.50803898088634" lon="2.130388012155891">
        <ele>1502.2</ele>
        <time>2025-05-15T07:38:56Z</time>
      </trkpt>
      <trkpt lat="42.507915012538433" lon="2.130479961633682">
        <ele>1501.72</ele>
        <time>2025-05-15T07:38:57Z</time>
      </trkpt>
      <trkpt lat="42.507673026993871" lon="2.130679031834006">
        <ele>1500.27</ele>
        <time>2025-05-15T07:38:59Z</time>
      </trkpt>
      <trkpt lat="42.507540006190538" lon="2.130740974098444">
        <ele>1499.3099999999999</ele>
        <time>2025-05-15T07:39:00Z</time>
      </trkpt>
      <trkpt lat="42.507419977337122" lon="2.130797971040011">
        <ele>1498.3499999999999</ele>
        <time>2025-05-15T07:39:01Z</time>
      </trkpt>
      <trkpt lat="42.507341019809246" lon="2.130911964923143">
        <ele>1497.8699999999999</ele>
        <time>2025-05-15T07:39:02Z</time>
      </trkpt>
      <trkpt lat="42.507299026474357" lon="2.131041968241334">
        <ele>1496.9100000000001</ele>
        <time>2025-05-15T07:39:03Z</time>
      </trkpt>
      <trkpt lat="42.507281005382538" lon="2.13120399042964">
        <ele>1495.95</ele>
        <time>2025-05-15T07:39:04Z</time>
      </trkpt>
      <trkpt lat="42.507260972633958" lon="2.131382022053003">
        <ele>1494.99</ele>
        <time>2025-05-15T07:39:05Z</time>
      </trkpt>
      <trkpt lat="42.50724102370441" lon="2.131561981514096">
        <ele>1494.03</ele>
        <time>2025-05-15T07:39:06Z</time>
      </trkpt>
      <trkpt lat="42.507185032591224" lon="2.131771026179195">
        <ele>1493.0599999999999</ele>
        <time>2025-05-15T07:39:07Z</time>
      </trkpt>
      <trkpt lat="42.507130969315767" lon="2.131972024217248">
        <ele>1492.0999999999999</ele>
        <time>2025-05-15T07:39:08Z</time>
      </trkpt>
      <trkpt lat="42.507083024829626" lon="2.132173022255302">
        <ele>1491.1400000000001</ele>
        <time>2025-05-15T07:39:09Z</time>
      </trkpt>
      <trkpt lat="42.507052011787891" lon="2.132379971444607">
        <ele>1490.1800000000001</ele>
        <time>2025-05-15T07:39:10Z</time>
      </trkpt>
      <trkpt lat="42.50702896155417" lon="2.132589016109705">
        <ele>1489.22</ele>
        <time>2025-05-15T07:39:11Z</time>
      </trkpt>
      <trkpt lat="42.507039019837976" lon="2.132809963077307">
        <ele>1488.26</ele>
        <time>2025-05-15T07:39:12Z</time>
      </trkpt>
      <trkpt lat="42.50704899430275" lon="2.133024958893657">
        <ele>1487.78</ele>
        <time>2025-05-15T07:39:13Z</time>
      </trkpt>
      <trkpt lat="42.507065003737807" lon="2.133422009646893">
        <ele>1486.3399999999999</ele>
        <time>2025-05-15T07:39:15Z</time>
      </trkpt>
      <trkpt lat="42.507044970989227" lon="2.133633987978101">
        <ele>1485.3699999999999</ele>
        <time>2025-05-15T07:39:16Z</time>
      </trkpt>
      <trkpt lat="42.50696400180459" lon="2.133842026814818">
        <ele>1484.4100000000001</ele>
        <time>2025-05-15T07:39:17Z</time>
      </trkpt>
      <trkpt lat="42.506851013749838" lon="2.13397404178977">
        <ele>1483.45</ele>
        <time>2025-05-15T07:39:18Z</time>
      </trkpt>
      <trkpt lat="42.50672897323966" lon="2.134107984602451">
        <ele>1482.49</ele>
        <time>2025-05-15T07:39:19Z</time>
      </trkpt>
      <trkpt lat="42.506591007113457" lon="2.13421200402081">
        <ele>1481.53</ele>
        <time>2025-05-15T07:39:20Z</time>
      </trkpt>
      <trkpt lat="42.506453040987253" lon="2.13431803509593">
        <ele>1480.5699999999999</ele>
        <time>2025-05-15T07:39:21Z</time>
      </trkpt>
      <trkpt lat="42.506323959678411" lon="2.134422976523638">
        <ele>1479.6099999999999</ele>
        <time>2025-05-15T07:39:22Z</time>
      </trkpt>
      <trkpt lat="42.506225975230336" lon="2.134566977620125">
        <ele>1479.1300000000001</ele>
        <time>2025-05-15T07:39:23Z</time>
      </trkpt>
      <trkpt lat="42.506173001602292" lon="2.134724976494908">
        <ele>1478.1600000000001</ele>
        <time>2025-05-15T07:39:24Z</time>
      </trkpt>
      <trkpt lat="42.506139976903796" lon="2.134874006733298">
        <ele>1477.2</ele>
        <time>2025-05-15T07:39:25Z</time>
      </trkpt>
      <trkpt lat="42.506127990782261" lon="2.135023958981037">
        <ele>1476.24</ele>
        <time>2025-05-15T07:39:26Z</time>
      </trkpt>
      <trkpt lat="42.506167972460389" lon="2.135145999491215">
        <ele>1475.28</ele>
        <time>2025-05-15T07:39:27Z</time>
      </trkpt>
      <trkpt lat="42.506272997707129" lon="2.135268962010741">
        <ele>1474.3199999999999</ele>
        <time>2025-05-15T07:39:28Z</time>
      </trkpt>
      <trkpt lat="42.506379028782248" lon="2.135394020006061">
        <ele>1472.8800000000001</ele>
        <time>2025-05-15T07:39:29Z</time>
      </trkpt>
      <trkpt lat="42.506502997130156" lon="2.135487981140614">
        <ele>1471.9200000000001</ele>
        <time>2025-05-15T07:39:30Z</time>
      </trkpt>
      <trkpt lat="42.506645992398262" lon="2.135581020265818">
        <ele>1470.95</ele>
        <time>2025-05-15T07:39:31Z</time>
      </trkpt>
      <trkpt lat="42.507540006190538" lon="2.136265989392996">
        <ele>1463.74</ele>
        <time>2025-05-15T07:39:37Z</time>
      </trkpt>
      <trkpt lat="42.507621981203556" lon="2.136428011581302">
        <ele>1462.78</ele>
        <time>2025-05-15T07:39:38Z</time>
      </trkpt>
      <trkpt lat="42.507676966488361" lon="2.136607971042395">
        <ele>1461.3399999999999</ele>
        <time>2025-05-15T07:39:39Z</time>
      </trkpt>
      <trkpt lat="42.507798001170158" lon="2.137002004310489">
        <ele>1459.9000000000001</ele>
        <time>2025-05-15T07:39:41Z</time>
      </trkpt>
      <trkpt lat="42.507878970354795" lon="2.137168971821666">
        <ele>1458.9400000000001</ele>
        <time>2025-05-15T07:39:42Z</time>
      </trkpt>
      <trkpt lat="42.507978966459632" lon="2.137286989018321">
        <ele>1457.5</ele>
        <time>2025-05-15T07:39:43Z</time>
      </trkpt>
      <trkpt lat="42.508106958121061" lon="2.137383967638016">
        <ele>1457.02</ele>
        <time>2025-05-15T07:39:44Z</time>
      </trkpt>
      <trkpt lat="42.508242996409535" lon="2.137487987056375">
        <ele>1456.05</ele>
        <time>2025-05-15T07:39:45Z</time>
      </trkpt>
      <trkpt lat="42.508615991100669" lon="2.137808008119464">
        <ele>1453.6500000000001</ele>
        <time>2025-05-15T07:39:48Z</time>
      </trkpt>
      <trkpt lat="42.50868396833539" lon="2.137911021709442">
        <ele>1452.6900000000001</ele>
        <time>2025-05-15T07:39:49Z</time>
      </trkpt>
      <trkpt lat="42.508699977770448" lon="2.138042030856013">
        <ele>1451.73</ele>
        <time>2025-05-15T07:39:50Z</time>
      </trkpt>
      <trkpt lat="42.508653039112687" lon="2.138155018910766">
        <ele>1450.77</ele>
        <time>2025-05-15T07:39:51Z</time>
      </trkpt>
      <trkpt lat="42.50859797000885" lon="2.138284016400576">
        <ele>1449.8099999999999</ele>
        <time>2025-05-15T07:39:52Z</time>
      </trkpt>
      <trkpt lat="42.508537033572793" lon="2.138428017497063">
        <ele>1448.8399999999999</ele>
        <time>2025-05-15T07:39:53Z</time>
      </trkpt>
      <trkpt lat="42.508469978347421" lon="2.138585010543466">
        <ele>1447.8800000000001</ele>
        <time>2025-05-15T07:39:54Z</time>
      </trkpt>
      <trkpt lat="42.508399989455938" lon="2.138777039945126">
        <ele>1446.4400000000001</ele>
        <time>2025-05-15T07:39:55Z</time>
      </trkpt>
      <trkpt lat="42.508399989455938" lon="2.138997986912727">
        <ele>1445</ele>
        <time>2025-05-15T07:39:56Z</time>
      </trkpt>
      <trkpt lat="42.508399989455938" lon="2.139236032962799">
        <ele>1444.04</ele>
        <time>2025-05-15T07:39:57Z</time>
      </trkpt>
      <trkpt lat="42.508399989455938" lon="2.139492016285658">
        <ele>1443.0799999999999</ele>
        <time>2025-05-15T07:39:58Z</time>
      </trkpt>
      <trkpt lat="42.508278032764792" lon="2.141616996377707">
        <ele>1432.02</ele>
        <time>2025-05-15T07:40:06Z</time>
      </trkpt>
      <trkpt lat="42.50823000445962" lon="2.141877003014088">
        <ele>1430.5799999999999</ele>
        <time>2025-05-15T07:40:07Z</time>
      </trkpt>
      <trkpt lat="42.508049039170146" lon="2.142345970496535">
        <ele>1427.21</ele>
        <time>2025-05-15T07:40:09Z</time>
      </trkpt>
      <trkpt lat="42.507956000044942" lon="2.14256901293993">
        <ele>1425.29</ele>
        <time>2025-05-15T07:40:10Z</time>
      </trkpt>
      <trkpt lat="42.507821973413229" lon="2.142754001542926">
        <ele>1423.8499999999999</ele>
        <time>2025-05-15T07:40:11Z</time>
      </trkpt>
      <trkpt lat="42.507301960140467" lon="2.143455985933542">
        <ele>1418.0799999999999</ele>
        <time>2025-05-15T07:40:15Z</time>
      </trkpt>
      <trkpt lat="42.507188972085714" lon="2.143619013950229">
        <ele>1416.6400000000001</ele>
        <time>2025-05-15T07:40:16Z</time>
      </trkpt>
      <trkpt lat="42.507079001516104" lon="2.143780030310154">
        <ele>1415.6800000000001</ele>
        <time>2025-05-15T07:40:17Z</time>
      </trkpt>
      <trkpt lat="42.506956038996577" lon="2.143912967294455">
        <ele>1414.24</ele>
        <time>2025-05-15T07:40:18Z</time>
      </trkpt>
      <trkpt lat="42.506841039285064" lon="2.144035007804632">
        <ele>1413.28</ele>
        <time>2025-05-15T07:40:19Z</time>
      </trkpt>
      <trkpt lat="42.506743976846337" lon="2.14413802139461">
        <ele>1411.8299999999999</ele>
        <time>2025-05-15T07:40:20Z</time>
      </trkpt>
      <trkpt lat="42.506678011268377" lon="2.144225025549531">
        <ele>1410.8699999999999</ele>
        <time>2025-05-15T07:40:21Z</time>
      </trkpt>
      <trkpt lat="42.506627971306443" lon="2.144311023876071">
        <ele>1409.9100000000001</ele>
        <time>2025-05-15T07:40:22Z</time>
      </trkpt>
      <trkpt lat="42.506583966314793" lon="2.144386041909456">
        <ele>1408.95</ele>
        <time>2025-05-15T07:40:23Z</time>
      </trkpt>
      <trkpt lat="42.506537027657032" lon="2.144458964467049">
        <ele>1407.99</ele>
        <time>2025-05-15T07:40:24Z</time>
      </trkpt>
      <trkpt lat="42.506468966603279" lon="2.14454404078424">
        <ele>1406.55</ele>
        <time>2025-05-15T07:40:26Z</time>
      </trkpt>
      <trkpt lat="42.506464021280408" lon="2.144592991098762">
        <ele>1406.0699999999999</ele>
        <time>2025-05-15T07:40:27Z</time>
      </trkpt>
      <trkpt lat="42.506457986310124" lon="2.14465300552547">
        <ele>1405.0999999999999</ele>
        <time>2025-05-15T07:40:28Z</time>
      </trkpt>
      <trkpt lat="42.506453040987253" lon="2.144702961668372">
        <ele>1404.1400000000001</ele>
        <time>2025-05-15T07:40:29Z</time>
      </trkpt>
      <trkpt lat="42.506449017673731" lon="2.144744032993913">
        <ele>1403.6600000000001</ele>
        <time>2025-05-15T07:40:30Z</time>
      </trkpt>
      <trkpt lat="42.50644700601697" lon="2.14475903660059">
        <ele>1403.1800000000001</ele>
        <time>2025-05-15T07:40:31Z</time>
      </trkpt>
      <trkpt lat="42.50644700601697" lon="2.14475903660059">
        <ele>1402.22</ele>
        <time>2025-05-15T07:40:41Z</time>
      </trkpt>
      <trkpt lat="42.50644700601697" lon="2.14475903660059">
        <ele>1400.78</ele>
        <time>2025-05-15T07:41:26Z</time>
      </trkpt>
      <trkpt lat="42.50644700601697" lon="2.14475903660059">
        <ele>1401.26</ele>
        <time>2025-05-15T07:42:21Z</time>
      </trkpt>
      <trkpt lat="42.50644700601697" lon="2.14475903660059">
        <ele>1401.26</ele>
        <time>2025-05-15T07:42:31Z</time>
      </trkpt>
      <trkpt lat="42.50644700601697" lon="2.14475903660059">
        <ele>1401.26</ele>
        <time>2025-05-15T07:42:32Z</time>
      </trkpt>
      <trkpt lat="42.506393026560545" lon="2.144775968044996">
        <ele>1402.7</ele>
        <time>2025-05-15T07:44:25Z</time>
      </trkpt>
      <trkpt lat="42.506370982155204" lon="2.144803963601589">
        <ele>1412.79</ele>
        <time>2025-05-15T07:44:48Z</time>
      </trkpt>
      <trkpt lat="42.50644700601697" lon="2.14475903660059">
        <ele>1412.79</ele>
        <time>2025-05-15T07:44:50Z</time>
      </trkpt>
      <trkpt lat="42.506462009623647" lon="2.144768005236983">
        <ele>1412.79</ele>
        <time>2025-05-15T07:44:51Z</time>
      </trkpt>
      <trkpt lat="42.506500985473394" lon="2.144793989136815">
        <ele>1412.79</ele>
        <time>2025-05-15T07:44:52Z</time>
      </trkpt>
      <trkpt lat="42.506547002121806" lon="2.14482500217855">
        <ele>1412.3099999999999</ele>
        <time>2025-05-15T07:44:53Z</time>
      </trkpt>
      <trkpt lat="42.506582038477063" lon="2.144843023270369">
        <ele>1412.3099999999999</ele>
        <time>2025-05-15T07:44:54Z</time>
      </trkpt>
      <trkpt lat="42.50668304041028" lon="2.144822990521789">
        <ele>1411.8299999999999</ele>
        <time>2025-05-15T07:44:55Z</time>
      </trkpt>
      <trkpt lat="42.507502036169171" lon="2.144915023818612">
        <ele>1409.9100000000001</ele>
        <time>2025-05-15T07:45:01Z</time>
      </trkpt>
      <trkpt lat="42.507996987551451" lon="2.145068999379873">
        <ele>1407.51</ele>
        <time>2025-05-15T07:45:05Z</time>
      </trkpt>
      <trkpt lat="42.508088015019894" lon="2.14514602907002">
        <ele>1406.55</ele>
        <time>2025-05-15T07:45:06Z</time>
      </trkpt>
      <trkpt lat="42.508141994476318" lon="2.145260022953153">
        <ele>1405.5799999999999</ele>
        <time>2025-05-15T07:45:07Z</time>
      </trkpt>
      <trkpt lat="42.50816403888166" lon="2.145337974652648">
        <ele>1404.6199999999999</ele>
        <time>2025-05-15T07:45:08Z</time>
      </trkpt>
      <trkpt lat="42.508132020011544" lon="2.145496979355812">
        <ele>1403.1800000000001</ele>
        <time>2025-05-15T07:45:09Z</time>
      </trkpt>
      <trkpt lat="42.508096983656287" lon="2.145604016259313">
        <ele>1402.22</ele>
        <time>2025-05-15T07:45:10Z</time>
      </trkpt>
      <trkpt lat="42.508048033341765" lon="2.145708035677671">
        <ele>1401.26</ele>
        <time>2025-05-15T07:45:11Z</time>
      </trkpt>
      <trkpt lat="42.507993970066309" lon="2.145822029560804">
        <ele>1400.3</ele>
        <time>2025-05-15T07:45:12Z</time>
      </trkpt>
      <trkpt lat="42.507933033630252" lon="2.145950021222234">
        <ele>1399.3399999999999</ele>
        <time>2025-05-15T07:45:13Z</time>
      </trkpt>
      <trkpt lat="42.50775801949203" lon="2.146362997591496">
        <ele>1395.49</ele>
        <time>2025-05-15T07:45:16Z</time>
      </trkpt>
      <trkpt lat="42.507691970095038" lon="2.146517978981137">
        <ele>1394.05</ele>
        <time>2025-05-15T07:45:17Z</time>
      </trkpt>
      <trkpt lat="42.507687024772167" lon="2.146672960370779">
        <ele>1392.6099999999999</ele>
        <time>2025-05-15T07:45:18Z</time>
      </trkpt>
      <trkpt lat="42.507679983973503" lon="2.146850991994143">
        <ele>1391.1700000000001</ele>
        <time>2025-05-15T07:45:19Z</time>
      </trkpt>
      <trkpt lat="42.507674032822251" lon="2.147032041102648">
        <ele>1389.72</ele>
        <time>2025-05-15T07:45:20Z</time>
      </trkpt>
      <trkpt lat="42.507683001458645" lon="2.147204959765077">
        <ele>1388.28</ele>
        <time>2025-05-15T07:45:21Z</time>
      </trkpt>
      <trkpt lat="42.507717031985521" lon="2.147371005266905">
        <ele>1386.8399999999999</ele>
        <time>2025-05-15T07:45:22Z</time>
      </trkpt>
      <trkpt lat="42.507761958986521" lon="2.147526992484927">
        <ele>1385.4000000000001</ele>
        <time>2025-05-15T07:45:23Z</time>
      </trkpt>
      <trkpt lat="42.507828008383512" lon="2.14768398553133">
        <ele>1383.96</ele>
        <time>2025-05-15T07:45:24Z</time>
      </trkpt>
      <trkpt lat="42.507949965074658" lon="2.14802797883749">
        <ele>1381.0699999999999</ele>
        <time>2025-05-15T07:45:26Z</time>
      </trkpt>
      <trkpt lat="42.508003022521734" lon="2.148217996582389">
        <ele>1380.1099999999999</ele>
        <time>2025-05-15T07:45:27Z</time>
      </trkpt>
      <trkpt lat="42.508022971451283" lon="2.148432992398739">
        <ele>1378.6700000000001</ele>
        <time>2025-05-15T07:45:28Z</time>
      </trkpt>
      <trkpt lat="42.508033029735088" lon="2.148647988215089">
        <ele>1377.71</ele>
        <time>2025-05-15T07:45:29Z</time>
      </trkpt>
      <trkpt lat="42.508044010028243" lon="2.148859966546297">
        <ele>1376.75</ele>
        <time>2025-05-15T07:45:30Z</time>
      </trkpt>
      <trkpt lat="42.508053984493017" lon="2.149058030918241">
        <ele>1375.78</ele>
        <time>2025-05-15T07:45:31Z</time>
      </trkpt>
      <trkpt lat="42.508106036111712" lon="2.149221980944276">
        <ele>1374.3399999999999</ele>
        <time>2025-05-15T07:45:32Z</time>
      </trkpt>
      <trkpt lat="42.508182981982827" lon="2.149375034496188">
        <ele>1373.3800000000001</ele>
        <time>2025-05-15T07:45:33Z</time>
      </trkpt>
      <trkpt lat="42.508279038593173" lon="2.149501014500856">
        <ele>1371.46</ele>
        <time>2025-05-15T07:45:34Z</time>
      </trkpt>
      <trkpt lat="42.50838004052639" lon="2.149635041132569">
        <ele>1370.02</ele>
        <time>2025-05-15T07:45:35Z</time>
      </trkpt>
      <trkpt lat="42.508580032736063" lon="2.149908961728215">
        <ele>1367.6099999999999</ele>
        <time>2025-05-15T07:45:37Z</time>
      </trkpt>
      <trkpt lat="42.508642980828881" lon="2.150069978088141">
        <ele>1365.6900000000001</ele>
        <time>2025-05-15T07:45:38Z</time>
      </trkpt>
      <trkpt lat="42.508765021339059" lon="2.150381030514836">
        <ele>1362.8099999999999</ele>
        <time>2025-05-15T07:45:40Z</time>
      </trkpt>
      <trkpt lat="42.508840039372444" lon="2.15047700330615">
        <ele>1361.8399999999999</ele>
        <time>2025-05-15T07:45:41Z</time>
      </trkpt>
      <trkpt lat="42.508992003276944" lon="2.15066903270781">
        <ele>1359.9200000000001</ele>
        <time>2025-05-15T07:45:43Z</time>
      </trkpt>
      <trkpt lat="42.509009018540382" lon="2.150785038247705">
        <ele>1358.48</ele>
        <time>2025-05-15T07:45:44Z</time>
      </trkpt>
      <trkpt lat="42.509019998833537" lon="2.150916969403625">
        <ele>1357.52</ele>
        <time>2025-05-15T07:45:45Z</time>
      </trkpt>
      <trkpt lat="42.508981022983789" lon="2.151020988821983">
        <ele>1356.5599999999999</ele>
        <time>2025-05-15T07:45:46Z</time>
      </trkpt>
      <trkpt lat="42.508922014385462" lon="2.151128025725484">
        <ele>1355.1199999999999</ele>
        <time>2025-05-15T07:45:47Z</time>
      </trkpt>
      <trkpt lat="42.508830986917019" lon="2.151239002123475">
        <ele>1354.1500000000001</ele>
        <time>2025-05-15T07:45:48Z</time>
      </trkpt>
      <trkpt lat="42.508729984983802" lon="2.151360958814621">
        <ele>1353.1900000000001</ele>
        <time>2025-05-15T07:45:49Z</time>
      </trkpt>
      <trkpt lat="42.508129002526402" lon="2.152032013982534">
        <ele>1347.4300000000001</ele>
        <time>2025-05-15T07:45:54Z</time>
      </trkpt>
      <trkpt lat="42.507993970066309" lon="2.152137961238623">
        <ele>1346.46</ele>
        <time>2025-05-15T07:45:55Z</time>
      </trkpt>
      <trkpt lat="42.507878970354795" lon="2.152253966778517">
        <ele>1345.5</ele>
        <time>2025-05-15T07:45:56Z</time>
      </trkpt>
      <trkpt lat="42.507756007835269" lon="2.152377013117075">
        <ele>1344.0599999999999</ele>
        <time>2025-05-15T07:45:57Z</time>
      </trkpt>
      <trkpt lat="42.507704962044954" lon="2.152564013376832">
        <ele>1342.6199999999999</ele>
        <time>2025-05-15T07:45:58Z</time>
      </trkpt>
      <trkpt lat="42.507674032822251" lon="2.152780015021563">
        <ele>1341.6600000000001</ele>
        <time>2025-05-15T07:45:59Z</time>
      </trkpt>
      <trkpt lat="42.507649976760149" lon="2.15301102027297">
        <ele>1340.22</ele>
        <time>2025-05-15T07:46:00Z</time>
      </trkpt>
      <trkpt lat="42.507483009248972" lon="2.154703997075558">
        <ele>1330.5999999999999</ele>
        <time>2025-05-15T07:46:07Z</time>
      </trkpt>
      <trkpt lat="42.507515028119087" lon="2.154900971800089">
        <ele>1329.1600000000001</ele>
        <time>2025-05-15T07:46:08Z</time>
      </trkpt>
      <trkpt lat="42.507557021453977" lon="2.155086966231465">
        <ele>1328.2</ele>
        <time>2025-05-15T07:46:09Z</time>
      </trkpt>
      <trkpt lat="42.507642013952136" lon="2.155244965106249">
        <ele>1327.24</ele>
        <time>2025-05-15T07:46:10Z</time>
      </trkpt>
      <trkpt lat="42.507747961208224" lon="2.155384020879865">
        <ele>1326.28</ele>
        <time>2025-05-15T07:46:11Z</time>
      </trkpt>
      <trkpt lat="42.507877964526415" lon="2.15545903891325">
        <ele>1324.8299999999999</ele>
        <time>2025-05-15T07:46:12Z</time>
      </trkpt>
      <trkpt lat="42.508021965622902" lon="2.155494997277856">
        <ele>1323.8699999999999</ele>
        <time>2025-05-15T07:46:13Z</time>
      </trkpt>
      <trkpt lat="42.508169990032911" lon="2.155531961470842">
        <ele>1322.9100000000001</ele>
        <time>2025-05-15T07:46:14Z</time>
      </trkpt>
      <trkpt lat="42.508312985301018" lon="2.15556800365448">
        <ele>1321.95</ele>
        <time>2025-05-15T07:46:15Z</time>
      </trkpt>
      <trkpt lat="42.508438965305686" lon="2.15563396923244">
        <ele>1320.51</ele>
        <time>2025-05-15T07:46:16Z</time>
      </trkpt>
      <trkpt lat="42.508551031351089" lon="2.155699012801051">
        <ele>1319.55</ele>
        <time>2025-05-15T07:46:17Z</time>
      </trkpt>
      <trkpt lat="42.508635018020868" lon="2.155830021947622">
        <ele>1318.0999999999999</ele>
        <time>2025-05-15T07:46:18Z</time>
      </trkpt>
      <trkpt lat="42.508693020790815" lon="2.155979974195361">
        <ele>1317.1400000000001</ele>
        <time>2025-05-15T07:46:19Z</time>
      </trkpt>
      <trkpt lat="42.508749011904001" lon="2.156163034960628">
        <ele>1315.7</ele>
        <time>2025-05-15T07:46:20Z</time>
      </trkpt>
      <trkpt lat="42.508755968883634" lon="2.156388005241752">
        <ele>1314.74</ele>
        <time>2025-05-15T07:46:21Z</time>
      </trkpt>
      <trkpt lat="42.508657984435558" lon="2.157195014879108">
        <ele>1309.9300000000001</ele>
        <time>2025-05-15T07:46:25Z</time>
      </trkpt>
      <trkpt lat="42.508605010807514" lon="2.157362988218665">
        <ele>1308.97</ele>
        <time>2025-05-15T07:46:26Z</time>
      </trkpt>
      <trkpt lat="42.508519012480974" lon="2.157507995143533">
        <ele>1307.53</ele>
        <time>2025-05-15T07:46:27Z</time>
      </trkpt>
      <trkpt lat="42.508399989455938" lon="2.157612014561892">
        <ele>1306.5699999999999</ele>
        <time>2025-05-15T07:46:28Z</time>
      </trkpt>
      <trkpt lat="42.508276021108031" lon="2.15771796181798">
        <ele>1305.1300000000001</ele>
        <time>2025-05-15T07:46:29Z</time>
      </trkpt>
      <trkpt lat="42.507289974018931" lon="2.158534023910761">
        <ele>1296.96</ele>
        <time>2025-05-15T07:46:36Z</time>
      </trkpt>
      <trkpt lat="42.507197018712759" lon="2.158642988651991">
        <ele>1295.51</ele>
        <time>2025-05-15T07:46:37Z</time>
      </trkpt>
      <trkpt lat="42.507120994850993" lon="2.158744996413589">
        <ele>1294.55</ele>
        <time>2025-05-15T07:46:38Z</time>
      </trkpt>
      <trkpt lat="42.507054023444653" lon="2.158835018053651">
        <ele>1293.1099999999999</ele>
        <time>2025-05-15T07:46:39Z</time>
      </trkpt>
      <trkpt lat="42.506979005411267" lon="2.158904001116753">
        <ele>1292.1500000000001</ele>
        <time>2025-05-15T07:46:40Z</time>
      </trkpt>
      <trkpt lat="42.506883032619953" lon="2.158912969753146">
        <ele>1290.71</ele>
        <time>2025-05-15T07:46:41Z</time>
      </trkpt>
      <trkpt lat="42.506803991273046" lon="2.158873993903399">
        <ele>1290.23</ele>
        <time>2025-05-15T07:46:42Z</time>
      </trkpt>
      <trkpt lat="42.506737019866705" lon="2.158737033605576">
        <ele>1289.27</ele>
        <time>2025-05-15T07:46:43Z</time>
      </trkpt>
      <trkpt lat="42.506724027916789" lon="2.15857601724565">
        <ele>1288.3</ele>
        <time>2025-05-15T07:46:44Z</time>
      </trkpt>
      <trkpt lat="42.506769960746169" lon="2.158473003655672">
        <ele>1287.8199999999999</ele>
        <time>2025-05-15T07:46:45Z</time>
      </trkpt>
      <trkpt lat="42.50685403123498" lon="2.158406032249332">
        <ele>1286.8599999999999</ele>
        <time>2025-05-15T07:46:46Z</time>
      </trkpt>
      <trkpt lat="42.506951009854674" lon="2.158374013379216">
        <ele>1286.3800000000001</ele>
        <time>2025-05-15T07:46:47Z</time>
      </trkpt>
      <trkpt lat="42.507057040929794" lon="2.158337971195579">
        <ele>1285.9000000000001</ele>
        <time>2025-05-15T07:46:48Z</time>
      </trkpt>
      <trkpt lat="42.507169023156166" lon="2.158301007002592">
        <ele>1285.9000000000001</ele>
        <time>2025-05-15T07:46:49Z</time>
      </trkpt>
      <trkpt lat="42.507258960977197" lon="2.158216014504433">
        <ele>1285.9000000000001</ele>
        <time>2025-05-15T07:46:50Z</time>
      </trkpt>
      <trkpt lat="42.507352000102401" lon="2.158122975379229">
        <ele>1285.4200000000001</ele>
        <time>2025-05-15T07:46:51Z</time>
      </trkpt>
      <trkpt lat="42.507442021742463" lon="2.158025996759534">
        <ele>1285.9000000000001</ele>
        <time>2025-05-15T07:46:52Z</time>
      </trkpt>
      <trkpt lat="42.507513016462326" lon="2.157884007319808">
        <ele>1285.4200000000001</ele>
        <time>2025-05-15T07:46:53Z</time>
      </trkpt>
      <trkpt lat="42.507954994216561" lon="2.156931990757585">
        <ele>1282.54</ele>
        <time>2025-05-15T07:46:59Z</time>
      </trkpt>
      <trkpt lat="42.507966980338097" lon="2.156784972175956">
        <ele>1282.0599999999999</ele>
        <time>2025-05-15T07:47:00Z</time>
      </trkpt>
      <trkpt lat="42.507940996438265" lon="2.156687993556261">
        <ele>1281.5699999999999</ele>
        <time>2025-05-15T07:47:01Z</time>
      </trkpt>
      <trkpt lat="42.507871007546782" lon="2.156582968309522">
        <ele>1280.6099999999999</ele>
        <time>2025-05-15T07:47:02Z</time>
      </trkpt>
      <trkpt lat="42.507799006998539" lon="2.156475009396672">
        <ele>1279.6500000000001</ele>
        <time>2025-05-15T07:47:03Z</time>
      </trkpt>
      <trkpt lat="42.507681995630264" lon="2.156416000798345">
        <ele>1279.1700000000001</ele>
        <time>2025-05-15T07:47:04Z</time>
      </trkpt>
      <trkpt lat="42.507544029504061" lon="2.156394962221384">
        <ele>1278.21</ele>
        <time>2025-05-15T07:47:05Z</time>
      </trkpt>
      <trkpt lat="42.507388964295387" lon="2.156377024948597">
        <ele>1277.73</ele>
        <time>2025-05-15T07:47:06Z</time>
      </trkpt>
      <trkpt lat="42.50674800015986" lon="2.156323967501521">
        <ele>1273.8800000000001</ele>
        <time>2025-05-15T07:47:11Z</time>
      </trkpt>
      <trkpt lat="42.506635012105107" lon="2.156267976388335">
        <ele>1272.9200000000001</ele>
        <time>2025-05-15T07:47:12Z</time>
      </trkpt>
      <trkpt lat="42.506572986021638" lon="2.156168986111879">
        <ele>1271.96</ele>
        <time>2025-05-15T07:47:13Z</time>
      </trkpt>
      <trkpt lat="42.506511965766549" lon="2.156043006107211">
        <ele>1271</ele>
        <time>2025-05-15T07:47:14Z</time>
      </trkpt>
      <trkpt lat="42.50653300434351" lon="2.155915014445782">
        <ele>1270.04</ele>
        <time>2025-05-15T07:47:15Z</time>
      </trkpt>
      <trkpt lat="42.506564017385244" lon="2.155769001692534">
        <ele>1269.0799999999999</ele>
        <time>2025-05-15T07:47:16Z</time>
      </trkpt>
      <trkpt lat="42.506625037640333" lon="2.155646961182356">
        <ele>1268.1199999999999</ele>
        <time>2025-05-15T07:47:17Z</time>
      </trkpt>
      <trkpt lat="42.50664004124701" lon="2.155496003106237">
        <ele>1267.6400000000001</ele>
        <time>2025-05-15T07:47:18Z</time>
      </trkpt>
      <trkpt lat="42.506614979356527" lon="2.155338004231453">
        <ele>1267.1600000000001</ele>
        <time>2025-05-15T07:47:19Z</time>
      </trkpt>
      <trkpt lat="42.506573991850019" lon="2.155162990093231">
        <ele>1266.6700000000001</ele>
        <time>2025-05-15T07:47:20Z</time>
      </trkpt>
      <trkpt lat="42.50653401017189" lon="2.154974984005094">
        <ele>1266.1900000000001</ele>
        <time>2025-05-15T07:47:21Z</time>
      </trkpt>
      <trkpt lat="42.506499979645014" lon="2.154571982100606">
        <ele>1264.27</ele>
        <time>2025-05-15T07:47:23Z</time>
      </trkpt>
      <trkpt lat="42.50649101100862" lon="2.154368972405791">
        <ele>1263.3099999999999</ele>
        <time>2025-05-15T07:47:24Z</time>
      </trkpt>
      <trkpt lat="42.50653300434351" lon="2.153986003249884">
        <ele>1261.3900000000001</ele>
        <time>2025-05-15T07:47:26Z</time>
      </trkpt>
      <trkpt lat="42.506507020443678" lon="2.153853988274932">
        <ele>1260.9100000000001</ele>
        <time>2025-05-15T07:47:27Z</time>
      </trkpt>
      <trkpt lat="42.506472989916801" lon="2.153738988563418">
        <ele>1259.9400000000001</ele>
        <time>2025-05-15T07:47:28Z</time>
      </trkpt>
      <trkpt lat="42.50636100769043" lon="2.153532039374113">
        <ele>1258.5</ele>
        <time>2025-05-15T07:47:30Z</time>
      </trkpt>
      <trkpt lat="42.506356984376907" lon="2.153388038277626">
        <ele>1257.54</ele>
        <time>2025-05-15T07:47:31Z</time>
      </trkpt>
      <trkpt lat="42.506351033225656" lon="2.153209000825882">
        <ele>1256.5799999999999</ele>
        <time>2025-05-15T07:47:32Z</time>
      </trkpt>
      <trkpt lat="42.506343992426991" lon="2.153008002787828">
        <ele>1255.6199999999999</ele>
        <time>2025-05-15T07:47:33Z</time>
      </trkpt>
      <trkpt lat="42.506320020183921" lon="2.152793006971479">
        <ele>1254.6600000000001</ele>
        <time>2025-05-15T07:47:34Z</time>
      </trkpt>
      <trkpt lat="42.506274003535509" lon="2.152571976184845">
        <ele>1253.7</ele>
        <time>2025-05-15T07:47:35Z</time>
      </trkpt>
      <trkpt lat="42.506229998543859" lon="2.152126980945468">
        <ele>1251.77</ele>
        <time>2025-05-15T07:47:37Z</time>
      </trkpt>
      <trkpt lat="42.506260005757213" lon="2.151924977079034">
        <ele>1250.8099999999999</ele>
        <time>2025-05-15T07:47:38Z</time>
      </trkpt>
      <trkpt lat="42.506305016577244" lon="2.151761027052999">
        <ele>1249.8499999999999</ele>
        <time>2025-05-15T07:47:39Z</time>
      </trkpt>
      <trkpt lat="42.506344998255372" lon="2.15161400847137">
        <ele>1249.3699999999999</ele>
        <time>2025-05-15T07:47:40Z</time>
      </trkpt>
      <trkpt lat="42.506382968276739" lon="2.151475036516786">
        <ele>1248.8900000000001</ele>
        <time>2025-05-15T07:47:41Z</time>
      </trkpt>
      <trkpt lat="42.506354972720146" lon="2.151381997391582">
        <ele>1248.4100000000001</ele>
        <time>2025-05-15T07:47:42Z</time>
      </trkpt>
      <trkpt lat="42.506313985213637" lon="2.151259034872055">
        <ele>1247.9300000000001</ele>
        <time>2025-05-15T07:47:43Z</time>
      </trkpt>
      <trkpt lat="42.506233016029" lon="2.151239002123475">
        <ele>1247.45</ele>
        <time>2025-05-15T07:47:44Z</time>
      </trkpt>
      <trkpt lat="42.506154980510473" lon="2.15127001516521">
        <ele>1246.97</ele>
        <time>2025-05-15T07:47:45Z</time>
      </trkpt>
      <trkpt lat="42.506124973297119" lon="2.151282001286745">
        <ele>1246.01</ele>
        <time>2025-05-15T07:47:46Z</time>
      </trkpt>
      <trkpt lat="42.506058001890779" lon="2.151403035968542">
        <ele>1245.53</ele>
        <time>2025-05-15T07:47:47Z</time>
      </trkpt>
      <trkpt lat="42.50601802021265" lon="2.151475036516786">
        <ele>1244.5599999999999</ele>
        <time>2025-05-15T07:47:48Z</time>
      </trkpt>
      <trkpt lat="42.50601802021265" lon="2.151623982936144">
        <ele>1244.0799999999999</ele>
        <time>2025-05-15T07:47:49Z</time>
      </trkpt>
      <trkpt lat="42.50601802021265" lon="2.15178600512445">
        <ele>1243.5999999999999</ele>
        <time>2025-05-15T07:47:50Z</time>
      </trkpt>
      <trkpt lat="42.506019026041031" lon="2.151952972635627">
        <ele>1243.1199999999999</ele>
        <time>2025-05-15T07:47:51Z</time>
      </trkpt>
      <trkpt lat="42.506036963313818" lon="2.152139972895384">
        <ele>1242.6400000000001</ele>
        <time>2025-05-15T07:47:52Z</time>
      </trkpt>
      <trkpt lat="42.506204014644027" lon="2.154204016551375">
        <ele>1238.3199999999999</ele>
        <time>2025-05-15T07:48:01Z</time>
      </trkpt>
      <trkpt lat="42.506135031580925" lon="2.155364993959665">
        <ele>1236.3900000000001</ele>
        <time>2025-05-15T07:48:06Z</time>
      </trkpt>
      <trkpt lat="42.506055990234017" lon="2.155529027804732">
        <ele>1235.9100000000001</ele>
        <time>2025-05-15T07:48:07Z</time>
      </trkpt>
      <trkpt lat="42.505955994129181" lon="2.155684009194374">
        <ele>1235.4300000000001</ele>
        <time>2025-05-15T07:48:08Z</time>
      </trkpt>
      <trkpt lat="42.505581993609667" lon="2.156322961673141">
        <ele>1233.99</ele>
        <time>2025-05-15T07:48:12Z</time>
      </trkpt>
      <trkpt lat="42.505542011931539" lon="2.156465034931898">
        <ele>1233.51</ele>
        <time>2025-05-15T07:48:13Z</time>
      </trkpt>
      <trkpt lat="42.505530025810003" lon="2.156624961644411">
        <ele>1233.03</ele>
        <time>2025-05-15T07:48:14Z</time>
      </trkpt>
      <trkpt lat="42.505555003881454" lon="2.15677198022604">
        <ele>1232.0699999999999</ele>
        <time>2025-05-15T07:48:15Z</time>
      </trkpt>
      <trkpt lat="42.505612000823021" lon="2.156929979100823">
        <ele>1231.1099999999999</ele>
        <time>2025-05-15T07:48:16Z</time>
      </trkpt>
      <trkpt lat="42.505670003592968" lon="2.157089989632368">
        <ele>1230.1400000000001</ele>
        <time>2025-05-15T07:48:17Z</time>
      </trkpt>
      <trkpt lat="42.505711996927857" lon="2.157248994335532">
        <ele>1229.1800000000001</ele>
        <time>2025-05-15T07:48:18Z</time>
      </trkpt>
      <trkpt lat="42.505737980827689" lon="2.157391989603639">
        <ele>1228.22</ele>
        <time>2025-05-15T07:48:19Z</time>
      </trkpt>
      <trkpt lat="42.505679978057742" lon="2.157530961558223">
        <ele>1227.26</ele>
        <time>2025-05-15T07:48:20Z</time>
      </trkpt>
      <trkpt lat="42.505603032186627" lon="2.157645039260387">
        <ele>1226.3</ele>
        <time>2025-05-15T07:48:21Z</time>
      </trkpt>
      <trkpt lat="42.505503036081791" lon="2.157752998173237">
        <ele>1225.8199999999999</ele>
        <time>2025-05-15T07:48:22Z</time>
      </trkpt>
      <trkpt lat="42.505401028320193" lon="2.157862968742847">
        <ele>1224.8599999999999</ele>
        <time>2025-05-15T07:48:23Z</time>
      </trkpt>
      <trkpt lat="42.505331039428711" lon="2.158011998981237">
        <ele>1223.9000000000001</ele>
        <time>2025-05-15T07:48:24Z</time>
      </trkpt>
      <trkpt lat="42.505283011123538" lon="2.158171003684402">
        <ele>1222.9300000000001</ele>
        <time>2025-05-15T07:48:25Z</time>
      </trkpt>
      <trkpt lat="42.50526700168848" lon="2.15834098868072">
        <ele>1222.45</ele>
        <time>2025-05-15T07:48:26Z</time>
      </trkpt>
      <trkpt lat="42.505314024165273" lon="2.1585129853338">
        <ele>1221.49</ele>
        <time>2025-05-15T07:48:27Z</time>
      </trkpt>
      <trkpt lat="42.505385018885136" lon="2.158665033057332">
        <ele>1220.53</ele>
        <time>2025-05-15T07:48:28Z</time>
      </trkpt>
      <trkpt lat="42.50548099167645" lon="2.158824959769845">
        <ele>1219.5699999999999</ele>
        <time>2025-05-15T07:48:29Z</time>
      </trkpt>
      <trkpt lat="42.505584005266428" lon="2.158996034413576">
        <ele>1218.6099999999999</ele>
        <time>2025-05-15T07:48:30Z</time>
      </trkpt>
      <trkpt lat="42.505986001342535" lon="2.159742023795843">
        <ele>1214.28</ele>
        <time>2025-05-15T07:48:34Z</time>
      </trkpt>
      <trkpt lat="42.50603998079896" lon="2.159969005733728">
        <ele>1213.3199999999999</ele>
        <time>2025-05-15T07:48:35Z</time>
      </trkpt>
      <trkpt lat="42.506268974393606" lon="2.160930996760726">
        <ele>1208.51</ele>
        <time>2025-05-15T07:48:39Z</time>
      </trkpt>
      <trkpt lat="42.50625497661531" lon="2.161193015053868">
        <ele>1207.0699999999999</ele>
        <time>2025-05-15T07:48:40Z</time>
      </trkpt>
      <trkpt lat="42.506235027685761" lon="2.161427959799767">
        <ele>1206.1099999999999</ele>
        <time>2025-05-15T07:48:41Z</time>
      </trkpt>
      <trkpt lat="42.506200997158885" lon="2.161817969754338">
        <ele>1203.71</ele>
        <time>2025-05-15T07:48:43Z</time>
      </trkpt>
      <trkpt lat="42.506196973845363" lon="2.161968005821109">
        <ele>1202.75</ele>
        <time>2025-05-15T07:48:44Z</time>
      </trkpt>
      <trkpt lat="42.506245002150536" lon="2.162109995260835">
        <ele>1201.3</ele>
        <time>2025-05-15T07:48:45Z</time>
      </trkpt>
      <trkpt lat="42.506311973556876" lon="2.162220971658826">
        <ele>1200.3399999999999</ele>
        <time>2025-05-15T07:48:46Z</time>
      </trkpt>
      <trkpt lat="42.506390009075403" lon="2.162330020219088">
        <ele>1198.9000000000001</ele>
        <time>2025-05-15T07:48:47Z</time>
      </trkpt>
      <trkpt lat="42.506468966603279" lon="2.162439990788698">
        <ele>1197.46</ele>
        <time>2025-05-15T07:48:48Z</time>
      </trkpt>
      <trkpt lat="42.506506014615297" lon="2.162569994106889">
        <ele>1196.02</ele>
        <time>2025-05-15T07:48:49Z</time>
      </trkpt>
      <trkpt lat="42.506475001573563" lon="2.162718018516898">
        <ele>1194.5799999999999</ele>
        <time>2025-05-15T07:48:50Z</time>
      </trkpt>
      <trkpt lat="42.506437031552196" lon="2.16285296715796">
        <ele>1193.1300000000001</ele>
        <time>2025-05-15T07:48:51Z</time>
      </trkpt>
      <trkpt lat="42.506358996033669" lon="2.162966039031744">
        <ele>1191.6900000000001</ele>
        <time>2025-05-15T07:48:52Z</time>
      </trkpt>
      <trkpt lat="42.506267968565226" lon="2.163068968802691">
        <ele>1190.25</ele>
        <time>2025-05-15T07:48:53Z</time>
      </trkpt>
      <trkpt lat="42.506178030744195" lon="2.163170976564288">
        <ele>1189.29</ele>
        <time>2025-05-15T07:48:54Z</time>
      </trkpt>
      <trkpt lat="42.506099995225668" lon="2.163291005417705">
        <ele>1188.3299999999999</ele>
        <time>2025-05-15T07:48:55Z</time>
      </trkpt>
      <trkpt lat="42.506084991618991" lon="2.163446992635727">
        <ele>1186.8800000000001</ele>
        <time>2025-05-15T07:48:56Z</time>
      </trkpt>
      <trkpt lat="42.506067976355553" lon="2.163802972063422">
        <ele>1183.52</ele>
        <time>2025-05-15T07:48:58Z</time>
      </trkpt>
      <trkpt lat="42.506078034639359" lon="2.163987038657069">
        <ele>1182.0799999999999</ele>
        <time>2025-05-15T07:48:59Z</time>
      </trkpt>
      <trkpt lat="42.506089014932513" lon="2.164166998118162">
        <ele>1181.1199999999999</ele>
        <time>2025-05-15T07:49:00Z</time>
      </trkpt>
      <trkpt lat="42.506097983568907" lon="2.164340000599623">
        <ele>1179.6700000000001</ele>
        <time>2025-05-15T07:49:01Z</time>
      </trkpt>
      <trkpt lat="42.506088009104133" lon="2.164487019181252">
        <ele>1178.23</ele>
        <time>2025-05-15T07:49:02Z</time>
      </trkpt>
      <trkpt lat="42.506037969142199" lon="2.164647029712796">
        <ele>1176.79</ele>
        <time>2025-05-15T07:49:03Z</time>
      </trkpt>
      <trkpt lat="42.505983989685774" lon="2.16480796225369">
        <ele>1175.3499999999999</ele>
        <time>2025-05-15T07:49:04Z</time>
      </trkpt>
      <trkpt lat="42.505918024107814" lon="2.164963027462363">
        <ele>1174.3900000000001</ele>
        <time>2025-05-15T07:49:05Z</time>
      </trkpt>
      <trkpt lat="42.50586798414588" lon="2.165124965831637">
        <ele>1172.95</ele>
        <time>2025-05-15T07:49:06Z</time>
      </trkpt>
      <trkpt lat="42.50586798414588" lon="2.165296962484717">
        <ele>1171.98</ele>
        <time>2025-05-15T07:49:07Z</time>
      </trkpt>
      <trkpt lat="42.505875024944544" lon="2.165468959137797">
        <ele>1171.02</ele>
        <time>2025-05-15T07:49:08Z</time>
      </trkpt>
      <trkpt lat="42.505921963602304" lon="2.165624024346471">
        <ele>1169.5799999999999</ele>
        <time>2025-05-15T07:49:09Z</time>
      </trkpt>
      <trkpt lat="42.505999999120831" lon="2.165761990472674">
        <ele>1168.1400000000001</ele>
        <time>2025-05-15T07:49:10Z</time>
      </trkpt>
      <trkpt lat="42.506087003275752" lon="2.165897022932768">
        <ele>1167.1800000000001</ele>
        <time>2025-05-15T07:49:11Z</time>
      </trkpt>
      <trkpt lat="42.506181970238686" lon="2.166043035686016">
        <ele>1165.74</ele>
        <time>2025-05-15T07:49:12Z</time>
      </trkpt>
      <trkpt lat="42.506258999928832" lon="2.166215032339096">
        <ele>1164.77</ele>
        <time>2025-05-15T07:49:13Z</time>
      </trkpt>
      <trkpt lat="42.506339969113469" lon="2.166431033983827">
        <ele>1163.8099999999999</ele>
        <time>2025-05-15T07:49:14Z</time>
      </trkpt>
      <trkpt lat="42.506497967988253" lon="2.167280958965421">
        <ele>1160.45</ele>
        <time>2025-05-15T07:49:18Z</time>
      </trkpt>
      <trkpt lat="42.506585977971554" lon="2.167463013902307">
        <ele>1159.01</ele>
        <time>2025-05-15T07:49:19Z</time>
      </trkpt>
      <trkpt lat="42.506694020703435" lon="2.167622018605471">
        <ele>1158.05</ele>
        <time>2025-05-15T07:49:20Z</time>
      </trkpt>
      <trkpt lat="42.506799967959523" lon="2.167776999995112">
        <ele>1156.5999999999999</ele>
        <time>2025-05-15T07:49:21Z</time>
      </trkpt>
      <trkpt lat="42.506875991821289" lon="2.167889988049865">
        <ele>1155.6400000000001</ele>
        <time>2025-05-15T07:49:22Z</time>
      </trkpt>
      <trkpt lat="42.506945980712771" lon="2.168083023279905">
        <ele>1154.2</ele>
        <time>2025-05-15T07:49:23Z</time>
      </trkpt>
      <trkpt lat="42.506961990147829" lon="2.168236998841167">
        <ele>1152.76</ele>
        <time>2025-05-15T07:49:24Z</time>
      </trkpt>
      <trkpt lat="42.506961990147829" lon="2.168404972180724">
        <ele>1151.3199999999999</ele>
        <time>2025-05-15T07:49:25Z</time>
      </trkpt>
      <trkpt lat="42.506910022348166" lon="2.168532041832805">
        <ele>1149.8699999999999</ele>
        <time>2025-05-15T07:49:26Z</time>
      </trkpt>
      <trkpt lat="42.506849002093077" lon="2.168681994080544">
        <ele>1148.9100000000001</ele>
        <time>2025-05-15T07:49:27Z</time>
      </trkpt>
      <trkpt lat="42.506263023242354" lon="2.170171961188316">
        <ele>1139.78</ele>
        <time>2025-05-15T07:49:35Z</time>
      </trkpt>
      <trkpt lat="42.50619001686573" lon="2.170358039438725">
        <ele>1138.8199999999999</ele>
        <time>2025-05-15T07:49:36Z</time>
      </trkpt>
      <trkpt lat="42.506163027137518" lon="2.170587033033371">
        <ele>1137.3800000000001</ele>
        <time>2025-05-15T07:49:37Z</time>
      </trkpt>
      <trkpt lat="42.506137965247035" lon="2.170812003314495">
        <ele>1135.9400000000001</ele>
        <time>2025-05-15T07:49:38Z</time>
      </trkpt>
      <trkpt lat="42.506138971075416" lon="2.171033034101129">
        <ele>1134.49</ele>
        <time>2025-05-15T07:49:39Z</time>
      </trkpt>
      <trkpt lat="42.506165038794279" lon="2.171259010210633">
        <ele>1133.05</ele>
        <time>2025-05-15T07:49:40Z</time>
      </trkpt>
      <trkpt lat="42.50619001686573" lon="2.171486997976899">
        <ele>1132.0899999999999</ele>
        <time>2025-05-15T07:49:41Z</time>
      </trkpt>
      <trkpt lat="42.506321026012301" lon="2.172638000920415">
        <ele>1125.3599999999999</ele>
        <time>2025-05-15T07:49:46Z</time>
      </trkpt>
      <trkpt lat="42.506360001862049" lon="2.172851990908384">
        <ele>1123.9200000000001</ele>
        <time>2025-05-15T07:49:47Z</time>
      </trkpt>
      <trkpt lat="42.506437031552196" lon="2.173035973683">
        <ele>1122.48</ele>
        <time>2025-05-15T07:49:48Z</time>
      </trkpt>
      <trkpt lat="42.506535016000271" lon="2.173191038891673">
        <ele>1121.52</ele>
        <time>2025-05-15T07:49:49Z</time>
      </trkpt>
      <trkpt lat="42.506637023761868" lon="2.173340991139412">
        <ele>1120.0699999999999</ele>
        <time>2025-05-15T07:49:50Z</time>
      </trkpt>
      <trkpt lat="42.506741965189576" lon="2.173494966700673">
        <ele>1118.6300000000001</ele>
        <time>2025-05-15T07:49:51Z</time>
      </trkpt>
      <trkpt lat="42.506827963516116" lon="2.173654977232218">
        <ele>1117.1900000000001</ele>
        <time>2025-05-15T07:49:52Z</time>
      </trkpt>
      <trkpt lat="42.506880015134811" lon="2.173847006633878">
        <ele>1115.75</ele>
        <time>2025-05-15T07:49:53Z</time>
      </trkpt>
      <trkpt lat="42.5069410353899" lon="2.174069965258241">
        <ele>1114.79</ele>
        <time>2025-05-15T07:49:54Z</time>
      </trkpt>
      <trkpt lat="42.506977999582887" lon="2.174239028245211">
        <ele>1113.3399999999999</ele>
        <time>2025-05-15T07:49:55Z</time>
      </trkpt>
      <trkpt lat="42.507014963775873" lon="2.174411024898291">
        <ele>1111.9000000000001</ele>
        <time>2025-05-15T07:49:56Z</time>
      </trkpt>
      <trkpt lat="42.507045976817608" lon="2.174555025994778">
        <ele>1110.9400000000001</ele>
        <time>2025-05-15T07:49:57Z</time>
      </trkpt>
      <trkpt lat="42.507128035649657" lon="2.174629960209131">
        <ele>1109.5</ele>
        <time>2025-05-15T07:49:58Z</time>
      </trkpt>
      <trkpt lat="42.50722199678421" lon="2.174684023484588">
        <ele>1108.54</ele>
        <time>2025-05-15T07:49:59Z</time>
      </trkpt>
      <trkpt lat="42.507334984838963" lon="2.174715958535671">
        <ele>1107.0999999999999</ele>
        <time>2025-05-15T07:50:00Z</time>
      </trkpt>
      <trkpt lat="42.507445039227605" lon="2.174746971577406">
        <ele>1106.1300000000001</ele>
        <time>2025-05-15T07:50:01Z</time>
      </trkpt>
      <trkpt lat="42.507660035043955" lon="2.17481897212565">
        <ele>1103.73</ele>
        <time>2025-05-15T07:50:03Z</time>
      </trkpt>
      <trkpt lat="42.507765982300043" lon="2.174884015694261">
        <ele>1102.77</ele>
        <time>2025-05-15T07:50:04Z</time>
      </trkpt>
      <trkpt lat="42.507874025031924" lon="2.174950987100601">
        <ele>1101.8099999999999</ele>
        <time>2025-05-15T07:50:05Z</time>
      </trkpt>
      <trkpt lat="42.507962035015225" lon="2.175045032054186">
        <ele>1100.3699999999999</ele>
        <time>2025-05-15T07:50:06Z</time>
      </trkpt>
      <trkpt lat="42.50803504139185" lon="2.175143016502261">
        <ele>1099.4000000000001</ele>
        <time>2025-05-15T07:50:07Z</time>
      </trkpt>
      <trkpt lat="42.508089020848274" lon="2.175286011770368">
        <ele>1097.96</ele>
        <time>2025-05-15T07:50:08Z</time>
      </trkpt>
      <trkpt lat="42.508137971162796" lon="2.175417020916939">
        <ele>1097</ele>
        <time>2025-05-15T07:50:09Z</time>
      </trkpt>
      <trkpt lat="42.508194968104362" lon="2.175534032285214">
        <ele>1096.04</ele>
        <time>2025-05-15T07:50:10Z</time>
      </trkpt>
      <trkpt lat="42.508251965045929" lon="2.175624975934625">
        <ele>1095.0799999999999</ele>
        <time>2025-05-15T07:50:11Z</time>
      </trkpt>
      <trkpt lat="42.508307034149766" lon="2.175709968432784">
        <ele>1094.5999999999999</ele>
        <time>2025-05-15T07:50:12Z</time>
      </trkpt>
      <trkpt lat="42.508384985849261" lon="2.175722038373351">
        <ele>1093.6400000000001</ele>
        <time>2025-05-15T07:50:13Z</time>
      </trkpt>
      <trkpt lat="42.508466960862279" lon="2.175722038373351">
        <ele>1092.6800000000001</ele>
        <time>2025-05-15T07:50:14Z</time>
      </trkpt>
      <trkpt lat="42.50855497084558" lon="2.175722038373351">
        <ele>1091.23</ele>
        <time>2025-05-15T07:50:15Z</time>
      </trkpt>
      <trkpt lat="42.508620014414191" lon="2.175674010068178">
        <ele>1089.79</ele>
        <time>2025-05-15T07:50:16Z</time>
      </trkpt>
      <trkpt lat="42.508682040497661" lon="2.175611983984709">
        <ele>1088.3499999999999</ele>
        <time>2025-05-15T07:50:17Z</time>
      </trkpt>
      <trkpt lat="42.508739037439227" lon="2.175554987043142">
        <ele>1086.9100000000001</ele>
        <time>2025-05-15T07:50:18Z</time>
      </trkpt>
      <trkpt lat="42.508850013837218" lon="2.175444010645151">
        <ele>1084.02</ele>
        <time>2025-05-15T07:50:20Z</time>
      </trkpt>
      <trkpt lat="42.508906004950404" lon="2.175410985946655">
        <ele>1082.5799999999999</ele>
        <time>2025-05-15T07:50:21Z</time>
      </trkpt>
      <trkpt lat="42.508970964699984" lon="2.175389025360346">
        <ele>1081.6199999999999</ele>
        <time>2025-05-15T07:50:22Z</time>
      </trkpt>
      <trkpt lat="42.509000971913338" lon="2.17537896707654">
        <ele>1080.1800000000001</ele>
        <time>2025-05-15T07:50:23Z</time>
      </trkpt>
      <trkpt lat="42.509073978289962" lon="2.175451973453164">
        <ele>1078.74</ele>
        <time>2025-05-15T07:50:24Z</time>
      </trkpt>
      <trkpt lat="42.509130975231528" lon="2.175508970394731">
        <ele>1077.78</ele>
        <time>2025-05-15T07:50:25Z</time>
      </trkpt>
      <trkpt lat="42.509186966344714" lon="2.175564961507917">
        <ele>1077.29</ele>
        <time>2025-05-15T07:50:26Z</time>
      </trkpt>
      <trkpt lat="42.509247986599803" lon="2.175625981763005">
        <ele>1076.8099999999999</ele>
        <time>2025-05-15T07:50:27Z</time>
      </trkpt>
      <trkpt lat="42.509320992976427" lon="2.175698988139629">
        <ele>1076.3299999999999</ele>
        <time>2025-05-15T07:50:28Z</time>
      </trkpt>
      <trkpt lat="42.509396011009812" lon="2.175774006173015">
        <ele>1075.8499999999999</ele>
        <time>2025-05-15T07:50:29Z</time>
      </trkpt>
      <trkpt lat="42.509489972144365" lon="2.175819016993046">
        <ele>1074.8900000000001</ele>
        <time>2025-05-15T07:50:30Z</time>
      </trkpt>
      <trkpt lat="42.509588040411472" lon="2.175837960094214">
        <ele>1074.4100000000001</ele>
        <time>2025-05-15T07:50:31Z</time>
      </trkpt>
      <trkpt lat="42.509687030687928" lon="2.175856987014413">
        <ele>1073.45</ele>
        <time>2025-05-15T07:50:32Z</time>
      </trkpt>
      <trkpt lat="42.510436037555337" lon="2.176032001152635">
        <ele>1068.6400000000001</ele>
        <time>2025-05-15T07:50:37Z</time>
      </trkpt>
      <trkpt lat="42.51059303060174" lon="2.176125962287188">
        <ele>1067.2</ele>
        <time>2025-05-15T07:50:38Z</time>
      </trkpt>
      <trkpt lat="42.510738959535956" lon="2.176248002797365">
        <ele>1065.76</ele>
        <time>2025-05-15T07:50:39Z</time>
      </trkpt>
      <trkpt lat="42.510861000046134" lon="2.176383035257459">
        <ele>1064.8</ele>
        <time>2025-05-15T07:50:40Z</time>
      </trkpt>
      <trkpt lat="42.510956972837448" lon="2.176522007212043">
        <ele>1063.8399999999999</ele>
        <time>2025-05-15T07:50:41Z</time>
      </trkpt>
      <trkpt lat="42.511032996699214" lon="2.176637006923556">
        <ele>1062.8699999999999</ele>
        <time>2025-05-15T07:50:42Z</time>
      </trkpt>
      <trkpt lat="42.511556027457118" lon="2.177422977983952">
        <ele>1059.03</ele>
        <time>2025-05-15T07:50:49Z</time>
      </trkpt>
      <trkpt lat="42.511646971106529" lon="2.177711986005306">
        <ele>1057.5899999999999</ele>
        <time>2025-05-15T07:50:51Z</time>
      </trkpt>
      <trkpt lat="42.511687958613038" lon="2.177845006808639">
        <ele>1056.6300000000001</ele>
        <time>2025-05-15T07:50:52Z</time>
      </trkpt>
      <trkpt lat="42.511769011616707" lon="2.178190005943179">
        <ele>1053.74</ele>
        <time>2025-05-15T07:50:55Z</time>
      </trkpt>
      <trkpt lat="42.511855009943247" lon="2.178704990074039">
        <ele>1047.97</ele>
        <time>2025-05-15T07:51:00Z</time>
      </trkpt>
      <trkpt lat="42.511870013549924" lon="2.178781013935804">
        <ele>1047.01</ele>
        <time>2025-05-15T07:51:01Z</time>
      </trkpt>
      <trkpt lat="42.512092972174287" lon="2.1801230404526">
        <ele>1041.73</ele>
        <time>2025-05-15T07:51:12Z</time>
      </trkpt>
      <trkpt lat="42.512107975780964" lon="2.18038103543222">
        <ele>1040.76</ele>
        <time>2025-05-15T07:51:14Z</time>
      </trkpt>
      <trkpt lat="42.512090038508177" lon="2.180615980178118">
        <ele>1040.28</ele>
        <time>2025-05-15T07:51:16Z</time>
      </trkpt>
      <trkpt lat="42.512076962739229" lon="2.180721005424857">
        <ele>1039.8</ele>
        <time>2025-05-15T07:51:17Z</time>
      </trkpt>
      <trkpt lat="42.512063970789313" lon="2.18089702539146">
        <ele>1038.8399999999999</ele>
        <time>2025-05-15T07:51:19Z</time>
      </trkpt>
      <trkpt lat="42.512050978839397" lon="2.181154014542699">
        <ele>1037.4000000000001</ele>
        <time>2025-05-15T07:51:22Z</time>
      </trkpt>
      <trkpt lat="42.512048967182636" lon="2.181239007040858">
        <ele>1037.4000000000001</ele>
        <time>2025-05-15T07:51:23Z</time>
      </trkpt>
      <trkpt lat="42.5120560079813" lon="2.181332968175411">
        <ele>1036.9200000000001</ele>
        <time>2025-05-15T07:51:24Z</time>
      </trkpt>
      <trkpt lat="42.512061959132552" lon="2.181427013128996">
        <ele>1036.4400000000001</ele>
        <time>2025-05-15T07:51:25Z</time>
      </trkpt>
      <trkpt lat="42.512067994102836" lon="2.18152298592031">
        <ele>1036.4400000000001</ele>
        <time>2025-05-15T07:51:26Z</time>
      </trkpt>
      <trkpt lat="42.512090960517526" lon="2.181624993681908">
        <ele>1035.96</ele>
        <time>2025-05-15T07:51:27Z</time>
      </trkpt>
      <trkpt lat="42.512344010174274" lon="2.182654039934278">
        <ele>1033.55</ele>
        <time>2025-05-15T07:51:37Z</time>
      </trkpt>
      <trkpt lat="42.512360019609332" lon="2.182739032432437">
        <ele>1033.0699999999999</ele>
        <time>2025-05-15T07:51:38Z</time>
      </trkpt>
      <trkpt lat="42.51246202737093" lon="2.183242030441761">
        <ele>1031.1500000000001</ele>
        <time>2025-05-15T07:51:43Z</time>
      </trkpt>
      <trkpt lat="42.512485999614" lon="2.183347977697849">
        <ele>1030.6700000000001</ele>
        <time>2025-05-15T07:51:44Z</time>
      </trkpt>
      <trkpt lat="42.512533022090793" lon="2.183558028191328">
        <ele>1030.1900000000001</ele>
        <time>2025-05-15T07:51:46Z</time>
      </trkpt>
      <trkpt lat="42.512556994333863" lon="2.183667998760939">
        <ele>1029.71</ele>
        <time>2025-05-15T07:51:47Z</time>
      </trkpt>
      <trkpt lat="42.512608040124178" lon="2.183913001790643">
        <ele>1029.23</ele>
        <time>2025-05-15T07:51:49Z</time>
      </trkpt>
      <trkpt lat="42.5126569904387" lon="2.184170996770263">
        <ele>1028.75</ele>
        <time>2025-05-15T07:51:51Z</time>
      </trkpt>
      <trkpt lat="42.512694960460067" lon="2.184304017573595">
        <ele>1028.75</ele>
        <time>2025-05-15T07:51:52Z</time>
      </trkpt>
      <trkpt lat="42.513227965682745" lon="2.185675967484713">
        <ele>1024.9000000000001</ele>
        <time>2025-05-15T07:52:02Z</time>
      </trkpt>
      <trkpt lat="42.513254033401608" lon="2.185824997723103">
        <ele>1024.4200000000001</ele>
        <time>2025-05-15T07:52:03Z</time>
      </trkpt>
      <trkpt lat="42.51327901147306" lon="2.185967992991209">
        <ele>1023.9400000000001</ele>
        <time>2025-05-15T07:52:04Z</time>
      </trkpt>
      <trkpt lat="42.513281023129821" lon="2.186109982430935">
        <ele>1022.98</ele>
        <time>2025-05-15T07:52:05Z</time>
      </trkpt>
      <trkpt lat="42.513260990381241" lon="2.186231017112732">
        <ele>1022.5</ele>
        <time>2025-05-15T07:52:06Z</time>
      </trkpt>
      <trkpt lat="42.513238023966551" lon="2.186345010995865">
        <ele>1021.54</ele>
        <time>2025-05-15T07:52:07Z</time>
      </trkpt>
      <trkpt lat="42.513121012598276" lon="2.186794029548764">
        <ele>1019.62</ele>
        <time>2025-05-15T07:52:11Z</time>
      </trkpt>
      <trkpt lat="42.513121012598276" lon="2.186934007331729">
        <ele>1019.13</ele>
        <time>2025-05-15T07:52:12Z</time>
      </trkpt>
      <trkpt lat="42.513126963749528" lon="2.187058981508017">
        <ele>1018.65</ele>
        <time>2025-05-15T07:52:13Z</time>
      </trkpt>
      <trkpt lat="42.513160994276404" lon="2.187455026432872">
        <ele>1017.21</ele>
        <time>2025-05-15T07:52:16Z</time>
      </trkpt>
      <trkpt lat="42.51315001398325" lon="2.187595004215837">
        <ele>1017.21</ele>
        <time>2025-05-15T07:52:17Z</time>
      </trkpt>
      <trkpt lat="42.513135010376573" lon="2.187730958685279">
        <ele>1016.73</ele>
        <time>2025-05-15T07:52:18Z</time>
      </trkpt>
      <trkpt lat="42.513099974021316" lon="2.188030024990439">
        <ele>1015.77</ele>
        <time>2025-05-15T07:52:20Z</time>
      </trkpt>
      <trkpt lat="42.513077007606626" lon="2.188223982229829">
        <ele>1015.29</ele>
        <time>2025-05-15T07:52:21Z</time>
      </trkpt>
      <trkpt lat="42.513059992343187" lon="2.188423974439502">
        <ele>1015.29</ele>
        <time>2025-05-15T07:52:22Z</time>
      </trkpt>
      <trkpt lat="42.513089999556541" lon="2.188608963042498">
        <ele>1015.29</ele>
        <time>2025-05-15T07:52:23Z</time>
      </trkpt>
      <trkpt lat="42.513121012598276" lon="2.188792023807764">
        <ele>1014.8099999999999</ele>
        <time>2025-05-15T07:52:24Z</time>
      </trkpt>
      <trkpt lat="42.513165017589927" lon="2.188967959955335">
        <ele>1014.8099999999999</ele>
        <time>2025-05-15T07:52:25Z</time>
      </trkpt>
      <trkpt lat="42.513207010924816" lon="2.189137022942305">
        <ele>1013.85</ele>
        <time>2025-05-15T07:52:26Z</time>
      </trkpt>
      <trkpt lat="42.513462994247675" lon="2.190184006467462">
        <ele>1010.96</ele>
        <time>2025-05-15T07:52:31Z</time>
      </trkpt>
      <trkpt lat="42.51360003836453" lon="2.190805021673441">
        <ele>1008.08</ele>
        <time>2025-05-15T07:52:34Z</time>
      </trkpt>
      <trkpt lat="42.513658963143826" lon="2.190978024154902">
        <ele>1007.6</ele>
        <time>2025-05-15T07:52:35Z</time>
      </trkpt>
      <trkpt lat="42.514176964759827" lon="2.191850999370217">
        <ele>1002.79</ele>
        <time>2025-05-15T07:52:40Z</time>
      </trkpt>
      <trkpt lat="42.51433102414012" lon="2.192187029868364">
        <ele>1000.87</ele>
        <time>2025-05-15T07:52:42Z</time>
      </trkpt>
      <trkpt lat="42.514421967789531" lon="2.192358020693064">
        <ele>999.90999999999997</ele>
        <time>2025-05-15T07:52:43Z</time>
      </trkpt>
      <trkpt lat="42.514545014128089" lon="2.192530017346144">
        <ele>999.42999999999995</ele>
        <time>2025-05-15T07:52:44Z</time>
      </trkpt>
      <trkpt lat="42.514838967472315" lon="2.192828999832273">
        <ele>997.01999999999998</ele>
        <time>2025-05-15T07:52:46Z</time>
      </trkpt>
      <trkpt lat="42.514917002990842" lon="2.19301600009203">
        <ele>996.05999999999995</ele>
        <time>2025-05-15T07:52:47Z</time>
      </trkpt>
      <trkpt lat="42.514961007982492" lon="2.193213980644941">
        <ele>994.62</ele>
        <time>2025-05-15T07:52:48Z</time>
      </trkpt>
      <trkpt lat="42.514986991882324" lon="2.193425036966801">
        <ele>993.65999999999997</ele>
        <time>2025-05-15T07:52:49Z</time>
      </trkpt>
      <trkpt lat="42.514969976618886" lon="2.193642966449261">
        <ele>992.22000000000003</ele>
        <time>2025-05-15T07:52:50Z</time>
      </trkpt>
      <trkpt lat="42.514952961355448" lon="2.193859973922372">
        <ele>991.25999999999999</ele>
        <time>2025-05-15T07:52:51Z</time>
      </trkpt>
      <trkpt lat="42.514968970790505" lon="2.194053009152412">
        <ele>989.80999999999995</ele>
        <time>2025-05-15T07:52:52Z</time>
      </trkpt>
      <trkpt lat="42.515015993267298" lon="2.194234980270267">
        <ele>988.85000000000002</ele>
        <time>2025-05-15T07:52:53Z</time>
      </trkpt>
      <trkpt lat="42.515062009915709" lon="2.194409994408488">
        <ele>988.37</ele>
        <time>2025-05-15T07:52:54Z</time>
      </trkpt>
      <trkpt lat="42.51514901407063" lon="2.194552989676595">
        <ele>987.40999999999997</ele>
        <time>2025-05-15T07:52:55Z</time>
      </trkpt>
      <trkpt lat="42.515256972983479" lon="2.194692967459559">
        <ele>986.45000000000005</ele>
        <time>2025-05-15T07:52:56Z</time>
      </trkpt>
      <trkpt lat="42.515380019322038" lon="2.194815007969737">
        <ele>985.49000000000001</ele>
        <time>2025-05-15T07:52:57Z</time>
      </trkpt>
      <trkpt lat="42.515512034296989" lon="2.194933025166392">
        <ele>984.52999999999997</ele>
        <time>2025-05-15T07:52:58Z</time>
      </trkpt>
      <trkpt lat="42.515910007059574" lon="2.195267966017127">
        <ele>982.12</ele>
        <time>2025-05-15T07:53:01Z</time>
      </trkpt>
      <trkpt lat="42.516061970964074" lon="2.19533896073699">
        <ele>981.15999999999997</ele>
        <time>2025-05-15T07:53:02Z</time>
      </trkpt>
      <trkpt lat="42.516678962856531" lon="2.195626040920615">
        <ele>978.27999999999997</ele>
        <time>2025-05-15T07:53:06Z</time>
      </trkpt>
      <trkpt lat="42.516815001145005" lon="2.195707010105252">
        <ele>977.32000000000005</ele>
        <time>2025-05-15T07:53:07Z</time>
      </trkpt>
      <trkpt lat="42.516919020563364" lon="2.195827960968018">
        <ele>975.88</ele>
        <time>2025-05-15T07:53:08Z</time>
      </trkpt>
      <trkpt lat="42.516986997798085" lon="2.195999035611749">
        <ele>974.90999999999997</ele>
        <time>2025-05-15T07:53:09Z</time>
      </trkpt>
      <trkpt lat="42.517023039981723" lon="2.196188969537616">
        <ele>973.95000000000005</ele>
        <time>2025-05-15T07:53:10Z</time>
      </trkpt>
      <trkpt lat="42.517046006396413" lon="2.196392985060811">
        <ele>972.99000000000001</ele>
        <time>2025-05-15T07:53:11Z</time>
      </trkpt>
      <trkpt lat="42.517007030546665" lon="2.196601023897529">
        <ele>972.02999999999997</ele>
        <time>2025-05-15T07:53:12Z</time>
      </trkpt>
      <trkpt lat="42.516964031383395" lon="2.196825994178653">
        <ele>971.54999999999995</ele>
        <time>2025-05-15T07:53:13Z</time>
      </trkpt>
      <trkpt lat="42.516922038048506" lon="2.197050964459777">
        <ele>970.59000000000003</ele>
        <time>2025-05-15T07:53:14Z</time>
      </trkpt>
      <trkpt lat="42.516916003078222" lon="2.197295967489481">
        <ele>969.14999999999998</ele>
        <time>2025-05-15T07:53:15Z</time>
      </trkpt>
      <trkpt lat="42.516952967271209" lon="2.197530996054411">
        <ele>967.22000000000003</ele>
        <time>2025-05-15T07:53:16Z</time>
      </trkpt>
      <trkpt lat="42.517023039981723" lon="2.198009015992284">
        <ele>964.34000000000003</ele>
        <time>2025-05-15T07:53:18Z</time>
      </trkpt>
      <trkpt lat="42.517009964212775" lon="2.198258964344859">
        <ele>962.89999999999998</ele>
        <time>2025-05-15T07:53:19Z</time>
      </trkpt>
      <trkpt lat="42.516967970877886" lon="2.198500027880073">
        <ele>961.46000000000004</ele>
        <time>2025-05-15T07:53:20Z</time>
      </trkpt>
      <trkpt lat="42.516908040270209" lon="2.198729021474719">
        <ele>960.49000000000001</ele>
        <time>2025-05-15T07:53:21Z</time>
      </trkpt>
      <trkpt lat="42.516850037500262" lon="2.198950974270701">
        <ele>959.04999999999995</ele>
        <time>2025-05-15T07:53:22Z</time>
      </trkpt>
      <trkpt lat="42.516747023910284" lon="2.199347019195557">
        <ele>957.13</ele>
        <time>2025-05-15T07:53:24Z</time>
      </trkpt>
      <trkpt lat="42.516650967299938" lon="2.199578024446964">
        <ele>956.16999999999996</ele>
        <time>2025-05-15T07:53:25Z</time>
      </trkpt>
      <trkpt lat="42.516649039462209" lon="2.199801988899708">
        <ele>955.21000000000004</ele>
        <time>2025-05-15T07:53:26Z</time>
      </trkpt>
      <trkpt lat="42.516692960634828" lon="2.20002100802958">
        <ele>954.73000000000002</ele>
        <time>2025-05-15T07:53:27Z</time>
      </trkpt>
      <trkpt lat="42.516778036952019" lon="2.200219994410873">
        <ele>953.27999999999997</ele>
        <time>2025-05-15T07:53:28Z</time>
      </trkpt>
      <trkpt lat="42.516869986429811" lon="2.200425015762448">
        <ele>952.32000000000005</ele>
        <time>2025-05-15T07:53:29Z</time>
      </trkpt>
      <trkpt lat="42.51781596802175" lon="2.202270040288568">
        <ele>941.75</ele>
        <time>2025-05-15T07:53:38Z</time>
      </trkpt>
      <trkpt lat="42.517945971339941" lon="2.202672958374023">
        <ele>939.35000000000002</ele>
        <time>2025-05-15T07:53:40Z</time>
      </trkpt>
      <trkpt lat="42.518038004636765" lon="2.202833974733949">
        <ele>938.38</ele>
        <time>2025-05-15T07:53:41Z</time>
      </trkpt>
      <trkpt lat="42.518145041540265" lon="2.202992979437113">
        <ele>937.89999999999998</ele>
        <time>2025-05-15T07:53:42Z</time>
      </trkpt>
      <trkpt lat="42.518816012889147" lon="2.203714996576309">
        <ele>932.62</ele>
        <time>2025-05-15T07:53:47Z</time>
      </trkpt>
      <trkpt lat="42.518979040905833" lon="2.203809963539243">
        <ele>931.64999999999998</ele>
        <time>2025-05-15T07:53:48Z</time>
      </trkpt>
      <trkpt lat="42.519424958154559" lon="2.204067958518863">
        <ele>927.80999999999995</ele>
        <time>2025-05-15T07:53:51Z</time>
      </trkpt>
      <trkpt lat="42.519525038078427" lon="2.204226963222027">
        <ele>926.37</ele>
        <time>2025-05-15T07:53:52Z</time>
      </trkpt>
      <trkpt lat="42.519615981727839" lon="2.204407006502152">
        <ele>925.40999999999997</ele>
        <time>2025-05-15T07:53:53Z</time>
      </trkpt>
      <trkpt lat="42.519686976447701" lon="2.204590989276767">
        <ele>923.96000000000004</ele>
        <time>2025-05-15T07:53:54Z</time>
      </trkpt>
      <trkpt lat="42.519708015024662" lon="2.204786958172917">
        <ele>922.51999999999998</ele>
        <time>2025-05-15T07:53:55Z</time>
      </trkpt>
      <trkpt lat="42.519708015024662" lon="2.204969013109803">
        <ele>921.08000000000004</ele>
        <time>2025-05-15T07:53:56Z</time>
      </trkpt>
      <trkpt lat="42.519708015024662" lon="2.205075966194272">
        <ele>920.12</ele>
        <time>2025-05-15T07:53:57Z</time>
      </trkpt>
      <trkpt lat="42.519711032509804" lon="2.20558499917388">
        <ele>911.95000000000005</ele>
        <time>2025-05-15T07:54:04Z</time>
      </trkpt>
      <trkpt lat="42.519711032509804" lon="2.20558499917388">
        <ele>910.50999999999999</ele>
        <time>2025-05-15T07:54:14Z</time>
      </trkpt>
      <trkpt lat="42.519716983661056" lon="2.205654988065362">
        <ele>909.53999999999996</ele>
        <time>2025-05-15T07:55:03Z</time>
      </trkpt>
      <trkpt lat="42.519782027229667" lon="2.205953970551491">
        <ele>909.53999999999996</ele>
        <time>2025-05-15T07:55:06Z</time>
      </trkpt>
      <trkpt lat="42.519837012514472" lon="2.206064024940133">
        <ele>909.53999999999996</ele>
        <time>2025-05-15T07:55:07Z</time>
      </trkpt>
      <trkpt lat="42.519904989749193" lon="2.20616402104497">
        <ele>909.53999999999996</ele>
        <time>2025-05-15T07:55:08Z</time>
      </trkpt>
      <trkpt lat="42.520000962540507" lon="2.206220012158155">
        <ele>909.53999999999996</ele>
        <time>2025-05-15T07:55:09Z</time>
      </trkpt>
      <trkpt lat="42.520137000828981" lon="2.206298969686031">
        <ele>909.05999999999995</ele>
        <time>2025-05-15T07:55:10Z</time>
      </trkpt>
      <trkpt lat="42.520216964185238" lon="2.206327971071005">
        <ele>909.05999999999995</ele>
        <time>2025-05-15T07:55:11Z</time>
      </trkpt>
      <trkpt lat="42.520331963896751" lon="2.206368958577514">
        <ele>908.58000000000004</ele>
        <time>2025-05-15T07:55:12Z</time>
      </trkpt>
      <trkpt lat="42.520451992750168" lon="2.206424027681351">
        <ele>908.10000000000002</ele>
        <time>2025-05-15T07:55:13Z</time>
      </trkpt>
      <trkpt lat="42.520548971369863" lon="2.206538021564484">
        <ele>907.62</ele>
        <time>2025-05-15T07:55:14Z</time>
      </trkpt>
      <trkpt lat="42.520651984959841" lon="2.20665997825563">
        <ele>906.65999999999997</ele>
        <time>2025-05-15T07:55:15Z</time>
      </trkpt>
      <trkpt lat="42.520744018256664" lon="2.20680900849402">
        <ele>906.17999999999995</ele>
        <time>2025-05-15T07:55:16Z</time>
      </trkpt>
      <trkpt lat="42.520824987441301" lon="2.206986034289002">
        <ele>905.70000000000005</ele>
        <time>2025-05-15T07:55:17Z</time>
      </trkpt>
      <trkpt lat="42.521106032654643" lon="2.207715008407831">
        <ele>902.82000000000005</ele>
        <time>2025-05-15T07:55:21Z</time>
      </trkpt>
      <trkpt lat="42.521156994625926" lon="2.207894967868924">
        <ele>901.85000000000002</ele>
        <time>2025-05-15T07:55:22Z</time>
      </trkpt>
      <trkpt lat="42.521179961040616" lon="2.208086997270584">
        <ele>900.88999999999999</ele>
        <time>2025-05-15T07:55:23Z</time>
      </trkpt>
      <trkpt lat="42.521184990182519" lon="2.208281038329005">
        <ele>900.40999999999997</ele>
        <time>2025-05-15T07:55:24Z</time>
      </trkpt>
      <trkpt lat="42.521176021546125" lon="2.208483964204788">
        <ele>899.45000000000005</ele>
        <time>2025-05-15T07:55:25Z</time>
      </trkpt>
      <trkpt lat="42.5211669690907" lon="2.208702983334661">
        <ele>898.97000000000003</ele>
        <time>2025-05-15T07:55:26Z</time>
      </trkpt>
      <trkpt lat="42.521150037646294" lon="2.208900963887572">
        <ele>898.00999999999999</ele>
        <time>2025-05-15T07:55:27Z</time>
      </trkpt>
      <trkpt lat="42.521082982420921" lon="2.209653994068503">
        <ele>895.12</ele>
        <time>2025-05-15T07:55:31Z</time>
      </trkpt>
      <trkpt lat="42.521147020161152" lon="2.209815010428429">
        <ele>894.15999999999997</ele>
        <time>2025-05-15T07:55:32Z</time>
      </trkpt>
      <trkpt lat="42.521214997395873" lon="2.209965968504548">
        <ele>893.20000000000005</ele>
        <time>2025-05-15T07:55:33Z</time>
      </trkpt>
      <trkpt lat="42.521284986287355" lon="2.210122961550951">
        <ele>892.24000000000001</ele>
        <time>2025-05-15T07:55:34Z</time>
      </trkpt>
      <trkpt lat="42.521360004320741" lon="2.21029001288116">
        <ele>891.27999999999997</ele>
        <time>2025-05-15T07:55:35Z</time>
      </trkpt>
      <trkpt lat="42.521386994048953" lon="2.210475001484156">
        <ele>890.32000000000005</ele>
        <time>2025-05-15T07:55:36Z</time>
      </trkpt>
      <trkpt lat="42.521414989605546" lon="2.210672982037067">
        <ele>889.36000000000001</ele>
        <time>2025-05-15T07:55:37Z</time>
      </trkpt>
      <trkpt lat="42.52146796323359" lon="2.21108503639698">
        <ele>887.90999999999997</ele>
        <time>2025-05-15T07:55:39Z</time>
      </trkpt>
      <trkpt lat="42.52146796323359" lon="2.211699010804296">
        <ele>885.50999999999999</ele>
        <time>2025-05-15T07:55:42Z</time>
      </trkpt>
      <trkpt lat="42.521524038165808" lon="2.211872013285756">
        <ele>885.02999999999997</ele>
        <time>2025-05-15T07:55:43Z</time>
      </trkpt>
      <trkpt lat="42.521580029278994" lon="2.212039986625314">
        <ele>884.54999999999995</ele>
        <time>2025-05-15T07:55:44Z</time>
      </trkpt>
      <trkpt lat="42.522002980113029" lon="2.213356029242277">
        <ele>879.74000000000001</ele>
        <time>2025-05-15T07:55:51Z</time>
      </trkpt>
      <trkpt lat="42.522036004811525" lon="2.213569013401866">
        <ele>878.77999999999997</ele>
        <time>2025-05-15T07:55:52Z</time>
      </trkpt>
      <trkpt lat="42.52208998426795" lon="2.214430002495647">
        <ele>875.89999999999998</ele>
        <time>2025-05-15T07:55:56Z</time>
      </trkpt>
      <trkpt lat="42.522056037560105" lon="2.214623037725687">
        <ele>874.94000000000005</ele>
        <time>2025-05-15T07:55:57Z</time>
      </trkpt>
      <trkpt lat="42.522025024518371" lon="2.21480299718678">
        <ele>873.5</ele>
        <time>2025-05-15T07:55:58Z</time>
      </trkpt>
      <trkpt lat="42.521994011476636" lon="2.214979017153382">
        <ele>872.52999999999997</ele>
        <time>2025-05-15T07:55:59Z</time>
      </trkpt>
      <trkpt lat="42.52196098677814" lon="2.215160988271236">
        <ele>871.57000000000005</ele>
        <time>2025-05-15T07:56:00Z</time>
      </trkpt>
      <trkpt lat="42.521991999819875" lon="2.215314041823149">
        <ele>870.13</ele>
        <time>2025-05-15T07:56:01Z</time>
      </trkpt>
      <trkpt lat="42.522066012024879" lon="2.215461982414126">
        <ele>869.16999999999996</ele>
        <time>2025-05-15T07:56:02Z</time>
      </trkpt>
      <trkpt lat="42.522161984816194" lon="2.21559701487422">
        <ele>868.21000000000004</ele>
        <time>2025-05-15T07:56:03Z</time>
      </trkpt>
      <trkpt lat="42.52223901450634" lon="2.215758031234145">
        <ele>867.25</ele>
        <time>2025-05-15T07:56:04Z</time>
      </trkpt>
      <trkpt lat="42.522283019497991" lon="2.215933967381716">
        <ele>866.28999999999996</ele>
        <time>2025-05-15T07:56:05Z</time>
      </trkpt>
      <trkpt lat="42.522278996184468" lon="2.21613597124815">
        <ele>865.79999999999995</ele>
        <time>2025-05-15T07:56:06Z</time>
      </trkpt>
      <trkpt lat="42.522273967042565" lon="2.216344010084868">
        <ele>864.84000000000003</ele>
        <time>2025-05-15T07:56:07Z</time>
      </trkpt>
      <trkpt lat="42.522270027548075" lon="2.216554982587695">
        <ele>864.36000000000001</ele>
        <time>2025-05-15T07:56:08Z</time>
      </trkpt>
      <trkpt lat="42.522264998406172" lon="2.216764027252793">
        <ele>863.88</ele>
        <time>2025-05-15T07:56:09Z</time>
      </trkpt>
      <trkpt lat="42.522276984527707" lon="2.216970976442099">
        <ele>863.39999999999998</ele>
        <time>2025-05-15T07:56:10Z</time>
      </trkpt>
      <trkpt lat="42.522338004782796" lon="2.217159988358617">
        <ele>862.44000000000005</ele>
        <time>2025-05-15T07:56:11Z</time>
      </trkpt>
      <trkpt lat="42.522397013381124" lon="2.217346988618374">
        <ele>861.48000000000002</ele>
        <time>2025-05-15T07:56:12Z</time>
      </trkpt>
      <trkpt lat="42.522488040849566" lon="2.21751001663506">
        <ele>860.03999999999996</ele>
        <time>2025-05-15T07:56:13Z</time>
      </trkpt>
      <trkpt lat="42.522590970620513" lon="2.217668015509844">
        <ele>859.08000000000004</ele>
        <time>2025-05-15T07:56:14Z</time>
      </trkpt>
      <trkpt lat="42.522690966725349" lon="2.217821991071105">
        <ele>857.63</ele>
        <time>2025-05-15T07:56:15Z</time>
      </trkpt>
      <trkpt lat="42.522772019729018" lon="2.218013014644384">
        <ele>856.66999999999996</ele>
        <time>2025-05-15T07:56:16Z</time>
      </trkpt>
      <trkpt lat="42.522907974198461" lon="2.218335969373584">
        <ele>855.71000000000004</ele>
        <time>2025-05-15T07:56:18Z</time>
      </trkpt>
      <trkpt lat="42.523001013323665" lon="2.218436971306801">
        <ele>855.71000000000004</ele>
        <time>2025-05-15T07:56:19Z</time>
      </trkpt>
      <trkpt lat="42.52312196418643" lon="2.218530010432005">
        <ele>854.75</ele>
        <time>2025-05-15T07:56:20Z</time>
      </trkpt>
      <trkpt lat="42.523373002186418" lon="2.218747017905116">
        <ele>852.83000000000004</ele>
        <time>2025-05-15T07:56:22Z</time>
      </trkpt>
      <trkpt lat="42.523499988019466" lon="2.21886302344501">
        <ele>851.87</ele>
        <time>2025-05-15T07:56:23Z</time>
      </trkpt>
      <trkpt lat="42.523630997166038" lon="2.218982968479395">
        <ele>850.89999999999998</ele>
        <time>2025-05-15T07:56:24Z</time>
      </trkpt>
      <trkpt lat="42.523768963292241" lon="2.219095034524798">
        <ele>849.94000000000005</ele>
        <time>2025-05-15T07:56:25Z</time>
      </trkpt>
      <trkpt lat="42.523911036550999" lon="2.219196036458015">
        <ele>848.98000000000002</ele>
        <time>2025-05-15T07:56:26Z</time>
      </trkpt>
      <trkpt lat="42.524304986000061" lon="2.219553021714091">
        <ele>846.10000000000002</ele>
        <time>2025-05-15T07:56:29Z</time>
      </trkpt>
      <trkpt lat="42.524413028731942" lon="2.219706997275353">
        <ele>845.13999999999999</ele>
        <time>2025-05-15T07:56:30Z</time>
      </trkpt>
      <trkpt lat="42.524506989866495" lon="2.219867007806897">
        <ele>844.17999999999995</ele>
        <time>2025-05-15T07:56:31Z</time>
      </trkpt>
      <trkpt lat="42.524596005678177" lon="2.2200430277735">
        <ele>843.21000000000004</ele>
        <time>2025-05-15T07:56:32Z</time>
      </trkpt>
      <trkpt lat="42.524656020104885" lon="2.22023799084127">
        <ele>842.25</ele>
        <time>2025-05-15T07:56:33Z</time>
      </trkpt>
      <trkpt lat="42.524717040359974" lon="2.220434965565801">
        <ele>841.28999999999996</ele>
        <time>2025-05-15T07:56:34Z</time>
      </trkpt>
      <trkpt lat="42.525207968428731" lon="2.221745979040861">
        <ele>835.51999999999998</ele>
        <time>2025-05-15T07:56:41Z</time>
      </trkpt>
      <trkpt lat="42.52524996176362" lon="2.221934990957379">
        <ele>834.55999999999995</ele>
        <time>2025-05-15T07:56:42Z</time>
      </trkpt>
      <trkpt lat="42.525346018373966" lon="2.222292982041836">
        <ele>832.63999999999999</ele>
        <time>2025-05-15T07:56:44Z</time>
      </trkpt>
      <trkpt lat="42.5254219584167" lon="2.222461961209774">
        <ele>832.15999999999997</ele>
        <time>2025-05-15T07:56:45Z</time>
      </trkpt>
      <trkpt lat="42.525808028876781" lon="2.223334014415741">
        <ele>829.26999999999998</ele>
        <time>2025-05-15T07:56:50Z</time>
      </trkpt>
      <trkpt lat="42.525862008333206" lon="2.223502993583679">
        <ele>829.75999999999999</ele>
        <time>2025-05-15T07:56:51Z</time>
      </trkpt>
      <trkpt lat="42.525928979739547" lon="2.223862996324897">
        <ele>830.24000000000001</ele>
        <time>2025-05-15T07:56:53Z</time>
      </trkpt>
      <trkpt lat="42.525922022759914" lon="2.224046979099512">
        <ele>830.72000000000003</ele>
        <time>2025-05-15T07:56:54Z</time>
      </trkpt>
      <trkpt lat="42.525912970304489" lon="2.224229034036398">
        <ele>830.72000000000003</ele>
        <time>2025-05-15T07:56:55Z</time>
      </trkpt>
      <trkpt lat="42.525875000283122" lon="2.224413016811013">
        <ele>831.20000000000005</ele>
        <time>2025-05-15T07:56:56Z</time>
      </trkpt>
      <trkpt lat="42.525820014998317" lon="2.224593982100487">
        <ele>831.67999999999995</ele>
        <time>2025-05-15T07:56:57Z</time>
      </trkpt>
      <trkpt lat="42.525764023885131" lon="2.224774025380611">
        <ele>832.15999999999997</ele>
        <time>2025-05-15T07:56:58Z</time>
      </trkpt>
      <trkpt lat="42.525534024462104" lon="2.225658986717463">
        <ele>831.20000000000005</ele>
        <time>2025-05-15T07:57:03Z</time>
      </trkpt>
      <trkpt lat="42.52546202391386" lon="2.225822014734149">
        <ele>830.72000000000003</ele>
        <time>2025-05-15T07:57:04Z</time>
      </trkpt>
      <trkpt lat="42.525393962860107" lon="2.22588999196887">
        <ele>829.75999999999999</ele>
        <time>2025-05-15T07:57:05Z</time>
      </trkpt>
      <trkpt lat="42.525235963985324" lon="2.225960986688733">
        <ele>828.78999999999996</ele>
        <time>2025-05-15T07:57:06Z</time>
      </trkpt>
      <trkpt lat="42.525114007294178" lon="2.225984958931804">
        <ele>827.83000000000004</ele>
        <time>2025-05-15T07:57:07Z</time>
      </trkpt>
      <trkpt lat="42.524986015632749" lon="2.225997028872371">
        <ele>826.87</ele>
        <time>2025-05-15T07:57:08Z</time>
      </trkpt>
      <trkpt lat="42.524861041456461" lon="2.226003985852003">
        <ele>826.38999999999999</ele>
        <time>2025-05-15T07:57:09Z</time>
      </trkpt>
      <trkpt lat="42.524746041744947" lon="2.226016977801919">
        <ele>825.90999999999997</ele>
        <time>2025-05-15T07:57:10Z</time>
      </trkpt>
      <trkpt lat="42.52466800622642" lon="2.226098030805588">
        <ele>825.42999999999995</ele>
        <time>2025-05-15T07:57:11Z</time>
      </trkpt>
      <trkpt lat="42.524591982364655" lon="2.226195009425283">
        <ele>823.99000000000001</ele>
        <time>2025-05-15T07:57:12Z</time>
      </trkpt>
      <trkpt lat="42.524546971544623" lon="2.226323001086712">
        <ele>823.02999999999997</ele>
        <time>2025-05-15T07:57:13Z</time>
      </trkpt>
      <trkpt lat="42.524487962946296" lon="2.226478988304734">
        <ele>822.05999999999995</ele>
        <time>2025-05-15T07:57:14Z</time>
      </trkpt>
      <trkpt lat="42.524203984066844" lon="2.227163035422564">
        <ele>819.17999999999995</ele>
        <time>2025-05-15T07:57:18Z</time>
      </trkpt>
      <trkpt lat="42.52415201626718" lon="2.227359004318714">
        <ele>818.70000000000005</ele>
        <time>2025-05-15T07:57:19Z</time>
      </trkpt>
      <trkpt lat="42.524116979911923" lon="2.227570982649922">
        <ele>817.74000000000001</ele>
        <time>2025-05-15T07:57:20Z</time>
      </trkpt>
      <trkpt lat="42.524050008505583" lon="2.227970967069268">
        <ele>816.29999999999995</ele>
        <time>2025-05-15T07:57:22Z</time>
      </trkpt>
      <trkpt lat="42.524055037647486" lon="2.228164002299309">
        <ele>815.34000000000003</ele>
        <time>2025-05-15T07:57:23Z</time>
      </trkpt>
      <trkpt lat="42.524070963263512" lon="2.228374974802136">
        <ele>814.85000000000002</ele>
        <time>2025-05-15T07:57:24Z</time>
      </trkpt>
      <trkpt lat="42.524535991251469" lon="2.23042300902307">
        <ele>810.52999999999997</ele>
        <time>2025-05-15T07:57:33Z</time>
      </trkpt>
      <trkpt lat="42.524848971515894" lon="2.231700997799635">
        <ele>807.63999999999999</ele>
        <time>2025-05-15T07:57:38Z</time>
      </trkpt>
      <trkpt lat="42.524976041167974" lon="2.232220005244017">
        <ele>806.67999999999995</ele>
        <time>2025-05-15T07:57:40Z</time>
      </trkpt>
      <trkpt lat="42.525038989260793" lon="2.232479006052017">
        <ele>806.20000000000005</ele>
        <time>2025-05-15T07:57:41Z</time>
      </trkpt>
      <trkpt lat="42.525101015344262" lon="2.232730966061354">
        <ele>806.20000000000005</ele>
        <time>2025-05-15T07:57:42Z</time>
      </trkpt>
      <trkpt lat="42.525625973939896" lon="2.234489992260933">
        <ele>803.79999999999995</ele>
        <time>2025-05-15T07:57:49Z</time>
      </trkpt>
      <trkpt lat="42.525752959772944" lon="2.234945967793465">
        <ele>802.84000000000003</ele>
        <time>2025-05-15T07:57:51Z</time>
      </trkpt>
      <trkpt lat="42.525968961417675" lon="2.235824977979064">
        <ele>800.91999999999996</ele>
        <time>2025-05-15T07:57:55Z</time>
      </trkpt>
      <trkpt lat="42.526015983894467" lon="2.236016001552343">
        <ele>800.44000000000005</ele>
        <time>2025-05-15T07:57:56Z</time>
      </trkpt>
      <trkpt lat="42.52608303911984" lon="2.236187998205423">
        <ele>799.95000000000005</ele>
        <time>2025-05-15T07:57:57Z</time>
      </trkpt>
      <trkpt lat="42.526204995810986" lon="2.236568033695221">
        <ele>798.99000000000001</ele>
        <time>2025-05-15T07:57:59Z</time>
      </trkpt>
      <trkpt lat="42.526323013007641" lon="2.237029960379005">
        <ele>797.07000000000005</ele>
        <time>2025-05-15T07:58:01Z</time>
      </trkpt>
      <trkpt lat="42.526412028819323" lon="2.237253002822399">
        <ele>796.11000000000001</ele>
        <time>2025-05-15T07:58:02Z</time>
      </trkpt>
      <trkpt lat="42.526938999071717" lon="2.238898035138845">
        <ele>788.89999999999998</ele>
        <time>2025-05-15T07:58:09Z</time>
      </trkpt>
      <trkpt lat="42.527491031214595" lon="2.241520984098315">
        <ele>778.32000000000005</ele>
        <time>2025-05-15T07:58:19Z</time>
      </trkpt>
      <trkpt lat="42.527920017018914" lon="2.243169033899903">
        <ele>770.63</ele>
        <time>2025-05-15T07:58:26Z</time>
      </trkpt>
      <trkpt lat="42.528308015316725" lon="2.245273981243372">
        <ele>760.53999999999996</ele>
        <time>2025-05-15T07:58:35Z</time>
      </trkpt>
      <trkpt lat="42.528381021693349" lon="2.245777985081077">
        <ele>757.65999999999997</ele>
        <time>2025-05-15T07:58:38Z</time>
      </trkpt>
      <trkpt lat="42.528398958966136" lon="2.245867000892758">
        <ele>757.17999999999995</ele>
        <time>2025-05-15T07:58:39Z</time>
      </trkpt>
      <trkpt lat="42.52846903167665" lon="2.245927015319467">
        <ele>756.21000000000004</ele>
        <time>2025-05-15T07:58:40Z</time>
      </trkpt>
      <trkpt lat="42.528548995032907" lon="2.245995998382568">
        <ele>755.73000000000002</ele>
        <time>2025-05-15T07:58:41Z</time>
      </trkpt>
      <trkpt lat="42.528623007237911" lon="2.246011001989245">
        <ele>755.73000000000002</ele>
        <time>2025-05-15T07:58:42Z</time>
      </trkpt>
      <trkpt lat="42.52872702665627" lon="2.246031034737825">
        <ele>755.25</ele>
        <time>2025-05-15T07:58:43Z</time>
      </trkpt>
      <trkpt lat="42.528834985569119" lon="2.246052995324135">
        <ele>754.76999999999998</ele>
        <time>2025-05-15T07:58:44Z</time>
      </trkpt>
      <trkpt lat="42.528914026916027" lon="2.246151985600591">
        <ele>754.28999999999996</ele>
        <time>2025-05-15T07:58:45Z</time>
      </trkpt>
      <trkpt lat="42.528972029685974" lon="2.246275031939149">
        <ele>753.33000000000004</ele>
        <time>2025-05-15T07:58:46Z</time>
      </trkpt>
      <trkpt lat="42.529037995263934" lon="2.246415009722114">
        <ele>752.37</ele>
        <time>2025-05-15T07:58:47Z</time>
      </trkpt>
      <trkpt lat="42.529097003862262" lon="2.246564039960504">
        <ele>751.40999999999997</ele>
        <time>2025-05-15T07:58:48Z</time>
      </trkpt>
      <trkpt lat="42.529155006632209" lon="2.246731007471681">
        <ele>750.45000000000005</ele>
        <time>2025-05-15T07:58:49Z</time>
      </trkpt>
      <trkpt lat="42.529210997745395" lon="2.246892023831606">
        <ele>749.49000000000001</ele>
        <time>2025-05-15T07:58:50Z</time>
      </trkpt>
      <trkpt lat="42.529279980808496" lon="2.247035019099712">
        <ele>748.51999999999998</ele>
        <time>2025-05-15T07:58:51Z</time>
      </trkpt>
      <trkpt lat="42.529347036033869" lon="2.247148007154465">
        <ele>747.08000000000004</ele>
        <time>2025-05-15T07:58:52Z</time>
      </trkpt>
      <trkpt lat="42.529446026310325" lon="2.247228976339102">
        <ele>746.12</ele>
        <time>2025-05-15T07:58:53Z</time>
      </trkpt>
      <trkpt lat="42.529666973277926" lon="2.247370965778828">
        <ele>743.72000000000003</ele>
        <time>2025-05-15T07:58:55Z</time>
      </trkpt>
      <trkpt lat="42.529779961332679" lon="2.247458975762129">
        <ele>742.75999999999999</ele>
        <time>2025-05-15T07:58:56Z</time>
      </trkpt>
      <trkpt lat="42.52988800406456" lon="2.247552014887333">
        <ele>741.30999999999995</ele>
        <time>2025-05-15T07:58:57Z</time>
      </trkpt>
      <trkpt lat="42.529988000169396" lon="2.247657962143421">
        <ele>740.83000000000004</ele>
        <time>2025-05-15T07:58:58Z</time>
      </trkpt>
      <trkpt lat="42.53008003346622" lon="2.247756030410528">
        <ele>739.87</ele>
        <time>2025-05-15T07:58:59Z</time>
      </trkpt>
      <trkpt lat="42.530169971287251" lon="2.247850997373462">
        <ele>738.90999999999997</ele>
        <time>2025-05-15T07:59:00Z</time>
      </trkpt>
      <trkpt lat="42.530282959342003" lon="2.247901959344745">
        <ele>737.95000000000005</ele>
        <time>2025-05-15T07:59:01Z</time>
      </trkpt>
      <trkpt lat="42.530406005680561" lon="2.247924003750086">
        <ele>736.99000000000001</ele>
        <time>2025-05-15T07:59:02Z</time>
      </trkpt>
      <trkpt lat="42.530524022877216" lon="2.247895002365112">
        <ele>736.50999999999999</ele>
        <time>2025-05-15T07:59:03Z</time>
      </trkpt>
      <trkpt lat="42.530627036467195" lon="2.247823001816869">
        <ele>736.02999999999997</ele>
        <time>2025-05-15T07:59:04Z</time>
      </trkpt>
      <trkpt lat="42.530720997601748" lon="2.247729040682316">
        <ele>735.54999999999995</ele>
        <time>2025-05-15T07:59:05Z</time>
      </trkpt>
      <trkpt lat="42.530813030898571" lon="2.247637007385492">
        <ele>735.07000000000005</ele>
        <time>2025-05-15T07:59:06Z</time>
      </trkpt>
      <trkpt lat="42.530904980376363" lon="2.247544974088669">
        <ele>734.58000000000004</ele>
        <time>2025-05-15T07:59:07Z</time>
      </trkpt>
      <trkpt lat="42.531024003401399" lon="2.247528964653611">
        <ele>734.10000000000002</ele>
        <time>2025-05-15T07:59:08Z</time>
      </trkpt>
      <trkpt lat="42.531137997284532" lon="2.247522007673979">
        <ele>734.10000000000002</ele>
        <time>2025-05-15T07:59:09Z</time>
      </trkpt>
      <trkpt lat="42.531250985339284" lon="2.247541034594178">
        <ele>733.62</ele>
        <time>2025-05-15T07:59:10Z</time>
      </trkpt>
      <trkpt lat="42.531332960352302" lon="2.247634995728731">
        <ele>733.62</ele>
        <time>2025-05-15T07:59:11Z</time>
      </trkpt>
      <trkpt lat="42.531408984214067" lon="2.247743960469961">
        <ele>733.13999999999999</ele>
        <time>2025-05-15T07:59:12Z</time>
      </trkpt>
      <trkpt lat="42.531480984762311" lon="2.247878992930055">
        <ele>733.13999999999999</ele>
        <time>2025-05-15T07:59:13Z</time>
      </trkpt>
      <trkpt lat="42.531552985310555" lon="2.248013019561768">
        <ele>733.13999999999999</ele>
        <time>2025-05-15T07:59:14Z</time>
      </trkpt>
      <trkpt lat="42.531600007787347" lon="2.248155009001494">
        <ele>733.62</ele>
        <time>2025-05-15T07:59:15Z</time>
      </trkpt>
      <trkpt lat="42.531646024435759" lon="2.248290041461587">
        <ele>733.62</ele>
        <time>2025-05-15T07:59:16Z</time>
      </trkpt>
      <trkpt lat="42.53169103525579" lon="2.248414009809494">
        <ele>734.58000000000004</ele>
        <time>2025-05-15T07:59:17Z</time>
      </trkpt>
      <trkpt lat="42.531773010268807" lon="2.248524986207485">
        <ele>735.54999999999995</ele>
        <time>2025-05-15T07:59:18Z</time>
      </trkpt>
      <trkpt lat="42.531895972788334" lon="2.248571002855897">
        <ele>736.50999999999999</ele>
        <time>2025-05-15T07:59:19Z</time>
      </trkpt>
      <trkpt lat="42.531982976943254" lon="2.248553987592459">
        <ele>736.99000000000001</ele>
        <time>2025-05-15T07:59:20Z</time>
      </trkpt>
      <trkpt lat="42.532094037160277" lon="2.248531021177769">
        <ele>737.95000000000005</ele>
        <time>2025-05-15T07:59:21Z</time>
      </trkpt>
      <trkpt lat="42.532196966931224" lon="2.248571002855897">
        <ele>738.90999999999997</ele>
        <time>2025-05-15T07:59:22Z</time>
      </trkpt>
      <trkpt lat="42.53229696303606" lon="2.248652977868915">
        <ele>739.38999999999999</ele>
        <time>2025-05-15T07:59:23Z</time>
      </trkpt>
      <trkpt lat="42.532433001324534" lon="2.248764038085938">
        <ele>740.35000000000002</ele>
        <time>2025-05-15T07:59:24Z</time>
      </trkpt>
      <trkpt lat="42.532542971894145" lon="2.248805025592446">
        <ele>741.30999999999995</ele>
        <time>2025-05-15T07:59:25Z</time>
      </trkpt>
      <trkpt lat="42.532679010182619" lon="2.248855987563729">
        <ele>741.78999999999996</ele>
        <time>2025-05-15T07:59:26Z</time>
      </trkpt>
      <trkpt lat="42.532932981848717" lon="2.248951960355043">
        <ele>743.24000000000001</ele>
        <time>2025-05-15T07:59:28Z</time>
      </trkpt>
      <trkpt lat="42.533015962690115" lon="2.249060003086925">
        <ele>743.72000000000003</ele>
        <time>2025-05-15T07:59:29Z</time>
      </trkpt>
      <trkpt lat="42.533080000430346" lon="2.249190006405115">
        <ele>743.72000000000003</ele>
        <time>2025-05-15T07:59:30Z</time>
      </trkpt>
      <trkpt lat="42.533095004037023" lon="2.249359991401434">
        <ele>744.20000000000005</ele>
        <time>2025-05-15T07:59:31Z</time>
      </trkpt>
      <trkpt lat="42.533112019300461" lon="2.249540034681559">
        <ele>744.20000000000005</ele>
        <time>2025-05-15T07:59:32Z</time>
      </trkpt>
      <trkpt lat="42.533127022907138" lon="2.249710019677877">
        <ele>744.20000000000005</ele>
        <time>2025-05-15T07:59:33Z</time>
      </trkpt>
      <trkpt lat="42.533135991543531" lon="2.249871036037803">
        <ele>744.20000000000005</ele>
        <time>2025-05-15T07:59:34Z</time>
      </trkpt>
      <trkpt lat="42.533081006258726" lon="2.25001897662878">
        <ele>744.67999999999995</ele>
        <time>2025-05-15T07:59:35Z</time>
      </trkpt>
      <trkpt lat="42.533023003488779" lon="2.250175969675183">
        <ele>745.15999999999997</ele>
        <time>2025-05-15T07:59:36Z</time>
      </trkpt>
      <trkpt lat="42.53296097740531" lon="2.250342015177012">
        <ele>745.63999999999999</ele>
        <time>2025-05-15T07:59:37Z</time>
      </trkpt>
      <trkpt lat="42.532850001007318" lon="2.250672010704875">
        <ele>746.12</ele>
        <time>2025-05-15T07:59:39Z</time>
      </trkpt>
      <trkpt lat="42.532816976308823" lon="2.250845013186336">
        <ele>746.60000000000002</ele>
        <time>2025-05-15T07:59:40Z</time>
      </trkpt>
      <trkpt lat="42.532775988802314" lon="2.251060009002686">
        <ele>746.12</ele>
        <time>2025-05-15T07:59:41Z</time>
      </trkpt>
      <trkpt lat="42.532899035140872" lon="2.251952011138201">
        <ele>746.60000000000002</ele>
        <time>2025-05-15T07:59:46Z</time>
      </trkpt>
      <trkpt lat="42.532959971576929" lon="2.252119984477758">
        <ele>746.12</ele>
        <time>2025-05-15T07:59:47Z</time>
      </trkpt>
      <trkpt lat="42.533020991832018" lon="2.252283012494445">
        <ele>746.12</ele>
        <time>2025-05-15T07:59:48Z</time>
      </trkpt>
      <trkpt lat="42.533165998756886" lon="2.252606973052025">
        <ele>745.63999999999999</ele>
        <time>2025-05-15T07:59:50Z</time>
      </trkpt>
      <trkpt lat="42.533184019848704" lon="2.252825992181897">
        <ele>745.15999999999997</ele>
        <time>2025-05-15T07:59:51Z</time>
      </trkpt>
      <trkpt lat="42.533184019848704" lon="2.253016009926796">
        <ele>745.15999999999997</ele>
        <time>2025-05-15T07:59:52Z</time>
      </trkpt>
      <trkpt lat="42.533184019848704" lon="2.253199992701411">
        <ele>745.15999999999997</ele>
        <time>2025-05-15T07:59:53Z</time>
      </trkpt>
      <trkpt lat="42.533184019848704" lon="2.253376012668014">
        <ele>745.15999999999997</ele>
        <time>2025-05-15T07:59:54Z</time>
      </trkpt>
      <trkpt lat="42.53321603871882" lon="2.2536910045892">
        <ele>744.67999999999995</ele>
        <time>2025-05-15T07:59:56Z</time>
      </trkpt>
      <trkpt lat="42.533250991255045" lon="2.253823019564152">
        <ele>744.67999999999995</ele>
        <time>2025-05-15T07:59:57Z</time>
      </trkpt>
      <trkpt lat="42.533293990418315" lon="2.25392896682024">
        <ele>744.67999999999995</ele>
        <time>2025-05-15T07:59:58Z</time>
      </trkpt>
      <trkpt lat="42.533363979309797" lon="2.254033992066979">
        <ele>744.67999999999995</ele>
        <time>2025-05-15T07:59:59Z</time>
      </trkpt>
      <trkpt lat="42.533435979858041" lon="2.254112027585506">
        <ele>744.67999999999995</ele>
        <time>2025-05-15T08:00:00Z</time>
      </trkpt>
      <trkpt lat="42.533535975962877" lon="2.25418402813375">
        <ele>744.20000000000005</ele>
        <time>2025-05-15T08:00:01Z</time>
      </trkpt>
      <trkpt lat="42.533634966239333" lon="2.254215963184834">
        <ele>744.20000000000005</ele>
        <time>2025-05-15T08:00:02Z</time>
      </trkpt>
      <trkpt lat="42.533749965950847" lon="2.254247982054949">
        <ele>743.72000000000003</ele>
        <time>2025-05-15T08:00:03Z</time>
      </trkpt>
      <trkpt lat="42.533860020339489" lon="2.254250999540091">
        <ele>743.24000000000001</ele>
        <time>2025-05-15T08:00:04Z</time>
      </trkpt>
      <trkpt lat="42.533982982859015" lon="2.254241025075316">
        <ele>742.75999999999999</ele>
        <time>2025-05-15T08:00:05Z</time>
      </trkpt>
      <trkpt lat="42.534108040854335" lon="2.254229038953781">
        <ele>742.27999999999997</ele>
        <time>2025-05-15T08:00:06Z</time>
      </trkpt>
      <trkpt lat="42.534363018348813" lon="2.254200037568808">
        <ele>741.78999999999996</ele>
        <time>2025-05-15T08:00:08Z</time>
      </trkpt>
      <trkpt lat="42.534516993910074" lon="2.254183022305369">
        <ele>741.30999999999995</ele>
        <time>2025-05-15T08:00:09Z</time>
      </trkpt>
      <trkpt lat="42.53470198251307" lon="2.254178998991847">
        <ele>741.30999999999995</ele>
        <time>2025-05-15T08:00:10Z</time>
      </trkpt>
      <trkpt lat="42.536423038691282" lon="2.254331968724728">
        <ele>734.58000000000004</ele>
        <time>2025-05-15T08:00:18Z</time>
      </trkpt>
      <trkpt lat="42.536848001182079" lon="2.254350995644927">
        <ele>731.70000000000005</ele>
        <time>2025-05-15T08:00:20Z</time>
      </trkpt>
      <trkpt lat="42.537054028362036" lon="2.254307996481657">
        <ele>729.77999999999997</ele>
        <time>2025-05-15T08:00:21Z</time>
      </trkpt>
      <trkpt lat="42.53725703805685" lon="2.254269020631909">
        <ele>728.34000000000003</ele>
        <time>2025-05-15T08:00:22Z</time>
      </trkpt>
      <trkpt lat="42.537459963932633" lon="2.254235995933414">
        <ele>726.40999999999997</ele>
        <time>2025-05-15T08:00:23Z</time>
      </trkpt>
      <trkpt lat="42.537660961970687" lon="2.254241025075316">
        <ele>724.97000000000003</ele>
        <time>2025-05-15T08:00:24Z</time>
      </trkpt>
      <trkpt lat="42.537853997200727" lon="2.254244964569807">
        <ele>723.52999999999997</ele>
        <time>2025-05-15T08:00:25Z</time>
      </trkpt>
      <trkpt lat="42.53837501630187" lon="2.25424999371171">
        <ele>720.15999999999997</ele>
        <time>2025-05-15T08:00:28Z</time>
      </trkpt>
      <trkpt lat="42.538513988256454" lon="2.254200959578157">
        <ele>719.20000000000005</ele>
        <time>2025-05-15T08:00:29Z</time>
      </trkpt>
      <trkpt lat="42.538773994892836" lon="2.254108004271984">
        <ele>717.75999999999999</ele>
        <time>2025-05-15T08:00:31Z</time>
      </trkpt>
      <trkpt lat="42.538906009867787" lon="2.254059975966811">
        <ele>717.27999999999997</ele>
        <time>2025-05-15T08:00:32Z</time>
      </trkpt>
      <trkpt lat="42.539038024842739" lon="2.254089983180165">
        <ele>716.79999999999995</ele>
        <time>2025-05-15T08:00:33Z</time>
      </trkpt>
      <trkpt lat="42.539164004847407" lon="2.254160977900028">
        <ele>715.84000000000003</ele>
        <time>2025-05-15T08:00:34Z</time>
      </trkpt>
      <trkpt lat="42.539282022044063" lon="2.254243958741427">
        <ele>715.36000000000001</ele>
        <time>2025-05-15T08:00:35Z</time>
      </trkpt>
      <trkpt lat="42.539386041462421" lon="2.254363987594843">
        <ele>714.88</ele>
        <time>2025-05-15T08:00:36Z</time>
      </trkpt>
      <trkpt lat="42.539487965404987" lon="2.254482004791498">
        <ele>714.39999999999998</ele>
        <time>2025-05-15T08:00:37Z</time>
      </trkpt>
      <trkpt lat="42.539591984823346" lon="2.254599016159773">
        <ele>713.91999999999996</ele>
        <time>2025-05-15T08:00:38Z</time>
      </trkpt>
      <trkpt lat="42.539712013676763" lon="2.254729019477963">
        <ele>713.44000000000005</ele>
        <time>2025-05-15T08:00:39Z</time>
      </trkpt>
      <trkpt lat="42.540311990305781" lon="2.255126992240548">
        <ele>711.02999999999997</ele>
        <time>2025-05-15T08:00:43Z</time>
      </trkpt>
      <trkpt lat="42.540420033037663" lon="2.255245009437203">
        <ele>710.54999999999995</ele>
        <time>2025-05-15T08:00:44Z</time>
      </trkpt>
      <trkpt lat="42.540513994172215" lon="2.255396973341703">
        <ele>709.59000000000003</ele>
        <time>2025-05-15T08:00:45Z</time>
      </trkpt>
      <trkpt lat="42.540751034393907" lon="2.256003990769386">
        <ele>707.66999999999996</ele>
        <time>2025-05-15T08:00:48Z</time>
      </trkpt>
      <trkpt lat="42.54082303494215" lon="2.256187973544002">
        <ele>706.71000000000004</ele>
        <time>2025-05-15T08:00:49Z</time>
      </trkpt>
      <trkpt lat="42.540830997750163" lon="2.25642099045217">
        <ele>705.75</ele>
        <time>2025-05-15T08:00:50Z</time>
      </trkpt>
      <trkpt lat="42.54086896777153" lon="2.256821980699897">
        <ele>703.82000000000005</ele>
        <time>2025-05-15T08:00:52Z</time>
      </trkpt>
      <trkpt lat="42.540924958884716" lon="2.256989032030106">
        <ele>703.34000000000003</ele>
        <time>2025-05-15T08:00:53Z</time>
      </trkpt>
      <trkpt lat="42.541030989959836" lon="2.257121969014406">
        <ele>702.86000000000001</ele>
        <time>2025-05-15T08:00:54Z</time>
      </trkpt>
      <trkpt lat="42.541153030470014" lon="2.257263958454132">
        <ele>701.89999999999998</ele>
        <time>2025-05-15T08:00:55Z</time>
      </trkpt>
      <trkpt lat="42.541284039616585" lon="2.257417012006044">
        <ele>701.41999999999996</ele>
        <time>2025-05-15T08:00:56Z</time>
      </trkpt>
      <trkpt lat="42.541413959115744" lon="2.257567970082164">
        <ele>700.46000000000004</ele>
        <time>2025-05-15T08:00:57Z</time>
      </trkpt>
      <trkpt lat="42.54149098880589" lon="2.257755976170301">
        <ele>699.5</ele>
        <time>2025-05-15T08:00:58Z</time>
      </trkpt>
      <trkpt lat="42.541549997404218" lon="2.257949011400342">
        <ele>698.52999999999997</ele>
        <time>2025-05-15T08:00:59Z</time>
      </trkpt>
      <trkpt lat="42.541605988517404" lon="2.258131988346577">
        <ele>698.04999999999995</ele>
        <time>2025-05-15T08:01:00Z</time>
      </trkpt>
      <trkpt lat="42.541659967973828" lon="2.258308008313179">
        <ele>697.09000000000003</ele>
        <time>2025-05-15T08:01:01Z</time>
      </trkpt>
      <trkpt lat="42.541760969907045" lon="2.258471958339214">
        <ele>696.61000000000001</ele>
        <time>2025-05-15T08:01:02Z</time>
      </trkpt>
      <trkpt lat="42.541888961568475" lon="2.258623000234366">
        <ele>695.64999999999998</ele>
        <time>2025-05-15T08:01:03Z</time>
      </trkpt>
      <trkpt lat="42.542029023170471" lon="2.258788961917162">
        <ele>695.16999999999996</ele>
        <time>2025-05-15T08:01:04Z</time>
      </trkpt>
      <trkpt lat="42.54217897541821" lon="2.258966993540525">
        <ele>694.21000000000004</ele>
        <time>2025-05-15T08:01:05Z</time>
      </trkpt>
      <trkpt lat="42.542934017255902" lon="2.259860001504421">
        <ele>690.36000000000001</ele>
        <time>2025-05-15T08:01:10Z</time>
      </trkpt>
      <trkpt lat="42.543041976168752" lon="2.260034009814262">
        <ele>689.39999999999998</ele>
        <time>2025-05-15T08:01:11Z</time>
      </trkpt>
      <trkpt lat="42.543115988373756" lon="2.260242970660329">
        <ele>688.91999999999996</ele>
        <time>2025-05-15T08:01:12Z</time>
      </trkpt>
      <trkpt lat="42.543173991143703" lon="2.260457966476679">
        <ele>687.96000000000004</ele>
        <time>2025-05-15T08:01:13Z</time>
      </trkpt>
      <trkpt lat="42.543231993913651" lon="2.260663993656635">
        <ele>687.48000000000002</ele>
        <time>2025-05-15T08:01:14Z</time>
      </trkpt>
      <trkpt lat="42.543330984190106" lon="2.260843031108379">
        <ele>687</ele>
        <time>2025-05-15T08:01:15Z</time>
      </trkpt>
      <trkpt lat="42.543470961973071" lon="2.260982003062964">
        <ele>686.51999999999998</ele>
        <time>2025-05-15T08:01:16Z</time>
      </trkpt>
      <trkpt lat="42.543632984161377" lon="2.261108988896012">
        <ele>686.03999999999996</ele>
        <time>2025-05-15T08:01:17Z</time>
      </trkpt>
      <trkpt lat="42.543801963329315" lon="2.26123102940619">
        <ele>685.08000000000004</ele>
        <time>2025-05-15T08:01:18Z</time>
      </trkpt>
      <trkpt lat="42.544127013534307" lon="2.261466979980469">
        <ele>683.63</ele>
        <time>2025-05-15T08:01:20Z</time>
      </trkpt>
      <trkpt lat="42.544257016852498" lon="2.261649034917355">
        <ele>682.66999999999996</ele>
        <time>2025-05-15T08:01:21Z</time>
      </trkpt>
      <trkpt lat="42.544622970744967" lon="2.262170976027846">
        <ele>679.30999999999995</ele>
        <time>2025-05-15T08:01:24Z</time>
      </trkpt>
      <trkpt lat="42.544705029577017" lon="2.262364011257887">
        <ele>678.83000000000004</ele>
        <time>2025-05-15T08:01:25Z</time>
      </trkpt>
      <trkpt lat="42.544750040397048" lon="2.262594010680914">
        <ele>677.87</ele>
        <time>2025-05-15T08:01:26Z</time>
      </trkpt>
      <trkpt lat="42.544892029836774" lon="2.263318039476872">
        <ele>675.46000000000004</ele>
        <time>2025-05-15T08:01:29Z</time>
      </trkpt>
      <trkpt lat="42.544953972101212" lon="2.263525994494557">
        <ele>674.98000000000002</ele>
        <time>2025-05-15T08:01:30Z</time>
      </trkpt>
      <trkpt lat="42.545050028711557" lon="2.263707965612412">
        <ele>674.5</ele>
        <time>2025-05-15T08:01:31Z</time>
      </trkpt>
      <trkpt lat="42.545139966532588" lon="2.263880968093872">
        <ele>674.01999999999998</ele>
        <time>2025-05-15T08:01:32Z</time>
      </trkpt>
      <trkpt lat="42.545254966244102" lon="2.264010971412063">
        <ele>673.05999999999995</ele>
        <time>2025-05-15T08:01:33Z</time>
      </trkpt>
      <trkpt lat="42.545380024239421" lon="2.264136029407382">
        <ele>672.10000000000002</ele>
        <time>2025-05-15T08:01:34Z</time>
      </trkpt>
      <trkpt lat="42.545527964830399" lon="2.264194032177329">
        <ele>671.62</ele>
        <time>2025-05-15T08:01:35Z</time>
      </trkpt>
      <trkpt lat="42.545689987018704" lon="2.264203000813723">
        <ele>670.65999999999997</ele>
        <time>2025-05-15T08:01:36Z</time>
      </trkpt>
      <trkpt lat="42.545868018642068" lon="2.264171987771988">
        <ele>669.70000000000005</ele>
        <time>2025-05-15T08:01:37Z</time>
      </trkpt>
      <trkpt lat="42.546056024730206" lon="2.264115996658802">
        <ele>669.22000000000003</ele>
        <time>2025-05-15T08:01:38Z</time>
      </trkpt>
      <trkpt lat="42.546248976141214" lon="2.264062017202377">
        <ele>668.25</ele>
        <time>2025-05-15T08:01:39Z</time>
      </trkpt>
      <trkpt lat="42.546446034684777" lon="2.264051036909223">
        <ele>667.28999999999996</ele>
        <time>2025-05-15T08:01:40Z</time>
      </trkpt>
      <trkpt lat="42.54664896056056" lon="2.264054976403713">
        <ele>666.33000000000004</ele>
        <time>2025-05-15T08:01:41Z</time>
      </trkpt>
      <trkpt lat="42.546830009669065" lon="2.264125971123576">
        <ele>665.37</ele>
        <time>2025-05-15T08:01:42Z</time>
      </trkpt>
      <trkpt lat="42.547005023807287" lon="2.264194032177329">
        <ele>664.40999999999997</ele>
        <time>2025-05-15T08:01:43Z</time>
      </trkpt>
      <trkpt lat="42.54716101102531" lon="2.264296039938927">
        <ele>662.97000000000003</ele>
        <time>2025-05-15T08:01:44Z</time>
      </trkpt>
      <trkpt lat="42.547294031828642" lon="2.26445403881371">
        <ele>662.00999999999999</ele>
        <time>2025-05-15T08:01:45Z</time>
      </trkpt>
      <trkpt lat="42.547431997954845" lon="2.264617988839746">
        <ele>661.03999999999996</ele>
        <time>2025-05-15T08:01:46Z</time>
      </trkpt>
      <trkpt lat="42.547540962696075" lon="2.264817981049418">
        <ele>660.08000000000004</ele>
        <time>2025-05-15T08:01:47Z</time>
      </trkpt>
      <trkpt lat="42.547640958800912" lon="2.265017973259091">
        <ele>658.63999999999999</ele>
        <time>2025-05-15T08:01:48Z</time>
      </trkpt>
      <trkpt lat="42.547731986269355" lon="2.265211008489132">
        <ele>657.67999999999995</ele>
        <time>2025-05-15T08:01:49Z</time>
      </trkpt>
      <trkpt lat="42.547816978767514" lon="2.265402032062411">
        <ele>656.72000000000003</ele>
        <time>2025-05-15T08:01:50Z</time>
      </trkpt>
      <trkpt lat="42.547918986529112" lon="2.265559025108814">
        <ele>655.75999999999999</ele>
        <time>2025-05-15T08:01:51Z</time>
      </trkpt>
      <trkpt lat="42.54804203286767" lon="2.265681987628341">
        <ele>654.79999999999995</ele>
        <time>2025-05-15T08:01:52Z</time>
      </trkpt>
      <trkpt lat="42.54817396402359" lon="2.265792964026332">
        <ele>653.35000000000002</ele>
        <time>2025-05-15T08:01:53Z</time>
      </trkpt>
      <trkpt lat="42.548332968726754" lon="2.265855995938182">
        <ele>652.38999999999999</ele>
        <time>2025-05-15T08:01:54Z</time>
      </trkpt>
      <trkpt lat="42.54862398840487" lon="2.265969989821315">
        <ele>650.47000000000003</ele>
        <time>2025-05-15T08:01:56Z</time>
      </trkpt>
      <trkpt lat="42.548779975622892" lon="2.266009971499443">
        <ele>649.50999999999999</ele>
        <time>2025-05-15T08:01:57Z</time>
      </trkpt>
      <trkpt lat="42.548954989761114" lon="2.26598197594285">
        <ele>648.07000000000005</ele>
        <time>2025-05-15T08:01:58Z</time>
      </trkpt>
      <trkpt lat="42.549726963043213" lon="2.265865970402956">
        <ele>644.22000000000003</ele>
        <time>2025-05-15T08:02:02Z</time>
      </trkpt>
      <trkpt lat="42.549921004101634" lon="2.265917016193271">
        <ele>642.77999999999997</ele>
        <time>2025-05-15T08:02:03Z</time>
      </trkpt>
      <trkpt lat="42.550462977960706" lon="2.266111979261041">
        <ele>639.88999999999999</ele>
        <time>2025-05-15T08:02:06Z</time>
      </trkpt>
      <trkpt lat="42.550607984885573" lon="2.266228990629315">
        <ele>638.45000000000005</ele>
        <time>2025-05-15T08:02:07Z</time>
      </trkpt>
      <trkpt lat="42.551498981192708" lon="2.267178995534778">
        <ele>633.64999999999998</ele>
        <time>2025-05-15T08:02:13Z</time>
      </trkpt>
      <trkpt lat="42.55199602805078" lon="2.267631031572819">
        <ele>631.24000000000001</ele>
        <time>2025-05-15T08:02:17Z</time>
      </trkpt>
      <trkpt lat="42.552096024155617" lon="2.267693979665637">
        <ele>630.75999999999999</ele>
        <time>2025-05-15T08:02:18Z</time>
      </trkpt>
      <trkpt lat="42.552202977240086" lon="2.267708983272314">
        <ele>629.79999999999995</ele>
        <time>2025-05-15T08:02:19Z</time>
      </trkpt>
      <trkpt lat="42.552285036072135" lon="2.267643017694354">
        <ele>629.32000000000005</ele>
        <time>2025-05-15T08:02:20Z</time>
      </trkpt>
      <trkpt lat="42.55236198194325" lon="2.267564982175827">
        <ele>628.84000000000003</ele>
        <time>2025-05-15T08:02:21Z</time>
      </trkpt>
      <trkpt lat="42.552410010248423" lon="2.267517959699035">
        <ele>627.88</ele>
        <time>2025-05-15T08:02:22Z</time>
      </trkpt>
      <trkpt lat="42.552516963332891" lon="2.267442019656301">
        <ele>626.91999999999996</ele>
        <time>2025-05-15T08:02:23Z</time>
      </trkpt>
      <trkpt lat="42.552615031599998" lon="2.267411006614566">
        <ele>625.96000000000004</ele>
        <time>2025-05-15T08:02:24Z</time>
      </trkpt>
      <trkpt lat="42.552715027704835" lon="2.267411006614566">
        <ele>624.99000000000001</ele>
        <time>2025-05-15T08:02:25Z</time>
      </trkpt>
      <trkpt lat="42.552823992446065" lon="2.267419975250959">
        <ele>624.50999999999999</ele>
        <time>2025-05-15T08:02:26Z</time>
      </trkpt>
      <trkpt lat="42.552922982722521" lon="2.267452999949455">
        <ele>623.54999999999995</ele>
        <time>2025-05-15T08:02:27Z</time>
      </trkpt>
      <trkpt lat="42.553019039332867" lon="2.267485018819571">
        <ele>623.07000000000005</ele>
        <time>2025-05-15T08:02:28Z</time>
      </trkpt>
      <trkpt lat="42.553281979635358" lon="2.267573028802872">
        <ele>623.07000000000005</ele>
        <time>2025-05-15T08:02:31Z</time>
      </trkpt>
      <trkpt lat="42.553358003497124" lon="2.267616027966142">
        <ele>622.59000000000003</ele>
        <time>2025-05-15T08:02:32Z</time>
      </trkpt>
      <trkpt lat="42.553421035408974" lon="2.267661038786173">
        <ele>622.59000000000003</ele>
        <time>2025-05-15T08:02:33Z</time>
      </trkpt>
      <trkpt lat="42.553490018472075" lon="2.267709989100695">
        <ele>622.11000000000001</ele>
        <time>2025-05-15T08:02:34Z</time>
      </trkpt>
      <trkpt lat="42.55356403067708" lon="2.267763968557119">
        <ele>622.11000000000001</ele>
        <time>2025-05-15T08:02:35Z</time>
      </trkpt>
      <trkpt lat="42.553640976548195" lon="2.267819037660956">
        <ele>622.11000000000001</ele>
        <time>2025-05-15T08:02:36Z</time>
      </trkpt>
      <trkpt lat="42.553847003728151" lon="2.267968989908695">
        <ele>621.63</ele>
        <time>2025-05-15T08:02:39Z</time>
      </trkpt>
      <trkpt lat="42.553904000669718" lon="2.268047025427222">
        <ele>621.14999999999998</ele>
        <time>2025-05-15T08:02:40Z</time>
      </trkpt>
      <trkpt lat="42.553955968469381" lon="2.268119025975466">
        <ele>620.66999999999996</ele>
        <time>2025-05-15T08:02:41Z</time>
      </trkpt>
      <trkpt lat="42.554066022858024" lon="2.268270989879966">
        <ele>620.19000000000005</ele>
        <time>2025-05-15T08:02:43Z</time>
      </trkpt>
      <trkpt lat="42.554126037284732" lon="2.268354976549745">
        <ele>619.71000000000004</ele>
        <time>2025-05-15T08:02:44Z</time>
      </trkpt>
      <trkpt lat="42.554477993398905" lon="2.268691007047892">
        <ele>617.77999999999997</ele>
        <time>2025-05-15T08:02:50Z</time>
      </trkpt>
      <trkpt lat="42.554526021704078" lon="2.268737023696303">
        <ele>617.29999999999995</ele>
        <time>2025-05-15T08:02:51Z</time>
      </trkpt>
      <trkpt lat="42.554614031687379" lon="2.268858980387449">
        <ele>616.34000000000003</ele>
        <time>2025-05-15T08:02:53Z</time>
      </trkpt>
      <trkpt lat="42.554635992273688" lon="2.268931986764073">
        <ele>615.86000000000001</ele>
        <time>2025-05-15T08:02:54Z</time>
      </trkpt>
      <trkpt lat="42.554662982001901" lon="2.269019996747375">
        <ele>615.38</ele>
        <time>2025-05-15T08:02:55Z</time>
      </trkpt>
      <trkpt lat="42.554672034457326" lon="2.269094008952379">
        <ele>615.38</ele>
        <time>2025-05-15T08:02:56Z</time>
      </trkpt>
      <trkpt lat="42.554683014750481" lon="2.269184030592442">
        <ele>614.89999999999998</ele>
        <time>2025-05-15T08:02:57Z</time>
      </trkpt>
      <trkpt lat="42.554705981165171" lon="2.269362984225154">
        <ele>613.94000000000005</ele>
        <time>2025-05-15T08:02:59Z</time>
      </trkpt>
      <trkpt lat="42.554732970893383" lon="2.269465997815132">
        <ele>613.46000000000004</ele>
        <time>2025-05-15T08:03:00Z</time>
      </trkpt>
      <trkpt lat="42.554783010855317" lon="2.269656015560031">
        <ele>612.98000000000002</ele>
        <time>2025-05-15T08:03:02Z</time>
      </trkpt>
      <trkpt lat="42.554845958948135" lon="2.269853996112943">
        <ele>612.98000000000002</ele>
        <time>2025-05-15T08:03:04Z</time>
      </trkpt>
      <trkpt lat="42.554977973923087" lon="2.27019103243947">
        <ele>613.46000000000004</ele>
        <time>2025-05-15T08:03:08Z</time>
      </trkpt>
      <trkpt lat="42.555006975308061" lon="2.270267978310585">
        <ele>613.94000000000005</ele>
        <time>2025-05-15T08:03:09Z</time>
      </trkpt>
      <trkpt lat="42.555066989734769" lon="2.270425977185369">
        <ele>614.41999999999996</ele>
        <time>2025-05-15T08:03:11Z</time>
      </trkpt>
      <trkpt lat="42.555099008604884" lon="2.270511975511909">
        <ele>614.89999999999998</ele>
        <time>2025-05-15T08:03:12Z</time>
      </trkpt>
      <trkpt lat="42.555131027474999" lon="2.270597973838449">
        <ele>614.89999999999998</ele>
        <time>2025-05-15T08:03:13Z</time>
      </trkpt>
      <trkpt lat="42.555182995274663" lon="2.270767036825419">
        <ele>615.38</ele>
        <time>2025-05-15T08:03:15Z</time>
      </trkpt>
      <trkpt lat="42.555210990831256" lon="2.27085798047483">
        <ele>615.38</ele>
        <time>2025-05-15T08:03:16Z</time>
      </trkpt>
      <trkpt lat="42.555267987772822" lon="2.271046992391348">
        <ele>615.86000000000001</ele>
        <time>2025-05-15T08:03:18Z</time>
      </trkpt>
      <trkpt lat="42.555325990542769" lon="2.271214965730906">
        <ele>615.38</ele>
        <time>2025-05-15T08:03:20Z</time>
      </trkpt>
      <trkpt lat="42.555354991927743" lon="2.271291995421052">
        <ele>615.38</ele>
        <time>2025-05-15T08:03:21Z</time>
      </trkpt>
      <trkpt lat="42.555380975827575" lon="2.271363995969296">
        <ele>615.38</ele>
        <time>2025-05-15T08:03:22Z</time>
      </trkpt>
      <trkpt lat="42.555409977212548" lon="2.271442031487823">
        <ele>614.89999999999998</ele>
        <time>2025-05-15T08:03:23Z</time>
      </trkpt>
      <trkpt lat="42.555439984425902" lon="2.271525012329221">
        <ele>614.89999999999998</ele>
        <time>2025-05-15T08:03:24Z</time>
      </trkpt>
      <trkpt lat="42.555507961660624" lon="2.271708995103836">
        <ele>614.89999999999998</ele>
        <time>2025-05-15T08:03:26Z</time>
      </trkpt>
      <trkpt lat="42.555535035207868" lon="2.271811002865434">
        <ele>614.89999999999998</ele>
        <time>2025-05-15T08:03:27Z</time>
      </trkpt>
      <trkpt lat="42.555555989965796" lon="2.271908987313509">
        <ele>614.41999999999996</ele>
        <time>2025-05-15T08:03:28Z</time>
      </trkpt>
      <trkpt lat="42.555576022714376" lon="2.272002026438713">
        <ele>613.46000000000004</ele>
        <time>2025-05-15T08:03:29Z</time>
      </trkpt>
      <trkpt lat="42.555594965815544" lon="2.272094981744885">
        <ele>612.98000000000002</ele>
        <time>2025-05-15T08:03:30Z</time>
      </trkpt>
      <trkpt lat="42.555614998564124" lon="2.27218802087009">
        <ele>612.5</ele>
        <time>2025-05-15T08:03:31Z</time>
      </trkpt>
      <trkpt lat="42.555635031312704" lon="2.272282987833023">
        <ele>611.53999999999996</ele>
        <time>2025-05-15T08:03:32Z</time>
      </trkpt>
      <trkpt lat="42.555654980242252" lon="2.272375021129847">
        <ele>611.53999999999996</ele>
        <time>2025-05-15T08:03:33Z</time>
      </trkpt>
      <trkpt lat="42.55567098967731" lon="2.272452972829342">
        <ele>611.05999999999995</ele>
        <time>2025-05-15T08:03:34Z</time>
      </trkpt>
      <trkpt lat="42.55567098967731" lon="2.272557998076081">
        <ele>611.05999999999995</ele>
        <time>2025-05-15T08:03:35Z</time>
      </trkpt>
      <trkpt lat="42.55567098967731" lon="2.272649025544524">
        <ele>611.05999999999995</ele>
        <time>2025-05-15T08:03:36Z</time>
      </trkpt>
      <trkpt lat="42.55567098967731" lon="2.272738041356206">
        <ele>611.53999999999996</ele>
        <time>2025-05-15T08:03:37Z</time>
      </trkpt>
      <trkpt lat="42.55567098967731" lon="2.272826973348856">
        <ele>611.53999999999996</ele>
        <time>2025-05-15T08:03:38Z</time>
      </trkpt>
      <trkpt lat="42.55567098967731" lon="2.27292001247406">
        <ele>612.01999999999998</ele>
        <time>2025-05-15T08:03:39Z</time>
      </trkpt>
      <trkpt lat="42.555689010769129" lon="2.273681005463004">
        <ele>614.89999999999998</ele>
        <time>2025-05-15T08:03:46Z</time>
      </trkpt>
      <trkpt lat="42.555848015472293" lon="2.275130990892649">
        <ele>619.23000000000002</ele>
        <time>2025-05-15T08:03:58Z</time>
      </trkpt>
      <trkpt lat="42.556208018213511" lon="2.276500007137656">
        <ele>621.63</ele>
        <time>2025-05-15T08:04:08Z</time>
      </trkpt>
      <trkpt lat="42.556200977414846" lon="2.276654988527298">
        <ele>621.63</ele>
        <time>2025-05-15T08:04:09Z</time>
      </trkpt>
      <trkpt lat="42.556183962151408" lon="2.276819022372365">
        <ele>622.11000000000001</ele>
        <time>2025-05-15T08:04:10Z</time>
      </trkpt>
      <trkpt lat="42.556109027937055" lon="2.277546990662813">
        <ele>622.59000000000003</ele>
        <time>2025-05-15T08:04:14Z</time>
      </trkpt>
      <trkpt lat="42.556116990745068" lon="2.277741031721234">
        <ele>622.59000000000003</ele>
        <time>2025-05-15T08:04:15Z</time>
      </trkpt>
      <trkpt lat="42.556144986301661" lon="2.277934988960624">
        <ele>623.07000000000005</ele>
        <time>2025-05-15T08:04:16Z</time>
      </trkpt>
      <trkpt lat="42.556172981858253" lon="2.278131963685155">
        <ele>623.07000000000005</ele>
        <time>2025-05-15T08:04:17Z</time>
      </trkpt>
      <trkpt lat="42.556225033476949" lon="2.278330028057098">
        <ele>623.07000000000005</ele>
        <time>2025-05-15T08:04:18Z</time>
      </trkpt>
      <trkpt lat="42.556301979348063" lon="2.278534965589643">
        <ele>623.07000000000005</ele>
        <time>2025-05-15T08:04:19Z</time>
      </trkpt>
      <trkpt lat="42.557079987600446" lon="2.280473029240966">
        <ele>624.50999999999999</ele>
        <time>2025-05-15T08:04:28Z</time>
      </trkpt>
      <trkpt lat="42.557151988148689" lon="2.280649971216917">
        <ele>624.50999999999999</ele>
        <time>2025-05-15T08:04:29Z</time>
      </trkpt>
      <trkpt lat="42.55728299729526" lon="2.280800007283688">
        <ele>624.50999999999999</ele>
        <time>2025-05-15T08:04:30Z</time>
      </trkpt>
      <trkpt lat="42.557415012270212" lon="2.280950965359807">
        <ele>624.50999999999999</ele>
        <time>2025-05-15T08:04:31Z</time>
      </trkpt>
      <trkpt lat="42.557699996978045" lon="2.28127702139318">
        <ele>624.02999999999997</ele>
        <time>2025-05-15T08:04:33Z</time>
      </trkpt>
      <trkpt lat="42.557822959497571" lon="2.281478019431233">
        <ele>623.54999999999995</ele>
        <time>2025-05-15T08:04:34Z</time>
      </trkpt>
      <trkpt lat="42.557929996401072" lon="2.281691003590822">
        <ele>623.07000000000005</ele>
        <time>2025-05-15T08:04:35Z</time>
      </trkpt>
      <trkpt lat="42.558032004162669" lon="2.281895019114018">
        <ele>623.07000000000005</ele>
        <time>2025-05-15T08:04:36Z</time>
      </trkpt>
      <trkpt lat="42.558112973347306" lon="2.282109009101987">
        <ele>623.07000000000005</ele>
        <time>2025-05-15T08:04:37Z</time>
      </trkpt>
      <trkpt lat="42.558129988610744" lon="2.28233297355473">
        <ele>622.59000000000003</ele>
        <time>2025-05-15T08:04:38Z</time>
      </trkpt>
      <trkpt lat="42.558109033852816" lon="2.2825469635427">
        <ele>622.11000000000001</ele>
        <time>2025-05-15T08:04:39Z</time>
      </trkpt>
      <trkpt lat="42.558089001104236" lon="2.282752990722656">
        <ele>622.11000000000001</ele>
        <time>2025-05-15T08:04:40Z</time>
      </trkpt>
      <trkpt lat="42.558073997497559" lon="2.282903026789427">
        <ele>622.11000000000001</ele>
        <time>2025-05-15T08:04:41Z</time>
      </trkpt>
      <trkpt lat="42.558106016367674" lon="2.283154986798763">
        <ele>622.11000000000001</ele>
        <time>2025-05-15T08:04:42Z</time>
      </trkpt>
      <trkpt lat="42.558158989995718" lon="2.283356990665197">
        <ele>621.63</ele>
        <time>2025-05-15T08:04:43Z</time>
      </trkpt>
      <trkpt lat="42.558240965008736" lon="2.283570980653167">
        <ele>620.66999999999996</ele>
        <time>2025-05-15T08:04:44Z</time>
      </trkpt>
      <trkpt lat="42.558324029669166" lon="2.2837920114398">
        <ele>620.66999999999996</ele>
        <time>2025-05-15T08:04:45Z</time>
      </trkpt>
      <trkpt lat="42.558439029380679" lon="2.283982029184699">
        <ele>620.19000000000005</ele>
        <time>2025-05-15T08:04:46Z</time>
      </trkpt>
      <trkpt lat="42.558578001335263" lon="2.284168023616076">
        <ele>619.71000000000004</ele>
        <time>2025-05-15T08:04:47Z</time>
      </trkpt>
      <trkpt lat="42.559998985379934" lon="2.28581297211349">
        <ele>612.98000000000002</ele>
        <time>2025-05-15T08:04:56Z</time>
      </trkpt>
      <trkpt lat="42.560229990631342" lon="2.286229971796274">
        <ele>611.53999999999996</ele>
        <time>2025-05-15T08:04:58Z</time>
      </trkpt>
      <trkpt lat="42.56046099588275" lon="2.286647977307439">
        <ele>610.09000000000003</ele>
        <time>2025-05-15T08:05:00Z</time>
      </trkpt>
      <trkpt lat="42.560575995594263" lon="2.286854004487395">
        <ele>609.13</ele>
        <time>2025-05-15T08:05:01Z</time>
      </trkpt>
      <trkpt lat="42.561368001624942" lon="2.288330979645252">
        <ele>603.36000000000001</ele>
        <time>2025-05-15T08:05:08Z</time>
      </trkpt>
      <trkpt lat="42.561610992997885" lon="2.288908995687962">
        <ele>601.91999999999996</ele>
        <time>2025-05-15T08:05:11Z</time>
      </trkpt>
      <trkpt lat="42.561635971069336" lon="2.289116028696299">
        <ele>601.44000000000005</ele>
        <time>2025-05-15T08:05:12Z</time>
      </trkpt>
      <trkpt lat="42.561635971069336" lon="2.289343010634184">
        <ele>600.96000000000004</ele>
        <time>2025-05-15T08:05:13Z</time>
      </trkpt>
      <trkpt lat="42.561661032959819" lon="2.289834022521973">
        <ele>600.48000000000002</ele>
        <time>2025-05-15T08:05:15Z</time>
      </trkpt>
      <trkpt lat="42.561733033508062" lon="2.290613036602736">
        <ele>598.55999999999995</ele>
        <time>2025-05-15T08:05:18Z</time>
      </trkpt>
      <trkpt lat="42.561748037114739" lon="2.290854016318917">
        <ele>598.08000000000004</ele>
        <time>2025-05-15T08:05:19Z</time>
      </trkpt>
      <trkpt lat="42.561762034893036" lon="2.291078986600041">
        <ele>597.12</ele>
        <time>2025-05-15T08:05:20Z</time>
      </trkpt>
      <trkpt lat="42.561810985207558" lon="2.291279984638095">
        <ele>596.63999999999999</ele>
        <time>2025-05-15T08:05:21Z</time>
      </trkpt>
      <trkpt lat="42.561863958835602" lon="2.291462039574981">
        <ele>595.66999999999996</ele>
        <time>2025-05-15T08:05:22Z</time>
      </trkpt>
      <trkpt lat="42.561913998797536" lon="2.291622972115874">
        <ele>595.19000000000005</ele>
        <time>2025-05-15T08:05:23Z</time>
      </trkpt>
      <trkpt lat="42.561959009617567" lon="2.291764039546251">
        <ele>594.23000000000002</ele>
        <time>2025-05-15T08:05:24Z</time>
      </trkpt>
      <trkpt lat="42.561961021274328" lon="2.291887002065778">
        <ele>593.26999999999998</ele>
        <time>2025-05-15T08:05:25Z</time>
      </trkpt>
      <trkpt lat="42.561917016282678" lon="2.292024968191981">
        <ele>592.78999999999996</ele>
        <time>2025-05-15T08:05:26Z</time>
      </trkpt>
      <trkpt lat="42.561809979379177" lon="2.292356975376606">
        <ele>591.83000000000004</ele>
        <time>2025-05-15T08:05:28Z</time>
      </trkpt>
      <trkpt lat="42.561765974387527" lon="2.292554033920169">
        <ele>591.83000000000004</ele>
        <time>2025-05-15T08:05:29Z</time>
      </trkpt>
      <trkpt lat="42.561639994382858" lon="2.293364983052015">
        <ele>590.87</ele>
        <time>2025-05-15T08:05:33Z</time>
      </trkpt>
      <trkpt lat="42.561616022139788" lon="2.29356799274683">
        <ele>590.87</ele>
        <time>2025-05-15T08:05:34Z</time>
      </trkpt>
      <trkpt lat="42.561633037403226" lon="2.29449100792408">
        <ele>590.38999999999999</ele>
        <time>2025-05-15T08:05:38Z</time>
      </trkpt>
      <trkpt lat="42.561611998826265" lon="2.294983025640249">
        <ele>589.90999999999997</ele>
        <time>2025-05-15T08:05:40Z</time>
      </trkpt>
      <trkpt lat="42.561590960249305" lon="2.295475965365768">
        <ele>589.42999999999995</ele>
        <time>2025-05-15T08:05:42Z</time>
      </trkpt>
      <trkpt lat="42.56157997995615" lon="2.295725997537375">
        <ele>588.95000000000005</ele>
        <time>2025-05-15T08:05:43Z</time>
      </trkpt>
      <trkpt lat="42.561494987457991" lon="2.29618901386857">
        <ele>587.98000000000002</ele>
        <time>2025-05-15T08:05:45Z</time>
      </trkpt>
      <trkpt lat="42.561373030766845" lon="2.296650018543005">
        <ele>587.01999999999998</ele>
        <time>2025-05-15T08:05:47Z</time>
      </trkpt>
      <trkpt lat="42.561331959441304" lon="2.296894015744329">
        <ele>586.53999999999996</ele>
        <time>2025-05-15T08:05:48Z</time>
      </trkpt>
      <trkpt lat="42.561290971934795" lon="2.29713398963213">
        <ele>586.05999999999995</ele>
        <time>2025-05-15T08:05:49Z</time>
      </trkpt>
      <trkpt lat="42.561251996085048" lon="2.297361977398396">
        <ele>585.58000000000004</ele>
        <time>2025-05-15T08:05:50Z</time>
      </trkpt>
      <trkpt lat="42.561216959729791" lon="2.297566998749971">
        <ele>585.10000000000002</ele>
        <time>2025-05-15T08:05:51Z</time>
      </trkpt>
      <trkpt lat="42.561186030507088" lon="2.297751987352967">
        <ele>584.62</ele>
        <time>2025-05-15T08:05:52Z</time>
      </trkpt>
      <trkpt lat="42.561202961951494" lon="2.297939993441105">
        <ele>584.13999999999999</ele>
        <time>2025-05-15T08:05:53Z</time>
      </trkpt>
      <trkpt lat="42.561221988871694" lon="2.298138979822397">
        <ele>584.13999999999999</ele>
        <time>2025-05-15T08:05:54Z</time>
      </trkpt>
      <trkpt lat="42.561242021620274" lon="2.298350958153606">
        <ele>583.65999999999997</ele>
        <time>2025-05-15T08:05:55Z</time>
      </trkpt>
      <trkpt lat="42.561375964432955" lon="2.300046030431986">
        <ele>580.76999999999998</ele>
        <time>2025-05-15T08:06:02Z</time>
      </trkpt>
      <trkpt lat="42.561298012733459" lon="2.301281020045281">
        <ele>579.33000000000004</ele>
        <time>2025-05-15T08:06:09Z</time>
      </trkpt>
      <trkpt lat="42.561276974156499" lon="2.302110996097326">
        <ele>579.80999999999995</ele>
        <time>2025-05-15T08:06:18Z</time>
      </trkpt>
      <trkpt lat="42.561282003298402" lon="2.302687000483275">
        <ele>582.22000000000003</ele>
        <time>2025-05-15T08:06:29Z</time>
      </trkpt>
      <trkpt lat="42.561282003298402" lon="2.302687000483275">
        <ele>582.22000000000003</ele>
        <time>2025-05-15T08:06:49Z</time>
      </trkpt>
      <trkpt lat="42.561282003298402" lon="2.302687000483275">
        <ele>583.65999999999997</ele>
        <time>2025-05-15T08:07:45Z</time>
      </trkpt>
      <trkpt lat="42.561285020783544" lon="2.302764030173421">
        <ele>584.13999999999999</ele>
        <time>2025-05-15T08:07:52Z</time>
      </trkpt>
      <trkpt lat="42.561296001076698" lon="2.303004004061222">
        <ele>586.05999999999995</ele>
        <time>2025-05-15T08:07:54Z</time>
      </trkpt>
      <trkpt lat="42.561320979148149" lon="2.303170971572399">
        <ele>586.53999999999996</ele>
        <time>2025-05-15T08:07:55Z</time>
      </trkpt>
      <trkpt lat="42.561687016859651" lon="2.304948018863797">
        <ele>592.30999999999995</ele>
        <time>2025-05-15T08:08:04Z</time>
      </trkpt>
      <trkpt lat="42.562440969049931" lon="2.306806035339832">
        <ele>594.23000000000002</ele>
        <time>2025-05-15T08:08:14Z</time>
      </trkpt>
      <trkpt lat="42.563161980360746" lon="2.308559026569128">
        <ele>592.30999999999995</ele>
        <time>2025-05-15T08:08:22Z</time>
      </trkpt>
      <trkpt lat="42.563963960856199" lon="2.310226019471884">
        <ele>587.01999999999998</ele>
        <time>2025-05-15T08:08:29Z</time>
      </trkpt>
      <trkpt lat="42.565005999058485" lon="2.312181014567614">
        <ele>576.92999999999995</ele>
        <time>2025-05-15T08:08:37Z</time>
      </trkpt>
      <trkpt lat="42.566186003386974" lon="2.314531970769167">
        <ele>563.95000000000005</ele>
        <time>2025-05-15T08:08:47Z</time>
      </trkpt>
      <trkpt lat="42.567538004368544" lon="2.317099012434483">
        <ele>551.92999999999995</ele>
        <time>2025-05-15T08:08:59Z</time>
      </trkpt>
      <trkpt lat="42.567833969369531" lon="2.318058991804719">
        <ele>548.57000000000005</ele>
        <time>2025-05-15T08:09:05Z</time>
      </trkpt>
      <trkpt lat="42.568142004311085" lon="2.31896398589015">
        <ele>545.20000000000005</ele>
        <time>2025-05-15T08:09:14Z</time>
      </trkpt>
      <trkpt lat="42.568180980160832" lon="2.31915601529181">
        <ele>544.24000000000001</ele>
        <time>2025-05-15T08:09:16Z</time>
      </trkpt>
      <trkpt lat="42.568179974332452" lon="2.319261962547898">
        <ele>543.75999999999999</ele>
        <time>2025-05-15T08:09:17Z</time>
      </trkpt>
      <trkpt lat="42.568177040666342" lon="2.319366987794638">
        <ele>543.27999999999997</ele>
        <time>2025-05-15T08:09:18Z</time>
      </trkpt>
      <trkpt lat="42.568164970725775" lon="2.319785999134183">
        <ele>542.79999999999995</ele>
        <time>2025-05-15T08:09:22Z</time>
      </trkpt>
      <trkpt lat="42.568150972947478" lon="2.320098979398608">
        <ele>542.32000000000005</ele>
        <time>2025-05-15T08:09:25Z</time>
      </trkpt>
      <trkpt lat="42.568144015967846" lon="2.320201992988586">
        <ele>542.32000000000005</ele>
        <time>2025-05-15T08:09:26Z</time>
      </trkpt>
      <trkpt lat="42.568136975169182" lon="2.320302994921804">
        <ele>542.79999999999995</ele>
        <time>2025-05-15T08:09:27Z</time>
      </trkpt>
      <trkpt lat="42.568130018189549" lon="2.320405002683401">
        <ele>542.79999999999995</ele>
        <time>2025-05-15T08:09:28Z</time>
      </trkpt>
      <trkpt lat="42.568122977390885" lon="2.320510027930141">
        <ele>542.79999999999995</ele>
        <time>2025-05-15T08:09:29Z</time>
      </trkpt>
      <trkpt lat="42.568062962964177" lon="2.321419967338443">
        <ele>543.75999999999999</ele>
        <time>2025-05-15T08:09:37Z</time>
      </trkpt>
      <trkpt lat="42.568090036511421" lon="2.321528010070324">
        <ele>544.24000000000001</ele>
        <time>2025-05-15T08:09:38Z</time>
      </trkpt>
      <trkpt lat="42.568116020411253" lon="2.321633035317063">
        <ele>544.24000000000001</ele>
        <time>2025-05-15T08:09:39Z</time>
      </trkpt>
      <trkpt lat="42.568226996809244" lon="2.321918020024896">
        <ele>544.72000000000003</ele>
        <time>2025-05-15T08:09:42Z</time>
      </trkpt>
      <trkpt lat="42.568305032327771" lon="2.322092028334737">
        <ele>544.72000000000003</ele>
        <time>2025-05-15T08:09:44Z</time>
      </trkpt>
      <trkpt lat="42.568360017612576" lon="2.322313981130719">
        <ele>544.24000000000001</ele>
        <time>2025-05-15T08:09:46Z</time>
      </trkpt>
      <trkpt lat="42.568436963483691" lon="2.322764005511999">
        <ele>542.79999999999995</ele>
        <time>2025-05-15T08:09:50Z</time>
      </trkpt>
      <trkpt lat="42.568483985960484" lon="2.322833994403482">
        <ele>542.79999999999995</ele>
        <time>2025-05-15T08:09:51Z</time>
      </trkpt>
      <trkpt lat="42.568547017872334" lon="2.322919992730022">
        <ele>542.32000000000005</ele>
        <time>2025-05-15T08:09:52Z</time>
      </trkpt>
      <trkpt lat="42.568609965965152" lon="2.323008002713323">
        <ele>541.84000000000003</ele>
        <time>2025-05-15T08:09:53Z</time>
      </trkpt>
      <trkpt lat="42.568696970120072" lon="2.323062987998128">
        <ele>541.84000000000003</ele>
        <time>2025-05-15T08:09:54Z</time>
      </trkpt>
      <trkpt lat="42.5690340064466" lon="2.323348978534341">
        <ele>539.91999999999996</ele>
        <time>2025-05-15T08:09:58Z</time>
      </trkpt>
      <trkpt lat="42.569079017266631" lon="2.32343103736639">
        <ele>539.44000000000005</ele>
        <time>2025-05-15T08:09:59Z</time>
      </trkpt>
      <trkpt lat="42.569065019488335" lon="2.323521981015801">
        <ele>539.44000000000005</ele>
        <time>2025-05-15T08:10:00Z</time>
      </trkpt>
      <trkpt lat="42.569045992568135" lon="2.323618959635496">
        <ele>538.96000000000004</ele>
        <time>2025-05-15T08:10:01Z</time>
      </trkpt>
      <trkpt lat="42.568992013111711" lon="2.323698000982404">
        <ele>538.96000000000004</ele>
        <time>2025-05-15T08:10:02Z</time>
      </trkpt>
      <trkpt lat="42.568910960108042" lon="2.323779975995421">
        <ele>538.96000000000004</ele>
        <time>2025-05-15T08:10:03Z</time>
      </trkpt>
      <trkpt lat="42.568811969831586" lon="2.323844013735652">
        <ele>538.96000000000004</ele>
        <time>2025-05-15T08:10:04Z</time>
      </trkpt>
      <trkpt lat="42.568718008697033" lon="2.32390302233398">
        <ele>538.96000000000004</ele>
        <time>2025-05-15T08:10:05Z</time>
      </trkpt>
      <trkpt lat="42.568660005927086" lon="2.324022967368364">
        <ele>538.96000000000004</ele>
        <time>2025-05-15T08:10:06Z</time>
      </trkpt>
      <trkpt lat="42.568641984835267" lon="2.3241419903934">
        <ele>538.48000000000002</ele>
        <time>2025-05-15T08:10:07Z</time>
      </trkpt>
      <trkpt lat="42.568638967350125" lon="2.324266964569688">
        <ele>538.48000000000002</ele>
        <time>2025-05-15T08:10:08Z</time>
      </trkpt>
      <trkpt lat="42.568662017583847" lon="2.324404008686543">
        <ele>537.99000000000001</ele>
        <time>2025-05-15T08:10:09Z</time>
      </trkpt>
      <trkpt lat="42.568715997040272" lon="2.324538035318255">
        <ele>537.99000000000001</ele>
        <time>2025-05-15T08:10:10Z</time>
      </trkpt>
      <trkpt lat="42.568931998685002" lon="2.325174976140261">
        <ele>536.54999999999995</ele>
        <time>2025-05-15T08:10:14Z</time>
      </trkpt>
      <trkpt lat="42.568947002291679" lon="2.325368011370301">
        <ele>536.07000000000005</ele>
        <time>2025-05-15T08:10:15Z</time>
      </trkpt>
      <trkpt lat="42.568962005898356" lon="2.325566997751594">
        <ele>535.59000000000003</ele>
        <time>2025-05-15T08:10:16Z</time>
      </trkpt>
      <trkpt lat="42.569103995338082" lon="2.327618971467018">
        <ele>531.75</ele>
        <time>2025-05-15T08:10:26Z</time>
      </trkpt>
      <trkpt lat="42.569089997559786" lon="2.327788034453988">
        <ele>531.75</ele>
        <time>2025-05-15T08:10:27Z</time>
      </trkpt>
      <trkpt lat="42.569051021710038" lon="2.327953996136785">
        <ele>532.23000000000002</ele>
        <time>2025-05-15T08:10:28Z</time>
      </trkpt>
      <trkpt lat="42.569010034203529" lon="2.328125992789865">
        <ele>532.23000000000002</ele>
        <time>2025-05-15T08:10:29Z</time>
      </trkpt>
      <trkpt lat="42.56896804086864" lon="2.328303018584848">
        <ele>532.23000000000002</ele>
        <time>2025-05-15T08:10:30Z</time>
      </trkpt>
      <trkpt lat="42.568930992856622" lon="2.328476021066308">
        <ele>532.71000000000004</ele>
        <time>2025-05-15T08:10:31Z</time>
      </trkpt>
      <trkpt lat="42.56892504170537" lon="2.328647011891007">
        <ele>532.71000000000004</ele>
        <time>2025-05-15T08:10:32Z</time>
      </trkpt>
      <trkpt lat="42.568919006735086" lon="2.328818002715707">
        <ele>532.71000000000004</ele>
        <time>2025-05-15T08:10:33Z</time>
      </trkpt>
      <trkpt lat="42.568857986479998" lon="2.329951990395784">
        <ele>532.23000000000002</ele>
        <time>2025-05-15T08:10:39Z</time>
      </trkpt>
      <trkpt lat="42.568892017006874" lon="2.330125998705626">
        <ele>532.23000000000002</ele>
        <time>2025-05-15T08:10:40Z</time>
      </trkpt>
      <trkpt lat="42.568926969543099" lon="2.330300007015467">
        <ele>532.23000000000002</ele>
        <time>2025-05-15T08:10:41Z</time>
      </trkpt>
      <trkpt lat="42.568958988413215" lon="2.330460017547011">
        <ele>532.23000000000002</ele>
        <time>2025-05-15T08:10:42Z</time>
      </trkpt>
      <trkpt lat="42.569000981748104" lon="2.330583985894918">
        <ele>531.75</ele>
        <time>2025-05-15T08:10:43Z</time>
      </trkpt>
      <trkpt lat="42.569055967032909" lon="2.330676019191742">
        <ele>531.75</ele>
        <time>2025-05-15T08:10:44Z</time>
      </trkpt>
      <trkpt lat="42.569098966196179" lon="2.330750031396747">
        <ele>531.75</ele>
        <time>2025-05-15T08:10:45Z</time>
      </trkpt>
      <trkpt lat="42.569247996434569" lon="2.33105999417603">
        <ele>531.26999999999998</ele>
        <time>2025-05-15T08:10:53Z</time>
      </trkpt>
      <trkpt lat="42.569247996434569" lon="2.33105999417603">
        <ele>530.78999999999996</ele>
        <time>2025-05-15T08:11:05Z</time>
      </trkpt>
      <trkpt lat="42.569343969225883" lon="2.331315977498889">
        <ele>529.34000000000003</ele>
        <time>2025-05-15T08:11:27Z</time>
      </trkpt>
      <trkpt lat="42.569659966975451" lon="2.332040006294847">
        <ele>528.38</ele>
        <time>2025-05-15T08:11:34Z</time>
      </trkpt>
      <trkpt lat="42.570233959704638" lon="2.333006020635366">
        <ele>525.98000000000002</ele>
        <time>2025-05-15T08:11:41Z</time>
      </trkpt>
      <trkpt lat="42.570475023239851" lon="2.333421008661389">
        <ele>524.05999999999995</ele>
        <time>2025-05-15T08:11:44Z</time>
      </trkpt>
      <trkpt lat="42.570523973554373" lon="2.333570960909128">
        <ele>523.58000000000004</ele>
        <time>2025-05-15T08:11:45Z</time>
      </trkpt>
      <trkpt lat="42.570531014353037" lon="2.333713034167886">
        <ele>523.09000000000003</ele>
        <time>2025-05-15T08:11:46Z</time>
      </trkpt>
      <trkpt lat="42.570537971332669" lon="2.333839014172554">
        <ele>522.61000000000001</ele>
        <time>2025-05-15T08:11:47Z</time>
      </trkpt>
      <trkpt lat="42.570545012131333" lon="2.333957031369209">
        <ele>522.61000000000001</ele>
        <time>2025-05-15T08:11:48Z</time>
      </trkpt>
      <trkpt lat="42.570550963282585" lon="2.334073958918452">
        <ele>522.13</ele>
        <time>2025-05-15T08:11:49Z</time>
      </trkpt>
      <trkpt lat="42.570556998252869" lon="2.334193987771869">
        <ele>522.13</ele>
        <time>2025-05-15T08:11:50Z</time>
      </trkpt>
      <trkpt lat="42.570570996031165" lon="2.334315022453666">
        <ele>521.64999999999998</ele>
        <time>2025-05-15T08:11:51Z</time>
      </trkpt>
      <trkpt lat="42.570617012679577" lon="2.334436979144812">
        <ele>521.16999999999996</ele>
        <time>2025-05-15T08:11:52Z</time>
      </trkpt>
      <trkpt lat="42.570664035156369" lon="2.334562037140131">
        <ele>520.21000000000004</ele>
        <time>2025-05-15T08:11:53Z</time>
      </trkpt>
      <trkpt lat="42.570712985470891" lon="2.334691034629941">
        <ele>519.73000000000002</ele>
        <time>2025-05-15T08:11:54Z</time>
      </trkpt>
      <trkpt lat="42.57088397629559" lon="2.335047014057636">
        <ele>517.80999999999995</ele>
        <time>2025-05-15T08:11:57Z</time>
      </trkpt>
      <trkpt lat="42.570957988500595" lon="2.335158996284008">
        <ele>517.33000000000004</ele>
        <time>2025-05-15T08:11:58Z</time>
      </trkpt>
      <trkpt lat="42.571036024019122" lon="2.335278019309044">
        <ele>516.37</ele>
        <time>2025-05-15T08:11:59Z</time>
      </trkpt>
      <trkpt lat="42.571197040379047" lon="2.335524028167129">
        <ele>514.91999999999996</ele>
        <time>2025-05-15T08:12:01Z</time>
      </trkpt>
      <trkpt lat="42.571272980421782" lon="2.335651014000177">
        <ele>513.96000000000004</ele>
        <time>2025-05-15T08:12:02Z</time>
      </trkpt>
      <trkpt lat="42.571828030049801" lon="2.336761029437184">
        <ele>509.63999999999999</ele>
        <time>2025-05-15T08:12:09Z</time>
      </trkpt>
      <trkpt lat="42.571965996176004" lon="2.336867982521653">
        <ele>509.16000000000003</ele>
        <time>2025-05-15T08:12:10Z</time>
      </trkpt>
      <trkpt lat="42.572104968130589" lon="2.336974013596773">
        <ele>508.67000000000002</ele>
        <time>2025-05-15T08:12:11Z</time>
      </trkpt>
      <trkpt lat="42.57264400832355" lon="2.337383972480893">
        <ele>505.31</ele>
        <time>2025-05-15T08:12:15Z</time>
      </trkpt>
      <trkpt lat="42.572758002206683" lon="2.33758999966085">
        <ele>504.82999999999998</ele>
        <time>2025-05-15T08:12:16Z</time>
      </trkpt>
      <trkpt lat="42.572861015796661" lon="2.337773982435465">
        <ele>504.35000000000002</ele>
        <time>2025-05-15T08:12:17Z</time>
      </trkpt>
      <trkpt lat="42.572968974709511" lon="2.337970035150647">
        <ele>503.87</ele>
        <time>2025-05-15T08:12:18Z</time>
      </trkpt>
      <trkpt lat="42.573081040754914" lon="2.338188970461488">
        <ele>502.91000000000003</ele>
        <time>2025-05-15T08:12:19Z</time>
      </trkpt>
      <trkpt lat="42.573198974132538" lon="2.338420981541276">
        <ele>502.43000000000001</ele>
        <time>2025-05-15T08:12:20Z</time>
      </trkpt>
      <trkpt lat="42.574180997908115" lon="2.340320991352201">
        <ele>497.13999999999999</ele>
        <time>2025-05-15T08:12:27Z</time>
      </trkpt>
      <trkpt lat="42.575638024136424" lon="2.342366008087993">
        <ele>491.85000000000002</ele>
        <time>2025-05-15T08:12:35Z</time>
      </trkpt>
      <trkpt lat="42.577466033399105" lon="2.34474596567452">
        <ele>482.72000000000003</ele>
        <time>2025-05-15T08:12:45Z</time>
      </trkpt>
      <trkpt lat="42.578886011615396" lon="2.346783019602299">
        <ele>475.50999999999999</ele>
        <time>2025-05-15T08:12:54Z</time>
      </trkpt>
      <trkpt lat="42.579084997996688" lon="2.347276965156198">
        <ele>474.06999999999999</ele>
        <time>2025-05-15T08:12:56Z</time>
      </trkpt>
      <trkpt lat="42.579987980425358" lon="2.349836966022849">
        <ele>468.30000000000001</ele>
        <time>2025-05-15T08:13:06Z</time>
      </trkpt>
      <trkpt lat="42.581252977252007" lon="2.352336030453444">
        <ele>462.05000000000001</ele>
        <time>2025-05-15T08:13:17Z</time>
      </trkpt>
      <trkpt lat="42.582516968250275" lon="2.353743016719818">
        <ele>460.13</ele>
        <time>2025-05-15T08:13:25Z</time>
      </trkpt>
      <trkpt lat="42.583288019523025" lon="2.354519013315439">
        <ele>460.13</ele>
        <time>2025-05-15T08:13:30Z</time>
      </trkpt>
      <trkpt lat="42.58340997621417" lon="2.354707019403577">
        <ele>459.64999999999998</ele>
        <time>2025-05-15T08:13:31Z</time>
      </trkpt>
      <trkpt lat="42.583823958411813" lon="2.355602039024234">
        <ele>458.69</ele>
        <time>2025-05-15T08:13:35Z</time>
      </trkpt>
      <trkpt lat="42.583876010030508" lon="2.355840001255274">
        <ele>458.20999999999998</ele>
        <time>2025-05-15T08:13:36Z</time>
      </trkpt>
      <trkpt lat="42.584115983918309" lon="2.357864985242486">
        <ele>454.83999999999997</ele>
        <time>2025-05-15T08:13:44Z</time>
      </trkpt>
      <trkpt lat="42.584217991679907" lon="2.359036020934582">
        <ele>451.95999999999998</ele>
        <time>2025-05-15T08:13:49Z</time>
      </trkpt>
      <trkpt lat="42.584271971136332" lon="2.359252022579312">
        <ele>451.48000000000002</ele>
        <time>2025-05-15T08:13:50Z</time>
      </trkpt>
      <trkpt lat="42.584337014704943" lon="2.359456960111857">
        <ele>450.51999999999998</ele>
        <time>2025-05-15T08:13:51Z</time>
      </trkpt>
      <trkpt lat="42.58435201831162" lon="2.359672039747238">
        <ele>450.02999999999997</ele>
        <time>2025-05-15T08:13:52Z</time>
      </trkpt>
      <trkpt lat="42.584359981119633" lon="2.359859962016344">
        <ele>449.55000000000001</ele>
        <time>2025-05-15T08:13:53Z</time>
      </trkpt>
      <trkpt lat="42.584344977512956" lon="2.360044028609991">
        <ele>449.06999999999999</ele>
        <time>2025-05-15T08:13:54Z</time>
      </trkpt>
      <trkpt lat="42.584306001663208" lon="2.360215019434691">
        <ele>449.06999999999999</ele>
        <time>2025-05-15T08:13:55Z</time>
      </trkpt>
      <trkpt lat="42.584094023332" lon="2.361578000709415">
        <ele>448.11000000000001</ele>
        <time>2025-05-15T08:14:02Z</time>
      </trkpt>
      <trkpt lat="42.584087988361716" lon="2.36176198348403">
        <ele>448.11000000000001</ele>
        <time>2025-05-15T08:14:03Z</time>
      </trkpt>
      <trkpt lat="42.584101986140013" lon="2.361946972087026">
        <ele>448.11000000000001</ele>
        <time>2025-05-15T08:14:04Z</time>
      </trkpt>
      <trkpt lat="42.584156971424818" lon="2.362116035073996">
        <ele>448.11000000000001</ele>
        <time>2025-05-15T08:14:05Z</time>
      </trkpt>
      <trkpt lat="42.584226038306952" lon="2.362279985100031">
        <ele>447.63</ele>
        <time>2025-05-15T08:14:06Z</time>
      </trkpt>
      <trkpt lat="42.584313964471221" lon="2.362442007288337">
        <ele>447.63</ele>
        <time>2025-05-15T08:14:07Z</time>
      </trkpt>
      <trkpt lat="42.584400968626142" lon="2.362603023648262">
        <ele>447.63</ele>
        <time>2025-05-15T08:14:08Z</time>
      </trkpt>
      <trkpt lat="42.584491996094584" lon="2.362753981724381">
        <ele>447.14999999999998</ele>
        <time>2025-05-15T08:14:09Z</time>
      </trkpt>
      <trkpt lat="42.585064982995391" lon="2.363327974453569">
        <ele>445.23000000000002</ele>
        <time>2025-05-15T08:14:14Z</time>
      </trkpt>
      <trkpt lat="42.585564041510224" lon="2.363777998834848">
        <ele>443.31</ele>
        <time>2025-05-15T08:14:18Z</time>
      </trkpt>
      <trkpt lat="42.585773002356291" lon="2.364036999642849">
        <ele>442.33999999999997</ele>
        <time>2025-05-15T08:14:20Z</time>
      </trkpt>
      <trkpt lat="42.585862018167973" lon="2.364171026274562">
        <ele>441.86000000000001</ele>
        <time>2025-05-15T08:14:21Z</time>
      </trkpt>
      <trkpt lat="42.585923038423061" lon="2.36431997269392">
        <ele>441.38</ele>
        <time>2025-05-15T08:14:22Z</time>
      </trkpt>
      <trkpt lat="42.585991015657783" lon="2.364485012367368">
        <ele>441.38</ele>
        <time>2025-05-15T08:14:23Z</time>
      </trkpt>
      <trkpt lat="42.586025968194008" lon="2.364615015685558">
        <ele>440.89999999999998</ele>
        <time>2025-05-15T08:14:24Z</time>
      </trkpt>
      <trkpt lat="42.586057987064123" lon="2.364777037873864">
        <ele>440.89999999999998</ele>
        <time>2025-05-15T08:14:25Z</time>
      </trkpt>
      <trkpt lat="42.586067039519548" lon="2.364933025091887">
        <ele>440.42000000000002</ele>
        <time>2025-05-15T08:14:26Z</time>
      </trkpt>
      <trkpt lat="42.586313970386982" lon="2.366346968337894">
        <ele>439.45999999999998</ele>
        <time>2025-05-15T08:14:35Z</time>
      </trkpt>
      <trkpt lat="42.586402986198664" lon="2.366873016580939">
        <ele>439.94</ele>
        <time>2025-05-15T08:14:38Z</time>
      </trkpt>
      <trkpt lat="42.586429975926876" lon="2.367451032623649">
        <ele>440.89999999999998</ele>
        <time>2025-05-15T08:14:42Z</time>
      </trkpt>
      <trkpt lat="42.586484039202332" lon="2.368433978408575">
        <ele>441.38</ele>
        <time>2025-05-15T08:14:52Z</time>
      </trkpt>
      <trkpt lat="42.586542963981628" lon="2.36915398389101">
        <ele>440.89999999999998</ele>
        <time>2025-05-15T08:14:57Z</time>
      </trkpt>
      <trkpt lat="42.586555033922195" lon="2.36930200830102">
        <ele>440.42000000000002</ele>
        <time>2025-05-15T08:14:58Z</time>
      </trkpt>
      <trkpt lat="42.586570037528872" lon="2.369764018803835">
        <ele>438.5</ele>
        <time>2025-05-15T08:15:02Z</time>
      </trkpt>
      <trkpt lat="42.586541958153248" lon="2.370007010176778">
        <ele>438.98000000000002</ele>
        <time>2025-05-15T08:15:04Z</time>
      </trkpt>
      <trkpt lat="42.586518991738558" lon="2.370098037645221">
        <ele>438.98000000000002</ele>
        <time>2025-05-15T08:15:05Z</time>
      </trkpt>
      <trkpt lat="42.58654497563839" lon="2.370208008214831">
        <ele>439.45999999999998</ele>
        <time>2025-05-15T08:15:06Z</time>
      </trkpt>
      <trkpt lat="42.586601972579956" lon="2.370281014591456">
        <ele>439.45999999999998</ele>
        <time>2025-05-15T08:15:07Z</time>
      </trkpt>
      <trkpt lat="42.58667103946209" lon="2.370298029854894">
        <ele>439.45999999999998</ele>
        <time>2025-05-15T08:15:08Z</time>
      </trkpt>
      <trkpt lat="42.586742034181952" lon="2.370236003771424">
        <ele>439.94</ele>
        <time>2025-05-15T08:15:09Z</time>
      </trkpt>
      <trkpt lat="42.586742034181952" lon="2.370236003771424">
        <ele>439.94</ele>
        <time>2025-05-15T08:15:10Z</time>
      </trkpt>
      <trkpt lat="42.58688603527844" lon="2.370057972148061">
        <ele>439.45999999999998</ele>
        <time>2025-05-15T08:15:11Z</time>
      </trkpt>
      <trkpt lat="42.586960969492793" lon="2.37005302682519">
        <ele>438.98000000000002</ele>
        <time>2025-05-15T08:15:12Z</time>
      </trkpt>
      <trkpt lat="42.587054008617997" lon="2.370046991854906">
        <ele>438.5</ele>
        <time>2025-05-15T08:15:13Z</time>
      </trkpt>
      <trkpt lat="42.587169008329511" lon="2.3700559604913">
        <ele>437.54000000000002</ele>
        <time>2025-05-15T08:15:14Z</time>
      </trkpt>
      <trkpt lat="42.587284008041024" lon="2.370092002674937">
        <ele>437.06</ele>
        <time>2025-05-15T08:15:15Z</time>
      </trkpt>
      <trkpt lat="42.587404036894441" lon="2.370129972696304">
        <ele>436.10000000000002</ele>
        <time>2025-05-15T08:15:16Z</time>
      </trkpt>
      <trkpt lat="42.587522976100445" lon="2.370168026536703">
        <ele>435.13</ele>
        <time>2025-05-15T08:15:17Z</time>
      </trkpt>
      <trkpt lat="42.587645016610622" lon="2.370222005993128">
        <ele>434.17000000000002</ele>
        <time>2025-05-15T08:15:18Z</time>
      </trkpt>
      <trkpt lat="42.587764039635658" lon="2.370298029854894">
        <ele>433.20999999999998</ele>
        <time>2025-05-15T08:15:19Z</time>
      </trkpt>
      <trkpt lat="42.588022034615278" lon="2.37046399153769">
        <ele>431.76999999999998</ele>
        <time>2025-05-15T08:15:21Z</time>
      </trkpt>
      <trkpt lat="42.589215030893683" lon="2.371120965108275">
        <ele>426.95999999999998</ele>
        <time>2025-05-15T08:15:30Z</time>
      </trkpt>
      <trkpt lat="42.590039977803826" lon="2.371211992576718">
        <ele>424.56</ele>
        <time>2025-05-15T08:15:37Z</time>
      </trkpt>
      <trkpt lat="42.590156989172101" lon="2.371221967041493">
        <ele>424.07999999999998</ele>
        <time>2025-05-15T08:15:38Z</time>
      </trkpt>
      <trkpt lat="42.590282969176769" lon="2.371233031153679">
        <ele>424.07999999999998</ele>
        <time>2025-05-15T08:15:39Z</time>
      </trkpt>
      <trkpt lat="42.590406015515327" lon="2.371243005618453">
        <ele>423.60000000000002</ele>
        <time>2025-05-15T08:15:40Z</time>
      </trkpt>
      <trkpt lat="42.590528978034854" lon="2.371253985911608">
        <ele>423.60000000000002</ele>
        <time>2025-05-15T08:15:41Z</time>
      </trkpt>
      <trkpt lat="42.59066903963685" lon="2.371265972033143">
        <ele>423.12</ele>
        <time>2025-05-15T08:15:42Z</time>
      </trkpt>
      <trkpt lat="42.59114102460444" lon="2.371373008936644">
        <ele>420.70999999999998</ele>
        <time>2025-05-15T08:15:46Z</time>
      </trkpt>
      <trkpt lat="42.591244038194418" lon="2.371413996443152">
        <ele>420.23000000000002</ele>
        <time>2025-05-15T08:15:47Z</time>
      </trkpt>
      <trkpt lat="42.591354008764029" lon="2.371458001434803">
        <ele>419.75</ele>
        <time>2025-05-15T08:15:48Z</time>
      </trkpt>
      <trkpt lat="42.591454004868865" lon="2.371541988104582">
        <ele>419.26999999999998</ele>
        <time>2025-05-15T08:15:49Z</time>
      </trkpt>
      <trkpt lat="42.591563975438476" lon="2.371634021401405">
        <ele>418.79000000000002</ele>
        <time>2025-05-15T08:15:50Z</time>
      </trkpt>
      <trkpt lat="42.591682998463511" lon="2.371734017506242">
        <ele>418.31</ele>
        <time>2025-05-15T08:15:51Z</time>
      </trkpt>
      <trkpt lat="42.592723025009036" lon="2.372569022700191">
        <ele>418.31</ele>
        <time>2025-05-15T08:15:59Z</time>
      </trkpt>
      <trkpt lat="42.5940649677068" lon="2.373585999011993">
        <ele>415.91000000000003</ele>
        <time>2025-05-15T08:16:09Z</time>
      </trkpt>
      <trkpt lat="42.595088984817266" lon="2.374570034444332">
        <ele>413.98000000000002</ele>
        <time>2025-05-15T08:16:16Z</time>
      </trkpt>
      <trkpt lat="42.595325019210577" lon="2.374925008043647">
        <ele>413.98000000000002</ele>
        <time>2025-05-15T08:16:18Z</time>
      </trkpt>
      <trkpt lat="42.595419986173511" lon="2.375109996646643">
        <ele>413.98000000000002</ele>
        <time>2025-05-15T08:16:19Z</time>
      </trkpt>
      <trkpt lat="42.595491986721754" lon="2.375315017998219">
        <ele>413.5</ele>
        <time>2025-05-15T08:16:20Z</time>
      </trkpt>
      <trkpt lat="42.595560969784856" lon="2.375515010207892">
        <ele>413.5</ele>
        <time>2025-05-15T08:16:21Z</time>
      </trkpt>
      <trkpt lat="42.595598017796874" lon="2.37572799436748">
        <ele>413.5</ele>
        <time>2025-05-15T08:16:22Z</time>
      </trkpt>
      <trkpt lat="42.595665995031595" lon="2.376123033463955">
        <ele>413.5</ele>
        <time>2025-05-15T08:16:24Z</time>
      </trkpt>
      <trkpt lat="42.595749981701374" lon="2.376283966004849">
        <ele>413.5</ele>
        <time>2025-05-15T08:16:25Z</time>
      </trkpt>
      <trkpt lat="42.595847966149449" lon="2.376386979594827">
        <ele>413.5</ele>
        <time>2025-05-15T08:16:26Z</time>
      </trkpt>
      <trkpt lat="42.595952991396189" lon="2.376468032598496">
        <ele>413.01999999999998</ele>
        <time>2025-05-15T08:16:27Z</time>
      </trkpt>
      <trkpt lat="42.596077965572476" lon="2.376480018720031">
        <ele>413.01999999999998</ele>
        <time>2025-05-15T08:16:28Z</time>
      </trkpt>
      <trkpt lat="42.596220038831234" lon="2.376480018720031">
        <ele>412.54000000000002</ele>
        <time>2025-05-15T08:16:29Z</time>
      </trkpt>
      <trkpt lat="42.596359010785818" lon="2.376480018720031">
        <ele>411.57999999999998</ele>
        <time>2025-05-15T08:16:30Z</time>
      </trkpt>
      <trkpt lat="42.596468981355429" lon="2.376503990963101">
        <ele>411.10000000000002</ele>
        <time>2025-05-15T08:16:31Z</time>
      </trkpt>
      <trkpt lat="42.596591021865606" lon="2.376609016209841">
        <ele>410.62</ele>
        <time>2025-05-15T08:16:32Z</time>
      </trkpt>
      <trkpt lat="42.596674002707005" lon="2.376733990386128">
        <ele>410.13999999999999</ele>
        <time>2025-05-15T08:16:33Z</time>
      </trkpt>
      <trkpt lat="42.596784979104996" lon="2.376900035887957">
        <ele>409.66000000000003</ele>
        <time>2025-05-15T08:16:34Z</time>
      </trkpt>
      <trkpt lat="42.598026003688574" lon="2.378554958850145">
        <ele>406.76999999999998</ele>
        <time>2025-05-15T08:16:43Z</time>
      </trkpt>
      <trkpt lat="42.600193982943892" lon="2.381310006603599">
        <ele>402.44999999999999</ele>
        <time>2025-05-15T08:16:57Z</time>
      </trkpt>
      <trkpt lat="42.601412963122129" lon="2.38335401751101">
        <ele>399.56999999999999</ele>
        <time>2025-05-15T08:17:06Z</time>
      </trkpt>
      <trkpt lat="42.602442009374499" lon="2.386285001412034">
        <ele>395.72000000000003</ele>
        <time>2025-05-15T08:17:17Z</time>
      </trkpt>
      <trkpt lat="42.603565016761422" lon="2.389590991660953">
        <ele>393.31999999999999</ele>
        <time>2025-05-15T08:17:29Z</time>
      </trkpt>
      <trkpt lat="42.604344030842185" lon="2.391952006146312">
        <ele>395.72000000000003</ele>
        <time>2025-05-15T08:17:39Z</time>
      </trkpt>
      <trkpt lat="42.604814004153013" lon="2.393266959115863">
        <ele>394.27999999999997</ele>
        <time>2025-05-15T08:17:47Z</time>
      </trkpt>
      <trkpt lat="42.605654960498214" lon="2.395313987508416">
        <ele>392.36000000000001</ele>
        <time>2025-05-15T08:18:02Z</time>
      </trkpt>
      <trkpt lat="42.605802984908223" lon="2.395738027989864">
        <ele>391.87</ele>
        <time>2025-05-15T08:18:05Z</time>
      </trkpt>
      <trkpt lat="42.605888983234763" lon="2.396172964945436">
        <ele>390.43000000000001</ele>
        <time>2025-05-15T08:18:08Z</time>
      </trkpt>
      <trkpt lat="42.605921002104878" lon="2.396467002108693">
        <ele>389.47000000000003</ele>
        <time>2025-05-15T08:18:10Z</time>
      </trkpt>
      <trkpt lat="42.605913039296865" lon="2.396623995155096">
        <ele>388.99000000000001</ele>
        <time>2025-05-15T08:18:11Z</time>
      </trkpt>
      <trkpt lat="42.605854030698538" lon="2.397047029808164">
        <ele>387.55000000000001</ele>
        <time>2025-05-15T08:18:14Z</time>
      </trkpt>
      <trkpt lat="42.6058179885149" lon="2.39716999232769">
        <ele>387.06999999999999</ele>
        <time>2025-05-15T08:18:15Z</time>
      </trkpt>
      <trkpt lat="42.605782030150294" lon="2.397292032837868">
        <ele>386.58999999999997</ele>
        <time>2025-05-15T08:18:16Z</time>
      </trkpt>
      <trkpt lat="42.605766020715237" lon="2.39742798730731">
        <ele>386.11000000000001</ele>
        <time>2025-05-15T08:18:17Z</time>
      </trkpt>
      <trkpt lat="42.605755040422082" lon="2.397552039474249">
        <ele>385.63</ele>
        <time>2025-05-15T08:18:18Z</time>
      </trkpt>
      <trkpt lat="42.605787981301546" lon="2.397678019478917">
        <ele>385.63</ele>
        <time>2025-05-15T08:18:19Z</time>
      </trkpt>
      <trkpt lat="42.605825029313564" lon="2.397788995876908">
        <ele>385.14999999999998</ele>
        <time>2025-05-15T08:18:20Z</time>
      </trkpt>
      <trkpt lat="42.605862999334931" lon="2.397901983931661">
        <ele>384.66000000000003</ele>
        <time>2025-05-15T08:18:21Z</time>
      </trkpt>
      <trkpt lat="42.606210010126233" lon="2.398961959406734">
        <ele>380.81999999999999</ele>
        <time>2025-05-15T08:18:32Z</time>
      </trkpt>
      <trkpt lat="42.606236999854445" lon="2.399048041552305">
        <ele>380.33999999999997</ele>
        <time>2025-05-15T08:18:33Z</time>
      </trkpt>
      <trkpt lat="42.606266001239419" lon="2.399140996858478">
        <ele>379.86000000000001</ele>
        <time>2025-05-15T08:18:34Z</time>
      </trkpt>
      <trkpt lat="42.606618963181973" lon="2.400269033387303">
        <ele>374.56999999999999</ele>
        <time>2025-05-15T08:18:44Z</time>
      </trkpt>
      <trkpt lat="42.606971003115177" lon="2.401333032175899">
        <ele>370.73000000000002</ele>
        <time>2025-05-15T08:18:55Z</time>
      </trkpt>
      <trkpt lat="42.607006961479783" lon="2.401440991088748">
        <ele>370.73000000000002</ele>
        <time>2025-05-15T08:18:56Z</time>
      </trkpt>
      <trkpt lat="42.607092037796974" lon="2.401645006611943">
        <ele>370.24000000000001</ele>
        <time>2025-05-15T08:18:58Z</time>
      </trkpt>
      <trkpt lat="42.607147023081779" lon="2.401754977181554">
        <ele>370.24000000000001</ele>
        <time>2025-05-15T08:18:59Z</time>
      </trkpt>
      <trkpt lat="42.607201002538204" lon="2.401868971064687">
        <ele>369.75999999999999</ele>
        <time>2025-05-15T08:19:00Z</time>
      </trkpt>
      <trkpt lat="42.607467966154218" lon="2.402443969622254">
        <ele>368.80000000000001</ele>
        <time>2025-05-15T08:19:05Z</time>
      </trkpt>
      <trkpt lat="42.608174979686737" lon="2.40395799279213">
        <ele>367.36000000000001</ele>
        <time>2025-05-15T08:19:16Z</time>
      </trkpt>
      <trkpt lat="42.608787026256323" lon="2.405695980414748">
        <ele>367.36000000000001</ele>
        <time>2025-05-15T08:19:25Z</time>
      </trkpt>
      <trkpt lat="42.608833964914083" lon="2.405906030908227">
        <ele>367.36000000000001</ele>
        <time>2025-05-15T08:19:26Z</time>
      </trkpt>
      <trkpt lat="42.609029011800885" lon="2.406678004190326">
        <ele>368.31999999999999</ele>
        <time>2025-05-15T08:19:30Z</time>
      </trkpt>
      <trkpt lat="42.609095983207226" lon="2.406812030822039">
        <ele>368.31999999999999</ele>
        <time>2025-05-15T08:19:31Z</time>
      </trkpt>
      <trkpt lat="42.609281977638602" lon="2.407147977501154">
        <ele>368.80000000000001</ele>
        <time>2025-05-15T08:19:36Z</time>
      </trkpt>
      <trkpt lat="42.609296981245279" lon="2.407168010249734">
        <ele>368.80000000000001</ele>
        <time>2025-05-15T08:19:37Z</time>
      </trkpt>
      <trkpt lat="42.609296981245279" lon="2.407168010249734">
        <ele>368.80000000000001</ele>
        <time>2025-05-15T08:19:48Z</time>
      </trkpt>
      <trkpt lat="42.609461015090346" lon="2.407388035207987">
        <ele>372.17000000000002</ele>
        <time>2025-05-15T08:20:21Z</time>
      </trkpt>
      <trkpt lat="42.609486998990178" lon="2.407421981915832">
        <ele>372.17000000000002</ele>
        <time>2025-05-15T08:20:22Z</time>
      </trkpt>
      <trkpt lat="42.609550030902028" lon="2.407452994957566">
        <ele>373.13</ele>
        <time>2025-05-15T08:20:23Z</time>
      </trkpt>
      <trkpt lat="42.609605016186833" lon="2.407480990514159">
        <ele>373.61000000000001</ele>
        <time>2025-05-15T08:20:24Z</time>
      </trkpt>
      <trkpt lat="42.609778018668294" lon="2.40756799466908">
        <ele>374.08999999999997</ele>
        <time>2025-05-15T08:20:27Z</time>
      </trkpt>
      <trkpt lat="42.610017992556095" lon="2.40771702490747">
        <ele>374.56999999999999</ele>
        <time>2025-05-15T08:20:31Z</time>
      </trkpt>
      <trkpt lat="42.610083036124706" lon="2.407781984657049">
        <ele>374.08999999999997</ele>
        <time>2025-05-15T08:20:32Z</time>
      </trkpt>
      <trkpt lat="42.610173979774117" lon="2.407873012125492">
        <ele>374.08999999999997</ele>
        <time>2025-05-15T08:20:33Z</time>
      </trkpt>
      <trkpt lat="42.610215973109007" lon="2.407944006845355">
        <ele>374.08999999999997</ele>
        <time>2025-05-15T08:20:34Z</time>
      </trkpt>
      <trkpt lat="42.610274981707335" lon="2.408045008778572">
        <ele>373.61000000000001</ele>
        <time>2025-05-15T08:20:35Z</time>
      </trkpt>
      <trkpt lat="42.610333990305662" lon="2.408146010711789">
        <ele>373.61000000000001</ele>
        <time>2025-05-15T08:20:36Z</time>
      </trkpt>
      <trkpt lat="42.610884010791779" lon="2.408899962902069">
        <ele>370.73000000000002</ele>
        <time>2025-05-15T08:20:44Z</time>
      </trkpt>
      <trkpt lat="42.611868968233466" lon="2.409792970865965">
        <ele>364.48000000000002</ele>
        <time>2025-05-15T08:20:54Z</time>
      </trkpt>
      <trkpt lat="42.612886028364301" lon="2.410614984109998">
        <ele>360.63</ele>
        <time>2025-05-15T08:21:04Z</time>
      </trkpt>
      <trkpt lat="42.614084975793958" lon="2.41132996045053">
        <ele>357.26999999999998</ele>
        <time>2025-05-15T08:21:13Z</time>
      </trkpt>
      <trkpt lat="42.615774013102055" lon="2.411842010915279">
        <ele>349.57999999999998</ele>
        <time>2025-05-15T08:21:24Z</time>
      </trkpt>
      <trkpt lat="42.616848992183805" lon="2.412344003096223">
        <ele>345.73000000000002</ele>
        <time>2025-05-15T08:21:31Z</time>
      </trkpt>
      <trkpt lat="42.61701000854373" lon="2.412377027794719">
        <ele>345.25</ele>
        <time>2025-05-15T08:21:32Z</time>
      </trkpt>
      <trkpt lat="42.617176976054907" lon="2.412369986996055">
        <ele>344.76999999999998</ele>
        <time>2025-05-15T08:21:33Z</time>
      </trkpt>
      <trkpt lat="42.617346039041877" lon="2.412362024188042">
        <ele>344.29000000000002</ele>
        <time>2025-05-15T08:21:34Z</time>
      </trkpt>
      <trkpt lat="42.617517029866576" lon="2.412354983389378">
        <ele>343.81</ele>
        <time>2025-05-15T08:21:35Z</time>
      </trkpt>
      <trkpt lat="42.61832102201879" lon="2.412390019744635">
        <ele>341.88999999999999</ele>
        <time>2025-05-15T08:21:40Z</time>
      </trkpt>
      <trkpt lat="42.618455970659852" lon="2.412408962845802">
        <ele>341.41000000000003</ele>
        <time>2025-05-15T08:21:41Z</time>
      </trkpt>
      <trkpt lat="42.618583040311933" lon="2.412449028342962">
        <ele>340.92000000000002</ele>
        <time>2025-05-15T08:21:42Z</time>
      </trkpt>
      <trkpt lat="42.618693010881543" lon="2.412522034719586">
        <ele>340.44</ele>
        <time>2025-05-15T08:21:43Z</time>
      </trkpt>
      <trkpt lat="42.618803987279534" lon="2.412595963105559">
        <ele>340.44</ele>
        <time>2025-05-15T08:21:44Z</time>
      </trkpt>
      <trkpt lat="42.619129037484527" lon="2.412869967520237">
        <ele>339.48000000000002</ele>
        <time>2025-05-15T08:21:47Z</time>
      </trkpt>
      <trkpt lat="42.619229033589363" lon="2.412958983331919">
        <ele>339.48000000000002</ele>
        <time>2025-05-15T08:21:48Z</time>
      </trkpt>
      <trkpt lat="42.619302961975336" lon="2.413081023842096">
        <ele>339</ele>
        <time>2025-05-15T08:21:49Z</time>
      </trkpt>
      <trkpt lat="42.619377980008721" lon="2.413202980533242">
        <ele>339</ele>
        <time>2025-05-15T08:21:50Z</time>
      </trkpt>
      <trkpt lat="42.619456015527248" lon="2.413331978023052">
        <ele>339</ele>
        <time>2025-05-15T08:21:51Z</time>
      </trkpt>
      <trkpt lat="42.620155988261104" lon="2.414798978716135">
        <ele>334.68000000000001</ele>
        <time>2025-05-15T08:22:01Z</time>
      </trkpt>
      <trkpt lat="42.620602995157242" lon="2.415705984458327">
        <ele>332.75</ele>
        <time>2025-05-15T08:22:07Z</time>
      </trkpt>
      <trkpt lat="42.620852021500468" lon="2.416073027998209">
        <ele>332.26999999999998</ele>
        <time>2025-05-15T08:22:14Z</time>
      </trkpt>
      <trkpt lat="42.621030975133181" lon="2.416326999664307">
        <ele>332.75</ele>
        <time>2025-05-15T08:22:22Z</time>
      </trkpt>
      <trkpt lat="42.621030975133181" lon="2.416392965242267">
        <ele>333.23000000000002</ele>
        <time>2025-05-15T08:22:23Z</time>
      </trkpt>
      <trkpt lat="42.621030975133181" lon="2.416495978832245">
        <ele>333.23000000000002</ele>
        <time>2025-05-15T08:22:24Z</time>
      </trkpt>
      <trkpt lat="42.621030975133181" lon="2.416669987142086">
        <ele>333.23000000000002</ele>
        <time>2025-05-15T08:22:25Z</time>
      </trkpt>
      <trkpt lat="42.621082020923495" lon="2.416713992133737">
        <ele>333.23000000000002</ele>
        <time>2025-05-15T08:22:26Z</time>
      </trkpt>
      <trkpt lat="42.621157960966229" lon="2.416780963540077">
        <ele>333.23000000000002</ele>
        <time>2025-05-15T08:22:27Z</time>
      </trkpt>
      <trkpt lat="42.621232978999615" lon="2.416857993230224">
        <ele>333.23000000000002</ele>
        <time>2025-05-15T08:22:28Z</time>
      </trkpt>
      <trkpt lat="42.621315037831664" lon="2.416963018476963">
        <ele>333.23000000000002</ele>
        <time>2025-05-15T08:22:29Z</time>
      </trkpt>
      <trkpt lat="42.621401958167553" lon="2.417072989046574">
        <ele>332.75</ele>
        <time>2025-05-15T08:22:30Z</time>
      </trkpt>
      <trkpt lat="42.621525004506111" lon="2.417227970436215">
        <ele>332.26999999999998</ele>
        <time>2025-05-15T08:22:31Z</time>
      </trkpt>
      <trkpt lat="42.622236041352153" lon="2.418956989422441">
        <ele>328.43000000000001</ele>
        <time>2025-05-15T08:22:41Z</time>
      </trkpt>
      <trkpt lat="42.623022012412548" lon="2.421057997271419">
        <ele>326.01999999999998</ele>
        <time>2025-05-15T08:22:50Z</time>
      </trkpt>
      <trkpt lat="42.62360799126327" lon="2.423138972371817">
        <ele>322.66000000000003</ele>
        <time>2025-05-15T08:22:59Z</time>
      </trkpt>
      <trkpt lat="42.624093974009156" lon="2.424975028261542">
        <ele>325.06</ele>
        <time>2025-05-15T08:23:08Z</time>
      </trkpt>
      <trkpt lat="42.624243004247546" lon="2.426147991791368">
        <ele>328.91000000000003</ele>
        <time>2025-05-15T08:23:16Z</time>
      </trkpt>
      <trkpt lat="42.624235963448882" lon="2.426284030079842">
        <ele>329.38999999999999</ele>
        <time>2025-05-15T08:23:17Z</time>
      </trkpt>
      <trkpt lat="42.624157005921006" lon="2.426791973412037">
        <ele>333.23000000000002</ele>
        <time>2025-05-15T08:23:22Z</time>
      </trkpt>
      <trkpt lat="42.624132027849555" lon="2.426847964525223">
        <ele>334.19999999999999</ele>
        <time>2025-05-15T08:23:23Z</time>
      </trkpt>
      <trkpt lat="42.624103026464581" lon="2.426909990608692">
        <ele>334.68000000000001</ele>
        <time>2025-05-15T08:23:24Z</time>
      </trkpt>
      <trkpt lat="42.62405700981617" lon="2.42701300419867">
        <ele>335.63999999999999</ele>
        <time>2025-05-15T08:23:25Z</time>
      </trkpt>
      <trkpt lat="42.623996995389462" lon="2.427047034725547">
        <ele>336.12</ele>
        <time>2025-05-15T08:23:26Z</time>
      </trkpt>
      <trkpt lat="42.623906973749399" lon="2.42709900252521">
        <ele>337.07999999999998</ele>
        <time>2025-05-15T08:23:27Z</time>
      </trkpt>
      <trkpt lat="42.623870009556413" lon="2.427153987810016">
        <ele>338.04000000000002</ele>
        <time>2025-05-15T08:23:28Z</time>
      </trkpt>
      <trkpt lat="42.623820975422859" lon="2.427274016663432">
        <ele>338.51999999999998</ele>
        <time>2025-05-15T08:23:29Z</time>
      </trkpt>
      <trkpt lat="42.623820975422859" lon="2.427378036081791">
        <ele>338.51999999999998</ele>
        <time>2025-05-15T08:23:30Z</time>
      </trkpt>
      <trkpt lat="42.623869003728032" lon="2.427521031349897">
        <ele>338.51999999999998</ele>
        <time>2025-05-15T08:23:31Z</time>
      </trkpt>
      <trkpt lat="42.623906973749399" lon="2.42763502523303">
        <ele>338.51999999999998</ele>
        <time>2025-05-15T08:23:32Z</time>
      </trkpt>
      <trkpt lat="42.623933963477612" lon="2.427800986915827">
        <ele>338.51999999999998</ele>
        <time>2025-05-15T08:23:33Z</time>
      </trkpt>
      <trkpt lat="42.623961037024856" lon="2.427963009104133">
        <ele>338.51999999999998</ele>
        <time>2025-05-15T08:23:34Z</time>
      </trkpt>
      <trkpt lat="42.623991966247559" lon="2.42815000936389">
        <ele>338.51999999999998</ele>
        <time>2025-05-15T08:23:35Z</time>
      </trkpt>
      <trkpt lat="42.623980985954404" lon="2.42834497243166">
        <ele>338.51999999999998</ele>
        <time>2025-05-15T08:23:36Z</time>
      </trkpt>
      <trkpt lat="42.623849976807833" lon="2.430296028032899">
        <ele>336.60000000000002</ele>
        <time>2025-05-15T08:23:44Z</time>
      </trkpt>
      <trkpt lat="42.623677980154753" lon="2.432594010606408">
        <ele>335.16000000000003</ele>
        <time>2025-05-15T08:23:52Z</time>
      </trkpt>
      <trkpt lat="42.623276989907026" lon="2.435141019523144">
        <ele>334.68000000000001</ele>
        <time>2025-05-15T08:24:01Z</time>
      </trkpt>
      <trkpt lat="42.622878011316061" lon="2.437449982389808">
        <ele>341.41000000000003</ele>
        <time>2025-05-15T08:24:10Z</time>
      </trkpt>
      <trkpt lat="42.622690005227923" lon="2.438526973128319">
        <ele>343.32999999999998</ele>
        <time>2025-05-15T08:24:16Z</time>
      </trkpt>
      <trkpt lat="42.62266200967133" lon="2.438685977831483">
        <ele>343.32999999999998</ele>
        <time>2025-05-15T08:24:17Z</time>
      </trkpt>
      <trkpt lat="42.622646000236273" lon="2.438735011965036">
        <ele>343.81</ele>
        <time>2025-05-15T08:24:18Z</time>
      </trkpt>
      <trkpt lat="42.622485989704728" lon="2.438855962827802">
        <ele>344.76999999999998</ele>
        <time>2025-05-15T08:24:20Z</time>
      </trkpt>
      <trkpt lat="42.622478026896715" lon="2.438952019438148">
        <ele>344.76999999999998</ele>
        <time>2025-05-15T08:24:21Z</time>
      </trkpt>
      <trkpt lat="42.62246897444129" lon="2.439071964472532">
        <ele>344.76999999999998</ele>
        <time>2025-05-15T08:24:22Z</time>
      </trkpt>
      <trkpt lat="42.62251197360456" lon="2.439157962799072">
        <ele>344.29000000000002</ele>
        <time>2025-05-15T08:24:23Z</time>
      </trkpt>
      <trkpt lat="42.622643988579512" lon="2.439213031902909">
        <ele>344.29000000000002</ele>
        <time>2025-05-15T08:24:24Z</time>
      </trkpt>
      <trkpt lat="42.622710037976503" lon="2.439469015225768">
        <ele>343.32999999999998</ele>
        <time>2025-05-15T08:24:26Z</time>
      </trkpt>
      <trkpt lat="42.623164001852274" lon="2.440900979563594">
        <ele>339.95999999999998</ele>
        <time>2025-05-15T08:24:34Z</time>
      </trkpt>
      <trkpt lat="42.623740006238222" lon="2.442584987729788">
        <ele>337.56</ele>
        <time>2025-05-15T08:24:41Z</time>
      </trkpt>
      <trkpt lat="42.62487499974668" lon="2.445902964100242">
        <ele>333.70999999999998</ele>
        <time>2025-05-15T08:24:54Z</time>
      </trkpt>
      <trkpt lat="42.625860963016748" lon="2.44862699881196">
        <ele>330.35000000000002</ele>
        <time>2025-05-15T08:25:05Z</time>
      </trkpt>
      <trkpt lat="42.625988032668829" lon="2.448835037648678">
        <ele>329.87</ele>
        <time>2025-05-15T08:25:06Z</time>
      </trkpt>
      <trkpt lat="42.626139996573329" lon="2.449022959917784">
        <ele>329.87</ele>
        <time>2025-05-15T08:25:07Z</time>
      </trkpt>
      <trkpt lat="42.6262900326401" lon="2.449208032339811">
        <ele>329.38999999999999</ele>
        <time>2025-05-15T08:25:08Z</time>
      </trkpt>
      <trkpt lat="42.626451971009374" lon="2.449372988194227">
        <ele>328.43000000000001</ele>
        <time>2025-05-15T08:25:09Z</time>
      </trkpt>
      <trkpt lat="42.627114979550242" lon="2.4500219989568">
        <ele>326.5</ele>
        <time>2025-05-15T08:25:13Z</time>
      </trkpt>
      <trkpt lat="42.627255041152239" lon="2.450229031965137">
        <ele>325.54000000000002</ele>
        <time>2025-05-15T08:25:14Z</time>
      </trkpt>
      <trkpt lat="42.62850696220994" lon="2.452330961823463">
        <ele>321.22000000000003</ele>
        <time>2025-05-15T08:25:24Z</time>
      </trkpt>
      <trkpt lat="42.629655031487346" lon="2.454333985224366">
        <ele>319.30000000000001</ele>
        <time>2025-05-15T08:25:34Z</time>
      </trkpt>
      <trkpt lat="42.630612999200821" lon="2.456043977290392">
        <ele>314.00999999999999</ele>
        <time>2025-05-15T08:25:43Z</time>
      </trkpt>
      <trkpt lat="42.631480023264885" lon="2.457939963787794">
        <ele>312.08999999999997</ele>
        <time>2025-05-15T08:25:52Z</time>
      </trkpt>
      <trkpt lat="42.632317962124944" lon="2.460147002711892">
        <ele>311.12</ele>
        <time>2025-05-15T08:26:02Z</time>
      </trkpt>
      <trkpt lat="42.633480029180646" lon="2.463317038491368">
        <ele>306.31999999999999</ele>
        <time>2025-05-15T08:26:16Z</time>
      </trkpt>
      <trkpt lat="42.634442020207644" lon="2.465893970802426">
        <ele>303.43000000000001</ele>
        <time>2025-05-15T08:26:27Z</time>
      </trkpt>
      <trkpt lat="42.63555102981627" lon="2.467752993106842">
        <ele>299.11000000000001</ele>
        <time>2025-05-15T08:26:36Z</time>
      </trkpt>
      <trkpt lat="42.636709995567799" lon="2.469750987365842">
        <ele>290.45999999999998</ele>
        <time>2025-05-15T08:26:46Z</time>
      </trkpt>
      <trkpt lat="42.637910032644868" lon="2.472708038985729">
        <ele>274.58999999999997</ele>
        <time>2025-05-15T08:26:59Z</time>
      </trkpt>
      <trkpt lat="42.638994986191392" lon="2.475336017087102">
        <ele>264.5</ele>
        <time>2025-05-15T08:27:11Z</time>
      </trkpt>
      <trkpt lat="42.639858992770314" lon="2.477505002170801">
        <ele>262.57999999999998</ele>
        <time>2025-05-15T08:27:22Z</time>
      </trkpt>
      <trkpt lat="42.640734985470772" lon="2.479691002517939">
        <ele>265.45999999999998</ele>
        <time>2025-05-15T08:27:33Z</time>
      </trkpt>
      <trkpt lat="42.641171012073755" lon="2.480948036536574">
        <ele>269.31</ele>
        <time>2025-05-15T08:27:41Z</time>
      </trkpt>
      <trkpt lat="42.64120202511549" lon="2.481086002662778">
        <ele>269.79000000000002</ele>
        <time>2025-05-15T08:27:42Z</time>
      </trkpt>
      <trkpt lat="42.641538977622986" lon="2.48222996480763">
        <ele>269.79000000000002</ele>
        <time>2025-05-15T08:27:51Z</time>
      </trkpt>
      <trkpt lat="42.641576025635004" lon="2.482350999489427">
        <ele>269.31</ele>
        <time>2025-05-15T08:27:52Z</time>
      </trkpt>
      <trkpt lat="42.641646014526486" lon="2.482585022225976">
        <ele>267.86000000000001</ele>
        <time>2025-05-15T08:27:54Z</time>
      </trkpt>
      <trkpt lat="42.641679039224982" lon="2.482699016109109">
        <ele>267.38</ele>
        <time>2025-05-15T08:27:55Z</time>
      </trkpt>
      <trkpt lat="42.642036024481058" lon="2.483967030420899">
        <ele>263.54000000000002</ele>
        <time>2025-05-15T08:28:06Z</time>
      </trkpt>
      <trkpt lat="42.642066031694412" lon="2.484084041789174">
        <ele>263.06</ele>
        <time>2025-05-15T08:28:07Z</time>
      </trkpt>
      <trkpt lat="42.642371971160173" lon="2.485229009762406">
        <ele>261.62</ele>
        <time>2025-05-15T08:28:17Z</time>
      </trkpt>
      <trkpt lat="42.642404995858669" lon="2.485352978110313">
        <ele>261.13999999999999</ele>
        <time>2025-05-15T08:28:18Z</time>
      </trkpt>
      <trkpt lat="42.642788970842957" lon="2.486922992393374">
        <ele>261.62</ele>
        <time>2025-05-15T08:28:29Z</time>
      </trkpt>
      <trkpt lat="42.643185015767813" lon="2.488388987258077">
        <ele>259.69</ele>
        <time>2025-05-15T08:28:38Z</time>
      </trkpt>
      <trkpt lat="42.643664963543415" lon="2.490196963772178">
        <ele>258.73000000000002</ele>
        <time>2025-05-15T08:28:46Z</time>
      </trkpt>
      <trkpt lat="42.643949026241899" lon="2.492051962763071">
        <ele>258.25</ele>
        <time>2025-05-15T08:28:54Z</time>
      </trkpt>
      <trkpt lat="42.644057990983129" lon="2.494767028838396">
        <ele>257.29000000000002</ele>
        <time>2025-05-15T08:29:06Z</time>
      </trkpt>
      <trkpt lat="42.6441890001297" lon="2.498548021540046">
        <ele>257.29000000000002</ele>
        <time>2025-05-15T08:29:22Z</time>
      </trkpt>
      <trkpt lat="42.644249014556408" lon="2.50147900544107">
        <ele>254.88999999999999</ele>
        <time>2025-05-15T08:29:35Z</time>
      </trkpt>
      <trkpt lat="42.64425303786993" lon="2.502238992601633">
        <ele>254.88999999999999</ele>
        <time>2025-05-15T08:29:39Z</time>
      </trkpt>
      <trkpt lat="42.644184976816177" lon="2.502367990091443">
        <ele>254.88999999999999</ele>
        <time>2025-05-15T08:29:40Z</time>
      </trkpt>
      <trkpt lat="42.64414700679481" lon="2.502481983974576">
        <ele>255.37</ele>
        <time>2025-05-15T08:29:41Z</time>
      </trkpt>
      <trkpt lat="42.644092021510005" lon="2.502584997564554">
        <ele>255.37</ele>
        <time>2025-05-15T08:29:42Z</time>
      </trkpt>
      <trkpt lat="42.643999988213181" lon="2.502650963142514">
        <ele>255.84999999999999</ele>
        <time>2025-05-15T08:29:43Z</time>
      </trkpt>
      <trkpt lat="42.643896974623203" lon="2.502723969519138">
        <ele>255.84999999999999</ele>
        <time>2025-05-15T08:29:44Z</time>
      </trkpt>
      <trkpt lat="42.643783986568451" lon="2.502795970067382">
        <ele>256.81</ele>
        <time>2025-05-15T08:29:45Z</time>
      </trkpt>
      <trkpt lat="42.642485965043306" lon="2.503393013030291">
        <ele>261.62</ele>
        <time>2025-05-15T08:29:54Z</time>
      </trkpt>
      <trkpt lat="42.64234397560358" lon="2.503485968336463">
        <ele>262.10000000000002</ele>
        <time>2025-05-15T08:29:55Z</time>
      </trkpt>
      <trkpt lat="42.642211960628629" lon="2.503575989976525">
        <ele>262.57999999999998</ele>
        <time>2025-05-15T08:29:56Z</time>
      </trkpt>
      <trkpt lat="42.64208497479558" lon="2.503661988303065">
        <ele>263.06</ele>
        <time>2025-05-15T08:29:57Z</time>
      </trkpt>
      <trkpt lat="42.641953965649009" lon="2.503752009943128">
        <ele>263.54000000000002</ele>
        <time>2025-05-15T08:29:58Z</time>
      </trkpt>
      <trkpt lat="42.64180401340127" lon="2.503802971914411">
        <ele>264.01999999999998</ele>
        <time>2025-05-15T08:29:59Z</time>
      </trkpt>
      <trkpt lat="42.641640985384583" lon="2.503849994391203">
        <ele>264.98000000000002</ele>
        <time>2025-05-15T08:30:00Z</time>
      </trkpt>
      <trkpt lat="42.641468988731503" lon="2.503901962190867">
        <ele>265.45999999999998</ele>
        <time>2025-05-15T08:30:01Z</time>
      </trkpt>
      <trkpt lat="42.641303027048707" lon="2.503990978002548">
        <ele>265.94</ele>
        <time>2025-05-15T08:30:02Z</time>
      </trkpt>
      <trkpt lat="42.64113899320364" lon="2.504091979935765">
        <ele>265.94</ele>
        <time>2025-05-15T08:30:03Z</time>
      </trkpt>
      <trkpt lat="42.640986023470759" lon="2.504203040152788">
        <ele>265.94</ele>
        <time>2025-05-15T08:30:04Z</time>
      </trkpt>
      <trkpt lat="42.640844034031034" lon="2.504316028207541">
        <ele>266.42000000000002</ele>
        <time>2025-05-15T08:30:05Z</time>
      </trkpt>
      <trkpt lat="42.640703972429037" lon="2.504430022090673">
        <ele>266.42000000000002</ele>
        <time>2025-05-15T08:30:06Z</time>
      </trkpt>
      <trkpt lat="42.640545973554254" lon="2.504496993497014">
        <ele>266.89999999999998</ele>
        <time>2025-05-15T08:30:07Z</time>
      </trkpt>
      <trkpt lat="42.640398032963276" lon="2.504496993497014">
        <ele>266.89999999999998</ele>
        <time>2025-05-15T08:30:08Z</time>
      </trkpt>
      <trkpt lat="42.64025897718966" lon="2.50448701903224">
        <ele>266.89999999999998</ele>
        <time>2025-05-15T08:30:09Z</time>
      </trkpt>
      <trkpt lat="42.640116987749934" lon="2.504422981292009">
        <ele>267.38</ele>
        <time>2025-05-15T08:30:10Z</time>
      </trkpt>
      <trkpt lat="42.639965023845434" lon="2.504352992400527">
        <ele>267.86000000000001</ele>
        <time>2025-05-15T08:30:11Z</time>
      </trkpt>
      <trkpt lat="42.638470027595758" lon="2.503786040470004">
        <ele>271.70999999999998</ele>
        <time>2025-05-15T08:30:20Z</time>
      </trkpt>
      <trkpt lat="42.637193966656923" lon="2.503294022753835">
        <ele>274.58999999999997</ele>
        <time>2025-05-15T08:30:28Z</time>
      </trkpt>
      <trkpt lat="42.637048037722707" lon="2.503252029418945">
        <ele>274.58999999999997</ele>
        <time>2025-05-15T08:30:29Z</time>
      </trkpt>
      <trkpt lat="42.636903030797839" lon="2.503167036920786">
        <ele>275.06999999999999</ele>
        <time>2025-05-15T08:30:30Z</time>
      </trkpt>
      <trkpt lat="42.636767998337746" lon="2.50304700806737">
        <ele>275.06999999999999</ele>
        <time>2025-05-15T08:30:31Z</time>
      </trkpt>
      <trkpt lat="42.636259971186519" lon="2.502523977309465">
        <ele>275.56</ele>
        <time>2025-05-15T08:30:35Z</time>
      </trkpt>
      <trkpt lat="42.636162992566824" lon="2.502387017011643">
        <ele>276.04000000000002</ele>
        <time>2025-05-15T08:30:36Z</time>
      </trkpt>
      <trkpt lat="42.636069031432271" lon="2.502263970673084">
        <ele>276.04000000000002</ele>
        <time>2025-05-15T08:30:37Z</time>
      </trkpt>
      <trkpt lat="42.63598202727735" lon="2.502155005931854">
        <ele>276.51999999999998</ele>
        <time>2025-05-15T08:30:38Z</time>
      </trkpt>
      <trkpt lat="42.635867027565837" lon="2.502089040353894">
        <ele>277</ele>
        <time>2025-05-15T08:30:39Z</time>
      </trkpt>
      <trkpt lat="42.635737024247646" lon="2.502066995948553">
        <ele>277.48000000000002</ele>
        <time>2025-05-15T08:30:40Z</time>
      </trkpt>
      <trkpt lat="42.635588999837637" lon="2.50205903314054">
        <ele>277.95999999999998</ele>
        <time>2025-05-15T08:30:41Z</time>
      </trkpt>
      <trkpt lat="42.635271996259689" lon="2.502073030918837">
        <ele>278.92000000000002</ele>
        <time>2025-05-15T08:30:43Z</time>
      </trkpt>
      <trkpt lat="42.634975025430322" lon="2.502122987061739">
        <ele>278.92000000000002</ele>
        <time>2025-05-15T08:30:45Z</time>
      </trkpt>
      <trkpt lat="42.63482297770679" lon="2.502111000940204">
        <ele>278.92000000000002</ele>
        <time>2025-05-15T08:30:46Z</time>
      </trkpt>
      <trkpt lat="42.634666990488768" lon="2.502054003998637">
        <ele>278.92000000000002</ele>
        <time>2025-05-15T08:30:47Z</time>
      </trkpt>
      <trkpt lat="42.634185031056404" lon="2.501878989860416">
        <ele>278.92000000000002</ele>
        <time>2025-05-15T08:30:50Z</time>
      </trkpt>
      <trkpt lat="42.634044969454408" lon="2.50175803899765">
        <ele>279.39999999999998</ele>
        <time>2025-05-15T08:30:51Z</time>
      </trkpt>
      <trkpt lat="42.63389996252954" lon="2.501632981002331">
        <ele>279.88</ele>
        <time>2025-05-15T08:30:52Z</time>
      </trkpt>
      <trkpt lat="42.633751016110182" lon="2.501503983512521">
        <ele>280.36000000000001</ele>
        <time>2025-05-15T08:30:53Z</time>
      </trkpt>
      <trkpt lat="42.63359896838665" lon="2.50137297436595">
        <ele>280.83999999999997</ele>
        <time>2025-05-15T08:30:54Z</time>
      </trkpt>
      <trkpt lat="42.632426004856825" lon="2.500395979732275">
        <ele>282.27999999999997</ele>
        <time>2025-05-15T08:31:02Z</time>
      </trkpt>
      <trkpt lat="42.632317962124944" lon="2.50027603469789">
        <ele>281.80000000000001</ele>
        <time>2025-05-15T08:31:03Z</time>
      </trkpt>
      <trkpt lat="42.632198017090559" lon="2.50019003637135">
        <ele>281.31999999999999</ele>
        <time>2025-05-15T08:31:04Z</time>
      </trkpt>
      <trkpt lat="42.632057033479214" lon="2.500150976702571">
        <ele>280.83999999999997</ele>
        <time>2025-05-15T08:31:05Z</time>
      </trkpt>
      <trkpt lat="42.631885958835483" lon="2.50014896504581">
        <ele>280.36000000000001</ele>
        <time>2025-05-15T08:31:06Z</time>
      </trkpt>
      <trkpt lat="42.631703987717628" lon="2.500161034986377">
        <ele>279.39999999999998</ele>
        <time>2025-05-15T08:31:07Z</time>
      </trkpt>
      <trkpt lat="42.631035028025508" lon="2.500199005007744">
        <ele>275.56</ele>
        <time>2025-05-15T08:31:11Z</time>
      </trkpt>
      <trkpt lat="42.630862025544047" lon="2.500139996409416">
        <ele>275.06999999999999</ele>
        <time>2025-05-15T08:31:12Z</time>
      </trkpt>
      <trkpt lat="42.62977397069335" lon="2.499764990061522">
        <ele>273.14999999999998</ele>
        <time>2025-05-15T08:31:18Z</time>
      </trkpt>
      <trkpt lat="42.629167959094048" lon="2.499557035043836">
        <ele>268.82999999999998</ele>
        <time>2025-05-15T08:31:23Z</time>
      </trkpt>
      <trkpt lat="42.628880962729454" lon="2.499483022838831">
        <ele>266.89999999999998</ele>
        <time>2025-05-15T08:31:26Z</time>
      </trkpt>
      <trkpt lat="42.628765963017941" lon="2.499459972605109">
        <ele>266.42000000000002</ele>
        <time>2025-05-15T08:31:27Z</time>
      </trkpt>
      <trkpt lat="42.627714034169912" lon="2.499250005930662">
        <ele>266.89999999999998</ele>
        <time>2025-05-15T08:31:35Z</time>
      </trkpt>
      <trkpt lat="42.627214975655079" lon="2.499197032302618">
        <ele>266.89999999999998</ele>
        <time>2025-05-15T08:31:39Z</time>
      </trkpt>
      <trkpt lat="42.627077009528875" lon="2.499221004545689">
        <ele>266.89999999999998</ele>
        <time>2025-05-15T08:31:40Z</time>
      </trkpt>
      <trkpt lat="42.626947006210685" lon="2.499268027022481">
        <ele>266.89999999999998</ele>
        <time>2025-05-15T08:31:41Z</time>
      </trkpt>
      <trkpt lat="42.626801999285817" lon="2.499346984550357">
        <ele>267.38</ele>
        <time>2025-05-15T08:31:42Z</time>
      </trkpt>
      <trkpt lat="42.62667803093791" lon="2.499465001747012">
        <ele>267.38</ele>
        <time>2025-05-15T08:31:43Z</time>
      </trkpt>
      <trkpt lat="42.625664994120598" lon="2.500421041622758">
        <ele>268.82999999999998</ele>
        <time>2025-05-15T08:31:50Z</time>
      </trkpt>
      <trkpt lat="42.624925961717963" lon="2.50092102214694">
        <ele>272.19</ele>
        <time>2025-05-15T08:31:55Z</time>
      </trkpt>
      <trkpt lat="42.624771986156702" lon="2.50096402131021">
        <ele>272.67000000000002</ele>
        <time>2025-05-15T08:31:56Z</time>
      </trkpt>
      <trkpt lat="42.62463703751564" lon="2.501001991331577">
        <ele>273.14999999999998</ele>
        <time>2025-05-15T08:31:57Z</time>
      </trkpt>
      <trkpt lat="42.624449031427503" lon="2.501094024628401">
        <ele>273.63</ele>
        <time>2025-05-15T08:31:59Z</time>
      </trkpt>
      <trkpt lat="42.624389017000794" lon="2.501129982993007">
        <ele>274.11000000000001</ele>
        <time>2025-05-15T08:32:00Z</time>
      </trkpt>
      <trkpt lat="42.624352974817157" lon="2.501181028783321">
        <ele>274.58999999999997</ele>
        <time>2025-05-15T08:32:01Z</time>
      </trkpt>
      <trkpt lat="42.624340988695621" lon="2.5012650154531">
        <ele>274.58999999999997</ele>
        <time>2025-05-15T08:32:02Z</time>
      </trkpt>
      <trkpt lat="42.624325985088944" lon="2.50137398019433">
        <ele>275.06999999999999</ele>
        <time>2025-05-15T08:32:03Z</time>
      </trkpt>
      <trkpt lat="42.624308969825506" lon="2.501500966027379">
        <ele>275.56</ele>
        <time>2025-05-15T08:32:04Z</time>
      </trkpt>
      <trkpt lat="42.624290026724339" lon="2.501635998487473">
        <ele>275.56</ele>
        <time>2025-05-15T08:32:05Z</time>
      </trkpt>
      <trkpt lat="42.624260019510984" lon="2.501789974048734">
        <ele>275.56</ele>
        <time>2025-05-15T08:32:06Z</time>
      </trkpt>
      <trkpt lat="42.62418600730598" lon="2.501915032044053">
        <ele>276.04000000000002</ele>
        <time>2025-05-15T08:32:07Z</time>
      </trkpt>
      <trkpt lat="42.624105960130692" lon="2.502050986513495">
        <ele>276.51999999999998</ele>
        <time>2025-05-15T08:32:08Z</time>
      </trkpt>
      <trkpt lat="42.623683009296656" lon="2.502613998949528">
        <ele>276.51999999999998</ele>
        <time>2025-05-15T08:32:13Z</time>
      </trkpt>
      <trkpt lat="42.62360698543489" lon="2.502676025032997">
        <ele>277</ele>
        <time>2025-05-15T08:32:14Z</time>
      </trkpt>
      <trkpt lat="42.623509000986814" lon="2.502684993669391">
        <ele>277</ele>
        <time>2025-05-15T08:32:15Z</time>
      </trkpt>
      <trkpt lat="42.623403975740075" lon="2.502672001719475">
        <ele>277</ele>
        <time>2025-05-15T08:32:16Z</time>
      </trkpt>
      <trkpt lat="42.623300962150097" lon="2.502659009769559">
        <ele>277.48000000000002</ele>
        <time>2025-05-15T08:32:17Z</time>
      </trkpt>
      <trkpt lat="42.623210018500686" lon="2.502653980627656">
        <ele>277.48000000000002</ele>
        <time>2025-05-15T08:32:18Z</time>
      </trkpt>
      <trkpt lat="42.623101975768805" lon="2.502664960920811">
        <ele>277.48000000000002</ele>
        <time>2025-05-15T08:32:19Z</time>
      </trkpt>
      <trkpt lat="42.622977001592517" lon="2.502693040296435">
        <ele>277.48000000000002</ele>
        <time>2025-05-15T08:32:20Z</time>
      </trkpt>
      <trkpt lat="42.622322039678693" lon="2.503023035824299">
        <ele>279.39999999999998</ele>
        <time>2025-05-15T08:32:25Z</time>
      </trkpt>
      <trkpt lat="42.622229000553489" lon="2.503137029707432">
        <ele>279.39999999999998</ele>
        <time>2025-05-15T08:32:26Z</time>
      </trkpt>
      <trkpt lat="42.622177032753825" lon="2.503309026360512">
        <ele>279.88</ele>
        <time>2025-05-15T08:32:27Z</time>
      </trkpt>
      <trkpt lat="42.621782999485731" lon="2.504827994853258">
        <ele>281.31999999999999</ele>
        <time>2025-05-15T08:32:34Z</time>
      </trkpt>
      <trkpt lat="42.621612008661032" lon="2.505397964268923">
        <ele>281.31999999999999</ele>
        <time>2025-05-15T08:32:37Z</time>
      </trkpt>
      <trkpt lat="42.621453003957868" lon="2.50577799975872">
        <ele>281.80000000000001</ele>
        <time>2025-05-15T08:32:39Z</time>
      </trkpt>
      <trkpt lat="42.621293999254704" lon="2.506158035248518">
        <ele>282.76999999999998</ele>
        <time>2025-05-15T08:32:41Z</time>
      </trkpt>
      <trkpt lat="42.621227027848363" lon="2.506284015253186">
        <ele>283.73000000000002</ele>
        <time>2025-05-15T08:32:42Z</time>
      </trkpt>
      <trkpt lat="42.621154021471739" lon="2.506412006914616">
        <ele>284.20999999999998</ele>
        <time>2025-05-15T08:32:43Z</time>
      </trkpt>
      <trkpt lat="42.620923016220331" lon="2.506604958325625">
        <ele>285.64999999999998</ele>
        <time>2025-05-15T08:32:45Z</time>
      </trkpt>
      <trkpt lat="42.619744017720222" lon="2.507550017908216">
        <ele>289.00999999999999</ele>
        <time>2025-05-15T08:32:53Z</time>
      </trkpt>
      <trkpt lat="42.618995010852814" lon="2.508055027574301">
        <ele>293.33999999999997</ele>
        <time>2025-05-15T08:32:59Z</time>
      </trkpt>
      <trkpt lat="42.618826031684875" lon="2.508169021457434">
        <ele>293.33999999999997</ele>
        <time>2025-05-15T08:33:01Z</time>
      </trkpt>
      <trkpt lat="42.618746990337968" lon="2.508215960115194">
        <ele>293.33999999999997</ele>
        <time>2025-05-15T08:33:02Z</time>
      </trkpt>
      <trkpt lat="42.617864962667227" lon="2.50861301086843">
        <ele>294.30000000000001</ele>
        <time>2025-05-15T08:33:11Z</time>
      </trkpt>
      <trkpt lat="42.617052001878619" lon="2.50921499915421">
        <ele>294.30000000000001</ele>
        <time>2025-05-15T08:33:19Z</time>
      </trkpt>
      <trkpt lat="42.616969021037221" lon="2.509282976388931">
        <ele>294.30000000000001</ele>
        <time>2025-05-15T08:33:20Z</time>
      </trkpt>
      <trkpt lat="42.616801969707012" lon="2.509424965828657">
        <ele>293.81999999999999</ele>
        <time>2025-05-15T08:33:22Z</time>
      </trkpt>
      <trkpt lat="42.616717983037233" lon="2.509497972205281">
        <ele>293.33999999999997</ele>
        <time>2025-05-15T08:33:23Z</time>
      </trkpt>
      <trkpt lat="42.616638019680977" lon="2.509567039087415">
        <ele>293.33999999999997</ele>
        <time>2025-05-15T08:33:24Z</time>
      </trkpt>
      <trkpt lat="42.616393016651273" lon="2.50992301851511">
        <ele>293.33999999999997</ele>
        <time>2025-05-15T08:33:28Z</time>
      </trkpt>
      <trkpt lat="42.616350017488003" lon="2.510029971599579">
        <ele>293.81999999999999</ele>
        <time>2025-05-15T08:33:29Z</time>
      </trkpt>
      <trkpt lat="42.61623996309936" lon="2.510325014591217">
        <ele>293.81999999999999</ele>
        <time>2025-05-15T08:33:32Z</time>
      </trkpt>
      <trkpt lat="42.616221019998193" lon="2.510429034009576">
        <ele>294.30000000000001</ele>
        <time>2025-05-15T08:33:33Z</time>
      </trkpt>
      <trkpt lat="42.616186989471316" lon="2.510607987642288">
        <ele>293.33999999999997</ele>
        <time>2025-05-15T08:33:35Z</time>
      </trkpt>
      <trkpt lat="42.616060003638268" lon="2.510980982333422">
        <ele>291.42000000000002</ele>
        <time>2025-05-15T08:33:42Z</time>
      </trkpt>
      <trkpt lat="42.616032008081675" lon="2.511019958183169">
        <ele>291.42000000000002</ele>
        <time>2025-05-15T08:33:43Z</time>
      </trkpt>
      <trkpt lat="42.615992026403546" lon="2.51102096401155">
        <ele>291.42000000000002</ele>
        <time>2025-05-15T08:33:44Z</time>
      </trkpt>
      <trkpt lat="42.615884989500046" lon="2.511024987325072">
        <ele>291.42000000000002</ele>
        <time>2025-05-15T08:33:46Z</time>
      </trkpt>
      <trkpt lat="42.615422978997231" lon="2.51104099676013">
        <ele>293.33999999999997</ele>
        <time>2025-05-15T08:33:54Z</time>
      </trkpt>
      <trkpt lat="42.615375034511089" lon="2.51104099676013">
        <ele>293.81999999999999</ele>
        <time>2025-05-15T08:33:55Z</time>
      </trkpt>
      <trkpt lat="42.615220975130796" lon="2.511100005358458">
        <ele>294.30000000000001</ele>
        <time>2025-05-15T08:33:58Z</time>
      </trkpt>
      <trkpt lat="42.615194991230965" lon="2.511183992028236">
        <ele>294.30000000000001</ele>
        <time>2025-05-15T08:33:59Z</time>
      </trkpt>
      <trkpt lat="42.615194991230965" lon="2.51121299341321">
        <ele>293.81999999999999</ele>
        <time>2025-05-15T08:34:00Z</time>
      </trkpt>
      <trkpt lat="42.615224998444319" lon="2.511254986748099">
        <ele>294.30000000000001</ele>
        <time>2025-05-15T08:34:01Z</time>
      </trkpt>
      <trkpt lat="42.615244025364518" lon="2.511281976476312">
        <ele>294.77999999999997</ele>
        <time>2025-05-15T08:34:02Z</time>
      </trkpt>
      <trkpt lat="42.615269003435969" lon="2.511318018659949">
        <ele>295.25999999999999</ele>
        <time>2025-05-15T08:34:03Z</time>
      </trkpt>
      <trkpt lat="42.615293981507421" lon="2.511353977024555">
        <ele>295.74000000000001</ele>
        <time>2025-05-15T08:34:04Z</time>
      </trkpt>
      <trkpt lat="42.615320971235633" lon="2.511391025036573">
        <ele>296.22000000000003</ele>
        <time>2025-05-15T08:34:05Z</time>
      </trkpt>
      <trkpt lat="42.615347038954496" lon="2.51142798922956">
        <ele>296.22000000000003</ele>
        <time>2025-05-15T08:34:06Z</time>
      </trkpt>
      <trkpt lat="42.615374028682709" lon="2.511466965079308">
        <ele>296.22000000000003</ele>
        <time>2025-05-15T08:34:07Z</time>
      </trkpt>
      <trkpt lat="42.615430019795895" lon="2.511546006426215">
        <ele>296.69999999999999</ele>
        <time>2025-05-15T08:34:09Z</time>
      </trkpt>
      <trkpt lat="42.615461032837629" lon="2.511578025296331">
        <ele>297.18000000000001</ele>
        <time>2025-05-15T08:34:10Z</time>
      </trkpt>
      <trkpt lat="42.615497997030616" lon="2.511578025296331">
        <ele>297.18000000000001</ele>
        <time>2025-05-15T08:34:11Z</time>
      </trkpt>
      <trkpt lat="42.615542002022266" lon="2.511576013639569">
        <ele>297.18000000000001</ele>
        <time>2025-05-15T08:34:12Z</time>
      </trkpt>
      <trkpt lat="42.615576032549143" lon="2.511558998376131">
        <ele>297.67000000000002</ele>
        <time>2025-05-15T08:34:13Z</time>
      </trkpt>
      <trkpt lat="42.615605033934116" lon="2.511543994769454">
        <ele>297.67000000000002</ele>
        <time>2025-05-15T08:34:14Z</time>
      </trkpt>
      <trkpt lat="42.615635963156819" lon="2.511528991162777">
        <ele>298.14999999999998</ele>
        <time>2025-05-15T08:34:15Z</time>
      </trkpt>
      <trkpt lat="42.615678962320089" lon="2.511507030576468">
        <ele>298.14999999999998</ele>
        <time>2025-05-15T08:34:16Z</time>
      </trkpt>
      <trkpt lat="42.615709975361824" lon="2.511492026969791">
        <ele>298.63</ele>
        <time>2025-05-15T08:34:17Z</time>
      </trkpt>
      <trkpt lat="42.615736965090036" lon="2.511527985334396">
        <ele>298.63</ele>
        <time>2025-05-15T08:34:18Z</time>
      </trkpt>
      <trkpt lat="42.615770995616913" lon="2.511572996154428">
        <ele>298.63</ele>
        <time>2025-05-15T08:34:19Z</time>
      </trkpt>
      <trkpt lat="42.615781975910068" lon="2.511627981439233">
        <ele>298.63</ele>
        <time>2025-05-15T08:34:20Z</time>
      </trkpt>
      <trkpt lat="42.615793962031603" lon="2.511695036664605">
        <ele>299.11000000000001</ele>
        <time>2025-05-15T08:34:21Z</time>
      </trkpt>
      <trkpt lat="42.615795973688364" lon="2.511752033606172">
        <ele>299.11000000000001</ele>
        <time>2025-05-15T08:34:22Z</time>
      </trkpt>
      <trkpt lat="42.615799997001886" lon="2.511825039982796">
        <ele>299.11000000000001</ele>
        <time>2025-05-15T08:34:23Z</time>
      </trkpt>
      <trkpt lat="42.615838972851634" lon="2.51192101277411">
        <ele>299.58999999999997</ele>
        <time>2025-05-15T08:34:24Z</time>
      </trkpt>
      <trkpt lat="42.615879960358143" lon="2.511951019987464">
        <ele>300.06999999999999</ele>
        <time>2025-05-15T08:34:25Z</time>
      </trkpt>
      <trkpt lat="42.615927988663316" lon="2.511984966695309">
        <ele>300.55000000000001</ele>
        <time>2025-05-15T08:34:26Z</time>
      </trkpt>
      <trkpt lat="42.61597802862525" lon="2.512020003050566">
        <ele>301.02999999999997</ele>
        <time>2025-05-15T08:34:27Z</time>
      </trkpt>
      <trkpt lat="42.616041982546449" lon="2.512036012485623">
        <ele>301.50999999999999</ele>
        <time>2025-05-15T08:34:28Z</time>
      </trkpt>
      <trkpt lat="42.616103002801538" lon="2.512045986950398">
        <ele>301.99000000000001</ele>
        <time>2025-05-15T08:34:29Z</time>
      </trkpt>
      <trkpt lat="42.616168968379498" lon="2.512055961415172">
        <ele>302.47000000000003</ele>
        <time>2025-05-15T08:34:30Z</time>
      </trkpt>
      <trkpt lat="42.616305006667972" lon="2.512061996385455">
        <ele>303.43000000000001</ele>
        <time>2025-05-15T08:34:32Z</time>
      </trkpt>
      <trkpt lat="42.61636502109468" lon="2.512049004435539">
        <ele>303.91000000000003</ele>
        <time>2025-05-15T08:34:33Z</time>
      </trkpt>
      <trkpt lat="42.616421012207866" lon="2.512036012485623">
        <ele>304.38999999999999</ele>
        <time>2025-05-15T08:34:34Z</time>
      </trkpt>
      <trkpt lat="42.616471974179149" lon="2.512024026364088">
        <ele>304.88</ele>
        <time>2025-05-15T08:34:35Z</time>
      </trkpt>
      <trkpt lat="42.616527965292335" lon="2.512010028585792">
        <ele>305.36000000000001</ele>
        <time>2025-05-15T08:34:36Z</time>
      </trkpt>
      <trkpt lat="42.616586973890662" lon="2.511997036635876">
        <ele>306.31999999999999</ele>
        <time>2025-05-15T08:34:37Z</time>
      </trkpt>
      <trkpt lat="42.61664598248899" lon="2.511983038857579">
        <ele>306.80000000000001</ele>
        <time>2025-05-15T08:34:38Z</time>
      </trkpt>
      <trkpt lat="42.616702979430556" lon="2.511969963088632">
        <ele>307.75999999999999</ele>
        <time>2025-05-15T08:34:39Z</time>
      </trkpt>
      <trkpt lat="42.616932978853583" lon="2.511910032480955">
        <ele>310.63999999999999</ele>
        <time>2025-05-15T08:34:43Z</time>
      </trkpt>
      <trkpt lat="42.616997016593814" lon="2.51187801361084">
        <ele>311.12</ele>
        <time>2025-05-15T08:34:44Z</time>
      </trkpt>
      <trkpt lat="42.617083014920354" lon="2.51183501444757">
        <ele>312.08999999999997</ele>
        <time>2025-05-15T08:34:45Z</time>
      </trkpt>
      <trkpt lat="42.617116961628199" lon="2.51179302111268">
        <ele>313.05000000000001</ele>
        <time>2025-05-15T08:34:46Z</time>
      </trkpt>
      <trkpt lat="42.617165995761752" lon="2.511732000857592">
        <ele>314.49000000000001</ele>
        <time>2025-05-15T08:34:47Z</time>
      </trkpt>
      <trkpt lat="42.617213018238544" lon="2.511671986430883">
        <ele>315.44999999999999</ele>
        <time>2025-05-15T08:34:48Z</time>
      </trkpt>
      <trkpt lat="42.617255011573434" lon="2.5116210244596">
        <ele>316.88999999999999</ele>
        <time>2025-05-15T08:34:49Z</time>
      </trkpt>
      <trkpt lat="42.617306979373097" lon="2.511585988104343">
        <ele>317.85000000000002</ele>
        <time>2025-05-15T08:34:50Z</time>
      </trkpt>
      <trkpt lat="42.617360036820173" lon="2.511550029739738">
        <ele>318.32999999999998</ele>
        <time>2025-05-15T08:34:51Z</time>
      </trkpt>
      <trkpt lat="42.61741703376174" lon="2.511535026133061">
        <ele>319.30000000000001</ele>
        <time>2025-05-15T08:34:52Z</time>
      </trkpt>
      <trkpt lat="42.617477970197797" lon="2.511535026133061">
        <ele>319.77999999999997</ele>
        <time>2025-05-15T08:34:53Z</time>
      </trkpt>
      <trkpt lat="42.61754896491766" lon="2.511548018082976">
        <ele>319.77999999999997</ele>
        <time>2025-05-15T08:34:54Z</time>
      </trkpt>
      <trkpt lat="42.617618031799793" lon="2.511603003367782">
        <ele>320.74000000000001</ele>
        <time>2025-05-15T08:34:55Z</time>
      </trkpt>
      <trkpt lat="42.617695983499289" lon="2.511667041108012">
        <ele>321.69999999999999</ele>
        <time>2025-05-15T08:34:56Z</time>
      </trkpt>
      <trkpt lat="42.617777036502957" lon="2.511753961443901">
        <ele>322.66000000000003</ele>
        <time>2025-05-15T08:34:57Z</time>
      </trkpt>
      <trkpt lat="42.617808971554041" lon="2.511870972812176">
        <ele>323.62</ele>
        <time>2025-05-15T08:34:58Z</time>
      </trkpt>
      <trkpt lat="42.617840990424156" lon="2.511985972523689">
        <ele>324.57999999999998</ele>
        <time>2025-05-15T08:34:59Z</time>
      </trkpt>
      <trkpt lat="42.618049029260874" lon="2.51267203129828">
        <ele>330.35000000000002</ele>
        <time>2025-05-15T08:35:05Z</time>
      </trkpt>
      <trkpt lat="42.618123963475227" lon="2.512746965512633">
        <ele>330.82999999999998</ele>
        <time>2025-05-15T08:35:06Z</time>
      </trkpt>
      <trkpt lat="42.6181910187006" lon="2.512814020738006">
        <ele>331.79000000000002</ele>
        <time>2025-05-15T08:35:07Z</time>
      </trkpt>
      <trkpt lat="42.618260001763701" lon="2.512883003801107">
        <ele>332.75</ele>
        <time>2025-05-15T08:35:08Z</time>
      </trkpt>
      <trkpt lat="42.618332002311945" lon="2.512942012399435">
        <ele>333.23000000000002</ele>
        <time>2025-05-15T08:35:09Z</time>
      </trkpt>
      <trkpt lat="42.618416994810104" lon="2.512981994077563">
        <ele>333.70999999999998</ele>
        <time>2025-05-15T08:35:10Z</time>
      </trkpt>
      <trkpt lat="42.618505004793406" lon="2.513023987412453">
        <ele>334.19999999999999</ele>
        <time>2025-05-15T08:35:11Z</time>
      </trkpt>
      <trkpt lat="42.619512006640434" lon="2.513568978756666">
        <ele>336.60000000000002</ele>
        <time>2025-05-15T08:35:21Z</time>
      </trkpt>
      <trkpt lat="42.619615020230412" lon="2.513637961819768">
        <ele>336.60000000000002</ele>
        <time>2025-05-15T08:35:22Z</time>
      </trkpt>
      <trkpt lat="42.619737982749939" lon="2.513657994568348">
        <ele>336.60000000000002</ele>
        <time>2025-05-15T08:35:23Z</time>
      </trkpt>
      <trkpt lat="42.619850970804691" lon="2.513677021488547">
        <ele>336.60000000000002</ele>
        <time>2025-05-15T08:35:24Z</time>
      </trkpt>
      <trkpt lat="42.620001006871462" lon="2.513701999559999">
        <ele>337.07999999999998</ele>
        <time>2025-05-15T08:35:25Z</time>
      </trkpt>
      <trkpt lat="42.620099997147918" lon="2.513678027316928">
        <ele>336.60000000000002</ele>
        <time>2025-05-15T08:35:26Z</time>
      </trkpt>
      <trkpt lat="42.620367966592312" lon="2.513613989576697">
        <ele>335.63999999999999</ele>
        <time>2025-05-15T08:35:28Z</time>
      </trkpt>
      <trkpt lat="42.620511967688799" lon="2.513579037040472">
        <ele>335.63999999999999</ele>
        <time>2025-05-15T08:35:29Z</time>
      </trkpt>
      <trkpt lat="42.620668960735202" lon="2.513610972091556">
        <ele>335.16000000000003</ele>
        <time>2025-05-15T08:35:30Z</time>
      </trkpt>
      <trkpt lat="42.620812961831689" lon="2.513652965426445">
        <ele>334.68000000000001</ele>
        <time>2025-05-15T08:35:31Z</time>
      </trkpt>
      <trkpt lat="42.620960986241698" lon="2.513696970418096">
        <ele>334.68000000000001</ele>
        <time>2025-05-15T08:35:32Z</time>
      </trkpt>
      <trkpt lat="42.622061027213931" lon="2.514024032279849">
        <ele>332.26999999999998</ele>
        <time>2025-05-15T08:35:39Z</time>
      </trkpt>
      <trkpt lat="42.622159011662006" lon="2.514109024778009">
        <ele>332.75</ele>
        <time>2025-05-15T08:35:40Z</time>
      </trkpt>
      <trkpt lat="42.622234029695392" lon="2.514179013669491">
        <ele>332.75</ele>
        <time>2025-05-15T08:35:41Z</time>
      </trkpt>
      <trkpt lat="42.622267976403236" lon="2.514299964532256">
        <ele>333.23000000000002</ele>
        <time>2025-05-15T08:35:42Z</time>
      </trkpt>
      <trkpt lat="42.622308041900396" lon="2.514444971457124">
        <ele>333.70999999999998</ele>
        <time>2025-05-15T08:35:43Z</time>
      </trkpt>
      <trkpt lat="42.622342994436622" lon="2.514618979766965">
        <ele>334.19999999999999</ele>
        <time>2025-05-15T08:35:44Z</time>
      </trkpt>
      <trkpt lat="42.622352968901396" lon="2.514812014997006">
        <ele>334.19999999999999</ele>
        <time>2025-05-15T08:35:45Z</time>
      </trkpt>
      <trkpt lat="42.622365038841963" lon="2.515019970014691">
        <ele>334.68000000000001</ele>
        <time>2025-05-15T08:35:46Z</time>
      </trkpt>
      <trkpt lat="42.622484983876348" lon="2.517264978960156">
        <ele>335.63999999999999</ele>
        <time>2025-05-15T08:35:57Z</time>
      </trkpt>
      <trkpt lat="42.622520020231605" lon="2.518107024952769">
        <ele>335.16000000000003</ele>
        <time>2025-05-15T08:36:02Z</time>
      </trkpt>
      <trkpt lat="42.622524965554476" lon="2.518223030492663">
        <ele>335.16000000000003</ele>
        <time>2025-05-15T08:36:03Z</time>
      </trkpt>
      <trkpt lat="42.622528988867998" lon="2.518311962485313">
        <ele>335.63999999999999</ele>
        <time>2025-05-15T08:36:04Z</time>
      </trkpt>
      <trkpt lat="42.622481966391206" lon="2.518417993560433">
        <ele>335.63999999999999</ele>
        <time>2025-05-15T08:36:05Z</time>
      </trkpt>
      <trkpt lat="42.622406026348472" lon="2.518442971631885">
        <ele>336.12</ele>
        <time>2025-05-15T08:36:06Z</time>
      </trkpt>
      <trkpt lat="42.622310975566506" lon="2.518473984673619">
        <ele>336.60000000000002</ele>
        <time>2025-05-15T08:36:07Z</time>
      </trkpt>
      <trkpt lat="42.622199999168515" lon="2.518510026857257">
        <ele>337.07999999999998</ele>
        <time>2025-05-15T08:36:08Z</time>
      </trkpt>
      <trkpt lat="42.621190985664725" lon="2.518815966323018">
        <ele>341.41000000000003</ele>
        <time>2025-05-15T08:36:16Z</time>
      </trkpt>
      <trkpt lat="42.619939986616373" lon="2.518832981586456">
        <ele>347.17000000000002</ele>
        <time>2025-05-15T08:36:25Z</time>
      </trkpt>
      <trkpt lat="42.618227982893586" lon="2.518970025703311">
        <ele>358.23000000000002</ele>
        <time>2025-05-15T08:36:36Z</time>
      </trkpt>
      <trkpt lat="42.618108037859201" lon="2.518988968804479">
        <ele>359.19</ele>
        <time>2025-05-15T08:36:37Z</time>
      </trkpt>
      <trkpt lat="42.618003012612462" lon="2.518975976854563">
        <ele>359.67000000000002</ele>
        <time>2025-05-15T08:36:38Z</time>
      </trkpt>
      <trkpt lat="42.617919025942683" lon="2.518888972699642">
        <ele>360.63</ele>
        <time>2025-05-15T08:36:39Z</time>
      </trkpt>
      <trkpt lat="42.617818024009466" lon="2.518785037100315">
        <ele>361.11000000000001</ele>
        <time>2025-05-15T08:36:40Z</time>
      </trkpt>
      <trkpt lat="42.617706041783094" lon="2.518669031560421">
        <ele>362.06999999999999</ele>
        <time>2025-05-15T08:36:41Z</time>
      </trkpt>
      <trkpt lat="42.616684036329389" lon="2.517586005851626">
        <ele>368.80000000000001</ele>
        <time>2025-05-15T08:36:50Z</time>
      </trkpt>
      <trkpt lat="42.616012981161475" lon="2.517247963696718">
        <ele>372.64999999999998</ele>
        <time>2025-05-15T08:36:55Z</time>
      </trkpt>
      <trkpt lat="42.615880966186523" lon="2.517218962311745">
        <ele>373.13</ele>
        <time>2025-05-15T08:36:56Z</time>
      </trkpt>
      <trkpt lat="42.615739982575178" lon="2.517202030867338">
        <ele>374.08999999999997</ele>
        <time>2025-05-15T08:36:57Z</time>
      </trkpt>
      <trkpt lat="42.61559103615582" lon="2.517209993675351">
        <ele>375.05000000000001</ele>
        <time>2025-05-15T08:36:58Z</time>
      </trkpt>
      <trkpt lat="42.615433037281036" lon="2.517218040302396">
        <ele>375.52999999999997</ele>
        <time>2025-05-15T08:36:59Z</time>
      </trkpt>
      <trkpt lat="42.615265985950828" lon="2.517251987010241">
        <ele>376.49000000000001</ele>
        <time>2025-05-15T08:37:00Z</time>
      </trkpt>
      <trkpt lat="42.613589018583298" lon="2.517653983086348">
        <ele>387.55000000000001</ele>
        <time>2025-05-15T08:37:11Z</time>
      </trkpt>
      <trkpt lat="42.613480975851417" lon="2.517667980864644">
        <ele>388.02999999999997</ele>
        <time>2025-05-15T08:37:12Z</time>
      </trkpt>
      <trkpt lat="42.613395983353257" lon="2.517627999186516">
        <ele>388.99000000000001</ele>
        <time>2025-05-15T08:37:13Z</time>
      </trkpt>
      <trkpt lat="42.613317025825381" lon="2.517571002244949">
        <ele>389.47000000000003</ele>
        <time>2025-05-15T08:37:14Z</time>
      </trkpt>
      <trkpt lat="42.613262962549925" lon="2.517491960898042">
        <ele>389.94999999999999</ele>
        <time>2025-05-15T08:37:15Z</time>
      </trkpt>
      <trkpt lat="42.613201020285487" lon="2.517387019470334">
        <ele>390.43000000000001</ele>
        <time>2025-05-15T08:37:16Z</time>
      </trkpt>
      <trkpt lat="42.612816961482167" lon="2.516717975959182">
        <ele>393.31999999999999</ele>
        <time>2025-05-15T08:37:21Z</time>
      </trkpt>
      <trkpt lat="42.612760970368981" lon="2.516550002619624">
        <ele>393.80000000000001</ele>
        <time>2025-05-15T08:37:22Z</time>
      </trkpt>
      <trkpt lat="42.612659968435764" lon="2.516245990991592">
        <ele>395.24000000000001</ele>
        <time>2025-05-15T08:37:24Z</time>
      </trkpt>
      <trkpt lat="42.612594002857804" lon="2.516125962138176">
        <ele>395.72000000000003</ele>
        <time>2025-05-15T08:37:25Z</time>
      </trkpt>
      <trkpt lat="42.611738964915276" lon="2.514960039407015">
        <ele>399.56999999999999</ele>
        <time>2025-05-15T08:37:34Z</time>
      </trkpt>
      <trkpt lat="42.611678028479218" lon="2.514813020825386">
        <ele>400.05000000000001</ele>
        <time>2025-05-15T08:37:35Z</time>
      </trkpt>
      <trkpt lat="42.611641986295581" lon="2.514639012515545">
        <ele>400.05000000000001</ele>
        <time>2025-05-15T08:37:36Z</time>
      </trkpt>
      <trkpt lat="42.611605022102594" lon="2.514461986720562">
        <ele>400.05000000000001</ele>
        <time>2025-05-15T08:37:37Z</time>
      </trkpt>
      <trkpt lat="42.611569985747337" lon="2.514296025037766">
        <ele>400.05000000000001</ele>
        <time>2025-05-15T08:37:38Z</time>
      </trkpt>
      <trkpt lat="42.611537966877222" lon="2.514142971485853">
        <ele>400.05000000000001</ele>
        <time>2025-05-15T08:37:39Z</time>
      </trkpt>
      <trkpt lat="42.611504020169377" lon="2.513981033116579">
        <ele>400.05000000000001</ele>
        <time>2025-05-15T08:37:40Z</time>
      </trkpt>
      <trkpt lat="42.611436964944005" lon="2.513851029798389">
        <ele>400.05000000000001</ele>
        <time>2025-05-15T08:37:41Z</time>
      </trkpt>
      <trkpt lat="42.611267985776067" lon="2.513526985421777">
        <ele>400.05000000000001</ele>
        <time>2025-05-15T08:37:43Z</time>
      </trkpt>
      <trkpt lat="42.610964979976416" lon="2.512944024056196">
        <ele>400.05000000000001</ele>
        <time>2025-05-15T08:37:47Z</time>
      </trkpt>
      <trkpt lat="42.610860960558057" lon="2.512860037386417">
        <ele>400.05000000000001</ele>
        <time>2025-05-15T08:37:48Z</time>
      </trkpt>
      <trkpt lat="42.610753001645207" lon="2.512799017131329">
        <ele>400.05000000000001</ele>
        <time>2025-05-15T08:37:49Z</time>
      </trkpt>
      <trkpt lat="42.610638001933694" lon="2.512734979391098">
        <ele>400.52999999999997</ele>
        <time>2025-05-15T08:37:50Z</time>
      </trkpt>
      <trkpt lat="42.610510010272264" lon="2.512688962742686">
        <ele>401.00999999999999</ele>
        <time>2025-05-15T08:37:51Z</time>
      </trkpt>
      <trkpt lat="42.610382018610835" lon="2.51265300437808">
        <ele>401.49000000000001</ele>
        <time>2025-05-15T08:37:52Z</time>
      </trkpt>
      <trkpt lat="42.609738958999515" lon="2.512401966378093">
        <ele>404.85000000000002</ele>
        <time>2025-05-15T08:37:57Z</time>
      </trkpt>
      <trkpt lat="42.609607027843595" lon="2.512313034385443">
        <ele>405.81</ele>
        <time>2025-05-15T08:37:58Z</time>
      </trkpt>
      <trkpt lat="42.609096989035606" lon="2.511956971138716">
        <ele>408.69999999999999</ele>
        <time>2025-05-15T08:38:02Z</time>
      </trkpt>
      <trkpt lat="42.608989030122757" lon="2.511831996962428">
        <ele>408.69999999999999</ele>
        <time>2025-05-15T08:38:03Z</time>
      </trkpt>
      <trkpt lat="42.60846097022295" lon="2.51116999424994">
        <ele>410.13999999999999</ele>
        <time>2025-05-15T08:38:08Z</time>
      </trkpt>
      <trkpt lat="42.608177997171879" lon="2.510650986805558">
        <ele>410.62</ele>
        <time>2025-05-15T08:38:12Z</time>
      </trkpt>
      <trkpt lat="42.608108008280396" lon="2.510592984035611">
        <ele>410.62</ele>
        <time>2025-05-15T08:38:13Z</time>
      </trkpt>
      <trkpt lat="42.608040031045675" lon="2.510571023449302">
        <ele>411.10000000000002</ele>
        <time>2025-05-15T08:38:14Z</time>
      </trkpt>
      <trkpt lat="42.607968030497432" lon="2.510583009570837">
        <ele>411.10000000000002</ele>
        <time>2025-05-15T08:38:15Z</time>
      </trkpt>
      <trkpt lat="42.607912039384246" lon="2.510605975985527">
        <ele>410.62</ele>
        <time>2025-05-15T08:38:16Z</time>
      </trkpt>
      <trkpt lat="42.607864011079073" lon="2.510689962655306">
        <ele>410.62</ele>
        <time>2025-05-15T08:38:17Z</time>
      </trkpt>
      <trkpt lat="42.607837021350861" lon="2.51078300178051">
        <ele>410.62</ele>
        <time>2025-05-15T08:38:18Z</time>
      </trkpt>
      <trkpt lat="42.607843978330493" lon="2.51089196652174">
        <ele>410.62</ele>
        <time>2025-05-15T08:38:19Z</time>
      </trkpt>
      <trkpt lat="42.607852024957538" lon="2.51101803034544">
        <ele>410.62</ele>
        <time>2025-05-15T08:38:20Z</time>
      </trkpt>
      <trkpt lat="42.607870968058705" lon="2.511312989518046">
        <ele>410.62</ele>
        <time>2025-05-15T08:38:22Z</time>
      </trkpt>
      <trkpt lat="42.607872979715466" lon="2.511466965079308">
        <ele>410.62</ele>
        <time>2025-05-15T08:38:23Z</time>
      </trkpt>
      <trkpt lat="42.607852024957538" lon="2.511635022237897">
        <ele>410.62</ele>
        <time>2025-05-15T08:38:24Z</time>
      </trkpt>
      <trkpt lat="42.607814976945519" lon="2.511810036376119">
        <ele>410.62</ele>
        <time>2025-05-15T08:38:25Z</time>
      </trkpt>
      <trkpt lat="42.607737025246024" lon="2.511960994452238">
        <ele>410.62</ele>
        <time>2025-05-15T08:38:26Z</time>
      </trkpt>
      <trkpt lat="42.607656978070736" lon="2.51211698167026">
        <ele>410.62</ele>
        <time>2025-05-15T08:38:27Z</time>
      </trkpt>
      <trkpt lat="42.60729999281466" lon="2.512704972177744">
        <ele>411.57999999999998</ele>
        <time>2025-05-15T08:38:31Z</time>
      </trkpt>
      <trkpt lat="42.606494994834065" lon="2.513539977371693">
        <ele>413.5</ele>
        <time>2025-05-15T08:38:38Z</time>
      </trkpt>
      <trkpt lat="42.606372032314539" lon="2.513593034818769">
        <ele>413.5</ele>
        <time>2025-05-15T08:38:39Z</time>
      </trkpt>
      <trkpt lat="42.606253009289503" lon="2.513643996790052">
        <ele>413.5</ele>
        <time>2025-05-15T08:38:40Z</time>
      </trkpt>
      <trkpt lat="42.60605301707983" lon="2.513729995116592">
        <ele>413.01999999999998</ele>
        <time>2025-05-15T08:38:42Z</time>
      </trkpt>
      <trkpt lat="42.605968024581671" lon="2.513766037300229">
        <ele>413.01999999999998</ele>
        <time>2025-05-15T08:38:43Z</time>
      </trkpt>
      <trkpt lat="42.605916978791356" lon="2.513852035626769">
        <ele>413.01999999999998</ele>
        <time>2025-05-15T08:38:44Z</time>
      </trkpt>
      <trkpt lat="42.605865010991693" lon="2.513940967619419">
        <ele>413.01999999999998</ele>
        <time>2025-05-15T08:38:45Z</time>
      </trkpt>
      <trkpt lat="42.605813965201378" lon="2.51402797177434">
        <ele>412.54000000000002</ele>
        <time>2025-05-15T08:38:46Z</time>
      </trkpt>
      <trkpt lat="42.605765014886856" lon="2.514111958444119">
        <ele>412.06</ele>
        <time>2025-05-15T08:38:47Z</time>
      </trkpt>
      <trkpt lat="42.605702988803387" lon="2.514160992577672">
        <ele>412.06</ele>
        <time>2025-05-15T08:38:48Z</time>
      </trkpt>
      <trkpt lat="42.60564599186182" lon="2.514195023104549">
        <ele>412.06</ele>
        <time>2025-05-15T08:38:49Z</time>
      </trkpt>
      <trkpt lat="42.60560299269855" lon="2.514158980920911">
        <ele>411.57999999999998</ele>
        <time>2025-05-15T08:38:50Z</time>
      </trkpt>
      <trkpt lat="42.605548007413745" lon="2.51411397010088">
        <ele>411.57999999999998</ele>
        <time>2025-05-15T08:38:51Z</time>
      </trkpt>
      <trkpt lat="42.605506014078856" lon="2.514053033664823">
        <ele>411.57999999999998</ele>
        <time>2025-05-15T08:38:52Z</time>
      </trkpt>
      <trkpt lat="42.605467960238457" lon="2.513939961791039">
        <ele>411.10000000000002</ele>
        <time>2025-05-15T08:38:53Z</time>
      </trkpt>
      <trkpt lat="42.605393026024103" lon="2.513671992346644">
        <ele>411.57999999999998</ele>
        <time>2025-05-15T08:38:55Z</time>
      </trkpt>
      <trkpt lat="42.605368969962001" lon="2.513534026220441">
        <ele>412.06</ele>
        <time>2025-05-15T08:38:56Z</time>
      </trkpt>
      <trkpt lat="42.60534399189055" lon="2.513397987931967">
        <ele>412.54000000000002</ele>
        <time>2025-05-15T08:38:57Z</time>
      </trkpt>
      <trkpt lat="42.60532102547586" lon="2.513265972957015">
        <ele>413.01999999999998</ele>
        <time>2025-05-15T08:38:58Z</time>
      </trkpt>
      <trkpt lat="42.605295041576028" lon="2.513142004609108">
        <ele>412.54000000000002</ele>
        <time>2025-05-15T08:38:59Z</time>
      </trkpt>
      <trkpt lat="42.605253970250487" lon="2.513010995462537">
        <ele>412.54000000000002</ele>
        <time>2025-05-15T08:39:00Z</time>
      </trkpt>
      <trkpt lat="42.60502003133297" lon="2.512268023565412">
        <ele>413.5</ele>
        <time>2025-05-15T08:39:05Z</time>
      </trkpt>
      <trkpt lat="42.604846023023129" lon="2.511714985594153">
        <ele>414.94999999999999</ele>
        <time>2025-05-15T08:39:09Z</time>
      </trkpt>
      <trkpt lat="42.60480897501111" lon="2.511598980054259">
        <ele>415.91000000000003</ele>
        <time>2025-05-15T08:39:10Z</time>
      </trkpt>
      <trkpt lat="42.604735968634486" lon="2.5115139875561">
        <ele>416.38999999999999</ele>
        <time>2025-05-15T08:39:11Z</time>
      </trkpt>
      <trkpt lat="42.60465701110661" lon="2.511437041684985">
        <ele>416.87</ele>
        <time>2025-05-15T08:39:12Z</time>
      </trkpt>
      <trkpt lat="42.604562966153026" lon="2.511390019208193">
        <ele>417.35000000000002</ele>
        <time>2025-05-15T08:39:13Z</time>
      </trkpt>
      <trkpt lat="42.604465987533331" lon="2.511373003944755">
        <ele>417.82999999999998</ele>
        <time>2025-05-15T08:39:14Z</time>
      </trkpt>
      <trkpt lat="42.604357022792101" lon="2.511397982016206">
        <ele>418.31</ele>
        <time>2025-05-15T08:39:15Z</time>
      </trkpt>
      <trkpt lat="42.604237999767065" lon="2.511423965916038">
        <ele>418.79000000000002</ele>
        <time>2025-05-15T08:39:16Z</time>
      </trkpt>
      <trkpt lat="42.604114031419158" lon="2.511452967301011">
        <ele>419.26999999999998</ele>
        <time>2025-05-15T08:39:17Z</time>
      </trkpt>
      <trkpt lat="42.603992996737361" lon="2.511499989777803">
        <ele>419.26999999999998</ele>
        <time>2025-05-15T08:39:18Z</time>
      </trkpt>
      <trkpt lat="42.603876991197467" lon="2.51157701946795">
        <ele>420.23000000000002</ele>
        <time>2025-05-15T08:39:19Z</time>
      </trkpt>
      <trkpt lat="42.60375696234405" lon="2.511656982824206">
        <ele>420.70999999999998</ele>
        <time>2025-05-15T08:39:20Z</time>
      </trkpt>
      <trkpt lat="42.603638023138046" lon="2.511736024171114">
        <ele>420.70999999999998</ele>
        <time>2025-05-15T08:39:21Z</time>
      </trkpt>
      <trkpt lat="42.603531992062926" lon="2.51183501444757">
        <ele>421.19</ele>
        <time>2025-05-15T08:39:22Z</time>
      </trkpt>
      <trkpt lat="42.603439036756754" lon="2.51194498501718">
        <ele>421.68000000000001</ele>
        <time>2025-05-15T08:39:23Z</time>
      </trkpt>
      <trkpt lat="42.603349015116692" lon="2.512053027749062">
        <ele>422.16000000000003</ele>
        <time>2025-05-15T08:39:24Z</time>
      </trkpt>
      <trkpt lat="42.603242984041572" lon="2.512178001925349">
        <ele>422.63999999999999</ele>
        <time>2025-05-15T08:39:25Z</time>
      </trkpt>
      <trkpt lat="42.603184981271625" lon="2.512325020506978">
        <ele>423.12</ele>
        <time>2025-05-15T08:39:26Z</time>
      </trkpt>
      <trkpt lat="42.603120021522045" lon="2.512488970533013">
        <ele>424.07999999999998</ele>
        <time>2025-05-15T08:39:27Z</time>
      </trkpt>
      <trkpt lat="42.603052966296673" lon="2.512659961357713">
        <ele>425.04000000000002</ele>
        <time>2025-05-15T08:39:28Z</time>
      </trkpt>
      <trkpt lat="42.602832019329071" lon="2.513127001002431">
        <ele>427.44</ele>
        <time>2025-05-15T08:39:31Z</time>
      </trkpt>
      <trkpt lat="42.602749038487673" lon="2.513250969350338">
        <ele>428.39999999999998</ele>
        <time>2025-05-15T08:39:32Z</time>
      </trkpt>
      <trkpt lat="42.602639989927411" lon="2.513350965455174">
        <ele>428.88999999999999</ele>
        <time>2025-05-15T08:39:33Z</time>
      </trkpt>
      <trkpt lat="42.601963989436626" lon="2.513943985104561">
        <ele>434.17000000000002</ele>
        <time>2025-05-15T08:39:39Z</time>
      </trkpt>
      <trkpt lat="42.601851001381874" lon="2.514000982046127">
        <ele>435.13</ele>
        <time>2025-05-15T08:39:40Z</time>
      </trkpt>
      <trkpt lat="42.601741030812263" lon="2.514055967330933">
        <ele>436.57999999999998</ele>
        <time>2025-05-15T08:39:41Z</time>
      </trkpt>
      <trkpt lat="42.601637011393905" lon="2.514078011736274">
        <ele>437.54000000000002</ele>
        <time>2025-05-15T08:39:42Z</time>
      </trkpt>
      <trkpt lat="42.601538021117449" lon="2.514054039493203">
        <ele>438.5</ele>
        <time>2025-05-15T08:39:43Z</time>
      </trkpt>
      <trkpt lat="42.601455040276051" lon="2.513990001752973">
        <ele>439.94</ele>
        <time>2025-05-15T08:39:44Z</time>
      </trkpt>
      <trkpt lat="42.601379016414285" lon="2.513905009254813">
        <ele>440.89999999999998</ele>
        <time>2025-05-15T08:39:45Z</time>
      </trkpt>
      <trkpt lat="42.601311961188912" lon="2.513830997049809">
        <ele>441.86000000000001</ele>
        <time>2025-05-15T08:39:46Z</time>
      </trkpt>
      <trkpt lat="42.601210037246346" lon="2.513763019815087">
        <ele>442.81999999999999</ele>
        <time>2025-05-15T08:39:47Z</time>
      </trkpt>
      <trkpt lat="42.601110963150859" lon="2.513696970418096">
        <ele>443.79000000000002</ele>
        <time>2025-05-15T08:39:48Z</time>
      </trkpt>
      <trkpt lat="42.601014990359545" lon="2.513633016496897">
        <ele>444.26999999999998</ele>
        <time>2025-05-15T08:39:49Z</time>
      </trkpt>
      <trkpt lat="42.600667979568243" lon="2.513402011245489">
        <ele>447.63</ele>
        <time>2025-05-15T08:39:53Z</time>
      </trkpt>
      <trkpt lat="42.600621040910482" lon="2.513306960463524">
        <ele>448.58999999999997</ele>
        <time>2025-05-15T08:39:54Z</time>
      </trkpt>
      <trkpt lat="42.600571000948548" lon="2.513206964358687">
        <ele>449.06999999999999</ele>
        <time>2025-05-15T08:39:55Z</time>
      </trkpt>
      <trkpt lat="42.600522972643375" lon="2.51301895827055">
        <ele>450.51999999999998</ele>
        <time>2025-05-15T08:39:57Z</time>
      </trkpt>
      <trkpt lat="42.600506041198969" lon="2.512941006571055">
        <ele>451</ele>
        <time>2025-05-15T08:39:58Z</time>
      </trkpt>
      <trkpt lat="42.600491959601641" lon="2.512877974659205">
        <ele>451.48000000000002</ele>
        <time>2025-05-15T08:39:59Z</time>
      </trkpt>
      <trkpt lat="42.600475028157234" lon="2.51280102878809">
        <ele>455.80000000000001</ele>
        <time>2025-05-15T08:40:08Z</time>
      </trkpt>
      <trkpt lat="42.600438985973597" lon="2.512967996299267">
        <ele>442.33999999999997</ele>
        <time>2025-05-15T08:47:03Z</time>
      </trkpt>
      <trkpt lat="42.600506041198969" lon="2.512784013524652">
        <ele>449.55000000000001</ele>
        <time>2025-05-15T08:47:37Z</time>
      </trkpt>
      <trkpt lat="42.600545017048717" lon="2.512786025181413">
        <ele>441.38</ele>
        <time>2025-05-15T08:48:17Z</time>
      </trkpt>
      <trkpt lat="42.600475028157234" lon="2.51280102878809">
        <ele>446.67000000000002</ele>
        <time>2025-05-15T08:48:40Z</time>
      </trkpt>
      <trkpt lat="42.600451977923512" lon="2.512771021574736">
        <ele>446.67000000000002</ele>
        <time>2025-05-15T08:48:41Z</time>
      </trkpt>
      <trkpt lat="42.600409984588623" lon="2.51271503046155">
        <ele>446.19</ele>
        <time>2025-05-15T08:48:42Z</time>
      </trkpt>
      <trkpt lat="42.600365979596972" lon="2.512731961905956">
        <ele>446.19</ele>
        <time>2025-05-15T08:48:43Z</time>
      </trkpt>
      <trkpt lat="42.600303031504154" lon="2.51275802962482">
        <ele>446.67000000000002</ele>
        <time>2025-05-15T08:48:44Z</time>
      </trkpt>
      <trkpt lat="42.600263971835375" lon="2.512811003252864">
        <ele>446.67000000000002</ele>
        <time>2025-05-15T08:48:45Z</time>
      </trkpt>
      <trkpt lat="42.600218039005995" lon="2.512873029336333">
        <ele>446.67000000000002</ele>
        <time>2025-05-15T08:48:46Z</time>
      </trkpt>
      <trkpt lat="42.600163975730538" lon="2.512947041541338">
        <ele>446.67000000000002</ele>
        <time>2025-05-15T08:48:47Z</time>
      </trkpt>
      <trkpt lat="42.599974041804671" lon="2.513203024864197">
        <ele>447.63</ele>
        <time>2025-05-15T08:48:50Z</time>
      </trkpt>
      <trkpt lat="42.599900029599667" lon="2.513266978785396">
        <ele>448.58999999999997</ele>
        <time>2025-05-15T08:48:51Z</time>
      </trkpt>
      <trkpt lat="42.599792992696166" lon="2.513308972120285">
        <ele>449.55000000000001</ele>
        <time>2025-05-15T08:48:52Z</time>
      </trkpt>
      <trkpt lat="42.59958797134459" lon="2.51340402290225">
        <ele>451</ele>
        <time>2025-05-15T08:48:54Z</time>
      </trkpt>
      <trkpt lat="42.599510019645095" lon="2.51346898265183">
        <ele>451.95999999999998</ele>
        <time>2025-05-15T08:48:55Z</time>
      </trkpt>
      <trkpt lat="42.59937297552824" lon="2.513582976534963">
        <ele>453.88</ele>
        <time>2025-05-15T08:48:57Z</time>
      </trkpt>
      <trkpt lat="42.599327964708209" lon="2.513565039262176">
        <ele>454.36000000000001</ele>
        <time>2025-05-15T08:48:58Z</time>
      </trkpt>
      <trkpt lat="42.599280020222068" lon="2.513521034270525">
        <ele>454.83999999999997</ele>
        <time>2025-05-15T08:48:59Z</time>
      </trkpt>
      <trkpt lat="42.599223023280501" lon="2.513467976823449">
        <ele>455.80000000000001</ele>
        <time>2025-05-15T08:49:00Z</time>
      </trkpt>
      <trkpt lat="42.599159991368651" lon="2.513408968225122">
        <ele>456.27999999999997</ele>
        <time>2025-05-15T08:49:01Z</time>
      </trkpt>
      <trkpt lat="42.599093019962311" lon="2.513346020132303">
        <ele>457.24000000000001</ele>
        <time>2025-05-15T08:49:02Z</time>
      </trkpt>
      <trkpt lat="42.599002998322248" lon="2.513282988220453">
        <ele>457.72000000000003</ele>
        <time>2025-05-15T08:49:03Z</time>
      </trkpt>
      <trkpt lat="42.598905013874173" lon="2.513249963521957">
        <ele>458.20999999999998</ele>
        <time>2025-05-15T08:49:04Z</time>
      </trkpt>
      <trkpt lat="42.598800994455814" lon="2.513216016814113">
        <ele>458.69</ele>
        <time>2025-05-15T08:49:05Z</time>
      </trkpt>
      <trkpt lat="42.598524978384376" lon="2.513153990730643">
        <ele>460.13</ele>
        <time>2025-05-15T08:49:08Z</time>
      </trkpt>
      <trkpt lat="42.598458006978035" lon="2.513165976852179">
        <ele>461.08999999999997</ele>
        <time>2025-05-15T08:49:09Z</time>
      </trkpt>
      <trkpt lat="42.598409978672862" lon="2.513249963521957">
        <ele>461.08999999999997</ele>
        <time>2025-05-15T08:49:10Z</time>
      </trkpt>
      <trkpt lat="42.598364967852831" lon="2.513327999040484">
        <ele>461.56999999999999</ele>
        <time>2025-05-15T08:49:11Z</time>
      </trkpt>
      <trkpt lat="42.59832096286118" lon="2.51340402290225">
        <ele>462.05000000000001</ele>
        <time>2025-05-15T08:49:12Z</time>
      </trkpt>
      <trkpt lat="42.598281987011433" lon="2.513466970995069">
        <ele>462.52999999999997</ele>
        <time>2025-05-15T08:49:13Z</time>
      </trkpt>
      <trkpt lat="42.598219038918614" lon="2.513482980430126">
        <ele>463.00999999999999</ele>
        <time>2025-05-15T08:49:14Z</time>
      </trkpt>
      <trkpt lat="42.598159024491906" lon="2.513437969610095">
        <ele>463.97000000000003</ele>
        <time>2025-05-15T08:49:15Z</time>
      </trkpt>
      <trkpt lat="42.598101021721959" lon="2.513369992375374">
        <ele>464.44999999999999</ele>
        <time>2025-05-15T08:49:16Z</time>
      </trkpt>
      <trkpt lat="42.598035978153348" lon="2.513292040675879">
        <ele>464.93000000000001</ele>
        <time>2025-05-15T08:49:17Z</time>
      </trkpt>
      <trkpt lat="42.597970012575388" lon="2.513212999328971">
        <ele>465.42000000000002</ele>
        <time>2025-05-15T08:49:18Z</time>
      </trkpt>
      <trkpt lat="42.59791100397706" lon="2.513144016265869">
        <ele>465.89999999999998</ele>
        <time>2025-05-15T08:49:19Z</time>
      </trkpt>
      <trkpt lat="42.597857024520636" lon="2.513079978525639">
        <ele>466.38</ele>
        <time>2025-05-15T08:49:20Z</time>
      </trkpt>
      <trkpt lat="42.597773037850857" lon="2.513079978525639">
        <ele>466.86000000000001</ele>
        <time>2025-05-15T08:49:21Z</time>
      </trkpt>
      <trkpt lat="42.597682010382414" lon="2.513079978525639">
        <ele>467.33999999999997</ele>
        <time>2025-05-15T08:49:22Z</time>
      </trkpt>
      <trkpt lat="42.597578996792436" lon="2.513079978525639">
        <ele>467.81999999999999</ele>
        <time>2025-05-15T08:49:23Z</time>
      </trkpt>
      <trkpt lat="42.59748000651598" lon="2.513031028211117">
        <ele>468.30000000000001</ele>
        <time>2025-05-15T08:49:24Z</time>
      </trkpt>
      <trkpt lat="42.597389984875917" lon="2.512986017391086">
        <ele>468.77999999999997</ele>
        <time>2025-05-15T08:49:25Z</time>
      </trkpt>
      <trkpt lat="42.597321001812816" lon="2.512950981035829">
        <ele>469.25999999999999</ele>
        <time>2025-05-15T08:49:26Z</time>
      </trkpt>
      <trkpt lat="42.597237015143037" lon="2.512950981035829">
        <ele>469.74000000000001</ele>
        <time>2025-05-15T08:49:27Z</time>
      </trkpt>
      <trkpt lat="42.597203990444541" lon="2.513012001290917">
        <ele>469.74000000000001</ele>
        <time>2025-05-15T08:49:28Z</time>
      </trkpt>
      <trkpt lat="42.597169037908316" lon="2.513085007667542">
        <ele>470.22000000000003</ele>
        <time>2025-05-15T08:49:29Z</time>
      </trkpt>
      <trkpt lat="42.597145987674594" lon="2.513195984065533">
        <ele>470.69999999999999</ele>
        <time>2025-05-15T08:49:30Z</time>
      </trkpt>
      <trkpt lat="42.597118997946382" lon="2.513321964070201">
        <ele>470.69999999999999</ele>
        <time>2025-05-15T08:49:31Z</time>
      </trkpt>
      <trkpt lat="42.59709301404655" lon="2.51344702206552">
        <ele>471.18000000000001</ele>
        <time>2025-05-15T08:49:32Z</time>
      </trkpt>
      <trkpt lat="42.597036017104983" lon="2.513550035655499">
        <ele>471.66000000000003</ele>
        <time>2025-05-15T08:49:33Z</time>
      </trkpt>
      <trkpt lat="42.596976002678275" lon="2.513625975698233">
        <ele>471.66000000000003</ele>
        <time>2025-05-15T08:49:34Z</time>
      </trkpt>
      <trkpt lat="42.596891010180116" lon="2.513645002618432">
        <ele>471.66000000000003</ele>
        <time>2025-05-15T08:49:35Z</time>
      </trkpt>
      <trkpt lat="42.596840970218182" lon="2.513602003455162">
        <ele>471.66000000000003</ele>
        <time>2025-05-15T08:49:36Z</time>
      </trkpt>
      <trkpt lat="42.596805011853576" lon="2.513564033433795">
        <ele>471.66000000000003</ele>
        <time>2025-05-15T08:49:37Z</time>
      </trkpt>
      <trkpt lat="42.596798976883292" lon="2.513482980430126">
        <ele>472.13999999999999</ele>
        <time>2025-05-15T08:49:38Z</time>
      </trkpt>
      <trkpt lat="42.59679302573204" lon="2.513390025123954">
        <ele>472.13999999999999</ele>
        <time>2025-05-15T08:49:39Z</time>
      </trkpt>
      <trkpt lat="42.596784979104996" lon="2.513283994048834">
        <ele>472.13999999999999</ele>
        <time>2025-05-15T08:49:40Z</time>
      </trkpt>
      <trkpt lat="42.596760001033545" lon="2.513190032914281">
        <ele>472.63</ele>
        <time>2025-05-15T08:49:41Z</time>
      </trkpt>
      <trkpt lat="42.596723958849907" lon="2.513066986575723">
        <ele>473.11000000000001</ele>
        <time>2025-05-15T08:49:42Z</time>
      </trkpt>
      <trkpt lat="42.59668598882854" lon="2.512938994914293">
        <ele>473.58999999999997</ele>
        <time>2025-05-15T08:49:43Z</time>
      </trkpt>
      <trkpt lat="42.596657993271947" lon="2.512807985767722">
        <ele>474.06999999999999</ele>
        <time>2025-05-15T08:49:44Z</time>
      </trkpt>
      <trkpt lat="42.596609964966774" lon="2.512558959424496">
        <ele>475.02999999999997</ele>
        <time>2025-05-15T08:49:46Z</time>
      </trkpt>
      <trkpt lat="42.596586998552084" lon="2.512454017996788">
        <ele>475.02999999999997</ele>
        <time>2025-05-15T08:49:47Z</time>
      </trkpt>
      <trkpt lat="42.59651499800384" lon="2.51239400357008">
        <ele>475.50999999999999</ele>
        <time>2025-05-15T08:49:48Z</time>
      </trkpt>
      <trkpt lat="42.595836985856295" lon="2.511910032480955">
        <ele>480.31999999999999</ele>
        <time>2025-05-15T08:49:55Z</time>
      </trkpt>
      <trkpt lat="42.595745958387852" lon="2.511908020824194">
        <ele>480.80000000000001</ele>
        <time>2025-05-15T08:49:56Z</time>
      </trkpt>
      <trkpt lat="42.595655014738441" lon="2.511917995288968">
        <ele>480.80000000000001</ele>
        <time>2025-05-15T08:49:57Z</time>
      </trkpt>
      <trkpt lat="42.595563987269998" lon="2.511975998058915">
        <ele>481.27999999999997</ele>
        <time>2025-05-15T08:49:58Z</time>
      </trkpt>
      <trkpt lat="42.595471031963825" lon="2.512058978900313">
        <ele>481.75999999999999</ele>
        <time>2025-05-15T08:49:59Z</time>
      </trkpt>
      <trkpt lat="42.595372041687369" lon="2.512147994711995">
        <ele>481.75999999999999</ele>
        <time>2025-05-15T08:50:00Z</time>
      </trkpt>
      <trkpt lat="42.595148999243975" lon="2.512327032163739">
        <ele>482.72000000000003</ele>
        <time>2025-05-15T08:50:02Z</time>
      </trkpt>
      <trkpt lat="42.595026036724448" lon="2.512400038540363">
        <ele>483.19999999999999</ele>
        <time>2025-05-15T08:50:03Z</time>
      </trkpt>
      <trkpt lat="42.594896033406258" lon="2.512478996068239">
        <ele>483.68000000000001</ele>
        <time>2025-05-15T08:50:04Z</time>
      </trkpt>
      <trkpt lat="42.594774998724461" lon="2.51250397413969">
        <ele>484.16000000000003</ele>
        <time>2025-05-15T08:50:05Z</time>
      </trkpt>
      <trkpt lat="42.594638960435987" lon="2.512532975524664">
        <ele>485.12</ele>
        <time>2025-05-15T08:50:06Z</time>
      </trkpt>
      <trkpt lat="42.594488002359867" lon="2.512564994394779">
        <ele>485.60000000000002</ele>
        <time>2025-05-15T08:50:07Z</time>
      </trkpt>
      <trkpt lat="42.59436696767807" lon="2.512572035193443">
        <ele>486.56</ele>
        <time>2025-05-15T08:50:08Z</time>
      </trkpt>
      <trkpt lat="42.59423503652215" lon="2.512581003829837">
        <ele>487.05000000000001</ele>
        <time>2025-05-15T08:50:09Z</time>
      </trkpt>
      <trkpt lat="42.593916021287441" lon="2.512601036578417">
        <ele>488.97000000000003</ele>
        <time>2025-05-15T08:50:12Z</time>
      </trkpt>
      <trkpt lat="42.593835974112153" lon="2.512606987729669">
        <ele>489.44999999999999</ele>
        <time>2025-05-15T08:50:13Z</time>
      </trkpt>
      <trkpt lat="42.59378400631249" lon="2.512559965252876">
        <ele>489.93000000000001</ele>
        <time>2025-05-15T08:50:14Z</time>
      </trkpt>
      <trkpt lat="42.593738995492458" lon="2.512506991624832">
        <ele>490.41000000000003</ele>
        <time>2025-05-15T08:50:15Z</time>
      </trkpt>
      <trkpt lat="42.593709994107485" lon="2.512456029653549">
        <ele>490.88999999999999</ele>
        <time>2025-05-15T08:50:16Z</time>
      </trkpt>
      <trkpt lat="42.593686021864414" lon="2.512359973043203">
        <ele>491.85000000000002</ele>
        <time>2025-05-15T08:50:17Z</time>
      </trkpt>
      <trkpt lat="42.593660037964582" lon="2.512254025787115">
        <ele>492.32999999999998</ele>
        <time>2025-05-15T08:50:18Z</time>
      </trkpt>
      <trkpt lat="42.593631036579609" lon="2.512139026075602">
        <ele>492.81</ele>
        <time>2025-05-15T08:50:19Z</time>
      </trkpt>
      <trkpt lat="42.593599017709494" lon="2.512012040242553">
        <ele>493.29000000000002</ele>
        <time>2025-05-15T08:50:20Z</time>
      </trkpt>
      <trkpt lat="42.593568004667759" lon="2.511887988075614">
        <ele>493.76999999999998</ele>
        <time>2025-05-15T08:50:21Z</time>
      </trkpt>
      <trkpt lat="42.59350698441267" lon="2.511800983920693">
        <ele>494.74000000000001</ele>
        <time>2025-05-15T08:50:22Z</time>
      </trkpt>
      <trkpt lat="42.593453004956245" lon="2.511727977544069">
        <ele>495.69999999999999</ele>
        <time>2025-05-15T08:50:23Z</time>
      </trkpt>
      <trkpt lat="42.59339701384306" lon="2.511709034442902">
        <ele>496.18000000000001</ele>
        <time>2025-05-15T08:50:24Z</time>
      </trkpt>
      <trkpt lat="42.593309003859758" lon="2.511713979765773">
        <ele>496.66000000000003</ele>
        <time>2025-05-15T08:50:25Z</time>
      </trkpt>
      <trkpt lat="42.5932049844414" lon="2.511721020564437">
        <ele>497.13999999999999</ele>
        <time>2025-05-15T08:50:26Z</time>
      </trkpt>
      <trkpt lat="42.593099037185311" lon="2.511726971715689">
        <ele>497.62</ele>
        <time>2025-05-15T08:50:27Z</time>
      </trkpt>
      <trkpt lat="42.592992000281811" lon="2.511684978380799">
        <ele>498.57999999999998</ele>
        <time>2025-05-15T08:50:28Z</time>
      </trkpt>
      <trkpt lat="42.592883035540581" lon="2.511638961732388">
        <ele>499.06</ele>
        <time>2025-05-15T08:50:29Z</time>
      </trkpt>
      <trkpt lat="42.592781027778983" lon="2.511595962569118">
        <ele>499.54000000000002</ele>
        <time>2025-05-15T08:50:30Z</time>
      </trkpt>
      <trkpt lat="42.592687988653779" lon="2.51155698671937">
        <ele>500.01999999999998</ele>
        <time>2025-05-15T08:50:31Z</time>
      </trkpt>
      <trkpt lat="42.592596039175987" lon="2.511555980890989">
        <ele>500.5</ele>
        <time>2025-05-15T08:50:32Z</time>
      </trkpt>
      <trkpt lat="42.592413984239101" lon="2.511580036953092">
        <ele>501.45999999999998</ele>
        <time>2025-05-15T08:50:34Z</time>
      </trkpt>
      <trkpt lat="42.592333015054464" lon="2.511614989489317">
        <ele>501.45999999999998</ele>
        <time>2025-05-15T08:50:35Z</time>
      </trkpt>
      <trkpt lat="42.592274006456137" lon="2.511691013351083">
        <ele>502.43000000000001</ele>
        <time>2025-05-15T08:50:36Z</time>
      </trkpt>
      <trkpt lat="42.592208040878177" lon="2.511791009455919">
        <ele>502.91000000000003</ele>
        <time>2025-05-15T08:50:37Z</time>
      </trkpt>
      <trkpt lat="42.592144003137946" lon="2.511885976418853">
        <ele>503.87</ele>
        <time>2025-05-15T08:50:38Z</time>
      </trkpt>
      <trkpt lat="42.592081977054477" lon="2.511979015544057">
        <ele>504.35000000000002</ele>
        <time>2025-05-15T08:50:39Z</time>
      </trkpt>
      <trkpt lat="42.592027997598052" lon="2.512058978900313">
        <ele>504.82999999999998</ele>
        <time>2025-05-15T08:50:40Z</time>
      </trkpt>
      <trkpt lat="42.591960020363331" lon="2.512060990557075">
        <ele>505.31</ele>
        <time>2025-05-15T08:50:41Z</time>
      </trkpt>
      <trkpt lat="42.591892965137959" lon="2.512049004435539">
        <ele>505.79000000000002</ele>
        <time>2025-05-15T08:50:42Z</time>
      </trkpt>
      <trkpt lat="42.591828005388379" lon="2.512037018314004">
        <ele>505.31</ele>
        <time>2025-05-15T08:50:43Z</time>
      </trkpt>
      <trkpt lat="42.591747036203742" lon="2.512023020535708">
        <ele>505.79000000000002</ele>
        <time>2025-05-15T08:50:44Z</time>
      </trkpt>
      <trkpt lat="42.591656008735299" lon="2.51200701110065">
        <ele>506.75</ele>
        <time>2025-05-15T08:50:45Z</time>
      </trkpt>
      <trkpt lat="42.591576967388391" lon="2.512055039405823">
        <ele>506.75</ele>
        <time>2025-05-15T08:50:46Z</time>
      </trkpt>
      <trkpt lat="42.591478982940316" lon="2.51211698167026">
        <ele>507.23000000000002</ele>
        <time>2025-05-15T08:50:47Z</time>
      </trkpt>
      <trkpt lat="42.591377981007099" lon="2.51217900775373">
        <ele>507.70999999999998</ele>
        <time>2025-05-15T08:50:48Z</time>
      </trkpt>
      <trkpt lat="42.591272033751011" lon="2.51224497333169">
        <ele>508.19</ele>
        <time>2025-05-15T08:50:49Z</time>
      </trkpt>
      <trkpt lat="42.590967016294599" lon="2.512434991076589">
        <ele>510.12</ele>
        <time>2025-05-15T08:50:52Z</time>
      </trkpt>
      <trkpt lat="42.590874982997775" lon="2.512491988018155">
        <ele>510.60000000000002</ele>
        <time>2025-05-15T08:50:53Z</time>
      </trkpt>
      <trkpt lat="42.590801976621151" lon="2.512464998289943">
        <ele>511.56</ele>
        <time>2025-05-15T08:50:54Z</time>
      </trkpt>
      <trkpt lat="42.59075503796339" lon="2.512435996904969">
        <ele>512.03999999999996</ele>
        <time>2025-05-15T08:50:55Z</time>
      </trkpt>
      <trkpt lat="42.590732993558049" lon="2.512371959164739">
        <ele>513</ele>
        <time>2025-05-15T08:50:56Z</time>
      </trkpt>
      <trkpt lat="42.590737016871572" lon="2.512290989980102">
        <ele>513.96000000000004</ele>
        <time>2025-05-15T08:50:57Z</time>
      </trkpt>
      <trkpt lat="42.590742968022823" lon="2.512157969176769">
        <ele>514.44000000000005</ele>
        <time>2025-05-15T08:50:58Z</time>
      </trkpt>
      <trkpt lat="42.590751014649868" lon="2.511991001665592">
        <ele>514.91999999999996</ele>
        <time>2025-05-15T08:50:59Z</time>
      </trkpt>
      <trkpt lat="42.59073500521481" lon="2.511819005012512">
        <ele>515.39999999999998</ele>
        <time>2025-05-15T08:51:00Z</time>
      </trkpt>
      <trkpt lat="42.590702986344695" lon="2.511649020016193">
        <ele>515.39999999999998</ele>
        <time>2025-05-15T08:51:01Z</time>
      </trkpt>
      <trkpt lat="42.59066903963685" lon="2.511469982564449">
        <ele>515.39999999999998</ele>
        <time>2025-05-15T08:51:02Z</time>
      </trkpt>
      <trkpt lat="42.590611036866903" lon="2.511344002559781">
        <ele>515.39999999999998</ele>
        <time>2025-05-15T08:51:03Z</time>
      </trkpt>
      <trkpt lat="42.590560996904969" lon="2.511234031990171">
        <ele>515.88</ele>
        <time>2025-05-15T08:51:04Z</time>
      </trkpt>
      <trkpt lat="42.590560996904969" lon="2.511092964559794">
        <ele>515.88</ele>
        <time>2025-05-15T08:51:05Z</time>
      </trkpt>
      <trkpt lat="42.590560996904969" lon="2.51095499843359">
        <ele>515.39999999999998</ele>
        <time>2025-05-15T08:51:06Z</time>
      </trkpt>
      <trkpt lat="42.590560996904969" lon="2.510814014822245">
        <ele>515.39999999999998</ele>
        <time>2025-05-15T08:51:07Z</time>
      </trkpt>
      <trkpt lat="42.590533001348376" lon="2.510658027604222">
        <ele>514.91999999999996</ele>
        <time>2025-05-15T08:51:08Z</time>
      </trkpt>
      <trkpt lat="42.590502994135022" lon="2.510518971830607">
        <ele>514.91999999999996</ele>
        <time>2025-05-15T08:51:09Z</time>
      </trkpt>
      <trkpt lat="42.59047600440681" lon="2.510397015139461">
        <ele>514.91999999999996</ele>
        <time>2025-05-15T08:51:10Z</time>
      </trkpt>
      <trkpt lat="42.590428981930017" lon="2.510303976014257">
        <ele>514.91999999999996</ele>
        <time>2025-05-15T08:51:11Z</time>
      </trkpt>
      <trkpt lat="42.590378019958735" lon="2.510257959365845">
        <ele>514.91999999999996</ele>
        <time>2025-05-15T08:51:12Z</time>
      </trkpt>
      <trkpt lat="42.590281963348389" lon="2.510226024314761">
        <ele>514.91999999999996</ele>
        <time>2025-05-15T08:51:13Z</time>
      </trkpt>
      <trkpt lat="42.590225972235203" lon="2.510257959365845">
        <ele>514.44000000000005</ele>
        <time>2025-05-15T08:51:14Z</time>
      </trkpt>
      <trkpt lat="42.590138968080282" lon="2.510309005156159">
        <ele>514.44000000000005</ele>
        <time>2025-05-15T08:51:15Z</time>
      </trkpt>
      <trkpt lat="42.589937970042229" lon="2.510425010696054">
        <ele>514.44000000000005</ele>
        <time>2025-05-15T08:51:17Z</time>
      </trkpt>
      <trkpt lat="42.589829005300999" lon="2.510472033172846">
        <ele>514.44000000000005</ele>
        <time>2025-05-15T08:51:18Z</time>
      </trkpt>
      <trkpt lat="42.589478977024555" lon="2.510551996529102">
        <ele>514.91999999999996</ele>
        <time>2025-05-15T08:51:21Z</time>
      </trkpt>
      <trkpt lat="42.589377975091338" lon="2.510562976822257">
        <ele>515.39999999999998</ele>
        <time>2025-05-15T08:51:22Z</time>
      </trkpt>
      <trkpt lat="42.58927496150136" lon="2.510536992922425">
        <ele>515.88</ele>
        <time>2025-05-15T08:51:23Z</time>
      </trkpt>
      <trkpt lat="42.589178988710046" lon="2.510513020679355">
        <ele>515.88</ele>
        <time>2025-05-15T08:51:24Z</time>
      </trkpt>
      <trkpt lat="42.589097013697028" lon="2.510529030114412">
        <ele>516.37</ele>
        <time>2025-05-15T08:51:25Z</time>
      </trkpt>
      <trkpt lat="42.589019984006882" lon="2.510567000135779">
        <ele>516.85000000000002</ele>
        <time>2025-05-15T08:51:26Z</time>
      </trkpt>
      <trkpt lat="42.588952006772161" lon="2.510641012340784">
        <ele>517.80999999999995</ele>
        <time>2025-05-15T08:51:27Z</time>
      </trkpt>
      <trkpt lat="42.588898027315736" lon="2.510765986517072">
        <ele>518.28999999999996</ele>
        <time>2025-05-15T08:51:28Z</time>
      </trkpt>
      <trkpt lat="42.588839018717408" lon="2.510900013148785">
        <ele>518.76999999999998</ele>
        <time>2025-05-15T08:51:29Z</time>
      </trkpt>
      <trkpt lat="42.5887790042907" lon="2.511039990931749">
        <ele>519.73000000000002</ele>
        <time>2025-05-15T08:51:30Z</time>
      </trkpt>
      <trkpt lat="42.588714966550469" lon="2.511187009513378">
        <ele>520.21000000000004</ele>
        <time>2025-05-15T08:51:31Z</time>
      </trkpt>
      <trkpt lat="42.588649000972509" lon="2.511338973417878">
        <ele>521.16999999999996</ele>
        <time>2025-05-15T08:51:32Z</time>
      </trkpt>
      <trkpt lat="42.588582029566169" lon="2.511493032798171">
        <ele>521.64999999999998</ele>
        <time>2025-05-15T08:51:33Z</time>
      </trkpt>
      <trkpt lat="42.588515980169177" lon="2.511643990874291">
        <ele>522.61000000000001</ele>
        <time>2025-05-15T08:51:34Z</time>
      </trkpt>
      <trkpt lat="42.588425958529115" lon="2.511779023334384">
        <ele>523.58000000000004</ele>
        <time>2025-05-15T08:51:35Z</time>
      </trkpt>
      <trkpt lat="42.588316993787885" lon="2.511881031095982">
        <ele>524.05999999999995</ele>
        <time>2025-05-15T08:51:36Z</time>
      </trkpt>
      <trkpt lat="42.588210040703416" lon="2.511982033029199">
        <ele>525.5</ele>
        <time>2025-05-15T08:51:37Z</time>
      </trkpt>
      <trkpt lat="42.588034020736814" lon="2.512181019410491">
        <ele>526.94000000000005</ele>
        <time>2025-05-15T08:51:39Z</time>
      </trkpt>
      <trkpt lat="42.58781298995018" lon="2.512478996068239">
        <ele>529.34000000000003</ele>
        <time>2025-05-15T08:51:42Z</time>
      </trkpt>
      <trkpt lat="42.587750041857362" lon="2.512564994394779">
        <ele>529.82000000000005</ele>
        <time>2025-05-15T08:51:43Z</time>
      </trkpt>
      <trkpt lat="42.587686004117131" lon="2.512564994394779">
        <ele>530.29999999999995</ele>
        <time>2025-05-15T08:51:44Z</time>
      </trkpt>
      <trkpt lat="42.587621966376901" lon="2.512564994394779">
        <ele>531.26999999999998</ele>
        <time>2025-05-15T08:51:45Z</time>
      </trkpt>
      <trkpt lat="42.587548037990928" lon="2.512515038251877">
        <ele>531.75</ele>
        <time>2025-05-15T08:51:46Z</time>
      </trkpt>
      <trkpt lat="42.587488023564219" lon="2.512475978583098">
        <ele>532.23000000000002</ele>
        <time>2025-05-15T08:51:47Z</time>
      </trkpt>
      <trkpt lat="42.587433038279414" lon="2.512439014390111">
        <ele>533.19000000000005</ele>
        <time>2025-05-15T08:51:48Z</time>
      </trkpt>
      <trkpt lat="42.587379980832338" lon="2.512403978034854">
        <ele>534.14999999999998</ele>
        <time>2025-05-15T08:51:49Z</time>
      </trkpt>
      <trkpt lat="42.587363971397281" lon="2.512392997741699">
        <ele>534.63</ele>
        <time>2025-05-15T08:51:50Z</time>
      </trkpt>
      <trkpt lat="42.58729699999094" lon="2.512414958328009">
        <ele>535.11000000000001</ele>
        <time>2025-05-15T08:51:51Z</time>
      </trkpt>
      <trkpt lat="42.587249977514148" lon="2.512430967763066">
        <ele>536.07000000000005</ele>
        <time>2025-05-15T08:51:52Z</time>
      </trkpt>
      <trkpt lat="42.587203038856387" lon="2.512446977198124">
        <ele>536.54999999999995</ele>
        <time>2025-05-15T08:51:53Z</time>
      </trkpt>
      <trkpt lat="42.587065994739532" lon="2.512491988018155">
        <ele>537.99000000000001</ele>
        <time>2025-05-15T08:51:56Z</time>
      </trkpt>
      <trkpt lat="42.587030036374927" lon="2.512477990239859">
        <ele>538.48000000000002</ele>
        <time>2025-05-15T08:51:57Z</time>
      </trkpt>
      <trkpt lat="42.587001034989953" lon="2.512429039925337">
        <ele>538.96000000000004</ele>
        <time>2025-05-15T08:51:58Z</time>
      </trkpt>
      <trkpt lat="42.586968010291457" lon="2.512369025498629">
        <ele>539.44000000000005</ele>
        <time>2025-05-15T08:51:59Z</time>
      </trkpt>
      <trkpt lat="42.586934985592961" lon="2.512312028557062">
        <ele>539.91999999999996</ele>
        <time>2025-05-15T08:52:00Z</time>
      </trkpt>
      <trkpt lat="42.586901960894465" lon="2.512255031615496">
        <ele>540.88</ele>
        <time>2025-05-15T08:52:01Z</time>
      </trkpt>
      <trkpt lat="42.586873965337873" lon="2.512204991653562">
        <ele>540.88</ele>
        <time>2025-05-15T08:52:02Z</time>
      </trkpt>
      <trkpt lat="42.58684303611517" lon="2.512152018025518">
        <ele>541.36000000000001</ele>
        <time>2025-05-15T08:52:03Z</time>
      </trkpt>
      <trkpt lat="42.586785033345222" lon="2.512049004435539">
        <ele>542.32000000000005</ele>
        <time>2025-05-15T08:52:05Z</time>
      </trkpt>
      <trkpt lat="42.586713032796979" lon="2.511924030259252">
        <ele>543.27999999999997</ele>
        <time>2025-05-15T08:52:07Z</time>
      </trkpt>
      <trkpt lat="42.586589986458421" lon="2.511775000020862">
        <ele>544.24000000000001</ele>
        <time>2025-05-15T08:52:09Z</time>
      </trkpt>
      <trkpt lat="42.586516980081797" lon="2.511718003079295">
        <ele>544.72000000000003</ele>
        <time>2025-05-15T08:52:10Z</time>
      </trkpt>
      <trkpt lat="42.586432993412018" lon="2.511689001694322">
        <ele>545.20000000000005</ele>
        <time>2025-05-15T08:52:11Z</time>
      </trkpt>
      <trkpt lat="42.58635001257062" lon="2.511723032221198">
        <ele>545.69000000000005</ele>
        <time>2025-05-15T08:52:12Z</time>
      </trkpt>
      <trkpt lat="42.586263008415699" lon="2.511768965050578">
        <ele>546.16999999999996</ele>
        <time>2025-05-15T08:52:13Z</time>
      </trkpt>
      <trkpt lat="42.586173992604017" lon="2.511816993355751">
        <ele>546.64999999999998</ele>
        <time>2025-05-15T08:52:14Z</time>
      </trkpt>
      <trkpt lat="42.5860729906708" lon="2.51183501444757">
        <ele>547.13</ele>
        <time>2025-05-15T08:52:15Z</time>
      </trkpt>
      <trkpt lat="42.585976012051105" lon="2.51183501444757">
        <ele>547.13</ele>
        <time>2025-05-15T08:52:16Z</time>
      </trkpt>
      <trkpt lat="42.585883978754282" lon="2.51183501444757">
        <ele>547.13</ele>
        <time>2025-05-15T08:52:17Z</time>
      </trkpt>
      <trkpt lat="42.585804015398026" lon="2.511866027489305">
        <ele>547.61000000000001</ele>
        <time>2025-05-15T08:52:18Z</time>
      </trkpt>
      <trkpt lat="42.585722040385008" lon="2.511936016380787">
        <ele>547.61000000000001</ele>
        <time>2025-05-15T08:52:19Z</time>
      </trkpt>
      <trkpt lat="42.585633024573326" lon="2.512012962251902">
        <ele>547.61000000000001</ele>
        <time>2025-05-15T08:52:20Z</time>
      </trkpt>
      <trkpt lat="42.585539985448122" lon="2.51209300942719">
        <ele>548.09000000000003</ele>
        <time>2025-05-15T08:52:21Z</time>
      </trkpt>
      <trkpt lat="42.585443006828427" lon="2.512113964185119">
        <ele>548.57000000000005</ele>
        <time>2025-05-15T08:52:22Z</time>
      </trkpt>
      <trkpt lat="42.58523496799171" lon="2.51215998083353">
        <ele>549.52999999999997</ele>
        <time>2025-05-15T08:52:24Z</time>
      </trkpt>
      <trkpt lat="42.58495501242578" lon="2.512226030230522">
        <ele>551.45000000000005</ele>
        <time>2025-05-15T08:52:27Z</time>
      </trkpt>
      <trkpt lat="42.584863984957337" lon="2.512290989980102">
        <ele>551.92999999999995</ele>
        <time>2025-05-15T08:52:28Z</time>
      </trkpt>
      <trkpt lat="42.584773963317275" lon="2.512355027720332">
        <ele>552.89999999999998</ele>
        <time>2025-05-15T08:52:29Z</time>
      </trkpt>
      <trkpt lat="42.584700034931302" lon="2.512406995519996">
        <ele>553.38</ele>
        <time>2025-05-15T08:52:30Z</time>
      </trkpt>
      <trkpt lat="42.584635997191072" lon="2.512424010783434">
        <ele>553.86000000000001</ele>
        <time>2025-05-15T08:52:31Z</time>
      </trkpt>
      <trkpt lat="42.584574976935983" lon="2.512392997741699">
        <ele>554.82000000000005</ele>
        <time>2025-05-15T08:52:32Z</time>
      </trkpt>
      <trkpt lat="42.58454698137939" lon="2.512327032163739">
        <ele>555.29999999999995</ele>
        <time>2025-05-15T08:52:33Z</time>
      </trkpt>
      <trkpt lat="42.584511023014784" lon="2.512242961674929">
        <ele>555.77999999999997</ele>
        <time>2025-05-15T08:52:34Z</time>
      </trkpt>
      <trkpt lat="42.584484033286572" lon="2.512123016640544">
        <ele>556.25999999999999</ele>
        <time>2025-05-15T08:52:35Z</time>
      </trkpt>
      <trkpt lat="42.584453020244837" lon="2.511985972523689">
        <ele>556.74000000000001</ele>
        <time>2025-05-15T08:52:36Z</time>
      </trkpt>
      <trkpt lat="42.584422007203102" lon="2.511844988912344">
        <ele>557.22000000000003</ele>
        <time>2025-05-15T08:52:37Z</time>
      </trkpt>
      <trkpt lat="42.584391999989748" lon="2.511708028614521">
        <ele>556.74000000000001</ele>
        <time>2025-05-15T08:52:38Z</time>
      </trkpt>
      <trkpt lat="42.584351012483239" lon="2.511597974225879">
        <ele>556.74000000000001</ele>
        <time>2025-05-15T08:52:39Z</time>
      </trkpt>
      <trkpt lat="42.584299966692924" lon="2.511485991999507">
        <ele>556.74000000000001</ele>
        <time>2025-05-15T08:52:40Z</time>
      </trkpt>
      <trkpt lat="42.584240958094597" lon="2.511375015601516">
        <ele>556.74000000000001</ele>
        <time>2025-05-15T08:52:41Z</time>
      </trkpt>
      <trkpt lat="42.584146996960044" lon="2.51129899173975">
        <ele>556.74000000000001</ele>
        <time>2025-05-15T08:52:42Z</time>
      </trkpt>
      <trkpt lat="42.584049012511969" lon="2.511219028383493">
        <ele>556.25999999999999</ele>
        <time>2025-05-15T08:52:43Z</time>
      </trkpt>
      <trkpt lat="42.583952033892274" lon="2.511140992864966">
        <ele>556.25999999999999</ele>
        <time>2025-05-15T08:52:44Z</time>
      </trkpt>
      <trkpt lat="42.58377299644053" lon="2.511016018688679">
        <ele>556.25999999999999</ele>
        <time>2025-05-15T08:52:46Z</time>
      </trkpt>
      <trkpt lat="42.583671994507313" lon="2.511003026738763">
        <ele>556.74000000000001</ele>
        <time>2025-05-15T08:52:47Z</time>
      </trkpt>
      <trkpt lat="42.583561018109322" lon="2.511015012860298">
        <ele>557.22000000000003</ele>
        <time>2025-05-15T08:52:48Z</time>
      </trkpt>
      <trkpt lat="42.583104958757758" lon="2.51114996150136">
        <ele>559.62</ele>
        <time>2025-05-15T08:52:52Z</time>
      </trkpt>
      <trkpt lat="42.582995994016528" lon="2.511213999241591">
        <ele>560.11000000000001</ele>
        <time>2025-05-15T08:52:53Z</time>
      </trkpt>
      <trkpt lat="42.582884011790156" lon="2.511280970647931">
        <ele>560.59000000000003</ele>
        <time>2025-05-15T08:52:54Z</time>
      </trkpt>
      <trkpt lat="42.582769012078643" lon="2.511349031701684">
        <ele>561.07000000000005</ele>
        <time>2025-05-15T08:52:55Z</time>
      </trkpt>
      <trkpt lat="42.582657029852271" lon="2.511414997279644">
        <ele>561.07000000000005</ele>
        <time>2025-05-15T08:52:56Z</time>
      </trkpt>
      <trkpt lat="42.582566002383828" lon="2.511482974514365">
        <ele>561.54999999999995</ele>
        <time>2025-05-15T08:52:57Z</time>
      </trkpt>
      <trkpt lat="42.582486039027572" lon="2.511563021689653">
        <ele>562.02999999999997</ele>
        <time>2025-05-15T08:52:58Z</time>
      </trkpt>
      <trkpt lat="42.582445973530412" lon="2.511655976995826">
        <ele>562.50999999999999</ele>
        <time>2025-05-15T08:52:59Z</time>
      </trkpt>
      <trkpt lat="42.582401968538761" lon="2.511786986142397">
        <ele>563.47000000000003</ele>
        <time>2025-05-15T08:53:00Z</time>
      </trkpt>
      <trkpt lat="42.582372967153788" lon="2.511935010552406">
        <ele>564.42999999999995</ele>
        <time>2025-05-15T08:53:01Z</time>
      </trkpt>
      <trkpt lat="42.582351006567478" lon="2.512111030519009">
        <ele>565.38999999999999</ele>
        <time>2025-05-15T08:53:02Z</time>
      </trkpt>
      <trkpt lat="42.582132993265986" lon="2.513828985393047">
        <ele>568.27999999999997</ele>
        <time>2025-05-15T08:53:10Z</time>
      </trkpt>
      <trkpt lat="42.582001984119415" lon="2.514869011938572">
        <ele>569.24000000000001</ele>
        <time>2025-05-15T08:53:16Z</time>
      </trkpt>
      <trkpt lat="42.581954961642623" lon="2.514949981123209">
        <ele>569.24000000000001</ele>
        <time>2025-05-15T08:53:17Z</time>
      </trkpt>
      <trkpt lat="42.581882961094379" lon="2.515005972236395">
        <ele>568.75999999999999</ele>
        <time>2025-05-15T08:53:18Z</time>
      </trkpt>
      <trkpt lat="42.581799980252981" lon="2.514991974458098">
        <ele>568.75999999999999</ele>
        <time>2025-05-15T08:53:19Z</time>
      </trkpt>
      <trkpt lat="42.581697972491384" lon="2.51497495919466">
        <ele>568.75999999999999</ele>
        <time>2025-05-15T08:53:20Z</time>
      </trkpt>
      <trkpt lat="42.581596970558167" lon="2.514921985566616">
        <ele>568.75999999999999</ele>
        <time>2025-05-15T08:53:21Z</time>
      </trkpt>
      <trkpt lat="42.581503009423614" lon="2.514847973361611">
        <ele>568.27999999999997</ele>
        <time>2025-05-15T08:53:22Z</time>
      </trkpt>
      <trkpt lat="42.581422962248325" lon="2.514753006398678">
        <ele>568.75999999999999</ele>
        <time>2025-05-15T08:53:23Z</time>
      </trkpt>
      <trkpt lat="42.581352973356843" lon="2.514638006687164">
        <ele>568.75999999999999</ele>
        <time>2025-05-15T08:53:24Z</time>
      </trkpt>
      <trkpt lat="42.581287007778883" lon="2.514515966176987">
        <ele>568.75999999999999</ele>
        <time>2025-05-15T08:53:25Z</time>
      </trkpt>
      <trkpt lat="42.581260018050671" lon="2.514387974515557">
        <ele>568.75999999999999</ele>
        <time>2025-05-15T08:53:26Z</time>
      </trkpt>
      <trkpt lat="42.581235961988568" lon="2.514270963147283">
        <ele>569.24000000000001</ele>
        <time>2025-05-15T08:53:27Z</time>
      </trkpt>
      <trkpt lat="42.581214001402259" lon="2.514166021719575">
        <ele>569.24000000000001</ele>
        <time>2025-05-15T08:53:28Z</time>
      </trkpt>
      <trkpt lat="42.581193968653679" lon="2.514068959280849">
        <ele>569.24000000000001</ele>
        <time>2025-05-15T08:53:29Z</time>
      </trkpt>
      <trkpt lat="42.581162033602595" lon="2.513996958732605">
        <ele>569.24000000000001</ele>
        <time>2025-05-15T08:53:30Z</time>
      </trkpt>
      <trkpt lat="42.581077041104436" lon="2.513895034790039">
        <ele>569.72000000000003</ele>
        <time>2025-05-15T08:53:31Z</time>
      </trkpt>
      <trkpt lat="42.581018032506108" lon="2.513880031183362">
        <ele>570.20000000000005</ele>
        <time>2025-05-15T08:53:32Z</time>
      </trkpt>
      <trkpt lat="42.580920970067382" lon="2.513896962627769">
        <ele>571.15999999999997</ele>
        <time>2025-05-15T08:53:33Z</time>
      </trkpt>
      <trkpt lat="42.580836983397603" lon="2.513924958184362">
        <ele>571.63999999999999</ele>
        <time>2025-05-15T08:53:34Z</time>
      </trkpt>
      <trkpt lat="42.580762971192598" lon="2.513980027288199">
        <ele>571.63999999999999</ele>
        <time>2025-05-15T08:53:35Z</time>
      </trkpt>
      <trkpt lat="42.580688036978245" lon="2.51407097093761">
        <ele>571.63999999999999</ele>
        <time>2025-05-15T08:53:36Z</time>
      </trkpt>
      <trkpt lat="42.580621987581253" lon="2.514194017276168">
        <ele>571.63999999999999</ele>
        <time>2025-05-15T08:53:37Z</time>
      </trkpt>
      <trkpt lat="42.58054998703301" lon="2.5143270380795">
        <ele>571.15999999999997</ele>
        <time>2025-05-15T08:53:38Z</time>
      </trkpt>
      <trkpt lat="42.580474968999624" lon="2.514465004205704">
        <ele>571.15999999999997</ele>
        <time>2025-05-15T08:53:39Z</time>
      </trkpt>
      <trkpt lat="42.580395005643368" lon="2.514592995867133">
        <ele>570.67999999999995</ele>
        <time>2025-05-15T08:53:40Z</time>
      </trkpt>
      <trkpt lat="42.580287968739867" lon="2.514664996415377">
        <ele>570.20000000000005</ele>
        <time>2025-05-15T08:53:41Z</time>
      </trkpt>
      <trkpt lat="42.580177998170257" lon="2.51471302472055">
        <ele>570.20000000000005</ele>
        <time>2025-05-15T08:53:42Z</time>
      </trkpt>
      <trkpt lat="42.580051012337208" lon="2.514722999185324">
        <ele>570.20000000000005</ele>
        <time>2025-05-15T08:53:43Z</time>
      </trkpt>
      <trkpt lat="42.579912040382624" lon="2.514732973650098">
        <ele>570.20000000000005</ele>
        <time>2025-05-15T08:53:44Z</time>
      </trkpt>
      <trkpt lat="42.579772984609008" lon="2.514743031933904">
        <ele>569.72000000000003</ele>
        <time>2025-05-15T08:53:45Z</time>
      </trkpt>
      <trkpt lat="42.579634012654424" lon="2.514753006398678">
        <ele>569.24000000000001</ele>
        <time>2025-05-15T08:53:46Z</time>
      </trkpt>
      <trkpt lat="42.579364031553268" lon="2.514773039147258">
        <ele>568.75999999999999</ele>
        <time>2025-05-15T08:53:48Z</time>
      </trkpt>
      <trkpt lat="42.57923997938633" lon="2.514749988913536">
        <ele>568.75999999999999</ele>
        <time>2025-05-15T08:53:49Z</time>
      </trkpt>
      <trkpt lat="42.579041998833418" lon="2.514701038599014">
        <ele>568.27999999999997</ele>
        <time>2025-05-15T08:53:51Z</time>
      </trkpt>
      <trkpt lat="42.578936973586679" lon="2.514721993356943">
        <ele>567.79999999999995</ele>
        <time>2025-05-15T08:53:52Z</time>
      </trkpt>
      <trkpt lat="42.578839994966984" lon="2.514774966984987">
        <ele>567.32000000000005</ele>
        <time>2025-05-15T08:53:53Z</time>
      </trkpt>
      <trkpt lat="42.578737987205386" lon="2.514848979189992">
        <ele>566.83000000000004</ele>
        <time>2025-05-15T08:53:54Z</time>
      </trkpt>
      <trkpt lat="42.578631034120917" lon="2.514935983344913">
        <ele>566.35000000000002</ele>
        <time>2025-05-15T08:53:55Z</time>
      </trkpt>
      <trkpt lat="42.578180003911257" lon="2.515321969985962">
        <ele>566.35000000000002</ele>
        <time>2025-05-15T08:53:59Z</time>
      </trkpt>
      <trkpt lat="42.578084031119943" lon="2.515440993010998">
        <ele>566.83000000000004</ele>
        <time>2025-05-15T08:54:00Z</time>
      </trkpt>
      <trkpt lat="42.577881021425128" lon="2.515692031010985">
        <ele>567.32000000000005</ele>
        <time>2025-05-15T08:54:02Z</time>
      </trkpt>
      <trkpt lat="42.577760992571712" lon="2.51578900963068">
        <ele>567.79999999999995</ele>
        <time>2025-05-15T08:54:03Z</time>
      </trkpt>
      <trkpt lat="42.577633000910282" lon="2.515881964936853">
        <ele>568.27999999999997</ele>
        <time>2025-05-15T08:54:04Z</time>
      </trkpt>
      <trkpt lat="42.577148023992777" lon="2.516267029568553">
        <ele>569.24000000000001</ele>
        <time>2025-05-15T08:54:08Z</time>
      </trkpt>
      <trkpt lat="42.577053979039192" lon="2.5163699593395">
        <ele>569.24000000000001</ele>
        <time>2025-05-15T08:54:09Z</time>
      </trkpt>
      <trkpt lat="42.576988013461232" lon="2.516499040648341">
        <ele>569.72000000000003</ele>
        <time>2025-05-15T08:54:10Z</time>
      </trkpt>
      <trkpt lat="42.576935039833188" lon="2.51664899289608">
        <ele>569.72000000000003</ele>
        <time>2025-05-15T08:54:11Z</time>
      </trkpt>
      <trkpt lat="42.576892040669918" lon="2.516811015084386">
        <ele>569.72000000000003</ele>
        <time>2025-05-15T08:54:12Z</time>
      </trkpt>
      <trkpt lat="42.576862033456564" lon="2.516958033666015">
        <ele>569.72000000000003</ele>
        <time>2025-05-15T08:54:13Z</time>
      </trkpt>
      <trkpt lat="42.576836971566081" lon="2.517075967043638">
        <ele>569.72000000000003</ele>
        <time>2025-05-15T08:54:14Z</time>
      </trkpt>
      <trkpt lat="42.576818028464913" lon="2.517166994512081">
        <ele>569.72000000000003</ele>
        <time>2025-05-15T08:54:15Z</time>
      </trkpt>
      <trkpt lat="42.576794978231192" lon="2.517221979796886">
        <ele>569.72000000000003</ele>
        <time>2025-05-15T08:54:16Z</time>
      </trkpt>
      <trkpt lat="42.576719960197806" lon="2.517232038080692">
        <ele>569.72000000000003</ele>
        <time>2025-05-15T08:54:17Z</time>
      </trkpt>
      <trkpt lat="42.576625999063253" lon="2.517243018373847">
        <ele>569.72000000000003</ele>
        <time>2025-05-15T08:54:18Z</time>
      </trkpt>
      <trkpt lat="42.576518040150404" lon="2.517257016152144">
        <ele>569.72000000000003</ele>
        <time>2025-05-15T08:54:19Z</time>
      </trkpt>
      <trkpt lat="42.576401028782129" lon="2.517272019758821">
        <ele>569.72000000000003</ele>
        <time>2025-05-15T08:54:20Z</time>
      </trkpt>
      <trkpt lat="42.576285023242235" lon="2.517291968688369">
        <ele>569.72000000000003</ele>
        <time>2025-05-15T08:54:21Z</time>
      </trkpt>
      <trkpt lat="42.576190978288651" lon="2.51737997867167">
        <ele>569.72000000000003</ele>
        <time>2025-05-15T08:54:22Z</time>
      </trkpt>
      <trkpt lat="42.576092993840575" lon="2.517471006140113">
        <ele>569.24000000000001</ele>
        <time>2025-05-15T08:54:23Z</time>
      </trkpt>
      <trkpt lat="42.576000960543752" lon="2.517557004466653">
        <ele>569.24000000000001</ele>
        <time>2025-05-15T08:54:24Z</time>
      </trkpt>
      <trkpt lat="42.575939018279314" lon="2.517639985308051">
        <ele>568.75999999999999</ele>
        <time>2025-05-15T08:54:25Z</time>
      </trkpt>
      <trkpt lat="42.575891995802522" lon="2.517721960321069">
        <ele>568.75999999999999</ele>
        <time>2025-05-15T08:54:26Z</time>
      </trkpt>
      <trkpt lat="42.575884032994509" lon="2.517819022759795">
        <ele>568.27999999999997</ele>
        <time>2025-05-15T08:54:27Z</time>
      </trkpt>
      <trkpt lat="42.575884032994509" lon="2.517908038571477">
        <ele>567.79999999999995</ele>
        <time>2025-05-15T08:54:28Z</time>
      </trkpt>
      <trkpt lat="42.575914962217212" lon="2.517957994714379">
        <ele>567.79999999999995</ele>
        <time>2025-05-15T08:54:29Z</time>
      </trkpt>
      <trkpt lat="42.575948992744088" lon="2.518014991655946">
        <ele>567.32000000000005</ele>
        <time>2025-05-15T08:54:30Z</time>
      </trkpt>
      <trkpt lat="42.576010012999177" lon="2.518041981384158">
        <ele>566.83000000000004</ele>
        <time>2025-05-15T08:54:31Z</time>
      </trkpt>
      <trkpt lat="42.576084025204182" lon="2.518075006082654">
        <ele>566.83000000000004</ele>
        <time>2025-05-15T08:54:32Z</time>
      </trkpt>
      <trkpt lat="42.576142027974129" lon="2.518100989982486">
        <ele>566.35000000000002</ele>
        <time>2025-05-15T08:54:33Z</time>
      </trkpt>
      <trkpt lat="42.576182009652257" lon="2.518171984702349">
        <ele>565.87</ele>
        <time>2025-05-15T08:54:34Z</time>
      </trkpt>
      <trkpt lat="42.576212016865611" lon="2.518224036321044">
        <ele>565.38999999999999</ele>
        <time>2025-05-15T08:54:35Z</time>
      </trkpt>
      <trkpt lat="42.576216962188482" lon="2.518287990242243">
        <ele>565.38999999999999</ele>
        <time>2025-05-15T08:54:36Z</time>
      </trkpt>
      <trkpt lat="42.576185027137399" lon="2.518400978296995">
        <ele>564.90999999999997</ele>
        <time>2025-05-15T08:54:37Z</time>
      </trkpt>
      <trkpt lat="42.576134987175465" lon="2.518473984673619">
        <ele>564.42999999999995</ele>
        <time>2025-05-15T08:54:38Z</time>
      </trkpt>
      <trkpt lat="42.576063992455602" lon="2.518576998263598">
        <ele>563.95000000000005</ele>
        <time>2025-05-15T08:54:39Z</time>
      </trkpt>
      <trkpt lat="42.5759950093925" lon="2.518678000196815">
        <ele>563.95000000000005</ele>
        <time>2025-05-15T08:54:40Z</time>
      </trkpt>
      <trkpt lat="42.575936000794172" lon="2.518789982423186">
        <ele>564.42999999999995</ele>
        <time>2025-05-15T08:54:41Z</time>
      </trkpt>
      <trkpt lat="42.575901970267296" lon="2.518906993791461">
        <ele>564.42999999999995</ele>
        <time>2025-05-15T08:54:42Z</time>
      </trkpt>
      <trkpt lat="42.575871963053942" lon="2.519013024866581">
        <ele>564.90999999999997</ele>
        <time>2025-05-15T08:54:43Z</time>
      </trkpt>
      <trkpt lat="42.575847990810871" lon="2.519099023193121">
        <ele>565.38999999999999</ele>
        <time>2025-05-15T08:54:44Z</time>
      </trkpt>
      <trkpt lat="42.575819995254278" lon="2.519194995984435">
        <ele>565.38999999999999</ele>
        <time>2025-05-15T08:54:45Z</time>
      </trkpt>
      <trkpt lat="42.575773978605866" lon="2.519217962399125">
        <ele>565.38999999999999</ele>
        <time>2025-05-15T08:54:46Z</time>
      </trkpt>
      <trkpt lat="42.575664008036256" lon="2.519211005419493">
        <ele>565.87</ele>
        <time>2025-05-15T08:54:47Z</time>
      </trkpt>
      <trkpt lat="42.575628971680999" lon="2.519147973507643">
        <ele>565.87</ele>
        <time>2025-05-15T08:54:48Z</time>
      </trkpt>
      <trkpt lat="42.57558798417449" lon="2.519075972959399">
        <ele>565.87</ele>
        <time>2025-05-15T08:54:49Z</time>
      </trkpt>
      <trkpt lat="42.575540961697698" lon="2.51899198628962">
        <ele>566.35000000000002</ele>
        <time>2025-05-15T08:54:50Z</time>
      </trkpt>
      <trkpt lat="42.575488993898034" lon="2.518911017104983">
        <ele>566.83000000000004</ele>
        <time>2025-05-15T08:54:51Z</time>
      </trkpt>
      <trkpt lat="42.575404001399875" lon="2.518863994628191">
        <ele>567.32000000000005</ele>
        <time>2025-05-15T08:54:52Z</time>
      </trkpt>
      <trkpt lat="42.575305011123419" lon="2.518809009343386">
        <ele>567.79999999999995</ele>
        <time>2025-05-15T08:54:53Z</time>
      </trkpt>
      <trkpt lat="42.575208032503724" lon="2.518790988251567">
        <ele>568.27999999999997</ele>
        <time>2025-05-15T08:54:54Z</time>
      </trkpt>
      <trkpt lat="42.575104013085365" lon="2.518771961331368">
        <ele>568.27999999999997</ele>
        <time>2025-05-15T08:54:55Z</time>
      </trkpt>
      <trkpt lat="42.574996976181865" lon="2.518771039322019">
        <ele>568.27999999999997</ele>
        <time>2025-05-15T08:54:56Z</time>
      </trkpt>
      <trkpt lat="42.574885999783874" lon="2.518777996301651">
        <ele>568.27999999999997</ele>
        <time>2025-05-15T08:54:57Z</time>
      </trkpt>
      <trkpt lat="42.574346037581563" lon="2.518788976594806">
        <ele>569.24000000000001</ele>
        <time>2025-05-15T08:55:02Z</time>
      </trkpt>
      <trkpt lat="42.573839016258717" lon="2.518597031012178">
        <ele>572.12</ele>
        <time>2025-05-15T08:55:07Z</time>
      </trkpt>
      <trkpt lat="42.573751006275415" lon="2.51853802241385">
        <ele>572.60000000000002</ele>
        <time>2025-05-15T08:55:08Z</time>
      </trkpt>
      <trkpt lat="42.573544979095459" lon="2.518400978296995">
        <ele>574.03999999999996</ele>
        <time>2025-05-15T08:55:11Z</time>
      </trkpt>
      <trkpt lat="42.573475996032357" lon="2.51838999800384">
        <ele>574.52999999999997</ele>
        <time>2025-05-15T08:55:12Z</time>
      </trkpt>
      <trkpt lat="42.57341698743403" lon="2.518380023539066">
        <ele>574.52999999999997</ele>
        <time>2025-05-15T08:55:13Z</time>
      </trkpt>
      <trkpt lat="42.57335202768445" lon="2.518423022702336">
        <ele>574.52999999999997</ele>
        <time>2025-05-15T08:55:14Z</time>
      </trkpt>
      <trkpt lat="42.573316991329193" lon="2.518487982451916">
        <ele>574.52999999999997</ele>
        <time>2025-05-15T08:55:15Z</time>
      </trkpt>
      <trkpt lat="42.57326502352953" lon="2.518584961071611">
        <ele>575.00999999999999</ele>
        <time>2025-05-15T08:55:16Z</time>
      </trkpt>
      <trkpt lat="42.573200985789299" lon="2.518703984096646">
        <ele>574.52999999999997</ele>
        <time>2025-05-15T08:55:17Z</time>
      </trkpt>
      <trkpt lat="42.57313602603972" lon="2.518825018778443">
        <ele>575.49000000000001</ele>
        <time>2025-05-15T08:55:18Z</time>
      </trkpt>
      <trkpt lat="42.572983978316188" lon="2.519083013758063">
        <ele>575.49000000000001</ele>
        <time>2025-05-15T08:55:20Z</time>
      </trkpt>
      <trkpt lat="42.5727519672364" lon="2.519431030377746">
        <ele>576.92999999999995</ele>
        <time>2025-05-15T08:55:23Z</time>
      </trkpt>
      <trkpt lat="42.572720032185316" lon="2.519525997340679">
        <ele>576.92999999999995</ele>
        <time>2025-05-15T08:55:24Z</time>
      </trkpt>
      <trkpt lat="42.572625987231731" lon="2.51980796456337">
        <ele>577.88999999999999</ele>
        <time>2025-05-15T08:55:26Z</time>
      </trkpt>
      <trkpt lat="42.572564966976643" lon="2.519954983144999">
        <ele>578.37</ele>
        <time>2025-05-15T08:55:27Z</time>
      </trkpt>
      <trkpt lat="42.572410991415381" lon="2.520263018086553">
        <ele>578.85000000000002</ele>
        <time>2025-05-15T08:55:29Z</time>
      </trkpt>
      <trkpt lat="42.572177974507213" lon="2.520884033292532">
        <ele>580.28999999999996</ele>
        <time>2025-05-15T08:55:33Z</time>
      </trkpt>
      <trkpt lat="42.572078984230757" lon="2.520981011912227">
        <ele>580.76999999999998</ele>
        <time>2025-05-15T08:55:34Z</time>
      </trkpt>
      <trkpt lat="42.571971025317907" lon="2.521086959168315">
        <ele>581.25</ele>
        <time>2025-05-15T08:55:35Z</time>
      </trkpt>
      <trkpt lat="42.571063013747334" lon="2.521978039294481">
        <ele>582.70000000000005</ele>
        <time>2025-05-15T08:55:43Z</time>
      </trkpt>
      <trkpt lat="42.570982966572046" lon="2.52208398655057">
        <ele>582.70000000000005</ele>
        <time>2025-05-15T08:55:44Z</time>
      </trkpt>
      <trkpt lat="42.570918006822467" lon="2.522180965170264">
        <ele>582.70000000000005</ele>
        <time>2025-05-15T08:55:45Z</time>
      </trkpt>
      <trkpt lat="42.570887999609113" lon="2.522266963496804">
        <ele>582.70000000000005</ele>
        <time>2025-05-15T08:55:46Z</time>
      </trkpt>
      <trkpt lat="42.570864027366042" lon="2.522354973480105">
        <ele>582.70000000000005</ele>
        <time>2025-05-15T08:55:47Z</time>
      </trkpt>
      <trkpt lat="42.570841982960701" lon="2.522446000948548">
        <ele>582.70000000000005</ele>
        <time>2025-05-15T08:55:48Z</time>
      </trkpt>
      <trkpt lat="42.570841982960701" lon="2.52270701341331">
        <ele>582.22000000000003</ele>
        <time>2025-05-15T08:55:51Z</time>
      </trkpt>
      <trkpt lat="42.570819016546011" lon="2.522773984819651">
        <ele>582.22000000000003</ele>
        <time>2025-05-15T08:55:52Z</time>
      </trkpt>
      <trkpt lat="42.570777023211122" lon="2.522842967882752">
        <ele>582.22000000000003</ele>
        <time>2025-05-15T08:55:53Z</time>
      </trkpt>
      <trkpt lat="42.570736035704613" lon="2.522842967882752">
        <ele>582.22000000000003</ele>
        <time>2025-05-15T08:55:54Z</time>
      </trkpt>
      <trkpt lat="42.570681972429156" lon="2.522826958447695">
        <ele>581.73000000000002</ele>
        <time>2025-05-15T08:55:55Z</time>
      </trkpt>
      <trkpt lat="42.57064601406455" lon="2.522764010354877">
        <ele>581.73000000000002</ele>
        <time>2025-05-15T08:55:56Z</time>
      </trkpt>
      <trkpt lat="42.570597985759377" lon="2.522682035341859">
        <ele>581.73000000000002</ele>
        <time>2025-05-15T08:55:57Z</time>
      </trkpt>
      <trkpt lat="42.570540988817811" lon="2.522584972903132">
        <ele>581.73000000000002</ele>
        <time>2025-05-15T08:55:58Z</time>
      </trkpt>
      <trkpt lat="42.570468988269567" lon="2.522572986781597">
        <ele>581.25</ele>
        <time>2025-05-15T08:55:59Z</time>
      </trkpt>
      <trkpt lat="42.570375027135015" lon="2.522573992609978">
        <ele>581.25</ele>
        <time>2025-05-15T08:56:00Z</time>
      </trkpt>
      <trkpt lat="42.570277964696288" lon="2.52260098233819">
        <ele>581.25</ele>
        <time>2025-05-15T08:56:01Z</time>
      </trkpt>
      <trkpt lat="42.570170005783439" lon="2.522630989551544">
        <ele>581.25</ele>
        <time>2025-05-15T08:56:02Z</time>
      </trkpt>
      <trkpt lat="42.570057017728686" lon="2.52266300842166">
        <ele>581.25</ele>
        <time>2025-05-15T08:56:03Z</time>
      </trkpt>
      <trkpt lat="42.569718975573778" lon="2.522710030898452">
        <ele>582.22000000000003</ele>
        <time>2025-05-15T08:56:06Z</time>
      </trkpt>
      <trkpt lat="42.569535998627543" lon="2.522748000919819">
        <ele>582.70000000000005</ele>
        <time>2025-05-15T08:56:08Z</time>
      </trkpt>
      <trkpt lat="42.569457041099668" lon="2.522766022011638">
        <ele>582.70000000000005</ele>
        <time>2025-05-15T08:56:09Z</time>
      </trkpt>
      <trkpt lat="42.569389985874295" lon="2.522800974547863">
        <ele>583.17999999999995</ele>
        <time>2025-05-15T08:56:10Z</time>
      </trkpt>
      <trkpt lat="42.569332988932729" lon="2.522895019501448">
        <ele>583.65999999999997</ele>
        <time>2025-05-15T08:56:11Z</time>
      </trkpt>
      <trkpt lat="42.569268029183149" lon="2.523000966757536">
        <ele>584.13999999999999</ele>
        <time>2025-05-15T08:56:12Z</time>
      </trkpt>
      <trkpt lat="42.569197034463286" lon="2.52311596646905">
        <ele>585.10000000000002</ele>
        <time>2025-05-15T08:56:13Z</time>
      </trkpt>
      <trkpt lat="42.568956976756454" lon="2.523484015837312">
        <ele>586.05999999999995</ele>
        <time>2025-05-15T08:56:16Z</time>
      </trkpt>
      <trkpt lat="42.568873995915055" lon="2.523565990850329">
        <ele>586.05999999999995</ele>
        <time>2025-05-15T08:56:17Z</time>
      </trkpt>
      <trkpt lat="42.568591022863984" lon="2.523745028302074">
        <ele>587.98000000000002</ele>
        <time>2025-05-15T08:56:20Z</time>
      </trkpt>
      <trkpt lat="42.568478034809232" lon="2.523807976394892">
        <ele>587.98000000000002</ele>
        <time>2025-05-15T08:56:21Z</time>
      </trkpt>
      <trkpt lat="42.568362029269338" lon="2.523857010528445">
        <ele>588.46000000000004</ele>
        <time>2025-05-15T08:56:22Z</time>
      </trkpt>
      <trkpt lat="42.568247029557824" lon="2.523896992206574">
        <ele>588.46000000000004</ele>
        <time>2025-05-15T08:56:23Z</time>
      </trkpt>
      <trkpt lat="42.568130018189549" lon="2.523937979713082">
        <ele>588.46000000000004</ele>
        <time>2025-05-15T08:56:24Z</time>
      </trkpt>
      <trkpt lat="42.568020969629288" lon="2.523976033553481">
        <ele>588.95000000000005</ele>
        <time>2025-05-15T08:56:25Z</time>
      </trkpt>
      <trkpt lat="42.567932037636638" lon="2.524047028273344">
        <ele>588.95000000000005</ele>
        <time>2025-05-15T08:56:26Z</time>
      </trkpt>
      <trkpt lat="42.567847967147827" lon="2.524121962487698">
        <ele>588.95000000000005</ele>
        <time>2025-05-15T08:56:27Z</time>
      </trkpt>
      <trkpt lat="42.567786024883389" lon="2.524224976077676">
        <ele>589.42999999999995</ele>
        <time>2025-05-15T08:56:28Z</time>
      </trkpt>
      <trkpt lat="42.567722992971539" lon="2.524337964132428">
        <ele>589.42999999999995</ele>
        <time>2025-05-15T08:56:29Z</time>
      </trkpt>
      <trkpt lat="42.567661972716451" lon="2.524451036006212">
        <ele>589.42999999999995</ele>
        <time>2025-05-15T08:56:30Z</time>
      </trkpt>
      <trkpt lat="42.567603969946504" lon="2.524554971605539">
        <ele>589.42999999999995</ele>
        <time>2025-05-15T08:56:31Z</time>
      </trkpt>
      <trkpt lat="42.567514032125473" lon="2.524609034880996">
        <ele>589.42999999999995</ele>
        <time>2025-05-15T08:56:32Z</time>
      </trkpt>
      <trkpt lat="42.567417975515127" lon="2.524663014337421">
        <ele>589.42999999999995</ele>
        <time>2025-05-15T08:56:33Z</time>
      </trkpt>
      <trkpt lat="42.567329965531826" lon="2.524711964651942">
        <ele>589.42999999999995</ele>
        <time>2025-05-15T08:56:34Z</time>
      </trkpt>
      <trkpt lat="42.567257964983582" lon="2.524753035977483">
        <ele>589.42999999999995</ele>
        <time>2025-05-15T08:56:35Z</time>
      </trkpt>
      <trkpt lat="42.567198034375906" lon="2.524844985455275">
        <ele>589.42999999999995</ele>
        <time>2025-05-15T08:56:36Z</time>
      </trkpt>
      <trkpt lat="42.567129973322153" lon="2.524949004873633">
        <ele>588.95000000000005</ele>
        <time>2025-05-15T08:56:37Z</time>
      </trkpt>
      <trkpt lat="42.567054033279419" lon="2.525064004585147">
        <ele>588.46000000000004</ele>
        <time>2025-05-15T08:56:38Z</time>
      </trkpt>
      <trkpt lat="42.566967029124498" lon="2.52519803121686">
        <ele>587.98000000000002</ele>
        <time>2025-05-15T08:56:39Z</time>
      </trkpt>
      <trkpt lat="42.566873989999294" lon="2.525339014828205">
        <ele>587.5</ele>
        <time>2025-05-15T08:56:40Z</time>
      </trkpt>
      <trkpt lat="42.566787991672754" lon="2.525489972904325">
        <ele>586.53999999999996</ele>
        <time>2025-05-15T08:56:41Z</time>
      </trkpt>
      <trkpt lat="42.566338973119855" lon="2.526312991976738">
        <ele>583.65999999999997</ele>
        <time>2025-05-15T08:56:47Z</time>
      </trkpt>
      <trkpt lat="42.566268984228373" lon="2.526376023888588">
        <ele>583.17999999999995</ele>
        <time>2025-05-15T08:56:48Z</time>
      </trkpt>
      <trkpt lat="42.566201006993651" lon="2.526434026658535">
        <ele>582.70000000000005</ele>
        <time>2025-05-15T08:56:49Z</time>
      </trkpt>
      <trkpt lat="42.566134035587311" lon="2.526450036093593">
        <ele>581.73000000000002</ele>
        <time>2025-05-15T08:56:50Z</time>
      </trkpt>
      <trkpt lat="42.566062035039067" lon="2.526453975588083">
        <ele>581.73000000000002</ele>
        <time>2025-05-15T08:56:51Z</time>
      </trkpt>
      <trkpt lat="42.565991040319204" lon="2.526457998901606">
        <ele>581.25</ele>
        <time>2025-05-15T08:56:52Z</time>
      </trkpt>
      <trkpt lat="42.56592096760869" lon="2.526462022215128">
        <ele>580.76999999999998</ele>
        <time>2025-05-15T08:56:53Z</time>
      </trkpt>
      <trkpt lat="42.565241027623415" lon="2.526321038603783">
        <ele>576.92999999999995</ele>
        <time>2025-05-15T08:57:03Z</time>
      </trkpt>
      <trkpt lat="42.565112030133605" lon="2.526238979771733">
        <ele>575.97000000000003</ele>
        <time>2025-05-15T08:57:05Z</time>
      </trkpt>
      <trkpt lat="42.565035000443459" lon="2.526206038892269">
        <ele>575.49000000000001</ele>
        <time>2025-05-15T08:57:06Z</time>
      </trkpt>
      <trkpt lat="42.564894016832113" lon="2.526180977001786">
        <ele>575.00999999999999</ele>
        <time>2025-05-15T08:57:08Z</time>
      </trkpt>
      <trkpt lat="42.564824027940631" lon="2.52616798505187">
        <ele>575.00999999999999</ele>
        <time>2025-05-15T08:57:09Z</time>
      </trkpt>
      <trkpt lat="42.564625041559339" lon="2.526174020022154">
        <ele>574.52999999999997</ele>
        <time>2025-05-15T08:57:12Z</time>
      </trkpt>
      <trkpt lat="42.564503001049161" lon="2.526215007528663">
        <ele>574.52999999999997</ele>
        <time>2025-05-15T08:57:14Z</time>
      </trkpt>
      <trkpt lat="42.564446004107594" lon="2.526235040277243">
        <ele>574.52999999999997</ele>
        <time>2025-05-15T08:57:15Z</time>
      </trkpt>
      <trkpt lat="42.564396969974041" lon="2.526283990591765">
        <ele>575.00999999999999</ele>
        <time>2025-05-15T08:57:16Z</time>
      </trkpt>
      <trkpt lat="42.564347013831139" lon="2.526345010846853">
        <ele>575.00999999999999</ele>
        <time>2025-05-15T08:57:17Z</time>
      </trkpt>
      <trkpt lat="42.56430895999074" lon="2.526416005566716">
        <ele>575.49000000000001</ele>
        <time>2025-05-15T08:57:18Z</time>
      </trkpt>
      <trkpt lat="42.564233019948006" lon="2.5265549775213">
        <ele>575.97000000000003</ele>
        <time>2025-05-15T08:57:20Z</time>
      </trkpt>
      <trkpt lat="42.564182979986072" lon="2.526629995554686">
        <ele>575.97000000000003</ele>
        <time>2025-05-15T08:57:21Z</time>
      </trkpt>
      <trkpt lat="42.564104022458196" lon="2.526748012751341">
        <ele>576.45000000000005</ele>
        <time>2025-05-15T08:57:23Z</time>
      </trkpt>
      <trkpt lat="42.564038978889585" lon="2.526801992207766">
        <ele>576.92999999999995</ele>
        <time>2025-05-15T08:57:24Z</time>
      </trkpt>
      <trkpt lat="42.563983993604779" lon="2.526848008856177">
        <ele>577.40999999999997</ele>
        <time>2025-05-15T08:57:25Z</time>
      </trkpt>
      <trkpt lat="42.563936971127987" lon="2.526844991371036">
        <ele>577.40999999999997</ele>
        <time>2025-05-15T08:57:26Z</time>
      </trkpt>
      <trkpt lat="42.563866982236505" lon="2.526825964450836">
        <ele>577.88999999999999</ele>
        <time>2025-05-15T08:57:27Z</time>
      </trkpt>
      <trkpt lat="42.563796993345022" lon="2.526807021349669">
        <ele>577.88999999999999</ele>
        <time>2025-05-15T08:57:28Z</time>
      </trkpt>
      <trkpt lat="42.563482001423836" lon="2.526722028851509">
        <ele>579.80999999999995</ele>
        <time>2025-05-15T08:57:32Z</time>
      </trkpt>
      <trkpt lat="42.563400026410818" lon="2.526700990274549">
        <ele>580.28999999999996</ele>
        <time>2025-05-15T08:57:33Z</time>
      </trkpt>
      <trkpt lat="42.563316039741039" lon="2.526687998324633">
        <ele>580.76999999999998</ele>
        <time>2025-05-15T08:57:34Z</time>
      </trkpt>
      <trkpt lat="42.563223000615835" lon="2.526715993881226">
        <ele>581.73000000000002</ele>
        <time>2025-05-15T08:57:35Z</time>
      </trkpt>
      <trkpt lat="42.563114035874605" lon="2.526752036064863">
        <ele>583.17999999999995</ele>
        <time>2025-05-15T08:57:36Z</time>
      </trkpt>
      <trkpt lat="42.563032982870936" lon="2.526844991371036">
        <ele>584.13999999999999</ele>
        <time>2025-05-15T08:57:37Z</time>
      </trkpt>
      <trkpt lat="42.562952013686299" lon="2.52693903632462">
        <ele>585.58000000000004</ele>
        <time>2025-05-15T08:57:38Z</time>
      </trkpt>
      <trkpt lat="42.562391012907028" lon="2.527689971029759">
        <ele>592.30999999999995</ele>
        <time>2025-05-15T08:57:46Z</time>
      </trkpt>
      <trkpt lat="42.562328986823559" lon="2.527786027640104">
        <ele>593.26999999999998</ele>
        <time>2025-05-15T08:57:47Z</time>
      </trkpt>
      <trkpt lat="42.562257992103696" lon="2.527895998209715">
        <ele>594.23000000000002</ele>
        <time>2025-05-15T08:57:48Z</time>
      </trkpt>
      <trkpt lat="42.562186997383833" lon="2.528038993477821">
        <ele>595.66999999999996</ele>
        <time>2025-05-15T08:57:49Z</time>
      </trkpt>
      <trkpt lat="42.562118014320731" lon="2.528191963210702">
        <ele>597.12</ele>
        <time>2025-05-15T08:57:50Z</time>
      </trkpt>
      <trkpt lat="42.562044002115726" lon="2.528352979570627">
        <ele>599.03999999999996</ele>
        <time>2025-05-15T08:57:51Z</time>
      </trkpt>
      <trkpt lat="42.561798999086022" lon="2.528803003951907">
        <ele>604.80999999999995</ele>
        <time>2025-05-15T08:57:54Z</time>
      </trkpt>
      <trkpt lat="42.561262976378202" lon="2.529551004990935">
        <ele>611.05999999999995</ele>
        <time>2025-05-15T08:57:59Z</time>
      </trkpt>
      <trkpt lat="42.56089098751545" lon="2.530213007703424">
        <ele>615.86000000000001</ele>
        <time>2025-05-15T08:58:03Z</time>
      </trkpt>
      <trkpt lat="42.560814041644335" lon="2.530385004356504">
        <ele>617.29999999999995</ele>
        <time>2025-05-15T08:58:04Z</time>
      </trkpt>
      <trkpt lat="42.560602985322475" lon="2.530794963240624">
        <ele>621.14999999999998</ele>
        <time>2025-05-15T08:58:07Z</time>
      </trkpt>
      <trkpt lat="42.560541965067387" lon="2.530854977667332">
        <ele>622.59000000000003</ele>
        <time>2025-05-15T08:58:08Z</time>
      </trkpt>
      <trkpt lat="42.56046200171113" lon="2.530909040942788">
        <ele>624.02999999999997</ele>
        <time>2025-05-15T08:58:09Z</time>
      </trkpt>
      <trkpt lat="42.560385977849364" lon="2.530962014570832">
        <ele>625.47000000000003</ele>
        <time>2025-05-15T08:58:10Z</time>
      </trkpt>
      <trkpt lat="42.56030903197825" lon="2.531014988198876">
        <ele>626.44000000000005</ele>
        <time>2025-05-15T08:58:11Z</time>
      </trkpt>
      <trkpt lat="42.56022403948009" lon="2.531120013445616">
        <ele>627.39999999999998</ele>
        <time>2025-05-15T08:58:12Z</time>
      </trkpt>
      <trkpt lat="42.560191014781594" lon="2.531235013157129">
        <ele>628.36000000000001</ele>
        <time>2025-05-15T08:58:13Z</time>
      </trkpt>
      <trkpt lat="42.560153966769576" lon="2.531360993161798">
        <ele>629.32000000000005</ele>
        <time>2025-05-15T08:58:14Z</time>
      </trkpt>
      <trkpt lat="42.560035027563572" lon="2.531625023111701">
        <ele>631.24000000000001</ele>
        <time>2025-05-15T08:58:16Z</time>
      </trkpt>
      <trkpt lat="42.559964032843709" lon="2.531767012551427">
        <ele>632.20000000000005</ele>
        <time>2025-05-15T08:58:17Z</time>
      </trkpt>
      <trkpt lat="42.55981701426208" lon="2.532060965895653">
        <ele>633.64999999999998</ele>
        <time>2025-05-15T08:58:19Z</time>
      </trkpt>
      <trkpt lat="42.559275962412357" lon="2.533035026863217">
        <ele>639.40999999999997</ele>
        <time>2025-05-15T08:58:26Z</time>
      </trkpt>
      <trkpt lat="42.559190969914198" lon="2.533098980784416">
        <ele>639.88999999999999</ele>
        <time>2025-05-15T08:58:27Z</time>
      </trkpt>
      <trkpt lat="42.559105977416039" lon="2.533090012148023">
        <ele>640.86000000000001</ele>
        <time>2025-05-15T08:58:28Z</time>
      </trkpt>
      <trkpt lat="42.558774976059794" lon="2.533051958307624">
        <ele>642.29999999999995</ele>
        <time>2025-05-15T08:58:31Z</time>
      </trkpt>
      <trkpt lat="42.558631980791688" lon="2.533035026863217">
        <ele>643.25999999999999</ele>
        <time>2025-05-15T08:58:32Z</time>
      </trkpt>
      <trkpt lat="42.558512035757303" lon="2.533081965520978">
        <ele>643.74000000000001</ele>
        <time>2025-05-15T08:58:33Z</time>
      </trkpt>
      <trkpt lat="42.558385971933603" lon="2.533132005482912">
        <ele>644.70000000000005</ele>
        <time>2025-05-15T08:58:34Z</time>
      </trkpt>
      <trkpt lat="42.558260997757316" lon="2.533181039616466">
        <ele>645.17999999999995</ele>
        <time>2025-05-15T08:58:35Z</time>
      </trkpt>
      <trkpt lat="42.558132000267506" lon="2.533232001587749">
        <ele>646.13999999999999</ele>
        <time>2025-05-15T08:58:36Z</time>
      </trkpt>
      <trkpt lat="42.558008031919599" lon="2.533284975215793">
        <ele>646.62</ele>
        <time>2025-05-15T08:58:37Z</time>
      </trkpt>
      <trkpt lat="42.557892026379704" lon="2.533349012956023">
        <ele>647.10000000000002</ele>
        <time>2025-05-15T08:58:38Z</time>
      </trkpt>
      <trkpt lat="42.557575022801757" lon="2.533526960760355">
        <ele>649.02999999999997</ele>
        <time>2025-05-15T08:58:41Z</time>
      </trkpt>
      <trkpt lat="42.55747502669692" lon="2.533564008772373">
        <ele>649.50999999999999</ele>
        <time>2025-05-15T08:58:42Z</time>
      </trkpt>
      <trkpt lat="42.557381987571716" lon="2.533528972417116">
        <ele>649.99000000000001</ele>
        <time>2025-05-15T08:58:43Z</time>
      </trkpt>
      <trkpt lat="42.557284003123641" lon="2.533457977697253">
        <ele>650.47000000000003</ele>
        <time>2025-05-15T08:58:44Z</time>
      </trkpt>
      <trkpt lat="42.557237986475229" lon="2.533399974927306">
        <ele>651.42999999999995</ele>
        <time>2025-05-15T08:58:45Z</time>
      </trkpt>
      <trkpt lat="42.557164980098605" lon="2.533224038779736">
        <ele>652.38999999999999</ele>
        <time>2025-05-15T08:58:46Z</time>
      </trkpt>
      <trkpt lat="42.5571099948138" lon="2.533091017976403">
        <ele>653.35000000000002</ele>
        <time>2025-05-15T08:58:47Z</time>
      </trkpt>
      <trkpt lat="42.557051992043853" lon="2.532951040193439">
        <ele>654.30999999999995</ele>
        <time>2025-05-15T08:58:48Z</time>
      </trkpt>
      <trkpt lat="42.556905979290605" lon="2.532704025506973">
        <ele>656.24000000000001</ele>
        <time>2025-05-15T08:58:50Z</time>
      </trkpt>
      <trkpt lat="42.55680900067091" lon="2.532606963068247">
        <ele>656.72000000000003</ele>
        <time>2025-05-15T08:58:51Z</time>
      </trkpt>
      <trkpt lat="42.556707998737693" lon="2.53250596113503">
        <ele>658.15999999999997</ele>
        <time>2025-05-15T08:58:52Z</time>
      </trkpt>
      <trkpt lat="42.55659400485456" lon="2.532391967251897">
        <ele>659.12</ele>
        <time>2025-05-15T08:58:53Z</time>
      </trkpt>
      <trkpt lat="42.556484034284949" lon="2.532327007502317">
        <ele>660.55999999999995</ele>
        <time>2025-05-15T08:58:54Z</time>
      </trkpt>
      <trkpt lat="42.556130988523364" lon="2.532206978648901">
        <ele>663.92999999999995</ele>
        <time>2025-05-15T08:58:57Z</time>
      </trkpt>
      <trkpt lat="42.556027974933386" lon="2.532221982255578">
        <ele>665.37</ele>
        <time>2025-05-15T08:58:58Z</time>
      </trkpt>
      <trkpt lat="42.555919010192156" lon="2.532274033874273">
        <ele>666.33000000000004</ele>
        <time>2025-05-15T08:58:59Z</time>
      </trkpt>
      <trkpt lat="42.555801998823881" lon="2.532328013330698">
        <ele>667.76999999999998</ele>
        <time>2025-05-15T08:59:00Z</time>
      </trkpt>
      <trkpt lat="42.555689010769129" lon="2.532392973080277">
        <ele>668.73000000000002</ele>
        <time>2025-05-15T08:59:01Z</time>
      </trkpt>
      <trkpt lat="42.555579962208867" lon="2.532494980841875">
        <ele>669.70000000000005</ele>
        <time>2025-05-15T08:59:02Z</time>
      </trkpt>
      <trkpt lat="42.555477032437921" lon="2.532591037452221">
        <ele>670.65999999999997</ele>
        <time>2025-05-15T08:59:03Z</time>
      </trkpt>
      <trkpt lat="42.555386004969478" lon="2.532679969444871">
        <ele>671.62</ele>
        <time>2025-05-15T08:59:04Z</time>
      </trkpt>
      <trkpt lat="42.555311992764473" lon="2.532798992469907">
        <ele>672.58000000000004</ele>
        <time>2025-05-15T08:59:05Z</time>
      </trkpt>
      <trkpt lat="42.555235968902707" lon="2.532919021323323">
        <ele>673.05999999999995</ele>
        <time>2025-05-15T08:59:06Z</time>
      </trkpt>
      <trkpt lat="42.555153993889689" lon="2.533050030469894">
        <ele>673.53999999999996</ele>
        <time>2025-05-15T08:59:07Z</time>
      </trkpt>
      <trkpt lat="42.554988032206893" lon="2.533312970772386">
        <ele>674.98000000000002</ele>
        <time>2025-05-15T08:59:09Z</time>
      </trkpt>
      <trkpt lat="42.55491997115314" lon="2.533422019332647">
        <ele>675.94000000000005</ele>
        <time>2025-05-15T08:59:10Z</time>
      </trkpt>
      <trkpt lat="42.55487697198987" lon="2.533563002943993">
        <ele>676.41999999999996</ele>
        <time>2025-05-15T08:59:11Z</time>
      </trkpt>
      <trkpt lat="42.554835984483361" lon="2.533697029575706">
        <ele>676.90999999999997</ele>
        <time>2025-05-15T08:59:12Z</time>
      </trkpt>
      <trkpt lat="42.554792985320091" lon="2.533841030672193">
        <ele>677.38999999999999</ele>
        <time>2025-05-15T08:59:13Z</time>
      </trkpt>
      <trkpt lat="42.55472500808537" lon="2.533995006233454">
        <ele>677.38999999999999</ele>
        <time>2025-05-15T08:59:14Z</time>
      </trkpt>
      <trkpt lat="42.554643033072352" lon="2.534140013158321">
        <ele>677.87</ele>
        <time>2025-05-15T08:59:15Z</time>
      </trkpt>
      <trkpt lat="42.554560974240303" lon="2.534285020083189">
        <ele>677.87</ele>
        <time>2025-05-15T08:59:16Z</time>
      </trkpt>
      <trkpt lat="42.554486962035298" lon="2.534419968724251">
        <ele>678.35000000000002</ele>
        <time>2025-05-15T08:59:17Z</time>
      </trkpt>
      <trkpt lat="42.554436000064015" lon="2.534562963992357">
        <ele>678.35000000000002</ele>
        <time>2025-05-15T08:59:18Z</time>
      </trkpt>
      <trkpt lat="42.554346984252334" lon="2.534855995327234">
        <ele>678.83000000000004</ele>
        <time>2025-05-15T08:59:20Z</time>
      </trkpt>
      <trkpt lat="42.554318988695741" lon="2.535008965060115">
        <ele>678.83000000000004</ele>
        <time>2025-05-15T08:59:21Z</time>
      </trkpt>
      <trkpt lat="42.554325023666024" lon="2.535142991691828">
        <ele>679.30999999999995</ele>
        <time>2025-05-15T08:59:22Z</time>
      </trkpt>
      <trkpt lat="42.554329968988895" lon="2.535264026373625">
        <ele>679.30999999999995</ele>
        <time>2025-05-15T08:59:23Z</time>
      </trkpt>
      <trkpt lat="42.554334998130798" lon="2.535376008599997">
        <ele>679.30999999999995</ele>
        <time>2025-05-15T08:59:24Z</time>
      </trkpt>
      <trkpt lat="42.554341033101082" lon="2.535502994433045">
        <ele>679.78999999999996</ele>
        <time>2025-05-15T08:59:25Z</time>
      </trkpt>
      <trkpt lat="42.554284958168864" lon="2.535588992759585">
        <ele>680.26999999999998</ele>
        <time>2025-05-15T08:59:26Z</time>
      </trkpt>
      <trkpt lat="42.554215975105762" lon="2.535694018006325">
        <ele>680.26999999999998</ele>
        <time>2025-05-15T08:59:27Z</time>
      </trkpt>
      <trkpt lat="42.554141962900758" lon="2.535808011889458">
        <ele>680.26999999999998</ele>
        <time>2025-05-15T08:59:28Z</time>
      </trkpt>
      <trkpt lat="42.554050013422966" lon="2.53594103269279">
        <ele>680.75</ele>
        <time>2025-05-15T08:59:29Z</time>
      </trkpt>
      <trkpt lat="42.553854966536164" lon="2.536086961627007">
        <ele>680.75</ele>
        <time>2025-05-15T08:59:31Z</time>
      </trkpt>
      <trkpt lat="42.55369202233851" lon="2.536209002137184">
        <ele>681.23000000000002</ele>
        <time>2025-05-15T08:59:33Z</time>
      </trkpt>
      <trkpt lat="42.553632007911801" lon="2.536263987421989">
        <ele>681.71000000000004</ele>
        <time>2025-05-15T08:59:34Z</time>
      </trkpt>
      <trkpt lat="42.553621027618647" lon="2.536363983526826">
        <ele>682.19000000000005</ele>
        <time>2025-05-15T08:59:35Z</time>
      </trkpt>
      <trkpt lat="42.553623961284757" lon="2.536456016823649">
        <ele>682.66999999999996</ele>
        <time>2025-05-15T08:59:36Z</time>
      </trkpt>
      <trkpt lat="42.553684981539845" lon="2.536503039300442">
        <ele>683.14999999999998</ele>
        <time>2025-05-15T08:59:37Z</time>
      </trkpt>
      <trkpt lat="42.553756982088089" lon="2.536546960473061">
        <ele>683.63</ele>
        <time>2025-05-15T08:59:38Z</time>
      </trkpt>
      <trkpt lat="42.553829988464713" lon="2.536590965464711">
        <ele>684.12</ele>
        <time>2025-05-15T08:59:39Z</time>
      </trkpt>
      <trkpt lat="42.553911963477731" lon="2.536639999598265">
        <ele>684.60000000000002</ele>
        <time>2025-05-15T08:59:40Z</time>
      </trkpt>
      <trkpt lat="42.553915986791253" lon="2.536712000146508">
        <ele>685.08000000000004</ele>
        <time>2025-05-15T08:59:41Z</time>
      </trkpt>
      <trkpt lat="42.553921015933156" lon="2.536800010129809">
        <ele>685.55999999999995</ele>
        <time>2025-05-15T08:59:42Z</time>
      </trkpt>
      <trkpt lat="42.553926967084408" lon="2.536894977092743">
        <ele>686.03999999999996</ele>
        <time>2025-05-15T08:59:43Z</time>
      </trkpt>
      <trkpt lat="42.553934007883072" lon="2.537005031481385">
        <ele>686.51999999999998</ele>
        <time>2025-05-15T08:59:44Z</time>
      </trkpt>
      <trkpt lat="42.553941970691085" lon="2.537140985950828">
        <ele>686.51999999999998</ele>
        <time>2025-05-15T08:59:45Z</time>
      </trkpt>
      <trkpt lat="42.553952028974891" lon="2.53729403950274">
        <ele>687</ele>
        <time>2025-05-15T08:59:46Z</time>
      </trkpt>
      <trkpt lat="42.553969966247678" lon="2.537590004503727">
        <ele>687.96000000000004</ele>
        <time>2025-05-15T08:59:48Z</time>
      </trkpt>
      <trkpt lat="42.55397298373282" lon="2.537709027528763">
        <ele>688.91999999999996</ele>
        <time>2025-05-15T08:59:49Z</time>
      </trkpt>
      <trkpt lat="42.553925039246678" lon="2.537981020286679">
        <ele>691.33000000000004</ele>
        <time>2025-05-15T08:59:51Z</time>
      </trkpt>
      <trkpt lat="42.553884973749518" lon="2.538110017776489">
        <ele>692.28999999999996</ele>
        <time>2025-05-15T08:59:52Z</time>
      </trkpt>
      <trkpt lat="42.553823031485081" lon="2.538233986124396">
        <ele>693.25</ele>
        <time>2025-05-15T08:59:53Z</time>
      </trkpt>
      <trkpt lat="42.553761005401611" lon="2.538358038291335">
        <ele>694.21000000000004</ele>
        <time>2025-05-15T08:59:54Z</time>
      </trkpt>
      <trkpt lat="42.553700990974903" lon="2.53847798332572">
        <ele>695.16999999999996</ele>
        <time>2025-05-15T08:59:55Z</time>
      </trkpt>
      <trkpt lat="42.553657991811633" lon="2.538602035492659">
        <ele>696.13</ele>
        <time>2025-05-15T08:59:56Z</time>
      </trkpt>
      <trkpt lat="42.55362899042666" lon="2.538726003840566">
        <ele>696.61000000000001</ele>
        <time>2025-05-15T08:59:57Z</time>
      </trkpt>
      <trkpt lat="42.553599989041686" lon="2.538847038522363">
        <ele>697.57000000000005</ele>
        <time>2025-05-15T08:59:58Z</time>
      </trkpt>
      <trkpt lat="42.553567970171571" lon="2.538978969678283">
        <ele>698.04999999999995</ele>
        <time>2025-05-15T08:59:59Z</time>
      </trkpt>
      <trkpt lat="42.553506027907133" lon="2.539022974669933">
        <ele>699.01999999999998</ele>
        <time>2025-05-15T09:00:00Z</time>
      </trkpt>
      <trkpt lat="42.553447019308805" lon="2.539063962176442">
        <ele>699.5</ele>
        <time>2025-05-15T09:00:01Z</time>
      </trkpt>
      <trkpt lat="42.553353980183601" lon="2.539129005745053">
        <ele>699.98000000000002</ele>
        <time>2025-05-15T09:00:02Z</time>
      </trkpt>
      <trkpt lat="42.553258007392287" lon="2.539103021845222">
        <ele>699.98000000000002</ele>
        <time>2025-05-15T09:00:03Z</time>
      </trkpt>
      <trkpt lat="42.553152982145548" lon="2.539074020460248">
        <ele>700.46000000000004</ele>
        <time>2025-05-15T09:00:04Z</time>
      </trkpt>
      <trkpt lat="42.553038988262415" lon="2.539042001590133">
        <ele>700.94000000000005</ele>
        <time>2025-05-15T09:00:05Z</time>
      </trkpt>
      <trkpt lat="42.552802031859756" lon="2.538976036012173">
        <ele>702.38</ele>
        <time>2025-05-15T09:00:07Z</time>
      </trkpt>
      <trkpt lat="42.552677979692817" lon="2.538942005485296">
        <ele>702.86000000000001</ele>
        <time>2025-05-15T09:00:08Z</time>
      </trkpt>
      <trkpt lat="42.552564991638064" lon="2.538919961079955">
        <ele>703.82000000000005</ele>
        <time>2025-05-15T09:00:09Z</time>
      </trkpt>
      <trkpt lat="42.552433982491493" lon="2.538961032405496">
        <ele>704.29999999999995</ele>
        <time>2025-05-15T09:00:10Z</time>
      </trkpt>
      <trkpt lat="42.552312025800347" lon="2.539000008255243">
        <ele>704.77999999999997</ele>
        <time>2025-05-15T09:00:11Z</time>
      </trkpt>
      <trkpt lat="42.552173975855112" lon="2.539043007418513">
        <ele>705.25999999999999</ele>
        <time>2025-05-15T09:00:12Z</time>
      </trkpt>
      <trkpt lat="42.55210499279201" lon="2.539130011573434">
        <ele>706.23000000000002</ele>
        <time>2025-05-15T09:00:13Z</time>
      </trkpt>
      <trkpt lat="42.552022011950612" lon="2.539235958829522">
        <ele>706.71000000000004</ele>
        <time>2025-05-15T09:00:14Z</time>
      </trkpt>
      <trkpt lat="42.551368977874517" lon="2.53981196321547">
        <ele>709.11000000000001</ele>
        <time>2025-05-15T09:00:20Z</time>
      </trkpt>
      <trkpt lat="42.551179965957999" lon="2.540073981508613">
        <ele>710.07000000000005</ele>
        <time>2025-05-15T09:00:22Z</time>
      </trkpt>
      <trkpt lat="42.551121041178703" lon="2.540209013968706">
        <ele>710.54999999999995</ele>
        <time>2025-05-15T09:00:23Z</time>
      </trkpt>
      <trkpt lat="42.551055997610092" lon="2.540369024500251">
        <ele>711.02999999999997</ele>
        <time>2025-05-15T09:00:24Z</time>
      </trkpt>
      <trkpt lat="42.551035964861512" lon="2.540530962869525">
        <ele>711.50999999999999</ele>
        <time>2025-05-15T09:00:25Z</time>
      </trkpt>
      <trkpt lat="42.551017021760345" lon="2.54069197922945">
        <ele>711.99000000000001</ele>
        <time>2025-05-15T09:00:26Z</time>
      </trkpt>
      <trkpt lat="42.550972010940313" lon="2.541081989184022">
        <ele>713.91999999999996</ele>
        <time>2025-05-15T09:00:29Z</time>
      </trkpt>
      <trkpt lat="42.550933035090566" lon="2.541159018874168">
        <ele>714.39999999999998</ele>
        <time>2025-05-15T09:00:30Z</time>
      </trkpt>
      <trkpt lat="42.550894981250167" lon="2.541235964745283">
        <ele>715.36000000000001</ele>
        <time>2025-05-15T09:00:31Z</time>
      </trkpt>
      <trkpt lat="42.550817029550672" lon="2.54126999527216">
        <ele>715.84000000000003</ele>
        <time>2025-05-15T09:00:32Z</time>
      </trkpt>
      <trkpt lat="42.550720972940326" lon="2.541292039677501">
        <ele>716.79999999999995</ele>
        <time>2025-05-15T09:00:33Z</time>
      </trkpt>
      <trkpt lat="42.550606979057193" lon="2.541318023577333">
        <ele>717.27999999999997</ele>
        <time>2025-05-15T09:00:34Z</time>
      </trkpt>
      <trkpt lat="42.550487034022808" lon="2.541346019133925">
        <ele>717.75999999999999</ele>
        <time>2025-05-15T09:00:35Z</time>
      </trkpt>
      <trkpt lat="42.55036499351263" lon="2.541374014690518">
        <ele>718.24000000000001</ele>
        <time>2025-05-15T09:00:36Z</time>
      </trkpt>
      <trkpt lat="42.550243958830833" lon="2.541439980268478">
        <ele>718.72000000000003</ele>
        <time>2025-05-15T09:00:37Z</time>
      </trkpt>
      <trkpt lat="42.550124013796449" lon="2.541522039100528">
        <ele>719.20000000000005</ele>
        <time>2025-05-15T09:00:38Z</time>
      </trkpt>
      <trkpt lat="42.549906000494957" lon="2.54168095998466">
        <ele>720.64999999999998</ele>
        <time>2025-05-15T09:00:40Z</time>
      </trkpt>
      <trkpt lat="42.549812961369753" lon="2.541811969131231">
        <ele>721.61000000000001</ele>
        <time>2025-05-15T09:00:41Z</time>
      </trkpt>
      <trkpt lat="42.54980499856174" lon="2.541931997984648">
        <ele>723.04999999999995</ele>
        <time>2025-05-15T09:00:42Z</time>
      </trkpt>
      <trkpt lat="42.549783959984779" lon="2.54215001128614">
        <ele>725.45000000000005</ele>
        <time>2025-05-15T09:00:44Z</time>
      </trkpt>
      <trkpt lat="42.549743978306651" lon="2.542227962985635">
        <ele>726.40999999999997</ele>
        <time>2025-05-15T09:00:45Z</time>
      </trkpt>
      <trkpt lat="42.549726963043213" lon="2.542261993512511">
        <ele>727.37</ele>
        <time>2025-05-15T09:00:46Z</time>
      </trkpt>
      <trkpt lat="42.549682036042213" lon="2.542251013219357">
        <ele>727.37</ele>
        <time>2025-05-15T09:00:47Z</time>
      </trkpt>
      <trkpt lat="42.549638031050563" lon="2.54223600961268">
        <ele>727.86000000000001</ele>
        <time>2025-05-15T09:00:48Z</time>
      </trkpt>
      <trkpt lat="42.549580028280616" lon="2.542164009064436">
        <ele>728.34000000000003</ele>
        <time>2025-05-15T09:00:49Z</time>
      </trkpt>
      <trkpt lat="42.549512973055243" lon="2.542079016566277">
        <ele>728.82000000000005</ele>
        <time>2025-05-15T09:00:50Z</time>
      </trkpt>
      <trkpt lat="42.549424041062593" lon="2.542011039331555">
        <ele>729.77999999999997</ele>
        <time>2025-05-15T09:00:51Z</time>
      </trkpt>
      <trkpt lat="42.549300994724035" lon="2.542023025453091">
        <ele>730.74000000000001</ele>
        <time>2025-05-15T09:00:52Z</time>
      </trkpt>
      <trkpt lat="42.549210973083973" lon="2.542115980759263">
        <ele>731.70000000000005</ele>
        <time>2025-05-15T09:00:53Z</time>
      </trkpt>
      <trkpt lat="42.549165962263942" lon="2.542232992127538">
        <ele>732.17999999999995</ele>
        <time>2025-05-15T09:00:54Z</time>
      </trkpt>
      <trkpt lat="42.549040988087654" lon="2.542562987655401">
        <ele>732.65999999999997</ele>
        <time>2025-05-15T09:00:57Z</time>
      </trkpt>
      <trkpt lat="42.548972005024552" lon="2.542660972103477">
        <ele>732.65999999999997</ele>
        <time>2025-05-15T09:00:58Z</time>
      </trkpt>
      <trkpt lat="42.548891035839915" lon="2.542776977643371">
        <ele>733.13999999999999</ele>
        <time>2025-05-15T09:00:59Z</time>
      </trkpt>
      <trkpt lat="42.548844013363123" lon="2.542786030098796">
        <ele>733.13999999999999</ele>
        <time>2025-05-15T09:01:00Z</time>
      </trkpt>
      <trkpt lat="42.548738988116384" lon="2.542806984856725">
        <ele>733.62</ele>
        <time>2025-05-15T09:01:01Z</time>
      </trkpt>
      <trkpt lat="42.548617031425238" lon="2.54281796514988">
        <ele>734.10000000000002</ele>
        <time>2025-05-15T09:01:02Z</time>
      </trkpt>
      <trkpt lat="42.548477975651622" lon="2.542814025655389">
        <ele>735.07000000000005</ele>
        <time>2025-05-15T09:01:03Z</time>
      </trkpt>
      <trkpt lat="42.548336992040277" lon="2.542810002341867">
        <ele>736.02999999999997</ele>
        <time>2025-05-15T09:01:04Z</time>
      </trkpt>
      <trkpt lat="42.547968020662665" lon="2.542799022048712">
        <ele>737.95000000000005</ele>
        <time>2025-05-15T09:01:07Z</time>
      </trkpt>
      <trkpt lat="42.54784899763763" lon="2.542837997898459">
        <ele>738.42999999999995</ele>
        <time>2025-05-15T09:01:08Z</time>
      </trkpt>
      <trkpt lat="42.54778596572578" lon="2.54292500205338">
        <ele>738.90999999999997</ele>
        <time>2025-05-15T09:01:09Z</time>
      </trkpt>
      <trkpt lat="42.547714971005917" lon="2.543035978451371">
        <ele>739.38999999999999</ele>
        <time>2025-05-15T09:01:10Z</time>
      </trkpt>
      <trkpt lat="42.547688987106085" lon="2.54307696595788">
        <ele>740.35000000000002</ele>
        <time>2025-05-15T09:01:11Z</time>
      </trkpt>
      <trkpt lat="42.547639030963182" lon="2.543262960389257">
        <ele>740.83000000000004</ele>
        <time>2025-05-15T09:01:12Z</time>
      </trkpt>
      <trkpt lat="42.547605000436306" lon="2.543388018384576">
        <ele>741.78999999999996</ele>
        <time>2025-05-15T09:01:13Z</time>
      </trkpt>
      <trkpt lat="42.547572981566191" lon="2.543508969247341">
        <ele>742.27999999999997</ele>
        <time>2025-05-15T09:01:14Z</time>
      </trkpt>
      <trkpt lat="42.547539034858346" lon="2.543635033071041">
        <ele>743.24000000000001</ele>
        <time>2025-05-15T09:01:15Z</time>
      </trkpt>
      <trkpt lat="42.547457981854677" lon="2.543738968670368">
        <ele>743.72000000000003</ele>
        <time>2025-05-15T09:01:16Z</time>
      </trkpt>
      <trkpt lat="42.547383969649673" lon="2.543833013623953">
        <ele>744.67999999999995</ele>
        <time>2025-05-15T09:01:17Z</time>
      </trkpt>
      <trkpt lat="42.547309035435319" lon="2.543927980586886">
        <ele>745.15999999999997</ele>
        <time>2025-05-15T09:01:18Z</time>
      </trkpt>
      <trkpt lat="42.547230999916792" lon="2.544028982520104">
        <ele>746.12</ele>
        <time>2025-05-15T09:01:19Z</time>
      </trkpt>
      <trkpt lat="42.547152964398265" lon="2.54412897862494">
        <ele>746.60000000000002</ele>
        <time>2025-05-15T09:01:20Z</time>
      </trkpt>
      <trkpt lat="42.547060009092093" lon="2.544188993051648">
        <ele>747.08000000000004</ele>
        <time>2025-05-15T09:01:21Z</time>
      </trkpt>
      <trkpt lat="42.546966969966888" lon="2.544248001649976">
        <ele>747.55999999999995</ele>
        <time>2025-05-15T09:01:22Z</time>
      </trkpt>
      <trkpt lat="42.546851970255375" lon="2.544322013854981">
        <ele>747.55999999999995</ele>
        <time>2025-05-15T09:01:23Z</time>
      </trkpt>
      <trkpt lat="42.546803019940853" lon="2.544318996369839">
        <ele>748.03999999999996</ele>
        <time>2025-05-15T09:01:24Z</time>
      </trkpt>
      <trkpt lat="42.546702018007636" lon="2.544311033561826">
        <ele>748.03999999999996</ele>
        <time>2025-05-15T09:01:25Z</time>
      </trkpt>
      <trkpt lat="42.546609984710813" lon="2.544304998591542">
        <ele>748.03999999999996</ele>
        <time>2025-05-15T09:01:26Z</time>
      </trkpt>
      <trkpt lat="42.546531027182937" lon="2.544323019683361">
        <ele>748.03999999999996</ele>
        <time>2025-05-15T09:01:27Z</time>
      </trkpt>
      <trkpt lat="42.546481993049383" lon="2.544378004968166">
        <ele>748.03999999999996</ele>
        <time>2025-05-15T09:01:28Z</time>
      </trkpt>
      <trkpt lat="42.54643396474421" lon="2.544430978596211">
        <ele>748.03999999999996</ele>
        <time>2025-05-15T09:01:29Z</time>
      </trkpt>
      <trkpt lat="42.54638702608645" lon="2.544483030214906">
        <ele>748.03999999999996</ele>
        <time>2025-05-15T09:01:30Z</time>
      </trkpt>
      <trkpt lat="42.546359030529857" lon="2.544514965265989">
        <ele>748.03999999999996</ele>
        <time>2025-05-15T09:01:31Z</time>
      </trkpt>
      <trkpt lat="42.546274960041046" lon="2.544548995792866">
        <ele>748.03999999999996</ele>
        <time>2025-05-15T09:01:32Z</time>
      </trkpt>
      <trkpt lat="42.546113021671772" lon="2.544615967199206">
        <ele>748.03999999999996</ele>
        <time>2025-05-15T09:01:34Z</time>
      </trkpt>
      <trkpt lat="42.545854020863771" lon="2.54479399882257">
        <ele>748.51999999999998</ele>
        <time>2025-05-15T09:01:37Z</time>
      </trkpt>
      <trkpt lat="42.545736003667116" lon="2.54490103572607">
        <ele>748.51999999999998</ele>
        <time>2025-05-15T09:01:38Z</time>
      </trkpt>
      <trkpt lat="42.54572200588882" lon="2.544976975768805">
        <ele>747.55999999999995</ele>
        <time>2025-05-15T09:01:39Z</time>
      </trkpt>
      <trkpt lat="42.545699961483479" lon="2.545089041814208">
        <ele>747.08000000000004</ele>
        <time>2025-05-15T09:01:40Z</time>
      </trkpt>
      <trkpt lat="42.545676995068789" lon="2.545207981020212">
        <ele>746.60000000000002</ele>
        <time>2025-05-15T09:01:41Z</time>
      </trkpt>
      <trkpt lat="42.545651011168957" lon="2.545339995995164">
        <ele>746.12</ele>
        <time>2025-05-15T09:01:42Z</time>
      </trkpt>
      <trkpt lat="42.545569036155939" lon="2.545719025656581">
        <ele>745.63999999999999</ele>
        <time>2025-05-15T09:01:45Z</time>
      </trkpt>
      <trkpt lat="42.54552997648716" lon="2.545822961255908">
        <ele>745.63999999999999</ele>
        <time>2025-05-15T09:01:46Z</time>
      </trkpt>
      <trkpt lat="42.545496029779315" lon="2.545914994552732">
        <ele>745.63999999999999</ele>
        <time>2025-05-15T09:01:47Z</time>
      </trkpt>
      <trkpt lat="42.5454640109092" lon="2.54599898122251">
        <ele>745.63999999999999</ele>
        <time>2025-05-15T09:01:48Z</time>
      </trkpt>
      <trkpt lat="42.545382035896182" lon="2.546024965122342">
        <ele>745.63999999999999</ele>
        <time>2025-05-15T09:01:49Z</time>
      </trkpt>
      <trkpt lat="42.545294025912881" lon="2.546035023406148">
        <ele>745.63999999999999</ele>
        <time>2025-05-15T09:01:50Z</time>
      </trkpt>
      <trkpt lat="42.545181959867477" lon="2.546048015356064">
        <ele>745.15999999999997</ele>
        <time>2025-05-15T09:01:51Z</time>
      </trkpt>
      <trkpt lat="42.544577959924936" lon="2.546188998967409">
        <ele>745.63999999999999</ele>
        <time>2025-05-15T09:01:56Z</time>
      </trkpt>
      <trkpt lat="42.544452985748649" lon="2.546159997582436">
        <ele>745.63999999999999</ele>
        <time>2025-05-15T09:01:57Z</time>
      </trkpt>
      <trkpt lat="42.544358018785715" lon="2.546138036996126">
        <ele>746.12</ele>
        <time>2025-05-15T09:01:58Z</time>
      </trkpt>
      <trkpt lat="42.544276965782046" lon="2.546097971498966">
        <ele>746.12</ele>
        <time>2025-05-15T09:01:59Z</time>
      </trkpt>
      <trkpt lat="42.544203959405422" lon="2.546006022021174">
        <ele>746.60000000000002</ele>
        <time>2025-05-15T09:02:00Z</time>
      </trkpt>
      <trkpt lat="42.544131958857179" lon="2.545916000381112">
        <ele>747.08000000000004</ele>
        <time>2025-05-15T09:02:01Z</time>
      </trkpt>
      <trkpt lat="42.544061969965696" lon="2.545827990397811">
        <ele>747.55999999999995</ele>
        <time>2025-05-15T09:02:02Z</time>
      </trkpt>
      <trkpt lat="42.544046966359019" lon="2.545747021213174">
        <ele>748.03999999999996</ele>
        <time>2025-05-15T09:02:03Z</time>
      </trkpt>
      <trkpt lat="42.544058030471206" lon="2.545650964602828">
        <ele>748.51999999999998</ele>
        <time>2025-05-15T09:02:04Z</time>
      </trkpt>
      <trkpt lat="42.544071022421122" lon="2.545535964891315">
        <ele>749.49000000000001</ele>
        <time>2025-05-15T09:02:05Z</time>
      </trkpt>
      <trkpt lat="42.544084014371037" lon="2.545413002371788">
        <ele>749.97000000000003</ele>
        <time>2025-05-15T09:02:06Z</time>
      </trkpt>
      <trkpt lat="42.544097006320953" lon="2.545300014317036">
        <ele>750.92999999999995</ele>
        <time>2025-05-15T09:02:07Z</time>
      </trkpt>
      <trkpt lat="42.544036991894245" lon="2.544797016307712">
        <ele>754.76999999999998</ele>
        <time>2025-05-15T09:02:11Z</time>
      </trkpt>
      <trkpt lat="42.543998016044497" lon="2.544691991060972">
        <ele>755.73000000000002</ele>
        <time>2025-05-15T09:02:12Z</time>
      </trkpt>
      <trkpt lat="42.543946970254183" lon="2.544571040198207">
        <ele>756.21000000000004</ele>
        <time>2025-05-15T09:02:13Z</time>
      </trkpt>
      <trkpt lat="42.543864995241165" lon="2.544485041871667">
        <ele>756.69000000000005</ele>
        <time>2025-05-15T09:02:14Z</time>
      </trkpt>
      <trkpt lat="42.543773967772722" lon="2.544388985261321">
        <ele>757.17999999999995</ele>
        <time>2025-05-15T09:02:15Z</time>
      </trkpt>
      <trkpt lat="42.543677994981408" lon="2.544287983328104">
        <ele>758.13999999999999</ele>
        <time>2025-05-15T09:02:16Z</time>
      </trkpt>
      <trkpt lat="42.543580010533333" lon="2.544184969738126">
        <ele>758.62</ele>
        <time>2025-05-15T09:02:17Z</time>
      </trkpt>
      <trkpt lat="42.543451013043523" lon="2.544096959754825">
        <ele>759.58000000000004</ele>
        <time>2025-05-15T09:02:18Z</time>
      </trkpt>
      <trkpt lat="42.543323021382093" lon="2.544043986126781">
        <ele>760.05999999999995</ele>
        <time>2025-05-15T09:02:19Z</time>
      </trkpt>
      <trkpt lat="42.542397994548082" lon="2.543444009497762">
        <ele>771.11000000000001</ele>
        <time>2025-05-15T09:02:27Z</time>
      </trkpt>
      <trkpt lat="42.542324988171458" lon="2.54337796010077">
        <ele>772.08000000000004</ele>
        <time>2025-05-15T09:02:28Z</time>
      </trkpt>
      <trkpt lat="42.542279977351427" lon="2.543239993974567">
        <ele>773.51999999999998</ele>
        <time>2025-05-15T09:02:29Z</time>
      </trkpt>
      <trkpt lat="42.542233960703015" lon="2.543099010363221">
        <ele>775.44000000000005</ele>
        <time>2025-05-15T09:02:30Z</time>
      </trkpt>
      <trkpt lat="42.542182998731732" lon="2.542942017316818">
        <ele>777.36000000000001</ele>
        <time>2025-05-15T09:02:31Z</time>
      </trkpt>
      <trkpt lat="42.542132036760449" lon="2.542782006785274">
        <ele>778.80999999999995</ele>
        <time>2025-05-15T09:02:32Z</time>
      </trkpt>
      <trkpt lat="42.542078979313374" lon="2.542618978768587">
        <ele>779.76999999999998</ele>
        <time>2025-05-15T09:02:33Z</time>
      </trkpt>
      <trkpt lat="42.541918968781829" lon="2.542125033214688">
        <ele>782.64999999999998</ele>
        <time>2025-05-15T09:02:36Z</time>
      </trkpt>
      <trkpt lat="42.541873035952449" lon="2.541984971612692">
        <ele>783.61000000000001</ele>
        <time>2025-05-15T09:02:37Z</time>
      </trkpt>
      <trkpt lat="42.54183498211205" lon="2.541867038235068">
        <ele>784.57000000000005</ele>
        <time>2025-05-15T09:02:38Z</time>
      </trkpt>
      <trkpt lat="42.541783014312387" lon="2.541797971352935">
        <ele>785.52999999999997</ele>
        <time>2025-05-15T09:02:39Z</time>
      </trkpt>
      <trkpt lat="42.541717970743775" lon="2.54172102548182">
        <ele>786.98000000000002</ele>
        <time>2025-05-15T09:02:40Z</time>
      </trkpt>
      <trkpt lat="42.541647981852293" lon="2.541638966649771">
        <ele>788.41999999999996</ele>
        <time>2025-05-15T09:02:41Z</time>
      </trkpt>
      <trkpt lat="42.541571035981178" lon="2.54154902882874">
        <ele>788.89999999999998</ele>
        <time>2025-05-15T09:02:42Z</time>
      </trkpt>
      <trkpt lat="42.541333995759487" lon="2.541179973632097">
        <ele>791.77999999999997</ele>
        <time>2025-05-15T09:02:45Z</time>
      </trkpt>
      <trkpt lat="42.54127498716116" lon="2.541031027212739">
        <ele>792.74000000000001</ele>
        <time>2025-05-15T09:02:46Z</time>
      </trkpt>
      <trkpt lat="42.541213966906071" lon="2.54086297005415">
        <ele>793.71000000000004</ele>
        <time>2025-05-15T09:02:47Z</time>
      </trkpt>
      <trkpt lat="42.541153030470014" lon="2.540696002542973">
        <ele>794.66999999999996</ele>
        <time>2025-05-15T09:02:48Z</time>
      </trkpt>
      <trkpt lat="42.541093016043305" lon="2.540529035031796">
        <ele>796.11000000000001</ele>
        <time>2025-05-15T09:02:49Z</time>
      </trkpt>
      <trkpt lat="42.5410380307585" lon="2.540375981479883">
        <ele>797.07000000000005</ele>
        <time>2025-05-15T09:02:50Z</time>
      </trkpt>
      <trkpt lat="42.541001988574862" lon="2.540233992040157">
        <ele>798.02999999999997</ele>
        <time>2025-05-15T09:02:51Z</time>
      </trkpt>
      <trkpt lat="42.540969969704747" lon="2.540106000378728">
        <ele>798.99000000000001</ele>
        <time>2025-05-15T09:02:52Z</time>
      </trkpt>
      <trkpt lat="42.540956977754831" lon="2.539999969303608">
        <ele>799.95000000000005</ele>
        <time>2025-05-15T09:02:53Z</time>
      </trkpt>
      <trkpt lat="42.540977010503411" lon="2.539887987077236">
        <ele>800.91999999999996</ele>
        <time>2025-05-15T09:02:54Z</time>
      </trkpt>
      <trkpt lat="42.541000982746482" lon="2.539781033992767">
        <ele>801.88</ele>
        <time>2025-05-15T09:02:55Z</time>
      </trkpt>
      <trkpt lat="42.54105999134481" lon="2.539667040109634">
        <ele>802.84000000000003</ele>
        <time>2025-05-15T09:02:56Z</time>
      </trkpt>
      <trkpt lat="42.54112402908504" lon="2.539543993771076">
        <ele>803.79999999999995</ele>
        <time>2025-05-15T09:02:57Z</time>
      </trkpt>
      <trkpt lat="42.541191000491381" lon="2.539416002109647">
        <ele>804.75999999999999</ele>
        <time>2025-05-15T09:02:58Z</time>
      </trkpt>
      <trkpt lat="42.541257971897721" lon="2.539287004619837">
        <ele>805.72000000000003</ele>
        <time>2025-05-15T09:02:59Z</time>
      </trkpt>
      <trkpt lat="42.541298037394881" lon="2.539127999916673">
        <ele>807.15999999999997</ele>
        <time>2025-05-15T09:03:00Z</time>
      </trkpt>
      <trkpt lat="42.541327960789204" lon="2.538966983556747">
        <ele>808.13</ele>
        <time>2025-05-15T09:03:01Z</time>
      </trkpt>
      <trkpt lat="42.541330978274345" lon="2.538809990510345">
        <ele>809.09000000000003</ele>
        <time>2025-05-15T09:03:02Z</time>
      </trkpt>
      <trkpt lat="42.541322009637952" lon="2.538660960271955">
        <ele>810.04999999999995</ele>
        <time>2025-05-15T09:03:03Z</time>
      </trkpt>
      <trkpt lat="42.541294014081359" lon="2.538527017459273">
        <ele>811.00999999999999</ele>
        <time>2025-05-15T09:03:04Z</time>
      </trkpt>
      <trkpt lat="42.541236011311412" lon="2.538411011919379">
        <ele>811.97000000000003</ele>
        <time>2025-05-15T09:03:05Z</time>
      </trkpt>
      <trkpt lat="42.54116602241993" lon="2.538271034136415">
        <ele>813.40999999999997</ele>
        <time>2025-05-15T09:03:06Z</time>
      </trkpt>
      <trkpt lat="42.541082035750151" lon="2.538172965869308">
        <ele>814.37</ele>
        <time>2025-05-15T09:03:07Z</time>
      </trkpt>
      <trkpt lat="42.54097499884665" lon="2.538048997521401">
        <ele>815.34000000000003</ele>
        <time>2025-05-15T09:03:08Z</time>
      </trkpt>
      <trkpt lat="42.54086603410542" lon="2.537924023345113">
        <ele>816.77999999999997</ele>
        <time>2025-05-15T09:03:09Z</time>
      </trkpt>
      <trkpt lat="42.54075899720192" lon="2.537798965349793">
        <ele>817.74000000000001</ele>
        <time>2025-05-15T09:03:10Z</time>
      </trkpt>
      <trkpt lat="42.540649026632309" lon="2.537670973688364">
        <ele>818.70000000000005</ele>
        <time>2025-05-15T09:03:11Z</time>
      </trkpt>
      <trkpt lat="42.540001021698117" lon="2.536662966012955">
        <ele>825.90999999999997</ele>
        <time>2025-05-15T09:03:18Z</time>
      </trkpt>
      <trkpt lat="42.539951987564564" lon="2.536532962694764">
        <ele>826.87</ele>
        <time>2025-05-15T09:03:19Z</time>
      </trkpt>
      <trkpt lat="42.539901025593281" lon="2.536401031538844">
        <ele>827.83000000000004</ele>
        <time>2025-05-15T09:03:20Z</time>
      </trkpt>
      <trkpt lat="42.539846962317824" lon="2.536258958280087">
        <ele>828.78999999999996</ele>
        <time>2025-05-15T09:03:21Z</time>
      </trkpt>
      <trkpt lat="42.539791977033019" lon="2.536114035174251">
        <ele>829.75999999999999</ele>
        <time>2025-05-15T09:03:22Z</time>
      </trkpt>
      <trkpt lat="42.539715031161904" lon="2.536015966907144">
        <ele>830.72000000000003</ele>
        <time>2025-05-15T09:03:23Z</time>
      </trkpt>
      <trkpt lat="42.539616040885448" lon="2.535937009379268">
        <ele>831.67999999999995</ele>
        <time>2025-05-15T09:03:24Z</time>
      </trkpt>
      <trkpt lat="42.539509003981948" lon="2.535852016881108">
        <ele>833.12</ele>
        <time>2025-05-15T09:03:25Z</time>
      </trkpt>
      <trkpt lat="42.539403978735209" lon="2.535785967484117">
        <ele>834.08000000000004</ele>
        <time>2025-05-15T09:03:26Z</time>
      </trkpt>
      <trkpt lat="42.538899974897504" lon="2.535593016073108">
        <ele>839.37</ele>
        <time>2025-05-15T09:03:30Z</time>
      </trkpt>
      <trkpt lat="42.53878204151988" lon="2.53553400747478">
        <ele>840.80999999999995</ele>
        <time>2025-05-15T09:03:31Z</time>
      </trkpt>
      <trkpt lat="42.538608033210039" lon="2.535369973629713">
        <ele>843.69000000000005</ele>
        <time>2025-05-15T09:03:33Z</time>
      </trkpt>
      <trkpt lat="42.53856897354126" lon="2.535330997779965">
        <ele>844.65999999999997</ele>
        <time>2025-05-15T09:03:34Z</time>
      </trkpt>
      <trkpt lat="42.53856897354126" lon="2.535243993625045">
        <ele>846.10000000000002</ele>
        <time>2025-05-15T09:03:35Z</time>
      </trkpt>
      <trkpt lat="42.53856897354126" lon="2.535160006955266">
        <ele>847.05999999999995</ele>
        <time>2025-05-15T09:03:36Z</time>
      </trkpt>
      <trkpt lat="42.538582971319556" lon="2.53510401584208">
        <ele>848.01999999999998</ele>
        <time>2025-05-15T09:03:37Z</time>
      </trkpt>
      <trkpt lat="42.538591017946601" lon="2.535074008628726">
        <ele>848.5</ele>
        <time>2025-05-15T09:03:38Z</time>
      </trkpt>
      <trkpt lat="42.538629993796349" lon="2.535057999193668">
        <ele>849.46000000000004</ele>
        <time>2025-05-15T09:03:39Z</time>
      </trkpt>
      <trkpt lat="42.53869797103107" lon="2.535031009465456">
        <ele>850.41999999999996</ele>
        <time>2025-05-15T09:03:40Z</time>
      </trkpt>
      <trkpt lat="42.538714986294508" lon="2.535036960616708">
        <ele>850.41999999999996</ele>
        <time>2025-05-15T09:03:41Z</time>
      </trkpt>
      <trkpt lat="42.538796961307526" lon="2.535066967830062">
        <ele>850.89999999999998</ele>
        <time>2025-05-15T09:03:42Z</time>
      </trkpt>
      <trkpt lat="42.538951020687819" lon="2.535095969215035">
        <ele>852.35000000000002</ele>
        <time>2025-05-15T09:03:43Z</time>
      </trkpt>
      <trkpt lat="42.53899997100234" lon="2.535034026950598">
        <ele>853.30999999999995</ele>
        <time>2025-05-15T09:03:44Z</time>
      </trkpt>
      <trkpt lat="42.53895596601069" lon="2.534859012812376">
        <ele>854.26999999999998</ele>
        <time>2025-05-15T09:03:45Z</time>
      </trkpt>
      <trkpt lat="42.53895596601069" lon="2.534859012812376">
        <ele>855.23000000000002</ele>
        <time>2025-05-15T09:03:46Z</time>
      </trkpt>
      <trkpt lat="42.538878014311194" lon="2.5348249822855">
        <ele>856.66999999999996</ele>
        <time>2025-05-15T09:03:47Z</time>
      </trkpt>
      <trkpt lat="42.538799978792667" lon="2.534790029749274">
        <ele>857.63</ele>
        <time>2025-05-15T09:03:48Z</time>
      </trkpt>
      <trkpt lat="42.53869897685945" lon="2.534749964252114">
        <ele>858.59000000000003</ele>
        <time>2025-05-15T09:03:49Z</time>
      </trkpt>
      <trkpt lat="42.538580959662795" lon="2.534706965088844">
        <ele>860.03999999999996</ele>
        <time>2025-05-15T09:03:50Z</time>
      </trkpt>
      <trkpt lat="42.538258004933596" lon="2.534589031711221">
        <ele>864.36000000000001</ele>
        <time>2025-05-15T09:03:53Z</time>
      </trkpt>
      <trkpt lat="42.538076033815742" lon="2.5345020275563">
        <ele>866.28999999999996</ele>
        <time>2025-05-15T09:03:55Z</time>
      </trkpt>
      <trkpt lat="42.537999004125595" lon="2.534440001472831">
        <ele>866.76999999999998</ele>
        <time>2025-05-15T09:03:56Z</time>
      </trkpt>
      <trkpt lat="42.537851985543966" lon="2.534320978447795">
        <ele>868.21000000000004</ele>
        <time>2025-05-15T09:03:58Z</time>
      </trkpt>
      <trkpt lat="42.5377759616822" lon="2.534258030354977">
        <ele>869.16999999999996</ele>
        <time>2025-05-15T09:03:59Z</time>
      </trkpt>
      <trkpt lat="42.537715025246143" lon="2.534172032028437">
        <ele>870.13</ele>
        <time>2025-05-15T09:04:00Z</time>
      </trkpt>
      <trkpt lat="42.537652999162674" lon="2.534084022045136">
        <ele>871.09000000000003</ele>
        <time>2025-05-15T09:04:01Z</time>
      </trkpt>
      <trkpt lat="42.537602037191391" lon="2.53398796543479">
        <ele>871.57000000000005</ele>
        <time>2025-05-15T09:04:02Z</time>
      </trkpt>
      <trkpt lat="42.537554008886218" lon="2.533873971551657">
        <ele>872.52999999999997</ele>
        <time>2025-05-15T09:04:03Z</time>
      </trkpt>
      <trkpt lat="42.537503968924284" lon="2.533756038174033">
        <ele>873.00999999999999</ele>
        <time>2025-05-15T09:04:04Z</time>
      </trkpt>
      <trkpt lat="42.537260977551341" lon="2.53295699134469">
        <ele>879.74000000000001</ele>
        <time>2025-05-15T09:04:11Z</time>
      </trkpt>
      <trkpt lat="42.537260977551341" lon="2.532865041866899">
        <ele>880.22000000000003</ele>
        <time>2025-05-15T09:04:12Z</time>
      </trkpt>
      <trkpt lat="42.537276986986399" lon="2.532708970829845">
        <ele>882.14999999999998</ele>
        <time>2025-05-15T09:04:14Z</time>
      </trkpt>
      <trkpt lat="42.537210015580058" lon="2.532599000260234">
        <ele>883.11000000000001</ele>
        <time>2025-05-15T09:04:15Z</time>
      </trkpt>
      <trkpt lat="42.537169028073549" lon="2.532557006925345">
        <ele>883.11000000000001</ele>
        <time>2025-05-15T09:04:16Z</time>
      </trkpt>
      <trkpt lat="42.537131980061531" lon="2.532519958913326">
        <ele>883.11000000000001</ele>
        <time>2025-05-15T09:04:17Z</time>
      </trkpt>
      <trkpt lat="42.537083029747009" lon="2.532519958913326">
        <ele>883.59000000000003</ele>
        <time>2025-05-15T09:04:18Z</time>
      </trkpt>
      <trkpt lat="42.537019997835159" lon="2.532519958913326">
        <ele>884.07000000000005</ele>
        <time>2025-05-15T09:04:19Z</time>
      </trkpt>
      <trkpt lat="42.536974987015128" lon="2.532542003318667">
        <ele>884.07000000000005</ele>
        <time>2025-05-15T09:04:20Z</time>
      </trkpt>
      <trkpt lat="42.536896029487252" lon="2.532606041058898">
        <ele>884.07000000000005</ele>
        <time>2025-05-15T09:04:21Z</time>
      </trkpt>
      <trkpt lat="42.536859987303615" lon="2.532683992758393">
        <ele>884.07000000000005</ele>
        <time>2025-05-15T09:04:22Z</time>
      </trkpt>
      <trkpt lat="42.53680600784719" lon="2.53280402161181">
        <ele>883.59000000000003</ele>
        <time>2025-05-15T09:04:23Z</time>
      </trkpt>
      <trkpt lat="42.536752028390765" lon="2.532923966646195">
        <ele>883.59000000000003</ele>
        <time>2025-05-15T09:04:24Z</time>
      </trkpt>
      <trkpt lat="42.536702994257212" lon="2.533035026863217">
        <ele>883.59000000000003</ele>
        <time>2025-05-15T09:04:25Z</time>
      </trkpt>
      <trkpt lat="42.536623030900955" lon="2.53310602158308">
        <ele>883.11000000000001</ele>
        <time>2025-05-15T09:04:26Z</time>
      </trkpt>
      <trkpt lat="42.536550024524331" lon="2.53317098133266">
        <ele>883.11000000000001</ele>
        <time>2025-05-15T09:04:27Z</time>
      </trkpt>
      <trkpt lat="42.536490010097623" lon="2.533251028507948">
        <ele>883.11000000000001</ele>
        <time>2025-05-15T09:04:28Z</time>
      </trkpt>
      <trkpt lat="42.536446005105972" lon="2.533345995470882">
        <ele>882.63</ele>
        <time>2025-05-15T09:04:29Z</time>
      </trkpt>
      <trkpt lat="42.536409040912986" lon="2.533426964655519">
        <ele>882.14999999999998</ele>
        <time>2025-05-15T09:04:30Z</time>
      </trkpt>
      <trkpt lat="42.53641901537776" lon="2.533502988517284">
        <ele>881.66999999999996</ele>
        <time>2025-05-15T09:04:31Z</time>
      </trkpt>
      <trkpt lat="42.536443993449211" lon="2.533595021814108">
        <ele>880.71000000000004</ele>
        <time>2025-05-15T09:04:32Z</time>
      </trkpt>
      <trkpt lat="42.536469977349043" lon="2.533689988777041">
        <ele>879.74000000000001</ele>
        <time>2025-05-15T09:04:33Z</time>
      </trkpt>
      <trkpt lat="42.536530997604132" lon="2.533918982371688">
        <ele>878.29999999999995</ele>
        <time>2025-05-15T09:04:35Z</time>
      </trkpt>
      <trkpt lat="42.536523034796119" lon="2.534029958769679">
        <ele>877.82000000000005</ele>
        <time>2025-05-15T09:04:36Z</time>
      </trkpt>
      <trkpt lat="42.536513982340693" lon="2.534147975966334">
        <ele>876.86000000000001</ele>
        <time>2025-05-15T09:04:37Z</time>
      </trkpt>
      <trkpt lat="42.5365050137043" lon="2.534272028133273">
        <ele>876.38</ele>
        <time>2025-05-15T09:04:38Z</time>
      </trkpt>
      <trkpt lat="42.536495039239526" lon="2.53439599648118">
        <ele>875.89999999999998</ele>
        <time>2025-05-15T09:04:39Z</time>
      </trkpt>
      <trkpt lat="42.536495961248875" lon="2.534528011456132">
        <ele>875.89999999999998</ele>
        <time>2025-05-15T09:04:40Z</time>
      </trkpt>
      <trkpt lat="42.536534015089273" lon="2.534693973138928">
        <ele>875.89999999999998</ele>
        <time>2025-05-15T09:04:41Z</time>
      </trkpt>
      <trkpt lat="42.536569973453879" lon="2.534854989498854">
        <ele>875.89999999999998</ele>
        <time>2025-05-15T09:04:42Z</time>
      </trkpt>
      <trkpt lat="42.536609033122659" lon="2.535022962838411">
        <ele>875.89999999999998</ele>
        <time>2025-05-15T09:04:43Z</time>
      </trkpt>
      <trkpt lat="42.536641974002123" lon="2.53516897559166">
        <ele>875.41999999999996</ele>
        <time>2025-05-15T09:04:44Z</time>
      </trkpt>
      <trkpt lat="42.53667801618576" lon="2.535287998616695">
        <ele>875.41999999999996</ele>
        <time>2025-05-15T09:04:45Z</time>
      </trkpt>
      <trkpt lat="42.536727972328663" lon="2.535401992499828">
        <ele>875.41999999999996</ele>
        <time>2025-05-15T09:04:46Z</time>
      </trkpt>
      <trkpt lat="42.536773988977075" lon="2.535506011918187">
        <ele>874.94000000000005</ele>
        <time>2025-05-15T09:04:47Z</time>
      </trkpt>
      <trkpt lat="42.536837020888925" lon="2.535613970831037">
        <ele>874.94000000000005</ele>
        <time>2025-05-15T09:04:48Z</time>
      </trkpt>
      <trkpt lat="42.536921007558703" lon="2.535693012177944">
        <ele>874.94000000000005</ele>
        <time>2025-05-15T09:04:49Z</time>
      </trkpt>
      <trkpt lat="42.53699803724885" lon="2.535765012726188">
        <ele>874.94000000000005</ele>
        <time>2025-05-15T09:04:50Z</time>
      </trkpt>
      <trkpt lat="42.537071965634823" lon="2.53583500161767">
        <ele>874.94000000000005</ele>
        <time>2025-05-15T09:04:51Z</time>
      </trkpt>
      <trkpt lat="42.5376430246979" lon="2.536351997405291">
        <ele>876.86000000000001</ele>
        <time>2025-05-15T09:04:59Z</time>
      </trkpt>
      <trkpt lat="42.537776967510581" lon="2.536474037915468">
        <ele>877.82000000000005</ele>
        <time>2025-05-15T09:05:01Z</time>
      </trkpt>
      <trkpt lat="42.537843016907573" lon="2.536532962694764">
        <ele>878.29999999999995</ele>
        <time>2025-05-15T09:05:02Z</time>
      </trkpt>
      <trkpt lat="42.537908982485533" lon="2.536591971293092">
        <ele>878.77999999999997</ele>
        <time>2025-05-15T09:05:03Z</time>
      </trkpt>
      <trkpt lat="42.53828801214695" lon="2.537265038117766">
        <ele>881.19000000000005</ele>
        <time>2025-05-15T09:05:10Z</time>
      </trkpt>
      <trkpt lat="42.538689002394676" lon="2.538223005831242">
        <ele>886.47000000000003</ele>
        <time>2025-05-15T09:05:19Z</time>
      </trkpt>
      <trkpt lat="42.538854964077473" lon="2.538689961656928">
        <ele>887.42999999999995</ele>
        <time>2025-05-15T09:05:23Z</time>
      </trkpt>
      <trkpt lat="42.538928976282477" lon="2.538899006322026">
        <ele>886.95000000000005</ele>
        <time>2025-05-15T09:05:25Z</time>
      </trkpt>
      <trkpt lat="42.538963006809354" lon="2.538992967456579">
        <ele>886.47000000000003</ele>
        <time>2025-05-15T09:05:26Z</time>
      </trkpt>
      <trkpt lat="42.538995025679469" lon="2.539082989096642">
        <ele>885.99000000000001</ele>
        <time>2025-05-15T09:05:27Z</time>
      </trkpt>
      <trkpt lat="42.539023021236062" lon="2.539163958281279">
        <ele>885.50999999999999</ele>
        <time>2025-05-15T09:05:28Z</time>
      </trkpt>
      <trkpt lat="42.53904196433723" lon="2.539215004071593">
        <ele>884.54999999999995</ele>
        <time>2025-05-15T09:05:29Z</time>
      </trkpt>
      <trkpt lat="42.539034001529217" lon="2.539289016276598">
        <ele>883.59000000000003</ele>
        <time>2025-05-15T09:05:30Z</time>
      </trkpt>
      <trkpt lat="42.539024027064443" lon="2.53937803208828">
        <ele>883.11000000000001</ele>
        <time>2025-05-15T09:05:31Z</time>
      </trkpt>
      <trkpt lat="42.539013968780637" lon="2.539474004879594">
        <ele>882.14999999999998</ele>
        <time>2025-05-15T09:05:32Z</time>
      </trkpt>
      <trkpt lat="42.538978010416031" lon="2.539821015670896">
        <ele>879.25999999999999</ele>
        <time>2025-05-15T09:05:35Z</time>
      </trkpt>
      <trkpt lat="42.53895596601069" lon="2.540030982345343">
        <ele>878.29999999999995</ele>
        <time>2025-05-15T09:05:36Z</time>
      </trkpt>
      <trkpt lat="42.538966024294496" lon="2.54008999094367">
        <ele>877.82000000000005</ele>
        <time>2025-05-15T09:05:37Z</time>
      </trkpt>
      <trkpt lat="42.539132991805673" lon="2.54105600528419">
        <ele>873.5</ele>
        <time>2025-05-15T09:05:45Z</time>
      </trkpt>
      <trkpt lat="42.539142966270447" lon="2.541181985288858">
        <ele>873.00999999999999</ele>
        <time>2025-05-15T09:05:46Z</time>
      </trkpt>
      <trkpt lat="42.539123017340899" lon="2.541302014142275">
        <ele>871.57000000000005</ele>
        <time>2025-05-15T09:05:47Z</time>
      </trkpt>
      <trkpt lat="42.53908202983439" lon="2.541452972218394">
        <ele>870.61000000000001</ele>
        <time>2025-05-15T09:05:48Z</time>
      </trkpt>
      <trkpt lat="42.539027966558933" lon="2.541566966101527">
        <ele>869.64999999999998</ele>
        <time>2025-05-15T09:05:49Z</time>
      </trkpt>
      <trkpt lat="42.538982033729553" lon="2.541663022711873">
        <ele>868.21000000000004</ele>
        <time>2025-05-15T09:05:50Z</time>
      </trkpt>
      <trkpt lat="42.538940040394664" lon="2.541750026866794">
        <ele>866.76999999999998</ele>
        <time>2025-05-15T09:05:51Z</time>
      </trkpt>
      <trkpt lat="42.53886996768415" lon="2.541896961629391">
        <ele>865.79999999999995</ele>
        <time>2025-05-15T09:05:52Z</time>
      </trkpt>
      <trkpt lat="42.538877008482814" lon="2.541964016854763">
        <ele>865.32000000000005</ele>
        <time>2025-05-15T09:05:53Z</time>
      </trkpt>
      <trkpt lat="42.53891003318131" lon="2.542122015729547">
        <ele>865.32000000000005</ele>
        <time>2025-05-15T09:05:54Z</time>
      </trkpt>
      <trkpt lat="42.538982033729553" lon="2.542243972420692">
        <ele>865.32000000000005</ele>
        <time>2025-05-15T09:05:55Z</time>
      </trkpt>
      <trkpt lat="42.53906199708581" lon="2.542381016537547">
        <ele>865.79999999999995</ele>
        <time>2025-05-15T09:05:56Z</time>
      </trkpt>
      <trkpt lat="42.539146989583969" lon="2.542504984885454">
        <ele>866.28999999999996</ele>
        <time>2025-05-15T09:05:57Z</time>
      </trkpt>
      <trkpt lat="42.539244974032044" lon="2.542620990425348">
        <ele>866.28999999999996</ele>
        <time>2025-05-15T09:05:58Z</time>
      </trkpt>
      <trkpt lat="42.539344970136881" lon="2.542739007622004">
        <ele>866.28999999999996</ele>
        <time>2025-05-15T09:05:59Z</time>
      </trkpt>
      <trkpt lat="42.539442032575607" lon="2.542855013161898">
        <ele>866.76999999999998</ele>
        <time>2025-05-15T09:06:00Z</time>
      </trkpt>
      <trkpt lat="42.539538005366921" lon="2.542970012873411">
        <ele>867.25</ele>
        <time>2025-05-15T09:06:01Z</time>
      </trkpt>
      <trkpt lat="42.539613023400307" lon="2.54311996512115">
        <ele>867.73000000000002</ele>
        <time>2025-05-15T09:06:02Z</time>
      </trkpt>
      <trkpt lat="42.539671026170254" lon="2.543252985924482">
        <ele>867.73000000000002</ele>
        <time>2025-05-15T09:06:03Z</time>
      </trkpt>
      <trkpt lat="42.539729028940201" lon="2.543386006727815">
        <ele>868.21000000000004</ele>
        <time>2025-05-15T09:06:04Z</time>
      </trkpt>
      <trkpt lat="42.539794994518161" lon="2.543535958975554">
        <ele>868.69000000000005</ele>
        <time>2025-05-15T09:06:05Z</time>
      </trkpt>
      <trkpt lat="42.539861965924501" lon="2.543685995042324">
        <ele>868.69000000000005</ele>
        <time>2025-05-15T09:06:06Z</time>
      </trkpt>
      <trkpt lat="42.539958022534847" lon="2.543811975046992">
        <ele>868.69000000000005</ele>
        <time>2025-05-15T09:06:07Z</time>
      </trkpt>
      <trkpt lat="42.540258010849357" lon="2.544207014143467">
        <ele>868.21000000000004</ele>
        <time>2025-05-15T09:06:11Z</time>
      </trkpt>
      <trkpt lat="42.540300004184246" lon="2.544261999428272">
        <ele>867.73000000000002</ele>
        <time>2025-05-15T09:06:12Z</time>
      </trkpt>
      <trkpt lat="42.540336968377233" lon="2.544359983876348">
        <ele>867.73000000000002</ele>
        <time>2025-05-15T09:06:13Z</time>
      </trkpt>
      <trkpt lat="42.540347026661038" lon="2.544428966939449">
        <ele>867.73000000000002</ele>
        <time>2025-05-15T09:06:14Z</time>
      </trkpt>
      <trkpt lat="42.540318025276065" lon="2.544517982751131">
        <ele>867.25</ele>
        <time>2025-05-15T09:06:15Z</time>
      </trkpt>
      <trkpt lat="42.54028701223433" lon="2.544584032148123">
        <ele>867.25</ele>
        <time>2025-05-15T09:06:16Z</time>
      </trkpt>
      <trkpt lat="42.540248958393931" lon="2.544660978019238">
        <ele>867.25</ele>
        <time>2025-05-15T09:06:17Z</time>
      </trkpt>
      <trkpt lat="42.540209982544184" lon="2.544743036851287">
        <ele>866.76999999999998</ele>
        <time>2025-05-15T09:06:18Z</time>
      </trkpt>
      <trkpt lat="42.540171006694436" lon="2.544825011864305">
        <ele>867.25</ele>
        <time>2025-05-15T09:06:19Z</time>
      </trkpt>
      <trkpt lat="42.540048966184258" lon="2.545031039044261">
        <ele>865.79999999999995</ele>
        <time>2025-05-15T09:06:22Z</time>
      </trkpt>
      <trkpt lat="42.54000797867775" lon="2.54507202655077">
        <ele>865.32000000000005</ele>
        <time>2025-05-15T09:06:23Z</time>
      </trkpt>
      <trkpt lat="42.539961962029338" lon="2.54511603154242">
        <ele>864.84000000000003</ele>
        <time>2025-05-15T09:06:24Z</time>
      </trkpt>
      <trkpt lat="42.539908988401294" lon="2.54511603154242">
        <ele>864.36000000000001</ele>
        <time>2025-05-15T09:06:25Z</time>
      </trkpt>
      <trkpt lat="42.539847968146205" lon="2.54511603154242">
        <ele>863.88</ele>
        <time>2025-05-15T09:06:26Z</time>
      </trkpt>
      <trkpt lat="42.539777979254723" lon="2.54511603154242">
        <ele>863.39999999999998</ele>
        <time>2025-05-15T09:06:27Z</time>
      </trkpt>
      <trkpt lat="42.539702039211988" lon="2.54511603154242">
        <ele>862.91999999999996</ele>
        <time>2025-05-15T09:06:28Z</time>
      </trkpt>
      <trkpt lat="42.539619980379939" lon="2.545129023492336">
        <ele>862.44000000000005</ele>
        <time>2025-05-15T09:06:29Z</time>
      </trkpt>
      <trkpt lat="42.53930096514523" lon="2.545155007392168">
        <ele>861</ele>
        <time>2025-05-15T09:06:33Z</time>
      </trkpt>
      <trkpt lat="42.539227036759257" lon="2.545123994350433">
        <ele>861</ele>
        <time>2025-05-15T09:06:34Z</time>
      </trkpt>
      <trkpt lat="42.538897041231394" lon="2.544988039880991">
        <ele>859.55999999999995</ele>
        <time>2025-05-15T09:06:37Z</time>
      </trkpt>
      <trkpt lat="42.538662012666464" lon="2.544890977442265">
        <ele>858.11000000000001</ele>
        <time>2025-05-15T09:06:39Z</time>
      </trkpt>
      <trkpt lat="42.538545001298189" lon="2.544862981885672">
        <ele>857.63</ele>
        <time>2025-05-15T09:06:40Z</time>
      </trkpt>
      <trkpt lat="42.538235038518906" lon="2.544812019914389">
        <ele>855.71000000000004</ele>
        <time>2025-05-15T09:06:43Z</time>
      </trkpt>
      <trkpt lat="42.538161026313901" lon="2.544807996600866">
        <ele>854.75</ele>
        <time>2025-05-15T09:06:44Z</time>
      </trkpt>
      <trkpt lat="42.537922980263829" lon="2.544802967458963">
        <ele>852.35000000000002</ele>
        <time>2025-05-15T09:06:48Z</time>
      </trkpt>
      <trkpt lat="42.53785902634263" lon="2.544825011864305">
        <ele>851.38</ele>
        <time>2025-05-15T09:06:49Z</time>
      </trkpt>
      <trkpt lat="42.537807980552316" lon="2.544844038784504">
        <ele>850.89999999999998</ele>
        <time>2025-05-15T09:06:50Z</time>
      </trkpt>
      <trkpt lat="42.53764403052628" lon="2.5449029635638">
        <ele>848.5</ele>
        <time>2025-05-15T09:06:53Z</time>
      </trkpt>
      <trkpt lat="42.537282016128302" lon="2.545107984915376">
        <ele>844.17999999999995</ele>
        <time>2025-05-15T09:06:59Z</time>
      </trkpt>
      <trkpt lat="42.537218984216452" lon="2.545162970200181">
        <ele>843.21000000000004</ele>
        <time>2025-05-15T09:07:00Z</time>
      </trkpt>
      <trkpt lat="42.537168022245169" lon="2.545218039304018">
        <ele>842.25</ele>
        <time>2025-05-15T09:07:01Z</time>
      </trkpt>
      <trkpt lat="42.537131980061531" lon="2.545298002660275">
        <ele>840.80999999999995</ele>
        <time>2025-05-15T09:07:02Z</time>
      </trkpt>
      <trkpt lat="42.537094010040164" lon="2.545384000986815">
        <ele>839.37</ele>
        <time>2025-05-15T09:07:03Z</time>
      </trkpt>
      <trkpt lat="42.537058973684907" lon="2.545464970171452">
        <ele>837.92999999999995</ele>
        <time>2025-05-15T09:07:04Z</time>
      </trkpt>
      <trkpt lat="42.537027038633823" lon="2.545536970719695">
        <ele>836.48000000000002</ele>
        <time>2025-05-15T09:07:05Z</time>
      </trkpt>
      <trkpt lat="42.536995019763708" lon="2.545608971267939">
        <ele>835.51999999999998</ele>
        <time>2025-05-15T09:07:06Z</time>
      </trkpt>
      <trkpt lat="42.536960989236832" lon="2.545686000958085">
        <ele>834.08000000000004</ele>
        <time>2025-05-15T09:07:07Z</time>
      </trkpt>
      <trkpt lat="42.536927964538336" lon="2.545762024819851">
        <ele>832.63999999999999</ele>
        <time>2025-05-15T09:07:08Z</time>
      </trkpt>
      <trkpt lat="42.536895023658872" lon="2.545836037024856">
        <ele>831.20000000000005</ele>
        <time>2025-05-15T09:07:09Z</time>
      </trkpt>
      <trkpt lat="42.536853030323982" lon="2.545931003987789">
        <ele>829.75999999999999</ele>
        <time>2025-05-15T09:07:10Z</time>
      </trkpt>
      <trkpt lat="42.536803996190429" lon="2.545970985665917">
        <ele>828.30999999999995</ele>
        <time>2025-05-15T09:07:11Z</time>
      </trkpt>
      <trkpt lat="42.536731995642185" lon="2.546020019799471">
        <ele>826.87</ele>
        <time>2025-05-15T09:07:12Z</time>
      </trkpt>
      <trkpt lat="42.536652032285929" lon="2.546036029234529">
        <ele>825.90999999999997</ele>
        <time>2025-05-15T09:07:13Z</time>
      </trkpt>
      <trkpt lat="42.536568967625499" lon="2.546052960678935">
        <ele>825.42999999999995</ele>
        <time>2025-05-15T09:07:14Z</time>
      </trkpt>
      <trkpt lat="42.536530997604132" lon="2.546060001477599">
        <ele>823.99000000000001</ele>
        <time>2025-05-15T09:07:15Z</time>
      </trkpt>
      <trkpt lat="42.536425972357392" lon="2.546028988435864">
        <ele>823.02999999999997</ele>
        <time>2025-05-15T09:07:16Z</time>
      </trkpt>
      <trkpt lat="42.536201002076268" lon="2.545963022857904">
        <ele>819.17999999999995</ele>
        <time>2025-05-15T09:07:20Z</time>
      </trkpt>
      <trkpt lat="42.536124978214502" lon="2.546004010364413">
        <ele>818.22000000000003</ele>
        <time>2025-05-15T09:07:21Z</time>
      </trkpt>
      <trkpt lat="42.536082984879613" lon="2.546056983992457">
        <ele>817.74000000000001</ele>
        <time>2025-05-15T09:07:22Z</time>
      </trkpt>
      <trkpt lat="42.536068987101316" lon="2.546137031167746">
        <ele>817.25999999999999</ele>
        <time>2025-05-15T09:07:23Z</time>
      </trkpt>
      <trkpt lat="42.536059012636542" lon="2.54621003754437">
        <ele>818.22000000000003</ele>
        <time>2025-05-15T09:07:24Z</time>
      </trkpt>
      <trkpt lat="42.536096982657909" lon="2.546263011172414">
        <ele>818.22000000000003</ele>
        <time>2025-05-15T09:07:25Z</time>
      </trkpt>
      <trkpt lat="42.536138975992799" lon="2.546323025599122">
        <ele>818.22000000000003</ele>
        <time>2025-05-15T09:07:26Z</time>
      </trkpt>
      <trkpt lat="42.536165965721011" lon="2.546360995620489">
        <ele>818.22000000000003</ele>
        <time>2025-05-15T09:07:27Z</time>
      </trkpt>
      <trkpt lat="42.536250958219171" lon="2.54642796702683">
        <ele>818.22000000000003</ele>
        <time>2025-05-15T09:07:28Z</time>
      </trkpt>
      <trkpt lat="42.536322036758065" lon="2.546483958140016">
        <ele>818.22000000000003</ele>
        <time>2025-05-15T09:07:29Z</time>
      </trkpt>
      <trkpt lat="42.536393031477928" lon="2.546541038900614">
        <ele>817.74000000000001</ele>
        <time>2025-05-15T09:07:30Z</time>
      </trkpt>
      <trkpt lat="42.536463020369411" lon="2.546596024185419">
        <ele>817.74000000000001</ele>
        <time>2025-05-15T09:07:31Z</time>
      </trkpt>
      <trkpt lat="42.536530997604132" lon="2.546650003641844">
        <ele>817.74000000000001</ele>
        <time>2025-05-15T09:07:32Z</time>
      </trkpt>
      <trkpt lat="42.536600986495614" lon="2.546704988926649">
        <ele>817.74000000000001</ele>
        <time>2025-05-15T09:07:33Z</time>
      </trkpt>
      <trkpt lat="42.536676004528999" lon="2.546765003353357">
        <ele>817.74000000000001</ele>
        <time>2025-05-15T09:07:34Z</time>
      </trkpt>
      <trkpt lat="42.536751022562385" lon="2.546824011951685">
        <ele>817.74000000000001</ele>
        <time>2025-05-15T09:07:35Z</time>
      </trkpt>
      <trkpt lat="42.536822017282248" lon="2.546844966709614">
        <ele>817.74000000000001</ele>
        <time>2025-05-15T09:07:36Z</time>
      </trkpt>
      <trkpt lat="42.536885971203446" lon="2.546827029436827">
        <ele>817.74000000000001</ele>
        <time>2025-05-15T09:07:37Z</time>
      </trkpt>
      <trkpt lat="42.536952020600438" lon="2.546809008345008">
        <ele>818.22000000000003</ele>
        <time>2025-05-15T09:07:38Z</time>
      </trkpt>
      <trkpt lat="42.537030978128314" lon="2.546785958111286">
        <ele>818.70000000000005</ele>
        <time>2025-05-15T09:07:39Z</time>
      </trkpt>
      <trkpt lat="42.537111025303602" lon="2.546763997524977">
        <ele>819.17999999999995</ele>
        <time>2025-05-15T09:07:40Z</time>
      </trkpt>
      <trkpt lat="42.537198029458523" lon="2.546740025281906">
        <ele>819.17999999999995</ele>
        <time>2025-05-15T09:07:41Z</time>
      </trkpt>
      <trkpt lat="42.537683006376028" lon="2.546603986993432">
        <ele>819.17999999999995</ele>
        <time>2025-05-15T09:07:46Z</time>
      </trkpt>
      <trkpt lat="42.537904037162662" lon="2.5465970300138">
        <ele>818.70000000000005</ele>
        <time>2025-05-15T09:07:49Z</time>
      </trkpt>
      <trkpt lat="42.538019036874175" lon="2.546668024733663">
        <ele>818.70000000000005</ele>
        <time>2025-05-15T09:07:50Z</time>
      </trkpt>
      <trkpt lat="42.538146022707224" lon="2.546795010566711">
        <ele>818.22000000000003</ele>
        <time>2025-05-15T09:07:52Z</time>
      </trkpt>
      <trkpt lat="42.538207964971662" lon="2.546875979751349">
        <ele>817.74000000000001</ele>
        <time>2025-05-15T09:07:53Z</time>
      </trkpt>
      <trkpt lat="42.538387002423406" lon="2.547107990831137">
        <ele>815.82000000000005</ele>
        <time>2025-05-15T09:07:56Z</time>
      </trkpt>
      <trkpt lat="42.538445005193353" lon="2.547183008864522">
        <ele>814.85000000000002</ele>
        <time>2025-05-15T09:07:57Z</time>
      </trkpt>
      <trkpt lat="42.538556987419724" lon="2.547280993312597">
        <ele>813.88999999999999</ele>
        <time>2025-05-15T09:07:58Z</time>
      </trkpt>
      <trkpt lat="42.538708029314876" lon="2.547337990254164">
        <ele>811.97000000000003</ele>
        <time>2025-05-15T09:08:00Z</time>
      </trkpt>
      <trkpt lat="42.538795033469796" lon="2.54737101495266">
        <ele>811.00999999999999</ele>
        <time>2025-05-15T09:08:01Z</time>
      </trkpt>
      <trkpt lat="42.539446977898479" lon="2.547576958313584">
        <ele>804.27999999999997</ele>
        <time>2025-05-15T09:08:08Z</time>
      </trkpt>
      <trkpt lat="42.53953599371016" lon="2.54758601076901">
        <ele>803.32000000000005</ele>
        <time>2025-05-15T09:08:09Z</time>
      </trkpt>
      <trkpt lat="42.539624003693461" lon="2.547594979405403">
        <ele>802.84000000000003</ele>
        <time>2025-05-15T09:08:10Z</time>
      </trkpt>
      <trkpt lat="42.539704972878098" lon="2.547603026032448">
        <ele>801.88</ele>
        <time>2025-05-15T09:08:11Z</time>
      </trkpt>
      <trkpt lat="42.539786025881767" lon="2.547620041295886">
        <ele>800.91999999999996</ele>
        <time>2025-05-15T09:08:12Z</time>
      </trkpt>
      <trkpt lat="42.53987898118794" lon="2.547645019367337">
        <ele>799.95000000000005</ele>
        <time>2025-05-15T09:08:13Z</time>
      </trkpt>
      <trkpt lat="42.539966991171241" lon="2.547667985782027">
        <ele>799.47000000000003</ele>
        <time>2025-05-15T09:08:14Z</time>
      </trkpt>
      <trkpt lat="42.540059024468064" lon="2.547692963853478">
        <ele>798.50999999999999</ele>
        <time>2025-05-15T09:08:15Z</time>
      </trkpt>
      <trkpt lat="42.540654977783561" lon="2.547850962728262">
        <ele>794.66999999999996</ele>
        <time>2025-05-15T09:08:21Z</time>
      </trkpt>
      <trkpt lat="42.54078003577888" lon="2.547883987426758">
        <ele>794.19000000000005</ele>
        <time>2025-05-15T09:08:22Z</time>
      </trkpt>
      <trkpt lat="42.541459975764155" lon="2.547841994091868">
        <ele>794.66999999999996</ele>
        <time>2025-05-15T09:08:29Z</time>
      </trkpt>
      <trkpt lat="42.541560977697372" lon="2.547835037112236">
        <ele>794.66999999999996</ele>
        <time>2025-05-15T09:08:30Z</time>
      </trkpt>
      <trkpt lat="42.541767004877329" lon="2.547821961343288">
        <ele>795.14999999999998</ele>
        <time>2025-05-15T09:08:32Z</time>
      </trkpt>
      <trkpt lat="42.541891979053617" lon="2.547835037112236">
        <ele>795.63</ele>
        <time>2025-05-15T09:08:33Z</time>
      </trkpt>
      <trkpt lat="42.541994992643595" lon="2.547854986041784">
        <ele>795.63</ele>
        <time>2025-05-15T09:08:34Z</time>
      </trkpt>
      <trkpt lat="42.542089037597179" lon="2.547873007133603">
        <ele>795.63</ele>
        <time>2025-05-15T09:08:35Z</time>
      </trkpt>
      <trkpt lat="42.542184004560113" lon="2.547891028225422">
        <ele>795.63</ele>
        <time>2025-05-15T09:08:36Z</time>
      </trkpt>
      <trkpt lat="42.542260028421879" lon="2.547905026003718">
        <ele>795.14999999999998</ele>
        <time>2025-05-15T09:08:37Z</time>
      </trkpt>
      <trkpt lat="42.542368993163109" lon="2.54797400906682">
        <ele>795.14999999999998</ele>
        <time>2025-05-15T09:08:38Z</time>
      </trkpt>
      <trkpt lat="42.542451974004507" lon="2.548078028485179">
        <ele>794.66999999999996</ele>
        <time>2025-05-15T09:08:39Z</time>
      </trkpt>
      <trkpt lat="42.54247703589499" lon="2.548155980184674">
        <ele>794.66999999999996</ele>
        <time>2025-05-15T09:08:40Z</time>
      </trkpt>
      <trkpt lat="42.542504025623202" lon="2.548239966854453">
        <ele>794.66999999999996</ele>
        <time>2025-05-15T09:08:41Z</time>
      </trkpt>
      <trkpt lat="42.542529003694654" lon="2.548321019858122">
        <ele>794.66999999999996</ele>
        <time>2025-05-15T09:08:42Z</time>
      </trkpt>
      <trkpt lat="42.542553981766105" lon="2.548463009297848">
        <ele>794.66999999999996</ele>
        <time>2025-05-15T09:08:43Z</time>
      </trkpt>
      <trkpt lat="42.542539983987808" lon="2.548564011231065">
        <ele>794.66999999999996</ele>
        <time>2025-05-15T09:08:44Z</time>
      </trkpt>
      <trkpt lat="42.542518023401499" lon="2.548721004277468">
        <ele>795.14999999999998</ele>
        <time>2025-05-15T09:08:45Z</time>
      </trkpt>
      <trkpt lat="42.542487010359764" lon="2.548795016482472">
        <ele>795.14999999999998</ele>
        <time>2025-05-15T09:08:46Z</time>
      </trkpt>
      <trkpt lat="42.542435964569449" lon="2.548916973173618">
        <ele>795.63</ele>
        <time>2025-05-15T09:08:47Z</time>
      </trkpt>
      <trkpt lat="42.541989963501692" lon="2.549737980589271">
        <ele>798.02999999999997</ele>
        <time>2025-05-15T09:08:54Z</time>
      </trkpt>
      <trkpt lat="42.541930032894015" lon="2.54982297308743">
        <ele>798.50999999999999</ele>
        <time>2025-05-15T09:08:55Z</time>
      </trkpt>
      <trkpt lat="42.541764993220568" lon="2.549978038296104">
        <ele>799.95000000000005</ele>
        <time>2025-05-15T09:08:57Z</time>
      </trkpt>
      <trkpt lat="42.541092010214925" lon="2.550450023263693">
        <ele>810.52999999999997</ele>
        <time>2025-05-15T09:09:05Z</time>
      </trkpt>
      <trkpt lat="42.540812976658344" lon="2.550590001046658">
        <ele>816.77999999999997</ele>
        <time>2025-05-15T09:09:08Z</time>
      </trkpt>
      <trkpt lat="42.540712980553508" lon="2.550639035180211">
        <ele>817.74000000000001</ele>
        <time>2025-05-15T09:09:09Z</time>
      </trkpt>
      <trkpt lat="42.54060996696353" lon="2.550688991323113">
        <ele>818.22000000000003</ele>
        <time>2025-05-15T09:09:10Z</time>
      </trkpt>
      <trkpt lat="42.540400000289083" lon="2.550792004913092">
        <ele>819.17999999999995</ele>
        <time>2025-05-15T09:09:12Z</time>
      </trkpt>
      <trkpt lat="42.540291035547853" lon="2.550844978541136">
        <ele>819.17999999999995</ele>
        <time>2025-05-15T09:09:13Z</time>
      </trkpt>
      <trkpt lat="42.539628027006984" lon="2.551396004855633">
        <ele>822.54999999999995</ele>
        <time>2025-05-15T09:09:21Z</time>
      </trkpt>
      <trkpt lat="42.539346981793642" lon="2.551676966249943">
        <ele>824.47000000000003</ele>
        <time>2025-05-15T09:09:25Z</time>
      </trkpt>
      <trkpt lat="42.53923499956727" lon="2.551789032295346">
        <ele>824.47000000000003</ele>
        <time>2025-05-15T09:09:26Z</time>
      </trkpt>
      <trkpt lat="42.53923399373889" lon="2.551790960133076">
        <ele>824.47000000000003</ele>
        <time>2025-05-15T09:09:27Z</time>
      </trkpt>
      <trkpt lat="42.539185965433717" lon="2.551886010915041">
        <ele>824.95000000000005</ele>
        <time>2025-05-15T09:09:28Z</time>
      </trkpt>
      <trkpt lat="42.539136009290814" lon="2.551988018676639">
        <ele>825.42999999999995</ele>
        <time>2025-05-15T09:09:29Z</time>
      </trkpt>
      <trkpt lat="42.538959989324212" lon="2.552585983648896">
        <ele>828.30999999999995</ele>
        <time>2025-05-15T09:09:34Z</time>
      </trkpt>
      <trkpt lat="42.53893400542438" lon="2.552692014724016">
        <ele>828.78999999999996</ele>
        <time>2025-05-15T09:09:35Z</time>
      </trkpt>
      <trkpt lat="42.538909027352929" lon="2.552792010828853">
        <ele>830.72000000000003</ele>
        <time>2025-05-15T09:09:36Z</time>
      </trkpt>
      <trkpt lat="42.538885977119207" lon="2.552883038297296">
        <ele>832.15999999999997</ele>
        <time>2025-05-15T09:09:37Z</time>
      </trkpt>
      <trkpt lat="42.53884800709784" lon="2.553033996373415">
        <ele>833.60000000000002</ele>
        <time>2025-05-15T09:09:38Z</time>
      </trkpt>
      <trkpt lat="42.538823029026389" lon="2.553082024678588">
        <ele>834.55999999999995</ele>
        <time>2025-05-15T09:09:39Z</time>
      </trkpt>
      <trkpt lat="42.538772989064455" lon="2.553175985813141">
        <ele>837.45000000000005</ele>
        <time>2025-05-15T09:09:40Z</time>
      </trkpt>
      <trkpt lat="42.538539972156286" lon="2.553457031026483">
        <ele>838.40999999999997</ele>
        <time>2025-05-15T09:09:42Z</time>
      </trkpt>
      <trkpt lat="42.538434024900198" lon="2.553511010482907">
        <ele>839.37</ele>
        <time>2025-05-15T09:09:43Z</time>
      </trkpt>
      <trkpt lat="42.537891967222095" lon="2.553787026554346">
        <ele>848.01999999999998</ele>
        <time>2025-05-15T09:09:48Z</time>
      </trkpt>
      <trkpt lat="42.537798006087542" lon="2.553834971040487">
        <ele>848.98000000000002</ele>
        <time>2025-05-15T09:09:49Z</time>
      </trkpt>
      <trkpt lat="42.537693986669183" lon="2.553888028487563">
        <ele>849.94000000000005</ele>
        <time>2025-05-15T09:09:50Z</time>
      </trkpt>
      <trkpt lat="42.537588961422443" lon="2.553941002115607">
        <ele>851.38</ele>
        <time>2025-05-15T09:09:51Z</time>
      </trkpt>
      <trkpt lat="42.537498017773032" lon="2.553987018764019">
        <ele>852.35000000000002</ele>
        <time>2025-05-15T09:09:52Z</time>
      </trkpt>
      <trkpt lat="42.537405984476209" lon="2.554030017927289">
        <ele>852.35000000000002</ele>
        <time>2025-05-15T09:09:53Z</time>
      </trkpt>
      <trkpt lat="42.537196017801762" lon="2.554106963798404">
        <ele>852.83000000000004</ele>
        <time>2025-05-15T09:09:54Z</time>
      </trkpt>
      <trkpt lat="42.537013040855527" lon="2.554073017090559">
        <ele>856.19000000000005</ele>
        <time>2025-05-15T09:09:57Z</time>
      </trkpt>
      <trkpt lat="42.536943973973393" lon="2.554059019312263">
        <ele>856.66999999999996</ele>
        <time>2025-05-15T09:09:58Z</time>
      </trkpt>
      <trkpt lat="42.536853030323982" lon="2.554042004048824">
        <ele>856.66999999999996</ele>
        <time>2025-05-15T09:09:59Z</time>
      </trkpt>
      <trkpt lat="42.536808019503951" lon="2.554094977676868">
        <ele>856.66999999999996</ele>
        <time>2025-05-15T09:10:00Z</time>
      </trkpt>
      <trkpt lat="42.536737024784088" lon="2.554236967116594">
        <ele>857.14999999999998</ele>
        <time>2025-05-15T09:10:01Z</time>
      </trkpt>
      <trkpt lat="42.536767031997442" lon="2.554342998191714">
        <ele>858.59000000000003</ele>
        <time>2025-05-15T09:10:02Z</time>
      </trkpt>
      <trkpt lat="42.536866022273898" lon="2.554450035095215">
        <ele>859.55999999999995</ele>
        <time>2025-05-15T09:10:03Z</time>
      </trkpt>
      <trkpt lat="42.53693601116538" lon="2.554525975137949">
        <ele>860.03999999999996</ele>
        <time>2025-05-15T09:10:04Z</time>
      </trkpt>
      <trkpt lat="42.537002982571721" lon="2.554599987342954">
        <ele>860.51999999999998</ele>
        <time>2025-05-15T09:10:05Z</time>
      </trkpt>
      <trkpt lat="42.537076994776726" lon="2.554700989276171">
        <ele>861</ele>
        <time>2025-05-15T09:10:06Z</time>
      </trkpt>
      <trkpt lat="42.537287967279553" lon="2.554992008954287">
        <ele>863.88</ele>
        <time>2025-05-15T09:10:09Z</time>
      </trkpt>
      <trkpt lat="42.537374971434474" lon="2.55521597340703">
        <ele>865.32000000000005</ele>
        <time>2025-05-15T09:10:11Z</time>
      </trkpt>
      <trkpt lat="42.537411013618112" lon="2.555394005030394">
        <ele>866.76999999999998</ele>
        <time>2025-05-15T09:10:13Z</time>
      </trkpt>
      <trkpt lat="42.537411013618112" lon="2.555394005030394">
        <ele>868.21000000000004</ele>
        <time>2025-05-15T09:10:14Z</time>
      </trkpt>
      <trkpt lat="42.537353010848165" lon="2.55555703304708">
        <ele>869.16999999999996</ele>
        <time>2025-05-15T09:10:15Z</time>
      </trkpt>
      <trkpt lat="42.537271035835147" lon="2.555787032470107">
        <ele>873.5</ele>
        <time>2025-05-15T09:10:17Z</time>
      </trkpt>
      <trkpt lat="42.537124017253518" lon="2.556156003847718">
        <ele>885.99000000000001</ele>
        <time>2025-05-15T09:10:21Z</time>
      </trkpt>
      <trkpt lat="42.537074983119965" lon="2.556247031316161">
        <ele>888.39999999999998</ele>
        <time>2025-05-15T09:10:22Z</time>
      </trkpt>
      <trkpt lat="42.537026032805443" lon="2.556339986622334">
        <ele>890.79999999999995</ele>
        <time>2025-05-15T09:10:23Z</time>
      </trkpt>
      <trkpt lat="42.536913966760039" lon="2.556508965790272">
        <ele>894.15999999999997</ele>
        <time>2025-05-15T09:10:25Z</time>
      </trkpt>
      <trkpt lat="42.536683967337012" lon="2.556797973811626">
        <ele>897.52999999999997</ele>
        <time>2025-05-15T09:10:28Z</time>
      </trkpt>
      <trkpt lat="42.536610038951039" lon="2.556892018765211">
        <ele>897.52999999999997</ele>
        <time>2025-05-15T09:10:29Z</time>
      </trkpt>
      <trkpt lat="42.536470983177423" lon="2.557067032903433">
        <ele>898.00999999999999</ele>
        <time>2025-05-15T09:10:31Z</time>
      </trkpt>
      <trkpt lat="42.536403005942702" lon="2.557152025401592">
        <ele>898.49000000000001</ele>
        <time>2025-05-15T09:10:32Z</time>
      </trkpt>
      <trkpt lat="42.536059012636542" lon="2.558098006993532">
        <ele>902.82000000000005</ele>
        <time>2025-05-15T09:10:39Z</time>
      </trkpt>
      <trkpt lat="42.536010984331369" lon="2.558215018361807">
        <ele>904.25999999999999</ele>
        <time>2025-05-15T09:10:40Z</time>
      </trkpt>
      <trkpt lat="42.535954993218184" lon="2.55835298448801">
        <ele>906.17999999999995</ele>
        <time>2025-05-15T09:10:41Z</time>
      </trkpt>
      <trkpt lat="42.535790037363768" lon="2.558720028027892">
        <ele>909.53999999999996</ele>
        <time>2025-05-15T09:10:44Z</time>
      </trkpt>
      <trkpt lat="42.535713007673621" lon="2.558821029961109">
        <ele>910.99000000000001</ele>
        <time>2025-05-15T09:10:45Z</time>
      </trkpt>
      <trkpt lat="42.535640001296997" lon="2.558918008580804">
        <ele>911.47000000000003</ele>
        <time>2025-05-15T09:10:46Z</time>
      </trkpt>
      <trkpt lat="42.535479990765452" lon="2.559127975255251">
        <ele>912.42999999999995</ele>
        <time>2025-05-15T09:10:48Z</time>
      </trkpt>
      <trkpt lat="42.535402961075306" lon="2.559158988296986">
        <ele>912.90999999999997</ele>
        <time>2025-05-15T09:10:49Z</time>
      </trkpt>
      <trkpt lat="42.535320986062288" lon="2.559192012995482">
        <ele>913.38999999999999</ele>
        <time>2025-05-15T09:10:50Z</time>
      </trkpt>
      <trkpt lat="42.535247979685664" lon="2.559222020208836">
        <ele>913.87</ele>
        <time>2025-05-15T09:10:51Z</time>
      </trkpt>
      <trkpt lat="42.535183019936085" lon="2.559249009937048">
        <ele>914.83000000000004</ele>
        <time>2025-05-15T09:10:52Z</time>
      </trkpt>
      <trkpt lat="42.535117976367474" lon="2.55927599966526">
        <ele>914.83000000000004</ele>
        <time>2025-05-15T09:10:53Z</time>
      </trkpt>
      <trkpt lat="42.535006999969482" lon="2.559321010485292">
        <ele>914.83000000000004</ele>
        <time>2025-05-15T09:10:54Z</time>
      </trkpt>
      <trkpt lat="42.534999037161469" lon="2.55933903157711">
        <ele>915.30999999999995</ele>
        <time>2025-05-15T09:10:55Z</time>
      </trkpt>
      <trkpt lat="42.534957965835929" lon="2.559429975226522">
        <ele>915.30999999999995</ele>
        <time>2025-05-15T09:10:56Z</time>
      </trkpt>
      <trkpt lat="42.534910021349788" lon="2.5595329888165">
        <ele>916.26999999999998</ele>
        <time>2025-05-15T09:10:57Z</time>
      </trkpt>
      <trkpt lat="42.534859981387854" lon="2.55964295938611">
        <ele>916.75</ele>
        <time>2025-05-15T09:10:58Z</time>
      </trkpt>
      <trkpt lat="42.534810025244951" lon="2.559753013774753">
        <ele>917.24000000000001</ele>
        <time>2025-05-15T09:10:59Z</time>
      </trkpt>
      <trkpt lat="42.534740036353469" lon="2.559873964637518">
        <ele>917.24000000000001</ele>
        <time>2025-05-15T09:11:00Z</time>
      </trkpt>
      <trkpt lat="42.534484975039959" lon="2.560127014294267">
        <ele>916.26999999999998</ele>
        <time>2025-05-15T09:11:03Z</time>
      </trkpt>
      <trkpt lat="42.534395959228277" lon="2.560169007629156">
        <ele>915.30999999999995</ele>
        <time>2025-05-15T09:11:04Z</time>
      </trkpt>
      <trkpt lat="42.534300992265344" lon="2.560214018449187">
        <ele>914.83000000000004</ele>
        <time>2025-05-15T09:11:05Z</time>
      </trkpt>
      <trkpt lat="42.534070992842317" lon="2.560255005955696">
        <ele>913.38999999999999</ele>
        <time>2025-05-15T09:11:07Z</time>
      </trkpt>
      <trkpt lat="42.533865971490741" lon="2.560238996520639">
        <ele>911.95000000000005</ele>
        <time>2025-05-15T09:11:09Z</time>
      </trkpt>
      <trkpt lat="42.533772010356188" lon="2.560231033712626">
        <ele>910.99000000000001</ele>
        <time>2025-05-15T09:11:10Z</time>
      </trkpt>
      <trkpt lat="42.53369003534317" lon="2.560224998742342">
        <ele>910.02999999999997</ele>
        <time>2025-05-15T09:11:11Z</time>
      </trkpt>
      <trkpt lat="42.533645024523139" lon="2.560229022055864">
        <ele>908.58000000000004</ele>
        <time>2025-05-15T09:11:12Z</time>
      </trkpt>
      <trkpt lat="42.53360596485436" lon="2.560252994298935">
        <ele>907.62</ele>
        <time>2025-05-15T09:11:13Z</time>
      </trkpt>
      <trkpt lat="42.533484008163214" lon="2.560329018160701">
        <ele>906.65999999999997</ele>
        <time>2025-05-15T09:11:14Z</time>
      </trkpt>
      <trkpt lat="42.533485013991594" lon="2.560337986797094">
        <ele>906.17999999999995</ele>
        <time>2025-05-15T09:11:15Z</time>
      </trkpt>
      <trkpt lat="42.533489959314466" lon="2.560376962646842">
        <ele>906.17999999999995</ele>
        <time>2025-05-15T09:11:16Z</time>
      </trkpt>
      <trkpt lat="42.533501023426652" lon="2.560477964580059">
        <ele>907.13999999999999</ele>
        <time>2025-05-15T09:11:17Z</time>
      </trkpt>
      <trkpt lat="42.533527007326484" lon="2.56069396622479">
        <ele>909.05999999999995</ele>
        <time>2025-05-15T09:11:18Z</time>
      </trkpt>
      <trkpt lat="42.533553997054696" lon="2.560793962329626">
        <ele>910.50999999999999</ele>
        <time>2025-05-15T09:11:19Z</time>
      </trkpt>
      <trkpt lat="42.533600013703108" lon="2.560963025316596">
        <ele>912.90999999999997</ele>
        <time>2025-05-15T09:11:20Z</time>
      </trkpt>
      <trkpt lat="42.533852979540825" lon="2.56189500913024">
        <ele>920.12</ele>
        <time>2025-05-15T09:11:26Z</time>
      </trkpt>
      <trkpt lat="42.533876029774547" lon="2.562056025490165">
        <ele>921.55999999999995</ele>
        <time>2025-05-15T09:11:27Z</time>
      </trkpt>
      <trkpt lat="42.53388499841094" lon="2.562220981344581">
        <ele>923</ele>
        <time>2025-05-15T09:11:28Z</time>
      </trkpt>
      <trkpt lat="42.533892039209604" lon="2.5623460393399">
        <ele>923.48000000000002</ele>
        <time>2025-05-15T09:11:29Z</time>
      </trkpt>
      <trkpt lat="42.533836970105767" lon="2.562519041821361">
        <ele>923.48000000000002</ele>
        <time>2025-05-15T09:11:30Z</time>
      </trkpt>
      <trkpt lat="42.533795982599258" lon="2.562646027654409">
        <ele>923.96000000000004</ele>
        <time>2025-05-15T09:11:31Z</time>
      </trkpt>
      <trkpt lat="42.533753989264369" lon="2.562779970467091">
        <ele>924.45000000000005</ele>
        <time>2025-05-15T09:11:32Z</time>
      </trkpt>
      <trkpt lat="42.533740997314453" lon="2.56281903013587">
        <ele>924.45000000000005</ele>
        <time>2025-05-15T09:11:33Z</time>
      </trkpt>
      <trkpt lat="42.533641001209617" lon="2.562906034290791">
        <ele>925.40999999999997</ele>
        <time>2025-05-15T09:11:34Z</time>
      </trkpt>
      <trkpt lat="42.533579980954528" lon="2.562959007918835">
        <ele>926.37</ele>
        <time>2025-05-15T09:11:35Z</time>
      </trkpt>
      <trkpt lat="42.533533964306116" lon="2.562982980161905">
        <ele>927.80999999999995</ele>
        <time>2025-05-15T09:11:36Z</time>
      </trkpt>
      <trkpt lat="42.533456012606621" lon="2.563014999032021">
        <ele>929.25</ele>
        <time>2025-05-15T09:11:37Z</time>
      </trkpt>
      <trkpt lat="42.533365990966558" lon="2.563051963225007">
        <ele>929.73000000000002</ele>
        <time>2025-05-15T09:11:38Z</time>
      </trkpt>
      <trkpt lat="42.533258032053709" lon="2.563095968216658">
        <ele>931.16999999999996</ele>
        <time>2025-05-15T09:11:39Z</time>
      </trkpt>
      <trkpt lat="42.533152000978589" lon="2.563138967379928">
        <ele>932.13999999999999</ele>
        <time>2025-05-15T09:11:40Z</time>
      </trkpt>
      <trkpt lat="42.532947985455394" lon="2.563243992626667">
        <ele>934.05999999999995</ele>
        <time>2025-05-15T09:11:42Z</time>
      </trkpt>
      <trkpt lat="42.532463008537889" lon="2.563683958724141">
        <ele>941.75</ele>
        <time>2025-05-15T09:11:48Z</time>
      </trkpt>
      <trkpt lat="42.532385978847742" lon="2.563731987029314">
        <ele>942.71000000000004</ele>
        <time>2025-05-15T09:11:49Z</time>
      </trkpt>
      <trkpt lat="42.532196966931224" lon="2.563848998397589">
        <ele>945.59000000000003</ele>
        <time>2025-05-15T09:11:51Z</time>
      </trkpt>
      <trkpt lat="42.532092025503516" lon="2.563874982297421">
        <ele>946.55999999999995</ele>
        <time>2025-05-15T09:11:52Z</time>
      </trkpt>
      <trkpt lat="42.531980965286493" lon="2.563901972025633">
        <ele>947.51999999999998</ele>
        <time>2025-05-15T09:11:53Z</time>
      </trkpt>
      <trkpt lat="42.531647030264139" lon="2.563985958695412">
        <ele>950.88</ele>
        <time>2025-05-15T09:11:56Z</time>
      </trkpt>
      <trkpt lat="42.53154301084578" lon="2.564012026414275">
        <ele>951.36000000000001</ele>
        <time>2025-05-15T09:11:57Z</time>
      </trkpt>
      <trkpt lat="42.531315023079515" lon="2.563998028635979">
        <ele>951.84000000000003</ele>
        <time>2025-05-15T09:12:00Z</time>
      </trkpt>
      <trkpt lat="42.531235981732607" lon="2.563966009765863">
        <ele>952.32000000000005</ele>
        <time>2025-05-15T09:12:01Z</time>
      </trkpt>
      <trkpt lat="42.53115601837635" lon="2.563933990895748">
        <ele>952.32000000000005</ele>
        <time>2025-05-15T09:12:02Z</time>
      </trkpt>
      <trkpt lat="42.531076977029443" lon="2.563902977854013">
        <ele>952.32000000000005</ele>
        <time>2025-05-15T09:12:03Z</time>
      </trkpt>
      <trkpt lat="42.531003970652819" lon="2.563872970640659">
        <ele>952.79999999999995</ele>
        <time>2025-05-15T09:12:04Z</time>
      </trkpt>
      <trkpt lat="42.530995002016425" lon="2.563870036974549">
        <ele>952.79999999999995</ele>
        <time>2025-05-15T09:12:05Z</time>
      </trkpt>
      <trkpt lat="42.53087698481977" lon="2.563948994502425">
        <ele>953.76999999999998</ele>
        <time>2025-05-15T09:12:06Z</time>
      </trkpt>
      <trkpt lat="42.530866004526615" lon="2.563956035301089">
        <ele>954.73000000000002</ele>
        <time>2025-05-15T09:12:07Z</time>
      </trkpt>
      <trkpt lat="42.530866004526615" lon="2.563956035301089">
        <ele>956.64999999999998</ele>
        <time>2025-05-15T09:12:08Z</time>
      </trkpt>
      <trkpt lat="42.530858041718602" lon="2.564032981172204">
        <ele>957.61000000000001</ele>
        <time>2025-05-15T09:12:09Z</time>
      </trkpt>
      <trkpt lat="42.530846977606416" lon="2.564127026125789">
        <ele>959.04999999999995</ele>
        <time>2025-05-15T09:12:10Z</time>
      </trkpt>
      <trkpt lat="42.530871033668518" lon="2.564215958118439">
        <ele>962.41999999999996</ele>
        <time>2025-05-15T09:12:11Z</time>
      </trkpt>
      <trkpt lat="42.530918978154659" lon="2.564296005293727">
        <ele>963.86000000000001</ele>
        <time>2025-05-15T09:12:12Z</time>
      </trkpt>
      <trkpt lat="42.530987961217761" lon="2.564385021105409">
        <ele>964.82000000000005</ele>
        <time>2025-05-15T09:12:13Z</time>
      </trkpt>
      <trkpt lat="42.531218966469169" lon="2.564681991934776">
        <ele>966.25999999999999</ele>
        <time>2025-05-15T09:12:16Z</time>
      </trkpt>
      <trkpt lat="42.531298007816076" lon="2.564783999696374">
        <ele>966.74000000000001</ele>
        <time>2025-05-15T09:12:17Z</time>
      </trkpt>
      <trkpt lat="42.531337989494205" lon="2.564835967496038">
        <ele>967.22000000000003</ele>
        <time>2025-05-15T09:12:18Z</time>
      </trkpt>
      <trkpt lat="42.531451983377337" lon="2.56488399580121">
        <ele>967.22000000000003</ele>
        <time>2025-05-15T09:12:19Z</time>
      </trkpt>
      <trkpt lat="42.531559020280838" lon="2.564930012449622">
        <ele>968.17999999999995</ele>
        <time>2025-05-15T09:12:20Z</time>
      </trkpt>
      <trkpt lat="42.531663961708546" lon="2.56496999412775">
        <ele>968.66999999999996</ele>
        <time>2025-05-15T09:12:21Z</time>
      </trkpt>
      <trkpt lat="42.532525034621358" lon="2.565168980509043">
        <ele>972.02999999999997</ele>
        <time>2025-05-15T09:12:27Z</time>
      </trkpt>
      <trkpt lat="42.532663000747561" lon="2.565192030742765">
        <ele>972.50999999999999</ele>
        <time>2025-05-15T09:12:28Z</time>
      </trkpt>
      <trkpt lat="42.532780012115836" lon="2.565193958580494">
        <ele>972.99000000000001</ele>
        <time>2025-05-15T09:12:29Z</time>
      </trkpt>
      <trkpt lat="42.532905992120504" lon="2.565182978287339">
        <ele>973.95000000000005</ele>
        <time>2025-05-15T09:12:30Z</time>
      </trkpt>
      <trkpt lat="42.533030966296792" lon="2.565171997994185">
        <ele>975.38999999999999</ele>
        <time>2025-05-15T09:12:31Z</time>
      </trkpt>
      <trkpt lat="42.533148983493447" lon="2.56516202352941">
        <ele>976.36000000000001</ele>
        <time>2025-05-15T09:12:32Z</time>
      </trkpt>
      <trkpt lat="42.533265994861722" lon="2.565151965245605">
        <ele>977.32000000000005</ele>
        <time>2025-05-15T09:12:33Z</time>
      </trkpt>
      <trkpt lat="42.533374959602952" lon="2.56514199078083">
        <ele>977.79999999999995</ele>
        <time>2025-05-15T09:12:34Z</time>
      </trkpt>
      <trkpt lat="42.533514015376568" lon="2.565155988559127">
        <ele>978.27999999999997</ele>
        <time>2025-05-15T09:12:35Z</time>
      </trkpt>
      <trkpt lat="42.534778006374836" lon="2.565508028492332">
        <ele>993.17999999999995</ele>
        <time>2025-05-15T09:12:44Z</time>
      </trkpt>
      <trkpt lat="42.535158041864634" lon="2.565612969920039">
        <ele>999.90999999999997</ele>
        <time>2025-05-15T09:12:47Z</time>
      </trkpt>
      <trkpt lat="42.53523800522089" lon="2.56563501432538">
        <ele>1003.75</ele>
        <time>2025-05-15T09:12:48Z</time>
      </trkpt>
      <trkpt lat="42.535314029082656" lon="2.565655969083309">
        <ele>1005.6799999999999</ele>
        <time>2025-05-15T09:12:49Z</time>
      </trkpt>
      <trkpt lat="42.535775033757091" lon="2.565816985443234">
        <ele>1012.41</ele>
        <time>2025-05-15T09:12:54Z</time>
      </trkpt>
      <trkpt lat="42.536676004528999" lon="2.566422997042537">
        <ele>1011.9299999999999</ele>
        <time>2025-05-15T09:13:02Z</time>
      </trkpt>
      <trkpt lat="42.536767031997442" lon="2.566508995369077">
        <ele>1011.9299999999999</ele>
        <time>2025-05-15T09:13:03Z</time>
      </trkpt>
      <trkpt lat="42.536830985918641" lon="2.566650984808803">
        <ele>1011.9299999999999</ele>
        <time>2025-05-15T09:13:04Z</time>
      </trkpt>
      <trkpt lat="42.536889994516969" lon="2.566806972026825">
        <ele>1011.9299999999999</ele>
        <time>2025-05-15T09:13:05Z</time>
      </trkpt>
      <trkpt lat="42.536929976195097" lon="2.566970000043511">
        <ele>1012.41</ele>
        <time>2025-05-15T09:13:06Z</time>
      </trkpt>
      <trkpt lat="42.536968030035496" lon="2.567119030281901">
        <ele>1012.41</ele>
        <time>2025-05-15T09:13:07Z</time>
      </trkpt>
      <trkpt lat="42.53700097091496" lon="2.567253978922963">
        <ele>1012.41</ele>
        <time>2025-05-15T09:13:08Z</time>
      </trkpt>
      <trkpt lat="42.537085963413119" lon="2.5673539750278">
        <ele>1012.41</ele>
        <time>2025-05-15T09:13:09Z</time>
      </trkpt>
      <trkpt lat="42.537179002538323" lon="2.567457994446158">
        <ele>1011.9299999999999</ele>
        <time>2025-05-15T09:13:10Z</time>
      </trkpt>
      <trkpt lat="42.537506986409426" lon="2.56782797165215">
        <ele>1011.9299999999999</ele>
        <time>2025-05-15T09:13:13Z</time>
      </trkpt>
      <trkpt lat="42.537615029141307" lon="2.567949006333947">
        <ele>1011.9299999999999</ele>
        <time>2025-05-15T09:13:14Z</time>
      </trkpt>
      <trkpt lat="42.537717958912253" lon="2.568055037409067">
        <ele>1012.41</ele>
        <time>2025-05-15T09:13:15Z</time>
      </trkpt>
      <trkpt lat="42.537832036614418" lon="2.568144975230098">
        <ele>1012.41</ele>
        <time>2025-05-15T09:13:16Z</time>
      </trkpt>
      <trkpt lat="42.537956004962325" lon="2.568242959678173">
        <ele>1012.41</ele>
        <time>2025-05-15T09:13:17Z</time>
      </trkpt>
      <trkpt lat="42.538082990795374" lon="2.568343039602041">
        <ele>1011.9299999999999</ele>
        <time>2025-05-15T09:13:18Z</time>
      </trkpt>
      <trkpt lat="42.538195978850126" lon="2.568473964929581">
        <ele>1011.9299999999999</ele>
        <time>2025-05-15T09:13:19Z</time>
      </trkpt>
      <trkpt lat="42.538505019620061" lon="2.568846959620714">
        <ele>1010</ele>
        <time>2025-05-15T09:13:22Z</time>
      </trkpt>
      <trkpt lat="42.53858900628984" lon="2.568948967382312">
        <ele>1009.52</ele>
        <time>2025-05-15T09:13:23Z</time>
      </trkpt>
      <trkpt lat="42.538692019879818" lon="2.56898601539433">
        <ele>1009.04</ele>
        <time>2025-05-15T09:13:24Z</time>
      </trkpt>
      <trkpt lat="42.538821017369628" lon="2.569000013172627">
        <ele>1008.08</ele>
        <time>2025-05-15T09:13:25Z</time>
      </trkpt>
      <trkpt lat="42.538965018466115" lon="2.569016022607684">
        <ele>1007.6</ele>
        <time>2025-05-15T09:13:26Z</time>
      </trkpt>
      <trkpt lat="42.539103990420699" lon="2.569031026214361">
        <ele>1007.12</ele>
        <time>2025-05-15T09:13:27Z</time>
      </trkpt>
      <trkpt lat="42.539218990132213" lon="2.569049969315529">
        <ele>1006.16</ele>
        <time>2025-05-15T09:13:28Z</time>
      </trkpt>
      <trkpt lat="42.539311023429036" lon="2.569080982357264">
        <ele>1005.2</ele>
        <time>2025-05-15T09:13:29Z</time>
      </trkpt>
      <trkpt lat="42.539354022592306" lon="2.569182990118861">
        <ele>1004.72</ele>
        <time>2025-05-15T09:13:30Z</time>
      </trkpt>
      <trkpt lat="42.539410013705492" lon="2.569449031725526">
        <ele>1003.27</ele>
        <time>2025-05-15T09:13:32Z</time>
      </trkpt>
      <trkpt lat="42.539432980120182" lon="2.569602001458406">
        <ele>1002.79</ele>
        <time>2025-05-15T09:13:33Z</time>
      </trkpt>
      <trkpt lat="42.539454018697143" lon="2.569747008383274">
        <ele>1002.3099999999999</ele>
        <time>2025-05-15T09:13:34Z</time>
      </trkpt>
      <trkpt lat="42.539471033960581" lon="2.569856978952885">
        <ele>1001.83</ele>
        <time>2025-05-15T09:13:35Z</time>
      </trkpt>
      <trkpt lat="42.539569018408656" lon="2.56995496340096">
        <ele>1001.83</ele>
        <time>2025-05-15T09:13:36Z</time>
      </trkpt>
      <trkpt lat="42.53966398537159" lon="2.570050014182925">
        <ele>1001.35</ele>
        <time>2025-05-15T09:13:37Z</time>
      </trkpt>
      <trkpt lat="42.539761969819665" lon="2.570112040266395">
        <ele>1000.87</ele>
        <time>2025-05-15T09:13:38Z</time>
      </trkpt>
      <trkpt lat="42.54017997533083" lon="2.570457039400935">
        <ele>998.95000000000005</ele>
        <time>2025-05-15T09:13:42Z</time>
      </trkpt>
      <trkpt lat="42.540240995585918" lon="2.570601040497422">
        <ele>998.47000000000003</ele>
        <time>2025-05-15T09:13:43Z</time>
      </trkpt>
      <trkpt lat="42.540875002741814" lon="2.571997968479991">
        <ele>997.01999999999998</ele>
        <time>2025-05-15T09:13:51Z</time>
      </trkpt>
      <trkpt lat="42.540939040482044" lon="2.572164013981819">
        <ele>996.53999999999996</ele>
        <time>2025-05-15T09:13:52Z</time>
      </trkpt>
      <trkpt lat="42.540949014946818" lon="2.572361994534731">
        <ele>996.05999999999995</ele>
        <time>2025-05-15T09:13:53Z</time>
      </trkpt>
      <trkpt lat="42.540945997461677" lon="2.572567015886307">
        <ele>996.05999999999995</ele>
        <time>2025-05-15T09:13:54Z</time>
      </trkpt>
      <trkpt lat="42.540942979976535" lon="2.572770025581121">
        <ele>996.05999999999995</ele>
        <time>2025-05-15T09:13:55Z</time>
      </trkpt>
      <trkpt lat="42.540939962491393" lon="2.572978986427188">
        <ele>996.05999999999995</ele>
        <time>2025-05-15T09:13:56Z</time>
      </trkpt>
      <trkpt lat="42.540936022996902" lon="2.573808040469885">
        <ele>994.62</ele>
        <time>2025-05-15T09:14:00Z</time>
      </trkpt>
      <trkpt lat="42.540934011340141" lon="2.575107989832759">
        <ele>989.80999999999995</ele>
        <time>2025-05-15T09:14:06Z</time>
      </trkpt>
      <trkpt lat="42.540867039933801" lon="2.575303036719561">
        <ele>988.85000000000002</ele>
        <time>2025-05-15T09:14:07Z</time>
      </trkpt>
      <trkpt lat="42.540800990536809" lon="2.575435973703861">
        <ele>987.40999999999997</ele>
        <time>2025-05-15T09:14:08Z</time>
      </trkpt>
      <trkpt lat="42.54069697111845" lon="2.575591960921884">
        <ele>986.45000000000005</ele>
        <time>2025-05-15T09:14:09Z</time>
      </trkpt>
      <trkpt lat="42.540606027469039" lon="2.575727999210358">
        <ele>985.49000000000001</ele>
        <time>2025-05-15T09:14:10Z</time>
      </trkpt>
      <trkpt lat="42.54054400138557" lon="2.575821960344911">
        <ele>984.04999999999995</ele>
        <time>2025-05-15T09:14:11Z</time>
      </trkpt>
      <trkpt lat="42.540498990565538" lon="2.576007032766938">
        <ele>983.09000000000003</ele>
        <time>2025-05-15T09:14:12Z</time>
      </trkpt>
      <trkpt lat="42.540462026372552" lon="2.576157990843058">
        <ele>982.12</ele>
        <time>2025-05-15T09:14:13Z</time>
      </trkpt>
      <trkpt lat="42.540422966703773" lon="2.576318001374602">
        <ele>981.15999999999997</ele>
        <time>2025-05-15T09:14:14Z</time>
      </trkpt>
      <trkpt lat="42.540349960327148" lon="2.576615978032351">
        <ele>979.72000000000003</ele>
        <time>2025-05-15T09:14:16Z</time>
      </trkpt>
      <trkpt lat="42.540388014167547" lon="2.576754027977586">
        <ele>978.27999999999997</ele>
        <time>2025-05-15T09:14:17Z</time>
      </trkpt>
      <trkpt lat="42.54041500389576" lon="2.576852012425661">
        <ele>977.79999999999995</ele>
        <time>2025-05-15T09:14:18Z</time>
      </trkpt>
      <trkpt lat="42.540494967252016" lon="2.576961982995272">
        <ele>976.84000000000003</ele>
        <time>2025-05-15T09:14:19Z</time>
      </trkpt>
      <trkpt lat="42.540585994720459" lon="2.577087040990591">
        <ele>975.88</ele>
        <time>2025-05-15T09:14:20Z</time>
      </trkpt>
      <trkpt lat="42.540684984996915" lon="2.577222995460033">
        <ele>974.90999999999997</ele>
        <time>2025-05-15T09:14:21Z</time>
      </trkpt>
      <trkpt lat="42.540775006636977" lon="2.577377976849675">
        <ele>973.95000000000005</ele>
        <time>2025-05-15T09:14:22Z</time>
      </trkpt>
      <trkpt lat="42.54082496277988" lon="2.577542010694742">
        <ele>972.99000000000001</ele>
        <time>2025-05-15T09:14:23Z</time>
      </trkpt>
      <trkpt lat="42.540891012176871" lon="2.57768701761961">
        <ele>972.02999999999997</ele>
        <time>2025-05-15T09:14:24Z</time>
      </trkpt>
      <trkpt lat="42.54095102660358" lon="2.57779598236084">
        <ele>971.07000000000005</ele>
        <time>2025-05-15T09:14:25Z</time>
      </trkpt>
      <trkpt lat="42.541067032143474" lon="2.577883992344141">
        <ele>970.11000000000001</ele>
        <time>2025-05-15T09:14:26Z</time>
      </trkpt>
      <trkpt lat="42.541185971349478" lon="2.577975019812584">
        <ele>969.14999999999998</ele>
        <time>2025-05-15T09:14:27Z</time>
      </trkpt>
      <trkpt lat="42.541892984881997" lon="2.578453961759806">
        <ele>963.86000000000001</ele>
        <time>2025-05-15T09:14:33Z</time>
      </trkpt>
      <trkpt lat="42.541960962116718" lon="2.578445998951793">
        <ele>962.89999999999998</ele>
        <time>2025-05-15T09:14:34Z</time>
      </trkpt>
      <trkpt lat="42.542040003463626" lon="2.578416997566819">
        <ele>962.41999999999996</ele>
        <time>2025-05-15T09:14:35Z</time>
      </trkpt>
      <trkpt lat="42.542195990681648" lon="2.578361006453633">
        <ele>960.98000000000002</ele>
        <time>2025-05-15T09:14:37Z</time>
      </trkpt>
      <trkpt lat="42.542217029258609" lon="2.578353965654969">
        <ele>960.00999999999999</ele>
        <time>2025-05-15T09:14:38Z</time>
      </trkpt>
      <trkpt lat="42.542279977351427" lon="2.578466031700373">
        <ele>959.04999999999995</ele>
        <time>2025-05-15T09:14:39Z</time>
      </trkpt>
      <trkpt lat="42.542314007878304" lon="2.57852696813643">
        <ele>958.57000000000005</ele>
        <time>2025-05-15T09:14:40Z</time>
      </trkpt>
      <trkpt lat="42.542324988171458" lon="2.57854700088501">
        <ele>957.61000000000001</ele>
        <time>2025-05-15T09:14:41Z</time>
      </trkpt>
      <trkpt lat="42.542288023978472" lon="2.578602991998196">
        <ele>956.64999999999998</ele>
        <time>2025-05-15T09:14:42Z</time>
      </trkpt>
      <trkpt lat="42.542239995673299" lon="2.578673986718059">
        <ele>955.69000000000005</ele>
        <time>2025-05-15T09:14:43Z</time>
      </trkpt>
      <trkpt lat="42.542195990681648" lon="2.57874003611505">
        <ele>954.73000000000002</ele>
        <time>2025-05-15T09:14:44Z</time>
      </trkpt>
      <trkpt lat="42.542133964598179" lon="2.578745987266302">
        <ele>953.76999999999998</ele>
        <time>2025-05-15T09:14:45Z</time>
      </trkpt>
      <trkpt lat="42.542071016505361" lon="2.578752022236586">
        <ele>952.79999999999995</ele>
        <time>2025-05-15T09:14:46Z</time>
      </trkpt>
      <trkpt lat="42.541995998471975" lon="2.578759985044599">
        <ele>952.32000000000005</ele>
        <time>2025-05-15T09:14:47Z</time>
      </trkpt>
      <trkpt lat="42.541914023458958" lon="2.57873903028667">
        <ele>951.36000000000001</ele>
        <time>2025-05-15T09:14:48Z</time>
      </trkpt>
      <trkpt lat="42.541817966848612" lon="2.578707011416555">
        <ele>950.39999999999998</ele>
        <time>2025-05-15T09:14:49Z</time>
      </trkpt>
      <trkpt lat="42.541715959087014" lon="2.578672980889678">
        <ele>949.91999999999996</ele>
        <time>2025-05-15T09:14:50Z</time>
      </trkpt>
      <trkpt lat="42.541611017659307" lon="2.578638028353453">
        <ele>949.91999999999996</ele>
        <time>2025-05-15T09:14:51Z</time>
      </trkpt>
      <trkpt lat="42.541496017947793" lon="2.578599974513054">
        <ele>949.44000000000005</ele>
        <time>2025-05-15T09:14:52Z</time>
      </trkpt>
      <trkpt lat="42.541371965780854" lon="2.578564016148448">
        <ele>948.96000000000004</ele>
        <time>2025-05-15T09:14:53Z</time>
      </trkpt>
      <trkpt lat="42.540988996624947" lon="2.578488998115063">
        <ele>946.55999999999995</ele>
        <time>2025-05-15T09:14:56Z</time>
      </trkpt>
      <trkpt lat="42.54086603410542" lon="2.57841900922358">
        <ele>945.59000000000003</ele>
        <time>2025-05-15T09:14:57Z</time>
      </trkpt>
      <trkpt lat="42.54062999971211" lon="2.578283976763487">
        <ele>944.14999999999998</ele>
        <time>2025-05-15T09:14:59Z</time>
      </trkpt>
      <trkpt lat="42.540506031364202" lon="2.578249024227262">
        <ele>943.19000000000005</ele>
        <time>2025-05-15T09:15:00Z</time>
      </trkpt>
      <trkpt lat="42.540234960615635" lon="2.578261010348797">
        <ele>941.75</ele>
        <time>2025-05-15T09:15:02Z</time>
      </trkpt>
      <trkpt lat="42.540100011974573" lon="2.578267967328429">
        <ele>941.26999999999998</ele>
        <time>2025-05-15T09:15:03Z</time>
      </trkpt>
      <trkpt lat="42.539973026141524" lon="2.578235026448965">
        <ele>940.30999999999995</ele>
        <time>2025-05-15T09:15:04Z</time>
      </trkpt>
      <trkpt lat="42.53985702060163" lon="2.57820401340723">
        <ele>939.35000000000002</ele>
        <time>2025-05-15T09:15:05Z</time>
      </trkpt>
      <trkpt lat="42.539745038375258" lon="2.578092031180859">
        <ele>938.38</ele>
        <time>2025-05-15T09:15:06Z</time>
      </trkpt>
      <trkpt lat="42.539631966501474" lon="2.577978037297726">
        <ele>937.41999999999996</ele>
        <time>2025-05-15T09:15:07Z</time>
      </trkpt>
      <trkpt lat="42.539524007588625" lon="2.577871000394225">
        <ele>936.46000000000004</ele>
        <time>2025-05-15T09:15:08Z</time>
      </trkpt>
      <trkpt lat="42.53940599039197" lon="2.57775298319757">
        <ele>935.5</ele>
        <time>2025-05-15T09:15:09Z</time>
      </trkpt>
      <trkpt lat="42.539351005107164" lon="2.577631026506424">
        <ele>934.53999999999996</ele>
        <time>2025-05-15T09:15:10Z</time>
      </trkpt>
      <trkpt lat="42.539215972647071" lon="2.577332966029644">
        <ele>932.62</ele>
        <time>2025-05-15T09:15:13Z</time>
      </trkpt>
      <trkpt lat="42.53916802816093" lon="2.577276974916458">
        <ele>932.13999999999999</ele>
        <time>2025-05-15T09:15:14Z</time>
      </trkpt>
      <trkpt lat="42.539110025390983" lon="2.577267000451684">
        <ele>931.16999999999996</ele>
        <time>2025-05-15T09:15:15Z</time>
      </trkpt>
      <trkpt lat="42.539032995700836" lon="2.577319974079728">
        <ele>930.69000000000005</ele>
        <time>2025-05-15T09:15:16Z</time>
      </trkpt>
      <trkpt lat="42.539005000144243" lon="2.577420976012945">
        <ele>930.69000000000005</ele>
        <time>2025-05-15T09:15:17Z</time>
      </trkpt>
      <trkpt lat="42.53902000375092" lon="2.57749498821795">
        <ele>930.69000000000005</ele>
        <time>2025-05-15T09:15:18Z</time>
      </trkpt>
      <trkpt lat="42.53904196433723" lon="2.577604036778212">
        <ele>930.69000000000005</ele>
        <time>2025-05-15T09:15:19Z</time>
      </trkpt>
      <trkpt lat="42.539101978763938" lon="2.577675031498075">
        <ele>931.16999999999996</ele>
        <time>2025-05-15T09:15:20Z</time>
      </trkpt>
      <trkpt lat="42.539179008454084" lon="2.577764969319105">
        <ele>930.69000000000005</ele>
        <time>2025-05-15T09:15:21Z</time>
      </trkpt>
      <trkpt lat="42.539262995123863" lon="2.577864965423942">
        <ele>930.69000000000005</ele>
        <time>2025-05-15T09:15:22Z</time>
      </trkpt>
      <trkpt lat="42.539329966530204" lon="2.577994968742132">
        <ele>930.21000000000004</ele>
        <time>2025-05-15T09:15:23Z</time>
      </trkpt>
      <trkpt lat="42.539399033412337" lon="2.578148022294045">
        <ele>929.73000000000002</ele>
        <time>2025-05-15T09:15:24Z</time>
      </trkpt>
      <trkpt lat="42.539536999538541" lon="2.578449016436935">
        <ele>928.76999999999998</ele>
        <time>2025-05-15T09:15:26Z</time>
      </trkpt>
      <trkpt lat="42.539602965116501" lon="2.578593017533422">
        <ele>928.28999999999996</ele>
        <time>2025-05-15T09:15:27Z</time>
      </trkpt>
      <trkpt lat="42.539698015898466" lon="2.578694019466639">
        <ele>927.80999999999995</ele>
        <time>2025-05-15T09:15:28Z</time>
      </trkpt>
      <trkpt lat="42.53979398868978" lon="2.578770965337753">
        <ele>927.33000000000004</ele>
        <time>2025-05-15T09:15:29Z</time>
      </trkpt>
      <trkpt lat="42.539902031421661" lon="2.578839026391506">
        <ele>926.37</ele>
        <time>2025-05-15T09:15:30Z</time>
      </trkpt>
      <trkpt lat="42.540033962577581" lon="2.578905997797847">
        <ele>925.40999999999997</ele>
        <time>2025-05-15T09:15:31Z</time>
      </trkpt>
      <trkpt lat="42.54058800637722" lon="2.579189976677299">
        <ele>921.55999999999995</ele>
        <time>2025-05-15T09:15:35Z</time>
      </trkpt>
      <trkpt lat="42.540671993046999" lon="2.579233981668949">
        <ele>920.12</ele>
        <time>2025-05-15T09:15:36Z</time>
      </trkpt>
      <trkpt lat="42.5407600030303" lon="2.579378988593817">
        <ele>919.63999999999999</ele>
        <time>2025-05-15T09:15:37Z</time>
      </trkpt>
      <trkpt lat="42.540807025507092" lon="2.579495999962091">
        <ele>918.67999999999995</ele>
        <time>2025-05-15T09:15:38Z</time>
      </trkpt>
      <trkpt lat="42.540828986093402" lon="2.579658022150397">
        <ele>918.20000000000005</ele>
        <time>2025-05-15T09:15:39Z</time>
      </trkpt>
      <trkpt lat="42.540864022448659" lon="2.579840999096632">
        <ele>917.72000000000003</ele>
        <time>2025-05-15T09:15:40Z</time>
      </trkpt>
      <trkpt lat="42.54090903326869" lon="2.580005032941699">
        <ele>917.24000000000001</ele>
        <time>2025-05-15T09:15:41Z</time>
      </trkpt>
      <trkpt lat="42.540948009118438" lon="2.580146016553044">
        <ele>916.26999999999998</ele>
        <time>2025-05-15T09:15:42Z</time>
      </trkpt>
      <trkpt lat="42.54104096442461" lon="2.580228997394443">
        <ele>915.78999999999996</ele>
        <time>2025-05-15T09:15:43Z</time>
      </trkpt>
      <trkpt lat="42.541136015206575" lon="2.580306027084589">
        <ele>915.78999999999996</ele>
        <time>2025-05-15T09:15:44Z</time>
      </trkpt>
      <trkpt lat="42.541245985776186" lon="2.580394959077239">
        <ele>914.83000000000004</ele>
        <time>2025-05-15T09:15:45Z</time>
      </trkpt>
      <trkpt lat="42.542228009551764" lon="2.581099038943648">
        <ele>908.10000000000002</ele>
        <time>2025-05-15T09:15:52Z</time>
      </trkpt>
      <trkpt lat="42.543102996423841" lon="2.581557026132941">
        <ele>900.40999999999997</ele>
        <time>2025-05-15T09:15:58Z</time>
      </trkpt>
      <trkpt lat="42.543235011398792" lon="2.581613017246127">
        <ele>899.45000000000005</ele>
        <time>2025-05-15T09:15:59Z</time>
      </trkpt>
      <trkpt lat="42.543368032202125" lon="2.581631960347295">
        <ele>898.00999999999999</ele>
        <time>2025-05-15T09:16:00Z</time>
      </trkpt>
      <trkpt lat="42.543504992499948" lon="2.581622991710901">
        <ele>897.04999999999995</ele>
        <time>2025-05-15T09:16:01Z</time>
      </trkpt>
      <trkpt lat="42.543652011081576" lon="2.581599019467831">
        <ele>895.61000000000001</ele>
        <time>2025-05-15T09:16:02Z</time>
      </trkpt>
      <trkpt lat="42.543815961107612" lon="2.581532970070839">
        <ele>894.15999999999997</ele>
        <time>2025-05-15T09:16:03Z</time>
      </trkpt>
      <trkpt lat="42.545485971495509" lon="2.580877002328634">
        <ele>882.14999999999998</ele>
        <time>2025-05-15T09:16:13Z</time>
      </trkpt>
      <trkpt lat="42.545632990077138" lon="2.580856969580054">
        <ele>880.71000000000004</ele>
        <time>2025-05-15T09:16:14Z</time>
      </trkpt>
      <trkpt lat="42.545774979516864" lon="2.580843977630138">
        <ele>879.74000000000001</ele>
        <time>2025-05-15T09:16:15Z</time>
      </trkpt>
      <trkpt lat="42.546530021354556" lon="2.580864010378718">
        <ele>874.46000000000004</ele>
        <time>2025-05-15T09:16:22Z</time>
      </trkpt>
      <trkpt lat="42.546613002195954" lon="2.580837020650506">
        <ele>873.98000000000002</ele>
        <time>2025-05-15T09:16:23Z</time>
      </trkpt>
      <trkpt lat="42.546691037714481" lon="2.580811036750674">
        <ele>873.00999999999999</ele>
        <time>2025-05-15T09:16:24Z</time>
      </trkpt>
      <trkpt lat="42.546761026605964" lon="2.58073803037405">
        <ele>872.52999999999997</ele>
        <time>2025-05-15T09:16:25Z</time>
      </trkpt>
      <trkpt lat="42.546821041032672" lon="2.580637028440833">
        <ele>872.04999999999995</ele>
        <time>2025-05-15T09:16:26Z</time>
      </trkpt>
      <trkpt lat="42.546889018267393" lon="2.58052496239543">
        <ele>871.09000000000003</ele>
        <time>2025-05-15T09:16:27Z</time>
      </trkpt>
      <trkpt lat="42.546931011602283" lon="2.580377021804452">
        <ele>870.61000000000001</ele>
        <time>2025-05-15T09:16:28Z</time>
      </trkpt>
      <trkpt lat="42.546954983845353" lon="2.580218017101288">
        <ele>870.13</ele>
        <time>2025-05-15T09:16:29Z</time>
      </trkpt>
      <trkpt lat="42.546978034079075" lon="2.580060018226504">
        <ele>869.64999999999998</ele>
        <time>2025-05-15T09:16:30Z</time>
      </trkpt>
      <trkpt lat="42.546997983008623" lon="2.579918028786779">
        <ele>869.16999999999996</ele>
        <time>2025-05-15T09:16:31Z</time>
      </trkpt>
      <trkpt lat="42.547017009928823" lon="2.57979397661984">
        <ele>869.16999999999996</ele>
        <time>2025-05-15T09:16:32Z</time>
      </trkpt>
      <trkpt lat="42.547034025192261" lon="2.579677971079946">
        <ele>868.69000000000005</ele>
        <time>2025-05-15T09:16:33Z</time>
      </trkpt>
      <trkpt lat="42.547037964686751" lon="2.579575041308999">
        <ele>867.73000000000002</ele>
        <time>2025-05-15T09:16:34Z</time>
      </trkpt>
      <trkpt lat="42.547004017978907" lon="2.579457024112344">
        <ele>867.73000000000002</ele>
        <time>2025-05-15T09:16:35Z</time>
      </trkpt>
      <trkpt lat="42.546962024644017" lon="2.579314028844237">
        <ele>867.25</ele>
        <time>2025-05-15T09:16:36Z</time>
      </trkpt>
      <trkpt lat="42.546918019652367" lon="2.579161981120706">
        <ele>866.76999999999998</ele>
        <time>2025-05-15T09:16:37Z</time>
      </trkpt>
      <trkpt lat="42.546901004388928" lon="2.57900096476078">
        <ele>866.28999999999996</ele>
        <time>2025-05-15T09:16:38Z</time>
      </trkpt>
      <trkpt lat="42.546911984682083" lon="2.578843971714377">
        <ele>865.32000000000005</ele>
        <time>2025-05-15T09:16:39Z</time>
      </trkpt>
      <trkpt lat="42.54694601520896" lon="2.578684967011213">
        <ele>864.84000000000003</ele>
        <time>2025-05-15T09:16:40Z</time>
      </trkpt>
      <trkpt lat="42.546991026028991" lon="2.578530991449952">
        <ele>864.36000000000001</ele>
        <time>2025-05-15T09:16:41Z</time>
      </trkpt>
      <trkpt lat="42.547036958858371" lon="2.578378021717072">
        <ele>863.88</ele>
        <time>2025-05-15T09:16:42Z</time>
      </trkpt>
      <trkpt lat="42.547088004648685" lon="2.57820401340723">
        <ele>862.91999999999996</ele>
        <time>2025-05-15T09:16:43Z</time>
      </trkpt>
      <trkpt lat="42.547080041840672" lon="2.578089013695717">
        <ele>862.44000000000005</ele>
        <time>2025-05-15T09:16:44Z</time>
      </trkpt>
      <trkpt lat="42.547008963301778" lon="2.577050998806953">
        <ele>858.11000000000001</ele>
        <time>2025-05-15T09:16:50Z</time>
      </trkpt>
      <trkpt lat="42.547060009092093" lon="2.576923007145524">
        <ele>857.63</ele>
        <time>2025-05-15T09:16:51Z</time>
      </trkpt>
      <trkpt lat="42.547109965234995" lon="2.576798032969236">
        <ele>857.14999999999998</ele>
        <time>2025-05-15T09:16:52Z</time>
      </trkpt>
      <trkpt lat="42.547181965783238" lon="2.576694013550878">
        <ele>856.66999999999996</ele>
        <time>2025-05-15T09:16:53Z</time>
      </trkpt>
      <trkpt lat="42.547257989645004" lon="2.576617989689112">
        <ele>856.19000000000005</ele>
        <time>2025-05-15T09:16:54Z</time>
      </trkpt>
      <trkpt lat="42.547315992414951" lon="2.576559986919165">
        <ele>855.71000000000004</ele>
        <time>2025-05-15T09:16:55Z</time>
      </trkpt>
      <trkpt lat="42.547380030155182" lon="2.576551018282771">
        <ele>855.23000000000002</ele>
        <time>2025-05-15T09:16:56Z</time>
      </trkpt>
      <trkpt lat="42.547425040975213" lon="2.576578008010984">
        <ele>854.75</ele>
        <time>2025-05-15T09:16:57Z</time>
      </trkpt>
      <trkpt lat="42.547455970197916" lon="2.576600974425674">
        <ele>854.26999999999998</ele>
        <time>2025-05-15T09:16:58Z</time>
      </trkpt>
      <trkpt lat="42.547479020431638" lon="2.57665503770113">
        <ele>853.78999999999996</ele>
        <time>2025-05-15T09:16:59Z</time>
      </trkpt>
      <trkpt lat="42.547516990453005" lon="2.576744975522161">
        <ele>853.30999999999995</ele>
        <time>2025-05-15T09:17:00Z</time>
      </trkpt>
      <trkpt lat="42.547488994896412" lon="2.576801972463727">
        <ele>852.83000000000004</ele>
        <time>2025-05-15T09:17:01Z</time>
      </trkpt>
      <trkpt lat="42.547448007389903" lon="2.576877996325493">
        <ele>851.87</ele>
        <time>2025-05-15T09:17:02Z</time>
      </trkpt>
      <trkpt lat="42.547390004619956" lon="2.576930969953537">
        <ele>851.38</ele>
        <time>2025-05-15T09:17:03Z</time>
      </trkpt>
      <trkpt lat="42.547328984364867" lon="2.576986961066723">
        <ele>850.89999999999998</ele>
        <time>2025-05-15T09:17:04Z</time>
      </trkpt>
      <trkpt lat="42.547263018786907" lon="2.577046975493431">
        <ele>850.41999999999996</ele>
        <time>2025-05-15T09:17:05Z</time>
      </trkpt>
      <trkpt lat="42.547195041552186" lon="2.577109001576901">
        <ele>849.94000000000005</ele>
        <time>2025-05-15T09:17:06Z</time>
      </trkpt>
      <trkpt lat="42.547188000753522" lon="2.577172033488751">
        <ele>849.94000000000005</ele>
        <time>2025-05-15T09:17:07Z</time>
      </trkpt>
      <trkpt lat="42.547174002975225" lon="2.577302036806941">
        <ele>849.46000000000004</ele>
        <time>2025-05-15T09:17:08Z</time>
      </trkpt>
      <trkpt lat="42.547191018238664" lon="2.5773870293051">
        <ele>848.98000000000002</ele>
        <time>2025-05-15T09:17:09Z</time>
      </trkpt>
      <trkpt lat="42.547213984653354" lon="2.577504962682724">
        <ele>848.5</ele>
        <time>2025-05-15T09:17:10Z</time>
      </trkpt>
      <trkpt lat="42.547238040715456" lon="2.577622979879379">
        <ele>848.01999999999998</ele>
        <time>2025-05-15T09:17:11Z</time>
      </trkpt>
      <trkpt lat="42.547283973544836" lon="2.577747032046318">
        <ele>847.53999999999996</ele>
        <time>2025-05-15T09:17:12Z</time>
      </trkpt>
      <trkpt lat="42.547335019335151" lon="2.577886004000902">
        <ele>846.58000000000004</ele>
        <time>2025-05-15T09:17:13Z</time>
      </trkpt>
      <trkpt lat="42.547387992963195" lon="2.57803101092577">
        <ele>846.10000000000002</ele>
        <time>2025-05-15T09:17:14Z</time>
      </trkpt>
      <trkpt lat="42.547464016824961" lon="2.578174006193876">
        <ele>845.62</ele>
        <time>2025-05-15T09:17:15Z</time>
      </trkpt>
      <trkpt lat="42.547952011227608" lon="2.579157035797834">
        <ele>841.28999999999996</ele>
        <time>2025-05-15T09:17:21Z</time>
      </trkpt>
      <trkpt lat="42.548030968755484" lon="2.579329032450914">
        <ele>840.80999999999995</ele>
        <time>2025-05-15T09:17:22Z</time>
      </trkpt>
      <trkpt lat="42.548103975132108" lon="2.579488959163427">
        <ele>840.33000000000004</ele>
        <time>2025-05-15T09:17:23Z</time>
      </trkpt>
      <trkpt lat="42.548177987337112" lon="2.579647963866592">
        <ele>839.85000000000002</ele>
        <time>2025-05-15T09:17:24Z</time>
      </trkpt>
      <trkpt lat="42.548225009813905" lon="2.579830018803477">
        <ele>838.88999999999999</ele>
        <time>2025-05-15T09:17:25Z</time>
      </trkpt>
      <trkpt lat="42.548307990655303" lon="2.580354977399111">
        <ele>836</ele>
        <time>2025-05-15T09:17:28Z</time>
      </trkpt>
      <trkpt lat="42.548287035897374" lon="2.580500990152359">
        <ele>835.03999999999996</ele>
        <time>2025-05-15T09:17:29Z</time>
      </trkpt>
      <trkpt lat="42.548251999542117" lon="2.580758985131979">
        <ele>833.12</ele>
        <time>2025-05-15T09:17:31Z</time>
      </trkpt>
      <trkpt lat="42.548225009813905" lon="2.580950008705258">
        <ele>831.20000000000005</ele>
        <time>2025-05-15T09:17:33Z</time>
      </trkpt>
      <trkpt lat="42.548268008977175" lon="2.581064002588391">
        <ele>830.24000000000001</ele>
        <time>2025-05-15T09:17:34Z</time>
      </trkpt>
      <trkpt lat="42.548298016190529" lon="2.58114798925817">
        <ele>828.78999999999996</ele>
        <time>2025-05-15T09:17:35Z</time>
      </trkpt>
      <trkpt lat="42.548333974555135" lon="2.581243040040135">
        <ele>826.87</ele>
        <time>2025-05-15T09:17:36Z</time>
      </trkpt>
      <trkpt lat="42.548373034223914" lon="2.581349993124604">
        <ele>824.95000000000005</ele>
        <time>2025-05-15T09:17:37Z</time>
      </trkpt>
      <trkpt lat="42.548414021730423" lon="2.581459963694215">
        <ele>823.50999999999999</ele>
        <time>2025-05-15T09:17:38Z</time>
      </trkpt>
      <trkpt lat="42.548433970659971" lon="2.581585021689534">
        <ele>822.05999999999995</ele>
        <time>2025-05-15T09:17:39Z</time>
      </trkpt>
      <trkpt lat="42.548420978710055" lon="2.581702033057809">
        <ele>821.58000000000004</ele>
        <time>2025-05-15T09:17:40Z</time>
      </trkpt>
      <trkpt lat="42.548385020345449" lon="2.581830024719238">
        <ele>821.10000000000002</ele>
        <time>2025-05-15T09:17:41Z</time>
      </trkpt>
      <trkpt lat="42.548342021182179" lon="2.5819649733603">
        <ele>820.62</ele>
        <time>2025-05-15T09:17:42Z</time>
      </trkpt>
      <trkpt lat="42.548298016190529" lon="2.582107968628407">
        <ele>820.13999999999999</ele>
        <time>2025-05-15T09:17:43Z</time>
      </trkpt>
      <trkpt lat="42.548172036185861" lon="2.582588000223041">
        <ele>818.22000000000003</ele>
        <time>2025-05-15T09:17:46Z</time>
      </trkpt>
      <trkpt lat="42.548140017315745" lon="2.583086974918842">
        <ele>815.34000000000003</ele>
        <time>2025-05-15T09:17:49Z</time>
      </trkpt>
      <trkpt lat="42.548140017315745" lon="2.583253020420671">
        <ele>813.88999999999999</ele>
        <time>2025-05-15T09:17:50Z</time>
      </trkpt>
      <trkpt lat="42.548199025914073" lon="2.584119960665703">
        <ele>808.61000000000001</ele>
        <time>2025-05-15T09:17:55Z</time>
      </trkpt>
      <trkpt lat="42.548189973458648" lon="2.584272008389235">
        <ele>807.15999999999997</ele>
        <time>2025-05-15T09:17:56Z</time>
      </trkpt>
      <trkpt lat="42.54817103035748" lon="2.584418021142483">
        <ele>806.20000000000005</ele>
        <time>2025-05-15T09:17:57Z</time>
      </trkpt>
      <trkpt lat="42.548124007880688" lon="2.584560010582209">
        <ele>804.75999999999999</ele>
        <time>2025-05-15T09:17:58Z</time>
      </trkpt>
      <trkpt lat="42.548073967918754" lon="2.584709962829948">
        <ele>803.32000000000005</ele>
        <time>2025-05-15T09:17:59Z</time>
      </trkpt>
      <trkpt lat="42.547965003177524" lon="2.585037024691701">
        <ele>800.44000000000005</ele>
        <time>2025-05-15T09:18:01Z</time>
      </trkpt>
      <trkpt lat="42.547928038984537" lon="2.585211033001542">
        <ele>799.47000000000003</ele>
        <time>2025-05-15T09:18:02Z</time>
      </trkpt>
      <trkpt lat="42.547901971265674" lon="2.585385963320732">
        <ele>798.02999999999997</ele>
        <time>2025-05-15T09:18:03Z</time>
      </trkpt>
      <trkpt lat="42.547780014574528" lon="2.585976971313357">
        <ele>792.25999999999999</ele>
        <time>2025-05-15T09:18:07Z</time>
      </trkpt>
      <trkpt lat="42.54774296656251" lon="2.586089037358761">
        <ele>790.82000000000005</ele>
        <time>2025-05-15T09:18:08Z</time>
      </trkpt>
      <trkpt lat="42.547433003783226" lon="2.587054967880249">
        <ele>778.80999999999995</ele>
        <time>2025-05-15T09:18:17Z</time>
      </trkpt>
      <trkpt lat="42.547402996569872" lon="2.587150018662214">
        <ele>777.36000000000001</ele>
        <time>2025-05-15T09:18:18Z</time>
      </trkpt>
      <trkpt lat="42.547369971871376" lon="2.587220007553697">
        <ele>775.91999999999996</ele>
        <time>2025-05-15T09:18:19Z</time>
      </trkpt>
      <trkpt lat="42.547325966879725" lon="2.587282033637166">
        <ele>774.96000000000004</ele>
        <time>2025-05-15T09:18:20Z</time>
      </trkpt>
      <trkpt lat="42.547281961888075" lon="2.587343975901604">
        <ele>774</ele>
        <time>2025-05-15T09:18:21Z</time>
      </trkpt>
      <trkpt lat="42.547240974381566" lon="2.587350010871887">
        <ele>773.03999999999996</ele>
        <time>2025-05-15T09:18:22Z</time>
      </trkpt>
      <trkpt lat="42.547175008803606" lon="2.587358979508281">
        <ele>772.08000000000004</ele>
        <time>2025-05-15T09:18:23Z</time>
      </trkpt>
      <trkpt lat="42.547102002426982" lon="2.587368031963706">
        <ele>771.11000000000001</ele>
        <time>2025-05-15T09:18:24Z</time>
      </trkpt>
      <trkpt lat="42.547021033242345" lon="2.587379012256861">
        <ele>770.63</ele>
        <time>2025-05-15T09:18:25Z</time>
      </trkpt>
      <trkpt lat="42.546485010534525" lon="2.587307011708617">
        <ele>766.78999999999996</ele>
        <time>2025-05-15T09:18:31Z</time>
      </trkpt>
      <trkpt lat="42.546312008053064" lon="2.587326038628817">
        <ele>765.83000000000004</ele>
        <time>2025-05-15T09:18:33Z</time>
      </trkpt>
      <trkpt lat="42.546232966706157" lon="2.58733500726521">
        <ele>764.87</ele>
        <time>2025-05-15T09:18:34Z</time>
      </trkpt>
      <trkpt lat="42.546156020835042" lon="2.587342970073223">
        <ele>764.38999999999999</ele>
        <time>2025-05-15T09:18:35Z</time>
      </trkpt>
      <trkpt lat="42.546092988923192" lon="2.587327966466546">
        <ele>763.41999999999996</ele>
        <time>2025-05-15T09:18:36Z</time>
      </trkpt>
      <trkpt lat="42.545950999483466" lon="2.587280021980405">
        <ele>762.94000000000005</ele>
        <time>2025-05-15T09:18:37Z</time>
      </trkpt>
      <trkpt lat="42.545934990048409" lon="2.587256971746683">
        <ele>761.98000000000002</ele>
        <time>2025-05-15T09:18:38Z</time>
      </trkpt>
      <trkpt lat="42.545881010591984" lon="2.587176002562046">
        <ele>761.5</ele>
        <time>2025-05-15T09:18:39Z</time>
      </trkpt>
      <trkpt lat="42.545829964801669" lon="2.5870989728719">
        <ele>760.53999999999996</ele>
        <time>2025-05-15T09:18:40Z</time>
      </trkpt>
      <trkpt lat="42.545781014487147" lon="2.587025966495276">
        <ele>760.05999999999995</ele>
        <time>2025-05-15T09:18:41Z</time>
      </trkpt>
      <trkpt lat="42.545741032809019" lon="2.586966035887599">
        <ele>760.05999999999995</ele>
        <time>2025-05-15T09:18:42Z</time>
      </trkpt>
      <trkpt lat="42.545670038089156" lon="2.586901998147368">
        <ele>759.58000000000004</ele>
        <time>2025-05-15T09:18:43Z</time>
      </trkpt>
      <trkpt lat="42.545604994520545" lon="2.586923036724329">
        <ele>759.10000000000002</ele>
        <time>2025-05-15T09:18:44Z</time>
      </trkpt>
      <trkpt lat="42.545525031164289" lon="2.586972992867231">
        <ele>759.10000000000002</ele>
        <time>2025-05-15T09:18:45Z</time>
      </trkpt>
      <trkpt lat="42.545466022565961" lon="2.587025966495276">
        <ele>758.62</ele>
        <time>2025-05-15T09:18:46Z</time>
      </trkpt>
      <trkpt lat="42.545403996482491" lon="2.587081035599113">
        <ele>758.62</ele>
        <time>2025-05-15T09:18:47Z</time>
      </trkpt>
      <trkpt lat="42.545326966792345" lon="2.587138032540679">
        <ele>758.13999999999999</ele>
        <time>2025-05-15T09:18:48Z</time>
      </trkpt>
      <trkpt lat="42.545223031193018" lon="2.587172985076904">
        <ele>757.17999999999995</ele>
        <time>2025-05-15T09:18:49Z</time>
      </trkpt>
      <trkpt lat="42.54512102343142" lon="2.587207015603781">
        <ele>756.69000000000005</ele>
        <time>2025-05-15T09:18:50Z</time>
      </trkpt>
      <trkpt lat="42.545015998184681" lon="2.587240962311626">
        <ele>756.21000000000004</ele>
        <time>2025-05-15T09:18:51Z</time>
      </trkpt>
      <trkpt lat="42.544908039271832" lon="2.587277004495263">
        <ele>755.25</ele>
        <time>2025-05-15T09:18:52Z</time>
      </trkpt>
      <trkpt lat="42.544706035405397" lon="2.587344981729984">
        <ele>753.33000000000004</ele>
        <time>2025-05-15T09:18:54Z</time>
      </trkpt>
      <trkpt lat="42.544545019045472" lon="2.587494011968374">
        <ele>752.37</ele>
        <time>2025-05-15T09:18:56Z</time>
      </trkpt>
      <trkpt lat="42.54447896964848" lon="2.587556038051844">
        <ele>751.88999999999999</ele>
        <time>2025-05-15T09:18:57Z</time>
      </trkpt>
      <trkpt lat="42.544308984652162" lon="2.587713031098247">
        <ele>749.97000000000003</ele>
        <time>2025-05-15T09:19:00Z</time>
      </trkpt>
      <trkpt lat="42.544246958568692" lon="2.587770028039813">
        <ele>749</ele>
        <time>2025-05-15T09:19:01Z</time>
      </trkpt>
      <trkpt lat="42.544065993279219" lon="2.587887039408088">
        <ele>748.03999999999996</ele>
        <time>2025-05-15T09:19:03Z</time>
      </trkpt>
      <trkpt lat="42.543963985517621" lon="2.587897013872862">
        <ele>748.03999999999996</ele>
        <time>2025-05-15T09:19:04Z</time>
      </trkpt>
      <trkpt lat="42.543855020776391" lon="2.587906988337636">
        <ele>748.03999999999996</ele>
        <time>2025-05-15T09:19:05Z</time>
      </trkpt>
      <trkpt lat="42.543300976976752" lon="2.587912017479539">
        <ele>749.49000000000001</ele>
        <time>2025-05-15T09:19:10Z</time>
      </trkpt>
      <trkpt lat="42.543187988922" lon="2.587887961417437">
        <ele>749.49000000000001</ele>
        <time>2025-05-15T09:19:11Z</time>
      </trkpt>
      <trkpt lat="42.542770989239216" lon="2.58765603415668">
        <ele>747.08000000000004</ele>
        <time>2025-05-15T09:19:15Z</time>
      </trkpt>
      <trkpt lat="42.542667975649238" lon="2.587581016123295">
        <ele>746.60000000000002</ele>
        <time>2025-05-15T09:19:16Z</time>
      </trkpt>
      <trkpt lat="42.542607961222529" lon="2.58748697116971">
        <ele>745.63999999999999</ele>
        <time>2025-05-15T09:19:17Z</time>
      </trkpt>
      <trkpt lat="42.542554987594485" lon="2.587404996156693">
        <ele>745.15999999999997</ele>
        <time>2025-05-15T09:19:18Z</time>
      </trkpt>
      <trkpt lat="42.542505031451583" lon="2.587326960638166">
        <ele>744.67999999999995</ele>
        <time>2025-05-15T09:19:19Z</time>
      </trkpt>
      <trkpt lat="42.542454991489649" lon="2.587250014767051">
        <ele>744.20000000000005</ele>
        <time>2025-05-15T09:19:20Z</time>
      </trkpt>
      <trkpt lat="42.542408974841237" lon="2.587178014218807">
        <ele>744.20000000000005</ele>
        <time>2025-05-15T09:19:21Z</time>
      </trkpt>
      <trkpt lat="42.542362036183476" lon="2.587105007842183">
        <ele>743.72000000000003</ele>
        <time>2025-05-15T09:19:22Z</time>
      </trkpt>
      <trkpt lat="42.542281989008188" lon="2.586980033665896">
        <ele>743.72000000000003</ele>
        <time>2025-05-15T09:19:23Z</time>
      </trkpt>
      <trkpt lat="42.542230021208525" lon="2.586984978988767">
        <ele>743.24000000000001</ele>
        <time>2025-05-15T09:19:24Z</time>
      </trkpt>
      <trkpt lat="42.542129019275308" lon="2.586994031444192">
        <ele>743.24000000000001</ele>
        <time>2025-05-15T09:19:25Z</time>
      </trkpt>
      <trkpt lat="42.542017959058285" lon="2.587005011737347">
        <ele>743.24000000000001</ele>
        <time>2025-05-15T09:19:26Z</time>
      </trkpt>
      <trkpt lat="42.541902037337422" lon="2.587014986202121">
        <ele>743.72000000000003</ele>
        <time>2025-05-15T09:19:27Z</time>
      </trkpt>
      <trkpt lat="42.541788965463638" lon="2.587025966495276">
        <ele>743.72000000000003</ele>
        <time>2025-05-15T09:19:28Z</time>
      </trkpt>
      <trkpt lat="42.54129895940423" lon="2.587036024779081">
        <ele>743.72000000000003</ele>
        <time>2025-05-15T09:19:33Z</time>
      </trkpt>
      <trkpt lat="42.541228970512748" lon="2.587000988423824">
        <ele>744.20000000000005</ele>
        <time>2025-05-15T09:19:34Z</time>
      </trkpt>
      <trkpt lat="42.541179014369845" lon="2.586957989260554">
        <ele>744.20000000000005</ele>
        <time>2025-05-15T09:19:35Z</time>
      </trkpt>
      <trkpt lat="42.541142972186208" lon="2.58686201646924">
        <ele>744.67999999999995</ele>
        <time>2025-05-15T09:19:36Z</time>
      </trkpt>
      <trkpt lat="42.541099973022938" lon="2.586750034242868">
        <ele>744.67999999999995</ele>
        <time>2025-05-15T09:19:37Z</time>
      </trkpt>
      <trkpt lat="42.541054040193558" lon="2.586630005389452">
        <ele>745.15999999999997</ele>
        <time>2025-05-15T09:19:38Z</time>
      </trkpt>
      <trkpt lat="42.541008023545146" lon="2.586507964879274">
        <ele>745.63999999999999</ele>
        <time>2025-05-15T09:19:39Z</time>
      </trkpt>
      <trkpt lat="42.54095102660358" lon="2.586358012631536">
        <ele>746.60000000000002</ele>
        <time>2025-05-15T09:19:40Z</time>
      </trkpt>
      <trkpt lat="42.540884977206588" lon="2.58630202151835">
        <ele>747.08000000000004</ele>
        <time>2025-05-15T09:19:41Z</time>
      </trkpt>
      <trkpt lat="42.54078296944499" lon="2.586249969899654">
        <ele>747.55999999999995</ele>
        <time>2025-05-15T09:19:42Z</time>
      </trkpt>
      <trkpt lat="42.54069403745234" lon="2.586249969899654">
        <ele>748.03999999999996</ele>
        <time>2025-05-15T09:19:43Z</time>
      </trkpt>
      <trkpt lat="42.540594963356853" lon="2.586249969899654">
        <ele>748.51999999999998</ele>
        <time>2025-05-15T09:19:44Z</time>
      </trkpt>
      <trkpt lat="42.54050200805068" lon="2.586249969899654">
        <ele>748.03999999999996</ele>
        <time>2025-05-15T09:19:45Z</time>
      </trkpt>
      <trkpt lat="42.54047904163599" lon="2.586249969899654">
        <ele>748.03999999999996</ele>
        <time>2025-05-15T09:19:46Z</time>
      </trkpt>
      <trkpt lat="42.540407963097095" lon="2.586161037907004">
        <ele>748.03999999999996</ele>
        <time>2025-05-15T09:19:47Z</time>
      </trkpt>
      <trkpt lat="42.540334034711123" lon="2.5860679987818">
        <ele>748.51999999999998</ele>
        <time>2025-05-15T09:19:48Z</time>
      </trkpt>
      <trkpt lat="42.540254993364215" lon="2.585970014333725">
        <ele>748.51999999999998</ele>
        <time>2025-05-15T09:19:49Z</time>
      </trkpt>
      <trkpt lat="42.540041003376245" lon="2.585686035454273">
        <ele>749.49000000000001</ele>
        <time>2025-05-15T09:19:52Z</time>
      </trkpt>
      <trkpt lat="42.539953999221325" lon="2.585601964965463">
        <ele>749.49000000000001</ele>
        <time>2025-05-15T09:19:53Z</time>
      </trkpt>
      <trkpt lat="42.539875041693449" lon="2.585590984672308">
        <ele>749.97000000000003</ele>
        <time>2025-05-15T09:19:54Z</time>
      </trkpt>
      <trkpt lat="42.539776973426342" lon="2.58561403490603">
        <ele>749.97000000000003</ele>
        <time>2025-05-15T09:19:55Z</time>
      </trkpt>
      <trkpt lat="42.539692986756563" lon="2.585698021575809">
        <ele>749.97000000000003</ele>
        <time>2025-05-15T09:19:56Z</time>
      </trkpt>
      <trkpt lat="42.539607994258404" lon="2.585802963003516">
        <ele>749.97000000000003</ele>
        <time>2025-05-15T09:19:57Z</time>
      </trkpt>
      <trkpt lat="42.539514033123851" lon="2.58591896854341">
        <ele>749.49000000000001</ele>
        <time>2025-05-15T09:19:58Z</time>
      </trkpt>
      <trkpt lat="42.539416970685124" lon="2.586040003225207">
        <ele>749</ele>
        <time>2025-05-15T09:19:59Z</time>
      </trkpt>
      <trkpt lat="42.539328960701823" lon="2.586148967966437">
        <ele>748.03999999999996</ele>
        <time>2025-05-15T09:20:00Z</time>
      </trkpt>
      <trkpt lat="42.539145983755589" lon="2.586231026798487">
        <ele>747.08000000000004</ele>
        <time>2025-05-15T09:20:02Z</time>
      </trkpt>
      <trkpt lat="42.539052022621036" lon="2.58625902235508">
        <ele>746.60000000000002</ele>
        <time>2025-05-15T09:20:03Z</time>
      </trkpt>
      <trkpt lat="42.53893400542438" lon="2.586292969062924">
        <ele>746.12</ele>
        <time>2025-05-15T09:20:04Z</time>
      </trkpt>
      <trkpt lat="42.538821017369628" lon="2.58630302734673">
        <ele>745.63999999999999</ele>
        <time>2025-05-15T09:20:05Z</time>
      </trkpt>
      <trkpt lat="42.538704006001353" lon="2.586314007639885">
        <ele>744.67999999999995</ele>
        <time>2025-05-15T09:20:06Z</time>
      </trkpt>
      <trkpt lat="42.538584982976317" lon="2.58632498793304">
        <ele>744.67999999999995</ele>
        <time>2025-05-15T09:20:07Z</time>
      </trkpt>
      <trkpt lat="42.538462020456791" lon="2.586335968226194">
        <ele>744.20000000000005</ele>
        <time>2025-05-15T09:20:08Z</time>
      </trkpt>
      <trkpt lat="42.53837401047349" lon="2.586317025125027">
        <ele>744.20000000000005</ele>
        <time>2025-05-15T09:20:09Z</time>
      </trkpt>
      <trkpt lat="42.538278037682176" lon="2.586294980719686">
        <ele>743.72000000000003</ele>
        <time>2025-05-15T09:20:10Z</time>
      </trkpt>
      <trkpt lat="42.538196984678507" lon="2.586276959627867">
        <ele>743.24000000000001</ele>
        <time>2025-05-15T09:20:11Z</time>
      </trkpt>
      <trkpt lat="42.538129007443786" lon="2.586262039840221">
        <ele>742.75999999999999</ele>
        <time>2025-05-15T09:20:12Z</time>
      </trkpt>
      <trkpt lat="42.538076033815742" lon="2.586249969899654">
        <ele>742.75999999999999</ele>
        <time>2025-05-15T09:20:13Z</time>
      </trkpt>
      <trkpt lat="42.537991041317582" lon="2.586292969062924">
        <ele>742.27999999999997</ele>
        <time>2025-05-15T09:20:14Z</time>
      </trkpt>
      <trkpt lat="42.537904037162662" lon="2.586335968226194">
        <ele>742.27999999999997</ele>
        <time>2025-05-15T09:20:15Z</time>
      </trkpt>
      <trkpt lat="42.537807980552316" lon="2.586383996531367">
        <ele>741.78999999999996</ele>
        <time>2025-05-15T09:20:16Z</time>
      </trkpt>
      <trkpt lat="42.537699015811086" lon="2.586425989866257">
        <ele>740.83000000000004</ele>
        <time>2025-05-15T09:20:17Z</time>
      </trkpt>
      <trkpt lat="42.53757999278605" lon="2.586440993472934">
        <ele>740.35000000000002</ele>
        <time>2025-05-15T09:20:18Z</time>
      </trkpt>
      <trkpt lat="42.537343958392739" lon="2.586469994857907">
        <ele>739.87</ele>
        <time>2025-05-15T09:20:20Z</time>
      </trkpt>
      <trkpt lat="42.537241028621793" lon="2.586482986807823">
        <ele>739.87</ele>
        <time>2025-05-15T09:20:21Z</time>
      </trkpt>
      <trkpt lat="42.537148995324969" lon="2.586467983201146">
        <ele>738.90999999999997</ele>
        <time>2025-05-15T09:20:22Z</time>
      </trkpt>
      <trkpt lat="42.537068026140332" lon="2.586446022614837">
        <ele>738.42999999999995</ele>
        <time>2025-05-15T09:20:23Z</time>
      </trkpt>
      <trkpt lat="42.536982027813792" lon="2.586421966552734">
        <ele>738.42999999999995</ele>
        <time>2025-05-15T09:20:24Z</time>
      </trkpt>
      <trkpt lat="42.536945985630155" lon="2.58636899292469">
        <ele>737.95000000000005</ele>
        <time>2025-05-15T09:20:25Z</time>
      </trkpt>
      <trkpt lat="42.536901980638504" lon="2.58630302734673">
        <ele>737.95000000000005</ele>
        <time>2025-05-15T09:20:26Z</time>
      </trkpt>
      <trkpt lat="42.536851018667221" lon="2.586220968514681">
        <ele>737.95000000000005</ele>
        <time>2025-05-15T09:20:27Z</time>
      </trkpt>
      <trkpt lat="42.536821011453867" lon="2.586119966581464">
        <ele>738.42999999999995</ele>
        <time>2025-05-15T09:20:28Z</time>
      </trkpt>
      <trkpt lat="42.536783963441849" lon="2.585992980748415">
        <ele>738.42999999999995</ele>
        <time>2025-05-15T09:20:29Z</time>
      </trkpt>
      <trkpt lat="42.536744987592101" lon="2.585857026278973">
        <ele>738.90999999999997</ele>
        <time>2025-05-15T09:20:30Z</time>
      </trkpt>
      <trkpt lat="42.536707017570734" lon="2.585729034617543">
        <ele>738.90999999999997</ele>
        <time>2025-05-15T09:20:31Z</time>
      </trkpt>
      <trkpt lat="42.536662006750703" lon="2.585624009370804">
        <ele>738.90999999999997</ele>
        <time>2025-05-15T09:20:32Z</time>
      </trkpt>
      <trkpt lat="42.536595035344362" lon="2.585477996617556">
        <ele>738.42999999999995</ele>
        <time>2025-05-15T09:20:33Z</time>
      </trkpt>
      <trkpt lat="42.536467965692282" lon="2.585365008562803">
        <ele>737.47000000000003</ele>
        <time>2025-05-15T09:20:35Z</time>
      </trkpt>
      <trkpt lat="42.536316001787782" lon="2.58522997610271">
        <ele>736.02999999999997</ele>
        <time>2025-05-15T09:20:37Z</time>
      </trkpt>
      <trkpt lat="42.536244001239538" lon="2.585166022181511">
        <ele>735.54999999999995</ele>
        <time>2025-05-15T09:20:38Z</time>
      </trkpt>
      <trkpt lat="42.536189015954733" lon="2.585094021633267">
        <ele>735.07000000000005</ele>
        <time>2025-05-15T09:20:39Z</time>
      </trkpt>
      <trkpt lat="42.536141993477941" lon="2.585000982508063">
        <ele>735.07000000000005</ele>
        <time>2025-05-15T09:20:40Z</time>
      </trkpt>
      <trkpt lat="42.536083990707994" lon="2.584883971139789">
        <ele>734.58000000000004</ele>
        <time>2025-05-15T09:20:41Z</time>
      </trkpt>
      <trkpt lat="42.536003021523356" lon="2.584727983921766">
        <ele>734.10000000000002</ele>
        <time>2025-05-15T09:20:42Z</time>
      </trkpt>
      <trkpt lat="42.535911994054914" lon="2.584592029452324">
        <ele>733.13999999999999</ele>
        <time>2025-05-15T09:20:43Z</time>
      </trkpt>
      <trkpt lat="42.535815015435219" lon="2.584478035569191">
        <ele>732.65999999999997</ele>
        <time>2025-05-15T09:20:44Z</time>
      </trkpt>
      <trkpt lat="42.535717030987144" lon="2.58443403057754">
        <ele>731.70000000000005</ele>
        <time>2025-05-15T09:20:45Z</time>
      </trkpt>
      <trkpt lat="42.53562499769032" lon="2.584392037242651">
        <ele>731.22000000000003</ele>
        <time>2025-05-15T09:20:46Z</time>
      </trkpt>
      <trkpt lat="42.535546962171793" lon="2.584357000887394">
        <ele>730.25999999999999</ele>
        <time>2025-05-15T09:20:47Z</time>
      </trkpt>
      <trkpt lat="42.535474961623549" lon="2.584324982017279">
        <ele>729.77999999999997</ele>
        <time>2025-05-15T09:20:48Z</time>
      </trkpt>
      <trkpt lat="42.535415031015873" lon="2.584292041137815">
        <ele>728.82000000000005</ele>
        <time>2025-05-15T09:20:49Z</time>
      </trkpt>
      <trkpt lat="42.535404972732067" lon="2.584203025326133">
        <ele>727.86000000000001</ele>
        <time>2025-05-15T09:20:50Z</time>
      </trkpt>
      <trkpt lat="42.535401033237576" lon="2.584082996472716">
        <ele>727.37</ele>
        <time>2025-05-15T09:20:51Z</time>
      </trkpt>
      <trkpt lat="42.535445960238576" lon="2.583947964012623">
        <ele>726.40999999999997</ele>
        <time>2025-05-15T09:20:52Z</time>
      </trkpt>
      <trkpt lat="42.53549600020051" lon="2.583796000108123">
        <ele>725.92999999999995</ele>
        <time>2025-05-15T09:20:53Z</time>
      </trkpt>
      <trkpt lat="42.535547968000174" lon="2.583642024546862">
        <ele>724.97000000000003</ele>
        <time>2025-05-15T09:20:54Z</time>
      </trkpt>
      <trkpt lat="42.535573029890656" lon="2.583484025672078">
        <ele>724.00999999999999</ele>
        <time>2025-05-15T09:20:55Z</time>
      </trkpt>
      <trkpt lat="42.535638995468616" lon="2.582542989403009">
        <ele>720.64999999999998</ele>
        <time>2025-05-15T09:21:00Z</time>
      </trkpt>
      <trkpt lat="42.535631032660604" lon="2.58232899941504">
        <ele>719.20000000000005</ele>
        <time>2025-05-15T09:21:02Z</time>
      </trkpt>
      <trkpt lat="42.535589039325714" lon="2.582251969724894">
        <ele>718.24000000000001</ele>
        <time>2025-05-15T09:21:03Z</time>
      </trkpt>
      <trkpt lat="42.535521984100342" lon="2.582130013033748">
        <ele>717.75999999999999</ele>
        <time>2025-05-15T09:21:04Z</time>
      </trkpt>
      <trkpt lat="42.535286033526063" lon="2.581906970590353">
        <ele>714.88</ele>
        <time>2025-05-15T09:21:07Z</time>
      </trkpt>
      <trkpt lat="42.535205986350775" lon="2.581830024719238">
        <ele>714.39999999999998</ele>
        <time>2025-05-15T09:21:08Z</time>
      </trkpt>
      <trkpt lat="42.535134991630912" lon="2.581762969493866">
        <ele>713.91999999999996</ele>
        <time>2025-05-15T09:21:09Z</time>
      </trkpt>
      <trkpt lat="42.535069026052952" lon="2.581729022786021">
        <ele>713.44000000000005</ele>
        <time>2025-05-15T09:21:10Z</time>
      </trkpt>
      <trkpt lat="42.535014962777495" lon="2.581711001694202">
        <ele>712.95000000000005</ele>
        <time>2025-05-15T09:21:11Z</time>
      </trkpt>
      <trkpt lat="42.534971963614225" lon="2.581724999472499">
        <ele>712.95000000000005</ele>
        <time>2025-05-15T09:21:12Z</time>
      </trkpt>
      <trkpt lat="42.534940028563142" lon="2.581777973100543">
        <ele>712.47000000000003</ele>
        <time>2025-05-15T09:21:13Z</time>
      </trkpt>
      <trkpt lat="42.534927958622575" lon="2.581860031932592">
        <ele>711.99000000000001</ele>
        <time>2025-05-15T09:21:14Z</time>
      </trkpt>
      <trkpt lat="42.534942962229252" lon="2.581979976966977">
        <ele>711.50999999999999</ele>
        <time>2025-05-15T09:21:15Z</time>
      </trkpt>
      <trkpt lat="42.534993002191186" lon="2.582038985565305">
        <ele>711.02999999999997</ele>
        <time>2025-05-15T09:21:16Z</time>
      </trkpt>
      <trkpt lat="42.535061985254288" lon="2.582120038568974">
        <ele>710.07000000000005</ele>
        <time>2025-05-15T09:21:17Z</time>
      </trkpt>
      <trkpt lat="42.535130968317389" lon="2.582202013581991">
        <ele>709.59000000000003</ele>
        <time>2025-05-15T09:21:18Z</time>
      </trkpt>
      <trkpt lat="42.535186037421227" lon="2.582282982766628">
        <ele>709.11000000000001</ele>
        <time>2025-05-15T09:21:19Z</time>
      </trkpt>
      <trkpt lat="42.535209003835917" lon="2.582363029941917">
        <ele>708.14999999999998</ele>
        <time>2025-05-15T09:21:20Z</time>
      </trkpt>
      <trkpt lat="42.535207998007536" lon="2.582465959712863">
        <ele>707.66999999999996</ele>
        <time>2025-05-15T09:21:21Z</time>
      </trkpt>
      <trkpt lat="42.535180002450943" lon="2.582580037415028">
        <ele>706.71000000000004</ele>
        <time>2025-05-15T09:21:22Z</time>
      </trkpt>
      <trkpt lat="42.535148989409208" lon="2.582702999934554">
        <ele>706.23000000000002</ele>
        <time>2025-05-15T09:21:23Z</time>
      </trkpt>
      <trkpt lat="42.535114958882332" lon="2.582839960232377">
        <ele>705.25999999999999</ele>
        <time>2025-05-15T09:21:24Z</time>
      </trkpt>
      <trkpt lat="42.535103978589177" lon="2.582988990470767">
        <ele>703.82000000000005</ele>
        <time>2025-05-15T09:21:25Z</time>
      </trkpt>
      <trkpt lat="42.535091992467642" lon="2.583140032365918">
        <ele>702.86000000000001</ele>
        <time>2025-05-15T09:21:26Z</time>
      </trkpt>
      <trkpt lat="42.535081012174487" lon="2.583290990442038">
        <ele>701.89999999999998</ele>
        <time>2025-05-15T09:21:27Z</time>
      </trkpt>
      <trkpt lat="42.535057039931417" lon="2.583442032337189">
        <ele>700.94000000000005</ele>
        <time>2025-05-15T09:21:28Z</time>
      </trkpt>
      <trkpt lat="42.534989984706044" lon="2.583554014563561">
        <ele>699.98000000000002</ele>
        <time>2025-05-15T09:21:29Z</time>
      </trkpt>
      <trkpt lat="42.534913038834929" lon="2.583671025931835">
        <ele>699.01999999999998</ele>
        <time>2025-05-15T09:21:30Z</time>
      </trkpt>
      <trkpt lat="42.534831985831261" lon="2.583775967359543">
        <ele>698.04999999999995</ele>
        <time>2025-05-15T09:21:31Z</time>
      </trkpt>
      <trkpt lat="42.534751016646624" lon="2.583878980949521">
        <ele>697.09000000000003</ele>
        <time>2025-05-15T09:21:32Z</time>
      </trkpt>
      <trkpt lat="42.534598968923092" lon="2.584074027836323">
        <ele>695.16999999999996</ele>
        <time>2025-05-15T09:21:34Z</time>
      </trkpt>
      <trkpt lat="42.534540966153145" lon="2.584148962050676">
        <ele>693.73000000000002</ele>
        <time>2025-05-15T09:21:35Z</time>
      </trkpt>
      <trkpt lat="42.534493021667004" lon="2.584211993962526">
        <ele>692.76999999999998</ele>
        <time>2025-05-15T09:21:36Z</time>
      </trkpt>
      <trkpt lat="42.534512970596552" lon="2.584306038916111">
        <ele>691.80999999999995</ele>
        <time>2025-05-15T09:21:37Z</time>
      </trkpt>
      <trkpt lat="42.534541971981525" lon="2.58443696424365">
        <ele>691.33000000000004</ele>
        <time>2025-05-15T09:21:38Z</time>
      </trkpt>
      <trkpt lat="42.534577008336782" lon="2.584591023623943">
        <ele>690.36000000000001</ele>
        <time>2025-05-15T09:21:39Z</time>
      </trkpt>
      <trkpt lat="42.534627970308065" lon="2.584803001955152">
        <ele>689.88</ele>
        <time>2025-05-15T09:21:40Z</time>
      </trkpt>
      <trkpt lat="42.534715980291367" lon="2.584965024143457">
        <ele>688.91999999999996</ele>
        <time>2025-05-15T09:21:41Z</time>
      </trkpt>
      <trkpt lat="42.534803990274668" lon="2.585126040503383">
        <ele>688.44000000000005</ele>
        <time>2025-05-15T09:21:42Z</time>
      </trkpt>
      <trkpt lat="42.534884037449956" lon="2.58527297526598">
        <ele>687.96000000000004</ele>
        <time>2025-05-15T09:21:43Z</time>
      </trkpt>
      <trkpt lat="42.534945979714394" lon="2.585386969149113">
        <ele>687.48000000000002</ele>
        <time>2025-05-15T09:21:44Z</time>
      </trkpt>
      <trkpt lat="42.534993002191186" lon="2.585472967475653">
        <ele>687.48000000000002</ele>
        <time>2025-05-15T09:21:45Z</time>
      </trkpt>
      <trkpt lat="42.535017980262637" lon="2.585543040186167">
        <ele>687.48000000000002</ele>
        <time>2025-05-15T09:21:46Z</time>
      </trkpt>
      <trkpt lat="42.53504597581923" lon="2.585654016584158">
        <ele>687.48000000000002</ele>
        <time>2025-05-15T09:21:47Z</time>
      </trkpt>
      <trkpt lat="42.535071959719062" lon="2.585761975497007">
        <ele>687.96000000000004</ele>
        <time>2025-05-15T09:21:48Z</time>
      </trkpt>
      <trkpt lat="42.535061985254288" lon="2.585893990471959">
        <ele>688.44000000000005</ele>
        <time>2025-05-15T09:21:49Z</time>
      </trkpt>
      <trkpt lat="42.535049999132752" lon="2.586057018488646">
        <ele>688.44000000000005</ele>
        <time>2025-05-15T09:21:50Z</time>
      </trkpt>
      <trkpt lat="42.535000964999199" lon="2.586205964908004">
        <ele>688.91999999999996</ele>
        <time>2025-05-15T09:21:51Z</time>
      </trkpt>
      <trkpt lat="42.534951008856297" lon="2.586356000974774">
        <ele>688.91999999999996</ele>
        <time>2025-05-15T09:21:52Z</time>
      </trkpt>
      <trkpt lat="42.534870961681008" lon="2.586595974862576">
        <ele>689.39999999999998</ele>
        <time>2025-05-15T09:21:54Z</time>
      </trkpt>
      <trkpt lat="42.534840032458305" lon="2.58668901398778">
        <ele>689.39999999999998</ele>
        <time>2025-05-15T09:21:55Z</time>
      </trkpt>
      <trkpt lat="42.534813964739442" lon="2.586778029799461">
        <ele>689.39999999999998</ele>
        <time>2025-05-15T09:21:56Z</time>
      </trkpt>
      <trkpt lat="42.534813964739442" lon="2.58699000813067">
        <ele>688.44000000000005</ele>
        <time>2025-05-15T09:21:58Z</time>
      </trkpt>
      <trkpt lat="42.534813964739442" lon="2.587125962600112">
        <ele>687.48000000000002</ele>
        <time>2025-05-15T09:21:59Z</time>
      </trkpt>
      <trkpt lat="42.534800972789526" lon="2.587298965081573">
        <ele>687</ele>
        <time>2025-05-15T09:22:00Z</time>
      </trkpt>
      <trkpt lat="42.534781023859978" lon="2.587454030290246">
        <ele>686.03999999999996</ele>
        <time>2025-05-15T09:22:01Z</time>
      </trkpt>
      <trkpt lat="42.534761996939778" lon="2.587599037215114">
        <ele>685.55999999999995</ele>
        <time>2025-05-15T09:22:02Z</time>
      </trkpt>
      <trkpt lat="42.534724026918411" lon="2.587737003341317">
        <ele>684.60000000000002</ele>
        <time>2025-05-15T09:22:03Z</time>
      </trkpt>
      <trkpt lat="42.534666024148464" lon="2.587847979739308">
        <ele>683.63</ele>
        <time>2025-05-15T09:22:04Z</time>
      </trkpt>
      <trkpt lat="42.534524034708738" lon="2.588103041052818">
        <ele>682.19000000000005</ele>
        <time>2025-05-15T09:22:06Z</time>
      </trkpt>
      <trkpt lat="42.534315995872021" lon="2.588241007179022">
        <ele>680.75</ele>
        <time>2025-05-15T09:22:08Z</time>
      </trkpt>
      <trkpt lat="42.534239972010255" lon="2.588292974978685">
        <ele>680.26999999999998</ele>
        <time>2025-05-15T09:22:09Z</time>
      </trkpt>
      <trkpt lat="42.534161014482379" lon="2.588318036869168">
        <ele>680.26999999999998</ele>
        <time>2025-05-15T09:22:10Z</time>
      </trkpt>
      <trkpt lat="42.533744014799595" lon="2.588372016325593">
        <ele>680.26999999999998</ele>
        <time>2025-05-15T09:22:14Z</time>
      </trkpt>
      <trkpt lat="42.533642007037997" lon="2.588358018547297">
        <ele>680.26999999999998</ele>
        <time>2025-05-15T09:22:15Z</time>
      </trkpt>
      <trkpt lat="42.533547040075064" lon="2.588344020769">
        <ele>680.26999999999998</ele>
        <time>2025-05-15T09:22:16Z</time>
      </trkpt>
      <trkpt lat="42.533461041748524" lon="2.588332034647465">
        <ele>679.78999999999996</ele>
        <time>2025-05-15T09:22:17Z</time>
      </trkpt>
      <trkpt lat="42.533373031765223" lon="2.588318958878517">
        <ele>679.78999999999996</ele>
        <time>2025-05-15T09:22:18Z</time>
      </trkpt>
      <trkpt lat="42.533294996246696" lon="2.588317031040788">
        <ele>679.30999999999995</ele>
        <time>2025-05-15T09:22:19Z</time>
      </trkpt>
      <trkpt lat="42.533192988485098" lon="2.588357012718916">
        <ele>678.83000000000004</ele>
        <time>2025-05-15T09:22:20Z</time>
      </trkpt>
      <trkpt lat="42.533086035400629" lon="2.588398000225425">
        <ele>678.83000000000004</ele>
        <time>2025-05-15T09:22:21Z</time>
      </trkpt>
      <trkpt lat="42.532972041517496" lon="2.588442005217075">
        <ele>678.35000000000002</ele>
        <time>2025-05-15T09:22:22Z</time>
      </trkpt>
      <trkpt lat="42.532854024320841" lon="2.588499002158642">
        <ele>678.83000000000004</ele>
        <time>2025-05-15T09:22:23Z</time>
      </trkpt>
      <trkpt lat="42.532732989639044" lon="2.588563961908221">
        <ele>678.83000000000004</ele>
        <time>2025-05-15T09:22:24Z</time>
      </trkpt>
      <trkpt lat="42.532608015462756" lon="2.588649960234761">
        <ele>678.83000000000004</ele>
        <time>2025-05-15T09:22:25Z</time>
      </trkpt>
      <trkpt lat="42.53248899243772" lon="2.588768983259797">
        <ele>679.30999999999995</ele>
        <time>2025-05-15T09:22:26Z</time>
      </trkpt>
      <trkpt lat="42.532270979136229" lon="2.588986996561289">
        <ele>679.30999999999995</ele>
        <time>2025-05-15T09:22:28Z</time>
      </trkpt>
      <trkpt lat="42.532180035486817" lon="2.589078024029732">
        <ele>679.78999999999996</ele>
        <time>2025-05-15T09:22:29Z</time>
      </trkpt>
      <trkpt lat="42.532095964998007" lon="2.589128986001015">
        <ele>679.78999999999996</ele>
        <time>2025-05-15T09:22:30Z</time>
      </trkpt>
      <trkpt lat="42.531954981386662" lon="2.58916100487113">
        <ele>680.26999999999998</ele>
        <time>2025-05-15T09:22:32Z</time>
      </trkpt>
      <trkpt lat="42.531874012202024" lon="2.589147007092834">
        <ele>680.75</ele>
        <time>2025-05-15T09:22:33Z</time>
      </trkpt>
      <trkpt lat="42.531677959486842" lon="2.589113982394338">
        <ele>681.23000000000002</ele>
        <time>2025-05-15T09:22:35Z</time>
      </trkpt>
      <trkpt lat="42.53156597726047" lon="2.589127980172634">
        <ele>681.71000000000004</ele>
        <time>2025-05-15T09:22:36Z</time>
      </trkpt>
      <trkpt lat="42.531476961448789" lon="2.589169973507524">
        <ele>682.66999999999996</ele>
        <time>2025-05-15T09:22:37Z</time>
      </trkpt>
      <trkpt lat="42.531225001439452" lon="2.589348005130887">
        <ele>683.63</ele>
        <time>2025-05-15T09:22:40Z</time>
      </trkpt>
      <trkpt lat="42.531166998669505" lon="2.589426040649414">
        <ele>684.12</ele>
        <time>2025-05-15T09:22:41Z</time>
      </trkpt>
      <trkpt lat="42.531140008941293" lon="2.589584039524198">
        <ele>684.12</ele>
        <time>2025-05-15T09:22:42Z</time>
      </trkpt>
      <trkpt lat="42.531055016443133" lon="2.589921997860074">
        <ele>682.66999999999996</ele>
        <time>2025-05-15T09:22:45Z</time>
      </trkpt>
      <trkpt lat="42.531015034765005" lon="2.589972959831357">
        <ele>682.19000000000005</ele>
        <time>2025-05-15T09:22:46Z</time>
      </trkpt>
      <trkpt lat="42.530958959832788" lon="2.590000033378601">
        <ele>681.23000000000002</ele>
        <time>2025-05-15T09:22:47Z</time>
      </trkpt>
      <trkpt lat="42.530889976769686" lon="2.590031968429685">
        <ele>680.75</ele>
        <time>2025-05-15T09:22:48Z</time>
      </trkpt>
      <trkpt lat="42.530814036726952" lon="2.590069016441703">
        <ele>680.26999999999998</ele>
        <time>2025-05-15T09:22:49Z</time>
      </trkpt>
      <trkpt lat="42.530738012865186" lon="2.590103968977928">
        <ele>680.26999999999998</ele>
        <time>2025-05-15T09:22:50Z</time>
      </trkpt>
      <trkpt lat="42.530658971518278" lon="2.590142022818327">
        <ele>680.26999999999998</ele>
        <time>2025-05-15T09:22:51Z</time>
      </trkpt>
      <trkpt lat="42.530605997890234" lon="2.590204970911145">
        <ele>679.78999999999996</ele>
        <time>2025-05-15T09:22:52Z</time>
      </trkpt>
      <trkpt lat="42.530579008162022" lon="2.590258028358221">
        <ele>679.78999999999996</ele>
        <time>2025-05-15T09:22:53Z</time>
      </trkpt>
      <trkpt lat="42.530543971806765" lon="2.590327011421323">
        <ele>679.30999999999995</ele>
        <time>2025-05-15T09:22:54Z</time>
      </trkpt>
      <trkpt lat="42.530544977635145" lon="2.590324999764562">
        <ele>679.30999999999995</ele>
        <time>2025-05-15T09:22:55Z</time>
      </trkpt>
      <trkpt lat="42.530547995120287" lon="2.590355006977916">
        <ele>678.83000000000004</ele>
        <time>2025-05-15T09:22:56Z</time>
      </trkpt>
      <trkpt lat="42.530552018433809" lon="2.590386020019651">
        <ele>677.38999999999999</ele>
        <time>2025-05-15T09:22:58Z</time>
      </trkpt>
      <trkpt lat="42.530555035918951" lon="2.590415021404624">
        <ele>676.90999999999997</ele>
        <time>2025-05-15T09:22:59Z</time>
      </trkpt>
      <trkpt lat="42.530566016212106" lon="2.590499008074403">
        <ele>675.94000000000005</ele>
        <time>2025-05-15T09:23:00Z</time>
      </trkpt>
      <trkpt lat="42.530617984011769" lon="2.590590035542846">
        <ele>674.98000000000002</ele>
        <time>2025-05-15T09:23:02Z</time>
      </trkpt>
      <trkpt lat="42.530652014538646" lon="2.590648960322142">
        <ele>674.5</ele>
        <time>2025-05-15T09:23:03Z</time>
      </trkpt>
      <trkpt lat="42.530730972066522" lon="2.590652983635664">
        <ele>674.01999999999998</ele>
        <time>2025-05-15T09:23:04Z</time>
      </trkpt>
      <trkpt lat="42.530813030898571" lon="2.590657006949186">
        <ele>673.53999999999996</ele>
        <time>2025-05-15T09:23:05Z</time>
      </trkpt>
      <trkpt lat="42.530911015346646" lon="2.590662036091089">
        <ele>673.05999999999995</ele>
        <time>2025-05-15T09:23:06Z</time>
      </trkpt>
      <trkpt lat="42.531204968690872" lon="2.590714003890753">
        <ele>672.10000000000002</ele>
        <time>2025-05-15T09:23:09Z</time>
      </trkpt>
      <trkpt lat="42.531404038891196" lon="2.590783992782235">
        <ele>671.13999999999999</ele>
        <time>2025-05-15T09:23:11Z</time>
      </trkpt>
      <trkpt lat="42.531518032774329" lon="2.590771000832319">
        <ele>671.13999999999999</ele>
        <time>2025-05-15T09:23:12Z</time>
      </trkpt>
      <trkpt lat="42.531621968373656" lon="2.590731019154191">
        <ele>670.65999999999997</ele>
        <time>2025-05-15T09:23:13Z</time>
      </trkpt>
      <trkpt lat="42.53195003606379" lon="2.590659018605948">
        <ele>669.22000000000003</ele>
        <time>2025-05-15T09:23:16Z</time>
      </trkpt>
      <trkpt lat="42.532209036871791" lon="2.590680979192257">
        <ele>667.76999999999998</ele>
        <time>2025-05-15T09:23:18Z</time>
      </trkpt>
      <trkpt lat="42.532544983550906" lon="2.590709980577231">
        <ele>665.37</ele>
        <time>2025-05-15T09:23:21Z</time>
      </trkpt>
      <trkpt lat="42.532670963555574" lon="2.590651977807283">
        <ele>664.40999999999997</ele>
        <time>2025-05-15T09:23:22Z</time>
      </trkpt>
      <trkpt lat="42.532770037651062" lon="2.590582994744182">
        <ele>662.97000000000003</ele>
        <time>2025-05-15T09:23:23Z</time>
      </trkpt>
      <trkpt lat="42.532871039584279" lon="2.590513005852699">
        <ele>662.00999999999999</ele>
        <time>2025-05-15T09:23:24Z</time>
      </trkpt>
      <trkpt lat="42.532972041517496" lon="2.590442011132836">
        <ele>660.55999999999995</ele>
        <time>2025-05-15T09:23:25Z</time>
      </trkpt>
      <trkpt lat="42.533278986811638" lon="2.590228021144867">
        <ele>657.20000000000005</ele>
        <time>2025-05-15T09:23:28Z</time>
      </trkpt>
      <trkpt lat="42.533399015665054" lon="2.590182004496455">
        <ele>656.24000000000001</ele>
        <time>2025-05-15T09:23:29Z</time>
      </trkpt>
      <trkpt lat="42.533522984012961" lon="2.590139005333185">
        <ele>655.27999999999997</ele>
        <time>2025-05-15T09:23:30Z</time>
      </trkpt>
      <trkpt lat="42.533653993159533" lon="2.590092988684773">
        <ele>654.30999999999995</ele>
        <time>2025-05-15T09:23:31Z</time>
      </trkpt>
      <trkpt lat="42.533791037276387" lon="2.590073039755225">
        <ele>652.87</ele>
        <time>2025-05-15T09:23:32Z</time>
      </trkpt>
      <trkpt lat="42.533932020887733" lon="2.590078990906477">
        <ele>651.90999999999997</ele>
        <time>2025-05-15T09:23:33Z</time>
      </trkpt>
      <trkpt lat="42.5340770278126" lon="2.590086031705141">
        <ele>650.95000000000005</ele>
        <time>2025-05-15T09:23:34Z</time>
      </trkpt>
      <trkpt lat="42.534637022763491" lon="2.590110003948212">
        <ele>648.07000000000005</ele>
        <time>2025-05-15T09:23:38Z</time>
      </trkpt>
      <trkpt lat="42.534764008596539" lon="2.59017001837492">
        <ele>647.10000000000002</ele>
        <time>2025-05-15T09:23:39Z</time>
      </trkpt>
      <trkpt lat="42.534878002479672" lon="2.590254005044699">
        <ele>645.65999999999997</ele>
        <time>2025-05-15T09:23:40Z</time>
      </trkpt>
      <trkpt lat="42.534996019676328" lon="2.590340003371239">
        <ele>644.70000000000005</ele>
        <time>2025-05-15T09:23:41Z</time>
      </trkpt>
      <trkpt lat="42.5350889749825" lon="2.590453997254372">
        <ele>643.25999999999999</ele>
        <time>2025-05-15T09:23:42Z</time>
      </trkpt>
      <trkpt lat="42.535183019936085" lon="2.590575031936169">
        <ele>641.82000000000005</ele>
        <time>2025-05-15T09:23:43Z</time>
      </trkpt>
      <trkpt lat="42.535277986899018" lon="2.590699000284076">
        <ele>640.38</ele>
        <time>2025-05-15T09:23:44Z</time>
      </trkpt>
      <trkpt lat="42.535373037680984" lon="2.590820034965873">
        <ele>638.92999999999995</ele>
        <time>2025-05-15T09:23:45Z</time>
      </trkpt>
      <trkpt lat="42.535468004643917" lon="2.590942997485399">
        <ele>637.97000000000003</ele>
        <time>2025-05-15T09:23:46Z</time>
      </trkpt>
      <trkpt lat="42.535578981041908" lon="2.5910500343889">
        <ele>637.00999999999999</ele>
        <time>2025-05-15T09:23:47Z</time>
      </trkpt>
      <trkpt lat="42.535689035430551" lon="2.591121029108763">
        <ele>635.57000000000005</ele>
        <time>2025-05-15T09:23:48Z</time>
      </trkpt>
      <trkpt lat="42.535790037363768" lon="2.591186994686723">
        <ele>634.61000000000001</ele>
        <time>2025-05-15T09:23:49Z</time>
      </trkpt>
      <trkpt lat="42.535923980176449" lon="2.591347005218267">
        <ele>631.72000000000003</ele>
        <time>2025-05-15T09:23:51Z</time>
      </trkpt>
      <trkpt lat="42.535942001268268" lon="2.591485977172852">
        <ele>630.27999999999997</ele>
        <time>2025-05-15T09:23:53Z</time>
      </trkpt>
      <trkpt lat="42.535930015146732" lon="2.591564012691379">
        <ele>629.79999999999995</ele>
        <time>2025-05-15T09:23:54Z</time>
      </trkpt>
      <trkpt lat="42.535908976569772" lon="2.591700972989202">
        <ele>629.32000000000005</ele>
        <time>2025-05-15T09:23:55Z</time>
      </trkpt>
      <trkpt lat="42.535877041518688" lon="2.591770039871335">
        <ele>629.32000000000005</ele>
        <time>2025-05-15T09:23:56Z</time>
      </trkpt>
      <trkpt lat="42.535823984071612" lon="2.591883027926087">
        <ele>629.79999999999995</ele>
        <time>2025-05-15T09:23:57Z</time>
      </trkpt>
      <trkpt lat="42.535785008221865" lon="2.592023005709052">
        <ele>630.27999999999997</ele>
        <time>2025-05-15T09:23:58Z</time>
      </trkpt>
      <trkpt lat="42.535800011828542" lon="2.592140017077327">
        <ele>630.75999999999999</ele>
        <time>2025-05-15T09:23:59Z</time>
      </trkpt>
      <trkpt lat="42.535854997113347" lon="2.592243030667305">
        <ele>630.75999999999999</ele>
        <time>2025-05-15T09:24:00Z</time>
      </trkpt>
      <trkpt lat="42.535910988226533" lon="2.592339003458619">
        <ele>630.27999999999997</ele>
        <time>2025-05-15T09:24:01Z</time>
      </trkpt>
      <trkpt lat="42.535977959632874" lon="2.592419972643256">
        <ele>630.27999999999997</ele>
        <time>2025-05-15T09:24:02Z</time>
      </trkpt>
      <trkpt lat="42.536051971837878" lon="2.592450985684991">
        <ele>630.75999999999999</ele>
        <time>2025-05-15T09:24:03Z</time>
      </trkpt>
      <trkpt lat="42.536137970164418" lon="2.59246900677681">
        <ele>631.24000000000001</ele>
        <time>2025-05-15T09:24:04Z</time>
      </trkpt>
      <trkpt lat="42.53624701872468" lon="2.592456014826894">
        <ele>632.67999999999995</ele>
        <time>2025-05-15T09:24:05Z</time>
      </trkpt>
      <trkpt lat="42.536356989294291" lon="2.592443022876978">
        <ele>633.64999999999998</ele>
        <time>2025-05-15T09:24:06Z</time>
      </trkpt>
      <trkpt lat="42.536466959863901" lon="2.592430030927062">
        <ele>634.61000000000001</ele>
        <time>2025-05-15T09:24:07Z</time>
      </trkpt>
      <trkpt lat="42.536604003980756" lon="2.592464983463287">
        <ele>635.57000000000005</ele>
        <time>2025-05-15T09:24:08Z</time>
      </trkpt>
      <trkpt lat="42.536733001470566" lon="2.592498008161783">
        <ele>636.04999999999995</ele>
        <time>2025-05-15T09:24:09Z</time>
      </trkpt>
      <trkpt lat="42.536866022273898" lon="2.59253203868866">
        <ele>636.52999999999997</ele>
        <time>2025-05-15T09:24:10Z</time>
      </trkpt>
      <trkpt lat="42.536996025592089" lon="2.592564979568124">
        <ele>637.49000000000001</ele>
        <time>2025-05-15T09:24:11Z</time>
      </trkpt>
      <trkpt lat="42.537126028910279" lon="2.592599010095">
        <ele>637.49000000000001</ele>
        <time>2025-05-15T09:24:12Z</time>
      </trkpt>
      <trkpt lat="42.537265000864863" lon="2.592633962631226">
        <ele>637.97000000000003</ele>
        <time>2025-05-15T09:24:13Z</time>
      </trkpt>
      <trkpt lat="42.53738896921277" lon="2.592665981501341">
        <ele>637.97000000000003</ele>
        <time>2025-05-15T09:24:14Z</time>
      </trkpt>
      <trkpt lat="42.537542022764683" lon="2.592665981501341">
        <ele>637.97000000000003</ele>
        <time>2025-05-15T09:24:15Z</time>
      </trkpt>
      <trkpt lat="42.537675965577364" lon="2.592665981501341">
        <ele>637.97000000000003</ele>
        <time>2025-05-15T09:24:16Z</time>
      </trkpt>
      <trkpt lat="42.537964973598719" lon="2.592688025906682">
        <ele>636.04999999999995</ele>
        <time>2025-05-15T09:24:18Z</time>
      </trkpt>
      <trkpt lat="42.538338974118233" lon="2.592768995091319">
        <ele>632.67999999999995</ele>
        <time>2025-05-15T09:24:21Z</time>
      </trkpt>
      <trkpt lat="42.538468977436423" lon="2.592796990647912">
        <ele>631.72000000000003</ele>
        <time>2025-05-15T09:24:22Z</time>
      </trkpt>
      <trkpt lat="42.538582971319556" lon="2.592821968719363">
        <ele>630.75999999999999</ele>
        <time>2025-05-15T09:24:23Z</time>
      </trkpt>
      <trkpt lat="42.5386549718678" lon="2.592837978154421">
        <ele>629.79999999999995</ele>
        <time>2025-05-15T09:24:24Z</time>
      </trkpt>
      <trkpt lat="42.53874097019434" lon="2.59292297065258">
        <ele>628.36000000000001</ele>
        <time>2025-05-15T09:24:25Z</time>
      </trkpt>
      <trkpt lat="42.538806013762951" lon="2.592988014221191">
        <ele>626.91999999999996</ele>
        <time>2025-05-15T09:24:26Z</time>
      </trkpt>
      <trkpt lat="42.538841972127557" lon="2.593056997284293">
        <ele>625.96000000000004</ele>
        <time>2025-05-15T09:24:27Z</time>
      </trkpt>
      <trkpt lat="42.53895697183907" lon="2.593274004757404">
        <ele>623.54999999999995</ele>
        <time>2025-05-15T09:24:29Z</time>
      </trkpt>
      <trkpt lat="42.539026038721204" lon="2.593368971720338">
        <ele>622.59000000000003</ele>
        <time>2025-05-15T09:24:30Z</time>
      </trkpt>
      <trkpt lat="42.539112037047744" lon="2.593421023339033">
        <ele>621.63</ele>
        <time>2025-05-15T09:24:31Z</time>
      </trkpt>
      <trkpt lat="42.539457958191633" lon="2.593540968373418">
        <ele>616.34000000000003</ele>
        <time>2025-05-15T09:24:34Z</time>
      </trkpt>
      <trkpt lat="42.539864983409643" lon="2.593639958649874">
        <ele>612.01999999999998</ele>
        <time>2025-05-15T09:24:37Z</time>
      </trkpt>
      <trkpt lat="42.539995992556214" lon="2.593671977519989">
        <ele>610.57000000000005</ele>
        <time>2025-05-15T09:24:38Z</time>
      </trkpt>
      <trkpt lat="42.540061958134174" lon="2.593754036352038">
        <ele>608.64999999999998</ele>
        <time>2025-05-15T09:24:39Z</time>
      </trkpt>
      <trkpt lat="42.540132030844688" lon="2.593853026628494">
        <ele>606.73000000000002</ele>
        <time>2025-05-15T09:24:40Z</time>
      </trkpt>
      <trkpt lat="42.540192967280746" lon="2.593959979712963">
        <ele>605.28999999999996</ele>
        <time>2025-05-15T09:24:41Z</time>
      </trkpt>
      <trkpt lat="42.540255999192595" lon="2.594085959717631">
        <ele>604.33000000000004</ele>
        <time>2025-05-15T09:24:42Z</time>
      </trkpt>
      <trkpt lat="42.5405010022223" lon="2.59457596577704">
        <ele>598.08000000000004</ele>
        <time>2025-05-15T09:24:46Z</time>
      </trkpt>
      <trkpt lat="42.540513994172215" lon="2.59466003626585">
        <ele>597.60000000000002</ele>
        <time>2025-05-15T09:24:47Z</time>
      </trkpt>
      <trkpt lat="42.54054400138557" lon="2.59485499933362">
        <ele>596.63999999999999</ele>
        <time>2025-05-15T09:24:48Z</time>
      </trkpt>
      <trkpt lat="42.540537966415286" lon="2.594880983233452">
        <ele>596.63999999999999</ele>
        <time>2025-05-15T09:24:49Z</time>
      </trkpt>
      <trkpt lat="42.540504019707441" lon="2.595028001815081">
        <ele>595.66999999999996</ele>
        <time>2025-05-15T09:24:50Z</time>
      </trkpt>
      <trkpt lat="42.540465965867043" lon="2.595193041488528">
        <ele>594.23000000000002</ele>
        <time>2025-05-15T09:24:51Z</time>
      </trkpt>
      <trkpt lat="42.540430007502437" lon="2.595352968201041">
        <ele>593.26999999999998</ele>
        <time>2025-05-15T09:24:52Z</time>
      </trkpt>
      <trkpt lat="42.54037200473249" lon="2.59560601785779">
        <ele>591.83000000000004</ele>
        <time>2025-05-15T09:24:53Z</time>
      </trkpt>
      <trkpt lat="42.540383990854025" lon="2.595693022012711">
        <ele>590.38999999999999</ele>
        <time>2025-05-15T09:24:54Z</time>
      </trkpt>
      <trkpt lat="42.540406035259366" lon="2.595854960381985">
        <ele>589.42999999999995</ele>
        <time>2025-05-15T09:24:55Z</time>
      </trkpt>
      <trkpt lat="42.540435958653688" lon="2.596078002825379">
        <ele>588.46000000000004</ele>
        <time>2025-05-15T09:24:56Z</time>
      </trkpt>
      <trkpt lat="42.540493039414287" lon="2.596227033063769">
        <ele>587.01999999999998</ele>
        <time>2025-05-15T09:24:57Z</time>
      </trkpt>
      <trkpt lat="42.540552970021963" lon="2.596386037766933">
        <ele>585.58000000000004</ele>
        <time>2025-05-15T09:24:58Z</time>
      </trkpt>
      <trkpt lat="42.540613990277052" lon="2.596546970307827">
        <ele>584.62</ele>
        <time>2025-05-15T09:24:59Z</time>
      </trkpt>
      <trkpt lat="42.540671993046999" lon="2.596700023859739">
        <ele>583.65999999999997</ele>
        <time>2025-05-15T09:25:00Z</time>
      </trkpt>
      <trkpt lat="42.540690014138818" lon="2.596861040219665">
        <ele>583.17999999999995</ele>
        <time>2025-05-15T09:25:01Z</time>
      </trkpt>
      <trkpt lat="42.540707029402256" lon="2.597027001902461">
        <ele>583.17999999999995</ele>
        <time>2025-05-15T09:25:02Z</time>
      </trkpt>
      <trkpt lat="42.54073703661561" lon="2.597301006317139">
        <ele>582.70000000000005</ele>
        <time>2025-05-15T09:25:03Z</time>
      </trkpt>
      <trkpt lat="42.540763020515442" lon="2.59736898355186">
        <ele>581.25</ele>
        <time>2025-05-15T09:25:04Z</time>
      </trkpt>
      <trkpt lat="42.540810965001583" lon="2.597491024062038">
        <ele>580.28999999999996</ele>
        <time>2025-05-15T09:25:05Z</time>
      </trkpt>
      <trkpt lat="42.540929988026619" lon="2.597795035690069">
        <ele>578.85000000000002</ele>
        <time>2025-05-15T09:25:06Z</time>
      </trkpt>
      <trkpt lat="42.540929988026619" lon="2.597795035690069">
        <ele>577.40999999999997</ele>
        <time>2025-05-15T09:25:07Z</time>
      </trkpt>
      <trkpt lat="42.540929988026619" lon="2.597843986004591">
        <ele>576.45000000000005</ele>
        <time>2025-05-15T09:25:08Z</time>
      </trkpt>
      <trkpt lat="42.540929988026619" lon="2.598073985427618">
        <ele>575.97000000000003</ele>
        <time>2025-05-15T09:25:09Z</time>
      </trkpt>
      <trkpt lat="42.540885983034968" lon="2.598246987909079">
        <ele>575.00999999999999</ele>
        <time>2025-05-15T09:25:10Z</time>
      </trkpt>
      <trkpt lat="42.54082202911377" lon="2.598389983177185">
        <ele>574.03999999999996</ele>
        <time>2025-05-15T09:25:11Z</time>
      </trkpt>
      <trkpt lat="42.540752962231636" lon="2.598544964566827">
        <ele>573.08000000000004</ele>
        <time>2025-05-15T09:25:12Z</time>
      </trkpt>
      <trkpt lat="42.540655983611941" lon="2.598730036988854">
        <ele>571.63999999999999</ele>
        <time>2025-05-15T09:25:13Z</time>
      </trkpt>
      <trkpt lat="42.540303021669388" lon="2.599318027496338">
        <ele>568.27999999999997</ele>
        <time>2025-05-15T09:25:17Z</time>
      </trkpt>
      <trkpt lat="42.540225991979241" lon="2.599446019157767">
        <ele>568.75999999999999</ele>
        <time>2025-05-15T09:25:18Z</time>
      </trkpt>
      <trkpt lat="42.540181986987591" lon="2.599519025534391">
        <ele>567.79999999999995</ele>
        <time>2025-05-15T09:25:19Z</time>
      </trkpt>
      <trkpt lat="42.54007201641798" lon="2.599704014137387">
        <ele>568.27999999999997</ele>
        <time>2025-05-15T09:25:20Z</time>
      </trkpt>
      <trkpt lat="42.54002901725471" lon="2.599982963874936">
        <ele>570.20000000000005</ele>
        <time>2025-05-15T09:25:21Z</time>
      </trkpt>
      <trkpt lat="42.54020000807941" lon="2.600048007443547">
        <ele>570.67999999999995</ele>
        <time>2025-05-15T09:25:22Z</time>
      </trkpt>
      <trkpt lat="42.540359012782574" lon="2.599967960268259">
        <ele>571.15999999999997</ele>
        <time>2025-05-15T09:25:23Z</time>
      </trkpt>
      <trkpt lat="42.540451968088746" lon="2.599922027438879">
        <ele>571.63999999999999</ele>
        <time>2025-05-15T09:25:24Z</time>
      </trkpt>
      <trkpt lat="42.5405010022223" lon="2.599896965548396">
        <ele>571.63999999999999</ele>
        <time>2025-05-15T09:25:25Z</time>
      </trkpt>
      <trkpt lat="42.540659001097083" lon="2.59988397359848">
        <ele>571.63999999999999</ele>
        <time>2025-05-15T09:25:26Z</time>
      </trkpt>
      <trkpt lat="42.540757991373539" lon="2.599876010790467">
        <ele>572.12</ele>
        <time>2025-05-15T09:25:27Z</time>
      </trkpt>
      <trkpt lat="42.540847007185221" lon="2.599912974983454">
        <ele>572.12</ele>
        <time>2025-05-15T09:25:28Z</time>
      </trkpt>
      <trkpt lat="42.54097499884665" lon="2.59996603243053">
        <ele>573.08000000000004</ele>
        <time>2025-05-15T09:25:29Z</time>
      </trkpt>
      <trkpt lat="42.541073989123106" lon="2.600020011886954">
        <ele>573.08000000000004</ele>
        <time>2025-05-15T09:25:30Z</time>
      </trkpt>
      <trkpt lat="42.541498029604554" lon="2.600300973281264">
        <ele>574.03999999999996</ele>
        <time>2025-05-15T09:25:34Z</time>
      </trkpt>
      <trkpt lat="42.541552009060979" lon="2.600390994921327">
        <ele>574.03999999999996</ele>
        <time>2025-05-15T09:25:35Z</time>
      </trkpt>
      <trkpt lat="42.541583022102714" lon="2.600471964105964">
        <ele>574.03999999999996</ele>
        <time>2025-05-15T09:25:36Z</time>
      </trkpt>
      <trkpt lat="42.541628032922745" lon="2.600586963817477">
        <ele>575.00999999999999</ele>
        <time>2025-05-15T09:25:37Z</time>
      </trkpt>
      <trkpt lat="42.541658962145448" lon="2.600670028477907">
        <ele>575.00999999999999</ele>
        <time>2025-05-15T09:25:38Z</time>
      </trkpt>
      <trkpt lat="42.541675977408886" lon="2.60080698877573">
        <ele>576.92999999999995</ele>
        <time>2025-05-15T09:25:39Z</time>
      </trkpt>
      <trkpt lat="42.541701961308718" lon="2.601034976541996">
        <ele>577.88999999999999</ele>
        <time>2025-05-15T09:25:40Z</time>
      </trkpt>
      <trkpt lat="42.541700033470988" lon="2.601081999018788">
        <ele>579.80999999999995</ele>
        <time>2025-05-15T09:25:41Z</time>
      </trkpt>
      <trkpt lat="42.541690981015563" lon="2.601228011772037">
        <ele>581.73000000000002</ele>
        <time>2025-05-15T09:25:42Z</time>
      </trkpt>
      <trkpt lat="42.541681006550789" lon="2.601399002596736">
        <ele>582.22000000000003</ele>
        <time>2025-05-15T09:25:43Z</time>
      </trkpt>
      <trkpt lat="42.541690981015563" lon="2.601461028680205">
        <ele>582.70000000000005</ele>
        <time>2025-05-15T09:25:44Z</time>
      </trkpt>
      <trkpt lat="42.541732974350452" lon="2.601566975936294">
        <ele>584.13999999999999</ele>
        <time>2025-05-15T09:25:45Z</time>
      </trkpt>
      <trkpt lat="42.541779996827245" lon="2.601624978706241">
        <ele>585.10000000000002</ele>
        <time>2025-05-15T09:25:46Z</time>
      </trkpt>
      <trkpt lat="42.541837999597192" lon="2.601626990363002">
        <ele>586.05999999999995</ele>
        <time>2025-05-15T09:25:47Z</time>
      </trkpt>
      <trkpt lat="42.54187798127532" lon="2.60162103921175">
        <ele>587.5</ele>
        <time>2025-05-15T09:25:48Z</time>
      </trkpt>
      <trkpt lat="42.541917040944099" lon="2.601613998413086">
        <ele>593.26999999999998</ele>
        <time>2025-05-15T09:25:49Z</time>
      </trkpt>
      <trkpt lat="42.541917040944099" lon="2.601613998413086">
        <ele>596.63999999999999</ele>
        <time>2025-05-15T09:25:50Z</time>
      </trkpt>
      <trkpt lat="42.541954005137086" lon="2.601550966501236">
        <ele>598.55999999999995</ele>
        <time>2025-05-15T09:25:51Z</time>
      </trkpt>
      <trkpt lat="42.542055007070303" lon="2.601379975676537">
        <ele>601.44000000000005</ele>
        <time>2025-05-15T09:25:53Z</time>
      </trkpt>
      <trkpt lat="42.542131030932069" lon="2.601248966529965">
        <ele>602.39999999999998</ele>
        <time>2025-05-15T09:25:54Z</time>
      </trkpt>
      <trkpt lat="42.542212000116706" lon="2.601195992901921">
        <ele>602.88</ele>
        <time>2025-05-15T09:25:55Z</time>
      </trkpt>
      <trkpt lat="42.542407969012856" lon="2.60117101483047">
        <ele>603.85000000000002</ele>
        <time>2025-05-15T09:25:56Z</time>
      </trkpt>
      <trkpt lat="42.542502013966441" lon="2.601227005943656">
        <ele>604.80999999999995</ele>
        <time>2025-05-15T09:25:57Z</time>
      </trkpt>
      <trkpt lat="42.542619025334716" lon="2.601338988170028">
        <ele>605.28999999999996</ele>
        <time>2025-05-15T09:25:58Z</time>
      </trkpt>
      <trkpt lat="42.543181031942368" lon="2.601903006434441">
        <ele>611.05999999999995</ele>
        <time>2025-05-15T09:26:04Z</time>
      </trkpt>
      <trkpt lat="42.543375995010138" lon="2.601999985054135">
        <ele>612.01999999999998</ele>
        <time>2025-05-15T09:26:06Z</time>
      </trkpt>
      <trkpt lat="42.5438769813627" lon="2.602048013359308">
        <ele>615.86000000000001</ele>
        <time>2025-05-15T09:26:10Z</time>
      </trkpt>
      <trkpt lat="42.543965997174382" lon="2.602111967280507">
        <ele>615.86000000000001</ele>
        <time>2025-05-15T09:26:11Z</time>
      </trkpt>
      <trkpt lat="42.544064987450838" lon="2.602224033325911">
        <ele>616.34000000000003</ele>
        <time>2025-05-15T09:26:12Z</time>
      </trkpt>
      <trkpt lat="42.544140005484223" lon="2.602346995845437">
        <ele>616.82000000000005</ele>
        <time>2025-05-15T09:26:13Z</time>
      </trkpt>
      <trkpt lat="42.544227009639144" lon="2.602489991113544">
        <ele>618.25999999999999</ele>
        <time>2025-05-15T09:26:14Z</time>
      </trkpt>
      <trkpt lat="42.544336980208755" lon="2.602617982774973">
        <ele>619.71000000000004</ele>
        <time>2025-05-15T09:26:15Z</time>
      </trkpt>
      <trkpt lat="42.544462960213423" lon="2.60273901745677">
        <ele>620.66999999999996</ele>
        <time>2025-05-15T09:26:16Z</time>
      </trkpt>
      <trkpt lat="42.545451018959284" lon="2.603476960211992">
        <ele>631.24000000000001</ele>
        <time>2025-05-15T09:26:24Z</time>
      </trkpt>
      <trkpt lat="42.545541962608695" lon="2.603585002943873">
        <ele>632.67999999999995</ele>
        <time>2025-05-15T09:26:25Z</time>
      </trkpt>
      <trkpt lat="42.545584039762616" lon="2.603708971291781">
        <ele>633.64999999999998</ele>
        <time>2025-05-15T09:26:26Z</time>
      </trkpt>
      <trkpt lat="42.545581022277474" lon="2.603839980438352">
        <ele>635.09000000000003</ele>
        <time>2025-05-15T09:26:27Z</time>
      </trkpt>
      <trkpt lat="42.545576998963952" lon="2.603939976543188">
        <ele>637.49000000000001</ele>
        <time>2025-05-15T09:26:28Z</time>
      </trkpt>
      <trkpt lat="42.54557297565043" lon="2.604053970426321">
        <ele>640.38</ele>
        <time>2025-05-15T09:26:29Z</time>
      </trkpt>
      <trkpt lat="42.545568030327559" lon="2.604176010936499">
        <ele>642.29999999999995</ele>
        <time>2025-05-15T09:26:30Z</time>
      </trkpt>
      <trkpt lat="42.545589990913868" lon="2.604281958192587">
        <ele>646.13999999999999</ele>
        <time>2025-05-15T09:26:31Z</time>
      </trkpt>
      <trkpt lat="42.545641958713531" lon="2.604343984276056">
        <ele>648.54999999999995</ele>
        <time>2025-05-15T09:26:32Z</time>
      </trkpt>
      <trkpt lat="42.545693004503846" lon="2.604403998702765">
        <ele>650.95000000000005</ele>
        <time>2025-05-15T09:26:33Z</time>
      </trkpt>
      <trkpt lat="42.54574597813189" lon="2.604395030066371">
        <ele>653.35000000000002</ele>
        <time>2025-05-15T09:26:34Z</time>
      </trkpt>
      <trkpt lat="42.545822001993656" lon="2.604382038116455">
        <ele>656.24000000000001</ele>
        <time>2025-05-15T09:26:35Z</time>
      </trkpt>
      <trkpt lat="42.545845974236727" lon="2.604355970397592">
        <ele>660.08000000000004</ele>
        <time>2025-05-15T09:26:36Z</time>
      </trkpt>
      <trkpt lat="42.545901965349913" lon="2.604296039789915">
        <ele>662.49000000000001</ele>
        <time>2025-05-15T09:26:37Z</time>
      </trkpt>
      <trkpt lat="42.545967008918524" lon="2.604226972907782">
        <ele>664.40999999999997</ele>
        <time>2025-05-15T09:26:38Z</time>
      </trkpt>
      <trkpt lat="42.546101035550237" lon="2.604081965982914">
        <ele>665.37</ele>
        <time>2025-05-15T09:26:39Z</time>
      </trkpt>
      <trkpt lat="42.546179993078113" lon="2.604076014831662">
        <ele>667.76999999999998</ele>
        <time>2025-05-15T09:26:40Z</time>
      </trkpt>
      <trkpt lat="42.546297004446387" lon="2.604068974032998">
        <ele>669.70000000000005</ele>
        <time>2025-05-15T09:26:41Z</time>
      </trkpt>
      <trkpt lat="42.54645299166441" lon="2.604066962376237">
        <ele>672.58000000000004</ele>
        <time>2025-05-15T09:26:42Z</time>
      </trkpt>
      <trkpt lat="42.546899998560548" lon="2.604162013158202">
        <ele>678.35000000000002</ele>
        <time>2025-05-15T09:26:45Z</time>
      </trkpt>
      <trkpt lat="42.547023966908455" lon="2.604189002886415">
        <ele>680.26999999999998</ele>
        <time>2025-05-15T09:26:46Z</time>
      </trkpt>
      <trkpt lat="42.547213984653354" lon="2.604252034798265">
        <ele>682.19000000000005</ele>
        <time>2025-05-15T09:26:47Z</time>
      </trkpt>
      <trkpt lat="42.547369971871376" lon="2.604304002597928">
        <ele>683.63</ele>
        <time>2025-05-15T09:26:48Z</time>
      </trkpt>
      <trkpt lat="42.547521013766527" lon="2.604354964569211">
        <ele>684.60000000000002</ele>
        <time>2025-05-15T09:26:49Z</time>
      </trkpt>
      <trkpt lat="42.54851502366364" lon="2.60458898730576">
        <ele>690.84000000000003</ele>
        <time>2025-05-15T09:26:56Z</time>
      </trkpt>
      <trkpt lat="42.548657013103366" lon="2.604569038376212">
        <ele>691.33000000000004</ele>
        <time>2025-05-15T09:26:57Z</time>
      </trkpt>
      <trkpt lat="42.548793973401189" lon="2.604549005627632">
        <ele>692.28999999999996</ele>
        <time>2025-05-15T09:26:58Z</time>
      </trkpt>
      <trkpt lat="42.548911990597844" lon="2.604531990364194">
        <ele>692.76999999999998</ele>
        <time>2025-05-15T09:26:59Z</time>
      </trkpt>
      <trkpt lat="42.549019027501345" lon="2.604574989527464">
        <ele>692.76999999999998</ele>
        <time>2025-05-15T09:27:00Z</time>
      </trkpt>
      <trkpt lat="42.549113994464278" lon="2.604670040309429">
        <ele>693.25</ele>
        <time>2025-05-15T09:27:01Z</time>
      </trkpt>
      <trkpt lat="42.549179960042238" lon="2.604785040020943">
        <ele>693.25</ele>
        <time>2025-05-15T09:27:02Z</time>
      </trkpt>
      <trkpt lat="42.549237040802836" lon="2.60493298061192">
        <ele>693.73000000000002</ele>
        <time>2025-05-15T09:27:03Z</time>
      </trkpt>
      <trkpt lat="42.549302000552416" lon="2.60510397143662">
        <ele>694.21000000000004</ele>
        <time>2025-05-15T09:27:04Z</time>
      </trkpt>
      <trkpt lat="42.549374001100659" lon="2.605289965867996">
        <ele>694.21000000000004</ele>
        <time>2025-05-15T09:27:05Z</time>
      </trkpt>
      <trkpt lat="42.549637025222182" lon="2.606063028797507">
        <ele>696.61000000000001</ele>
        <time>2025-05-15T09:27:09Z</time>
      </trkpt>
      <trkpt lat="42.549660997465253" lon="2.606255980208516">
        <ele>696.61000000000001</ele>
        <time>2025-05-15T09:27:10Z</time>
      </trkpt>
      <trkpt lat="42.549683963879943" lon="2.606438035145402">
        <ele>697.09000000000003</ele>
        <time>2025-05-15T09:27:11Z</time>
      </trkpt>
      <trkpt lat="42.549706008285284" lon="2.606613971292973">
        <ele>697.57000000000005</ele>
        <time>2025-05-15T09:27:12Z</time>
      </trkpt>
      <trkpt lat="42.54978496581316" lon="2.606734000146389">
        <ele>697.57000000000005</ele>
        <time>2025-05-15T09:27:13Z</time>
      </trkpt>
      <trkpt lat="42.549880016595125" lon="2.606880012899637">
        <ele>697.57000000000005</ele>
        <time>2025-05-15T09:27:14Z</time>
      </trkpt>
      <trkpt lat="42.549980012699962" lon="2.607032982632518">
        <ele>697.09000000000003</ele>
        <time>2025-05-15T09:27:15Z</time>
      </trkpt>
      <trkpt lat="42.550071040168405" lon="2.607172038406134">
        <ele>697.57000000000005</ele>
        <time>2025-05-15T09:27:16Z</time>
      </trkpt>
      <trkpt lat="42.550124013796449" lon="2.607349986210465">
        <ele>698.04999999999995</ele>
        <time>2025-05-15T09:27:17Z</time>
      </trkpt>
      <trkpt lat="42.550144968554378" lon="2.607504967600107">
        <ele>698.04999999999995</ele>
        <time>2025-05-15T09:27:18Z</time>
      </trkpt>
      <trkpt lat="42.550157960504293" lon="2.607656009495258">
        <ele>698.04999999999995</ele>
        <time>2025-05-15T09:27:19Z</time>
      </trkpt>
      <trkpt lat="42.55016902461648" lon="2.607797998934984">
        <ele>699.01999999999998</ele>
        <time>2025-05-15T09:27:20Z</time>
      </trkpt>
      <trkpt lat="42.550184028223157" lon="2.607905035838485">
        <ele>699.5</ele>
        <time>2025-05-15T09:27:21Z</time>
      </trkpt>
      <trkpt lat="42.550260974094272" lon="2.60795901529491">
        <ele>700.46000000000004</ele>
        <time>2025-05-15T09:27:22Z</time>
      </trkpt>
      <trkpt lat="42.550358036532998" lon="2.608026992529631">
        <ele>701.41999999999996</ele>
        <time>2025-05-15T09:27:23Z</time>
      </trkpt>
      <trkpt lat="42.550464989617467" lon="2.608102010563016">
        <ele>701.41999999999996</ele>
        <time>2025-05-15T09:27:24Z</time>
      </trkpt>
      <trkpt lat="42.550577977672219" lon="2.608180968090892">
        <ele>701.89999999999998</ele>
        <time>2025-05-15T09:27:25Z</time>
      </trkpt>
      <trkpt lat="42.550666993483901" lon="2.608312983065844">
        <ele>701.89999999999998</ele>
        <time>2025-05-15T09:27:26Z</time>
      </trkpt>
      <trkpt lat="42.550746034830809" lon="2.608458995819092">
        <ele>701.89999999999998</ele>
        <time>2025-05-15T09:27:27Z</time>
      </trkpt>
      <trkpt lat="42.550805965438485" lon="2.608635015785694">
        <ele>702.38</ele>
        <time>2025-05-15T09:27:28Z</time>
      </trkpt>
      <trkpt lat="42.550862962380052" lon="2.60882000438869">
        <ele>703.82000000000005</ele>
        <time>2025-05-15T09:27:29Z</time>
      </trkpt>
      <trkpt lat="42.55085801705718" lon="2.609026031568646">
        <ele>705.75</ele>
        <time>2025-05-15T09:27:30Z</time>
      </trkpt>
      <trkpt lat="42.550849970430136" lon="2.609241027384996">
        <ele>707.66999999999996</ele>
        <time>2025-05-15T09:27:31Z</time>
      </trkpt>
      <trkpt lat="42.5508379843086" lon="2.609455017372966">
        <ele>709.11000000000001</ele>
        <time>2025-05-15T09:27:32Z</time>
      </trkpt>
      <trkpt lat="42.550798002630472" lon="2.609676970168948">
        <ele>710.07000000000005</ele>
        <time>2025-05-15T09:27:33Z</time>
      </trkpt>
      <trkpt lat="42.550756009295583" lon="2.609909987077117">
        <ele>711.50999999999999</ele>
        <time>2025-05-15T09:27:34Z</time>
      </trkpt>
      <trkpt lat="42.550649978220463" lon="2.610685983672738">
        <ele>714.88</ele>
        <time>2025-05-15T09:27:38Z</time>
      </trkpt>
      <trkpt lat="42.55066498182714" lon="2.610769970342517">
        <ele>715.36000000000001</ele>
        <time>2025-05-15T09:27:39Z</time>
      </trkpt>
      <trkpt lat="42.550692977383733" lon="2.61084096506238">
        <ele>715.84000000000003</ele>
        <time>2025-05-15T09:27:40Z</time>
      </trkpt>
      <trkpt lat="42.550739999860525" lon="2.610854962840676">
        <ele>716.32000000000005</ele>
        <time>2025-05-15T09:27:41Z</time>
      </trkpt>
      <trkpt lat="42.550808982923627" lon="2.610876001417637">
        <ele>716.79999999999995</ele>
        <time>2025-05-15T09:27:42Z</time>
      </trkpt>
      <trkpt lat="42.550877965986729" lon="2.610897039994597">
        <ele>717.27999999999997</ele>
        <time>2025-05-15T09:27:43Z</time>
      </trkpt>
      <trkpt lat="42.550953989848495" lon="2.610920006409288">
        <ele>717.75999999999999</ele>
        <time>2025-05-15T09:27:44Z</time>
      </trkpt>
      <trkpt lat="42.551032025367022" lon="2.610943978652358">
        <ele>718.24000000000001</ele>
        <time>2025-05-15T09:27:45Z</time>
      </trkpt>
      <trkpt lat="42.551265964284539" lon="2.611063001677394">
        <ele>719.20000000000005</ele>
        <time>2025-05-15T09:27:48Z</time>
      </trkpt>
      <trkpt lat="42.55133100785315" lon="2.611121004447341">
        <ele>719.20000000000005</ele>
        <time>2025-05-15T09:27:49Z</time>
      </trkpt>
      <trkpt lat="42.55139303393662" lon="2.611175989732146">
        <ele>719.20000000000005</ele>
        <time>2025-05-15T09:27:50Z</time>
      </trkpt>
      <trkpt lat="42.551423041149974" lon="2.611265005543828">
        <ele>719.20000000000005</ele>
        <time>2025-05-15T09:27:51Z</time>
      </trkpt>
      <trkpt lat="42.551445001736283" lon="2.611344968900085">
        <ele>719.67999999999995</ele>
        <time>2025-05-15T09:27:52Z</time>
      </trkpt>
      <trkpt lat="42.551462016999722" lon="2.611435996368527">
        <ele>720.15999999999997</ele>
        <time>2025-05-15T09:27:53Z</time>
      </trkpt>
      <trkpt lat="42.551443995907903" lon="2.611520988866687">
        <ele>720.15999999999997</ele>
        <time>2025-05-15T09:27:54Z</time>
      </trkpt>
      <trkpt lat="42.551424968987703" lon="2.611611010506749">
        <ele>720.64999999999998</ele>
        <time>2025-05-15T09:27:55Z</time>
      </trkpt>
      <trkpt lat="42.551406025886536" lon="2.611703965812922">
        <ele>721.13</ele>
        <time>2025-05-15T09:27:56Z</time>
      </trkpt>
      <trkpt lat="42.551385993137956" lon="2.611799016594887">
        <ele>722.09000000000003</ele>
        <time>2025-05-15T09:27:57Z</time>
      </trkpt>
      <trkpt lat="42.551391022279859" lon="2.611884009093046">
        <ele>723.04999999999995</ele>
        <time>2025-05-15T09:27:58Z</time>
      </trkpt>
      <trkpt lat="42.551411977037787" lon="2.611960032954812">
        <ele>724.49000000000001</ele>
        <time>2025-05-15T09:27:59Z</time>
      </trkpt>
      <trkpt lat="42.551447013393044" lon="2.61204301379621">
        <ele>725.45000000000005</ele>
        <time>2025-05-15T09:28:00Z</time>
      </trkpt>
      <trkpt lat="42.551480960100889" lon="2.612089030444622">
        <ele>725.92999999999995</ele>
        <time>2025-05-15T09:28:01Z</time>
      </trkpt>
      <trkpt lat="42.551555978134274" lon="2.612105961889029">
        <ele>725.92999999999995</ele>
        <time>2025-05-15T09:28:02Z</time>
      </trkpt>
      <trkpt lat="42.551633007824421" lon="2.612122977152467">
        <ele>726.40999999999997</ele>
        <time>2025-05-15T09:28:03Z</time>
      </trkpt>
      <trkpt lat="42.551715988665819" lon="2.612142004072666">
        <ele>726.40999999999997</ele>
        <time>2025-05-15T09:28:04Z</time>
      </trkpt>
      <trkpt lat="42.551807016134262" lon="2.612162036821246">
        <ele>726.40999999999997</ele>
        <time>2025-05-15T09:28:05Z</time>
      </trkpt>
      <trkpt lat="42.55302800796926" lon="2.612496977671981">
        <ele>730.74000000000001</ele>
        <time>2025-05-15T09:28:17Z</time>
      </trkpt>
      <trkpt lat="42.553312992677093" lon="2.612652964890003">
        <ele>732.17999999999995</ele>
        <time>2025-05-15T09:28:20Z</time>
      </trkpt>
      <trkpt lat="42.553376024588943" lon="2.612737035378814">
        <ele>732.65999999999997</ele>
        <time>2025-05-15T09:28:21Z</time>
      </trkpt>
      <trkpt lat="42.553431009873748" lon="2.61283895932138">
        <ele>733.62</ele>
        <time>2025-05-15T09:28:22Z</time>
      </trkpt>
      <trkpt lat="42.553462022915483" lon="2.612968040630221">
        <ele>735.07000000000005</ele>
        <time>2025-05-15T09:28:23Z</time>
      </trkpt>
      <trkpt lat="42.553468979895115" lon="2.61311698704958">
        <ele>735.54999999999995</ele>
        <time>2025-05-15T09:28:24Z</time>
      </trkpt>
      <trkpt lat="42.553476020693779" lon="2.613276997581124">
        <ele>736.50999999999999</ele>
        <time>2025-05-15T09:28:25Z</time>
      </trkpt>
      <trkpt lat="42.553483983501792" lon="2.613447988405824">
        <ele>736.50999999999999</ele>
        <time>2025-05-15T09:28:26Z</time>
      </trkpt>
      <trkpt lat="42.553504016250372" lon="2.61427796445787">
        <ele>739.87</ele>
        <time>2025-05-15T09:28:31Z</time>
      </trkpt>
      <trkpt lat="42.553504016250372" lon="2.614412996917963">
        <ele>740.35000000000002</ele>
        <time>2025-05-15T09:28:32Z</time>
      </trkpt>
      <trkpt lat="42.553498987108469" lon="2.614530008286238">
        <ele>741.30999999999995</ele>
        <time>2025-05-15T09:28:33Z</time>
      </trkpt>
      <trkpt lat="42.553468979895115" lon="2.614640984684229">
        <ele>741.78999999999996</ele>
        <time>2025-05-15T09:28:34Z</time>
      </trkpt>
      <trkpt lat="42.553438972681761" lon="2.614759001880884">
        <ele>742.75999999999999</ele>
        <time>2025-05-15T09:28:35Z</time>
      </trkpt>
      <trkpt lat="42.553407037630677" lon="2.614880036562681">
        <ele>743.24000000000001</ele>
        <time>2025-05-15T09:28:36Z</time>
      </trkpt>
      <trkpt lat="42.553352974355221" lon="2.614977015182376">
        <ele>743.72000000000003</ele>
        <time>2025-05-15T09:28:37Z</time>
      </trkpt>
      <trkpt lat="42.553290026262403" lon="2.615062007680535">
        <ele>744.20000000000005</ele>
        <time>2025-05-15T09:28:38Z</time>
      </trkpt>
      <trkpt lat="42.553234035149217" lon="2.615139037370682">
        <ele>744.67999999999995</ele>
        <time>2025-05-15T09:28:39Z</time>
      </trkpt>
      <trkpt lat="42.553181983530521" lon="2.615209026262164">
        <ele>745.15999999999997</ele>
        <time>2025-05-15T09:28:40Z</time>
      </trkpt>
      <trkpt lat="42.55313596688211" lon="2.615271974354982">
        <ele>745.63999999999999</ele>
        <time>2025-05-15T09:28:41Z</time>
      </trkpt>
      <trkpt lat="42.553052986040711" lon="2.615318996831775">
        <ele>745.63999999999999</ele>
        <time>2025-05-15T09:28:42Z</time>
      </trkpt>
      <trkpt lat="42.552946032956243" lon="2.615303993225098">
        <ele>745.63999999999999</ele>
        <time>2025-05-15T09:28:43Z</time>
      </trkpt>
      <trkpt lat="42.552908984944224" lon="2.615310028195381">
        <ele>745.63999999999999</ele>
        <time>2025-05-15T09:28:44Z</time>
      </trkpt>
      <trkpt lat="42.551944982260466" lon="2.615372976288199">
        <ele>750.92999999999995</ele>
        <time>2025-05-15T09:28:54Z</time>
      </trkpt>
      <trkpt lat="42.551162028685212" lon="2.615402983501554">
        <ele>752.85000000000002</ele>
        <time>2025-05-15T09:28:59Z</time>
      </trkpt>
      <trkpt lat="42.550991037860513" lon="2.615451011806727">
        <ele>753.80999999999995</ele>
        <time>2025-05-15T09:29:00Z</time>
      </trkpt>
      <trkpt lat="42.549736015498638" lon="2.615970019251108">
        <ele>758.13999999999999</ele>
        <time>2025-05-15T09:29:07Z</time>
      </trkpt>
      <trkpt lat="42.548707975074649" lon="2.616528002545238">
        <ele>761.5</ele>
        <time>2025-05-15T09:29:13Z</time>
      </trkpt>
      <trkpt lat="42.548533966764808" lon="2.616603020578623">
        <ele>761.98000000000002</ele>
        <time>2025-05-15T09:29:14Z</time>
      </trkpt>
      <trkpt lat="42.548362975940108" lon="2.616638978943229">
        <ele>762.46000000000004</ele>
        <time>2025-05-15T09:29:15Z</time>
      </trkpt>
      <trkpt lat="42.547682030126452" lon="2.616648031398654">
        <ele>765.35000000000002</ele>
        <time>2025-05-15T09:29:19Z</time>
      </trkpt>
      <trkpt lat="42.547026984393597" lon="2.616504030302167">
        <ele>767.75</ele>
        <time>2025-05-15T09:29:23Z</time>
      </trkpt>
      <trkpt lat="42.546901004388928" lon="2.616464970633388">
        <ele>768.23000000000002</ele>
        <time>2025-05-15T09:29:24Z</time>
      </trkpt>
      <trkpt lat="42.546814000234008" lon="2.616361035034061">
        <ele>768.71000000000004</ele>
        <time>2025-05-15T09:29:25Z</time>
      </trkpt>
      <trkpt lat="42.546726996079087" lon="2.616252992302179">
        <ele>769.19000000000005</ele>
        <time>2025-05-15T09:29:26Z</time>
      </trkpt>
      <trkpt lat="42.546638986095786" lon="2.616142015904188">
        <ele>769.66999999999996</ele>
        <time>2025-05-15T09:29:27Z</time>
      </trkpt>
      <trkpt lat="42.546519041061401" lon="2.616117037832737">
        <ele>770.14999999999998</ele>
        <time>2025-05-15T09:29:28Z</time>
      </trkpt>
      <trkpt lat="42.546404963359237" lon="2.616116032004356">
        <ele>771.11000000000001</ele>
        <time>2025-05-15T09:29:29Z</time>
      </trkpt>
      <trkpt lat="42.546319970861077" lon="2.616201024502516">
        <ele>771.60000000000002</ele>
        <time>2025-05-15T09:29:30Z</time>
      </trkpt>
      <trkpt lat="42.54621603526175" lon="2.616310995072126">
        <ele>771.60000000000002</ele>
        <time>2025-05-15T09:29:31Z</time>
      </trkpt>
      <trkpt lat="42.546111010015011" lon="2.616466982290149">
        <ele>771.60000000000002</ele>
        <time>2025-05-15T09:29:32Z</time>
      </trkpt>
      <trkpt lat="42.545899031683803" lon="2.616779040545225">
        <ele>771.11000000000001</ele>
        <time>2025-05-15T09:29:34Z</time>
      </trkpt>
      <trkpt lat="42.545790988951921" lon="2.616938967257738">
        <ele>771.11000000000001</ele>
        <time>2025-05-15T09:29:35Z</time>
      </trkpt>
      <trkpt lat="42.545641958713531" lon="2.617052039131522">
        <ele>770.63</ele>
        <time>2025-05-15T09:29:36Z</time>
      </trkpt>
      <trkpt lat="42.545506004244089" lon="2.617133008316159">
        <ele>770.14999999999998</ele>
        <time>2025-05-15T09:29:37Z</time>
      </trkpt>
      <trkpt lat="42.545382035896182" lon="2.617187993600965">
        <ele>769.66999999999996</ele>
        <time>2025-05-15T09:29:38Z</time>
      </trkpt>
      <trkpt lat="42.545269969850779" lon="2.617142982780933">
        <ele>769.19000000000005</ele>
        <time>2025-05-15T09:29:39Z</time>
      </trkpt>
      <trkpt lat="42.54514398984611" lon="2.617081040516496">
        <ele>768.71000000000004</ele>
        <time>2025-05-15T09:29:40Z</time>
      </trkpt>
      <trkpt lat="42.545005017891526" lon="2.617012979462743">
        <ele>768.71000000000004</ele>
        <time>2025-05-15T09:29:41Z</time>
      </trkpt>
      <trkpt lat="42.544536972418427" lon="2.616783985868096">
        <ele>767.26999999999998</ele>
        <time>2025-05-15T09:29:44Z</time>
      </trkpt>
      <trkpt lat="42.544405963271856" lon="2.616720031946898">
        <ele>766.78999999999996</ele>
        <time>2025-05-15T09:29:45Z</time>
      </trkpt>
      <trkpt lat="42.54426296800375" lon="2.616749033331871">
        <ele>766.30999999999995</ele>
        <time>2025-05-15T09:29:46Z</time>
      </trkpt>
      <trkpt lat="42.544120978564024" lon="2.616777028888464">
        <ele>765.83000000000004</ele>
        <time>2025-05-15T09:29:47Z</time>
      </trkpt>
      <trkpt lat="42.543988963589072" lon="2.616803012788296">
        <ele>765.83000000000004</ele>
        <time>2025-05-15T09:29:48Z</time>
      </trkpt>
      <trkpt lat="42.543870024383068" lon="2.616827990859747">
        <ele>765.35000000000002</ele>
        <time>2025-05-15T09:29:49Z</time>
      </trkpt>
      <trkpt lat="42.543772961944342" lon="2.616736041381955">
        <ele>765.35000000000002</ele>
        <time>2025-05-15T09:29:50Z</time>
      </trkpt>
      <trkpt lat="42.54368201829493" lon="2.616649037227035">
        <ele>765.35000000000002</ele>
        <time>2025-05-15T09:29:51Z</time>
      </trkpt>
      <trkpt lat="42.543581016361713" lon="2.61655499227345">
        <ele>764.87</ele>
        <time>2025-05-15T09:29:52Z</time>
      </trkpt>
      <trkpt lat="42.543355040252209" lon="2.616419959813356">
        <ele>764.38999999999999</ele>
        <time>2025-05-15T09:29:54Z</time>
      </trkpt>
      <trkpt lat="42.543255966156721" lon="2.616400010883808">
        <ele>764.38999999999999</ele>
        <time>2025-05-15T09:29:55Z</time>
      </trkpt>
      <trkpt lat="42.543179020285606" lon="2.616479974240065">
        <ele>763.89999999999998</ele>
        <time>2025-05-15T09:29:56Z</time>
      </trkpt>
      <trkpt lat="42.543139960616827" lon="2.616526996716857">
        <ele>763.41999999999996</ele>
        <time>2025-05-15T09:29:57Z</time>
      </trkpt>
      <trkpt lat="42.543125040829182" lon="2.616653982549906">
        <ele>761.98000000000002</ele>
        <time>2025-05-15T09:29:58Z</time>
      </trkpt>
      <trkpt lat="42.543110959231853" lon="2.616776023060083">
        <ele>761.01999999999998</ele>
        <time>2025-05-15T09:29:59Z</time>
      </trkpt>
      <trkpt lat="42.543096961453557" lon="2.616892028599978">
        <ele>760.05999999999995</ele>
        <time>2025-05-15T09:30:00Z</time>
      </trkpt>
      <trkpt lat="42.543045999482274" lon="2.6170289888978">
        <ele>759.58000000000004</ele>
        <time>2025-05-15T09:30:01Z</time>
      </trkpt>
      <trkpt lat="42.542964024469256" lon="2.617098977789283">
        <ele>759.10000000000002</ele>
        <time>2025-05-15T09:30:02Z</time>
      </trkpt>
      <trkpt lat="42.54286696203053" lon="2.617150023579598">
        <ele>758.62</ele>
        <time>2025-05-15T09:30:03Z</time>
      </trkpt>
      <trkpt lat="42.542754979804158" lon="2.617209032177925">
        <ele>758.13999999999999</ele>
        <time>2025-05-15T09:30:04Z</time>
      </trkpt>
      <trkpt lat="42.542636040598154" lon="2.617270974442363">
        <ele>757.17999999999995</ele>
        <time>2025-05-15T09:30:05Z</time>
      </trkpt>
      <trkpt lat="42.542521962895989" lon="2.617353033274412">
        <ele>755.73000000000002</ele>
        <time>2025-05-15T09:30:06Z</time>
      </trkpt>
      <trkpt lat="42.542410986497998" lon="2.617453029379249">
        <ele>754.76999999999998</ele>
        <time>2025-05-15T09:30:07Z</time>
      </trkpt>
      <trkpt lat="42.542300010100007" lon="2.617552019655705">
        <ele>753.80999999999995</ele>
        <time>2025-05-15T09:30:08Z</time>
      </trkpt>
      <trkpt lat="42.542195990681648" lon="2.617644974961877">
        <ele>752.37</ele>
        <time>2025-05-15T09:30:09Z</time>
      </trkpt>
      <trkpt lat="42.542074033990502" lon="2.617664001882076">
        <ele>751.40999999999997</ele>
        <time>2025-05-15T09:30:10Z</time>
      </trkpt>
      <trkpt lat="42.541956016793847" lon="2.617664001882076">
        <ele>750.45000000000005</ele>
        <time>2025-05-15T09:30:11Z</time>
      </trkpt>
      <trkpt lat="42.541835987940431" lon="2.617655033245683">
        <ele>749.49000000000001</ele>
        <time>2025-05-15T09:30:12Z</time>
      </trkpt>
      <trkpt lat="42.541707996279001" lon="2.617585966363549">
        <ele>749</ele>
        <time>2025-05-15T09:30:13Z</time>
      </trkpt>
      <trkpt lat="42.541570030152798" lon="2.617510026320815">
        <ele>748.51999999999998</ele>
        <time>2025-05-15T09:30:14Z</time>
      </trkpt>
      <trkpt lat="42.541431980207562" lon="2.61743500828743">
        <ele>748.03999999999996</ele>
        <time>2025-05-15T09:30:15Z</time>
      </trkpt>
      <trkpt lat="42.541302982717752" lon="2.617365019395948">
        <ele>747.08000000000004</ele>
        <time>2025-05-15T09:30:16Z</time>
      </trkpt>
      <trkpt lat="42.541181026026607" lon="2.617297964170575">
        <ele>746.60000000000002</ele>
        <time>2025-05-15T09:30:17Z</time>
      </trkpt>
      <trkpt lat="42.541068037971854" lon="2.617287989705801">
        <ele>745.63999999999999</ele>
        <time>2025-05-15T09:30:18Z</time>
      </trkpt>
      <trkpt lat="42.54095102660358" lon="2.617312967777252">
        <ele>745.15999999999997</ele>
        <time>2025-05-15T09:30:19Z</time>
      </trkpt>
      <trkpt lat="42.540839966386557" lon="2.617382034659386">
        <ele>744.20000000000005</ele>
        <time>2025-05-15T09:30:20Z</time>
      </trkpt>
      <trkpt lat="42.540728989988565" lon="2.617452023550868">
        <ele>743.24000000000001</ele>
        <time>2025-05-15T09:30:21Z</time>
      </trkpt>
      <trkpt lat="42.540606027469039" lon="2.617516983300448">
        <ele>742.27999999999997</ele>
        <time>2025-05-15T09:30:22Z</time>
      </trkpt>
      <trkpt lat="42.54048096947372" lon="2.617532992735505">
        <ele>741.30999999999995</ele>
        <time>2025-05-15T09:30:23Z</time>
      </trkpt>
      <trkpt lat="42.540366975590587" lon="2.617570040747523">
        <ele>739.87</ele>
        <time>2025-05-15T09:30:24Z</time>
      </trkpt>
      <trkpt lat="42.540254993364215" lon="2.617613039910793">
        <ele>738.90999999999997</ele>
        <time>2025-05-15T09:30:25Z</time>
      </trkpt>
      <trkpt lat="42.540161032229662" lon="2.617677999660373">
        <ele>737.47000000000003</ele>
        <time>2025-05-15T09:30:26Z</time>
      </trkpt>
      <trkpt lat="42.540091965347528" lon="2.617806997150183">
        <ele>736.02999999999997</ele>
        <time>2025-05-15T09:30:27Z</time>
      </trkpt>
      <trkpt lat="42.540025999769568" lon="2.617932977154851">
        <ele>735.07000000000005</ele>
        <time>2025-05-15T09:30:28Z</time>
      </trkpt>
      <trkpt lat="42.53996598534286" lon="2.618047976866365">
        <ele>734.10000000000002</ele>
        <time>2025-05-15T09:30:29Z</time>
      </trkpt>
      <trkpt lat="42.539889961481094" lon="2.618125006556511">
        <ele>732.65999999999997</ele>
        <time>2025-05-15T09:30:30Z</time>
      </trkpt>
      <trkpt lat="42.53979398868978" lon="2.618158031255007">
        <ele>731.70000000000005</ele>
        <time>2025-05-15T09:30:31Z</time>
      </trkpt>
      <trkpt lat="42.53970799036324" lon="2.618158031255007">
        <ele>730.74000000000001</ele>
        <time>2025-05-15T09:30:32Z</time>
      </trkpt>
      <trkpt lat="42.539615035057068" lon="2.618158031255007">
        <ele>729.77999999999997</ele>
        <time>2025-05-15T09:30:33Z</time>
      </trkpt>
      <trkpt lat="42.539511015638709" lon="2.618170017376542">
        <ele>728.82000000000005</ele>
        <time>2025-05-15T09:30:34Z</time>
      </trkpt>
      <trkpt lat="42.53940699622035" lon="2.618221985176206">
        <ele>728.34000000000003</ele>
        <time>2025-05-15T09:30:35Z</time>
      </trkpt>
      <trkpt lat="42.53931999206543" lon="2.618264984339476">
        <ele>727.86000000000001</ele>
        <time>2025-05-15T09:30:36Z</time>
      </trkpt>
      <trkpt lat="42.539269030094147" lon="2.618377972394228">
        <ele>726.88999999999999</ele>
        <time>2025-05-15T09:30:37Z</time>
      </trkpt>
      <trkpt lat="42.539229970425367" lon="2.618463970720768">
        <ele>726.40999999999997</ele>
        <time>2025-05-15T09:30:38Z</time>
      </trkpt>
      <trkpt lat="42.539240028709173" lon="2.61857301928103">
        <ele>725.92999999999995</ele>
        <time>2025-05-15T09:30:39Z</time>
      </trkpt>
      <trkpt lat="42.539286967366934" lon="2.618691036477685">
        <ele>725.92999999999995</ele>
        <time>2025-05-15T09:30:40Z</time>
      </trkpt>
      <trkpt lat="42.539351005107164" lon="2.618808969855309">
        <ele>725.45000000000005</ele>
        <time>2025-05-15T09:30:41Z</time>
      </trkpt>
      <trkpt lat="42.539413031190634" lon="2.618924975395203">
        <ele>724.97000000000003</ele>
        <time>2025-05-15T09:30:42Z</time>
      </trkpt>
      <trkpt lat="42.539428034797311" lon="2.619079034775496">
        <ele>724.49000000000001</ele>
        <time>2025-05-15T09:30:43Z</time>
      </trkpt>
      <trkpt lat="42.539402972906828" lon="2.619228987023234">
        <ele>724.00999999999999</ele>
        <time>2025-05-15T09:30:44Z</time>
      </trkpt>
      <trkpt lat="42.539334995672107" lon="2.619342980906367">
        <ele>723.04999999999995</ele>
        <time>2025-05-15T09:30:45Z</time>
      </trkpt>
      <trkpt lat="42.539240028709173" lon="2.619458986446261">
        <ele>723.04999999999995</ele>
        <time>2025-05-15T09:30:46Z</time>
      </trkpt>
      <trkpt lat="42.53912502899766" lon="2.619569040834904">
        <ele>722.57000000000005</ele>
        <time>2025-05-15T09:30:47Z</time>
      </trkpt>
      <trkpt lat="42.539006005972624" lon="2.619682028889656">
        <ele>722.57000000000005</ele>
        <time>2025-05-15T09:30:48Z</time>
      </trkpt>
      <trkpt lat="42.538886982947588" lon="2.619796022772789">
        <ele>722.09000000000003</ele>
        <time>2025-05-15T09:30:49Z</time>
      </trkpt>
      <trkpt lat="42.5387810356915" lon="2.619945975020528">
        <ele>721.61000000000001</ele>
        <time>2025-05-15T09:30:50Z</time>
      </trkpt>
      <trkpt lat="42.538694031536579" lon="2.620125012472272">
        <ele>721.61000000000001</ele>
        <time>2025-05-15T09:30:51Z</time>
      </trkpt>
      <trkpt lat="42.538609961047769" lon="2.620297009125352">
        <ele>721.13</ele>
        <time>2025-05-15T09:30:52Z</time>
      </trkpt>
      <trkpt lat="42.538390019908547" lon="2.620748961344361">
        <ele>720.15999999999997</ele>
        <time>2025-05-15T09:30:55Z</time>
      </trkpt>
      <trkpt lat="42.538045020774007" lon="2.62162696570158">
        <ele>717.27999999999997</ele>
        <time>2025-05-15T09:31:01Z</time>
      </trkpt>
      <trkpt lat="42.537961034104228" lon="2.621832992881537">
        <ele>716.32000000000005</ele>
        <time>2025-05-15T09:31:03Z</time>
      </trkpt>
      <trkpt lat="42.537919040769339" lon="2.621902981773019">
        <ele>715.84000000000003</ele>
        <time>2025-05-15T09:31:04Z</time>
      </trkpt>
      <trkpt lat="42.53788098692894" lon="2.621965007856488">
        <ele>715.36000000000001</ele>
        <time>2025-05-15T09:31:05Z</time>
      </trkpt>
      <trkpt lat="42.537744026631117" lon="2.622116971760988">
        <ele>714.39999999999998</ele>
        <time>2025-05-15T09:31:08Z</time>
      </trkpt>
      <trkpt lat="42.537630032747984" lon="2.622217973694205">
        <ele>713.91999999999996</ele>
        <time>2025-05-15T09:31:10Z</time>
      </trkpt>
      <trkpt lat="42.53755702637136" lon="2.622256027534604">
        <ele>713.91999999999996</ele>
        <time>2025-05-15T09:31:11Z</time>
      </trkpt>
      <trkpt lat="42.53751796670258" lon="2.622256027534604">
        <ele>713.44000000000005</ele>
        <time>2025-05-15T09:31:12Z</time>
      </trkpt>
      <trkpt lat="42.537453006953001" lon="2.622158965095878">
        <ele>713.44000000000005</ele>
        <time>2025-05-15T09:31:13Z</time>
      </trkpt>
      <trkpt lat="42.537418976426125" lon="2.622073972597718">
        <ele>712.95000000000005</ele>
        <time>2025-05-15T09:31:14Z</time>
      </trkpt>
      <trkpt lat="42.537395004183054" lon="2.621972970664501">
        <ele>712.47000000000003</ele>
        <time>2025-05-15T09:31:15Z</time>
      </trkpt>
      <trkpt lat="42.537369020283222" lon="2.621865011751652">
        <ele>711.99000000000001</ele>
        <time>2025-05-15T09:31:16Z</time>
      </trkpt>
      <trkpt lat="42.537341024726629" lon="2.62175302952528">
        <ele>711.50999999999999</ele>
        <time>2025-05-15T09:31:17Z</time>
      </trkpt>
      <trkpt lat="42.537315040826797" lon="2.621641969308257">
        <ele>711.02999999999997</ele>
        <time>2025-05-15T09:31:18Z</time>
      </trkpt>
      <trkpt lat="42.537287967279553" lon="2.621534010395408">
        <ele>710.07000000000005</ele>
        <time>2025-05-15T09:31:19Z</time>
      </trkpt>
      <trkpt lat="42.537260977551341" lon="2.621419010683894">
        <ele>709.59000000000003</ele>
        <time>2025-05-15T09:31:20Z</time>
      </trkpt>
      <trkpt lat="42.537186965346336" lon="2.62134600430727">
        <ele>709.11000000000001</ele>
        <time>2025-05-15T09:31:21Z</time>
      </trkpt>
      <trkpt lat="42.537101972848177" lon="2.621261011809111">
        <ele>708.63</ele>
        <time>2025-05-15T09:31:22Z</time>
      </trkpt>
      <trkpt lat="42.537015974521637" lon="2.62117400765419">
        <ele>708.14999999999998</ele>
        <time>2025-05-15T09:31:23Z</time>
      </trkpt>
      <trkpt lat="42.536314995959401" lon="2.620552992448211">
        <ele>704.29999999999995</ele>
        <time>2025-05-15T09:31:31Z</time>
      </trkpt>
      <trkpt lat="42.536201002076268" lon="2.620517034083605">
        <ele>703.82000000000005</ele>
        <time>2025-05-15T09:31:32Z</time>
      </trkpt>
      <trkpt lat="42.536088014021516" lon="2.620514016598463">
        <ele>703.34000000000003</ele>
        <time>2025-05-15T09:31:33Z</time>
      </trkpt>
      <trkpt lat="42.535047987475991" lon="2.620446039363742">
        <ele>698.04999999999995</ele>
        <time>2025-05-15T09:31:42Z</time>
      </trkpt>
      <trkpt lat="42.534939022734761" lon="2.620409997180104">
        <ele>697.09000000000003</ele>
        <time>2025-05-15T09:31:43Z</time>
      </trkpt>
      <trkpt lat="42.534837014973164" lon="2.620349982753396">
        <ele>696.61000000000001</ele>
        <time>2025-05-15T09:31:44Z</time>
      </trkpt>
      <trkpt lat="42.534730983898044" lon="2.620248980820179">
        <ele>696.13</ele>
        <time>2025-05-15T09:31:45Z</time>
      </trkpt>
      <trkpt lat="42.534625036641955" lon="2.620147978886962">
        <ele>695.64999999999998</ele>
        <time>2025-05-15T09:31:46Z</time>
      </trkpt>
      <trkpt lat="42.534383973106742" lon="2.619871040806174">
        <ele>694.21000000000004</ele>
        <time>2025-05-15T09:31:49Z</time>
      </trkpt>
      <trkpt lat="42.534321025013924" lon="2.619745982810855">
        <ele>693.73000000000002</ele>
        <time>2025-05-15T09:31:50Z</time>
      </trkpt>
      <trkpt lat="42.534328987821937" lon="2.619620002806187">
        <ele>693.25</ele>
        <time>2025-05-15T09:31:51Z</time>
      </trkpt>
      <trkpt lat="42.534338962286711" lon="2.619462003931403">
        <ele>692.76999999999998</ele>
        <time>2025-05-15T09:31:52Z</time>
      </trkpt>
      <trkpt lat="42.534351032227278" lon="2.619282966479659">
        <ele>692.28999999999996</ele>
        <time>2025-05-15T09:31:53Z</time>
      </trkpt>
      <trkpt lat="42.534363018348813" lon="2.619094960391522">
        <ele>691.80999999999995</ele>
        <time>2025-05-15T09:31:54Z</time>
      </trkpt>
      <trkpt lat="42.534386990591884" lon="2.618723977357149">
        <ele>690.84000000000003</ele>
        <time>2025-05-15T09:31:56Z</time>
      </trkpt>
      <trkpt lat="42.534398976713419" lon="2.61853395961225">
        <ele>690.36000000000001</ele>
        <time>2025-05-15T09:31:57Z</time>
      </trkpt>
      <trkpt lat="42.534387996420264" lon="2.618334973230958">
        <ele>689.39999999999998</ele>
        <time>2025-05-15T09:31:58Z</time>
      </trkpt>
      <trkpt lat="42.534344997256994" lon="2.618148978799582">
        <ele>688.91999999999996</ele>
        <time>2025-05-15T09:31:59Z</time>
      </trkpt>
      <trkpt lat="42.534283977001905" lon="2.617979999631643">
        <ele>688.44000000000005</ele>
        <time>2025-05-15T09:32:00Z</time>
      </trkpt>
      <trkpt lat="42.534223040565848" lon="2.617816971614957">
        <ele>687.96000000000004</ele>
        <time>2025-05-15T09:32:01Z</time>
      </trkpt>
      <trkpt lat="42.53416595980525" lon="2.617666013538837">
        <ele>687.48000000000002</ele>
        <time>2025-05-15T09:32:02Z</time>
      </trkpt>
      <trkpt lat="42.534138970077038" lon="2.617509020492435">
        <ele>687</ele>
        <time>2025-05-15T09:32:03Z</time>
      </trkpt>
      <trkpt lat="42.534134024754167" lon="2.617346998304129">
        <ele>686.03999999999996</ele>
        <time>2025-05-15T09:32:04Z</time>
      </trkpt>
      <trkpt lat="42.534161014482379" lon="2.617179024964571">
        <ele>685.08000000000004</ele>
        <time>2025-05-15T09:32:05Z</time>
      </trkpt>
      <trkpt lat="42.534189010038972" lon="2.616999987512827">
        <ele>684.60000000000002</ele>
        <time>2025-05-15T09:32:06Z</time>
      </trkpt>
      <trkpt lat="42.534220023080707" lon="2.616810975596309">
        <ele>683.63</ele>
        <time>2025-05-15T09:32:07Z</time>
      </trkpt>
      <trkpt lat="42.534251036122441" lon="2.616617018356919">
        <ele>683.14999999999998</ele>
        <time>2025-05-15T09:32:08Z</time>
      </trkpt>
      <trkpt lat="42.534381961449981" lon="2.615793999284506">
        <ele>679.78999999999996</ele>
        <time>2025-05-15T09:32:13Z</time>
      </trkpt>
      <trkpt lat="42.534372992813587" lon="2.615691991522908">
        <ele>678.83000000000004</ele>
        <time>2025-05-15T09:32:14Z</time>
      </trkpt>
      <trkpt lat="42.534330999478698" lon="2.615605993196368">
        <ele>678.35000000000002</ele>
        <time>2025-05-15T09:32:15Z</time>
      </trkpt>
      <trkpt lat="42.534272996708751" lon="2.615571040660143">
        <ele>677.87</ele>
        <time>2025-05-15T09:32:16Z</time>
      </trkpt>
      <trkpt lat="42.534194961190224" lon="2.615591995418072">
        <ele>677.38999999999999</ele>
        <time>2025-05-15T09:32:17Z</time>
      </trkpt>
      <trkpt lat="42.534114997833967" lon="2.6156319770962">
        <ele>676.41999999999996</ele>
        <time>2025-05-15T09:32:18Z</time>
      </trkpt>
      <trkpt lat="42.534018019214272" lon="2.615681011229754">
        <ele>675.94000000000005</ele>
        <time>2025-05-15T09:32:19Z</time>
      </trkpt>
      <trkpt lat="42.533912993967533" lon="2.615732979029417">
        <ele>674.98000000000002</ele>
        <time>2025-05-15T09:32:20Z</time>
      </trkpt>
      <trkpt lat="42.533790031448007" lon="2.615701965987682">
        <ele>673.53999999999996</ele>
        <time>2025-05-15T09:32:21Z</time>
      </trkpt>
      <trkpt lat="42.533721970394254" lon="2.615668019279838">
        <ele>672.58000000000004</ele>
        <time>2025-05-15T09:32:22Z</time>
      </trkpt>
      <trkpt lat="42.5336470361799" lon="2.615581015124917">
        <ele>671.62</ele>
        <time>2025-05-15T09:32:23Z</time>
      </trkpt>
      <trkpt lat="42.533558020368218" lon="2.615476995706558">
        <ele>671.13999999999999</ele>
        <time>2025-05-15T09:32:24Z</time>
      </trkpt>
      <trkpt lat="42.533456012606621" lon="2.615358978509903">
        <ele>670.65999999999997</ele>
        <time>2025-05-15T09:32:25Z</time>
      </trkpt>
      <trkpt lat="42.533341012895107" lon="2.615226041525602">
        <ele>669.70000000000005</ele>
        <time>2025-05-15T09:32:26Z</time>
      </trkpt>
      <trkpt lat="42.533221989870071" lon="2.615087991580367">
        <ele>669.22000000000003</ele>
        <time>2025-05-15T09:32:27Z</time>
      </trkpt>
      <trkpt lat="42.533075977116823" lon="2.614991012960672">
        <ele>668.25</ele>
        <time>2025-05-15T09:32:28Z</time>
      </trkpt>
      <trkpt lat="42.532537020742893" lon="2.614671997725964">
        <ele>663.92999999999995</ele>
        <time>2025-05-15T09:32:32Z</time>
      </trkpt>
      <trkpt lat="42.532431995496154" lon="2.614574013277888">
        <ele>663.45000000000005</ele>
        <time>2025-05-15T09:32:33Z</time>
      </trkpt>
      <trkpt lat="42.532328981906176" lon="2.614453984424472">
        <ele>662.97000000000003</ele>
        <time>2025-05-15T09:32:34Z</time>
      </trkpt>
      <trkpt lat="42.53199596889317" lon="2.613916033878923">
        <ele>661.03999999999996</ele>
        <time>2025-05-15T09:32:38Z</time>
      </trkpt>
      <trkpt lat="42.531933020800352" lon="2.613768009468913">
        <ele>660.55999999999995</ele>
        <time>2025-05-15T09:32:39Z</time>
      </trkpt>
      <trkpt lat="42.531904019415379" lon="2.613588972017169">
        <ele>659.60000000000002</ele>
        <time>2025-05-15T09:32:40Z</time>
      </trkpt>
      <trkpt lat="42.53190997056663" lon="2.613394008949399">
        <ele>659.12</ele>
        <time>2025-05-15T09:32:41Z</time>
      </trkpt>
      <trkpt lat="42.53192899748683" lon="2.613194016739726">
        <ele>658.15999999999997</ele>
        <time>2025-05-15T09:32:42Z</time>
      </trkpt>
      <trkpt lat="42.531968979164958" lon="2.612982960417867">
        <ele>657.67999999999995</ele>
        <time>2025-05-15T09:32:43Z</time>
      </trkpt>
      <trkpt lat="42.532133013010025" lon="2.612375020980835">
        <ele>654.79999999999995</ele>
        <time>2025-05-15T09:32:46Z</time>
      </trkpt>
      <trkpt lat="42.532181963324547" lon="2.612191960215569">
        <ele>654.30999999999995</ele>
        <time>2025-05-15T09:32:47Z</time>
      </trkpt>
      <trkpt lat="42.532390002161264" lon="2.61141998693347">
        <ele>650.47000000000003</ele>
        <time>2025-05-15T09:32:52Z</time>
      </trkpt>
      <trkpt lat="42.532362006604671" lon="2.611297024413943">
        <ele>649.99000000000001</ele>
        <time>2025-05-15T09:32:53Z</time>
      </trkpt>
      <trkpt lat="42.532325964421034" lon="2.611195016652346">
        <ele>649.50999999999999</ele>
        <time>2025-05-15T09:32:54Z</time>
      </trkpt>
      <trkpt lat="42.532264022156596" lon="2.61109996587038">
        <ele>649.02999999999997</ele>
        <time>2025-05-15T09:32:55Z</time>
      </trkpt>
      <trkpt lat="42.532197972759604" lon="2.610997036099434">
        <ele>648.54999999999995</ele>
        <time>2025-05-15T09:32:56Z</time>
      </trkpt>
      <trkpt lat="42.532128989696503" lon="2.610891005024314">
        <ele>648.07000000000005</ele>
        <time>2025-05-15T09:32:57Z</time>
      </trkpt>
      <trkpt lat="42.53208196721971" lon="2.61075303889811">
        <ele>647.59000000000003</ele>
        <time>2025-05-15T09:32:58Z</time>
      </trkpt>
      <trkpt lat="42.532010972499847" lon="2.610480962321162">
        <ele>646.62</ele>
        <time>2025-05-15T09:33:00Z</time>
      </trkpt>
      <trkpt lat="42.531946012750268" lon="2.610359005630016">
        <ele>645.65999999999997</ele>
        <time>2025-05-15T09:33:01Z</time>
      </trkpt>
      <trkpt lat="42.531832018867135" lon="2.610325980931521">
        <ele>644.70000000000005</ele>
        <time>2025-05-15T09:33:02Z</time>
      </trkpt>
      <trkpt lat="42.531760018318892" lon="2.610371997579932">
        <ele>644.70000000000005</ele>
        <time>2025-05-15T09:33:03Z</time>
      </trkpt>
      <trkpt lat="42.531663039699197" lon="2.610434023663402">
        <ele>644.22000000000003</ele>
        <time>2025-05-15T09:33:04Z</time>
      </trkpt>
      <trkpt lat="42.531572012230754" lon="2.610493032261729">
        <ele>644.22000000000003</ele>
        <time>2025-05-15T09:33:05Z</time>
      </trkpt>
      <trkpt lat="42.531503029167652" lon="2.610562015324831">
        <ele>643.74000000000001</ele>
        <time>2025-05-15T09:33:06Z</time>
      </trkpt>
      <trkpt lat="42.531446032226086" lon="2.610663017258048">
        <ele>643.74000000000001</ele>
        <time>2025-05-15T09:33:07Z</time>
      </trkpt>
      <trkpt lat="42.531446032226086" lon="2.610763013362885">
        <ele>643.74000000000001</ele>
        <time>2025-05-15T09:33:08Z</time>
      </trkpt>
      <trkpt lat="42.531446032226086" lon="2.610868038609624">
        <ele>643.25999999999999</ele>
        <time>2025-05-15T09:33:09Z</time>
      </trkpt>
      <trkpt lat="42.531439997255802" lon="2.610986977815628">
        <ele>642.77999999999997</ele>
        <time>2025-05-15T09:33:10Z</time>
      </trkpt>
      <trkpt lat="42.531402027234435" lon="2.61109996587038">
        <ele>642.77999999999997</ele>
        <time>2025-05-15T09:33:11Z</time>
      </trkpt>
      <trkpt lat="42.531332038342953" lon="2.611202979460359">
        <ele>641.82000000000005</ele>
        <time>2025-05-15T09:33:12Z</time>
      </trkpt>
      <trkpt lat="42.531236987560987" lon="2.611277997493744">
        <ele>640.86000000000001</ele>
        <time>2025-05-15T09:33:13Z</time>
      </trkpt>
      <trkpt lat="42.531117964535952" lon="2.611340023577213">
        <ele>639.88999999999999</ele>
        <time>2025-05-15T09:33:14Z</time>
      </trkpt>
      <trkpt lat="42.530734995380044" lon="2.611530963331461">
        <ele>637.00999999999999</ele>
        <time>2025-05-15T09:33:17Z</time>
      </trkpt>
      <trkpt lat="42.530479012057185" lon="2.611520988866687">
        <ele>636.04999999999995</ele>
        <time>2025-05-15T09:33:19Z</time>
      </trkpt>
      <trkpt lat="42.529814997687936" lon="2.611399032175541">
        <ele>634.13</ele>
        <time>2025-05-15T09:33:24Z</time>
      </trkpt>
      <trkpt lat="42.529732016846538" lon="2.61133499443531">
        <ele>633.64999999999998</ele>
        <time>2025-05-15T09:33:25Z</time>
      </trkpt>
      <trkpt lat="42.529650963842869" lon="2.61127196252346">
        <ele>633.16999999999996</ele>
        <time>2025-05-15T09:33:26Z</time>
      </trkpt>
      <trkpt lat="42.529577035456896" lon="2.611213037744165">
        <ele>632.67999999999995</ele>
        <time>2025-05-15T09:33:27Z</time>
      </trkpt>
      <trkpt lat="42.529514003545046" lon="2.611165009438992">
        <ele>632.20000000000005</ele>
        <time>2025-05-15T09:33:28Z</time>
      </trkpt>
      <trkpt lat="42.529465975239873" lon="2.611127961426973">
        <ele>631.72000000000003</ele>
        <time>2025-05-15T09:33:29Z</time>
      </trkpt>
      <trkpt lat="42.529429011046886" lon="2.611098038032651">
        <ele>630.75999999999999</ele>
        <time>2025-05-15T09:33:31Z</time>
      </trkpt>
      <trkpt lat="42.529429011046886" lon="2.611098038032651">
        <ele>630.27999999999997</ele>
        <time>2025-05-15T09:33:32Z</time>
      </trkpt>
      <trkpt lat="42.529429011046886" lon="2.611098038032651">
        <ele>628.84000000000003</ele>
        <time>2025-05-15T09:33:43Z</time>
      </trkpt>
      <trkpt lat="42.529376037418842" lon="2.61111899279058">
        <ele>628.84000000000003</ele>
        <time>2025-05-15T09:33:45Z</time>
      </trkpt>
      <trkpt lat="42.529376037418842" lon="2.61111899279058">
        <ele>627.39999999999998</ele>
        <time>2025-05-15T09:33:58Z</time>
      </trkpt>
      <trkpt lat="42.529401015490294" lon="2.611454017460346">
        <ele>685.08000000000004</ele>
        <time>2025-05-15T09:39:27Z</time>
      </trkpt>
      <trkpt lat="42.529232036322355" lon="2.61118202470243">
        <ele>633.16999999999996</ele>
        <time>2025-05-15T09:40:09Z</time>
      </trkpt>
      <trkpt lat="42.5292659830302" lon="2.61118495836854">
        <ele>637.49000000000001</ele>
        <time>2025-05-15T09:41:01Z</time>
      </trkpt>
      <trkpt lat="42.529227007180452" lon="2.611166015267372">
        <ele>638.92999999999995</ele>
        <time>2025-05-15T09:41:18Z</time>
      </trkpt>
      <trkpt lat="42.529277969151735" lon="2.61124899610877">
        <ele>639.88999999999999</ele>
        <time>2025-05-15T09:41:21Z</time>
      </trkpt>
      <trkpt lat="42.529382994398475" lon="2.612003032118082">
        <ele>639.88999999999999</ele>
        <time>2025-05-15T09:41:28Z</time>
      </trkpt>
      <trkpt lat="42.529438985511661" lon="2.61303199455142">
        <ele>637.00999999999999</ele>
        <time>2025-05-15T09:41:35Z</time>
      </trkpt>
      <trkpt lat="42.529250979423523" lon="2.613803967833519">
        <ele>635.57000000000005</ele>
        <time>2025-05-15T09:41:40Z</time>
      </trkpt>
      <trkpt lat="42.529189037159085" lon="2.613926008343697">
        <ele>634.61000000000001</ele>
        <time>2025-05-15T09:41:41Z</time>
      </trkpt>
      <trkpt lat="42.529103038832545" lon="2.61404000222683">
        <ele>633.64999999999998</ele>
        <time>2025-05-15T09:41:42Z</time>
      </trkpt>
      <trkpt lat="42.529013017192483" lon="2.614157013595104">
        <ele>632.67999999999995</ele>
        <time>2025-05-15T09:41:43Z</time>
      </trkpt>
      <trkpt lat="42.528916038572788" lon="2.614264972507954">
        <ele>631.72000000000003</ele>
        <time>2025-05-15T09:41:44Z</time>
      </trkpt>
      <trkpt lat="42.528572967275977" lon="2.614553980529308">
        <ele>626.91999999999996</ele>
        <time>2025-05-15T09:41:47Z</time>
      </trkpt>
      <trkpt lat="42.52844899892807" lon="2.6146200299263">
        <ele>624.99000000000001</ele>
        <time>2025-05-15T09:41:48Z</time>
      </trkpt>
      <trkpt lat="42.528318995609879" lon="2.614679038524628">
        <ele>624.02999999999997</ele>
        <time>2025-05-15T09:41:49Z</time>
      </trkpt>
      <trkpt lat="42.528182035312057" lon="2.614708039909601">
        <ele>621.63</ele>
        <time>2025-05-15T09:41:50Z</time>
      </trkpt>
      <trkpt lat="42.52803904004395" lon="2.614736035466194">
        <ele>620.19000000000005</ele>
        <time>2025-05-15T09:41:51Z</time>
      </trkpt>
      <trkpt lat="42.527766963467002" lon="2.614791020751">
        <ele>617.77999999999997</ele>
        <time>2025-05-15T09:41:53Z</time>
      </trkpt>
      <trkpt lat="42.527630003169179" lon="2.614804012700915">
        <ele>616.82000000000005</ele>
        <time>2025-05-15T09:41:54Z</time>
      </trkpt>
      <trkpt lat="42.526860041543841" lon="2.614690018817782">
        <ele>610.57000000000005</ele>
        <time>2025-05-15T09:42:00Z</time>
      </trkpt>
      <trkpt lat="42.526781000196934" lon="2.614732012152672">
        <ele>610.09000000000003</ele>
        <time>2025-05-15T09:42:01Z</time>
      </trkpt>
      <trkpt lat="42.526698019355536" lon="2.614778028801084">
        <ele>609.13</ele>
        <time>2025-05-15T09:42:02Z</time>
      </trkpt>
      <trkpt lat="42.526377998292446" lon="2.614951031282544">
        <ele>607.21000000000004</ele>
        <time>2025-05-15T09:42:05Z</time>
      </trkpt>
      <trkpt lat="42.526270039379597" lon="2.614967040717602">
        <ele>606.25</ele>
        <time>2025-05-15T09:42:06Z</time>
      </trkpt>
      <trkpt lat="42.525944989174604" lon="2.614927981048822">
        <ele>605.28999999999996</ele>
        <time>2025-05-15T09:42:09Z</time>
      </trkpt>
      <trkpt lat="42.525826971977949" lon="2.614871989935637">
        <ele>605.28999999999996</ele>
        <time>2025-05-15T09:42:10Z</time>
      </trkpt>
      <trkpt lat="42.5256999861449" lon="2.614810969680548">
        <ele>605.28999999999996</ele>
        <time>2025-05-15T09:42:11Z</time>
      </trkpt>
      <trkpt lat="42.525552967563272" lon="2.614754978567362">
        <ele>604.80999999999995</ele>
        <time>2025-05-15T09:42:12Z</time>
      </trkpt>
      <trkpt lat="42.525415001437068" lon="2.614722959697247">
        <ele>603.85000000000002</ele>
        <time>2025-05-15T09:42:13Z</time>
      </trkpt>
      <trkpt lat="42.525281980633736" lon="2.614692030474544">
        <ele>602.88</ele>
        <time>2025-05-15T09:42:14Z</time>
      </trkpt>
      <trkpt lat="42.525050975382328" lon="2.614638973027468">
        <ele>601.91999999999996</ele>
        <time>2025-05-15T09:42:16Z</time>
      </trkpt>
      <trkpt lat="42.524974029511213" lon="2.614538976922631">
        <ele>601.44000000000005</ele>
        <time>2025-05-15T09:42:17Z</time>
      </trkpt>
      <trkpt lat="42.524889037013054" lon="2.61442800052464">
        <ele>600.96000000000004</ele>
        <time>2025-05-15T09:42:18Z</time>
      </trkpt>
      <trkpt lat="42.52479599788785" lon="2.614306965842843">
        <ele>600</ele>
        <time>2025-05-15T09:42:19Z</time>
      </trkpt>
      <trkpt lat="42.524688960984349" lon="2.61416899971664">
        <ele>599.03999999999996</ele>
        <time>2025-05-15T09:42:20Z</time>
      </trkpt>
      <trkpt lat="42.524458961561322" lon="2.613906981423497">
        <ele>597.12</ele>
        <time>2025-05-15T09:42:22Z</time>
      </trkpt>
      <trkpt lat="42.524267015978694" lon="2.613660972565413">
        <ele>596.14999999999998</ele>
        <time>2025-05-15T09:42:24Z</time>
      </trkpt>
      <trkpt lat="42.524236002936959" lon="2.613586960360408">
        <ele>595.66999999999996</ele>
        <time>2025-05-15T09:42:25Z</time>
      </trkpt>
      <trkpt lat="42.524181017652154" lon="2.613350003957748">
        <ele>595.19000000000005</ele>
        <time>2025-05-15T09:42:26Z</time>
      </trkpt>
      <trkpt lat="42.524170959368348" lon="2.613196028396487">
        <ele>594.71000000000004</ele>
        <time>2025-05-15T09:42:27Z</time>
      </trkpt>
      <trkpt lat="42.524170959368348" lon="2.612992012873292">
        <ele>593.75</ele>
        <time>2025-05-15T09:42:28Z</time>
      </trkpt>
      <trkpt lat="42.524175988510251" lon="2.612791014835239">
        <ele>592.78999999999996</ele>
        <time>2025-05-15T09:42:29Z</time>
      </trkpt>
      <trkpt lat="42.524193003773689" lon="2.61217100545764">
        <ele>588.95000000000005</ele>
        <time>2025-05-15T09:42:32Z</time>
      </trkpt>
      <trkpt lat="42.524144975468516" lon="2.611980987712741">
        <ele>587.5</ele>
        <time>2025-05-15T09:42:33Z</time>
      </trkpt>
      <trkpt lat="42.524107005447149" lon="2.61182801797986">
        <ele>586.05999999999995</ele>
        <time>2025-05-15T09:42:34Z</time>
      </trkpt>
      <trkpt lat="42.524021007120609" lon="2.611731039360166">
        <ele>584.62</ele>
        <time>2025-05-15T09:42:35Z</time>
      </trkpt>
      <trkpt lat="42.523935008794069" lon="2.61163498274982">
        <ele>582.70000000000005</ele>
        <time>2025-05-15T09:42:36Z</time>
      </trkpt>
      <trkpt lat="42.523811040446162" lon="2.61159298941493">
        <ele>580.28999999999996</ele>
        <time>2025-05-15T09:42:37Z</time>
      </trkpt>
      <trkpt lat="42.523709032684565" lon="2.61157002300024">
        <ele>577.88999999999999</ele>
        <time>2025-05-15T09:42:38Z</time>
      </trkpt>
      <trkpt lat="42.52363502047956" lon="2.61157002300024">
        <ele>576.45000000000005</ele>
        <time>2025-05-15T09:42:39Z</time>
      </trkpt>
      <trkpt lat="42.523560002446175" lon="2.611633976921439">
        <ele>575.97000000000003</ele>
        <time>2025-05-15T09:42:40Z</time>
      </trkpt>
      <trkpt lat="42.523484984412789" lon="2.61169902049005">
        <ele>575.49000000000001</ele>
        <time>2025-05-15T09:42:41Z</time>
      </trkpt>
      <trkpt lat="42.523457994684577" lon="2.611831035465002">
        <ele>575.00999999999999</ele>
        <time>2025-05-15T09:42:42Z</time>
      </trkpt>
      <trkpt lat="42.523427987471223" lon="2.611985011026263">
        <ele>575.00999999999999</ele>
        <time>2025-05-15T09:42:43Z</time>
      </trkpt>
      <trkpt lat="42.523393034934998" lon="2.612156001850963">
        <ele>574.52999999999997</ele>
        <time>2025-05-15T09:42:44Z</time>
      </trkpt>
      <trkpt lat="42.52335699275136" lon="2.612337972968817">
        <ele>574.52999999999997</ele>
        <time>2025-05-15T09:42:45Z</time>
      </trkpt>
      <trkpt lat="42.523320028558373" lon="2.612523967400193">
        <ele>574.52999999999997</ele>
        <time>2025-05-15T09:42:46Z</time>
      </trkpt>
      <trkpt lat="42.523282980546355" lon="2.612705016508699">
        <ele>574.03999999999996</ele>
        <time>2025-05-15T09:42:47Z</time>
      </trkpt>
      <trkpt lat="42.522860029712319" lon="2.613490987569094">
        <ele>573.08000000000004</ele>
        <time>2025-05-15T09:42:52Z</time>
      </trkpt>
      <trkpt lat="42.522809989750385" lon="2.613683016970754">
        <ele>573.08000000000004</ele>
        <time>2025-05-15T09:42:53Z</time>
      </trkpt>
      <trkpt lat="42.522761961445212" lon="2.613870017230511">
        <ele>573.08000000000004</ele>
        <time>2025-05-15T09:42:54Z</time>
      </trkpt>
      <trkpt lat="42.522718040272593" lon="2.61404000222683">
        <ele>572.60000000000002</ele>
        <time>2025-05-15T09:42:55Z</time>
      </trkpt>
      <trkpt lat="42.522690966725349" lon="2.614229014143348">
        <ele>572.12</ele>
        <time>2025-05-15T09:42:56Z</time>
      </trkpt>
      <trkpt lat="42.522702030837536" lon="2.614420959725976">
        <ele>571.63999999999999</ele>
        <time>2025-05-15T09:42:57Z</time>
      </trkpt>
      <trkpt lat="42.522747041657567" lon="2.61457996442914">
        <ele>570.20000000000005</ele>
        <time>2025-05-15T09:42:58Z</time>
      </trkpt>
      <trkpt lat="42.522796997800469" lon="2.614757996052504">
        <ele>568.75999999999999</ele>
        <time>2025-05-15T09:42:59Z</time>
      </trkpt>
      <trkpt lat="42.523010987788439" lon="2.615849990397692">
        <ele>558.65999999999997</ele>
        <time>2025-05-15T09:43:05Z</time>
      </trkpt>
      <trkpt lat="42.523034038022161" lon="2.615992985665798">
        <ele>557.70000000000005</ele>
        <time>2025-05-15T09:43:06Z</time>
      </trkpt>
      <trkpt lat="42.523020962253213" lon="2.616152996197343">
        <ele>556.25999999999999</ele>
        <time>2025-05-15T09:43:07Z</time>
      </trkpt>
      <trkpt lat="42.522991038858891" lon="2.616327004507184">
        <ele>555.29999999999995</ele>
        <time>2025-05-15T09:43:08Z</time>
      </trkpt>
      <trkpt lat="42.522945022210479" lon="2.616496989503503">
        <ele>553.86000000000001</ele>
        <time>2025-05-15T09:43:09Z</time>
      </trkpt>
      <trkpt lat="42.522901017218828" lon="2.616658005863428">
        <ele>552.40999999999997</ele>
        <time>2025-05-15T09:43:10Z</time>
      </trkpt>
      <trkpt lat="42.522834967821836" lon="2.616799995303154">
        <ele>550.49000000000001</ele>
        <time>2025-05-15T09:43:11Z</time>
      </trkpt>
      <trkpt lat="42.522766990587115" lon="2.616909965872765">
        <ele>549.04999999999995</ele>
        <time>2025-05-15T09:43:12Z</time>
      </trkpt>
      <trkpt lat="42.522657020017505" lon="2.617033012211323">
        <ele>546.64999999999998</ele>
        <time>2025-05-15T09:43:13Z</time>
      </trkpt>
      <trkpt lat="42.522537996992469" lon="2.617107024416328">
        <ele>544.24000000000001</ele>
        <time>2025-05-15T09:43:14Z</time>
      </trkpt>
      <trkpt lat="42.522405982017517" lon="2.617187993600965">
        <ele>541.36000000000001</ele>
        <time>2025-05-15T09:43:15Z</time>
      </trkpt>
      <trkpt lat="42.522160978987813" lon="2.617321014404297">
        <ele>537.99000000000001</ele>
        <time>2025-05-15T09:43:17Z</time>
      </trkpt>
      <trkpt lat="42.522018989548087" lon="2.617346998304129">
        <ele>536.54999999999995</ele>
        <time>2025-05-15T09:43:18Z</time>
      </trkpt>
      <trkpt lat="42.521725036203861" lon="2.617359990254045">
        <ele>533.66999999999996</ele>
        <time>2025-05-15T09:43:20Z</time>
      </trkpt>
      <trkpt lat="42.52144399099052" lon="2.617443976923823">
        <ele>530.78999999999996</ele>
        <time>2025-05-15T09:43:22Z</time>
      </trkpt>
      <trkpt lat="42.521156994625926" lon="2.61756501160562">
        <ele>528.38</ele>
        <time>2025-05-15T09:43:24Z</time>
      </trkpt>
      <trkpt lat="42.520887013524771" lon="2.617760980501771">
        <ele>526.46000000000004</ele>
        <time>2025-05-15T09:43:26Z</time>
      </trkpt>
      <trkpt lat="42.520771007984877" lon="2.61784496717155">
        <ele>525.5</ele>
        <time>2025-05-15T09:43:27Z</time>
      </trkpt>
      <trkpt lat="42.520677968859673" lon="2.617920991033316">
        <ele>524.53999999999996</ele>
        <time>2025-05-15T09:43:28Z</time>
      </trkpt>
      <trkpt lat="42.520610997453332" lon="2.618001960217953">
        <ele>523.09000000000003</ele>
        <time>2025-05-15T09:43:29Z</time>
      </trkpt>
      <trkpt lat="42.520571015775204" lon="2.61808100156486">
        <ele>521.64999999999998</ele>
        <time>2025-05-15T09:43:30Z</time>
      </trkpt>
      <trkpt lat="42.520546037703753" lon="2.618159037083387">
        <ele>520.69000000000005</ele>
        <time>2025-05-15T09:43:31Z</time>
      </trkpt>
      <trkpt lat="42.520577972754836" lon="2.618234977126122">
        <ele>519.25</ele>
        <time>2025-05-15T09:43:32Z</time>
      </trkpt>
      <trkpt lat="42.520618960261345" lon="2.61831502430141">
        <ele>518.28999999999996</ele>
        <time>2025-05-15T09:43:33Z</time>
      </trkpt>
      <trkpt lat="42.52071401104331" lon="2.618344025686383">
        <ele>517.80999999999995</ele>
        <time>2025-05-15T09:43:34Z</time>
      </trkpt>
      <trkpt lat="42.520806966349483" lon="2.618328016251326">
        <ele>516.85000000000002</ele>
        <time>2025-05-15T09:43:35Z</time>
      </trkpt>
      <trkpt lat="42.520910985767841" lon="2.618309995159507">
        <ele>516.37</ele>
        <time>2025-05-15T09:43:36Z</time>
      </trkpt>
      <trkpt lat="42.521029002964497" lon="2.618289962410927">
        <ele>515.39999999999998</ele>
        <time>2025-05-15T09:43:37Z</time>
      </trkpt>
      <trkpt lat="42.521159006282687" lon="2.618266995996237">
        <ele>514.91999999999996</ele>
        <time>2025-05-15T09:43:38Z</time>
      </trkpt>
      <trkpt lat="42.52129596658051" lon="2.618244029581547">
        <ele>514.44000000000005</ele>
        <time>2025-05-15T09:43:39Z</time>
      </trkpt>
      <trkpt lat="42.521725036203861" lon="2.618372021242976">
        <ele>512.51999999999998</ele>
        <time>2025-05-15T09:43:42Z</time>
      </trkpt>
      <trkpt lat="42.522031981498003" lon="2.618632027879357">
        <ele>511.07999999999998</ele>
        <time>2025-05-15T09:43:45Z</time>
      </trkpt>
      <trkpt lat="42.522106999531388" lon="2.618755996227264">
        <ele>510.60000000000002</ele>
        <time>2025-05-15T09:43:46Z</time>
      </trkpt>
      <trkpt lat="42.522177994251251" lon="2.618873007595539">
        <ele>510.12</ele>
        <time>2025-05-15T09:43:47Z</time>
      </trkpt>
      <trkpt lat="42.52223901450634" lon="2.618973003700376">
        <ele>509.63999999999999</ele>
        <time>2025-05-15T09:43:48Z</time>
      </trkpt>
      <trkpt lat="42.522313026711345" lon="2.619080962613225">
        <ele>509.63999999999999</ele>
        <time>2025-05-15T09:43:49Z</time>
      </trkpt>
      <trkpt lat="42.522415034472942" lon="2.619080962613225">
        <ele>509.16000000000003</ele>
        <time>2025-05-15T09:43:50Z</time>
      </trkpt>
      <trkpt lat="42.522534979507327" lon="2.619080962613225">
        <ele>508.19</ele>
        <time>2025-05-15T09:43:51Z</time>
      </trkpt>
      <trkpt lat="42.522657020017505" lon="2.619080962613225">
        <ele>507.23000000000002</ele>
        <time>2025-05-15T09:43:52Z</time>
      </trkpt>
      <trkpt lat="42.522781994193792" lon="2.619080962613225">
        <ele>505.79000000000002</ele>
        <time>2025-05-15T09:43:53Z</time>
      </trkpt>
      <trkpt lat="42.522917026653886" lon="2.619080962613225">
        <ele>504.35000000000002</ele>
        <time>2025-05-15T09:43:54Z</time>
      </trkpt>
      <trkpt lat="42.523034038022161" lon="2.619080962613225">
        <ele>502.91000000000003</ele>
        <time>2025-05-15T09:43:55Z</time>
      </trkpt>
      <trkpt lat="42.523292033001781" lon="2.618994964286685">
        <ele>501.45999999999998</ele>
        <time>2025-05-15T09:43:57Z</time>
      </trkpt>
      <trkpt lat="42.523438967764378" lon="2.618827996775508">
        <ele>501.45999999999998</ele>
        <time>2025-05-15T09:43:58Z</time>
      </trkpt>
      <trkpt lat="42.523551033809781" lon="2.61870302259922">
        <ele>501.94999999999999</ele>
        <time>2025-05-15T09:43:59Z</time>
      </trkpt>
      <trkpt lat="42.523870971053839" lon="2.618479980155826">
        <ele>501.45999999999998</ele>
        <time>2025-05-15T09:44:02Z</time>
      </trkpt>
      <trkpt lat="42.524049002677202" lon="2.61855399236083">
        <ele>501.45999999999998</ele>
        <time>2025-05-15T09:44:03Z</time>
      </trkpt>
      <trkpt lat="42.524127960205078" lon="2.618587017059326">
        <ele>501.45999999999998</ele>
        <time>2025-05-15T09:44:04Z</time>
      </trkpt>
      <trkpt lat="42.524191997945309" lon="2.618676032871008">
        <ele>501.45999999999998</ele>
        <time>2025-05-15T09:44:05Z</time>
      </trkpt>
      <trkpt lat="42.524263998493552" lon="2.618776028975844">
        <ele>500.98000000000002</ele>
        <time>2025-05-15T09:44:06Z</time>
      </trkpt>
      <trkpt lat="42.524341028183699" lon="2.618883987888694">
        <ele>500.98000000000002</ele>
        <time>2025-05-15T09:44:07Z</time>
      </trkpt>
      <trkpt lat="42.524361982941628" lon="2.618998987600207">
        <ele>500.98000000000002</ele>
        <time>2025-05-15T09:44:08Z</time>
      </trkpt>
      <trkpt lat="42.52438997849822" lon="2.619157992303371">
        <ele>500.98000000000002</ele>
        <time>2025-05-15T09:44:09Z</time>
      </trkpt>
      <trkpt lat="42.524414034560323" lon="2.619295958429575">
        <ele>500.98000000000002</ele>
        <time>2025-05-15T09:44:10Z</time>
      </trkpt>
      <trkpt lat="42.524442030116916" lon="2.619419004768133">
        <ele>500.98000000000002</ele>
        <time>2025-05-15T09:44:11Z</time>
      </trkpt>
      <trkpt lat="42.5245619751513" lon="2.619577003642917">
        <ele>500.98000000000002</ele>
        <time>2025-05-15T09:44:12Z</time>
      </trkpt>
      <trkpt lat="42.524642022326589" lon="2.619581026956439">
        <ele>500.98000000000002</ele>
        <time>2025-05-15T09:44:13Z</time>
      </trkpt>
      <trkpt lat="42.52473103813827" lon="2.61958597227931">
        <ele>500.98000000000002</ele>
        <time>2025-05-15T09:44:14Z</time>
      </trkpt>
      <trkpt lat="42.524823993444443" lon="2.619589995592833">
        <ele>500.5</ele>
        <time>2025-05-15T09:44:15Z</time>
      </trkpt>
      <trkpt lat="42.524921977892518" lon="2.619596030563116">
        <ele>500.01999999999998</ele>
        <time>2025-05-15T09:44:16Z</time>
      </trkpt>
      <trkpt lat="42.524981992319226" lon="2.619638023898006">
        <ele>499.54000000000002</ele>
        <time>2025-05-15T09:44:17Z</time>
      </trkpt>
      <trkpt lat="42.525099003687501" lon="2.619719998911023">
        <ele>499.06</ele>
        <time>2025-05-15T09:44:18Z</time>
      </trkpt>
      <trkpt lat="42.525223977863789" lon="2.619808008894324">
        <ele>499.06</ele>
        <time>2025-05-15T09:44:19Z</time>
      </trkpt>
      <trkpt lat="42.525458000600338" lon="2.61997195892036">
        <ele>498.10000000000002</ele>
        <time>2025-05-15T09:44:21Z</time>
      </trkpt>
      <trkpt lat="42.525674002245069" lon="2.620198018848896">
        <ele>497.13999999999999</ele>
        <time>2025-05-15T09:44:23Z</time>
      </trkpt>
      <trkpt lat="42.52576301805675" lon="2.620299020782113">
        <ele>497.13999999999999</ele>
        <time>2025-05-15T09:44:24Z</time>
      </trkpt>
      <trkpt lat="42.525884974747896" lon="2.620362974703312">
        <ele>496.66000000000003</ele>
        <time>2025-05-15T09:44:25Z</time>
      </trkpt>
      <trkpt lat="42.525968039408326" lon="2.62035601772368">
        <ele>496.66000000000003</ele>
        <time>2025-05-15T09:44:26Z</time>
      </trkpt>
      <trkpt lat="42.526049008592963" lon="2.620348976925015">
        <ele>496.66000000000003</ele>
        <time>2025-05-15T09:44:27Z</time>
      </trkpt>
      <trkpt lat="42.526147998869419" lon="2.620339002460241">
        <ele>496.66000000000003</ele>
        <time>2025-05-15T09:44:28Z</time>
      </trkpt>
      <trkpt lat="42.526241960003972" lon="2.620329027995467">
        <ele>496.18000000000001</ele>
        <time>2025-05-15T09:44:29Z</time>
      </trkpt>
      <trkpt lat="42.526325024664402" lon="2.620360963046551">
        <ele>495.69999999999999</ele>
        <time>2025-05-15T09:44:30Z</time>
      </trkpt>
      <trkpt lat="42.526424014940858" lon="2.620432041585445">
        <ele>495.22000000000003</ele>
        <time>2025-05-15T09:44:31Z</time>
      </trkpt>
      <trkpt lat="42.526486041024327" lon="2.620524996891618">
        <ele>494.74000000000001</ele>
        <time>2025-05-15T09:44:32Z</time>
      </trkpt>
      <trkpt lat="42.52653599716723" lon="2.620687019079924">
        <ele>494.74000000000001</ele>
        <time>2025-05-15T09:44:33Z</time>
      </trkpt>
      <trkpt lat="42.526574973016977" lon="2.6208730135113">
        <ele>494.25999999999999</ele>
        <time>2025-05-15T09:44:34Z</time>
      </trkpt>
      <trkpt lat="42.526615960523486" lon="2.621073005720973">
        <ele>494.25999999999999</ele>
        <time>2025-05-15T09:44:35Z</time>
      </trkpt>
      <trkpt lat="42.526648985221982" lon="2.621280960738659">
        <ele>494.25999999999999</ele>
        <time>2025-05-15T09:44:36Z</time>
      </trkpt>
      <trkpt lat="42.526670023798943" lon="2.621476007625461">
        <ele>494.25999999999999</ele>
        <time>2025-05-15T09:44:37Z</time>
      </trkpt>
      <trkpt lat="42.526705982163548" lon="2.62166895903647">
        <ele>493.76999999999998</ele>
        <time>2025-05-15T09:44:38Z</time>
      </trkpt>
      <trkpt lat="42.526763984933496" lon="2.621853025630117">
        <ele>493.76999999999998</ele>
        <time>2025-05-15T09:44:39Z</time>
      </trkpt>
      <trkpt lat="42.5270089879632" lon="2.622593985870481">
        <ele>494.74000000000001</ele>
        <time>2025-05-15T09:44:43Z</time>
      </trkpt>
      <trkpt lat="42.527042012661695" lon="2.622769000008702">
        <ele>495.69999999999999</ele>
        <time>2025-05-15T09:44:44Z</time>
      </trkpt>
      <trkpt lat="42.52702902071178" lon="2.622961029410362">
        <ele>496.18000000000001</ele>
        <time>2025-05-15T09:44:45Z</time>
      </trkpt>
      <trkpt lat="42.527015022933483" lon="2.623159009963274">
        <ele>497.13999999999999</ele>
        <time>2025-05-15T09:44:46Z</time>
      </trkpt>
      <trkpt lat="42.527001025155187" lon="2.62336403131485">
        <ele>497.62</ele>
        <time>2025-05-15T09:44:47Z</time>
      </trkpt>
      <trkpt lat="42.526937993243337" lon="2.623782958835363">
        <ele>498.57999999999998</ele>
        <time>2025-05-15T09:44:49Z</time>
      </trkpt>
      <trkpt lat="42.526885019615293" lon="2.623971970751882">
        <ele>499.54000000000002</ele>
        <time>2025-05-15T09:44:50Z</time>
      </trkpt>
      <trkpt lat="42.526765996590257" lon="2.624255027621985">
        <ele>500.5</ele>
        <time>2025-05-15T09:44:52Z</time>
      </trkpt>
      <trkpt lat="42.526695001870394" lon="2.624386958777905">
        <ele>501.45999999999998</ele>
        <time>2025-05-15T09:44:53Z</time>
      </trkpt>
      <trkpt lat="42.526583019644022" lon="2.624469017609954">
        <ele>502.43000000000001</ele>
        <time>2025-05-15T09:44:54Z</time>
      </trkpt>
      <trkpt lat="42.52647397108376" lon="2.624490978196263">
        <ele>503.87</ele>
        <time>2025-05-15T09:44:55Z</time>
      </trkpt>
      <trkpt lat="42.526372969150543" lon="2.624519979581237">
        <ele>505.31</ele>
        <time>2025-05-15T09:44:56Z</time>
      </trkpt>
      <trkpt lat="42.526291999965906" lon="2.624653000384569">
        <ele>506.75</ele>
        <time>2025-05-15T09:44:57Z</time>
      </trkpt>
      <trkpt lat="42.526275990530849" lon="2.624807981774211">
        <ele>507.70999999999998</ele>
        <time>2025-05-15T09:44:58Z</time>
      </trkpt>
      <trkpt lat="42.526260986924171" lon="2.624960029497743">
        <ele>508.67000000000002</ele>
        <time>2025-05-15T09:44:59Z</time>
      </trkpt>
      <trkpt lat="42.526242965832353" lon="2.625134037807584">
        <ele>509.63999999999999</ele>
        <time>2025-05-15T09:45:00Z</time>
      </trkpt>
      <trkpt lat="42.526222011074424" lon="2.625336963683367">
        <ele>510.12</ele>
        <time>2025-05-15T09:45:01Z</time>
      </trkpt>
      <trkpt lat="42.526157973334193" lon="2.625763015821576">
        <ele>511.07999999999998</ele>
        <time>2025-05-15T09:45:03Z</time>
      </trkpt>
      <trkpt lat="42.526094019412994" lon="2.62596501968801">
        <ele>511.56</ele>
        <time>2025-05-15T09:45:04Z</time>
      </trkpt>
      <trkpt lat="42.526026964187622" lon="2.626171968877316">
        <ele>512.51999999999998</ele>
        <time>2025-05-15T09:45:05Z</time>
      </trkpt>
      <trkpt lat="42.525536036118865" lon="2.627700995653868">
        <ele>516.85000000000002</ele>
        <time>2025-05-15T09:45:12Z</time>
      </trkpt>
      <trkpt lat="42.525538969784975" lon="2.627894030883908">
        <ele>517.33000000000004</ele>
        <time>2025-05-15T09:45:13Z</time>
      </trkpt>
      <trkpt lat="42.52557098865509" lon="2.628098968416452">
        <ele>517.33000000000004</ele>
        <time>2025-05-15T09:45:14Z</time>
      </trkpt>
      <trkpt lat="42.525603007525206" lon="2.628308013081551">
        <ele>517.33000000000004</ele>
        <time>2025-05-15T09:45:15Z</time>
      </trkpt>
      <trkpt lat="42.525635026395321" lon="2.628513034433126">
        <ele>517.80999999999995</ele>
        <time>2025-05-15T09:45:16Z</time>
      </trkpt>
      <trkpt lat="42.525727981701493" lon="2.62927302159369">
        <ele>519.25</ele>
        <time>2025-05-15T09:45:20Z</time>
      </trkpt>
      <trkpt lat="42.525735022500157" lon="2.629434959962964">
        <ele>519.25</ele>
        <time>2025-05-15T09:45:21Z</time>
      </trkpt>
      <trkpt lat="42.525696968659759" lon="2.62959698215127">
        <ele>519.25</ele>
        <time>2025-05-15T09:45:22Z</time>
      </trkpt>
      <trkpt lat="42.525643995031714" lon="2.629740983247757">
        <ele>519.73000000000002</ele>
        <time>2025-05-15T09:45:23Z</time>
      </trkpt>
      <trkpt lat="42.525588003918529" lon="2.629894958809018">
        <ele>520.21000000000004</ele>
        <time>2025-05-15T09:45:24Z</time>
      </trkpt>
      <trkpt lat="42.525510974228382" lon="2.629971988499165">
        <ele>520.21000000000004</ele>
        <time>2025-05-15T09:45:25Z</time>
      </trkpt>
      <trkpt lat="42.524974029511213" lon="2.630528965964913">
        <ele>522.61000000000001</ele>
        <time>2025-05-15T09:45:30Z</time>
      </trkpt>
      <trkpt lat="42.524836985394359" lon="2.630767012014985">
        <ele>525.01999999999998</ele>
        <time>2025-05-15T09:45:32Z</time>
      </trkpt>
      <trkpt lat="42.524673035368323" lon="2.63101402670145">
        <ele>530.78999999999996</ele>
        <time>2025-05-15T09:45:35Z</time>
      </trkpt>
      <trkpt lat="42.524619977921247" lon="2.631075968965888">
        <ele>532.71000000000004</ele>
        <time>2025-05-15T09:45:36Z</time>
      </trkpt>
      <trkpt lat="42.524213958531618" lon="2.631490034982562">
        <ele>541.36000000000001</ele>
        <time>2025-05-15T09:45:43Z</time>
      </trkpt>
      <trkpt lat="42.524179005995393" lon="2.631568992510438">
        <ele>541.84000000000003</ele>
        <time>2025-05-15T09:45:44Z</time>
      </trkpt>
      <trkpt lat="42.524143969640136" lon="2.631647028028965">
        <ele>543.27999999999997</ele>
        <time>2025-05-15T09:45:45Z</time>
      </trkpt>
      <trkpt lat="42.52410801127553" lon="2.631726991385222">
        <ele>544.72000000000003</ele>
        <time>2025-05-15T09:45:46Z</time>
      </trkpt>
      <trkpt lat="42.524074986577034" lon="2.631802009418607">
        <ele>544.72000000000003</ele>
        <time>2025-05-15T09:45:47Z</time>
      </trkpt>
      <trkpt lat="42.524032993242145" lon="2.631844002753496">
        <ele>545.20000000000005</ele>
        <time>2025-05-15T09:45:48Z</time>
      </trkpt>
      <trkpt lat="42.523969961330295" lon="2.631879039108753">
        <ele>545.20000000000005</ele>
        <time>2025-05-15T09:45:49Z</time>
      </trkpt>
      <trkpt lat="42.523900978267193" lon="2.631918014958501">
        <ele>545.69000000000005</ele>
        <time>2025-05-15T09:45:50Z</time>
      </trkpt>
      <trkpt lat="42.523763012140989" lon="2.631994960829616">
        <ele>546.64999999999998</ele>
        <time>2025-05-15T09:45:52Z</time>
      </trkpt>
      <trkpt lat="42.523574000224471" lon="2.632143991068006">
        <ele>547.13</ele>
        <time>2025-05-15T09:45:55Z</time>
      </trkpt>
      <trkpt lat="42.523512979969382" lon="2.63219503685832">
        <ele>547.13</ele>
        <time>2025-05-15T09:45:56Z</time>
      </trkpt>
      <trkpt lat="42.523454977199435" lon="2.632243987172842">
        <ele>547.61000000000001</ele>
        <time>2025-05-15T09:45:57Z</time>
      </trkpt>
      <trkpt lat="42.5232910271734" lon="2.632428975775838">
        <ele>548.09000000000003</ele>
        <time>2025-05-15T09:46:00Z</time>
      </trkpt>
      <trkpt lat="42.523236963897943" lon="2.632484966889024">
        <ele>548.09000000000003</ele>
        <time>2025-05-15T09:46:01Z</time>
      </trkpt>
      <trkpt lat="42.522693984210491" lon="2.633106987923384">
        <ele>546.64999999999998</ele>
        <time>2025-05-15T09:46:10Z</time>
      </trkpt>
      <trkpt lat="42.522635981440544" lon="2.633199021220207">
        <ele>546.64999999999998</ele>
        <time>2025-05-15T09:46:11Z</time>
      </trkpt>
      <trkpt lat="42.522283019497991" lon="2.633886002004147">
        <ele>544.72000000000003</ele>
        <time>2025-05-15T09:46:18Z</time>
      </trkpt>
      <trkpt lat="42.522192997857928" lon="2.633964037522674">
        <ele>544.24000000000001</ele>
        <time>2025-05-15T09:46:19Z</time>
      </trkpt>
      <trkpt lat="42.52213298343122" lon="2.634014999493957">
        <ele>544.24000000000001</ele>
        <time>2025-05-15T09:46:20Z</time>
      </trkpt>
      <trkpt lat="42.522055031731725" lon="2.634014999493957">
        <ele>543.75999999999999</ele>
        <time>2025-05-15T09:46:21Z</time>
      </trkpt>
      <trkpt lat="42.521976996213198" lon="2.634014999493957">
        <ele>543.75999999999999</ele>
        <time>2025-05-15T09:46:22Z</time>
      </trkpt>
      <trkpt lat="42.521904995664954" lon="2.633984992280603">
        <ele>543.75999999999999</ele>
        <time>2025-05-15T09:46:23Z</time>
      </trkpt>
      <trkpt lat="42.521816985681653" lon="2.63393696397543">
        <ele>543.75999999999999</ele>
        <time>2025-05-15T09:46:24Z</time>
      </trkpt>
      <trkpt lat="42.521693017333746" lon="2.633901005610824">
        <ele>543.75999999999999</ele>
        <time>2025-05-15T09:46:25Z</time>
      </trkpt>
      <trkpt lat="42.521606013178825" lon="2.633938975632191">
        <ele>543.75999999999999</ele>
        <time>2025-05-15T09:46:26Z</time>
      </trkpt>
      <trkpt lat="42.521504005417228" lon="2.633993960916996">
        <ele>543.75999999999999</ele>
        <time>2025-05-15T09:46:27Z</time>
      </trkpt>
      <trkpt lat="42.521413983777165" lon="2.63406302779913">
        <ele>543.75999999999999</ele>
        <time>2025-05-15T09:46:28Z</time>
      </trkpt>
      <trkpt lat="42.521329997107387" lon="2.634126981720328">
        <ele>543.27999999999997</ele>
        <time>2025-05-15T09:46:29Z</time>
      </trkpt>
      <trkpt lat="42.521232012659311" lon="2.634183978661895">
        <ele>543.27999999999997</ele>
        <time>2025-05-15T09:46:30Z</time>
      </trkpt>
      <trkpt lat="42.521134028211236" lon="2.634240975603461">
        <ele>543.27999999999997</ele>
        <time>2025-05-15T09:46:31Z</time>
      </trkpt>
      <trkpt lat="42.520961025729775" lon="2.634340971708298">
        <ele>542.32000000000005</ele>
        <time>2025-05-15T09:46:33Z</time>
      </trkpt>
      <trkpt lat="42.520912997424603" lon="2.634464018046856">
        <ele>541.84000000000003</ele>
        <time>2025-05-15T09:46:34Z</time>
      </trkpt>
      <trkpt lat="42.520891958847642" lon="2.634585974738002">
        <ele>540.88</ele>
        <time>2025-05-15T09:46:35Z</time>
      </trkpt>
      <trkpt lat="42.520772013813257" lon="2.635272033512592">
        <ele>538.48000000000002</ele>
        <time>2025-05-15T09:46:40Z</time>
      </trkpt>
      <trkpt lat="42.520729014649987" lon="2.635393990203738">
        <ele>537.50999999999999</ele>
        <time>2025-05-15T09:46:41Z</time>
      </trkpt>
      <trkpt lat="42.52067101188004" lon="2.635487029328942">
        <ele>537.02999999999997</ele>
        <time>2025-05-15T09:46:42Z</time>
      </trkpt>
      <trkpt lat="42.520589958876371" lon="2.635547965764999">
        <ele>536.07000000000005</ele>
        <time>2025-05-15T09:46:43Z</time>
      </trkpt>
      <trkpt lat="42.52049800939858" lon="2.635584007948637">
        <ele>536.07000000000005</ele>
        <time>2025-05-15T09:46:44Z</time>
      </trkpt>
      <trkpt lat="42.520397007465363" lon="2.63559197075665">
        <ele>535.59000000000003</ele>
        <time>2025-05-15T09:46:45Z</time>
      </trkpt>
      <trkpt lat="42.520286031067371" lon="2.635601023212075">
        <ele>535.11000000000001</ele>
        <time>2025-05-15T09:46:46Z</time>
      </trkpt>
      <trkpt lat="42.519137961789966" lon="2.635694984346628">
        <ele>532.23000000000002</ele>
        <time>2025-05-15T09:46:55Z</time>
      </trkpt>
      <trkpt lat="42.518895976245403" lon="2.635715017095208">
        <ele>529.34000000000003</ele>
        <time>2025-05-15T09:46:57Z</time>
      </trkpt>
      <trkpt lat="42.518776031211019" lon="2.635724991559982">
        <ele>528.38</ele>
        <time>2025-05-15T09:46:58Z</time>
      </trkpt>
      <trkpt lat="42.518657008185983" lon="2.635709987953305">
        <ele>527.41999999999996</ele>
        <time>2025-05-15T09:46:59Z</time>
      </trkpt>
      <trkpt lat="42.518555000424385" lon="2.635659025982022">
        <ele>525.98000000000002</ele>
        <time>2025-05-15T09:47:00Z</time>
      </trkpt>
      <trkpt lat="42.518461039289832" lon="2.635603034868836">
        <ele>525.01999999999998</ele>
        <time>2025-05-15T09:47:01Z</time>
      </trkpt>
      <trkpt lat="42.518370011821389" lon="2.635519970208406">
        <ele>523.58000000000004</ele>
        <time>2025-05-15T09:47:02Z</time>
      </trkpt>
      <trkpt lat="42.518271021544933" lon="2.635431038215756">
        <ele>522.61000000000001</ele>
        <time>2025-05-15T09:47:03Z</time>
      </trkpt>
      <trkpt lat="42.518176976591349" lon="2.635315032675862">
        <ele>521.64999999999998</ele>
        <time>2025-05-15T09:47:04Z</time>
      </trkpt>
      <trkpt lat="42.518077986314893" lon="2.635192992165685">
        <ele>520.69000000000005</ele>
        <time>2025-05-15T09:47:05Z</time>
      </trkpt>
      <trkpt lat="42.517823008820415" lon="2.634803988039494">
        <ele>517.80999999999995</ele>
        <time>2025-05-15T09:47:08Z</time>
      </trkpt>
      <trkpt lat="42.517755031585693" lon="2.634655041620135">
        <ele>516.85000000000002</ele>
        <time>2025-05-15T09:47:09Z</time>
      </trkpt>
      <trkpt lat="42.517713038250804" lon="2.634476004168391">
        <ele>515.88</ele>
        <time>2025-05-15T09:47:10Z</time>
      </trkpt>
      <trkpt lat="42.517546992748976" lon="2.63376597315073">
        <ele>511.07999999999998</ele>
        <time>2025-05-15T09:47:14Z</time>
      </trkpt>
      <trkpt lat="42.517441967502236" lon="2.633481994271278">
        <ele>508.67000000000002</ele>
        <time>2025-05-15T09:47:16Z</time>
      </trkpt>
      <trkpt lat="42.517391005530953" lon="2.633371017873287">
        <ele>507.23000000000002</ele>
        <time>2025-05-15T09:47:17Z</time>
      </trkpt>
      <trkpt lat="42.517391005530953" lon="2.633217964321375">
        <ele>505.79000000000002</ele>
        <time>2025-05-15T09:47:18Z</time>
      </trkpt>
      <trkpt lat="42.517391005530953" lon="2.633075974881649">
        <ele>504.82999999999998</ele>
        <time>2025-05-15T09:47:19Z</time>
      </trkpt>
      <trkpt lat="42.517391005530953" lon="2.632920993492007">
        <ele>503.87</ele>
        <time>2025-05-15T09:47:20Z</time>
      </trkpt>
      <trkpt lat="42.517368039116263" lon="2.63277598656714">
        <ele>502.91000000000003</ele>
        <time>2025-05-15T09:47:21Z</time>
      </trkpt>
      <trkpt lat="42.51734297722578" lon="2.632613964378834">
        <ele>502.43000000000001</ele>
        <time>2025-05-15T09:47:22Z</time>
      </trkpt>
      <trkpt lat="42.517294026911259" lon="2.63230400159955">
        <ele>500.5</ele>
        <time>2025-05-15T09:47:24Z</time>
      </trkpt>
      <trkpt lat="42.517248010262847" lon="2.632162012159824">
        <ele>499.54000000000002</ele>
        <time>2025-05-15T09:47:25Z</time>
      </trkpt>
      <trkpt lat="42.517179027199745" lon="2.63202597387135">
        <ele>499.06</ele>
        <time>2025-05-15T09:47:26Z</time>
      </trkpt>
      <trkpt lat="42.516618026420474" lon="2.631226005032659">
        <ele>494.74000000000001</ele>
        <time>2025-05-15T09:47:33Z</time>
      </trkpt>
      <trkpt lat="42.516563041135669" lon="2.631070017814636">
        <ele>494.25999999999999</ele>
        <time>2025-05-15T09:47:34Z</time>
      </trkpt>
      <trkpt lat="42.516515012830496" lon="2.630936997011304">
        <ele>493.29000000000002</ele>
        <time>2025-05-15T09:47:35Z</time>
      </trkpt>
      <trkpt lat="42.516471007838845" lon="2.630805987864733">
        <ele>492.32999999999998</ele>
        <time>2025-05-15T09:47:36Z</time>
      </trkpt>
      <trkpt lat="42.516418034210801" lon="2.630698028951883">
        <ele>491.37</ele>
        <time>2025-05-15T09:47:37Z</time>
      </trkpt>
      <trkpt lat="42.516338992863894" lon="2.630602978169918">
        <ele>490.41000000000003</ele>
        <time>2025-05-15T09:47:38Z</time>
      </trkpt>
      <trkpt lat="42.516255006194115" lon="2.630579005926848">
        <ele>490.41000000000003</ele>
        <time>2025-05-15T09:47:39Z</time>
      </trkpt>
      <trkpt lat="42.516152998432517" lon="2.630571965128183">
        <ele>490.88999999999999</ele>
        <time>2025-05-15T09:47:40Z</time>
      </trkpt>
      <trkpt lat="42.516045961529016" lon="2.630608007311821">
        <ele>491.85000000000002</ele>
        <time>2025-05-15T09:47:41Z</time>
      </trkpt>
      <trkpt lat="42.515934985131025" lon="2.630685037001967">
        <ele>491.85000000000002</ele>
        <time>2025-05-15T09:47:42Z</time>
      </trkpt>
      <trkpt lat="42.515829037874937" lon="2.630791990086436">
        <ele>491.37</ele>
        <time>2025-05-15T09:47:43Z</time>
      </trkpt>
      <trkpt lat="42.515720995143056" lon="2.630925010889769">
        <ele>490.88999999999999</ele>
        <time>2025-05-15T09:47:44Z</time>
      </trkpt>
      <trkpt lat="42.515617981553078" lon="2.631071023643017">
        <ele>490.41000000000003</ele>
        <time>2025-05-15T09:47:45Z</time>
      </trkpt>
      <trkpt lat="42.51551597379148" lon="2.631215024739504">
        <ele>489.93000000000001</ele>
        <time>2025-05-15T09:47:46Z</time>
      </trkpt>
      <trkpt lat="42.515418995171785" lon="2.631352990865707">
        <ele>489.93000000000001</ele>
        <time>2025-05-15T09:47:47Z</time>
      </trkpt>
      <trkpt lat="42.515328973531723" lon="2.631479976698756">
        <ele>490.41000000000003</ele>
        <time>2025-05-15T09:47:48Z</time>
      </trkpt>
      <trkpt lat="42.515227971598506" lon="2.631588019430637">
        <ele>490.88999999999999</ele>
        <time>2025-05-15T09:47:49Z</time>
      </trkpt>
      <trkpt lat="42.515113977715373" lon="2.631645016372204">
        <ele>491.37</ele>
        <time>2025-05-15T09:47:50Z</time>
      </trkpt>
      <trkpt lat="42.515003001317382" lon="2.63170100748539">
        <ele>491.85000000000002</ele>
        <time>2025-05-15T09:47:51Z</time>
      </trkpt>
      <trkpt lat="42.514875009655952" lon="2.631719028577209">
        <ele>492.32999999999998</ele>
        <time>2025-05-15T09:47:52Z</time>
      </trkpt>
      <trkpt lat="42.514765961095691" lon="2.631669994443655">
        <ele>492.81</ele>
        <time>2025-05-15T09:47:53Z</time>
      </trkpt>
      <trkpt lat="42.514645010232925" lon="2.63161500915885">
        <ele>493.29000000000002</ele>
        <time>2025-05-15T09:47:54Z</time>
      </trkpt>
      <trkpt lat="42.514493968337774" lon="2.631547031924129">
        <ele>493.76999999999998</ele>
        <time>2025-05-15T09:47:55Z</time>
      </trkpt>
      <trkpt lat="42.514400007203221" lon="2.631551977247">
        <ele>494.74000000000001</ele>
        <time>2025-05-15T09:47:56Z</time>
      </trkpt>
      <trkpt lat="42.514277966693044" lon="2.631558012217283">
        <ele>495.22000000000003</ele>
        <time>2025-05-15T09:47:57Z</time>
      </trkpt>
      <trkpt lat="42.514172019436955" lon="2.631563041359186">
        <ele>495.69999999999999</ele>
        <time>2025-05-15T09:47:58Z</time>
      </trkpt>
      <trkpt lat="42.514064982533455" lon="2.631568992510438">
        <ele>496.18000000000001</ele>
        <time>2025-05-15T09:47:59Z</time>
      </trkpt>
      <trkpt lat="42.514016032218933" lon="2.631511995568872">
        <ele>496.66000000000003</ele>
        <time>2025-05-15T09:48:00Z</time>
      </trkpt>
      <trkpt lat="42.513935985043645" lon="2.631419040262699">
        <ele>497.13999999999999</ele>
        <time>2025-05-15T09:48:01Z</time>
      </trkpt>
      <trkpt lat="42.513892985880375" lon="2.631299011409283">
        <ele>497.13999999999999</ele>
        <time>2025-05-15T09:48:02Z</time>
      </trkpt>
      <trkpt lat="42.513847975060344" lon="2.631172025576234">
        <ele>497.62</ele>
        <time>2025-05-15T09:48:03Z</time>
      </trkpt>
      <trkpt lat="42.513801958411932" lon="2.631042022258043">
        <ele>497.62</ele>
        <time>2025-05-15T09:48:04Z</time>
      </trkpt>
      <trkpt lat="42.513756025582552" lon="2.630914030596614">
        <ele>497.62</ele>
        <time>2025-05-15T09:48:05Z</time>
      </trkpt>
      <trkpt lat="42.513692993670702" lon="2.630804982036352">
        <ele>498.10000000000002</ele>
        <time>2025-05-15T09:48:06Z</time>
      </trkpt>
      <trkpt lat="42.513583023101091" lon="2.630753014236689">
        <ele>498.57999999999998</ele>
        <time>2025-05-15T09:48:07Z</time>
      </trkpt>
      <trkpt lat="42.513468023389578" lon="2.630700040608645">
        <ele>499.54000000000002</ele>
        <time>2025-05-15T09:48:08Z</time>
      </trkpt>
      <trkpt lat="42.513346988707781" lon="2.630643965676427">
        <ele>500.5</ele>
        <time>2025-05-15T09:48:09Z</time>
      </trkpt>
      <trkpt lat="42.513227965682745" lon="2.630588980391622">
        <ele>501.45999999999998</ele>
        <time>2025-05-15T09:48:10Z</time>
      </trkpt>
      <trkpt lat="42.513121012598276" lon="2.630539024248719">
        <ele>501.94999999999999</ele>
        <time>2025-05-15T09:48:11Z</time>
      </trkpt>
      <trkpt lat="42.512998972088099" lon="2.630503987893462">
        <ele>502.91000000000003</ele>
        <time>2025-05-15T09:48:12Z</time>
      </trkpt>
      <trkpt lat="42.512865029275417" lon="2.63051999732852">
        <ele>504.35000000000002</ele>
        <time>2025-05-15T09:48:13Z</time>
      </trkpt>
      <trkpt lat="42.512731002643704" lon="2.630550004541874">
        <ele>505.31</ele>
        <time>2025-05-15T09:48:14Z</time>
      </trkpt>
      <trkpt lat="42.512593036517501" lon="2.630582023411989">
        <ele>506.75</ele>
        <time>2025-05-15T09:48:15Z</time>
      </trkpt>
      <trkpt lat="42.511946959421039" lon="2.630800036713481">
        <ele>510.12</ele>
        <time>2025-05-15T09:48:20Z</time>
      </trkpt>
      <trkpt lat="42.511845035478473" lon="2.630781009793282">
        <ele>510.12</ele>
        <time>2025-05-15T09:48:21Z</time>
      </trkpt>
      <trkpt lat="42.51175400801003" lon="2.630716972053051">
        <ele>510.60000000000002</ele>
        <time>2025-05-15T09:48:22Z</time>
      </trkpt>
      <trkpt lat="42.511659041047096" lon="2.630622005090118">
        <ele>510.60000000000002</ele>
        <time>2025-05-15T09:48:23Z</time>
      </trkpt>
      <trkpt lat="42.511590979993343" lon="2.630492001771927">
        <ele>511.07999999999998</ele>
        <time>2025-05-15T09:48:24Z</time>
      </trkpt>
      <trkpt lat="42.511524008587003" lon="2.630364010110498">
        <ele>511.07999999999998</ele>
        <time>2025-05-15T09:48:25Z</time>
      </trkpt>
      <trkpt lat="42.511463994160295" lon="2.630250016227365">
        <ele>511.56</ele>
        <time>2025-05-15T09:48:26Z</time>
      </trkpt>
      <trkpt lat="42.511374978348613" lon="2.630187990143895">
        <ele>512.03999999999996</ele>
        <time>2025-05-15T09:48:27Z</time>
      </trkpt>
      <trkpt lat="42.511285040527582" lon="2.630207017064095">
        <ele>512.51999999999998</ele>
        <time>2025-05-15T09:48:28Z</time>
      </trkpt>
      <trkpt lat="42.511221002787352" lon="2.630281029269099">
        <ele>513</ele>
        <time>2025-05-15T09:48:29Z</time>
      </trkpt>
      <trkpt lat="42.511192001402378" lon="2.630387982353568">
        <ele>513.48000000000002</ele>
        <time>2025-05-15T09:48:30Z</time>
      </trkpt>
      <trkpt lat="42.511172974482179" lon="2.630507005378604">
        <ele>513.48000000000002</ele>
        <time>2025-05-15T09:48:31Z</time>
      </trkpt>
      <trkpt lat="42.51119501888752" lon="2.630662992596626">
        <ele>513.96000000000004</ele>
        <time>2025-05-15T09:48:32Z</time>
      </trkpt>
      <trkpt lat="42.51121899113059" lon="2.630834989249706">
        <ele>513.96000000000004</ele>
        <time>2025-05-15T09:48:33Z</time>
      </trkpt>
      <trkpt lat="42.511245980858803" lon="2.631018972024322">
        <ele>514.44000000000005</ele>
        <time>2025-05-15T09:48:34Z</time>
      </trkpt>
      <trkpt lat="42.511271964758635" lon="2.631202032789588">
        <ele>514.91999999999996</ele>
        <time>2025-05-15T09:48:35Z</time>
      </trkpt>
      <trkpt lat="42.511299038305879" lon="2.631393978372216">
        <ele>515.88</ele>
        <time>2025-05-15T09:48:36Z</time>
      </trkpt>
      <trkpt lat="42.511326028034091" lon="2.631578966975212">
        <ele>516.85000000000002</ele>
        <time>2025-05-15T09:48:37Z</time>
      </trkpt>
      <trkpt lat="42.511376990005374" lon="2.631753981113434">
        <ele>517.33000000000004</ele>
        <time>2025-05-15T09:48:38Z</time>
      </trkpt>
      <trkpt lat="42.511457037180662" lon="2.631921032443643">
        <ele>518.76999999999998</ele>
        <time>2025-05-15T09:48:39Z</time>
      </trkpt>
      <trkpt lat="42.511535994708538" lon="2.632085988298059">
        <ele>519.73000000000002</ele>
        <time>2025-05-15T09:48:40Z</time>
      </trkpt>
      <trkpt lat="42.511643031612039" lon="2.632233006879687">
        <ele>520.21000000000004</ele>
        <time>2025-05-15T09:48:41Z</time>
      </trkpt>
      <trkpt lat="42.511769011616707" lon="2.632349012419581">
        <ele>520.69000000000005</ele>
        <time>2025-05-15T09:48:42Z</time>
      </trkpt>
      <trkpt lat="42.511898009106517" lon="2.632473986595869">
        <ele>522.61000000000001</ele>
        <time>2025-05-15T09:48:43Z</time>
      </trkpt>
      <trkpt lat="42.512018959969282" lon="2.632621005177498">
        <ele>522.61000000000001</ele>
        <time>2025-05-15T09:48:44Z</time>
      </trkpt>
      <trkpt lat="42.512123985216022" lon="2.632768023759127">
        <ele>522.61000000000001</ele>
        <time>2025-05-15T09:48:45Z</time>
      </trkpt>
      <trkpt lat="42.51220403239131" lon="2.632915964350104">
        <ele>523.09000000000003</ele>
        <time>2025-05-15T09:48:46Z</time>
      </trkpt>
      <trkpt lat="42.512263962998986" lon="2.633084021508694">
        <ele>523.09000000000003</ele>
        <time>2025-05-15T09:48:47Z</time>
      </trkpt>
      <trkpt lat="42.512311991304159" lon="2.633284013718367">
        <ele>523.58000000000004</ele>
        <time>2025-05-15T09:48:48Z</time>
      </trkpt>
      <trkpt lat="42.512476025149226" lon="2.634024973958731">
        <ele>525.98000000000002</ele>
        <time>2025-05-15T09:48:52Z</time>
      </trkpt>
      <trkpt lat="42.512485999614" lon="2.634234018623829">
        <ele>526.46000000000004</ele>
        <time>2025-05-15T09:48:53Z</time>
      </trkpt>
      <trkpt lat="42.512455992400646" lon="2.634447002783418">
        <ele>527.41999999999996</ele>
        <time>2025-05-15T09:48:54Z</time>
      </trkpt>
      <trkpt lat="42.512424979358912" lon="2.634672978892922">
        <ele>527.89999999999998</ele>
        <time>2025-05-15T09:48:55Z</time>
      </trkpt>
      <trkpt lat="42.512392038479447" lon="2.634908007457852">
        <ele>528.86000000000001</ele>
        <time>2025-05-15T09:48:56Z</time>
      </trkpt>
      <trkpt lat="42.512391032651067" lon="2.635400025174022">
        <ele>530.78999999999996</ele>
        <time>2025-05-15T09:48:58Z</time>
      </trkpt>
      <trkpt lat="42.512408969923854" lon="2.635623989626765">
        <ele>531.75</ele>
        <time>2025-05-15T09:48:59Z</time>
      </trkpt>
      <trkpt lat="42.512445012107491" lon="2.635843008756638">
        <ele>533.19000000000005</ele>
        <time>2025-05-15T09:49:00Z</time>
      </trkpt>
      <trkpt lat="42.512478958815336" lon="2.636038977652788">
        <ele>534.14999999999998</ele>
        <time>2025-05-15T09:49:01Z</time>
      </trkpt>
      <trkpt lat="42.512538973242044" lon="2.636211980134249">
        <ele>535.11000000000001</ele>
        <time>2025-05-15T09:49:02Z</time>
      </trkpt>
      <trkpt lat="42.51259395852685" lon="2.636372996494174">
        <ele>536.07000000000005</ele>
        <time>2025-05-15T09:49:03Z</time>
      </trkpt>
      <trkpt lat="42.512645004317164" lon="2.636518003419042">
        <ele>536.54999999999995</ele>
        <time>2025-05-15T09:49:04Z</time>
      </trkpt>
      <trkpt lat="42.512692026793957" lon="2.63666502200067">
        <ele>537.50999999999999</ele>
        <time>2025-05-15T09:49:05Z</time>
      </trkpt>
      <trkpt lat="42.512692026793957" lon="2.636803993955255">
        <ele>537.99000000000001</ele>
        <time>2025-05-15T09:49:06Z</time>
      </trkpt>
      <trkpt lat="42.512642992660403" lon="2.636955035850406">
        <ele>538.48000000000002</ele>
        <time>2025-05-15T09:49:07Z</time>
      </trkpt>
      <trkpt lat="42.512575015425682" lon="2.637087972834706">
        <ele>538.96000000000004</ele>
        <time>2025-05-15T09:49:08Z</time>
      </trkpt>
      <trkpt lat="42.512488011270761" lon="2.637220993638039">
        <ele>538.96000000000004</ele>
        <time>2025-05-15T09:49:09Z</time>
      </trkpt>
      <trkpt lat="42.512393966317177" lon="2.637364994734526">
        <ele>538.96000000000004</ele>
        <time>2025-05-15T09:49:10Z</time>
      </trkpt>
      <trkpt lat="42.512297993525863" lon="2.637512013316155">
        <ele>538.96000000000004</ele>
        <time>2025-05-15T09:49:11Z</time>
      </trkpt>
      <trkpt lat="42.512182993814349" lon="2.637634975835681">
        <ele>538.96000000000004</ele>
        <time>2025-05-15T09:49:12Z</time>
      </trkpt>
      <trkpt lat="42.512065982446074" lon="2.637741006910801">
        <ele>538.96000000000004</ele>
        <time>2025-05-15T09:49:13Z</time>
      </trkpt>
      <trkpt lat="42.511942014098167" lon="2.637809989973903">
        <ele>538.96000000000004</ele>
        <time>2025-05-15T09:49:14Z</time>
      </trkpt>
      <trkpt lat="42.511812010779977" lon="2.637829016894102">
        <ele>538.96000000000004</ele>
        <time>2025-05-15T09:49:15Z</time>
      </trkpt>
      <trkpt lat="42.511688964441419" lon="2.637819964438677">
        <ele>538.96000000000004</ele>
        <time>2025-05-15T09:49:16Z</time>
      </trkpt>
      <trkpt lat="42.511573964729905" lon="2.637800015509129">
        <ele>539.44000000000005</ele>
        <time>2025-05-15T09:49:17Z</time>
      </trkpt>
      <trkpt lat="42.511457959190011" lon="2.637735977768898">
        <ele>539.91999999999996</ele>
        <time>2025-05-15T09:49:18Z</time>
      </trkpt>
      <trkpt lat="42.511344971135259" lon="2.637655008584261">
        <ele>539.91999999999996</ele>
        <time>2025-05-15T09:49:19Z</time>
      </trkpt>
      <trkpt lat="42.510430002585053" lon="2.636897033080459">
        <ele>541.84000000000003</ele>
        <time>2025-05-15T09:49:26Z</time>
      </trkpt>
      <trkpt lat="42.510278960689902" lon="2.636834001168609">
        <ele>542.32000000000005</ele>
        <time>2025-05-15T09:49:27Z</time>
      </trkpt>
      <trkpt lat="42.510118028149009" lon="2.636802988126874">
        <ele>542.32000000000005</ele>
        <time>2025-05-15T09:49:28Z</time>
      </trkpt>
      <trkpt lat="42.509041959419847" lon="2.636596960946918">
        <ele>544.72000000000003</ele>
        <time>2025-05-15T09:49:35Z</time>
      </trkpt>
      <trkpt lat="42.508921008557081" lon="2.636573994532228">
        <ele>544.72000000000003</ele>
        <time>2025-05-15T09:49:36Z</time>
      </trkpt>
      <trkpt lat="42.5088129658252" lon="2.636510962620378">
        <ele>544.72000000000003</ele>
        <time>2025-05-15T09:49:37Z</time>
      </trkpt>
      <trkpt lat="42.508701989427209" lon="2.636412978172302">
        <ele>544.72000000000003</ele>
        <time>2025-05-15T09:49:38Z</time>
      </trkpt>
      <trkpt lat="42.508593024685979" lon="2.636285992339253">
        <ele>545.20000000000005</ele>
        <time>2025-05-15T09:49:39Z</time>
      </trkpt>
      <trkpt lat="42.508265040814877" lon="2.635903023183346">
        <ele>546.16999999999996</ele>
        <time>2025-05-15T09:49:42Z</time>
      </trkpt>
      <trkpt lat="42.50816797837615" lon="2.635830016806722">
        <ele>546.16999999999996</ele>
        <time>2025-05-15T09:49:43Z</time>
      </trkpt>
      <trkpt lat="42.508065970614552" lon="2.635845020413399">
        <ele>546.64999999999998</ele>
        <time>2025-05-15T09:49:44Z</time>
      </trkpt>
      <trkpt lat="42.507949965074658" lon="2.635887013748288">
        <ele>547.13</ele>
        <time>2025-05-15T09:49:45Z</time>
      </trkpt>
      <trkpt lat="42.507817028090358" lon="2.63593596406281">
        <ele>547.61000000000001</ele>
        <time>2025-05-15T09:49:46Z</time>
      </trkpt>
      <trkpt lat="42.507670009508729" lon="2.635989021509886">
        <ele>548.09000000000003</ele>
        <time>2025-05-15T09:49:47Z</time>
      </trkpt>
      <trkpt lat="42.507509998977184" lon="2.636018022894859">
        <ele>548.57000000000005</ele>
        <time>2025-05-15T09:49:48Z</time>
      </trkpt>
      <trkpt lat="42.507355017587543" lon="2.636046018451452">
        <ele>549.04999999999995</ele>
        <time>2025-05-15T09:49:49Z</time>
      </trkpt>
      <trkpt lat="42.506913039833307" lon="2.636110978201032">
        <ele>550.97000000000003</ele>
        <time>2025-05-15T09:49:52Z</time>
      </trkpt>
      <trkpt lat="42.506760992109776" lon="2.636089017614722">
        <ele>551.45000000000005</ele>
        <time>2025-05-15T09:49:53Z</time>
      </trkpt>
      <trkpt lat="42.506624031811953" lon="2.636069990694523">
        <ele>551.92999999999995</ele>
        <time>2025-05-15T09:49:54Z</time>
      </trkpt>
      <trkpt lat="42.506502997130156" lon="2.636047024279833">
        <ele>552.40999999999997</ele>
        <time>2025-05-15T09:49:55Z</time>
      </trkpt>
      <trkpt lat="42.5063849799335" lon="2.635950967669487">
        <ele>552.40999999999997</ele>
        <time>2025-05-15T09:49:56Z</time>
      </trkpt>
      <trkpt lat="42.506264029070735" lon="2.635852983221412">
        <ele>552.89999999999998</ele>
        <time>2025-05-15T09:49:57Z</time>
      </trkpt>
      <trkpt lat="42.506150035187602" lon="2.63576103374362">
        <ele>552.89999999999998</ele>
        <time>2025-05-15T09:49:58Z</time>
      </trkpt>
      <trkpt lat="42.506034029647708" lon="2.635676963254809">
        <ele>553.38</ele>
        <time>2025-05-15T09:49:59Z</time>
      </trkpt>
      <trkpt lat="42.505923975259066" lon="2.635630024597049">
        <ele>553.86000000000001</ele>
        <time>2025-05-15T09:50:00Z</time>
      </trkpt>
      <trkpt lat="42.505809981375933" lon="2.635667994618416">
        <ele>554.34000000000003</ele>
        <time>2025-05-15T09:50:01Z</time>
      </trkpt>
      <trkpt lat="42.505747033283114" lon="2.635737983509898">
        <ele>554.34000000000003</ele>
        <time>2025-05-15T09:50:02Z</time>
      </trkpt>
      <trkpt lat="42.505724988877773" lon="2.635815013200045">
        <ele>554.34000000000003</ele>
        <time>2025-05-15T09:50:03Z</time>
      </trkpt>
      <trkpt lat="42.505735969170928" lon="2.635930012911558">
        <ele>554.82000000000005</ele>
        <time>2025-05-15T09:50:04Z</time>
      </trkpt>
      <trkpt lat="42.505765976384282" lon="2.636078959330916">
        <ele>555.29999999999995</ele>
        <time>2025-05-15T09:50:05Z</time>
      </trkpt>
      <trkpt lat="42.505801012739539" lon="2.63625699095428">
        <ele>556.25999999999999</ele>
        <time>2025-05-15T09:50:06Z</time>
      </trkpt>
      <trkpt lat="42.505842000246048" lon="2.636460000649095">
        <ele>556.74000000000001</ele>
        <time>2025-05-15T09:50:07Z</time>
      </trkpt>
      <trkpt lat="42.505923975259066" lon="2.636655969545245">
        <ele>557.22000000000003</ele>
        <time>2025-05-15T09:50:08Z</time>
      </trkpt>
      <trkpt lat="42.506102006882429" lon="2.637057965621352">
        <ele>558.17999999999995</ele>
        <time>2025-05-15T09:50:10Z</time>
      </trkpt>
      <trkpt lat="42.506280038505793" lon="2.63741796836257">
        <ele>559.13999999999999</ele>
        <time>2025-05-15T09:50:12Z</time>
      </trkpt>
      <trkpt lat="42.5064040068537" lon="2.637549983337522">
        <ele>559.13999999999999</ele>
        <time>2025-05-15T09:50:13Z</time>
      </trkpt>
      <trkpt lat="42.506668958812952" lon="2.637801021337509">
        <ele>559.62</ele>
        <time>2025-05-15T09:50:15Z</time>
      </trkpt>
      <trkpt lat="42.506772978231311" lon="2.637958014383912">
        <ele>559.62</ele>
        <time>2025-05-15T09:50:16Z</time>
      </trkpt>
      <trkpt lat="42.506841039285064" lon="2.638132022693753">
        <ele>559.62</ele>
        <time>2025-05-15T09:50:17Z</time>
      </trkpt>
      <trkpt lat="42.506896024569869" lon="2.638336038216949">
        <ele>560.11000000000001</ele>
        <time>2025-05-15T09:50:18Z</time>
      </trkpt>
      <trkpt lat="42.506958972662687" lon="2.638565031811595">
        <ele>560.11000000000001</ele>
        <time>2025-05-15T09:50:19Z</time>
      </trkpt>
      <trkpt lat="42.507445039227605" lon="2.640027003362775">
        <ele>560.59000000000003</ele>
        <time>2025-05-15T09:50:26Z</time>
      </trkpt>
      <trkpt lat="42.507480997592211" lon="2.640181984752417">
        <ele>560.59000000000003</ele>
        <time>2025-05-15T09:50:27Z</time>
      </trkpt>
      <trkpt lat="42.507489966228604" lon="2.640326991677284">
        <ele>560.59000000000003</ele>
        <time>2025-05-15T09:50:28Z</time>
      </trkpt>
      <trkpt lat="42.507476974278688" lon="2.640431011095643">
        <ele>560.59000000000003</ele>
        <time>2025-05-15T09:50:29Z</time>
      </trkpt>
      <trkpt lat="42.507408997043967" lon="2.640566965565085">
        <ele>560.59000000000003</ele>
        <time>2025-05-15T09:50:30Z</time>
      </trkpt>
      <trkpt lat="42.507339008152485" lon="2.640707027167082">
        <ele>560.59000000000003</ele>
        <time>2025-05-15T09:50:31Z</time>
      </trkpt>
      <trkpt lat="42.507267007604241" lon="2.64085203409195">
        <ele>560.11000000000001</ele>
        <time>2025-05-15T09:50:32Z</time>
      </trkpt>
      <trkpt lat="42.507215961813927" lon="2.640986982733011">
        <ele>560.11000000000001</ele>
        <time>2025-05-15T09:50:33Z</time>
      </trkpt>
      <trkpt lat="42.507203975692391" lon="2.641109023243189">
        <ele>560.59000000000003</ele>
        <time>2025-05-15T09:50:34Z</time>
      </trkpt>
      <trkpt lat="42.507229959592223" lon="2.641200972720981">
        <ele>561.07000000000005</ele>
        <time>2025-05-15T09:50:35Z</time>
      </trkpt>
      <trkpt lat="42.50728402286768" lon="2.641268027946353">
        <ele>562.02999999999997</ele>
        <time>2025-05-15T09:50:36Z</time>
      </trkpt>
      <trkpt lat="42.507377984002233" lon="2.641319995746017">
        <ele>562.99000000000001</ele>
        <time>2025-05-15T09:50:37Z</time>
      </trkpt>
      <trkpt lat="42.507482003420591" lon="2.641379004344344">
        <ele>563.95000000000005</ele>
        <time>2025-05-15T09:50:38Z</time>
      </trkpt>
      <trkpt lat="42.507588034495711" lon="2.641439018771052">
        <ele>563.95000000000005</ele>
        <time>2025-05-15T09:50:39Z</time>
      </trkpt>
      <trkpt lat="42.507674032822251" lon="2.641572039574385">
        <ele>563.95000000000005</ele>
        <time>2025-05-15T09:50:40Z</time>
      </trkpt>
      <trkpt lat="42.507729018107057" lon="2.641704976558685">
        <ele>563.95000000000005</ele>
        <time>2025-05-15T09:50:41Z</time>
      </trkpt>
      <trkpt lat="42.507790038362145" lon="2.641849983483553">
        <ele>563.47000000000003</ele>
        <time>2025-05-15T09:50:42Z</time>
      </trkpt>
      <trkpt lat="42.50786597840488" lon="2.641991972923279">
        <ele>562.99000000000001</ele>
        <time>2025-05-15T09:50:43Z</time>
      </trkpt>
      <trkpt lat="42.50799598172307" lon="2.642076965421438">
        <ele>562.99000000000001</ele>
        <time>2025-05-15T09:50:44Z</time>
      </trkpt>
      <trkpt lat="42.508135037496686" lon="2.642168998718262">
        <ele>562.02999999999997</ele>
        <time>2025-05-15T09:50:45Z</time>
      </trkpt>
      <trkpt lat="42.50842597335577" lon="2.642360022291541">
        <ele>560.11000000000001</ele>
        <time>2025-05-15T09:50:47Z</time>
      </trkpt>
      <trkpt lat="42.508563017472625" lon="2.642450965940952">
        <ele>559.62</ele>
        <time>2025-05-15T09:50:48Z</time>
      </trkpt>
      <trkpt lat="42.508682040497661" lon="2.642529001459479">
        <ele>558.65999999999997</ele>
        <time>2025-05-15T09:50:49Z</time>
      </trkpt>
      <trkpt lat="42.508795028552413" lon="2.642608964815736">
        <ele>557.22000000000003</ele>
        <time>2025-05-15T09:50:50Z</time>
      </trkpt>
      <trkpt lat="42.508900975808501" lon="2.642737962305546">
        <ele>555.77999999999997</ele>
        <time>2025-05-15T09:50:51Z</time>
      </trkpt>
      <trkpt lat="42.509011030197144" lon="2.642886992543936">
        <ele>554.82000000000005</ele>
        <time>2025-05-15T09:50:52Z</time>
      </trkpt>
      <trkpt lat="42.50911102630198" lon="2.643053038045764">
        <ele>554.34000000000003</ele>
        <time>2025-05-15T09:50:53Z</time>
      </trkpt>
      <trkpt lat="42.509295009076595" lon="2.643359983339906">
        <ele>552.89999999999998</ele>
        <time>2025-05-15T09:50:55Z</time>
      </trkpt>
      <trkpt lat="42.509345971047878" lon="2.643532985821366">
        <ele>552.40999999999997</ele>
        <time>2025-05-15T09:50:56Z</time>
      </trkpt>
      <trkpt lat="42.509415037930012" lon="2.643893994390965">
        <ele>551.45000000000005</ele>
        <time>2025-05-15T09:50:58Z</time>
      </trkpt>
      <trkpt lat="42.509425012394786" lon="2.644119970500469">
        <ele>550.97000000000003</ele>
        <time>2025-05-15T09:50:59Z</time>
      </trkpt>
      <trkpt lat="42.509435992687941" lon="2.644359022378922">
        <ele>550.49000000000001</ele>
        <time>2025-05-15T09:51:00Z</time>
      </trkpt>
      <trkpt lat="42.509446972981095" lon="2.644605031237006">
        <ele>550.00999999999999</ele>
        <time>2025-05-15T09:51:01Z</time>
      </trkpt>
      <trkpt lat="42.509450996294618" lon="2.644851040095091">
        <ele>550.00999999999999</ele>
        <time>2025-05-15T09:51:02Z</time>
      </trkpt>
      <trkpt lat="42.509450996294618" lon="2.646905025467277">
        <ele>549.04999999999995</ele>
        <time>2025-05-15T09:51:11Z</time>
      </trkpt>
      <trkpt lat="42.509433981031179" lon="2.647301992401481">
        <ele>548.09000000000003</ele>
        <time>2025-05-15T09:51:13Z</time>
      </trkpt>
      <trkpt lat="42.509390981867909" lon="2.647506007924676">
        <ele>548.09000000000003</ele>
        <time>2025-05-15T09:51:14Z</time>
      </trkpt>
      <trkpt lat="42.509325016289949" lon="2.647714968770742">
        <ele>548.09000000000003</ele>
        <time>2025-05-15T09:51:15Z</time>
      </trkpt>
      <trkpt lat="42.50924002379179" lon="2.647913033142686">
        <ele>547.61000000000001</ele>
        <time>2025-05-15T09:51:16Z</time>
      </trkpt>
      <trkpt lat="42.509140027686954" lon="2.648113025352359">
        <ele>547.13</ele>
        <time>2025-05-15T09:51:17Z</time>
      </trkpt>
      <trkpt lat="42.509035002440214" lon="2.648321986198425">
        <ele>546.64999999999998</ele>
        <time>2025-05-15T09:51:18Z</time>
      </trkpt>
      <trkpt lat="42.508580032736063" lon="2.649076022207737">
        <ele>543.75999999999999</ele>
        <time>2025-05-15T09:51:22Z</time>
      </trkpt>
      <trkpt lat="42.508431002497673" lon="2.649203008040786">
        <ele>542.79999999999995</ele>
        <time>2025-05-15T09:51:23Z</time>
      </trkpt>
      <trkpt lat="42.508006962016225" lon="2.649540966376662">
        <ele>540.39999999999998</ele>
        <time>2025-05-15T09:51:26Z</time>
      </trkpt>
      <trkpt lat="42.507868995890021" lon="2.649560999125242">
        <ele>539.44000000000005</ele>
        <time>2025-05-15T09:51:27Z</time>
      </trkpt>
      <trkpt lat="42.507732035592198" lon="2.649572985246778">
        <ele>538.48000000000002</ele>
        <time>2025-05-15T09:51:28Z</time>
      </trkpt>
      <trkpt lat="42.50758602283895" lon="2.649585977196693">
        <ele>537.50999999999999</ele>
        <time>2025-05-15T09:51:29Z</time>
      </trkpt>
      <trkpt lat="42.507437998428941" lon="2.649634005501866">
        <ele>536.07000000000005</ele>
        <time>2025-05-15T09:51:30Z</time>
      </trkpt>
      <trkpt lat="42.507300032302737" lon="2.64972603879869">
        <ele>534.14999999999998</ele>
        <time>2025-05-15T09:51:31Z</time>
      </trkpt>
      <trkpt lat="42.507176985964179" lon="2.649808013811708">
        <ele>532.71000000000004</ele>
        <time>2025-05-15T09:51:32Z</time>
      </trkpt>
      <trkpt lat="42.507039019837976" lon="2.649860987439752">
        <ele>531.26999999999998</ele>
        <time>2025-05-15T09:51:33Z</time>
      </trkpt>
      <trkpt lat="42.506929971277714" lon="2.649903986603022">
        <ele>529.82000000000005</ele>
        <time>2025-05-15T09:51:34Z</time>
      </trkpt>
      <trkpt lat="42.506827963516116" lon="2.649942962452769">
        <ele>528.86000000000001</ele>
        <time>2025-05-15T09:51:35Z</time>
      </trkpt>
      <trkpt lat="42.506765015423298" lon="2.650014963001013">
        <ele>527.41999999999996</ele>
        <time>2025-05-15T09:51:36Z</time>
      </trkpt>
      <trkpt lat="42.506712963804603" lon="2.650129962712526">
        <ele>525.5</ele>
        <time>2025-05-15T09:51:37Z</time>
      </trkpt>
      <trkpt lat="42.506649009883404" lon="2.650269018486142">
        <ele>524.53999999999996</ele>
        <time>2025-05-15T09:51:38Z</time>
      </trkpt>
      <trkpt lat="42.506583966314793" lon="2.650412013754249">
        <ele>523.09000000000003</ele>
        <time>2025-05-15T09:51:39Z</time>
      </trkpt>
      <trkpt lat="42.506581032648683" lon="2.650575041770935">
        <ele>522.13</ele>
        <time>2025-05-15T09:51:40Z</time>
      </trkpt>
      <trkpt lat="42.506586983799934" lon="2.650755001232028">
        <ele>521.16999999999996</ele>
        <time>2025-05-15T09:51:41Z</time>
      </trkpt>
      <trkpt lat="42.506593018770218" lon="2.65093102119863">
        <ele>520.21000000000004</ele>
        <time>2025-05-15T09:51:42Z</time>
      </trkpt>
      <trkpt lat="42.506583966314793" lon="2.651119027286768">
        <ele>518.76999999999998</ele>
        <time>2025-05-15T09:51:43Z</time>
      </trkpt>
      <trkpt lat="42.506545996293426" lon="2.651308039203286">
        <ele>517.33000000000004</ele>
        <time>2025-05-15T09:51:44Z</time>
      </trkpt>
      <trkpt lat="42.506493022665381" lon="2.651487998664379">
        <ele>516.37</ele>
        <time>2025-05-15T09:51:45Z</time>
      </trkpt>
      <trkpt lat="42.506432002410293" lon="2.651657983660698">
        <ele>514.91999999999996</ele>
        <time>2025-05-15T09:51:46Z</time>
      </trkpt>
      <trkpt lat="42.50631901435554" lon="2.651782035827637">
        <ele>513.96000000000004</ele>
        <time>2025-05-15T09:51:47Z</time>
      </trkpt>
      <trkpt lat="42.506194962188601" lon="2.651906004175544">
        <ele>512.51999999999998</ele>
        <time>2025-05-15T09:51:48Z</time>
      </trkpt>
      <trkpt lat="42.506069988012314" lon="2.652050005272031">
        <ele>511.07999999999998</ele>
        <time>2025-05-15T09:51:49Z</time>
      </trkpt>
      <trkpt lat="42.505951970815659" lon="2.652205992490053">
        <ele>510.12</ele>
        <time>2025-05-15T09:51:50Z</time>
      </trkpt>
      <trkpt lat="42.505833031609654" lon="2.652366003021598">
        <ele>508.67000000000002</ele>
        <time>2025-05-15T09:51:51Z</time>
      </trkpt>
      <trkpt lat="42.505743009969592" lon="2.652557026594877">
        <ele>507.23000000000002</ele>
        <time>2025-05-15T09:51:52Z</time>
      </trkpt>
      <trkpt lat="42.505664974451065" lon="2.652755007147789">
        <ele>505.79000000000002</ele>
        <time>2025-05-15T09:51:53Z</time>
      </trkpt>
      <trkpt lat="42.505405973643064" lon="2.653356995433569">
        <ele>502.43000000000001</ele>
        <time>2025-05-15T09:51:56Z</time>
      </trkpt>
      <trkpt lat="42.50528896227479" lon="2.65346503816545">
        <ele>501.45999999999998</ele>
        <time>2025-05-15T09:51:57Z</time>
      </trkpt>
      <trkpt lat="42.505205981433392" lon="2.653540978208184">
        <ele>500.5</ele>
        <time>2025-05-15T09:51:58Z</time>
      </trkpt>
      <trkpt lat="42.505140015855432" lon="2.653537038713694">
        <ele>499.54000000000002</ele>
        <time>2025-05-15T09:51:59Z</time>
      </trkpt>
      <trkpt lat="42.505083018913865" lon="2.653500996530056">
        <ele>498.57999999999998</ele>
        <time>2025-05-15T09:52:00Z</time>
      </trkpt>
      <trkpt lat="42.505016969516873" lon="2.653460009023547">
        <ele>497.62</ele>
        <time>2025-05-15T09:52:01Z</time>
      </trkpt>
      <trkpt lat="42.504934994503856" lon="2.653408963233233">
        <ele>497.13999999999999</ele>
        <time>2025-05-15T09:52:02Z</time>
      </trkpt>
      <trkpt lat="42.504838015884161" lon="2.653349032625556">
        <ele>496.18000000000001</ele>
        <time>2025-05-15T09:52:03Z</time>
      </trkpt>
      <trkpt lat="42.504738019779325" lon="2.653286000713706">
        <ele>495.69999999999999</ele>
        <time>2025-05-15T09:52:04Z</time>
      </trkpt>
      <trkpt lat="42.504637017846107" lon="2.653222968801856">
        <ele>495.22000000000003</ele>
        <time>2025-05-15T09:52:05Z</time>
      </trkpt>
      <trkpt lat="42.504542972892523" lon="2.653163960203528">
        <ele>494.74000000000001</ele>
        <time>2025-05-15T09:52:06Z</time>
      </trkpt>
      <trkpt lat="42.504480024799705" lon="2.653087014332414">
        <ele>493.76999999999998</ele>
        <time>2025-05-15T09:52:07Z</time>
      </trkpt>
      <trkpt lat="42.504439959302545" lon="2.652958016842604">
        <ele>493.29000000000002</ele>
        <time>2025-05-15T09:52:08Z</time>
      </trkpt>
      <trkpt lat="42.504396038129926" lon="2.652813009917736">
        <ele>492.32999999999998</ele>
        <time>2025-05-15T09:52:09Z</time>
      </trkpt>
      <trkpt lat="42.504297969862819" lon="2.652495000511408">
        <ele>489.44999999999999</ele>
        <time>2025-05-15T09:52:11Z</time>
      </trkpt>
      <trkpt lat="42.504237033426762" lon="2.652297019958496">
        <ele>488.49000000000001</ele>
        <time>2025-05-15T09:52:12Z</time>
      </trkpt>
      <trkpt lat="42.504163021221757" lon="2.652182020246983">
        <ele>487.52999999999997</ele>
        <time>2025-05-15T09:52:13Z</time>
      </trkpt>
      <trkpt lat="42.503694975748658" lon="2.651413986459374">
        <ele>483.68000000000001</ele>
        <time>2025-05-15T09:52:18Z</time>
      </trkpt>
      <trkpt lat="42.503644013777375" lon="2.651250036433339">
        <ele>482.72000000000003</ele>
        <time>2025-05-15T09:52:19Z</time>
      </trkpt>
      <trkpt lat="42.503597997128963" lon="2.651097988709807">
        <ele>482.24000000000001</ele>
        <time>2025-05-15T09:52:20Z</time>
      </trkpt>
      <trkpt lat="42.503554997965693" lon="2.650960022583604">
        <ele>481.27999999999997</ele>
        <time>2025-05-15T09:52:21Z</time>
      </trkpt>
      <trkpt lat="42.503467993810773" lon="2.650890033692122">
        <ele>480.31999999999999</ele>
        <time>2025-05-15T09:52:22Z</time>
      </trkpt>
      <trkpt lat="42.503379983827472" lon="2.650856003165245">
        <ele>479.83999999999997</ele>
        <time>2025-05-15T09:52:23Z</time>
      </trkpt>
      <trkpt lat="42.503270013257861" lon="2.650846028700471">
        <ele>478.87</ele>
        <time>2025-05-15T09:52:24Z</time>
      </trkpt>
      <trkpt lat="42.503186026588082" lon="2.650837982073426">
        <ele>477.91000000000003</ele>
        <time>2025-05-15T09:52:25Z</time>
      </trkpt>
      <trkpt lat="42.503050994127989" lon="2.650742009282112">
        <ele>476.94999999999999</ele>
        <time>2025-05-15T09:52:26Z</time>
      </trkpt>
      <trkpt lat="42.502969019114971" lon="2.650618962943554">
        <ele>476.47000000000003</ele>
        <time>2025-05-15T09:52:27Z</time>
      </trkpt>
      <trkpt lat="42.502872040495276" lon="2.65045803040266">
        <ele>475.50999999999999</ele>
        <time>2025-05-15T09:52:28Z</time>
      </trkpt>
      <trkpt lat="42.502779001370072" lon="2.650303971022368">
        <ele>474.06999999999999</ele>
        <time>2025-05-15T09:52:29Z</time>
      </trkpt>
      <trkpt lat="42.502680011093616" lon="2.650203974917531">
        <ele>472.63</ele>
        <time>2025-05-15T09:52:30Z</time>
      </trkpt>
      <trkpt lat="42.502572974190116" lon="2.650155024603009">
        <ele>471.66000000000003</ele>
        <time>2025-05-15T09:52:31Z</time>
      </trkpt>
      <trkpt lat="42.502443976700306" lon="2.650125017389655">
        <ele>470.22000000000003</ele>
        <time>2025-05-15T09:52:32Z</time>
      </trkpt>
      <trkpt lat="42.502308022230864" lon="2.65009400434792">
        <ele>468.77999999999997</ele>
        <time>2025-05-15T09:52:33Z</time>
      </trkpt>
      <trkpt lat="42.502050027251244" lon="2.650056034326553">
        <ele>466.38</ele>
        <time>2025-05-15T09:52:35Z</time>
      </trkpt>
      <trkpt lat="42.501950031146407" lon="2.650084029883146">
        <ele>464.44999999999999</ele>
        <time>2025-05-15T09:52:36Z</time>
      </trkpt>
      <trkpt lat="42.501885993406177" lon="2.650142032653093">
        <ele>463.00999999999999</ele>
        <time>2025-05-15T09:52:37Z</time>
      </trkpt>
      <trkpt lat="42.5018519628793" lon="2.650203974917531">
        <ele>462.05000000000001</ele>
        <time>2025-05-15T09:52:38Z</time>
      </trkpt>
      <trkpt lat="42.501841988414526" lon="2.650302965193987">
        <ele>461.56999999999999</ele>
        <time>2025-05-15T09:52:39Z</time>
      </trkpt>
      <trkpt lat="42.501880964264274" lon="2.650422994047403">
        <ele>461.56999999999999</ele>
        <time>2025-05-15T09:52:40Z</time>
      </trkpt>
      <trkpt lat="42.501966962590814" lon="2.650488959625363">
        <ele>460.61000000000001</ele>
        <time>2025-05-15T09:52:41Z</time>
      </trkpt>
      <trkpt lat="42.502079028636217" lon="2.650575963780284">
        <ele>460.61000000000001</ele>
        <time>2025-05-15T09:52:42Z</time>
      </trkpt>
      <trkpt lat="42.502171983942389" lon="2.650680989027023">
        <ele>460.13</ele>
        <time>2025-05-15T09:52:43Z</time>
      </trkpt>
      <trkpt lat="42.502241972833872" lon="2.650774028152227">
        <ele>459.64999999999998</ele>
        <time>2025-05-15T09:52:44Z</time>
      </trkpt>
      <trkpt lat="42.502286983653903" lon="2.650913000106812">
        <ele>459.17000000000002</ele>
        <time>2025-05-15T09:52:45Z</time>
      </trkpt>
      <trkpt lat="42.502343980595469" lon="2.651087008416653">
        <ele>459.17000000000002</ele>
        <time>2025-05-15T09:52:46Z</time>
      </trkpt>
      <trkpt lat="42.502601975575089" lon="2.65187599696219">
        <ele>460.61000000000001</ele>
        <time>2025-05-15T09:52:51Z</time>
      </trkpt>
      <trkpt lat="42.502625025808811" lon="2.65200600028038">
        <ele>461.56999999999999</ele>
        <time>2025-05-15T09:52:52Z</time>
      </trkpt>
      <trkpt lat="42.502614967525005" lon="2.652179002761841">
        <ele>462.05000000000001</ele>
        <time>2025-05-15T09:52:53Z</time>
      </trkpt>
      <trkpt lat="42.502552019432187" lon="2.653327994048595">
        <ele>465.42000000000002</ele>
        <time>2025-05-15T09:52:58Z</time>
      </trkpt>
      <trkpt lat="42.502541961148381" lon="2.653498984873295">
        <ele>465.89999999999998</ele>
        <time>2025-05-15T09:52:59Z</time>
      </trkpt>
      <trkpt lat="42.502475995570421" lon="2.653629994019866">
        <ele>465.42000000000002</ele>
        <time>2025-05-15T09:53:00Z</time>
      </trkpt>
      <trkpt lat="42.502406006678939" lon="2.653738958761096">
        <ele>465.42000000000002</ele>
        <time>2025-05-15T09:53:01Z</time>
      </trkpt>
      <trkpt lat="42.502292012795806" lon="2.653840966522694">
        <ele>464.93000000000001</ele>
        <time>2025-05-15T09:53:02Z</time>
      </trkpt>
      <trkpt lat="42.502164021134377" lon="2.653955966234207">
        <ele>464.44999999999999</ele>
        <time>2025-05-15T09:53:03Z</time>
      </trkpt>
      <trkpt lat="42.502034017816186" lon="2.654070965945721">
        <ele>463.97000000000003</ele>
        <time>2025-05-15T09:53:04Z</time>
      </trkpt>
      <trkpt lat="42.501945002004504" lon="2.654230976477265">
        <ele>463.97000000000003</ele>
        <time>2025-05-15T09:53:05Z</time>
      </trkpt>
      <trkpt lat="42.501877024769783" lon="2.654373971745372">
        <ele>463.49000000000001</ele>
        <time>2025-05-15T09:53:06Z</time>
      </trkpt>
      <trkpt lat="42.501877024769783" lon="2.65451998449862">
        <ele>463.00999999999999</ele>
        <time>2025-05-15T09:53:07Z</time>
      </trkpt>
      <trkpt lat="42.501896973699331" lon="2.654668008908629">
        <ele>463.00999999999999</ele>
        <time>2025-05-15T09:53:08Z</time>
      </trkpt>
      <trkpt lat="42.501976015046239" lon="2.654790971428156">
        <ele>463.00999999999999</ele>
        <time>2025-05-15T09:53:09Z</time>
      </trkpt>
      <trkpt lat="42.502049021422863" lon="2.654919968917966">
        <ele>462.52999999999997</ele>
        <time>2025-05-15T09:53:10Z</time>
      </trkpt>
      <trkpt lat="42.502114987000823" lon="2.655062964186072">
        <ele>462.52999999999997</ele>
        <time>2025-05-15T09:53:11Z</time>
      </trkpt>
      <trkpt lat="42.50215002335608" lon="2.655197996646166">
        <ele>463.00999999999999</ele>
        <time>2025-05-15T09:53:12Z</time>
      </trkpt>
      <trkpt lat="42.502127978950739" lon="2.655360018834472">
        <ele>463.00999999999999</ele>
        <time>2025-05-15T09:53:13Z</time>
      </trkpt>
      <trkpt lat="42.502093026414514" lon="2.65552899800241">
        <ele>463.00999999999999</ele>
        <time>2025-05-15T09:53:14Z</time>
      </trkpt>
      <trkpt lat="42.502026977017522" lon="2.655713986605406">
        <ele>462.52999999999997</ele>
        <time>2025-05-15T09:53:15Z</time>
      </trkpt>
      <trkpt lat="42.50195799395442" lon="2.655907021835446">
        <ele>462.05000000000001</ele>
        <time>2025-05-15T09:53:16Z</time>
      </trkpt>
      <trkpt lat="42.501897979527712" lon="2.656073989346623">
        <ele>461.08999999999997</ele>
        <time>2025-05-15T09:53:17Z</time>
      </trkpt>
      <trkpt lat="42.501797983422875" lon="2.65619401820004">
        <ele>460.13</ele>
        <time>2025-05-15T09:53:18Z</time>
      </trkpt>
      <trkpt lat="42.501710979267955" lon="2.656298959627748">
        <ele>459.17000000000002</ele>
        <time>2025-05-15T09:53:19Z</time>
      </trkpt>
      <trkpt lat="42.501620035618544" lon="2.656343970447779">
        <ele>458.69</ele>
        <time>2025-05-15T09:53:20Z</time>
      </trkpt>
      <trkpt lat="42.501491960138083" lon="2.656369032338262">
        <ele>458.20999999999998</ele>
        <time>2025-05-15T09:53:21Z</time>
      </trkpt>
      <trkpt lat="42.501017963513732" lon="2.656456958502531">
        <ele>456.27999999999997</ele>
        <time>2025-05-15T09:53:24Z</time>
      </trkpt>
      <trkpt lat="42.500525023788214" lon="2.656395016238093">
        <ele>455.80000000000001</ele>
        <time>2025-05-15T09:53:27Z</time>
      </trkpt>
      <trkpt lat="42.500242972746491" lon="2.65623701736331">
        <ele>455.80000000000001</ele>
        <time>2025-05-15T09:53:29Z</time>
      </trkpt>
      <trkpt lat="42.500113975256681" lon="2.656164010986686">
        <ele>455.80000000000001</ele>
        <time>2025-05-15T09:53:30Z</time>
      </trkpt>
      <trkpt lat="42.499995036050677" lon="2.656097039580345">
        <ele>455.80000000000001</ele>
        <time>2025-05-15T09:53:31Z</time>
      </trkpt>
      <trkpt lat="42.499880036339164" lon="2.656033001840115">
        <ele>455.80000000000001</ele>
        <time>2025-05-15T09:53:32Z</time>
      </trkpt>
      <trkpt lat="42.499755984172225" lon="2.656041970476508">
        <ele>455.80000000000001</ele>
        <time>2025-05-15T09:53:33Z</time>
      </trkpt>
      <trkpt lat="42.499618018046021" lon="2.656097039580345">
        <ele>455.80000000000001</ele>
        <time>2025-05-15T09:53:34Z</time>
      </trkpt>
      <trkpt lat="42.49946597032249" lon="2.656157976016402">
        <ele>455.31999999999999</ele>
        <time>2025-05-15T09:53:35Z</time>
      </trkpt>
      <trkpt lat="42.499311994761229" lon="2.656220002099872">
        <ele>455.31999999999999</ele>
        <time>2025-05-15T09:53:36Z</time>
      </trkpt>
      <trkpt lat="42.499161036685109" lon="2.65628001652658">
        <ele>455.80000000000001</ele>
        <time>2025-05-15T09:53:37Z</time>
      </trkpt>
      <trkpt lat="42.499018963426352" lon="2.656337013468146">
        <ele>455.80000000000001</ele>
        <time>2025-05-15T09:53:38Z</time>
      </trkpt>
      <trkpt lat="42.498900024220347" lon="2.656437009572983">
        <ele>455.31999999999999</ele>
        <time>2025-05-15T09:53:39Z</time>
      </trkpt>
      <trkpt lat="42.49879902228713" lon="2.656543962657452">
        <ele>454.83999999999997</ele>
        <time>2025-05-15T09:53:40Z</time>
      </trkpt>
      <trkpt lat="42.498698020353913" lon="2.656652005389333">
        <ele>454.83999999999997</ele>
        <time>2025-05-15T09:53:41Z</time>
      </trkpt>
      <trkpt lat="42.498615039512515" lon="2.656739009544253">
        <ele>454.36000000000001</ele>
        <time>2025-05-15T09:53:42Z</time>
      </trkpt>
      <trkpt lat="42.498587965965271" lon="2.656845962628722">
        <ele>453.88</ele>
        <time>2025-05-15T09:53:43Z</time>
      </trkpt>
      <trkpt lat="42.498573968186975" lon="2.656922992318869">
        <ele>453.39999999999998</ele>
        <time>2025-05-15T09:53:44Z</time>
      </trkpt>
      <trkpt lat="42.498588971793652" lon="2.657042015343905">
        <ele>452.92000000000002</ele>
        <time>2025-05-15T09:53:45Z</time>
      </trkpt>
      <trkpt lat="42.498634988442063" lon="2.657112004235387">
        <ele>452.44</ele>
        <time>2025-05-15T09:53:46Z</time>
      </trkpt>
      <trkpt lat="42.498731967061758" lon="2.657181993126869">
        <ele>451.48000000000002</ele>
        <time>2025-05-15T09:53:47Z</time>
      </trkpt>
      <trkpt lat="42.498829029500484" lon="2.657252987846732">
        <ele>449.55000000000001</ele>
        <time>2025-05-15T09:53:48Z</time>
      </trkpt>
      <trkpt lat="42.498916033655405" lon="2.657316019758582">
        <ele>447.63</ele>
        <time>2025-05-15T09:53:49Z</time>
      </trkpt>
      <trkpt lat="42.499065985903144" lon="2.657424984499812">
        <ele>445.23000000000002</ele>
        <time>2025-05-15T09:53:50Z</time>
      </trkpt>
      <trkpt lat="42.499118959531188" lon="2.657559011131525">
        <ele>443.31</ele>
        <time>2025-05-15T09:53:51Z</time>
      </trkpt>
      <trkpt lat="42.499163970351219" lon="2.657738970592618">
        <ele>440.89999999999998</ele>
        <time>2025-05-15T09:53:52Z</time>
      </trkpt>
      <trkpt lat="42.499181991443038" lon="2.657889006659389">
        <ele>438.98000000000002</ele>
        <time>2025-05-15T09:53:53Z</time>
      </trkpt>
      <trkpt lat="42.499200012534857" lon="2.658041976392269">
        <ele>437.06</ele>
        <time>2025-05-15T09:53:54Z</time>
      </trkpt>
      <trkpt lat="42.499225996434689" lon="2.658187989145517">
        <ele>436.10000000000002</ele>
        <time>2025-05-15T09:53:55Z</time>
      </trkpt>
      <trkpt lat="42.499322975054383" lon="2.658308017998934">
        <ele>436.10000000000002</ele>
        <time>2025-05-15T09:53:56Z</time>
      </trkpt>
      <trkpt lat="42.499416014179587" lon="2.658423017710447">
        <ele>435.61000000000001</ele>
        <time>2025-05-15T09:53:57Z</time>
      </trkpt>
      <trkpt lat="42.499498995020986" lon="2.658528964966536">
        <ele>435.61000000000001</ele>
        <time>2025-05-15T09:53:58Z</time>
      </trkpt>
      <trkpt lat="42.49955297447741" lon="2.65866500325501">
        <ele>435.61000000000001</ele>
        <time>2025-05-15T09:53:59Z</time>
      </trkpt>
      <trkpt lat="42.499593961983919" lon="2.65885996632278">
        <ele>436.10000000000002</ele>
        <time>2025-05-15T09:54:00Z</time>
      </trkpt>
      <trkpt lat="42.499612988904119" lon="2.659047972410917">
        <ele>435.61000000000001</ele>
        <time>2025-05-15T09:54:01Z</time>
      </trkpt>
      <trkpt lat="42.499632015824318" lon="2.659230027347803">
        <ele>435.61000000000001</ele>
        <time>2025-05-15T09:54:02Z</time>
      </trkpt>
      <trkpt lat="42.499649031087756" lon="2.659401018172503">
        <ele>435.61000000000001</ele>
        <time>2025-05-15T09:54:03Z</time>
      </trkpt>
      <trkpt lat="42.499652970582247" lon="2.659621965140104">
        <ele>435.61000000000001</ele>
        <time>2025-05-15T09:54:04Z</time>
      </trkpt>
      <trkpt lat="42.499602008610964" lon="2.659807037562132">
        <ele>435.61000000000001</ele>
        <time>2025-05-15T09:54:05Z</time>
      </trkpt>
      <trkpt lat="42.4995500408113" lon="2.65999898314476">
        <ele>435.61000000000001</ele>
        <time>2025-05-15T09:54:06Z</time>
      </trkpt>
      <trkpt lat="42.499470999464393" lon="2.660337025299668">
        <ele>435.13</ele>
        <time>2025-05-15T09:54:08Z</time>
      </trkpt>
      <trkpt lat="42.499464964494109" lon="2.66051103360951">
        <ele>435.13</ele>
        <time>2025-05-15T09:54:09Z</time>
      </trkpt>
      <trkpt lat="42.499459013342857" lon="2.660680012777448">
        <ele>434.64999999999998</ele>
        <time>2025-05-15T09:54:10Z</time>
      </trkpt>
      <trkpt lat="42.499445015564561" lon="2.660872964188457">
        <ele>434.64999999999998</ele>
        <time>2025-05-15T09:54:11Z</time>
      </trkpt>
      <trkpt lat="42.499365974217653" lon="2.661024006083608">
        <ele>434.17000000000002</ele>
        <time>2025-05-15T09:54:12Z</time>
      </trkpt>
      <trkpt lat="42.499276958405972" lon="2.661196002736688">
        <ele>434.17000000000002</ele>
        <time>2025-05-15T09:54:13Z</time>
      </trkpt>
      <trkpt lat="42.49918601475656" lon="2.66137202270329">
        <ele>433.20999999999998</ele>
        <time>2025-05-15T09:54:14Z</time>
      </trkpt>
      <trkpt lat="42.499119965359569" lon="2.661541001871228">
        <ele>432.25</ele>
        <time>2025-05-15T09:54:15Z</time>
      </trkpt>
      <trkpt lat="42.499086018651724" lon="2.661739988252521">
        <ele>431.76999999999998</ele>
        <time>2025-05-15T09:54:16Z</time>
      </trkpt>
      <trkpt lat="42.499052993953228" lon="2.661926988512278">
        <ele>430.81</ele>
        <time>2025-05-15T09:54:17Z</time>
      </trkpt>
      <trkpt lat="42.499019969254732" lon="2.662108037620783">
        <ele>429.85000000000002</ele>
        <time>2025-05-15T09:54:18Z</time>
      </trkpt>
      <trkpt lat="42.498916033655405" lon="2.66231800429523">
        <ele>429.37</ele>
        <time>2025-05-15T09:54:19Z</time>
      </trkpt>
      <trkpt lat="42.498837998136878" lon="2.662405008450151">
        <ele>428.39999999999998</ele>
        <time>2025-05-15T09:54:20Z</time>
      </trkpt>
      <trkpt lat="42.498696008697152" lon="2.662538029253483">
        <ele>427.44</ele>
        <time>2025-05-15T09:54:21Z</time>
      </trkpt>
      <trkpt lat="42.49854102730751" lon="2.662626039236784">
        <ele>426.95999999999998</ele>
        <time>2025-05-15T09:54:22Z</time>
      </trkpt>
      <trkpt lat="42.498381016775966" lon="2.662715977057815">
        <ele>426.48000000000002</ele>
        <time>2025-05-15T09:54:23Z</time>
      </trkpt>
      <trkpt lat="42.498049009591341" lon="2.662903983145952">
        <ele>425.51999999999998</ele>
        <time>2025-05-15T09:54:25Z</time>
      </trkpt>
      <trkpt lat="42.497748015448451" lon="2.663075979799032">
        <ele>424.56</ele>
        <time>2025-05-15T09:54:27Z</time>
      </trkpt>
      <trkpt lat="42.497616000473499" lon="2.66317798756063">
        <ele>424.56</ele>
        <time>2025-05-15T09:54:28Z</time>
      </trkpt>
      <trkpt lat="42.497502006590366" lon="2.663303967565298">
        <ele>424.07999999999998</ele>
        <time>2025-05-15T09:54:29Z</time>
      </trkpt>
      <trkpt lat="42.497406033799052" lon="2.66343698836863">
        <ele>423.60000000000002</ele>
        <time>2025-05-15T09:54:30Z</time>
      </trkpt>
      <trkpt lat="42.497355993837118" lon="2.663601022213697">
        <ele>423.60000000000002</ele>
        <time>2025-05-15T09:54:31Z</time>
      </trkpt>
      <trkpt lat="42.497334033250809" lon="2.66378098167479">
        <ele>423.12</ele>
        <time>2025-05-15T09:54:32Z</time>
      </trkpt>
      <trkpt lat="42.497350964695215" lon="2.663970999419689">
        <ele>422.63999999999999</ele>
        <time>2025-05-15T09:54:33Z</time>
      </trkpt>
      <trkpt lat="42.497369991615415" lon="2.664177026599646">
        <ele>422.16000000000003</ele>
        <time>2025-05-15T09:54:34Z</time>
      </trkpt>
      <trkpt lat="42.497356999665499" lon="2.66436000354588">
        <ele>422.16000000000003</ele>
        <time>2025-05-15T09:54:35Z</time>
      </trkpt>
      <trkpt lat="42.497321963310242" lon="2.664527976885438">
        <ele>422.16000000000003</ele>
        <time>2025-05-15T09:54:36Z</time>
      </trkpt>
      <trkpt lat="42.497241999953985" lon="2.664717994630337">
        <ele>421.68000000000001</ele>
        <time>2025-05-15T09:54:37Z</time>
      </trkpt>
      <trkpt lat="42.497177962213755" lon="2.664870964363217">
        <ele>421.68000000000001</ele>
        <time>2025-05-15T09:54:38Z</time>
      </trkpt>
      <trkpt lat="42.497053993865848" lon="2.665042961016297">
        <ele>421.19</ele>
        <time>2025-05-15T09:54:39Z</time>
      </trkpt>
      <trkpt lat="42.496945029124618" lon="2.665194002911449">
        <ele>421.19</ele>
        <time>2025-05-15T09:54:40Z</time>
      </trkpt>
      <trkpt lat="42.496847966685891" lon="2.665329035371542">
        <ele>420.23000000000002</ele>
        <time>2025-05-15T09:54:41Z</time>
      </trkpt>
      <trkpt lat="42.496768003329635" lon="2.665470018982887">
        <ele>420.23000000000002</ele>
        <time>2025-05-15T09:54:42Z</time>
      </trkpt>
      <trkpt lat="42.4967369902879" lon="2.665647966787219">
        <ele>419.75</ele>
        <time>2025-05-15T09:54:43Z</time>
      </trkpt>
      <trkpt lat="42.496773032471538" lon="2.665795991197228">
        <ele>419.75</ele>
        <time>2025-05-15T09:54:44Z</time>
      </trkpt>
      <trkpt lat="42.496827011927962" lon="2.665946027263999">
        <ele>419.26999999999998</ele>
        <time>2025-05-15T09:54:45Z</time>
      </trkpt>
      <trkpt lat="42.496942011639476" lon="2.666287003085017">
        <ele>418.31</ele>
        <time>2025-05-15T09:54:47Z</time>
      </trkpt>
      <trkpt lat="42.49695198610425" lon="2.666445001959801">
        <ele>418.31</ele>
        <time>2025-05-15T09:54:48Z</time>
      </trkpt>
      <trkpt lat="42.496962966397405" lon="2.666609035804868">
        <ele>417.82999999999998</ele>
        <time>2025-05-15T09:54:49Z</time>
      </trkpt>
      <trkpt lat="42.496942011639476" lon="2.666781032457948">
        <ele>417.35000000000002</ele>
        <time>2025-05-15T09:54:50Z</time>
      </trkpt>
      <trkpt lat="42.49688602052629" lon="2.66687398776412">
        <ele>417.35000000000002</ele>
        <time>2025-05-15T09:54:51Z</time>
      </trkpt>
      <trkpt lat="42.496804967522621" lon="2.667009020224214">
        <ele>416.87</ele>
        <time>2025-05-15T09:54:52Z</time>
      </trkpt>
      <trkpt lat="42.496715029701591" lon="2.667158972471952">
        <ele>416.87</ele>
        <time>2025-05-15T09:54:53Z</time>
      </trkpt>
      <trkpt lat="42.496659960597754" lon="2.667352007701993">
        <ele>416.87</ele>
        <time>2025-05-15T09:54:54Z</time>
      </trkpt>
      <trkpt lat="42.49662802554667" lon="2.667545964941382">
        <ele>416.87</ele>
        <time>2025-05-15T09:54:55Z</time>
      </trkpt>
      <trkpt lat="42.496600029990077" lon="2.667714022099972">
        <ele>416.87</ele>
        <time>2025-05-15T09:54:56Z</time>
      </trkpt>
      <trkpt lat="42.49656499363482" lon="2.667864980176091">
        <ele>416.87</ele>
        <time>2025-05-15T09:54:57Z</time>
      </trkpt>
      <trkpt lat="42.496470026671886" lon="2.667961036786437">
        <ele>416.87</ele>
        <time>2025-05-15T09:54:58Z</time>
      </trkpt>
      <trkpt lat="42.496361983940005" lon="2.668068995699287">
        <ele>416.87</ele>
        <time>2025-05-15T09:54:59Z</time>
      </trkpt>
      <trkpt lat="42.496018996462226" lon="2.668411983177066">
        <ele>417.35000000000002</ele>
        <time>2025-05-15T09:55:02Z</time>
      </trkpt>
      <trkpt lat="42.495977003127337" lon="2.668545003980398">
        <ele>417.35000000000002</ele>
        <time>2025-05-15T09:55:03Z</time>
      </trkpt>
      <trkpt lat="42.495922017842531" lon="2.668718006461859">
        <ele>417.82999999999998</ele>
        <time>2025-05-15T09:55:04Z</time>
      </trkpt>
      <trkpt lat="42.495309971272945" lon="2.670280979946256">
        <ele>418.31</ele>
        <time>2025-05-15T09:55:12Z</time>
      </trkpt>
      <trkpt lat="42.495006965473294" lon="2.671010037884116">
        <ele>417.82999999999998</ele>
        <time>2025-05-15T09:55:16Z</time>
      </trkpt>
      <trkpt lat="42.494990034028888" lon="2.671208018437028">
        <ele>417.35000000000002</ele>
        <time>2025-05-15T09:55:17Z</time>
      </trkpt>
      <trkpt lat="42.494957009330392" lon="2.671587970107794">
        <ele>416.38999999999999</ele>
        <time>2025-05-15T09:55:19Z</time>
      </trkpt>
      <trkpt lat="42.49493001960218" lon="2.671744041144848">
        <ele>415.91000000000003</ele>
        <time>2025-05-15T09:55:20Z</time>
      </trkpt>
      <trkpt lat="42.494861958548427" lon="2.671862980350852">
        <ele>414.94999999999999</ele>
        <time>2025-05-15T09:55:21Z</time>
      </trkpt>
      <trkpt lat="42.494772020727396" lon="2.67192198894918">
        <ele>414.47000000000003</ele>
        <time>2025-05-15T09:55:22Z</time>
      </trkpt>
      <trkpt lat="42.494685016572475" lon="2.671973034739494">
        <ele>413.98000000000002</ele>
        <time>2025-05-15T09:55:23Z</time>
      </trkpt>
      <trkpt lat="42.49458602629602" lon="2.671955013647676">
        <ele>413.5</ele>
        <time>2025-05-15T09:55:24Z</time>
      </trkpt>
      <trkpt lat="42.494451999664307" lon="2.671931041404605">
        <ele>413.01999999999998</ele>
        <time>2025-05-15T09:55:25Z</time>
      </trkpt>
      <trkpt lat="42.494370024651289" lon="2.671831967309117">
        <ele>412.54000000000002</ele>
        <time>2025-05-15T09:55:26Z</time>
      </trkpt>
      <trkpt lat="42.494267011061311" lon="2.67170799896121">
        <ele>412.06</ele>
        <time>2025-05-15T09:55:27Z</time>
      </trkpt>
      <trkpt lat="42.4941570404917" lon="2.671575983986259">
        <ele>411.10000000000002</ele>
        <time>2025-05-15T09:55:28Z</time>
      </trkpt>
      <trkpt lat="42.4940500035882" lon="2.67142896540463">
        <ele>410.62</ele>
        <time>2025-05-15T09:55:29Z</time>
      </trkpt>
      <trkpt lat="42.493949001654983" lon="2.671248000115156">
        <ele>409.66000000000003</ele>
        <time>2025-05-15T09:55:30Z</time>
      </trkpt>
      <trkpt lat="42.493871971964836" lon="2.671048007905483">
        <ele>409.18000000000001</ele>
        <time>2025-05-15T09:55:31Z</time>
      </trkpt>
      <trkpt lat="42.493582963943481" lon="2.670339988544583">
        <ele>406.76999999999998</ele>
        <time>2025-05-15T09:55:35Z</time>
      </trkpt>
      <trkpt lat="42.493515992537141" lon="2.67024602741003">
        <ele>405.81</ele>
        <time>2025-05-15T09:55:36Z</time>
      </trkpt>
      <trkpt lat="42.493420019745827" lon="2.670235969126225">
        <ele>404.85000000000002</ele>
        <time>2025-05-15T09:55:37Z</time>
      </trkpt>
      <trkpt lat="42.493343995884061" lon="2.67029196023941">
        <ele>403.88999999999999</ele>
        <time>2025-05-15T09:55:38Z</time>
      </trkpt>
      <trkpt lat="42.493318011984229" lon="2.670403020456433">
        <ele>402.44999999999999</ele>
        <time>2025-05-15T09:55:39Z</time>
      </trkpt>
      <trkpt lat="42.493291022256017" lon="2.670548027381301">
        <ele>401.49000000000001</ele>
        <time>2025-05-15T09:55:40Z</time>
      </trkpt>
      <trkpt lat="42.493260009214282" lon="2.670714994892478">
        <ele>400.05000000000001</ele>
        <time>2025-05-15T09:55:41Z</time>
      </trkpt>
      <trkpt lat="42.493228996172547" lon="2.670879028737545">
        <ele>399.07999999999998</ele>
        <time>2025-05-15T09:55:42Z</time>
      </trkpt>
      <trkpt lat="42.493137968704104" lon="2.67101900652051">
        <ele>398.12</ele>
        <time>2025-05-15T09:55:43Z</time>
      </trkpt>
      <trkpt lat="42.493035038933158" lon="2.671174993738532">
        <ele>397.16000000000003</ele>
        <time>2025-05-15T09:55:44Z</time>
      </trkpt>
      <trkpt lat="42.492929007858038" lon="2.671336010098457">
        <ele>396.19999999999999</ele>
        <time>2025-05-15T09:55:45Z</time>
      </trkpt>
      <trkpt lat="42.492822976782918" lon="2.671498032286763">
        <ele>394.75999999999999</ele>
        <time>2025-05-15T09:55:46Z</time>
      </trkpt>
      <trkpt lat="42.492738990113139" lon="2.671690983697772">
        <ele>393.31999999999999</ele>
        <time>2025-05-15T09:55:47Z</time>
      </trkpt>
      <trkpt lat="42.492673024535179" lon="2.671893993392587">
        <ele>391.38999999999999</ele>
        <time>2025-05-15T09:55:48Z</time>
      </trkpt>
      <trkpt lat="42.492457022890449" lon="2.672529006376863">
        <ele>387.55000000000001</ele>
        <time>2025-05-15T09:55:51Z</time>
      </trkpt>
      <trkpt lat="42.492371024563909" lon="2.672767974436283">
        <ele>387.06999999999999</ele>
        <time>2025-05-15T09:55:52Z</time>
      </trkpt>
      <trkpt lat="42.491848999634385" lon="2.674284009262919">
        <ele>380.81999999999999</ele>
        <time>2025-05-15T09:55:59Z</time>
      </trkpt>
      <trkpt lat="42.491654958575964" lon="2.67467200756073">
        <ele>377.94</ele>
        <time>2025-05-15T09:56:01Z</time>
      </trkpt>
      <trkpt lat="42.491583041846752" lon="2.674889015033841">
        <ele>376.49000000000001</ele>
        <time>2025-05-15T09:56:02Z</time>
      </trkpt>
      <trkpt lat="42.491527972742915" lon="2.675109962001443">
        <ele>375.05000000000001</ele>
        <time>2025-05-15T09:56:03Z</time>
      </trkpt>
      <trkpt lat="42.491385983303189" lon="2.675713039934635">
        <ele>370.73000000000002</ele>
        <time>2025-05-15T09:56:06Z</time>
      </trkpt>
      <trkpt lat="42.491402998566628" lon="2.675905991345644">
        <ele>369.27999999999997</ele>
        <time>2025-05-15T09:56:07Z</time>
      </trkpt>
      <trkpt lat="42.491562003269792" lon="2.677493020892143">
        <ele>363.04000000000002</ele>
        <time>2025-05-15T09:56:14Z</time>
      </trkpt>
      <trkpt lat="42.491630986332893" lon="2.67772302031517">
        <ele>362.06999999999999</ele>
        <time>2025-05-15T09:56:15Z</time>
      </trkpt>
      <trkpt lat="42.491702986881137" lon="2.67795997671783">
        <ele>362.06999999999999</ele>
        <time>2025-05-15T09:56:16Z</time>
      </trkpt>
      <trkpt lat="42.49211797490716" lon="2.67933402210474">
        <ele>359.67000000000002</ele>
        <time>2025-05-15T09:56:22Z</time>
      </trkpt>
      <trkpt lat="42.492162985727191" lon="2.67952797934413">
        <ele>359.19</ele>
        <time>2025-05-15T09:56:23Z</time>
      </trkpt>
      <trkpt lat="42.492171032354236" lon="2.67972000874579">
        <ele>358.70999999999998</ele>
        <time>2025-05-15T09:56:24Z</time>
      </trkpt>
      <trkpt lat="42.492135995998979" lon="2.67993500456214">
        <ele>358.23000000000002</ele>
        <time>2025-05-15T09:56:25Z</time>
      </trkpt>
      <trkpt lat="42.49209601432085" lon="2.680182019248605">
        <ele>357.26999999999998</ele>
        <time>2025-05-15T09:56:26Z</time>
      </trkpt>
      <trkpt lat="42.492048991844058" lon="2.680471027269959">
        <ele>356.31</ele>
        <time>2025-05-15T09:56:27Z</time>
      </trkpt>
      <trkpt lat="42.492066007107496" lon="2.680717036128044">
        <ele>355.82999999999998</ele>
        <time>2025-05-15T09:56:28Z</time>
      </trkpt>
      <trkpt lat="42.492081010714173" lon="2.680951980873942">
        <ele>355.82999999999998</ele>
        <time>2025-05-15T09:56:29Z</time>
      </trkpt>
      <trkpt lat="42.492124009877443" lon="2.681168988347054">
        <ele>355.82999999999998</ele>
        <time>2025-05-15T09:56:30Z</time>
      </trkpt>
      <trkpt lat="42.492209002375603" lon="2.681312989443541">
        <ele>356.31</ele>
        <time>2025-05-15T09:56:31Z</time>
      </trkpt>
      <trkpt lat="42.492298018187284" lon="2.681465959176421">
        <ele>356.31</ele>
        <time>2025-05-15T09:56:32Z</time>
      </trkpt>
      <trkpt lat="42.492388039827347" lon="2.681619012728334">
        <ele>356.31</ele>
        <time>2025-05-15T09:56:33Z</time>
      </trkpt>
      <trkpt lat="42.492469009011984" lon="2.681773994117975">
        <ele>355.82999999999998</ele>
        <time>2025-05-15T09:56:34Z</time>
      </trkpt>
      <trkpt lat="42.492520976811647" lon="2.681929981335998">
        <ele>355.82999999999998</ele>
        <time>2025-05-15T09:56:35Z</time>
      </trkpt>
      <trkpt lat="42.492520976811647" lon="2.682122010737658">
        <ele>355.33999999999997</ele>
        <time>2025-05-15T09:56:36Z</time>
      </trkpt>
      <trkpt lat="42.492484012618661" lon="2.6822579652071">
        <ele>354.86000000000001</ele>
        <time>2025-05-15T09:56:37Z</time>
      </trkpt>
      <trkpt lat="42.492432966828346" lon="2.682408001273871">
        <ele>354.38</ele>
        <time>2025-05-15T09:56:38Z</time>
      </trkpt>
      <trkpt lat="42.492362977936864" lon="2.682530041784048">
        <ele>353.89999999999998</ele>
        <time>2025-05-15T09:56:39Z</time>
      </trkpt>
      <trkpt lat="42.492262981832027" lon="2.682656021788716">
        <ele>353.42000000000002</ele>
        <time>2025-05-15T09:56:40Z</time>
      </trkpt>
      <trkpt lat="42.492156028747559" lon="2.682788958773017">
        <ele>352.45999999999998</ele>
        <time>2025-05-15T09:56:41Z</time>
      </trkpt>
      <trkpt lat="42.492047986015677" lon="2.682947963476181">
        <ele>351.01999999999998</ele>
        <time>2025-05-15T09:56:42Z</time>
      </trkpt>
      <trkpt lat="42.49196601100266" lon="2.683135969564319">
        <ele>350.54000000000002</ele>
        <time>2025-05-15T09:56:43Z</time>
      </trkpt>
      <trkpt lat="42.491885963827372" lon="2.683339985087514">
        <ele>349.57999999999998</ele>
        <time>2025-05-15T09:56:44Z</time>
      </trkpt>
      <trkpt lat="42.491811029613018" lon="2.683560010045767">
        <ele>348.62</ele>
        <time>2025-05-15T09:56:45Z</time>
      </trkpt>
      <trkpt lat="42.491213986650109" lon="2.685315012931824">
        <ele>342.37</ele>
        <time>2025-05-15T09:56:53Z</time>
      </trkpt>
      <trkpt lat="42.491122959181666" lon="2.685422971844673">
        <ele>341.41000000000003</ele>
        <time>2025-05-15T09:56:54Z</time>
      </trkpt>
      <trkpt lat="42.491071997210383" lon="2.68548097461462">
        <ele>340.92000000000002</ele>
        <time>2025-05-15T09:56:55Z</time>
      </trkpt>
      <trkpt lat="42.491013994440436" lon="2.685492038726807">
        <ele>340.44</ele>
        <time>2025-05-15T09:56:56Z</time>
      </trkpt>
      <trkpt lat="42.49095699749887" lon="2.685492038726807">
        <ele>339.95999999999998</ele>
        <time>2025-05-15T09:56:57Z</time>
      </trkpt>
      <trkpt lat="42.490907963365316" lon="2.685461025685072">
        <ele>339</ele>
        <time>2025-05-15T09:56:58Z</time>
      </trkpt>
      <trkpt lat="42.490859013050795" lon="2.685401011258364">
        <ele>339</ele>
        <time>2025-05-15T09:56:59Z</time>
      </trkpt>
      <trkpt lat="42.490797992795706" lon="2.685326999053359">
        <ele>338.51999999999998</ele>
        <time>2025-05-15T09:57:00Z</time>
      </trkpt>
      <trkpt lat="42.490734038874507" lon="2.685235971584916">
        <ele>337.56</ele>
        <time>2025-05-15T09:57:01Z</time>
      </trkpt>
      <trkpt lat="42.490695985034108" lon="2.685110997408629">
        <ele>337.07999999999998</ele>
        <time>2025-05-15T09:57:02Z</time>
      </trkpt>
      <trkpt lat="42.490653991699219" lon="2.684973031282425">
        <ele>336.12</ele>
        <time>2025-05-15T09:57:03Z</time>
      </trkpt>
      <trkpt lat="42.490609986707568" lon="2.684828024357557">
        <ele>335.63999999999999</ele>
        <time>2025-05-15T09:57:04Z</time>
      </trkpt>
      <trkpt lat="42.49059003777802" lon="2.684673964977264">
        <ele>334.68000000000001</ele>
        <time>2025-05-15T09:57:05Z</time>
      </trkpt>
      <trkpt lat="42.49059003777802" lon="2.684528036043048">
        <ele>334.19999999999999</ele>
        <time>2025-05-15T09:57:06Z</time>
      </trkpt>
      <trkpt lat="42.49059003777802" lon="2.684355033561587">
        <ele>333.23000000000002</ele>
        <time>2025-05-15T09:57:07Z</time>
      </trkpt>
      <trkpt lat="42.490614010021091" lon="2.684236010536552">
        <ele>332.26999999999998</ele>
        <time>2025-05-15T09:57:08Z</time>
      </trkpt>
      <trkpt lat="42.490707971155643" lon="2.683763019740582">
        <ele>330.35000000000002</ele>
        <time>2025-05-15T09:57:11Z</time>
      </trkpt>
      <trkpt lat="42.490681987255812" lon="2.683613989502192">
        <ele>329.38999999999999</ele>
        <time>2025-05-15T09:57:12Z</time>
      </trkpt>
      <trkpt lat="42.490631025284529" lon="2.683475017547607">
        <ele>329.38999999999999</ele>
        <time>2025-05-15T09:57:13Z</time>
      </trkpt>
      <trkpt lat="42.490579979494214" lon="2.683341996744275">
        <ele>328.91000000000003</ele>
        <time>2025-05-15T09:57:14Z</time>
      </trkpt>
      <trkpt lat="42.490535974502563" lon="2.683222973719239">
        <ele>328.43000000000001</ele>
        <time>2025-05-15T09:57:15Z</time>
      </trkpt>
      <trkpt lat="42.490526000037789" lon="2.683097999542952">
        <ele>328.43000000000001</ele>
        <time>2025-05-15T09:57:16Z</time>
      </trkpt>
      <trkpt lat="42.490553995594382" lon="2.682950980961323">
        <ele>327.94999999999999</ele>
        <time>2025-05-15T09:57:17Z</time>
      </trkpt>
      <trkpt lat="42.490593977272511" lon="2.682780995965004">
        <ele>327.94999999999999</ele>
        <time>2025-05-15T09:57:18Z</time>
      </trkpt>
      <trkpt lat="42.490647034719586" lon="2.682429039850831">
        <ele>326.99000000000001</ele>
        <time>2025-05-15T09:57:20Z</time>
      </trkpt>
      <trkpt lat="42.490633958950639" lon="2.682243967428803">
        <ele>326.5</ele>
        <time>2025-05-15T09:57:21Z</time>
      </trkpt>
      <trkpt lat="42.490611998364329" lon="2.681929981335998">
        <ele>326.01999999999998</ele>
        <time>2025-05-15T09:57:23Z</time>
      </trkpt>
      <trkpt lat="42.490652985870838" lon="2.681765025481582">
        <ele>325.54000000000002</ele>
        <time>2025-05-15T09:57:24Z</time>
      </trkpt>
      <trkpt lat="42.490687016397715" lon="2.681628987193108">
        <ele>324.57999999999998</ele>
        <time>2025-05-15T09:57:25Z</time>
      </trkpt>
      <trkpt lat="42.49071903526783" lon="2.681500995531678">
        <ele>324.10000000000002</ele>
        <time>2025-05-15T09:57:26Z</time>
      </trkpt>
      <trkpt lat="42.490710988640785" lon="2.681360011920333">
        <ele>323.62</ele>
        <time>2025-05-15T09:57:27Z</time>
      </trkpt>
      <trkpt lat="42.490648962557316" lon="2.681256998330355">
        <ele>323.62</ele>
        <time>2025-05-15T09:57:28Z</time>
      </trkpt>
      <trkpt lat="42.490574028342962" lon="2.681135041639209">
        <ele>323.13999999999999</ele>
        <time>2025-05-15T09:57:29Z</time>
      </trkpt>
      <trkpt lat="42.490494986996055" lon="2.681005038321018">
        <ele>322.66000000000003</ele>
        <time>2025-05-15T09:57:30Z</time>
      </trkpt>
      <trkpt lat="42.49042097479105" lon="2.68088199198246">
        <ele>322.18000000000001</ele>
        <time>2025-05-15T09:57:31Z</time>
      </trkpt>
      <trkpt lat="42.49041804112494" lon="2.680749977007508">
        <ele>321.69999999999999</ele>
        <time>2025-05-15T09:57:32Z</time>
      </trkpt>
      <trkpt lat="42.49041804112494" lon="2.68058099783957">
        <ele>320.74000000000001</ele>
        <time>2025-05-15T09:57:33Z</time>
      </trkpt>
      <trkpt lat="42.49041804112494" lon="2.680413024500012">
        <ele>320.25999999999999</ele>
        <time>2025-05-15T09:57:34Z</time>
      </trkpt>
      <trkpt lat="42.49041804112494" lon="2.680251002311707">
        <ele>319.77999999999997</ele>
        <time>2025-05-15T09:57:35Z</time>
      </trkpt>
      <trkpt lat="42.490387028083205" lon="2.680091997608542">
        <ele>319.30000000000001</ele>
        <time>2025-05-15T09:57:36Z</time>
      </trkpt>
      <trkpt lat="42.49031201004982" lon="2.679952019825578">
        <ele>319.30000000000001</ele>
        <time>2025-05-15T09:57:37Z</time>
      </trkpt>
      <trkpt lat="42.490218970924616" lon="2.679818999022245">
        <ele>318.81</ele>
        <time>2025-05-15T09:57:38Z</time>
      </trkpt>
      <trkpt lat="42.49011998064816" lon="2.6796780154109">
        <ele>318.81</ele>
        <time>2025-05-15T09:57:39Z</time>
      </trkpt>
      <trkpt lat="42.490023002028465" lon="2.679539965465665">
        <ele>318.81</ele>
        <time>2025-05-15T09:57:40Z</time>
      </trkpt>
      <trkpt lat="42.489933986216784" lon="2.679413985460997">
        <ele>318.81</ele>
        <time>2025-05-15T09:57:41Z</time>
      </trkpt>
      <trkpt lat="42.489766012877226" lon="2.679225979372859">
        <ele>318.81</ele>
        <time>2025-05-15T09:57:43Z</time>
      </trkpt>
      <trkpt lat="42.48966702260077" lon="2.67918398603797">
        <ele>318.32999999999998</ele>
        <time>2025-05-15T09:57:44Z</time>
      </trkpt>
      <trkpt lat="42.489600973203778" lon="2.679234025999904">
        <ele>317.85000000000002</ele>
        <time>2025-05-15T09:57:45Z</time>
      </trkpt>
      <trkpt lat="42.489546993747354" lon="2.679325975477696">
        <ele>317.85000000000002</ele>
        <time>2025-05-15T09:57:46Z</time>
      </trkpt>
      <trkpt lat="42.48949502594769" lon="2.679439969360828">
        <ele>316.88999999999999</ele>
        <time>2025-05-15T09:57:47Z</time>
      </trkpt>
      <trkpt lat="42.489438029006124" lon="2.679567039012909">
        <ele>316.41000000000003</ele>
        <time>2025-05-15T09:57:48Z</time>
      </trkpt>
      <trkpt lat="42.489365022629499" lon="2.679703999310732">
        <ele>315.44999999999999</ele>
        <time>2025-05-15T09:57:49Z</time>
      </trkpt>
      <trkpt lat="42.489258991554379" lon="2.679824028164148">
        <ele>314.97000000000003</ele>
        <time>2025-05-15T09:57:50Z</time>
      </trkpt>
      <trkpt lat="42.489148015156388" lon="2.679952019825578">
        <ele>314.49000000000001</ele>
        <time>2025-05-15T09:57:51Z</time>
      </trkpt>
      <trkpt lat="42.489032009616494" lon="2.680051010102034">
        <ele>314.00999999999999</ele>
        <time>2025-05-15T09:57:52Z</time>
      </trkpt>
      <trkpt lat="42.488922039046884" lon="2.680111024528742">
        <ele>313.05000000000001</ele>
        <time>2025-05-15T09:57:53Z</time>
      </trkpt>
      <trkpt lat="42.48883000575006" lon="2.680131979286671">
        <ele>312.56999999999999</ele>
        <time>2025-05-15T09:57:54Z</time>
      </trkpt>
      <trkpt lat="42.488753981888294" lon="2.680075988173485">
        <ele>312.56999999999999</ele>
        <time>2025-05-15T09:57:55Z</time>
      </trkpt>
      <trkpt lat="42.488677036017179" lon="2.680005999282002">
        <ele>312.56999999999999</ele>
        <time>2025-05-15T09:57:56Z</time>
      </trkpt>
      <trkpt lat="42.488647028803825" lon="2.679874990135431">
        <ele>312.08999999999997</ele>
        <time>2025-05-15T09:57:57Z</time>
      </trkpt>
      <trkpt lat="42.488616015762091" lon="2.679711040109396">
        <ele>311.12</ele>
        <time>2025-05-15T09:57:58Z</time>
      </trkpt>
      <trkpt lat="42.488616015762091" lon="2.679518004879355">
        <ele>310.63999999999999</ele>
        <time>2025-05-15T09:57:59Z</time>
      </trkpt>
      <trkpt lat="42.488611992448568" lon="2.679089019075036">
        <ele>309.19999999999999</ele>
        <time>2025-05-15T09:58:01Z</time>
      </trkpt>
      <trkpt lat="42.488586008548737" lon="2.678877040743828">
        <ele>308.72000000000003</ele>
        <time>2025-05-15T09:58:02Z</time>
      </trkpt>
      <trkpt lat="42.488560024648905" lon="2.678670007735491">
        <ele>307.75999999999999</ele>
        <time>2025-05-15T09:58:03Z</time>
      </trkpt>
      <trkpt lat="42.488530017435551" lon="2.678431961685419">
        <ele>307.27999999999997</ele>
        <time>2025-05-15T09:58:04Z</time>
      </trkpt>
      <trkpt lat="42.488481989130378" lon="2.67828200943768">
        <ele>306.31999999999999</ele>
        <time>2025-05-15T09:58:05Z</time>
      </trkpt>
      <trkpt lat="42.488429015502334" lon="2.678114958107472">
        <ele>305.83999999999997</ele>
        <time>2025-05-15T09:58:06Z</time>
      </trkpt>
      <trkpt lat="42.488382998853922" lon="2.677969029173255">
        <ele>304.88</ele>
        <time>2025-05-15T09:58:07Z</time>
      </trkpt>
      <trkpt lat="42.488279985263944" lon="2.677880013361573">
        <ele>304.38999999999999</ele>
        <time>2025-05-15T09:58:08Z</time>
      </trkpt>
      <trkpt lat="42.488173032179475" lon="2.677792003378272">
        <ele>303.91000000000003</ele>
        <time>2025-05-15T09:58:09Z</time>
      </trkpt>
      <trkpt lat="42.488072030246258" lon="2.677710028365254">
        <ele>302.94999999999999</ele>
        <time>2025-05-15T09:58:10Z</time>
      </trkpt>
      <trkpt lat="42.488002041354775" lon="2.677620006725192">
        <ele>301.99000000000001</ele>
        <time>2025-05-15T09:58:11Z</time>
      </trkpt>
      <trkpt lat="42.487957030534744" lon="2.677500983700156">
        <ele>301.02999999999997</ele>
        <time>2025-05-15T09:58:12Z</time>
      </trkpt>
      <trkpt lat="42.487981002777815" lon="2.677380032837391">
        <ele>300.06999999999999</ele>
        <time>2025-05-15T09:58:13Z</time>
      </trkpt>
      <trkpt lat="42.488021990284324" lon="2.677264027297497">
        <ele>298.63</ele>
        <time>2025-05-15T09:58:14Z</time>
      </trkpt>
      <trkpt lat="42.488090973347425" lon="2.677136035636067">
        <ele>297.67000000000002</ele>
        <time>2025-05-15T09:58:15Z</time>
      </trkpt>
      <trkpt lat="42.488168003037572" lon="2.67699496820569">
        <ele>296.69999999999999</ele>
        <time>2025-05-15T09:58:16Z</time>
      </trkpt>
      <trkpt lat="42.488251989707351" lon="2.676838980987668">
        <ele>296.22000000000003</ele>
        <time>2025-05-15T09:58:17Z</time>
      </trkpt>
      <trkpt lat="42.488329019397497" lon="2.676659021526575">
        <ele>295.25999999999999</ele>
        <time>2025-05-15T09:58:18Z</time>
      </trkpt>
      <trkpt lat="42.488401019945741" lon="2.676476966589689">
        <ele>294.30000000000001</ele>
        <time>2025-05-15T09:58:19Z</time>
      </trkpt>
      <trkpt lat="42.48855197802186" lon="2.676093997433782">
        <ele>292.86000000000001</ele>
        <time>2025-05-15T09:58:21Z</time>
      </trkpt>
      <trkpt lat="42.488580979406834" lon="2.675811024382711">
        <ele>291.89999999999998</ele>
        <time>2025-05-15T09:58:23Z</time>
      </trkpt>
      <trkpt lat="42.48850897885859" lon="2.675570966675878">
        <ele>289.97000000000003</ele>
        <time>2025-05-15T09:58:25Z</time>
      </trkpt>
      <trkpt lat="42.488450976088643" lon="2.675500977784395">
        <ele>289.49000000000001</ele>
        <time>2025-05-15T09:58:26Z</time>
      </trkpt>
      <trkpt lat="42.488351985812187" lon="2.675486980006099">
        <ele>288.52999999999997</ele>
        <time>2025-05-15T09:58:27Z</time>
      </trkpt>
      <trkpt lat="42.488238997757435" lon="2.675480023026466">
        <ele>287.56999999999999</ele>
        <time>2025-05-15T09:58:28Z</time>
      </trkpt>
      <trkpt lat="42.488122992217541" lon="2.675472982227802">
        <ele>286.13</ele>
        <time>2025-05-15T09:58:29Z</time>
      </trkpt>
      <trkpt lat="42.488016039133072" lon="2.675412967801094">
        <ele>285.64999999999998</ele>
        <time>2025-05-15T09:58:30Z</time>
      </trkpt>
      <trkpt lat="42.487896010279655" lon="2.675329986959696">
        <ele>284.69</ele>
        <time>2025-05-15T09:58:31Z</time>
      </trkpt>
      <trkpt lat="42.487770030274987" lon="2.675241976976395">
        <ele>283.73000000000002</ele>
        <time>2025-05-15T09:58:32Z</time>
      </trkpt>
      <trkpt lat="42.487634997814894" lon="2.675149021670222">
        <ele>282.76999999999998</ele>
        <time>2025-05-15T09:58:33Z</time>
      </trkpt>
      <trkpt lat="42.487468030303717" lon="2.675070986151695">
        <ele>281.80000000000001</ele>
        <time>2025-05-15T09:58:34Z</time>
      </trkpt>
      <trkpt lat="42.487319000065327" lon="2.675042990595102">
        <ele>280.83999999999997</ele>
        <time>2025-05-15T09:58:35Z</time>
      </trkpt>
      <trkpt lat="42.487199977040291" lon="2.675021030008793">
        <ele>279.88</ele>
        <time>2025-05-15T09:58:36Z</time>
      </trkpt>
      <trkpt lat="42.487119007855654" lon="2.674963027238846">
        <ele>278.92000000000002</ele>
        <time>2025-05-15T09:58:37Z</time>
      </trkpt>
      <trkpt lat="42.487050024792552" lon="2.674912987276912">
        <ele>277.95999999999998</ele>
        <time>2025-05-15T09:58:38Z</time>
      </trkpt>
      <trkpt lat="42.487028986215591" lon="2.674840986728668">
        <ele>277.48000000000002</ele>
        <time>2025-05-15T09:58:39Z</time>
      </trkpt>
      <trkpt lat="42.486994033679366" lon="2.674718024209142">
        <ele>277</ele>
        <time>2025-05-15T09:58:40Z</time>
      </trkpt>
      <trkpt lat="42.486962014809251" lon="2.67456597648561">
        <ele>276.04000000000002</ele>
        <time>2025-05-15T09:58:41Z</time>
      </trkpt>
      <trkpt lat="42.486947011202574" lon="2.674214020371437">
        <ele>274.11000000000001</ele>
        <time>2025-05-15T09:58:43Z</time>
      </trkpt>
      <trkpt lat="42.486902000382543" lon="2.674059038981795">
        <ele>272.67000000000002</ele>
        <time>2025-05-15T09:58:44Z</time>
      </trkpt>
      <trkpt lat="42.486837040632963" lon="2.673960970714688">
        <ele>271.70999999999998</ele>
        <time>2025-05-15T09:58:45Z</time>
      </trkpt>
      <trkpt lat="42.486739978194237" lon="2.673867009580135">
        <ele>270.75</ele>
        <time>2025-05-15T09:58:46Z</time>
      </trkpt>
      <trkpt lat="42.486650962382555" lon="2.673882013186812">
        <ele>270.26999999999998</ele>
        <time>2025-05-15T09:58:47Z</time>
      </trkpt>
      <trkpt lat="42.486572004854679" lon="2.673983015120029">
        <ele>269.79000000000002</ele>
        <time>2025-05-15T09:58:48Z</time>
      </trkpt>
      <trkpt lat="42.486497992649674" lon="2.674088040366769">
        <ele>269.79000000000002</ele>
        <time>2025-05-15T09:58:49Z</time>
      </trkpt>
      <trkpt lat="42.486415011808276" lon="2.674206979572773">
        <ele>268.82999999999998</ele>
        <time>2025-05-15T09:58:50Z</time>
      </trkpt>
      <trkpt lat="42.486340999603271" lon="2.674313010647893">
        <ele>267.86000000000001</ele>
        <time>2025-05-15T09:58:51Z</time>
      </trkpt>
      <trkpt lat="42.486233962699771" lon="2.674419963732362">
        <ele>267.38</ele>
        <time>2025-05-15T09:58:52Z</time>
      </trkpt>
      <trkpt lat="42.486114017665386" lon="2.674431027844548">
        <ele>266.42000000000002</ele>
        <time>2025-05-15T09:58:53Z</time>
      </trkpt>
      <trkpt lat="42.485982002690434" lon="2.674443013966084">
        <ele>265.94</ele>
        <time>2025-05-15T09:58:54Z</time>
      </trkpt>
      <trkpt lat="42.485846970230341" lon="2.674455000087619">
        <ele>264.98000000000002</ele>
        <time>2025-05-15T09:58:55Z</time>
      </trkpt>
      <trkpt lat="42.485311031341553" lon="2.674408983439207">
        <ele>261.13999999999999</ele>
        <time>2025-05-15T09:59:00Z</time>
      </trkpt>
      <trkpt lat="42.485211035236716" lon="2.674385011196137">
        <ele>260.64999999999998</ele>
        <time>2025-05-15T09:59:01Z</time>
      </trkpt>
      <trkpt lat="42.485130988061428" lon="2.674310998991132">
        <ele>259.69</ele>
        <time>2025-05-15T09:59:02Z</time>
      </trkpt>
      <trkpt lat="42.485050018876791" lon="2.674236986786127">
        <ele>259.20999999999998</ele>
        <time>2025-05-15T09:59:03Z</time>
      </trkpt>
      <trkpt lat="42.484973995015025" lon="2.674166997894645">
        <ele>258.25</ele>
        <time>2025-05-15T09:59:04Z</time>
      </trkpt>
      <trkpt lat="42.484906017780304" lon="2.674100026488304">
        <ele>257.76999999999998</ele>
        <time>2025-05-15T09:59:05Z</time>
      </trkpt>
      <trkpt lat="42.484853966161609" lon="2.673982009291649">
        <ele>256.81</ele>
        <time>2025-05-15T09:59:06Z</time>
      </trkpt>
      <trkpt lat="42.484821025282145" lon="2.673874972388148">
        <ele>256.32999999999998</ele>
        <time>2025-05-15T09:59:07Z</time>
      </trkpt>
      <trkpt lat="42.484784983098507" lon="2.673757039010525">
        <ele>255.84999999999999</ele>
        <time>2025-05-15T09:59:08Z</time>
      </trkpt>
      <trkpt lat="42.484682975336909" lon="2.673279019072652">
        <ele>253.93000000000001</ele>
        <time>2025-05-15T09:59:12Z</time>
      </trkpt>
      <trkpt lat="42.484654979780316" lon="2.673167958855629">
        <ele>252.96000000000001</ele>
        <time>2025-05-15T09:59:13Z</time>
      </trkpt>
      <trkpt lat="42.484624972566962" lon="2.673047007992864">
        <ele>252.47999999999999</ele>
        <time>2025-05-15T09:59:14Z</time>
      </trkpt>
      <trkpt lat="42.484314003959298" lon="2.672105971723795">
        <ele>250.08000000000001</ele>
        <time>2025-05-15T09:59:23Z</time>
      </trkpt>
      <trkpt lat="42.484250972047448" lon="2.672018967568874">
        <ele>250.08000000000001</ele>
        <time>2025-05-15T09:59:24Z</time>
      </trkpt>
      <trkpt lat="42.484051985666156" lon="2.671763990074396">
        <ele>252</ele>
        <time>2025-05-15T09:59:27Z</time>
      </trkpt>
      <trkpt lat="42.483921982347965" lon="2.671592999249697">
        <ele>253.44</ele>
        <time>2025-05-15T09:59:29Z</time>
      </trkpt>
      <trkpt lat="42.483858028426766" lon="2.671510018408299">
        <ele>253.93000000000001</ele>
        <time>2025-05-15T09:59:30Z</time>
      </trkpt>
      <trkpt lat="42.483802037313581" lon="2.671400969848037">
        <ele>254.41</ele>
        <time>2025-05-15T09:59:31Z</time>
      </trkpt>
      <trkpt lat="42.483448991551995" lon="2.670358009636402">
        <ele>257.29000000000002</ele>
        <time>2025-05-15T09:59:40Z</time>
      </trkpt>
      <trkpt lat="42.483419990167022" lon="2.67024602741003">
        <ele>256.81</ele>
        <time>2025-05-15T09:59:41Z</time>
      </trkpt>
      <trkpt lat="42.483399035409093" lon="2.670108983293176">
        <ele>256.32999999999998</ele>
        <time>2025-05-15T09:59:42Z</time>
      </trkpt>
      <trkpt lat="42.483386965468526" lon="2.669856017455459">
        <ele>255.84999999999999</ele>
        <time>2025-05-15T09:59:44Z</time>
      </trkpt>
      <trkpt lat="42.483382020145655" lon="2.669736994430423">
        <ele>255.37</ele>
        <time>2025-05-15T09:59:45Z</time>
      </trkpt>
      <trkpt lat="42.48335100710392" lon="2.669640015810728">
        <ele>254.88999999999999</ele>
        <time>2025-05-15T09:59:46Z</time>
      </trkpt>
      <trkpt lat="42.483291998505592" lon="2.669541025534272">
        <ele>254.88999999999999</ele>
        <time>2025-05-15T09:59:47Z</time>
      </trkpt>
      <trkpt lat="42.483192002400756" lon="2.669466007500887">
        <ele>254.41</ele>
        <time>2025-05-15T09:59:48Z</time>
      </trkpt>
      <trkpt lat="42.483082031831145" lon="2.669474976137281">
        <ele>254.41</ele>
        <time>2025-05-15T09:59:49Z</time>
      </trkpt>
      <trkpt lat="42.482956973835826" lon="2.669485034421086">
        <ele>254.41</ele>
        <time>2025-05-15T09:59:50Z</time>
      </trkpt>
      <trkpt lat="42.482695961371064" lon="2.669505989179015">
        <ele>253.44</ele>
        <time>2025-05-15T09:59:52Z</time>
      </trkpt>
      <trkpt lat="42.482569981366396" lon="2.66960296779871">
        <ele>252.96000000000001</ele>
        <time>2025-05-15T09:59:53Z</time>
      </trkpt>
      <trkpt lat="42.482445007190108" lon="2.669702041894198">
        <ele>252</ele>
        <time>2025-05-15T09:59:54Z</time>
      </trkpt>
      <trkpt lat="42.482114005833864" lon="2.669934974983335">
        <ele>249.59999999999999</ele>
        <time>2025-05-15T09:59:57Z</time>
      </trkpt>
      <trkpt lat="42.481986014172435" lon="2.669934974983335">
        <ele>248.63999999999999</ele>
        <time>2025-05-15T09:59:58Z</time>
      </trkpt>
      <trkpt lat="42.481916025280952" lon="2.669879989698529">
        <ele>247.68000000000001</ele>
        <time>2025-05-15T09:59:59Z</time>
      </trkpt>
      <trkpt lat="42.481682002544403" lon="2.669692989438772">
        <ele>245.75</ele>
        <time>2025-05-15T10:00:01Z</time>
      </trkpt>
      <trkpt lat="42.481551999226213" lon="2.669587964192033">
        <ele>245.27000000000001</ele>
        <time>2025-05-15T10:00:02Z</time>
      </trkpt>
      <trkpt lat="42.481300961226225" lon="2.669386966153979">
        <ele>243.83000000000001</ele>
        <time>2025-05-15T10:00:04Z</time>
      </trkpt>
      <trkpt lat="42.481144974008203" lon="2.669341033324599">
        <ele>243.34999999999999</ele>
        <time>2025-05-15T10:00:05Z</time>
      </trkpt>
      <trkpt lat="42.48103098012507" lon="2.669350001960993">
        <ele>242.87</ele>
        <time>2025-05-15T10:00:06Z</time>
      </trkpt>
      <trkpt lat="42.480912962928414" lon="2.669380009174347">
        <ele>242.38999999999999</ele>
        <time>2025-05-15T10:00:07Z</time>
      </trkpt>
      <trkpt lat="42.480812966823578" lon="2.669434994459152">
        <ele>242.38999999999999</ele>
        <time>2025-05-15T10:00:08Z</time>
      </trkpt>
      <trkpt lat="42.48070701956749" lon="2.669489979743958">
        <ele>242.38999999999999</ele>
        <time>2025-05-15T10:00:09Z</time>
      </trkpt>
      <trkpt lat="42.480593025684357" lon="2.669543959200382">
        <ele>242.38999999999999</ele>
        <time>2025-05-15T10:00:10Z</time>
      </trkpt>
      <trkpt lat="42.480485988780856" lon="2.669596010819078">
        <ele>242.38999999999999</ele>
        <time>2025-05-15T10:00:11Z</time>
      </trkpt>
      <trkpt lat="42.479407992213964" lon="2.669959031045437">
        <ele>237.09999999999999</ele>
        <time>2025-05-15T10:00:21Z</time>
      </trkpt>
      <trkpt lat="42.478922009468079" lon="2.670005969703198">
        <ele>237.09999999999999</ele>
        <time>2025-05-15T10:00:27Z</time>
      </trkpt>
      <trkpt lat="42.478864006698132" lon="2.6700109988451">
        <ele>237.09999999999999</ele>
        <time>2025-05-15T10:00:28Z</time>
      </trkpt>
      <trkpt lat="42.478804998099804" lon="2.670015022158623">
        <ele>237.09999999999999</ele>
        <time>2025-05-15T10:00:29Z</time>
      </trkpt>
      <trkpt lat="42.478659991174936" lon="2.670023990795016">
        <ele>237.58000000000001</ele>
        <time>2025-05-15T10:00:31Z</time>
      </trkpt>
      <trkpt lat="42.478579021990299" lon="2.670027008280158">
        <ele>237.58000000000001</ele>
        <time>2025-05-15T10:00:32Z</time>
      </trkpt>
      <trkpt lat="42.478036964312196" lon="2.670106971636415">
        <ele>236.13999999999999</ele>
        <time>2025-05-15T10:00:38Z</time>
      </trkpt>
      <trkpt lat="42.477962030097842" lon="2.670174026861787">
        <ele>236.13999999999999</ele>
        <time>2025-05-15T10:00:39Z</time>
      </trkpt>
      <trkpt lat="42.477877037599683" lon="2.67024896107614">
        <ele>236.13999999999999</ele>
        <time>2025-05-15T10:00:40Z</time>
      </trkpt>
      <trkpt lat="42.477810988202691" lon="2.67033101990819">
        <ele>236.13999999999999</ele>
        <time>2025-05-15T10:00:41Z</time>
      </trkpt>
      <trkpt lat="42.47774301096797" lon="2.670437972992659">
        <ele>236.13999999999999</ele>
        <time>2025-05-15T10:00:42Z</time>
      </trkpt>
      <trkpt lat="42.477673022076488" lon="2.670549033209682">
        <ele>236.13999999999999</ele>
        <time>2025-05-15T10:00:43Z</time>
      </trkpt>
      <trkpt lat="42.47739901766181" lon="2.670981958508492">
        <ele>235.66</ele>
        <time>2025-05-15T10:00:47Z</time>
      </trkpt>
      <trkpt lat="42.476986963301897" lon="2.671639015898109">
        <ele>233.25999999999999</ele>
        <time>2025-05-15T10:00:53Z</time>
      </trkpt>
      <trkpt lat="42.476803986355662" lon="2.671788968145847">
        <ele>232.78</ele>
        <time>2025-05-15T10:00:55Z</time>
      </trkpt>
      <trkpt lat="42.476018015295267" lon="2.67235298641026">
        <ele>232.78</ele>
        <time>2025-05-15T10:01:04Z</time>
      </trkpt>
      <trkpt lat="42.475442010909319" lon="2.672746013849974">
        <ele>234.22</ele>
        <time>2025-05-15T10:01:11Z</time>
      </trkpt>
      <trkpt lat="42.475356012582779" lon="2.672784989699721">
        <ele>234.22</ele>
        <time>2025-05-15T10:01:12Z</time>
      </trkpt>
      <trkpt lat="42.475274037569761" lon="2.67282203771174">
        <ele>234.69999999999999</ele>
        <time>2025-05-15T10:01:13Z</time>
      </trkpt>
      <trkpt lat="42.475204970687628" lon="2.672853972762823">
        <ele>234.69999999999999</ele>
        <time>2025-05-15T10:01:14Z</time>
      </trkpt>
      <trkpt lat="42.475115032866597" lon="2.672833018004894">
        <ele>235.18000000000001</ele>
        <time>2025-05-15T10:01:15Z</time>
      </trkpt>
      <trkpt lat="42.475031968206167" lon="2.672814996913075">
        <ele>235.66</ele>
        <time>2025-05-15T10:01:16Z</time>
      </trkpt>
      <trkpt lat="42.474960973486304" lon="2.672747019678354">
        <ele>235.66</ele>
        <time>2025-05-15T10:01:17Z</time>
      </trkpt>
      <trkpt lat="42.474911017343402" lon="2.672647023573518">
        <ele>236.13999999999999</ele>
        <time>2025-05-15T10:01:18Z</time>
      </trkpt>
      <trkpt lat="42.474882015958428" lon="2.672536969184876">
        <ele>236.13999999999999</ele>
        <time>2025-05-15T10:01:19Z</time>
      </trkpt>
      <trkpt lat="42.474853014573455" lon="2.672426998615265">
        <ele>236.13999999999999</ele>
        <time>2025-05-15T10:01:20Z</time>
      </trkpt>
      <trkpt lat="42.474616980180144" lon="2.671482022851706">
        <ele>235.18000000000001</ele>
        <time>2025-05-15T10:01:28Z</time>
      </trkpt>
      <trkpt lat="42.474595019593835" lon="2.67136299982667">
        <ele>235.18000000000001</ele>
        <time>2025-05-15T10:01:29Z</time>
      </trkpt>
      <trkpt lat="42.474469039589167" lon="2.670592032372952">
        <ele>234.69999999999999</ele>
        <time>2025-05-15T10:01:34Z</time>
      </trkpt>
      <trkpt lat="42.474468033760786" lon="2.670402014628053">
        <ele>233.74000000000001</ele>
        <time>2025-05-15T10:01:35Z</time>
      </trkpt>
      <trkpt lat="42.474496029317379" lon="2.670261031016707">
        <ele>232.78</ele>
        <time>2025-05-15T10:01:36Z</time>
      </trkpt>
      <trkpt lat="42.474525030702353" lon="2.67011602409184">
        <ele>232.30000000000001</ele>
        <time>2025-05-15T10:01:37Z</time>
      </trkpt>
      <trkpt lat="42.474584961310029" lon="2.669956013560295">
        <ele>231.33000000000001</ele>
        <time>2025-05-15T10:01:38Z</time>
      </trkpt>
      <trkpt lat="42.474716976284981" lon="2.669702041894198">
        <ele>230.37</ele>
        <time>2025-05-15T10:01:40Z</time>
      </trkpt>
      <trkpt lat="42.474783025681973" lon="2.669576983898878">
        <ele>229.41</ele>
        <time>2025-05-15T10:01:41Z</time>
      </trkpt>
      <trkpt lat="42.474978994578123" lon="2.669201977550983">
        <ele>226.53</ele>
        <time>2025-05-15T10:01:44Z</time>
      </trkpt>
      <trkpt lat="42.475045965984464" lon="2.669077003374696">
        <ele>226.05000000000001</ele>
        <time>2025-05-15T10:01:45Z</time>
      </trkpt>
      <trkpt lat="42.475112015381455" lon="2.668954040855169">
        <ele>225.09</ele>
        <time>2025-05-15T10:01:46Z</time>
      </trkpt>
      <trkpt lat="42.475178986787796" lon="2.66882898285985">
        <ele>225.09</ele>
        <time>2025-05-15T10:01:47Z</time>
      </trkpt>
      <trkpt lat="42.475245036184788" lon="2.668705014511943">
        <ele>224.61000000000001</ele>
        <time>2025-05-15T10:01:48Z</time>
      </trkpt>
      <trkpt lat="42.475308990105987" lon="2.668585991486907">
        <ele>224.12</ele>
        <time>2025-05-15T10:01:49Z</time>
      </trkpt>
      <trkpt lat="42.475430024787784" lon="2.668417012318969">
        <ele>223.16</ele>
        <time>2025-05-15T10:01:51Z</time>
      </trkpt>
      <trkpt lat="42.475577965378761" lon="2.668354986235499">
        <ele>221.24000000000001</ele>
        <time>2025-05-15T10:01:55Z</time>
      </trkpt>
      <trkpt lat="42.475610990077257" lon="2.668363032862544">
        <ele>220.75999999999999</ele>
        <time>2025-05-15T10:01:56Z</time>
      </trkpt>
      <trkpt lat="42.475634040310979" lon="2.668368984013796">
        <ele>220.75999999999999</ele>
        <time>2025-05-15T10:01:57Z</time>
      </trkpt>
      <trkpt lat="42.475711992010474" lon="2.668334031477571">
        <ele>220.75999999999999</ele>
        <time>2025-05-15T10:01:58Z</time>
      </trkpt>
      <trkpt lat="42.475778041407466" lon="2.668305030092597">
        <ele>219.80000000000001</ele>
        <time>2025-05-15T10:01:59Z</time>
      </trkpt>
      <trkpt lat="42.475841995328665" lon="2.668262030929327">
        <ele>219.31999999999999</ele>
        <time>2025-05-15T10:02:00Z</time>
      </trkpt>
      <trkpt lat="42.475895974785089" lon="2.668185001239181">
        <ele>218.36000000000001</ele>
        <time>2025-05-15T10:02:01Z</time>
      </trkpt>
      <trkpt lat="42.475950038060546" lon="2.668106965720654">
        <ele>217.88</ele>
        <time>2025-05-15T10:02:02Z</time>
      </trkpt>
      <trkpt lat="42.476001000031829" lon="2.668003030121326">
        <ele>217.88</ele>
        <time>2025-05-15T10:02:03Z</time>
      </trkpt>
      <trkpt lat="42.476075012236834" lon="2.66779700294137">
        <ele>217.88</ele>
        <time>2025-05-15T10:02:05Z</time>
      </trkpt>
      <trkpt lat="42.476148018613458" lon="2.667593993246555">
        <ele>218.36000000000001</ele>
        <time>2025-05-15T10:02:07Z</time>
      </trkpt>
      <trkpt lat="42.47628103941679" lon="2.667226027697325">
        <ele>220.28</ele>
        <time>2025-05-15T10:02:11Z</time>
      </trkpt>
      <trkpt lat="42.476349016651511" lon="2.667035004124045">
        <ele>220.75999999999999</ele>
        <time>2025-05-15T10:02:13Z</time>
      </trkpt>
      <trkpt lat="42.476397966966033" lon="2.666837023571134">
        <ele>221.24000000000001</ele>
        <time>2025-05-15T10:02:15Z</time>
      </trkpt>
      <trkpt lat="42.476420011371374" lon="2.666736021637917">
        <ele>221.24000000000001</ele>
        <time>2025-05-15T10:02:16Z</time>
      </trkpt>
      <trkpt lat="42.476507015526295" lon="2.666341988369823">
        <ele>222.68000000000001</ele>
        <time>2025-05-15T10:02:20Z</time>
      </trkpt>
      <trkpt lat="42.47651900164783" lon="2.666260013356805">
        <ele>223.16</ele>
        <time>2025-05-15T10:02:21Z</time>
      </trkpt>
      <trkpt lat="42.476527970284224" lon="2.666174015030265">
        <ele>223.63999999999999</ele>
        <time>2025-05-15T10:02:22Z</time>
      </trkpt>
      <trkpt lat="42.476538028568029" lon="2.666081981733441">
        <ele>224.12</ele>
        <time>2025-05-15T10:02:23Z</time>
      </trkpt>
      <trkpt lat="42.476546997204423" lon="2.66599296592176">
        <ele>224.61000000000001</ele>
        <time>2025-05-15T10:02:24Z</time>
      </trkpt>
      <trkpt lat="42.476556971669197" lon="2.665902022272348">
        <ele>225.09</ele>
        <time>2025-05-15T10:02:25Z</time>
      </trkpt>
      <trkpt lat="42.476520007476211" lon="2.665459038689733">
        <ele>228.93000000000001</ele>
        <time>2025-05-15T10:02:33Z</time>
      </trkpt>
      <trkpt lat="42.476470973342657" lon="2.665211018174887">
        <ele>230.37</ele>
        <time>2025-05-15T10:02:37Z</time>
      </trkpt>
      <trkpt lat="42.476452030241489" lon="2.665128959342837">
        <ele>230.37</ele>
        <time>2025-05-15T10:02:38Z</time>
      </trkpt>
      <trkpt lat="42.47639000415802" lon="2.664876999333501">
        <ele>228.44999999999999</ele>
        <time>2025-05-15T10:02:42Z</time>
      </trkpt>
      <trkpt lat="42.476379023864865" lon="2.664829976856709">
        <ele>228.44999999999999</ele>
        <time>2025-05-15T10:02:43Z</time>
      </trkpt>
      <trkpt lat="42.476370977237821" lon="2.664798041805625">
        <ele>228.44999999999999</ele>
        <time>2025-05-15T10:02:44Z</time>
      </trkpt>
      <trkpt lat="42.476370977237821" lon="2.664798041805625">
        <ele>227.00999999999999</ele>
        <time>2025-05-15T10:02:54Z</time>
      </trkpt>
      <trkpt lat="42.47628103941679" lon="2.664504004642367">
        <ele>223.63999999999999</ele>
        <time>2025-05-15T10:03:06Z</time>
      </trkpt>
      <trkpt lat="42.476221024990082" lon="2.664332007989287">
        <ele>224.61000000000001</ele>
        <time>2025-05-15T10:03:10Z</time>
      </trkpt>
      <trkpt lat="42.476205015555024" lon="2.664286997169256">
        <ele>224.61000000000001</ele>
        <time>2025-05-15T10:03:11Z</time>
      </trkpt>
      <trkpt lat="42.476167967543006" lon="2.664179960265756">
        <ele>224.61000000000001</ele>
        <time>2025-05-15T10:03:14Z</time>
      </trkpt>
      <trkpt lat="42.476160004734993" lon="2.664156993851066">
        <ele>225.09</ele>
        <time>2025-05-15T10:03:15Z</time>
      </trkpt>
      <trkpt lat="42.476041987538338" lon="2.66382004134357">
        <ele>226.05000000000001</ele>
        <time>2025-05-15T10:03:23Z</time>
      </trkpt>
      <trkpt lat="42.476034024730325" lon="2.663795985281467">
        <ele>226.05000000000001</ele>
        <time>2025-05-15T10:03:24Z</time>
      </trkpt>
      <trkpt lat="42.475987002253532" lon="2.663857005536556">
        <ele>226.05000000000001</ele>
        <time>2025-05-15T10:03:25Z</time>
      </trkpt>
      <trkpt lat="42.475953977555037" lon="2.663879971951246">
        <ele>226.05000000000001</ele>
        <time>2025-05-15T10:03:26Z</time>
      </trkpt>
      <trkpt lat="42.475919025018811" lon="2.663903022184968">
        <ele>225.56999999999999</ele>
        <time>2025-05-15T10:03:27Z</time>
      </trkpt>
      <trkpt lat="42.475884994491935" lon="2.663926994428039">
        <ele>225.09</ele>
        <time>2025-05-15T10:03:28Z</time>
      </trkpt>
      <trkpt lat="42.475754991173744" lon="2.66401500441134">
        <ele>223.16</ele>
        <time>2025-05-15T10:03:33Z</time>
      </trkpt>
      <trkpt lat="42.475732024759054" lon="2.664031013846397">
        <ele>223.16</ele>
        <time>2025-05-15T10:03:34Z</time>
      </trkpt>
      <trkpt lat="42.475705035030842" lon="2.664050040766597">
        <ele>222.68000000000001</ele>
        <time>2025-05-15T10:03:35Z</time>
      </trkpt>
      <trkpt lat="42.475649965927005" lon="2.664087004959583">
        <ele>221.72</ele>
        <time>2025-05-15T10:03:37Z</time>
      </trkpt>
      <trkpt lat="42.475628005340695" lon="2.66410200856626">
        <ele>221.24000000000001</ele>
        <time>2025-05-15T10:03:38Z</time>
      </trkpt>
      <trkpt lat="42.475605038926005" lon="2.664117012172937">
        <ele>220.75999999999999</ele>
        <time>2025-05-15T10:03:39Z</time>
      </trkpt>
      <trkpt lat="42.47553002089262" lon="2.664097985252738">
        <ele>220.28</ele>
        <time>2025-05-15T10:03:40Z</time>
      </trkpt>
      <trkpt lat="42.475504036992788" lon="2.664068983867765">
        <ele>220.28</ele>
        <time>2025-05-15T10:03:41Z</time>
      </trkpt>
      <trkpt lat="42.475479980930686" lon="2.664041994139552">
        <ele>219.80000000000001</ele>
        <time>2025-05-15T10:03:42Z</time>
      </trkpt>
      <trkpt lat="42.475453997030854" lon="2.664013998582959">
        <ele>219.31999999999999</ele>
        <time>2025-05-15T10:03:43Z</time>
      </trkpt>
      <trkpt lat="42.475374033674598" lon="2.663928000256419">
        <ele>218.36000000000001</ele>
        <time>2025-05-15T10:03:46Z</time>
      </trkpt>
      <trkpt lat="42.475332962349057" lon="2.663937974721193">
        <ele>218.36000000000001</ele>
        <time>2025-05-15T10:03:47Z</time>
      </trkpt>
      <trkpt lat="42.475288035348058" lon="2.663950966671109">
        <ele>218.36000000000001</ele>
        <time>2025-05-15T10:03:48Z</time>
      </trkpt>
      <trkpt lat="42.474977988749743" lon="2.664303006604314">
        <ele>218.36000000000001</ele>
        <time>2025-05-15T10:03:55Z</time>
      </trkpt>
      <trkpt lat="42.47495099902153" lon="2.664333013817668">
        <ele>218.36000000000001</ele>
        <time>2025-05-15T10:03:56Z</time>
      </trkpt>
      <trkpt lat="42.47495099902153" lon="2.664333013817668">
        <ele>218.36000000000001</ele>
        <time>2025-05-15T10:03:57Z</time>
      </trkpt>
      <trkpt lat="42.47495099902153" lon="2.664333013817668">
        <ele>218.36000000000001</ele>
        <time>2025-05-15T10:04:14Z</time>
      </trkpt>
      <trkpt lat="42.474854020401835" lon="2.664441978558898">
        <ele>220.75999999999999</ele>
        <time>2025-05-15T10:04:35Z</time>
      </trkpt>
      <trkpt lat="42.474816972389817" lon="2.664483971893787">
        <ele>220.75999999999999</ele>
        <time>2025-05-15T10:04:36Z</time>
      </trkpt>
      <trkpt lat="42.474766010418534" lon="2.664452958852053">
        <ele>221.24000000000001</ele>
        <time>2025-05-15T10:04:37Z</time>
      </trkpt>
      <trkpt lat="42.474744971841574" lon="2.664419012144208">
        <ele>221.72</ele>
        <time>2025-05-15T10:04:38Z</time>
      </trkpt>
      <trkpt lat="42.474744971841574" lon="2.664419012144208">
        <ele>221.72</ele>
        <time>2025-05-15T10:04:39Z</time>
      </trkpt>
      <trkpt lat="42.47467297129333" lon="2.664300994947553">
        <ele>221.72</ele>
        <time>2025-05-15T10:04:40Z</time>
      </trkpt>
      <trkpt lat="42.474179025739431" lon="2.663555005565286">
        <ele>223.16</ele>
        <time>2025-05-15T10:04:47Z</time>
      </trkpt>
      <trkpt lat="42.474096966907382" lon="2.663431959226728">
        <ele>223.16</ele>
        <time>2025-05-15T10:04:48Z</time>
      </trkpt>
      <trkpt lat="42.474008034914732" lon="2.663315031677485">
        <ele>223.63999999999999</ele>
        <time>2025-05-15T10:04:49Z</time>
      </trkpt>
      <trkpt lat="42.47391901910305" lon="2.663256023079157">
        <ele>223.63999999999999</ele>
        <time>2025-05-15T10:04:50Z</time>
      </trkpt>
      <trkpt lat="42.473760014399886" lon="2.663167007267475">
        <ele>224.12</ele>
        <time>2025-05-15T10:04:52Z</time>
      </trkpt>
      <trkpt lat="42.473680973052979" lon="2.663132976740599">
        <ele>224.61000000000001</ele>
        <time>2025-05-15T10:04:53Z</time>
      </trkpt>
      <trkpt lat="42.473493972793221" lon="2.663127025589347">
        <ele>225.09</ele>
        <time>2025-05-15T10:04:55Z</time>
      </trkpt>
      <trkpt lat="42.47340302914381" lon="2.663089977577329">
        <ele>225.56999999999999</ele>
        <time>2025-05-15T10:04:56Z</time>
      </trkpt>
      <trkpt lat="42.473301021382213" lon="2.663028035312891">
        <ele>225.56999999999999</ele>
        <time>2025-05-15T10:04:57Z</time>
      </trkpt>
      <trkpt lat="42.472399966791272" lon="2.662452030926943">
        <ele>227.49000000000001</ele>
        <time>2025-05-15T10:05:05Z</time>
      </trkpt>
      <trkpt lat="42.472280021756887" lon="2.662397967651486">
        <ele>227.49000000000001</ele>
        <time>2025-05-15T10:05:06Z</time>
      </trkpt>
      <trkpt lat="42.47215898707509" lon="2.662367038428783">
        <ele>227.97</ele>
        <time>2025-05-15T10:05:07Z</time>
      </trkpt>
      <trkpt lat="42.472027977928519" lon="2.662342982366681">
        <ele>227.97</ele>
        <time>2025-05-15T10:05:08Z</time>
      </trkpt>
      <trkpt lat="42.471891017630696" lon="2.662362009286881">
        <ele>228.44999999999999</ele>
        <time>2025-05-15T10:05:09Z</time>
      </trkpt>
      <trkpt lat="42.471755985170603" lon="2.662400985136628">
        <ele>228.93000000000001</ele>
        <time>2025-05-15T10:05:10Z</time>
      </trkpt>
      <trkpt lat="42.471625981852412" lon="2.662468962371349">
        <ele>228.93000000000001</ele>
        <time>2025-05-15T10:05:11Z</time>
      </trkpt>
      <trkpt lat="42.471492039039731" lon="2.662526965141296">
        <ele>229.41</ele>
        <time>2025-05-15T10:05:12Z</time>
      </trkpt>
      <trkpt lat="42.471358012408018" lon="2.662558984011412">
        <ele>229.88999999999999</ele>
        <time>2025-05-15T10:05:13Z</time>
      </trkpt>
      <trkpt lat="42.471220968291163" lon="2.662592008709908">
        <ele>230.37</ele>
        <time>2025-05-15T10:05:14Z</time>
      </trkpt>
      <trkpt lat="42.471074033528566" lon="2.662626961246133">
        <ele>230.84999999999999</ele>
        <time>2025-05-15T10:05:15Z</time>
      </trkpt>
      <trkpt lat="42.470917962491512" lon="2.662612041458488">
        <ele>231.33000000000001</ele>
        <time>2025-05-15T10:05:16Z</time>
      </trkpt>
      <trkpt lat="42.470756024122238" lon="2.662558984011412">
        <ele>231.33000000000001</ele>
        <time>2025-05-15T10:05:17Z</time>
      </trkpt>
      <trkpt lat="42.470595007762313" lon="2.662468040362001">
        <ele>231.33000000000001</ele>
        <time>2025-05-15T10:05:18Z</time>
      </trkpt>
      <trkpt lat="42.469925964251161" lon="2.662038970738649">
        <ele>230.84999999999999</ele>
        <time>2025-05-15T10:05:22Z</time>
      </trkpt>
      <trkpt lat="42.469636034220457" lon="2.661764966323972">
        <ele>229.88999999999999</ele>
        <time>2025-05-15T10:05:24Z</time>
      </trkpt>
      <trkpt lat="42.469509970396757" lon="2.661617025732994">
        <ele>229.41</ele>
        <time>2025-05-15T10:05:25Z</time>
      </trkpt>
      <trkpt lat="42.469395976513624" lon="2.661479981616139">
        <ele>228.93000000000001</ele>
        <time>2025-05-15T10:05:26Z</time>
      </trkpt>
      <trkpt lat="42.469293968752027" lon="2.661335980519652">
        <ele>228.44999999999999</ele>
        <time>2025-05-15T10:05:27Z</time>
      </trkpt>
      <trkpt lat="42.46919296681881" lon="2.661191979423165">
        <ele>228.44999999999999</ele>
        <time>2025-05-15T10:05:28Z</time>
      </trkpt>
      <trkpt lat="42.469114009290934" lon="2.661038003861904">
        <ele>227.97</ele>
        <time>2025-05-15T10:05:29Z</time>
      </trkpt>
      <trkpt lat="42.469047959893942" lon="2.660872964188457">
        <ele>227.49000000000001</ele>
        <time>2025-05-15T10:05:30Z</time>
      </trkpt>
      <trkpt lat="42.468979982659221" lon="2.660699961706996">
        <ele>227.00999999999999</ele>
        <time>2025-05-15T10:05:31Z</time>
      </trkpt>
      <trkpt lat="42.46880597434938" lon="2.660184977576137">
        <ele>227.49000000000001</ele>
        <time>2025-05-15T10:05:34Z</time>
      </trkpt>
      <trkpt lat="42.46872098185122" lon="2.660013986751437">
        <ele>227.97</ele>
        <time>2025-05-15T10:05:35Z</time>
      </trkpt>
      <trkpt lat="42.468640012666583" lon="2.659832015633583">
        <ele>228.44999999999999</ele>
        <time>2025-05-15T10:05:36Z</time>
      </trkpt>
      <trkpt lat="42.467957977205515" lon="2.658211961388588">
        <ele>233.74000000000001</ele>
        <time>2025-05-15T10:05:45Z</time>
      </trkpt>
      <trkpt lat="42.467620018869638" lon="2.65666801482439">
        <ele>239.50999999999999</ele>
        <time>2025-05-15T10:05:55Z</time>
      </trkpt>
      <trkpt lat="42.467246018350124" lon="2.654943019151688">
        <ele>240.94999999999999</ele>
        <time>2025-05-15T10:06:06Z</time>
      </trkpt>
      <trkpt lat="42.466853996738791" lon="2.653054995462298">
        <ele>245.27000000000001</ele>
        <time>2025-05-15T10:06:18Z</time>
      </trkpt>
      <trkpt lat="42.466448983177543" lon="2.651170995086432">
        <ele>248.63999999999999</ele>
        <time>2025-05-15T10:06:30Z</time>
      </trkpt>
      <trkpt lat="42.46609702706337" lon="2.649681027978659">
        <ele>250.08000000000001</ele>
        <time>2025-05-15T10:06:38Z</time>
      </trkpt>
      <trkpt lat="42.46541297994554" lon="2.648101961240172">
        <ele>252</ele>
        <time>2025-05-15T10:06:46Z</time>
      </trkpt>
      <trkpt lat="42.464609993621707" lon="2.646336983889341">
        <ele>255.84999999999999</ele>
        <time>2025-05-15T10:06:54Z</time>
      </trkpt>
      <trkpt lat="42.46446599252522" lon="2.646192982792854">
        <ele>255.84999999999999</ele>
        <time>2025-05-15T10:06:55Z</time>
      </trkpt>
      <trkpt lat="42.4643150344491" lon="2.646042024716735">
        <ele>256.81</ele>
        <time>2025-05-15T10:06:56Z</time>
      </trkpt>
      <trkpt lat="42.463941033929586" lon="2.645668024197221">
        <ele>257.76999999999998</ele>
        <time>2025-05-15T10:06:59Z</time>
      </trkpt>
      <trkpt lat="42.463896023109555" lon="2.645622007548809">
        <ele>257.76999999999998</ele>
        <time>2025-05-15T10:07:00Z</time>
      </trkpt>
      <trkpt lat="42.463865010067821" lon="2.645484963431954">
        <ele>257.76999999999998</ele>
        <time>2025-05-15T10:07:02Z</time>
      </trkpt>
      <trkpt lat="42.46384397149086" lon="2.645397037267685">
        <ele>258.25</ele>
        <time>2025-05-15T10:07:03Z</time>
      </trkpt>
      <trkpt lat="42.463836008682847" lon="2.645310033112764">
        <ele>258.25</ele>
        <time>2025-05-15T10:07:04Z</time>
      </trkpt>
      <trkpt lat="42.463928963989019" lon="2.644446026533842">
        <ele>259.69</ele>
        <time>2025-05-15T10:07:10Z</time>
      </trkpt>
      <trkpt lat="42.463946985080838" lon="2.644272018224001">
        <ele>259.69</ele>
        <time>2025-05-15T10:07:11Z</time>
      </trkpt>
      <trkpt lat="42.463953020051122" lon="2.644093986600637">
        <ele>259.20999999999998</ele>
        <time>2025-05-15T10:07:12Z</time>
      </trkpt>
      <trkpt lat="42.463897028937936" lon="2.64390698634088">
        <ele>259.20999999999998</ele>
        <time>2025-05-15T10:07:13Z</time>
      </trkpt>
      <trkpt lat="42.463756967335939" lon="2.643317990005016">
        <ele>258.73000000000002</ele>
        <time>2025-05-15T10:07:16Z</time>
      </trkpt>
      <trkpt lat="42.46373500674963" lon="2.643091008067131">
        <ele>258.73000000000002</ele>
        <time>2025-05-15T10:07:17Z</time>
      </trkpt>
      <trkpt lat="42.463755961507559" lon="2.642868971452117">
        <ele>258.25</ele>
        <time>2025-05-15T10:07:18Z</time>
      </trkpt>
      <trkpt lat="42.463815975934267" lon="2.642647018656135">
        <ele>258.25</ele>
        <time>2025-05-15T10:07:19Z</time>
      </trkpt>
      <trkpt lat="42.463873978704214" lon="2.642430011183024">
        <ele>258.25</ele>
        <time>2025-05-15T10:07:20Z</time>
      </trkpt>
      <trkpt lat="42.463928963989019" lon="2.642223984003067">
        <ele>258.25</ele>
        <time>2025-05-15T10:07:21Z</time>
      </trkpt>
      <trkpt lat="42.463968023657799" lon="2.642018040642142">
        <ele>258.25</ele>
        <time>2025-05-15T10:07:22Z</time>
      </trkpt>
      <trkpt lat="42.463981015607715" lon="2.641805978491902">
        <ele>258.25</ele>
        <time>2025-05-15T10:07:23Z</time>
      </trkpt>
      <trkpt lat="42.463960982859135" lon="2.641568016260862">
        <ele>258.25</ele>
        <time>2025-05-15T10:07:24Z</time>
      </trkpt>
      <trkpt lat="42.463905997574329" lon="2.641394007951021">
        <ele>258.25</ele>
        <time>2025-05-15T10:07:25Z</time>
      </trkpt>
      <trkpt lat="42.463845983147621" lon="2.641204996034503">
        <ele>257.76999999999998</ele>
        <time>2025-05-15T10:07:26Z</time>
      </trkpt>
      <trkpt lat="42.463640039786696" lon="2.640421036630869">
        <ele>258.73000000000002</ele>
        <time>2025-05-15T10:07:30Z</time>
      </trkpt>
      <trkpt lat="42.463587988168001" lon="2.640245016664267">
        <ele>258.73000000000002</ele>
        <time>2025-05-15T10:07:31Z</time>
      </trkpt>
      <trkpt lat="42.46354297734797" lon="2.640078971162438">
        <ele>259.20999999999998</ele>
        <time>2025-05-15T10:07:32Z</time>
      </trkpt>
      <trkpt lat="42.463424038141966" lon="2.639644034206867">
        <ele>259.20999999999998</ele>
        <time>2025-05-15T10:07:35Z</time>
      </trkpt>
      <trkpt lat="42.463381960988045" lon="2.639507995918393">
        <ele>259.20999999999998</ele>
        <time>2025-05-15T10:07:36Z</time>
      </trkpt>
      <trkpt lat="42.463015001267195" lon="2.638852028176189">
        <ele>260.64999999999998</ele>
        <time>2025-05-15T10:07:42Z</time>
      </trkpt>
      <trkpt lat="42.462934032082558" lon="2.638752032071352">
        <ele>260.64999999999998</ele>
        <time>2025-05-15T10:07:43Z</time>
      </trkpt>
      <trkpt lat="42.462184019386768" lon="2.637913003563881">
        <ele>262.57999999999998</ele>
        <time>2025-05-15T10:07:51Z</time>
      </trkpt>
      <trkpt lat="42.46137198060751" lon="2.637076992541552">
        <ele>265.45999999999998</ele>
        <time>2025-05-15T10:08:00Z</time>
      </trkpt>
      <trkpt lat="42.461292017251253" lon="2.637013960629702">
        <ele>265.94</ele>
        <time>2025-05-15T10:08:01Z</time>
      </trkpt>
      <trkpt lat="42.460922040045261" lon="2.636669967323542">
        <ele>266.89999999999998</ele>
        <time>2025-05-15T10:08:06Z</time>
      </trkpt>
      <trkpt lat="42.460840987041593" lon="2.636611964553595">
        <ele>267.38</ele>
        <time>2025-05-15T10:08:07Z</time>
      </trkpt>
      <trkpt lat="42.460530018433928" lon="2.636392023414373">
        <ele>268.35000000000002</ele>
        <time>2025-05-15T10:08:11Z</time>
      </trkpt>
      <trkpt lat="42.460458017885685" lon="2.636339971795678">
        <ele>268.35000000000002</ele>
        <time>2025-05-15T10:08:12Z</time>
      </trkpt>
      <trkpt lat="42.459587976336479" lon="2.635926995426416">
        <ele>270.26999999999998</ele>
        <time>2025-05-15T10:08:23Z</time>
      </trkpt>
      <trkpt lat="42.458670996129513" lon="2.63550597243011">
        <ele>273.14999999999998</ele>
        <time>2025-05-15T10:08:34Z</time>
      </trkpt>
      <trkpt lat="42.458529006689787" lon="2.635363982990384">
        <ele>273.14999999999998</ele>
        <time>2025-05-15T10:08:36Z</time>
      </trkpt>
      <trkpt lat="42.458376958966255" lon="2.635248983278871">
        <ele>274.11000000000001</ele>
        <time>2025-05-15T10:08:38Z</time>
      </trkpt>
      <trkpt lat="42.458238992840052" lon="2.635157033801079">
        <ele>274.58999999999997</ele>
        <time>2025-05-15T10:08:40Z</time>
      </trkpt>
      <trkpt lat="42.458173027262092" lon="2.635113028809428">
        <ele>274.58999999999997</ele>
        <time>2025-05-15T10:08:41Z</time>
      </trkpt>
      <trkpt lat="42.458108989521861" lon="2.635070029646158">
        <ele>275.06999999999999</ele>
        <time>2025-05-15T10:08:42Z</time>
      </trkpt>
      <trkpt lat="42.458047969266772" lon="2.635029964148998">
        <ele>275.56</ele>
        <time>2025-05-15T10:08:43Z</time>
      </trkpt>
      <trkpt lat="42.457974040880799" lon="2.634981013834477">
        <ele>275.56</ele>
        <time>2025-05-15T10:08:44Z</time>
      </trkpt>
      <trkpt lat="42.457905979827046" lon="2.634957963600755">
        <ele>276.04000000000002</ele>
        <time>2025-05-15T10:08:45Z</time>
      </trkpt>
      <trkpt lat="42.457821993157268" lon="2.634933991357684">
        <ele>276.51999999999998</ele>
        <time>2025-05-15T10:08:46Z</time>
      </trkpt>
      <trkpt lat="42.457748986780643" lon="2.634922005236149">
        <ele>277</ele>
        <time>2025-05-15T10:08:47Z</time>
      </trkpt>
      <trkpt lat="42.457706993445754" lon="2.63490398414433">
        <ele>277.48000000000002</ele>
        <time>2025-05-15T10:08:48Z</time>
      </trkpt>
      <trkpt lat="42.457674974575639" lon="2.634862996637821">
        <ele>277.95999999999998</ele>
        <time>2025-05-15T10:08:49Z</time>
      </trkpt>
      <trkpt lat="42.457630969583988" lon="2.634809017181397">
        <ele>278.92000000000002</ele>
        <time>2025-05-15T10:08:50Z</time>
      </trkpt>
      <trkpt lat="42.457630969583988" lon="2.634742967784405">
        <ele>279.39999999999998</ele>
        <time>2025-05-15T10:08:51Z</time>
      </trkpt>
      <trkpt lat="42.457630969583988" lon="2.634637020528317">
        <ele>279.39999999999998</ele>
        <time>2025-05-15T10:08:52Z</time>
      </trkpt>
      <trkpt lat="42.457624012604356" lon="2.634531995281577">
        <ele>279.88</ele>
        <time>2025-05-15T10:08:53Z</time>
      </trkpt>
      <trkpt lat="42.457604985684156" lon="2.634424958378077">
        <ele>279.88</ele>
        <time>2025-05-15T10:08:54Z</time>
      </trkpt>
      <trkpt lat="42.457585958763957" lon="2.634316999465227">
        <ele>280.36000000000001</ele>
        <time>2025-05-15T10:08:55Z</time>
      </trkpt>
      <trkpt lat="42.457567015662789" lon="2.634208034723997">
        <ele>280.83999999999997</ele>
        <time>2025-05-15T10:08:56Z</time>
      </trkpt>
      <trkpt lat="42.457358976826072" lon="2.63387099839747">
        <ele>282.76999999999998</ele>
        <time>2025-05-15T10:09:00Z</time>
      </trkpt>
      <trkpt lat="42.457253029569983" lon="2.633697995916009">
        <ele>283.73000000000002</ele>
        <time>2025-05-15T10:09:02Z</time>
      </trkpt>
      <trkpt lat="42.457188991829753" lon="2.63363596983254">
        <ele>284.20999999999998</ele>
        <time>2025-05-15T10:09:03Z</time>
      </trkpt>
      <trkpt lat="42.457105005159974" lon="2.633600011467934">
        <ele>285.17000000000002</ele>
        <time>2025-05-15T10:09:04Z</time>
      </trkpt>
      <trkpt lat="42.457024035975337" lon="2.633565980941057">
        <ele>285.64999999999998</ele>
        <time>2025-05-15T10:09:05Z</time>
      </trkpt>
      <trkpt lat="42.456942982971668" lon="2.633532034233213">
        <ele>286.13</ele>
        <time>2025-05-15T10:09:06Z</time>
      </trkpt>
      <trkpt lat="42.45686000213027" lon="2.633495992049575">
        <ele>286.61000000000001</ele>
        <time>2025-05-15T10:09:07Z</time>
      </trkpt>
      <trkpt lat="42.456780960783362" lon="2.633462967351079">
        <ele>287.08999999999997</ele>
        <time>2025-05-15T10:09:08Z</time>
      </trkpt>
      <trkpt lat="42.456625979393721" lon="2.63339901342988">
        <ele>288.05000000000001</ele>
        <time>2025-05-15T10:09:10Z</time>
      </trkpt>
      <trkpt lat="42.45655900798738" lon="2.633372023701668">
        <ele>289.00999999999999</ele>
        <time>2025-05-15T10:09:11Z</time>
      </trkpt>
      <trkpt lat="42.45649597607553" lon="2.633346039801836">
        <ele>289.97000000000003</ele>
        <time>2025-05-15T10:09:12Z</time>
      </trkpt>
      <trkpt lat="42.456432022154331" lon="2.633271021768451">
        <ele>290.45999999999998</ele>
        <time>2025-05-15T10:09:13Z</time>
      </trkpt>
      <trkpt lat="42.456396985799074" lon="2.633167002350092">
        <ele>290.94</ele>
        <time>2025-05-15T10:09:14Z</time>
      </trkpt>
      <trkpt lat="42.456361027434468" lon="2.633058037608862">
        <ele>291.42000000000002</ele>
        <time>2025-05-15T10:09:15Z</time>
      </trkpt>
      <trkpt lat="42.456328002735972" lon="2.632943959906697">
        <ele>291.89999999999998</ele>
        <time>2025-05-15T10:09:16Z</time>
      </trkpt>
      <trkpt lat="42.456044023856521" lon="2.631798991933465">
        <ele>295.25999999999999</ele>
        <time>2025-05-15T10:09:26Z</time>
      </trkpt>
      <trkpt lat="42.455879990011454" lon="2.631273027509451">
        <ele>295.74000000000001</ele>
        <time>2025-05-15T10:09:30Z</time>
      </trkpt>
      <trkpt lat="42.45561202056706" lon="2.630645977333188">
        <ele>295.74000000000001</ele>
        <time>2025-05-15T10:09:35Z</time>
      </trkpt>
      <trkpt lat="42.455518981441855" lon="2.630443973466754">
        <ele>295.74000000000001</ele>
        <time>2025-05-15T10:09:37Z</time>
      </trkpt>
      <trkpt lat="42.455388978123665" lon="2.630143985152245">
        <ele>295.74000000000001</ele>
        <time>2025-05-15T10:09:40Z</time>
      </trkpt>
      <trkpt lat="42.454843986779451" lon="2.628962974995375">
        <ele>295.74000000000001</ele>
        <time>2025-05-15T10:09:50Z</time>
      </trkpt>
      <trkpt lat="42.454506028443575" lon="2.627881038933992">
        <ele>295.25999999999999</ele>
        <time>2025-05-15T10:09:58Z</time>
      </trkpt>
      <trkpt lat="42.454480966553092" lon="2.627749023959041">
        <ele>295.25999999999999</ele>
        <time>2025-05-15T10:09:59Z</time>
      </trkpt>
      <trkpt lat="42.454459005966783" lon="2.627627989277244">
        <ele>295.25999999999999</ele>
        <time>2025-05-15T10:10:00Z</time>
      </trkpt>
      <trkpt lat="42.454438973218203" lon="2.627517012879252">
        <ele>295.25999999999999</ele>
        <time>2025-05-15T10:10:01Z</time>
      </trkpt>
      <trkpt lat="42.454434027895331" lon="2.627298999577761">
        <ele>295.74000000000001</ele>
        <time>2025-05-15T10:10:03Z</time>
      </trkpt>
      <trkpt lat="42.454444002360106" lon="2.626065015792847">
        <ele>298.14999999999998</ele>
        <time>2025-05-15T10:10:15Z</time>
      </trkpt>
      <trkpt lat="42.454476021230221" lon="2.625121967867017">
        <ele>298.63</ele>
        <time>2025-05-15T10:10:22Z</time>
      </trkpt>
      <trkpt lat="42.454449031502008" lon="2.62499900534749">
        <ele>298.14999999999998</ele>
        <time>2025-05-15T10:10:23Z</time>
      </trkpt>
      <trkpt lat="42.454380970448256" lon="2.624728018417954">
        <ele>298.14999999999998</ele>
        <time>2025-05-15T10:10:25Z</time>
      </trkpt>
      <trkpt lat="42.45434501208365" lon="2.624582005664706">
        <ele>298.63</ele>
        <time>2025-05-15T10:10:26Z</time>
      </trkpt>
      <trkpt lat="42.454177038744092" lon="2.623909022659063">
        <ele>297.67000000000002</ele>
        <time>2025-05-15T10:10:30Z</time>
      </trkpt>
      <trkpt lat="42.45398199185729" lon="2.623150963336229">
        <ele>295.74000000000001</ele>
        <time>2025-05-15T10:10:35Z</time>
      </trkpt>
      <trkpt lat="42.453950978815556" lon="2.623006040230393">
        <ele>295.25999999999999</ele>
        <time>2025-05-15T10:10:36Z</time>
      </trkpt>
      <trkpt lat="42.453907979652286" lon="2.622867990285158">
        <ele>294.77999999999997</ele>
        <time>2025-05-15T10:10:37Z</time>
      </trkpt>
      <trkpt lat="42.453842014074326" lon="2.622737986966968">
        <ele>294.30000000000001</ele>
        <time>2025-05-15T10:10:38Z</time>
      </trkpt>
      <trkpt lat="42.453762972727418" lon="2.622614018619061">
        <ele>293.33999999999997</ele>
        <time>2025-05-15T10:10:39Z</time>
      </trkpt>
      <trkpt lat="42.453665994107723" lon="2.622503964230418">
        <ele>292.86000000000001</ele>
        <time>2025-05-15T10:10:40Z</time>
      </trkpt>
      <trkpt lat="42.453349996358156" lon="2.622142033651471">
        <ele>290.94</ele>
        <time>2025-05-15T10:10:43Z</time>
      </trkpt>
      <trkpt lat="42.453239019960165" lon="2.621993003413081">
        <ele>290.45999999999998</ele>
        <time>2025-05-15T10:10:44Z</time>
      </trkpt>
      <trkpt lat="42.452653041109443" lon="2.621119022369385">
        <ele>289.00999999999999</ele>
        <time>2025-05-15T10:10:49Z</time>
      </trkpt>
      <trkpt lat="42.452518008649349" lon="2.620983989909291">
        <ele>289.00999999999999</ele>
        <time>2025-05-15T10:10:50Z</time>
      </trkpt>
      <trkpt lat="42.452374007552862" lon="2.620839988812804">
        <ele>289.00999999999999</ele>
        <time>2025-05-15T10:10:51Z</time>
      </trkpt>
      <trkpt lat="42.452236041426659" lon="2.620702022686601">
        <ele>289.00999999999999</ele>
        <time>2025-05-15T10:10:52Z</time>
      </trkpt>
      <trkpt lat="42.452082987874746" lon="2.620548969134688">
        <ele>289.49000000000001</ele>
        <time>2025-05-15T10:10:53Z</time>
      </trkpt>
      <trkpt lat="42.450246009975672" lon="2.618760019540787">
        <ele>291.42000000000002</ele>
        <time>2025-05-15T10:11:04Z</time>
      </trkpt>
      <trkpt lat="42.448861990123987" lon="2.617297964170575">
        <ele>294.30000000000001</ele>
        <time>2025-05-15T10:11:13Z</time>
      </trkpt>
      <trkpt lat="42.448807004839182" lon="2.61713501997292">
        <ele>294.30000000000001</ele>
        <time>2025-05-15T10:11:14Z</time>
      </trkpt>
      <trkpt lat="42.448799964040518" lon="2.61698598973453">
        <ele>294.30000000000001</ele>
        <time>2025-05-15T10:11:15Z</time>
      </trkpt>
      <trkpt lat="42.448816979303956" lon="2.616835031658411">
        <ele>294.77999999999997</ele>
        <time>2025-05-15T10:11:16Z</time>
      </trkpt>
      <trkpt lat="42.448872970417142" lon="2.616666974499822">
        <ele>294.77999999999997</ele>
        <time>2025-05-15T10:11:17Z</time>
      </trkpt>
      <trkpt lat="42.448955029249191" lon="2.616500006988645">
        <ele>295.25999999999999</ele>
        <time>2025-05-15T10:11:18Z</time>
      </trkpt>
      <trkpt lat="42.449064999818802" lon="2.616322981193662">
        <ele>295.74000000000001</ele>
        <time>2025-05-15T10:11:19Z</time>
      </trkpt>
      <trkpt lat="42.449184022843838" lon="2.616131035611033">
        <ele>296.22000000000003</ele>
        <time>2025-05-15T10:11:20Z</time>
      </trkpt>
      <trkpt lat="42.449310002848506" lon="2.615938000380993">
        <ele>296.69999999999999</ele>
        <time>2025-05-15T10:11:21Z</time>
      </trkpt>
      <trkpt lat="42.449454003944993" lon="2.615763992071152">
        <ele>296.69999999999999</ele>
        <time>2025-05-15T10:11:22Z</time>
      </trkpt>
      <trkpt lat="42.449838984757662" lon="2.615324025973678">
        <ele>297.67000000000002</ele>
        <time>2025-05-15T10:11:25Z</time>
      </trkpt>
      <trkpt lat="42.449975023046136" lon="2.615245990455151">
        <ele>298.14999999999998</ele>
        <time>2025-05-15T10:11:26Z</time>
      </trkpt>
      <trkpt lat="42.450104020535946" lon="2.615174995735288">
        <ele>298.63</ele>
        <time>2025-05-15T10:11:27Z</time>
      </trkpt>
      <trkpt lat="42.450259001925588" lon="2.615181030705571">
        <ele>299.11000000000001</ele>
        <time>2025-05-15T10:11:28Z</time>
      </trkpt>
      <trkpt lat="42.450424041599035" lon="2.615186981856823">
        <ele>300.06999999999999</ele>
        <time>2025-05-15T10:11:29Z</time>
      </trkpt>
      <trkpt lat="42.451171036809683" lon="2.615212965756655">
        <ele>301.50999999999999</ele>
        <time>2025-05-15T10:11:33Z</time>
      </trkpt>
      <trkpt lat="42.451325012370944" lon="2.615216989070177">
        <ele>301.50999999999999</ele>
        <time>2025-05-15T10:11:34Z</time>
      </trkpt>
      <trkpt lat="42.451486028730869" lon="2.615149011835456">
        <ele>301.99000000000001</ele>
        <time>2025-05-15T10:11:35Z</time>
      </trkpt>
      <trkpt lat="42.452161023393273" lon="2.614864027127624">
        <ele>304.38999999999999</ele>
        <time>2025-05-15T10:11:39Z</time>
      </trkpt>
      <trkpt lat="42.452459000051022" lon="2.614661017432809">
        <ele>304.38999999999999</ele>
        <time>2025-05-15T10:11:41Z</time>
      </trkpt>
      <trkpt lat="42.452609036117792" lon="2.614530008286238">
        <ele>304.38999999999999</ele>
        <time>2025-05-15T10:11:42Z</time>
      </trkpt>
      <trkpt lat="42.452737027779222" lon="2.614348037168384">
        <ele>304.88</ele>
        <time>2025-05-15T10:11:43Z</time>
      </trkpt>
      <trkpt lat="42.452853033319116" lon="2.614172017201781">
        <ele>304.88</ele>
        <time>2025-05-15T10:11:44Z</time>
      </trkpt>
      <trkpt lat="42.452961998060346" lon="2.614003960043192">
        <ele>305.36000000000001</ele>
        <time>2025-05-15T10:11:45Z</time>
      </trkpt>
      <trkpt lat="42.453045984730124" lon="2.613796005025506">
        <ele>305.83999999999997</ele>
        <time>2025-05-15T10:11:46Z</time>
      </trkpt>
      <trkpt lat="42.453113961964846" lon="2.613586038351059">
        <ele>305.83999999999997</ele>
        <time>2025-05-15T10:11:47Z</time>
      </trkpt>
      <trkpt lat="42.453183028846979" lon="2.613372970372438">
        <ele>306.31999999999999</ele>
        <time>2025-05-15T10:11:48Z</time>
      </trkpt>
      <trkpt lat="42.453205995261669" lon="2.613141965121031">
        <ele>306.80000000000001</ele>
        <time>2025-05-15T10:11:49Z</time>
      </trkpt>
      <trkpt lat="42.453224016353488" lon="2.612921018153429">
        <ele>307.27999999999997</ele>
        <time>2025-05-15T10:11:50Z</time>
      </trkpt>
      <trkpt lat="42.453245976939797" lon="2.612720020115376">
        <ele>307.75999999999999</ele>
        <time>2025-05-15T10:11:51Z</time>
      </trkpt>
      <trkpt lat="42.45327397249639" lon="2.61253603734076">
        <ele>308.72000000000003</ele>
        <time>2025-05-15T10:11:52Z</time>
      </trkpt>
      <trkpt lat="42.45331697165966" lon="2.612349037081003">
        <ele>309.19999999999999</ele>
        <time>2025-05-15T10:11:53Z</time>
      </trkpt>
      <trkpt lat="42.4534029699862" lon="2.612191960215569">
        <ele>309.19999999999999</ele>
        <time>2025-05-15T10:11:54Z</time>
      </trkpt>
      <trkpt lat="42.453555017709732" lon="2.611885014921427">
        <ele>310.63999999999999</ele>
        <time>2025-05-15T10:11:56Z</time>
      </trkpt>
      <trkpt lat="42.453600028529763" lon="2.611735984683037">
        <ele>311.12</ele>
        <time>2025-05-15T10:11:57Z</time>
      </trkpt>
      <trkpt lat="42.453610002994537" lon="2.611589971929789">
        <ele>311.60000000000002</ele>
        <time>2025-05-15T10:11:58Z</time>
      </trkpt>
      <trkpt lat="42.453596005216241" lon="2.611444965004921">
        <ele>311.60000000000002</ele>
        <time>2025-05-15T10:11:59Z</time>
      </trkpt>
      <trkpt lat="42.453582007437944" lon="2.611297024413943">
        <ele>311.12</ele>
        <time>2025-05-15T10:12:00Z</time>
      </trkpt>
      <trkpt lat="42.453516041859984" lon="2.611170960590243">
        <ele>310.63999999999999</ele>
        <time>2025-05-15T10:12:01Z</time>
      </trkpt>
      <trkpt lat="42.453415961936116" lon="2.611079011112452">
        <ele>310.16000000000003</ele>
        <time>2025-05-15T10:12:02Z</time>
      </trkpt>
      <trkpt lat="42.453310014680028" lon="2.610981026664376">
        <ele>309.68000000000001</ele>
        <time>2025-05-15T10:12:03Z</time>
      </trkpt>
      <trkpt lat="42.45318797416985" lon="2.610900979489088">
        <ele>309.19999999999999</ele>
        <time>2025-05-15T10:12:04Z</time>
      </trkpt>
      <trkpt lat="42.453062999993563" lon="2.610833002254367">
        <ele>308.72000000000003</ele>
        <time>2025-05-15T10:12:05Z</time>
      </trkpt>
      <trkpt lat="42.452282980084419" lon="2.6103460136801">
        <ele>307.75999999999999</ele>
        <time>2025-05-15T10:12:11Z</time>
      </trkpt>
      <trkpt lat="42.452120035886765" lon="2.610291028395295">
        <ele>307.27999999999997</ele>
        <time>2025-05-15T10:12:12Z</time>
      </trkpt>
      <trkpt lat="42.45178802870214" lon="2.610180974006653">
        <ele>307.27999999999997</ele>
        <time>2025-05-15T10:12:14Z</time>
      </trkpt>
      <trkpt lat="42.451607985422015" lon="2.610120959579945">
        <ele>306.80000000000001</ele>
        <time>2025-05-15T10:12:15Z</time>
      </trkpt>
      <trkpt lat="42.451416039839387" lon="2.610057005658746">
        <ele>306.31999999999999</ele>
        <time>2025-05-15T10:12:16Z</time>
      </trkpt>
      <trkpt lat="42.450615987181664" lon="2.609876962378621">
        <ele>306.31999999999999</ele>
        <time>2025-05-15T10:12:20Z</time>
      </trkpt>
      <trkpt lat="42.450418006628752" lon="2.609861958771944">
        <ele>306.80000000000001</ele>
        <time>2025-05-15T10:12:21Z</time>
      </trkpt>
      <trkpt lat="42.449544025585055" lon="2.609835974872112">
        <ele>310.63999999999999</ele>
        <time>2025-05-15T10:12:26Z</time>
      </trkpt>
      <trkpt lat="42.449431959539652" lon="2.609759029000998">
        <ele>311.60000000000002</ele>
        <time>2025-05-15T10:12:27Z</time>
      </trkpt>
      <trkpt lat="42.449368005618453" lon="2.609646962955594">
        <ele>312.08999999999997</ele>
        <time>2025-05-15T10:12:28Z</time>
      </trkpt>
      <trkpt lat="42.449327018111944" lon="2.609510002657771">
        <ele>313.05000000000001</ele>
        <time>2025-05-15T10:12:29Z</time>
      </trkpt>
      <trkpt lat="42.449357025325298" lon="2.609390979632735">
        <ele>314.00999999999999</ele>
        <time>2025-05-15T10:12:30Z</time>
      </trkpt>
      <trkpt lat="42.449417039752007" lon="2.60924999602139">
        <ele>314.49000000000001</ele>
        <time>2025-05-15T10:12:31Z</time>
      </trkpt>
      <trkpt lat="42.449500020593405" lon="2.609097026288509">
        <ele>314.97000000000003</ele>
        <time>2025-05-15T10:12:32Z</time>
      </trkpt>
      <trkpt lat="42.449588030576706" lon="2.608931986615062">
        <ele>315.44999999999999</ele>
        <time>2025-05-15T10:12:33Z</time>
      </trkpt>
      <trkpt lat="42.449680985882878" lon="2.608758984133601">
        <ele>316.41000000000003</ele>
        <time>2025-05-15T10:12:34Z</time>
      </trkpt>
      <trkpt lat="42.44974703527987" lon="2.608571983873844">
        <ele>317.85000000000002</ele>
        <time>2025-05-15T10:12:35Z</time>
      </trkpt>
      <trkpt lat="42.449806965887547" lon="2.608393030241132">
        <ele>318.32999999999998</ele>
        <time>2025-05-15T10:12:36Z</time>
      </trkpt>
      <trkpt lat="42.449885001406074" lon="2.608222961425781">
        <ele>318.81</ele>
        <time>2025-05-15T10:12:37Z</time>
      </trkpt>
      <trkpt lat="42.449965970590711" lon="2.608062028884888">
        <ele>319.30000000000001</ele>
        <time>2025-05-15T10:12:38Z</time>
      </trkpt>
      <trkpt lat="42.450121035799384" lon="2.607750976458192">
        <ele>320.25999999999999</ele>
        <time>2025-05-15T10:12:40Z</time>
      </trkpt>
      <trkpt lat="42.450127992779016" lon="2.607623990625143">
        <ele>320.74000000000001</ele>
        <time>2025-05-15T10:12:41Z</time>
      </trkpt>
      <trkpt lat="42.450137967243791" lon="2.607426010072231">
        <ele>320.74000000000001</ele>
        <time>2025-05-15T10:12:42Z</time>
      </trkpt>
      <trkpt lat="42.450150037184358" lon="2.607219982892275">
        <ele>320.74000000000001</ele>
        <time>2025-05-15T10:12:43Z</time>
      </trkpt>
      <trkpt lat="42.450160011649132" lon="2.607019990682602">
        <ele>320.25999999999999</ele>
        <time>2025-05-15T10:12:44Z</time>
      </trkpt>
      <trkpt lat="42.450212985277176" lon="2.60684103704989">
        <ele>319.77999999999997</ele>
        <time>2025-05-15T10:12:45Z</time>
      </trkpt>
      <trkpt lat="42.450291020795703" lon="2.606654036790133">
        <ele>319.30000000000001</ele>
        <time>2025-05-15T10:12:46Z</time>
      </trkpt>
      <trkpt lat="42.450375007465482" lon="2.606453038752079">
        <ele>319.30000000000001</ele>
        <time>2025-05-15T10:12:47Z</time>
      </trkpt>
      <trkpt lat="42.450442984700203" lon="2.606292022392154">
        <ele>319.30000000000001</ele>
        <time>2025-05-15T10:12:48Z</time>
      </trkpt>
      <trkpt lat="42.450482966378331" lon="2.606011983007193">
        <ele>319.30000000000001</ele>
        <time>2025-05-15T10:12:49Z</time>
      </trkpt>
      <trkpt lat="42.450499981641769" lon="2.60579003021121">
        <ele>319.77999999999997</ele>
        <time>2025-05-15T10:12:50Z</time>
      </trkpt>
      <trkpt lat="42.450466034933925" lon="2.605570005252957">
        <ele>319.77999999999997</ele>
        <time>2025-05-15T10:12:51Z</time>
      </trkpt>
      <trkpt lat="42.450419012457132" lon="2.605351991951466">
        <ele>319.77999999999997</ele>
        <time>2025-05-15T10:12:52Z</time>
      </trkpt>
      <trkpt lat="42.450336031615734" lon="2.605145964771509">
        <ele>319.77999999999997</ele>
        <time>2025-05-15T10:12:53Z</time>
      </trkpt>
      <trkpt lat="42.450212985277176" lon="2.604982014745474">
        <ele>320.25999999999999</ele>
        <time>2025-05-15T10:12:54Z</time>
      </trkpt>
      <trkpt lat="42.450079964473844" lon="2.604837007820606">
        <ele>320.25999999999999</ele>
        <time>2025-05-15T10:12:55Z</time>
      </trkpt>
      <trkpt lat="42.449940992519259" lon="2.604687977582216">
        <ele>320.74000000000001</ele>
        <time>2025-05-15T10:12:56Z</time>
      </trkpt>
      <trkpt lat="42.449795985594392" lon="2.604530984535813">
        <ele>321.22000000000003</ele>
        <time>2025-05-15T10:12:57Z</time>
      </trkpt>
      <trkpt lat="42.449632035568357" lon="2.604417996481061">
        <ele>321.22000000000003</ele>
        <time>2025-05-15T10:12:58Z</time>
      </trkpt>
      <trkpt lat="42.449455009773374" lon="2.60433099232614">
        <ele>321.69999999999999</ele>
        <time>2025-05-15T10:12:59Z</time>
      </trkpt>
      <trkpt lat="42.449273960664868" lon="2.604268966242671">
        <ele>322.18000000000001</ele>
        <time>2025-05-15T10:13:00Z</time>
      </trkpt>
      <trkpt lat="42.449086960405111" lon="2.604205012321472">
        <ele>322.66000000000003</ele>
        <time>2025-05-15T10:13:01Z</time>
      </trkpt>
      <trkpt lat="42.448899960145354" lon="2.604140974581242">
        <ele>323.13999999999999</ele>
        <time>2025-05-15T10:13:02Z</time>
      </trkpt>
      <trkpt lat="42.448715977370739" lon="2.604081965982914">
        <ele>323.13999999999999</ele>
        <time>2025-05-15T10:13:03Z</time>
      </trkpt>
      <trkpt lat="42.44852302595973" lon="2.604081965982914">
        <ele>323.62</ele>
        <time>2025-05-15T10:13:04Z</time>
      </trkpt>
      <trkpt lat="42.448335019871593" lon="2.604101998731494">
        <ele>324.10000000000002</ele>
        <time>2025-05-15T10:13:05Z</time>
      </trkpt>
      <trkpt lat="42.448142990469933" lon="2.604146003723145">
        <ele>324.57999999999998</ele>
        <time>2025-05-15T10:13:06Z</time>
      </trkpt>
      <trkpt lat="42.447958001866937" lon="2.604189002886415">
        <ele>325.54000000000002</ele>
        <time>2025-05-15T10:13:07Z</time>
      </trkpt>
      <trkpt lat="42.447777958586812" lon="2.604229990392923">
        <ele>326.01999999999998</ele>
        <time>2025-05-15T10:13:08Z</time>
      </trkpt>
      <trkpt lat="42.447603028267622" lon="2.604253040626645">
        <ele>326.99000000000001</ele>
        <time>2025-05-15T10:13:09Z</time>
      </trkpt>
      <trkpt lat="42.446550009772182" lon="2.604233007878065">
        <ele>333.23000000000002</ele>
        <time>2025-05-15T10:13:15Z</time>
      </trkpt>
      <trkpt lat="42.446365021169186" lon="2.604299979284406">
        <ele>333.70999999999998</ele>
        <time>2025-05-15T10:13:16Z</time>
      </trkpt>
      <trkpt lat="42.445828998461366" lon="2.604511035606265">
        <ele>334.68000000000001</ele>
        <time>2025-05-15T10:13:19Z</time>
      </trkpt>
      <trkpt lat="42.445690026506782" lon="2.604635003954172">
        <ele>335.16000000000003</ele>
        <time>2025-05-15T10:13:20Z</time>
      </trkpt>
      <trkpt lat="42.445562034845352" lon="2.604796020314097">
        <ele>335.63999999999999</ele>
        <time>2025-05-15T10:13:21Z</time>
      </trkpt>
      <trkpt lat="42.445189962163568" lon="2.605323996394873">
        <ele>336.60000000000002</ele>
        <time>2025-05-15T10:13:24Z</time>
      </trkpt>
      <trkpt lat="42.445027017965913" lon="2.60540597140789">
        <ele>337.07999999999998</ele>
        <time>2025-05-15T10:13:25Z</time>
      </trkpt>
      <trkpt lat="42.444864995777607" lon="2.605420975014567">
        <ele>337.07999999999998</ele>
        <time>2025-05-15T10:13:26Z</time>
      </trkpt>
      <trkpt lat="42.44470096193254" lon="2.6054020319134">
        <ele>337.07999999999998</ele>
        <time>2025-05-15T10:13:27Z</time>
      </trkpt>
      <trkpt lat="42.444542963057756" lon="2.60533900000155">
        <ele>337.07999999999998</ele>
        <time>2025-05-15T10:13:28Z</time>
      </trkpt>
      <trkpt lat="42.444392004981637" lon="2.605215031653643">
        <ele>337.07999999999998</ele>
        <time>2025-05-15T10:13:29Z</time>
      </trkpt>
      <trkpt lat="42.444258984178305" lon="2.605035994201899">
        <ele>336.60000000000002</ele>
        <time>2025-05-15T10:13:30Z</time>
      </trkpt>
      <trkpt lat="42.444129986688495" lon="2.604845976457">
        <ele>336.60000000000002</ele>
        <time>2025-05-15T10:13:31Z</time>
      </trkpt>
      <trkpt lat="42.444018004462123" lon="2.604647995904088">
        <ele>337.07999999999998</ele>
        <time>2025-05-15T10:13:32Z</time>
      </trkpt>
      <trkpt lat="42.443923037499189" lon="2.604444986209273">
        <ele>337.07999999999998</ele>
        <time>2025-05-15T10:13:33Z</time>
      </trkpt>
      <trkpt lat="42.443854976445436" lon="2.604253040626645">
        <ele>336.60000000000002</ele>
        <time>2025-05-15T10:13:34Z</time>
      </trkpt>
      <trkpt lat="42.443793034180999" lon="2.60407299734652">
        <ele>336.60000000000002</ele>
        <time>2025-05-15T10:13:35Z</time>
      </trkpt>
      <trkpt lat="42.443509977310896" lon="2.603359026834369">
        <ele>336.60000000000002</ele>
        <time>2025-05-15T10:13:40Z</time>
      </trkpt>
      <trkpt lat="42.443439988419414" lon="2.603245032951236">
        <ele>336.60000000000002</ele>
        <time>2025-05-15T10:13:41Z</time>
      </trkpt>
      <trkpt lat="42.443362036719918" lon="2.603116035461426">
        <ele>337.07999999999998</ele>
        <time>2025-05-15T10:13:42Z</time>
      </trkpt>
      <trkpt lat="42.443293975666165" lon="2.603036994114518">
        <ele>337.07999999999998</ele>
        <time>2025-05-15T10:13:43Z</time>
      </trkpt>
      <trkpt lat="42.443212000653148" lon="2.602923000231385">
        <ele>337.07999999999998</ele>
        <time>2025-05-15T10:13:44Z</time>
      </trkpt>
      <trkpt lat="42.443112004548311" lon="2.602852005511522">
        <ele>336.60000000000002</ele>
        <time>2025-05-15T10:13:45Z</time>
      </trkpt>
      <trkpt lat="42.443004967644811" lon="2.602770030498505">
        <ele>336.60000000000002</ele>
        <time>2025-05-15T10:13:46Z</time>
      </trkpt>
      <trkpt lat="42.442684024572372" lon="2.602513963356614">
        <ele>335.63999999999999</ele>
        <time>2025-05-15T10:13:49Z</time>
      </trkpt>
      <trkpt lat="42.441815994679928" lon="2.601651968434453">
        <ele>334.19999999999999</ele>
        <time>2025-05-15T10:13:58Z</time>
      </trkpt>
      <trkpt lat="42.441738964989781" lon="2.601528000086546">
        <ele>334.19999999999999</ele>
        <time>2025-05-15T10:13:59Z</time>
      </trkpt>
      <trkpt lat="42.441431013867259" lon="2.601034976541996">
        <ele>334.19999999999999</ele>
        <time>2025-05-15T10:14:03Z</time>
      </trkpt>
      <trkpt lat="42.441285001114011" lon="2.600743034854531">
        <ele>334.19999999999999</ele>
        <time>2025-05-15T10:14:05Z</time>
      </trkpt>
      <trkpt lat="42.44121702387929" lon="2.600608002394438">
        <ele>334.19999999999999</ele>
        <time>2025-05-15T10:14:06Z</time>
      </trkpt>
      <trkpt lat="42.441158015280962" lon="2.600477999076247">
        <ele>334.19999999999999</ele>
        <time>2025-05-15T10:14:07Z</time>
      </trkpt>
      <trkpt lat="42.440542029216886" lon="2.598835984244943">
        <ele>335.63999999999999</ele>
        <time>2025-05-15T10:14:17Z</time>
      </trkpt>
      <trkpt lat="42.44001698680222" lon="2.597313998267055">
        <ele>338.51999999999998</ele>
        <time>2025-05-15T10:14:24Z</time>
      </trkpt>
      <trkpt lat="42.439958984032273" lon="2.597076036036015">
        <ele>338.51999999999998</ele>
        <time>2025-05-15T10:14:25Z</time>
      </trkpt>
      <trkpt lat="42.439834009855986" lon="2.596323005855084">
        <ele>339</ele>
        <time>2025-05-15T10:14:28Z</time>
      </trkpt>
      <trkpt lat="42.439767038449645" lon="2.596078002825379">
        <ele>339</ele>
        <time>2025-05-15T10:14:29Z</time>
      </trkpt>
      <trkpt lat="42.4393480271101" lon="2.594633968546987">
        <ele>340.92000000000002</ele>
        <time>2025-05-15T10:14:35Z</time>
      </trkpt>
      <trkpt lat="42.43930796161294" lon="2.594390977174044">
        <ele>340.92000000000002</ele>
        <time>2025-05-15T10:14:36Z</time>
      </trkpt>
      <trkpt lat="42.439267979934812" lon="2.594156032428145">
        <ele>341.41000000000003</ele>
        <time>2025-05-15T10:14:37Z</time>
      </trkpt>
      <trkpt lat="42.439221041277051" lon="2.593943970277906">
        <ele>341.88999999999999</ele>
        <time>2025-05-15T10:14:38Z</time>
      </trkpt>
      <trkpt lat="42.439144011586905" lon="2.593751018866897">
        <ele>342.85000000000002</ele>
        <time>2025-05-15T10:14:39Z</time>
      </trkpt>
      <trkpt lat="42.439033035188913" lon="2.593594025820494">
        <ele>344.29000000000002</ele>
        <time>2025-05-15T10:14:40Z</time>
      </trkpt>
      <trkpt lat="42.438902026042342" lon="2.593464022502303">
        <ele>345.25</ele>
        <time>2025-05-15T10:14:41Z</time>
      </trkpt>
      <trkpt lat="42.438754001632333" lon="2.593382969498634">
        <ele>346.20999999999998</ele>
        <time>2025-05-15T10:14:42Z</time>
      </trkpt>
      <trkpt lat="42.438594996929169" lon="2.593323038890958">
        <ele>347.17000000000002</ele>
        <time>2025-05-15T10:14:43Z</time>
      </trkpt>
      <trkpt lat="42.43842501193285" lon="2.593293031677604">
        <ele>348.13</ele>
        <time>2025-05-15T10:14:44Z</time>
      </trkpt>
      <trkpt lat="42.438246980309486" lon="2.593262018635869">
        <ele>348.62</ele>
        <time>2025-05-15T10:14:45Z</time>
      </trkpt>
      <trkpt lat="42.437698971480131" lon="2.593203010037541">
        <ele>351.01999999999998</ele>
        <time>2025-05-15T10:14:48Z</time>
      </trkpt>
      <trkpt lat="42.437510965391994" lon="2.593251038342714">
        <ele>351.5</ele>
        <time>2025-05-15T10:14:49Z</time>
      </trkpt>
      <trkpt lat="42.437331005930901" lon="2.593336030840874">
        <ele>352.45999999999998</ele>
        <time>2025-05-15T10:14:50Z</time>
      </trkpt>
      <trkpt lat="42.435790998861194" lon="2.594116972759366">
        <ele>356.31</ele>
        <time>2025-05-15T10:14:59Z</time>
      </trkpt>
      <trkpt lat="42.435650015249848" lon="2.594221998006105">
        <ele>356.31</ele>
        <time>2025-05-15T10:15:00Z</time>
      </trkpt>
      <trkpt lat="42.43552403524518" lon="2.594335991889238">
        <ele>356.79000000000002</ele>
        <time>2025-05-15T10:15:01Z</time>
      </trkpt>
      <trkpt lat="42.434777040034533" lon="2.595234028995037">
        <ele>359.19</ele>
        <time>2025-05-15T10:15:07Z</time>
      </trkpt>
      <trkpt lat="42.434676960110664" lon="2.595342993736267">
        <ele>359.19</ele>
        <time>2025-05-15T10:15:08Z</time>
      </trkpt>
      <trkpt lat="42.43455802090466" lon="2.595361014828086">
        <ele>359.19</ele>
        <time>2025-05-15T10:15:09Z</time>
      </trkpt>
      <trkpt lat="42.434444027021527" lon="2.595342993736267">
        <ele>359.19</ele>
        <time>2025-05-15T10:15:10Z</time>
      </trkpt>
      <trkpt lat="42.434332966804504" lon="2.595256995409727">
        <ele>358.70999999999998</ele>
        <time>2025-05-15T10:15:11Z</time>
      </trkpt>
      <trkpt lat="42.434220984578133" lon="2.595101008191705">
        <ele>358.23000000000002</ele>
        <time>2025-05-15T10:15:12Z</time>
      </trkpt>
      <trkpt lat="42.43412702344358" lon="2.594925994053483">
        <ele>357.75</ele>
        <time>2025-05-15T10:15:13Z</time>
      </trkpt>
      <trkpt lat="42.43350500240922" lon="2.593772979453206">
        <ele>356.31</ele>
        <time>2025-05-15T10:15:19Z</time>
      </trkpt>
      <trkpt lat="42.433166960254312" lon="2.592995977029204">
        <ele>358.23000000000002</ele>
        <time>2025-05-15T10:15:23Z</time>
      </trkpt>
      <trkpt lat="42.433137036859989" lon="2.592804031446576">
        <ele>358.70999999999998</ele>
        <time>2025-05-15T10:15:24Z</time>
      </trkpt>
      <trkpt lat="42.433106023818254" lon="2.592599010095">
        <ele>359.19</ele>
        <time>2025-05-15T10:15:25Z</time>
      </trkpt>
      <trkpt lat="42.433152962476015" lon="2.592425001785159">
        <ele>360.14999999999998</ele>
        <time>2025-05-15T10:15:26Z</time>
      </trkpt>
      <trkpt lat="42.433209959417582" lon="2.592216040939093">
        <ele>361.11000000000001</ele>
        <time>2025-05-15T10:15:27Z</time>
      </trkpt>
      <trkpt lat="42.433271985501051" lon="2.591989981010556">
        <ele>362.55000000000001</ele>
        <time>2025-05-15T10:15:28Z</time>
      </trkpt>
      <trkpt lat="42.433374999091029" lon="2.591541968286037">
        <ele>365.44</ele>
        <time>2025-05-15T10:15:30Z</time>
      </trkpt>
      <trkpt lat="42.433397965505719" lon="2.591340970247984">
        <ele>366.88</ele>
        <time>2025-05-15T10:15:31Z</time>
      </trkpt>
      <trkpt lat="42.433374999091029" lon="2.591154975816608">
        <ele>367.83999999999997</ele>
        <time>2025-05-15T10:15:32Z</time>
      </trkpt>
      <trkpt lat="42.433322025462985" lon="2.590991025790572">
        <ele>368.80000000000001</ele>
        <time>2025-05-15T10:15:33Z</time>
      </trkpt>
      <trkpt lat="42.433239966630936" lon="2.59085800498724">
        <ele>370.24000000000001</ele>
        <time>2025-05-15T10:15:34Z</time>
      </trkpt>
      <trkpt lat="42.433133013546467" lon="2.59074904024601">
        <ele>371.69</ele>
        <time>2025-05-15T10:15:35Z</time>
      </trkpt>
      <trkpt lat="42.433008039370179" lon="2.59068600833416">
        <ele>372.64999999999998</ele>
        <time>2025-05-15T10:15:36Z</time>
      </trkpt>
      <trkpt lat="42.432853979989886" lon="2.590683996677399">
        <ele>373.61000000000001</ele>
        <time>2025-05-15T10:15:37Z</time>
      </trkpt>
      <trkpt lat="42.432687012478709" lon="2.590701011940837">
        <ele>374.56999999999999</ele>
        <time>2025-05-15T10:15:38Z</time>
      </trkpt>
      <trkpt lat="42.431340962648392" lon="2.590685002505779">
        <ele>380.81999999999999</ele>
        <time>2025-05-15T10:15:45Z</time>
      </trkpt>
      <trkpt lat="42.430229019373655" lon="2.590839983895421">
        <ele>386.58999999999997</ele>
        <time>2025-05-15T10:15:51Z</time>
      </trkpt>
      <trkpt lat="42.430079989135265" lon="2.590894969180226">
        <ele>388.02999999999997</ele>
        <time>2025-05-15T10:15:52Z</time>
      </trkpt>
      <trkpt lat="42.429684028029442" lon="2.591185988858342">
        <ele>390.91000000000003</ele>
        <time>2025-05-15T10:15:55Z</time>
      </trkpt>
      <trkpt lat="42.42957497946918" lon="2.591286990791559">
        <ele>391.87</ele>
        <time>2025-05-15T10:15:56Z</time>
      </trkpt>
      <trkpt lat="42.429480012506247" lon="2.591396039351821">
        <ele>392.83999999999997</ele>
        <time>2025-05-15T10:15:57Z</time>
      </trkpt>
      <trkpt lat="42.429389990866184" lon="2.591497963294387">
        <ele>393.80000000000001</ele>
        <time>2025-05-15T10:15:58Z</time>
      </trkpt>
      <trkpt lat="42.429309021681547" lon="2.591591002419591">
        <ele>394.75999999999999</ele>
        <time>2025-05-15T10:15:59Z</time>
      </trkpt>
      <trkpt lat="42.429198967292905" lon="2.591593014076352">
        <ele>395.24000000000001</ele>
        <time>2025-05-15T10:16:00Z</time>
      </trkpt>
      <trkpt lat="42.429111041128635" lon="2.591555966064334">
        <ele>395.72000000000003</ele>
        <time>2025-05-15T10:16:01Z</time>
      </trkpt>
      <trkpt lat="42.429041974246502" lon="2.59148103184998">
        <ele>396.68000000000001</ele>
        <time>2025-05-15T10:16:02Z</time>
      </trkpt>
      <trkpt lat="42.429001992568374" lon="2.591348011046648">
        <ele>397.16000000000003</ele>
        <time>2025-05-15T10:16:03Z</time>
      </trkpt>
      <trkpt lat="42.428984977304935" lon="2.591200992465019">
        <ele>397.16000000000003</ele>
        <time>2025-05-15T10:16:04Z</time>
      </trkpt>
      <trkpt lat="42.428984977304935" lon="2.591027989983559">
        <ele>398.12</ele>
        <time>2025-05-15T10:16:05Z</time>
      </trkpt>
      <trkpt lat="42.428984977304935" lon="2.590831015259028">
        <ele>398.60000000000002</ele>
        <time>2025-05-15T10:16:06Z</time>
      </trkpt>
      <trkpt lat="42.428984977304935" lon="2.590050995349884">
        <ele>401.97000000000003</ele>
        <time>2025-05-15T10:16:10Z</time>
      </trkpt>
      <trkpt lat="42.428961005061865" lon="2.589899031445384">
        <ele>402.93000000000001</ele>
        <time>2025-05-15T10:16:11Z</time>
      </trkpt>
      <trkpt lat="42.428905013948679" lon="2.589754024520516">
        <ele>403.41000000000003</ele>
        <time>2025-05-15T10:16:12Z</time>
      </trkpt>
      <trkpt lat="42.42882002145052" lon="2.589618992060423">
        <ele>404.37</ele>
        <time>2025-05-15T10:16:13Z</time>
      </trkpt>
      <trkpt lat="42.428707033395767" lon="2.589493012055755">
        <ele>404.85000000000002</ele>
        <time>2025-05-15T10:16:14Z</time>
      </trkpt>
      <trkpt lat="42.4285429995507" lon="2.589432997629046">
        <ele>405.32999999999998</ele>
        <time>2025-05-15T10:16:15Z</time>
      </trkpt>
      <trkpt lat="42.428378965705633" lon="2.589392010122538">
        <ele>406.29000000000002</ele>
        <time>2025-05-15T10:16:16Z</time>
      </trkpt>
      <trkpt lat="42.428205963224173" lon="2.58939603343606">
        <ele>406.76999999999998</ele>
        <time>2025-05-15T10:16:17Z</time>
      </trkpt>
      <trkpt lat="42.426603008061647" lon="2.589598037302494">
        <ele>410.13999999999999</ele>
        <time>2025-05-15T10:16:26Z</time>
      </trkpt>
      <trkpt lat="42.42643897421658" lon="2.589598037302494">
        <ele>410.62</ele>
        <time>2025-05-15T10:16:27Z</time>
      </trkpt>
      <trkpt lat="42.426281981170177" lon="2.589567024260759">
        <ele>411.10000000000002</ele>
        <time>2025-05-15T10:16:28Z</time>
      </trkpt>
      <trkpt lat="42.425961960107088" lon="2.589475996792316">
        <ele>412.06</ele>
        <time>2025-05-15T10:16:30Z</time>
      </trkpt>
      <trkpt lat="42.425790969282389" lon="2.589492006227374">
        <ele>412.54000000000002</ele>
        <time>2025-05-15T10:16:31Z</time>
      </trkpt>
      <trkpt lat="42.425294006243348" lon="2.589541040360928">
        <ele>414.47000000000003</ele>
        <time>2025-05-15T10:16:34Z</time>
      </trkpt>
      <trkpt lat="42.425193004310131" lon="2.589487982913852">
        <ele>415.43000000000001</ele>
        <time>2025-05-15T10:16:35Z</time>
      </trkpt>
      <trkpt lat="42.425107005983591" lon="2.589383041486144">
        <ele>416.38999999999999</ele>
        <time>2025-05-15T10:16:36Z</time>
      </trkpt>
      <trkpt lat="42.425024025142193" lon="2.589265024289489">
        <ele>416.87</ele>
        <time>2025-05-15T10:16:37Z</time>
      </trkpt>
      <trkpt lat="42.424929980188608" lon="2.589039970189333">
        <ele>417.35000000000002</ele>
        <time>2025-05-15T10:16:38Z</time>
      </trkpt>
      <trkpt lat="42.424896033480763" lon="2.588851964101195">
        <ele>417.82999999999998</ele>
        <time>2025-05-15T10:16:39Z</time>
      </trkpt>
      <trkpt lat="42.424751026555896" lon="2.588063981384039">
        <ele>419.26999999999998</ele>
        <time>2025-05-15T10:16:42Z</time>
      </trkpt>
      <trkpt lat="42.424671985208988" lon="2.587801041081548">
        <ele>419.75</ele>
        <time>2025-05-15T10:16:43Z</time>
      </trkpt>
      <trkpt lat="42.424591016024351" lon="2.587567018344998">
        <ele>420.23000000000002</ele>
        <time>2025-05-15T10:16:44Z</time>
      </trkpt>
      <trkpt lat="42.424508035182953" lon="2.587358979508281">
        <ele>420.70999999999998</ele>
        <time>2025-05-15T10:16:45Z</time>
      </trkpt>
      <trkpt lat="42.424408039078116" lon="2.587167033925653">
        <ele>421.19</ele>
        <time>2025-05-15T10:16:46Z</time>
      </trkpt>
      <trkpt lat="42.424265965819359" lon="2.587040970101953">
        <ele>421.68000000000001</ele>
        <time>2025-05-15T10:16:47Z</time>
      </trkpt>
      <trkpt lat="42.424141997471452" lon="2.586885988712311">
        <ele>422.16000000000003</ele>
        <time>2025-05-15T10:16:48Z</time>
      </trkpt>
      <trkpt lat="42.424021968618035" lon="2.58671198040247">
        <ele>422.63999999999999</ele>
        <time>2025-05-15T10:16:49Z</time>
      </trkpt>
      <trkpt lat="42.423866987228394" lon="2.586572002619505">
        <ele>422.63999999999999</ele>
        <time>2025-05-15T10:16:50Z</time>
      </trkpt>
      <trkpt lat="42.423716029152274" lon="2.586462032049894">
        <ele>423.12</ele>
        <time>2025-05-15T10:16:51Z</time>
      </trkpt>
      <trkpt lat="42.423464991152287" lon="2.586247036233544">
        <ele>423.60000000000002</ele>
        <time>2025-05-15T10:16:53Z</time>
      </trkpt>
      <trkpt lat="42.423099959269166" lon="2.585772033780813">
        <ele>424.56</ele>
        <time>2025-05-15T10:16:56Z</time>
      </trkpt>
      <trkpt lat="42.422955958172679" lon="2.585606994107366">
        <ele>425.04000000000002</ele>
        <time>2025-05-15T10:16:57Z</time>
      </trkpt>
      <trkpt lat="42.422709027305245" lon="2.585403984412551">
        <ele>426</ele>
        <time>2025-05-15T10:16:59Z</time>
      </trkpt>
      <trkpt lat="42.42263300344348" lon="2.585261994972825">
        <ele>426.48000000000002</ele>
        <time>2025-05-15T10:17:00Z</time>
      </trkpt>
      <trkpt lat="42.422594027593732" lon="2.585083963349462">
        <ele>427.44</ele>
        <time>2025-05-15T10:17:01Z</time>
      </trkpt>
      <trkpt lat="42.422608025372028" lon="2.584896041080356">
        <ele>427.92000000000002</ele>
        <time>2025-05-15T10:17:02Z</time>
      </trkpt>
      <trkpt lat="42.422638032585382" lon="2.584676016122103">
        <ele>428.39999999999998</ele>
        <time>2025-05-15T10:17:03Z</time>
      </trkpt>
      <trkpt lat="42.422766024246812" lon="2.583992974832654">
        <ele>430.81</ele>
        <time>2025-05-15T10:17:06Z</time>
      </trkpt>
      <trkpt lat="42.422843975946307" lon="2.583796000108123">
        <ele>431.29000000000002</ele>
        <time>2025-05-15T10:17:07Z</time>
      </trkpt>
      <trkpt lat="42.422961993142962" lon="2.583638001233339">
        <ele>431.76999999999998</ele>
        <time>2025-05-15T10:17:08Z</time>
      </trkpt>
      <trkpt lat="42.423218982294202" lon="2.583277998492122">
        <ele>433.69</ele>
        <time>2025-05-15T10:17:10Z</time>
      </trkpt>
      <trkpt lat="42.423320990055799" lon="2.583084041252732">
        <ele>434.64999999999998</ele>
        <time>2025-05-15T10:17:11Z</time>
      </trkpt>
      <trkpt lat="42.4234280269593" lon="2.582881031557918">
        <ele>435.13</ele>
        <time>2025-05-15T10:17:12Z</time>
      </trkpt>
      <trkpt lat="42.423545038327575" lon="2.582755973562598">
        <ele>435.13</ele>
        <time>2025-05-15T10:17:13Z</time>
      </trkpt>
      <trkpt lat="42.423674035817385" lon="2.582617001608014">
        <ele>435.61000000000001</ele>
        <time>2025-05-15T10:17:14Z</time>
      </trkpt>
      <trkpt lat="42.42379498668015" lon="2.582529997453094">
        <ele>436.10000000000002</ele>
        <time>2025-05-15T10:17:15Z</time>
      </trkpt>
      <trkpt lat="42.423909986391664" lon="2.582465037703514">
        <ele>436.10000000000002</ele>
        <time>2025-05-15T10:17:16Z</time>
      </trkpt>
      <trkpt lat="42.424006965011358" lon="2.582408962771297">
        <ele>436.57999999999998</ele>
        <time>2025-05-15T10:17:17Z</time>
      </trkpt>
      <trkpt lat="42.424093969166279" lon="2.58226496167481">
        <ele>436.57999999999998</ele>
        <time>2025-05-15T10:17:18Z</time>
      </trkpt>
      <trkpt lat="42.424130011349916" lon="2.582110986113548">
        <ele>437.06</ele>
        <time>2025-05-15T10:17:19Z</time>
      </trkpt>
      <trkpt lat="42.424118025228381" lon="2.581943012773991">
        <ele>437.54000000000002</ele>
        <time>2025-05-15T10:17:20Z</time>
      </trkpt>
      <trkpt lat="42.424082988873124" lon="2.581765986979008">
        <ele>437.54000000000002</ele>
        <time>2025-05-15T10:17:21Z</time>
      </trkpt>
      <trkpt lat="42.424036972224712" lon="2.581574963405728">
        <ele>438.01999999999998</ele>
        <time>2025-05-15T10:17:22Z</time>
      </trkpt>
      <trkpt lat="42.423989027738571" lon="2.581375977024436">
        <ele>438.98000000000002</ele>
        <time>2025-05-15T10:17:23Z</time>
      </trkpt>
      <trkpt lat="42.423973018303514" lon="2.581152012571693">
        <ele>438.98000000000002</ele>
        <time>2025-05-15T10:17:24Z</time>
      </trkpt>
      <trkpt lat="42.423989027738571" lon="2.580925030633807">
        <ele>439.45999999999998</ele>
        <time>2025-05-15T10:17:25Z</time>
      </trkpt>
      <trkpt lat="42.424005037173629" lon="2.580702994018793">
        <ele>439.94</ele>
        <time>2025-05-15T10:17:26Z</time>
      </trkpt>
      <trkpt lat="42.423974024131894" lon="2.580492021515966">
        <ele>440.42000000000002</ele>
        <time>2025-05-15T10:17:27Z</time>
      </trkpt>
      <trkpt lat="42.423914009705186" lon="2.580296974629164">
        <ele>440.89999999999998</ele>
        <time>2025-05-15T10:17:28Z</time>
      </trkpt>
      <trkpt lat="42.423842009156942" lon="2.58009497076273">
        <ele>441.38</ele>
        <time>2025-05-15T10:17:29Z</time>
      </trkpt>
      <trkpt lat="42.423770008608699" lon="2.579891039058566">
        <ele>441.86000000000001</ele>
        <time>2025-05-15T10:17:30Z</time>
      </trkpt>
      <trkpt lat="42.423740001395345" lon="2.579683000221849">
        <ele>441.86000000000001</ele>
        <time>2025-05-15T10:17:31Z</time>
      </trkpt>
      <trkpt lat="42.423742013052106" lon="2.579474039375782">
        <ele>442.33999999999997</ele>
        <time>2025-05-15T10:17:32Z</time>
      </trkpt>
      <trkpt lat="42.42379498668015" lon="2.57925602607429">
        <ele>442.81999999999999</ele>
        <time>2025-05-15T10:17:33Z</time>
      </trkpt>
      <trkpt lat="42.423863969743252" lon="2.579028960317373">
        <ele>443.31</ele>
        <time>2025-05-15T10:17:34Z</time>
      </trkpt>
      <trkpt lat="42.423967989161611" lon="2.57880600169301">
        <ele>443.79000000000002</ele>
        <time>2025-05-15T10:17:35Z</time>
      </trkpt>
      <trkpt lat="42.424101009964943" lon="2.578599974513054">
        <ele>444.75</ele>
        <time>2025-05-15T10:17:36Z</time>
      </trkpt>
      <trkpt lat="42.424242999404669" lon="2.578400988131762">
        <ele>445.23000000000002</ele>
        <time>2025-05-15T10:17:37Z</time>
      </trkpt>
      <trkpt lat="42.424481967464089" lon="2.578020030632615">
        <ele>446.67000000000002</ele>
        <time>2025-05-15T10:17:39Z</time>
      </trkpt>
      <trkpt lat="42.42456897161901" lon="2.577820038422942">
        <ele>447.14999999999998</ele>
        <time>2025-05-15T10:17:40Z</time>
      </trkpt>
      <trkpt lat="42.424629991874099" lon="2.577610993757844">
        <ele>448.11000000000001</ele>
        <time>2025-05-15T10:17:41Z</time>
      </trkpt>
      <trkpt lat="42.424671985208988" lon="2.577389040961862">
        <ele>449.06999999999999</ele>
        <time>2025-05-15T10:17:42Z</time>
      </trkpt>
      <trkpt lat="42.424714984372258" lon="2.577158035710454">
        <ele>450.02999999999997</ele>
        <time>2025-05-15T10:17:43Z</time>
      </trkpt>
      <trkpt lat="42.424843981862068" lon="2.576220016926527">
        <ele>452.44</ele>
        <time>2025-05-15T10:17:47Z</time>
      </trkpt>
      <trkpt lat="42.424843981862068" lon="2.575994040817022">
        <ele>452.92000000000002</ele>
        <time>2025-05-15T10:17:48Z</time>
      </trkpt>
      <trkpt lat="42.424790002405643" lon="2.575834030285478">
        <ele>452.92000000000002</ele>
        <time>2025-05-15T10:17:49Z</time>
      </trkpt>
      <trkpt lat="42.424716996029019" lon="2.575700003653765">
        <ele>453.39999999999998</ele>
        <time>2025-05-15T10:17:50Z</time>
      </trkpt>
      <trkpt lat="42.424616999924183" lon="2.575612999498844">
        <ele>453.88</ele>
        <time>2025-05-15T10:17:51Z</time>
      </trkpt>
      <trkpt lat="42.424502000212669" lon="2.575568994507194">
        <ele>454.36000000000001</ele>
        <time>2025-05-15T10:17:52Z</time>
      </trkpt>
      <trkpt lat="42.42437400855124" lon="2.575543010607362">
        <ele>454.83999999999997</ele>
        <time>2025-05-15T10:17:53Z</time>
      </trkpt>
      <trkpt lat="42.424235036596656" lon="2.575543010607362">
        <ele>455.80000000000001</ele>
        <time>2025-05-15T10:17:54Z</time>
      </trkpt>
      <trkpt lat="42.424089023843408" lon="2.575559020042419">
        <ele>456.75999999999999</ele>
        <time>2025-05-15T10:17:55Z</time>
      </trkpt>
      <trkpt lat="42.423933036625385" lon="2.575577041134238">
        <ele>457.72000000000003</ele>
        <time>2025-05-15T10:17:56Z</time>
      </trkpt>
      <trkpt lat="42.423628019168973" lon="2.575591038912535">
        <ele>459.64999999999998</ele>
        <time>2025-05-15T10:17:58Z</time>
      </trkpt>
      <trkpt lat="42.42349399253726" lon="2.575530018657446">
        <ele>460.13</ele>
        <time>2025-05-15T10:17:59Z</time>
      </trkpt>
      <trkpt lat="42.423357032239437" lon="2.57543102838099">
        <ele>460.61000000000001</ele>
        <time>2025-05-15T10:18:00Z</time>
      </trkpt>
      <trkpt lat="42.422477016225457" lon="2.574588982388377">
        <ele>462.05000000000001</ele>
        <time>2025-05-15T10:18:06Z</time>
      </trkpt>
      <trkpt lat="42.422331003472209" lon="2.574498960748315">
        <ele>463.00999999999999</ele>
        <time>2025-05-15T10:18:07Z</time>
      </trkpt>
      <trkpt lat="42.422167975455523" lon="2.574450010433793">
        <ele>463.97000000000003</ele>
        <time>2025-05-15T10:18:08Z</time>
      </trkpt>
      <trkpt lat="42.421998996287584" lon="2.574455961585045">
        <ele>464.93000000000001</ele>
        <time>2025-05-15T10:18:09Z</time>
      </trkpt>
      <trkpt lat="42.421824987977743" lon="2.57446400821209">
        <ele>466.38</ele>
        <time>2025-05-15T10:18:10Z</time>
      </trkpt>
      <trkpt lat="42.42171099409461" lon="2.574469959363341">
        <ele>468.30000000000001</ele>
        <time>2025-05-15T10:18:11Z</time>
      </trkpt>
      <trkpt lat="42.42151896469295" lon="2.574445987120271">
        <ele>470.22000000000003</ele>
        <time>2025-05-15T10:18:12Z</time>
      </trkpt>
      <trkpt lat="42.421379992738366" lon="2.574428971856833">
        <ele>472.13999999999999</ele>
        <time>2025-05-15T10:18:13Z</time>
      </trkpt>
      <trkpt lat="42.421285025775433" lon="2.574344985187054">
        <ele>474.06999999999999</ele>
        <time>2025-05-15T10:18:14Z</time>
      </trkpt>
      <trkpt lat="42.421190980821848" lon="2.574236020445824">
        <ele>475.50999999999999</ele>
        <time>2025-05-15T10:18:15Z</time>
      </trkpt>
      <trkpt lat="42.421139013022184" lon="2.574054971337318">
        <ele>476.94999999999999</ele>
        <time>2025-05-15T10:18:16Z</time>
      </trkpt>
      <trkpt lat="42.421081010252237" lon="2.573851961642504">
        <ele>478.38999999999999</ele>
        <time>2025-05-15T10:18:17Z</time>
      </trkpt>
      <trkpt lat="42.420699968934059" lon="2.572780000045896">
        <ele>482.24000000000001</ele>
        <time>2025-05-15T10:18:22Z</time>
      </trkpt>
      <trkpt lat="42.420610031113029" lon="2.572625018656254">
        <ele>483.19999999999999</ele>
        <time>2025-05-15T10:18:23Z</time>
      </trkpt>
      <trkpt lat="42.420474998652935" lon="2.572522005066276">
        <ele>483.68000000000001</ele>
        <time>2025-05-15T10:18:24Z</time>
      </trkpt>
      <trkpt lat="42.420337032526731" lon="2.572417985647917">
        <ele>484.63999999999999</ele>
        <time>2025-05-15T10:18:25Z</time>
      </trkpt>
      <trkpt lat="42.420198982581496" lon="2.572312038391829">
        <ele>485.60000000000002</ele>
        <time>2025-05-15T10:18:26Z</time>
      </trkpt>
      <trkpt lat="42.420080965384841" lon="2.572197038680315">
        <ele>486.56</ele>
        <time>2025-05-15T10:18:27Z</time>
      </trkpt>
      <trkpt lat="42.419989015907049" lon="2.572012972086668">
        <ele>487.52999999999997</ele>
        <time>2025-05-15T10:18:28Z</time>
      </trkpt>
      <trkpt lat="42.419900000095367" lon="2.571834018453956">
        <ele>488.49000000000001</ele>
        <time>2025-05-15T10:18:29Z</time>
      </trkpt>
      <trkpt lat="42.419787012040615" lon="2.571691023185849">
        <ele>489.44999999999999</ele>
        <time>2025-05-15T10:18:30Z</time>
      </trkpt>
      <trkpt lat="42.419682992622256" lon="2.571567976847291">
        <ele>489.44999999999999</ele>
        <time>2025-05-15T10:18:31Z</time>
      </trkpt>
      <trkpt lat="42.419525999575853" lon="2.571530006825924">
        <ele>489.93000000000001</ele>
        <time>2025-05-15T10:18:32Z</time>
      </trkpt>
      <trkpt lat="42.419385015964508" lon="2.571549033746123">
        <ele>490.41000000000003</ele>
        <time>2025-05-15T10:18:33Z</time>
      </trkpt>
      <trkpt lat="42.419255012646317" lon="2.571633020415902">
        <ele>491.37</ele>
        <time>2025-05-15T10:18:34Z</time>
      </trkpt>
      <trkpt lat="42.419115034863353" lon="2.571722958236933">
        <ele>492.32999999999998</ele>
        <time>2025-05-15T10:18:35Z</time>
      </trkpt>
      <trkpt lat="42.418966004624963" lon="2.571806022897363">
        <ele>493.29000000000002</ele>
        <time>2025-05-15T10:18:36Z</time>
      </trkpt>
      <trkpt lat="42.418826026841998" lon="2.571831000968814">
        <ele>493.76999999999998</ele>
        <time>2025-05-15T10:18:37Z</time>
      </trkpt>
      <trkpt lat="42.418694011867046" lon="2.571806022897363">
        <ele>494.25999999999999</ele>
        <time>2025-05-15T10:18:38Z</time>
      </trkpt>
      <trkpt lat="42.418556967750192" lon="2.571745002642274">
        <ele>494.74000000000001</ele>
        <time>2025-05-15T10:18:39Z</time>
      </trkpt>
      <trkpt lat="42.418455965816975" lon="2.571622040122747">
        <ele>495.22000000000003</ele>
        <time>2025-05-15T10:18:40Z</time>
      </trkpt>
      <trkpt lat="42.418338032439351" lon="2.571466974914074">
        <ele>495.69999999999999</ele>
        <time>2025-05-15T10:18:41Z</time>
      </trkpt>
      <trkpt lat="42.418222026899457" lon="2.571275029331446">
        <ele>496.66000000000003</ele>
        <time>2025-05-15T10:18:42Z</time>
      </trkpt>
      <trkpt lat="42.417984986677766" lon="2.570883007720113">
        <ele>497.62</ele>
        <time>2025-05-15T10:18:44Z</time>
      </trkpt>
      <trkpt lat="42.417869986966252" lon="2.570693995803595">
        <ele>498.10000000000002</ele>
        <time>2025-05-15T10:18:45Z</time>
      </trkpt>
      <trkpt lat="42.417837968096137" lon="2.570516970008612">
        <ele>498.57999999999998</ele>
        <time>2025-05-15T10:18:46Z</time>
      </trkpt>
      <trkpt lat="42.417826987802982" lon="2.570303985849023">
        <ele>499.54000000000002</ele>
        <time>2025-05-15T10:18:47Z</time>
      </trkpt>
      <trkpt lat="42.417826987802982" lon="2.570071974769235">
        <ele>500.01999999999998</ele>
        <time>2025-05-15T10:18:48Z</time>
      </trkpt>
      <trkpt lat="42.417796980589628" lon="2.569836024194956">
        <ele>500.5</ele>
        <time>2025-05-15T10:18:49Z</time>
      </trkpt>
      <trkpt lat="42.417730009183288" lon="2.569613987579942">
        <ele>500.98000000000002</ele>
        <time>2025-05-15T10:18:50Z</time>
      </trkpt>
      <trkpt lat="42.417655996978283" lon="2.569402009248734">
        <ele>500.98000000000002</ele>
        <time>2025-05-15T10:18:51Z</time>
      </trkpt>
      <trkpt lat="42.417567986994982" lon="2.569222971796989">
        <ele>501.45999999999998</ele>
        <time>2025-05-15T10:18:52Z</time>
      </trkpt>
      <trkpt lat="42.417460028082132" lon="2.569091040641069">
        <ele>501.94999999999999</ele>
        <time>2025-05-15T10:18:53Z</time>
      </trkpt>
      <trkpt lat="42.417341005057096" lon="2.569013005122542">
        <ele>501.45999999999998</ele>
        <time>2025-05-15T10:18:54Z</time>
      </trkpt>
      <trkpt lat="42.417183006182313" lon="2.568955002352595">
        <ele>501.45999999999998</ele>
        <time>2025-05-15T10:18:55Z</time>
      </trkpt>
      <trkpt lat="42.417040010914207" lon="2.568955002352595">
        <ele>501.94999999999999</ele>
        <time>2025-05-15T10:18:56Z</time>
      </trkpt>
      <trkpt lat="42.416882012039423" lon="2.568955002352595">
        <ele>501.94999999999999</ele>
        <time>2025-05-15T10:18:57Z</time>
      </trkpt>
      <trkpt lat="42.416745973750949" lon="2.568898005411029">
        <ele>502.43000000000001</ele>
        <time>2025-05-15T10:18:58Z</time>
      </trkpt>
      <trkpt lat="42.416611025109887" lon="2.568809995427728">
        <ele>502.43000000000001</ele>
        <time>2025-05-15T10:18:59Z</time>
      </trkpt>
      <trkpt lat="42.416484961286187" lon="2.568673035129905">
        <ele>502.91000000000003</ele>
        <time>2025-05-15T10:19:00Z</time>
      </trkpt>
      <trkpt lat="42.416339032351971" lon="2.56853498518467">
        <ele>503.38999999999999</ele>
        <time>2025-05-15T10:19:01Z</time>
      </trkpt>
      <trkpt lat="42.416163012385368" lon="2.568458039313555">
        <ele>503.87</ele>
        <time>2025-05-15T10:19:02Z</time>
      </trkpt>
      <trkpt lat="42.415637969970703" lon="2.568118991330266">
        <ele>505.79000000000002</ele>
        <time>2025-05-15T10:19:06Z</time>
      </trkpt>
      <trkpt lat="42.415591031312943" lon="2.567988988012075">
        <ele>506.26999999999998</ele>
        <time>2025-05-15T10:19:07Z</time>
      </trkpt>
      <trkpt lat="42.41545700468123" lon="2.56765304133296">
        <ele>506.75</ele>
        <time>2025-05-15T10:19:09Z</time>
      </trkpt>
      <trkpt lat="42.414993988350034" lon="2.566720973700285">
        <ele>506.75</ele>
        <time>2025-05-15T10:19:14Z</time>
      </trkpt>
      <trkpt lat="42.414951995015144" lon="2.566508995369077">
        <ele>506.75</ele>
        <time>2025-05-15T10:19:15Z</time>
      </trkpt>
      <trkpt lat="42.414960041642189" lon="2.566336998715997">
        <ele>506.26999999999998</ele>
        <time>2025-05-15T10:19:16Z</time>
      </trkpt>
      <trkpt lat="42.414970016106963" lon="2.566146980971098">
        <ele>506.26999999999998</ele>
        <time>2025-05-15T10:19:17Z</time>
      </trkpt>
      <trkpt lat="42.414948977530003" lon="2.565984036773443">
        <ele>505.79000000000002</ele>
        <time>2025-05-15T10:19:18Z</time>
      </trkpt>
      <trkpt lat="42.414908995851874" lon="2.565823020413518">
        <ele>505.79000000000002</ele>
        <time>2025-05-15T10:19:19Z</time>
      </trkpt>
      <trkpt lat="42.414848981425166" lon="2.565672984346747">
        <ele>505.31</ele>
        <time>2025-05-15T10:19:20Z</time>
      </trkpt>
      <trkpt lat="42.414786033332348" lon="2.565514985471964">
        <ele>505.31</ele>
        <time>2025-05-15T10:19:21Z</time>
      </trkpt>
      <trkpt lat="42.414741022512317" lon="2.565358998253942">
        <ele>505.31</ele>
        <time>2025-05-15T10:19:22Z</time>
      </trkpt>
      <trkpt lat="42.414758037775755" lon="2.5651849899441">
        <ele>504.82999999999998</ele>
        <time>2025-05-15T10:19:23Z</time>
      </trkpt>
      <trkpt lat="42.414775975048542" lon="2.565001007169485">
        <ele>504.82999999999998</ele>
        <time>2025-05-15T10:19:24Z</time>
      </trkpt>
      <trkpt lat="42.414757031947374" lon="2.564822975546122">
        <ele>504.35000000000002</ele>
        <time>2025-05-15T10:19:25Z</time>
      </trkpt>
      <trkpt lat="42.414715038612485" lon="2.564638992771506">
        <ele>504.35000000000002</ele>
        <time>2025-05-15T10:19:26Z</time>
      </trkpt>
      <trkpt lat="42.414652006700635" lon="2.564446963369846">
        <ele>504.35000000000002</ele>
        <time>2025-05-15T10:19:27Z</time>
      </trkpt>
      <trkpt lat="42.414584029465914" lon="2.564241020008922">
        <ele>504.35000000000002</ele>
        <time>2025-05-15T10:19:28Z</time>
      </trkpt>
      <trkpt lat="42.41451202891767" lon="2.564022000879049">
        <ele>504.35000000000002</ele>
        <time>2025-05-15T10:19:29Z</time>
      </trkpt>
      <trkpt lat="42.414177004247904" lon="2.56284199655056">
        <ele>504.35000000000002</ele>
        <time>2025-05-15T10:19:34Z</time>
      </trkpt>
      <trkpt lat="42.414117995649576" lon="2.561717983335257">
        <ele>504.82999999999998</ele>
        <time>2025-05-15T10:19:39Z</time>
      </trkpt>
      <trkpt lat="42.414151020348072" lon="2.561565013602376">
        <ele>504.82999999999998</ele>
        <time>2025-05-15T10:19:40Z</time>
      </trkpt>
      <trkpt lat="42.414183039218187" lon="2.561420006677508">
        <ele>504.82999999999998</ele>
        <time>2025-05-15T10:19:41Z</time>
      </trkpt>
      <trkpt lat="42.414183961227536" lon="2.561281034722924">
        <ele>505.31</ele>
        <time>2025-05-15T10:19:42Z</time>
      </trkpt>
      <trkpt lat="42.414136016741395" lon="2.561123035848141">
        <ele>505.79000000000002</ele>
        <time>2025-05-15T10:19:43Z</time>
      </trkpt>
      <trkpt lat="42.414047000929713" lon="2.560999989509583">
        <ele>505.79000000000002</ele>
        <time>2025-05-15T10:19:44Z</time>
      </trkpt>
      <trkpt lat="42.41395597346127" lon="2.56086403504014">
        <ele>506.26999999999998</ele>
        <time>2025-05-15T10:19:45Z</time>
      </trkpt>
      <trkpt lat="42.41389000788331" lon="2.560675023123622">
        <ele>506.75</ele>
        <time>2025-05-15T10:19:46Z</time>
      </trkpt>
      <trkpt lat="42.413818007335067" lon="2.560470001772046">
        <ele>507.23000000000002</ele>
        <time>2025-05-15T10:19:47Z</time>
      </trkpt>
      <trkpt lat="42.41374097764492" lon="2.560251988470554">
        <ele>507.70999999999998</ele>
        <time>2025-05-15T10:19:48Z</time>
      </trkpt>
      <trkpt lat="42.413677023723722" lon="2.560041015967727">
        <ele>508.67000000000002</ele>
        <time>2025-05-15T10:19:49Z</time>
      </trkpt>
      <trkpt lat="42.413639975711703" lon="2.5598110165447">
        <ele>508.67000000000002</ele>
        <time>2025-05-15T10:19:50Z</time>
      </trkpt>
      <trkpt lat="42.413408970460296" lon="2.55811401642859">
        <ele>509.63999999999999</ele>
        <time>2025-05-15T10:19:57Z</time>
      </trkpt>
      <trkpt lat="42.413406958803535" lon="2.557888040319085">
        <ele>509.16000000000003</ele>
        <time>2025-05-15T10:19:58Z</time>
      </trkpt>
      <trkpt lat="42.413423974066973" lon="2.557671032845974">
        <ele>509.16000000000003</ele>
        <time>2025-05-15T10:19:59Z</time>
      </trkpt>
      <trkpt lat="42.413464039564133" lon="2.557468023151159">
        <ele>508.67000000000002</ele>
        <time>2025-05-15T10:20:00Z</time>
      </trkpt>
      <trkpt lat="42.413493040949106" lon="2.557325027883053">
        <ele>508.67000000000002</ele>
        <time>2025-05-15T10:20:01Z</time>
      </trkpt>
      <trkpt lat="42.413454987108707" lon="2.557150013744831">
        <ele>508.67000000000002</ele>
        <time>2025-05-15T10:20:02Z</time>
      </trkpt>
      <trkpt lat="42.413427997380495" lon="2.557025039568543">
        <ele>508.67000000000002</ele>
        <time>2025-05-15T10:20:03Z</time>
      </trkpt>
      <trkpt lat="42.413334036245942" lon="2.556937029585242">
        <ele>508.67000000000002</ele>
        <time>2025-05-15T10:20:04Z</time>
      </trkpt>
      <trkpt lat="42.413219958543777" lon="2.556830998510122">
        <ele>508.67000000000002</ele>
        <time>2025-05-15T10:20:05Z</time>
      </trkpt>
      <trkpt lat="42.413105964660645" lon="2.556724967435002">
        <ele>508.67000000000002</ele>
        <time>2025-05-15T10:20:06Z</time>
      </trkpt>
      <trkpt lat="42.413010997697711" lon="2.556554982438684">
        <ele>508.67000000000002</ele>
        <time>2025-05-15T10:20:07Z</time>
      </trkpt>
      <trkpt lat="42.412917958572507" lon="2.556389020755887">
        <ele>509.16000000000003</ele>
        <time>2025-05-15T10:20:08Z</time>
      </trkpt>
      <trkpt lat="42.412818968296051" lon="2.556213000789285">
        <ele>509.16000000000003</ele>
        <time>2025-05-15T10:20:09Z</time>
      </trkpt>
      <trkpt lat="42.412716038525105" lon="2.556031029671431">
        <ele>509.63999999999999</ele>
        <time>2025-05-15T10:20:10Z</time>
      </trkpt>
      <trkpt lat="42.412519985809922" lon="2.55568795837462">
        <ele>509.63999999999999</ele>
        <time>2025-05-15T10:20:12Z</time>
      </trkpt>
      <trkpt lat="42.412380008026958" lon="2.55555703304708">
        <ele>510.12</ele>
        <time>2025-05-15T10:20:13Z</time>
      </trkpt>
      <trkpt lat="42.411939958110452" lon="2.555145984515548">
        <ele>510.60000000000002</ele>
        <time>2025-05-15T10:20:16Z</time>
      </trkpt>
      <trkpt lat="42.411811966449022" lon="2.555001983419061">
        <ele>511.07999999999998</ele>
        <time>2025-05-15T10:20:17Z</time>
      </trkpt>
      <trkpt lat="42.411714987829328" lon="2.554863011464477">
        <ele>511.07999999999998</ele>
        <time>2025-05-15T10:20:18Z</time>
      </trkpt>
      <trkpt lat="42.411681041121483" lon="2.554691014811397">
        <ele>511.56</ele>
        <time>2025-05-15T10:20:19Z</time>
      </trkpt>
      <trkpt lat="42.411674000322819" lon="2.554517006501555">
        <ele>511.56</ele>
        <time>2025-05-15T10:20:20Z</time>
      </trkpt>
      <trkpt lat="42.411682968959212" lon="2.554327994585037">
        <ele>512.03999999999996</ele>
        <time>2025-05-15T10:20:21Z</time>
      </trkpt>
      <trkpt lat="42.411697972565889" lon="2.554123979061842">
        <ele>512.51999999999998</ele>
        <time>2025-05-15T10:20:22Z</time>
      </trkpt>
      <trkpt lat="42.411813978105783" lon="2.553407996892929">
        <ele>514.44000000000005</ele>
        <time>2025-05-15T10:20:27Z</time>
      </trkpt>
      <trkpt lat="42.411824036389589" lon="2.553348988294601">
        <ele>513.96000000000004</ele>
        <time>2025-05-15T10:20:28Z</time>
      </trkpt>
      <trkpt lat="42.411831999197602" lon="2.55330003798008">
        <ele>513.96000000000004</ele>
        <time>2025-05-15T10:20:29Z</time>
      </trkpt>
      <trkpt lat="42.411823030561209" lon="2.553172968327999">
        <ele>513.48000000000002</ele>
        <time>2025-05-15T10:20:33Z</time>
      </trkpt>
      <trkpt lat="42.411835016682744" lon="2.553249998018146">
        <ele>513.96000000000004</ele>
        <time>2025-05-15T10:20:34Z</time>
      </trkpt>
      <trkpt lat="42.411793023347855" lon="2.553267013281584">
        <ele>514.91999999999996</ele>
        <time>2025-05-15T10:20:35Z</time>
      </trkpt>
      <trkpt lat="42.411733008921146" lon="2.553290985524654">
        <ele>515.88</ele>
        <time>2025-05-15T10:20:36Z</time>
      </trkpt>
      <trkpt lat="42.411733008921146" lon="2.553290985524654">
        <ele>515.88</ele>
        <time>2025-05-15T10:20:37Z</time>
      </trkpt>
      <trkpt lat="42.411709958687425" lon="2.553371032699943">
        <ele>515.88</ele>
        <time>2025-05-15T10:20:38Z</time>
      </trkpt>
      <trkpt lat="42.411656985059381" lon="2.553686024621129">
        <ele>516.37</ele>
        <time>2025-05-15T10:20:41Z</time>
      </trkpt>
      <trkpt lat="42.411551959812641" lon="2.554707024246454">
        <ele>514.44000000000005</ele>
        <time>2025-05-15T10:20:48Z</time>
      </trkpt>
      <trkpt lat="42.411562018096447" lon="2.554836021736264">
        <ele>513.48000000000002</ele>
        <time>2025-05-15T10:20:49Z</time>
      </trkpt>
      <trkpt lat="42.411614991724491" lon="2.554942974820733">
        <ele>512.03999999999996</ele>
        <time>2025-05-15T10:20:50Z</time>
      </trkpt>
      <trkpt lat="42.411681963130832" lon="2.555078007280827">
        <ele>510.12</ele>
        <time>2025-05-15T10:20:51Z</time>
      </trkpt>
      <trkpt lat="42.411776008084416" lon="2.555265007540584">
        <ele>507.70999999999998</ele>
        <time>2025-05-15T10:20:52Z</time>
      </trkpt>
      <trkpt lat="42.41186804138124" lon="2.555357040837407">
        <ele>505.79000000000002</ele>
        <time>2025-05-15T10:20:53Z</time>
      </trkpt>
      <trkpt lat="42.412460977211595" lon="2.555981995537877">
        <ele>497.13999999999999</ele>
        <time>2025-05-15T10:20:58Z</time>
      </trkpt>
      <trkpt lat="42.412748979404569" lon="2.556430008262396">
        <ele>492.32999999999998</ele>
        <time>2025-05-15T10:21:01Z</time>
      </trkpt>
      <trkpt lat="42.412803964689374" lon="2.556605022400618">
        <ele>490.88999999999999</ele>
        <time>2025-05-15T10:21:02Z</time>
      </trkpt>
      <trkpt lat="42.412855010479689" lon="2.556769978255034">
        <ele>489.44999999999999</ele>
        <time>2025-05-15T10:21:03Z</time>
      </trkpt>
      <trkpt lat="42.41290002129972" lon="2.556913979351521">
        <ele>488.00999999999999</ele>
        <time>2025-05-15T10:21:04Z</time>
      </trkpt>
      <trkpt lat="42.412934973835945" lon="2.557025039568543">
        <ele>486.56</ele>
        <time>2025-05-15T10:21:05Z</time>
      </trkpt>
      <trkpt lat="42.412897003814578" lon="2.557129980996251">
        <ele>485.12</ele>
        <time>2025-05-15T10:21:06Z</time>
      </trkpt>
      <trkpt lat="42.412848975509405" lon="2.557260990142822">
        <ele>484.16000000000003</ele>
        <time>2025-05-15T10:21:07Z</time>
      </trkpt>
      <trkpt lat="42.412778986617923" lon="2.557347994297743">
        <ele>483.68000000000001</ele>
        <time>2025-05-15T10:21:08Z</time>
      </trkpt>
      <trkpt lat="42.412699023261666" lon="2.557445978745818">
        <ele>483.68000000000001</ele>
        <time>2025-05-15T10:21:09Z</time>
      </trkpt>
      <trkpt lat="42.412539012730122" lon="2.55764395929873">
        <ele>482.72000000000003</ele>
        <time>2025-05-15T10:21:11Z</time>
      </trkpt>
      <trkpt lat="42.412480004131794" lon="2.557756025344133">
        <ele>482.24000000000001</ele>
        <time>2025-05-15T10:21:12Z</time>
      </trkpt>
      <trkpt lat="42.412467012181878" lon="2.557902960106731">
        <ele>481.27999999999997</ele>
        <time>2025-05-15T10:21:13Z</time>
      </trkpt>
      <trkpt lat="42.41247396916151" lon="2.558041010051966">
        <ele>480.31999999999999</ele>
        <time>2025-05-15T10:21:14Z</time>
      </trkpt>
      <trkpt lat="42.41249299608171" lon="2.558193979784846">
        <ele>479.83999999999997</ele>
        <time>2025-05-15T10:21:15Z</time>
      </trkpt>
      <trkpt lat="42.41251403465867" lon="2.558353990316391">
        <ele>478.87</ele>
        <time>2025-05-15T10:21:16Z</time>
      </trkpt>
      <trkpt lat="42.412640014663339" lon="2.559313969686627">
        <ele>474.55000000000001</ele>
        <time>2025-05-15T10:21:22Z</time>
      </trkpt>
      <trkpt lat="42.412711009383202" lon="2.559616975486279">
        <ele>474.06999999999999</ele>
        <time>2025-05-15T10:21:24Z</time>
      </trkpt>
      <trkpt lat="42.412745039910078" lon="2.559767011553049">
        <ele>474.06999999999999</ele>
        <time>2025-05-15T10:21:25Z</time>
      </trkpt>
      <trkpt lat="42.412774041295052" lon="2.559916041791439">
        <ele>474.06999999999999</ele>
        <time>2025-05-15T10:21:26Z</time>
      </trkpt>
      <trkpt lat="42.412931034341455" lon="2.560717016458511">
        <ele>473.58999999999997</ele>
        <time>2025-05-15T10:21:31Z</time>
      </trkpt>
      <trkpt lat="42.412950983271003" lon="2.56090703420341">
        <ele>473.58999999999997</ele>
        <time>2025-05-15T10:21:32Z</time>
      </trkpt>
      <trkpt lat="42.41292298771441" lon="2.561254967004061">
        <ele>473.58999999999997</ele>
        <time>2025-05-15T10:21:34Z</time>
      </trkpt>
      <trkpt lat="42.412874959409237" lon="2.561855027452111">
        <ele>474.06999999999999</ele>
        <time>2025-05-15T10:21:37Z</time>
      </trkpt>
      <trkpt lat="42.412931034341455" lon="2.563420012593269">
        <ele>473.11000000000001</ele>
        <time>2025-05-15T10:21:44Z</time>
      </trkpt>
      <trkpt lat="42.412892980501056" lon="2.563872970640659">
        <ele>472.63</ele>
        <time>2025-05-15T10:21:46Z</time>
      </trkpt>
      <trkpt lat="42.412875965237617" lon="2.564083021134138">
        <ele>472.13999999999999</ele>
        <time>2025-05-15T10:21:47Z</time>
      </trkpt>
      <trkpt lat="42.412785021588206" lon="2.565572988241911">
        <ele>470.69999999999999</ele>
        <time>2025-05-15T10:21:54Z</time>
      </trkpt>
      <trkpt lat="42.412763983011246" lon="2.565754959359765">
        <ele>470.22000000000003</ele>
        <time>2025-05-15T10:21:55Z</time>
      </trkpt>
      <trkpt lat="42.412742022424936" lon="2.565886974334717">
        <ele>470.22000000000003</ele>
        <time>2025-05-15T10:21:56Z</time>
      </trkpt>
      <trkpt lat="42.412652000784874" lon="2.565985964611173">
        <ele>469.74000000000001</ele>
        <time>2025-05-15T10:21:57Z</time>
      </trkpt>
      <trkpt lat="42.412575976923108" lon="2.566071040928364">
        <ele>469.25999999999999</ele>
        <time>2025-05-15T10:21:58Z</time>
      </trkpt>
      <trkpt lat="42.412499031051993" lon="2.566105993464589">
        <ele>469.25999999999999</ele>
        <time>2025-05-15T10:21:59Z</time>
      </trkpt>
      <trkpt lat="42.412403980270028" lon="2.566114962100983">
        <ele>469.74000000000001</ele>
        <time>2025-05-15T10:22:00Z</time>
      </trkpt>
      <trkpt lat="42.412295015528798" lon="2.566104987636209">
        <ele>469.74000000000001</ele>
        <time>2025-05-15T10:22:01Z</time>
      </trkpt>
      <trkpt lat="42.412202982231975" lon="2.566013038158417">
        <ele>469.74000000000001</ele>
        <time>2025-05-15T10:22:02Z</time>
      </trkpt>
      <trkpt lat="42.412083959206939" lon="2.56587197072804">
        <ele>470.22000000000003</ele>
        <time>2025-05-15T10:22:03Z</time>
      </trkpt>
      <trkpt lat="42.412016987800598" lon="2.565693017095327">
        <ele>470.69999999999999</ele>
        <time>2025-05-15T10:22:04Z</time>
      </trkpt>
      <trkpt lat="42.411946998909116" lon="2.565507022663951">
        <ele>470.69999999999999</ele>
        <time>2025-05-15T10:22:05Z</time>
      </trkpt>
      <trkpt lat="42.411879021674395" lon="2.565323961898685">
        <ele>470.69999999999999</ele>
        <time>2025-05-15T10:22:06Z</time>
      </trkpt>
      <trkpt lat="42.411742983385921" lon="2.565001007169485">
        <ele>471.18000000000001</ele>
        <time>2025-05-15T10:22:08Z</time>
      </trkpt>
      <trkpt lat="42.411652039736509" lon="2.564864968881011">
        <ele>471.66000000000003</ele>
        <time>2025-05-15T10:22:09Z</time>
      </trkpt>
      <trkpt lat="42.411566041409969" lon="2.56473496556282">
        <ele>472.13999999999999</ele>
        <time>2025-05-15T10:22:10Z</time>
      </trkpt>
      <trkpt lat="42.411484988406301" lon="2.564614014700055">
        <ele>472.13999999999999</ele>
        <time>2025-05-15T10:22:11Z</time>
      </trkpt>
      <trkpt lat="42.411382980644703" lon="2.564520975574851">
        <ele>472.63</ele>
        <time>2025-05-15T10:22:12Z</time>
      </trkpt>
      <trkpt lat="42.411244008690119" lon="2.564480993896723">
        <ele>472.63</ele>
        <time>2025-05-15T10:22:13Z</time>
      </trkpt>
      <trkpt lat="42.411088021472096" lon="2.564448975026608">
        <ele>472.63</ele>
        <time>2025-05-15T10:22:14Z</time>
      </trkpt>
      <trkpt lat="42.410462982952595" lon="2.564448975026608">
        <ele>471.66000000000003</ele>
        <time>2025-05-15T10:22:18Z</time>
      </trkpt>
      <trkpt lat="42.410296015441418" lon="2.564448975026608">
        <ele>471.18000000000001</ele>
        <time>2025-05-15T10:22:19Z</time>
      </trkpt>
      <trkpt lat="42.410156959667802" lon="2.564391978085041">
        <ele>470.69999999999999</ele>
        <time>2025-05-15T10:22:20Z</time>
      </trkpt>
      <trkpt lat="42.40974297747016" lon="2.564229033887386">
        <ele>469.74000000000001</ele>
        <time>2025-05-15T10:22:23Z</time>
      </trkpt>
      <trkpt lat="42.409593025222421" lon="2.5642179697752">
        <ele>469.74000000000001</ele>
        <time>2025-05-15T10:22:24Z</time>
      </trkpt>
      <trkpt lat="42.409452963620424" lon="2.564228028059006">
        <ele>469.74000000000001</ele>
        <time>2025-05-15T10:22:25Z</time>
      </trkpt>
      <trkpt lat="42.409316003322601" lon="2.56423800252378">
        <ele>469.25999999999999</ele>
        <time>2025-05-15T10:22:26Z</time>
      </trkpt>
      <trkpt lat="42.409195974469185" lon="2.564244037494063">
        <ele>469.25999999999999</ele>
        <time>2025-05-15T10:22:27Z</time>
      </trkpt>
      <trkpt lat="42.409092038869858" lon="2.564249988645315">
        <ele>468.77999999999997</ele>
        <time>2025-05-15T10:22:28Z</time>
      </trkpt>
      <trkpt lat="42.408987013623118" lon="2.564256023615599">
        <ele>468.77999999999997</ele>
        <time>2025-05-15T10:22:29Z</time>
      </trkpt>
      <trkpt lat="42.408915013074875" lon="2.564200032502413">
        <ele>468.77999999999997</ele>
        <time>2025-05-15T10:22:30Z</time>
      </trkpt>
      <trkpt lat="42.408831026405096" lon="2.564134988933802">
        <ele>469.25999999999999</ele>
        <time>2025-05-15T10:22:31Z</time>
      </trkpt>
      <trkpt lat="42.408742010593414" lon="2.564065000042319">
        <ele>469.25999999999999</ele>
        <time>2025-05-15T10:22:32Z</time>
      </trkpt>
      <trkpt lat="42.40856196731329" lon="2.563924016430974">
        <ele>469.25999999999999</ele>
        <time>2025-05-15T10:22:34Z</time>
      </trkpt>
      <trkpt lat="42.408478986471891" lon="2.563865007832646">
        <ele>469.74000000000001</ele>
        <time>2025-05-15T10:22:35Z</time>
      </trkpt>
      <trkpt lat="42.408386031165719" lon="2.563837012276053">
        <ele>469.74000000000001</ele>
        <time>2025-05-15T10:22:36Z</time>
      </trkpt>
      <trkpt lat="42.408296009525657" lon="2.56380801089108">
        <ele>470.22000000000003</ele>
        <time>2025-05-15T10:22:37Z</time>
      </trkpt>
      <trkpt lat="42.408211017027497" lon="2.563782026991248">
        <ele>470.22000000000003</ele>
        <time>2025-05-15T10:22:38Z</time>
      </trkpt>
      <trkpt lat="42.408128958195448" lon="2.563770962879062">
        <ele>470.22000000000003</ele>
        <time>2025-05-15T10:22:39Z</time>
      </trkpt>
      <trkpt lat="42.408040026202798" lon="2.563810022547841">
        <ele>470.69999999999999</ele>
        <time>2025-05-15T10:22:40Z</time>
      </trkpt>
      <trkpt lat="42.407955033704638" lon="2.563870958983898">
        <ele>470.69999999999999</ele>
        <time>2025-05-15T10:22:41Z</time>
      </trkpt>
      <trkpt lat="42.407869035378098" lon="2.563962992280722">
        <ele>470.69999999999999</ele>
        <time>2025-05-15T10:22:42Z</time>
      </trkpt>
      <trkpt lat="42.407842967659235" lon="2.564089978113771">
        <ele>470.69999999999999</ele>
        <time>2025-05-15T10:22:43Z</time>
      </trkpt>
      <trkpt lat="42.407814972102642" lon="2.564226016402245">
        <ele>471.18000000000001</ele>
        <time>2025-05-15T10:22:44Z</time>
      </trkpt>
      <trkpt lat="42.407784964889288" lon="2.564370017498732">
        <ele>471.66000000000003</ele>
        <time>2025-05-15T10:22:45Z</time>
      </trkpt>
      <trkpt lat="42.407781025394797" lon="2.564709987491369">
        <ele>472.13999999999999</ele>
        <time>2025-05-15T10:22:47Z</time>
      </trkpt>
      <trkpt lat="42.407794017344713" lon="2.56488399580121">
        <ele>472.63</ele>
        <time>2025-05-15T10:22:48Z</time>
      </trkpt>
      <trkpt lat="42.407822012901306" lon="2.565346006304026">
        <ele>474.06999999999999</ele>
        <time>2025-05-15T10:22:51Z</time>
      </trkpt>
      <trkpt lat="42.407790999859571" lon="2.565438961610198">
        <ele>474.55000000000001</ele>
        <time>2025-05-15T10:22:52Z</time>
      </trkpt>
      <trkpt lat="42.407725034281611" lon="2.565475003793836">
        <ele>475.02999999999997</ele>
        <time>2025-05-15T10:22:53Z</time>
      </trkpt>
      <trkpt lat="42.40765898488462" lon="2.565494030714035">
        <ele>475.99000000000001</ele>
        <time>2025-05-15T10:22:54Z</time>
      </trkpt>
      <trkpt lat="42.407605005428195" lon="2.56548598408699">
        <ele>476.47000000000003</ele>
        <time>2025-05-15T10:22:55Z</time>
      </trkpt>
      <trkpt lat="42.40751096047461" lon="2.565438961610198">
        <ele>476.94999999999999</ele>
        <time>2025-05-15T10:22:56Z</time>
      </trkpt>
      <trkpt lat="42.407377017661929" lon="2.565371990203857">
        <ele>477.43000000000001</ele>
        <time>2025-05-15T10:22:57Z</time>
      </trkpt>
      <trkpt lat="42.407300993800163" lon="2.565288003534079">
        <ele>477.91000000000003</ele>
        <time>2025-05-15T10:22:58Z</time>
      </trkpt>
      <trkpt lat="42.40716302767396" lon="2.565136039629579">
        <ele>478.38999999999999</ele>
        <time>2025-05-15T10:22:59Z</time>
      </trkpt>
      <trkpt lat="42.407131008803844" lon="2.565025985240936">
        <ele>478.87</ele>
        <time>2025-05-15T10:23:00Z</time>
      </trkpt>
      <trkpt lat="42.40707702934742" lon="2.564833033829927">
        <ele>479.83999999999997</ele>
        <time>2025-05-15T10:23:01Z</time>
      </trkpt>
      <trkpt lat="42.407087003812194" lon="2.564682997763157">
        <ele>480.80000000000001</ele>
        <time>2025-05-15T10:23:02Z</time>
      </trkpt>
      <trkpt lat="42.407096978276968" lon="2.564546037465334">
        <ele>481.75999999999999</ele>
        <time>2025-05-15T10:23:03Z</time>
      </trkpt>
      <trkpt lat="42.407107958570123" lon="2.56438703276217">
        <ele>483.19999999999999</ele>
        <time>2025-05-15T10:23:04Z</time>
      </trkpt>
      <trkpt lat="42.40712002851069" lon="2.564213024452329">
        <ele>484.16000000000003</ele>
        <time>2025-05-15T10:23:05Z</time>
      </trkpt>
      <trkpt lat="42.40707996301353" lon="2.564082015305758">
        <ele>485.12</ele>
        <time>2025-05-15T10:23:06Z</time>
      </trkpt>
      <trkpt lat="42.407007962465286" lon="2.563938014209271">
        <ele>486.56</ele>
        <time>2025-05-15T10:23:07Z</time>
      </trkpt>
      <trkpt lat="42.40690503269434" lon="2.563804993405938">
        <ele>488.00999999999999</ele>
        <time>2025-05-15T10:23:08Z</time>
      </trkpt>
      <trkpt lat="42.406804030761123" lon="2.563675995916128">
        <ele>489.44999999999999</ele>
        <time>2025-05-15T10:23:09Z</time>
      </trkpt>
      <trkpt lat="42.406705040484667" lon="2.563548004254699">
        <ele>490.41000000000003</ele>
        <time>2025-05-15T10:23:10Z</time>
      </trkpt>
      <trkpt lat="42.406621975824237" lon="2.563441973179579">
        <ele>491.85000000000002</ele>
        <time>2025-05-15T10:23:11Z</time>
      </trkpt>
      <trkpt lat="42.406547041609883" lon="2.563393022865057">
        <ele>492.81</ele>
        <time>2025-05-15T10:23:12Z</time>
      </trkpt>
      <trkpt lat="42.406481998041272" lon="2.563364021480084">
        <ele>493.76999999999998</ele>
        <time>2025-05-15T10:23:13Z</time>
      </trkpt>
      <trkpt lat="42.40636900998652" lon="2.563311969861388">
        <ele>494.74000000000001</ele>
        <time>2025-05-15T10:23:14Z</time>
      </trkpt>
      <trkpt lat="42.406353000551462" lon="2.563316999003291">
        <ele>495.69999999999999</ele>
        <time>2025-05-15T10:23:15Z</time>
      </trkpt>
      <trkpt lat="42.406302960589528" lon="2.563333008438349">
        <ele>497.13999999999999</ele>
        <time>2025-05-15T10:23:16Z</time>
      </trkpt>
      <trkpt lat="42.406257027760148" lon="2.563347006216645">
        <ele>498.10000000000002</ele>
        <time>2025-05-15T10:23:17Z</time>
      </trkpt>
      <trkpt lat="42.406207993626595" lon="2.563363015651703">
        <ele>499.06</ele>
        <time>2025-05-15T10:23:18Z</time>
      </trkpt>
      <trkpt lat="42.406166000291705" lon="2.563376007601619">
        <ele>500.5</ele>
        <time>2025-05-15T10:23:19Z</time>
      </trkpt>
      <trkpt lat="42.406128030270338" lon="2.563387993723154">
        <ele>501.45999999999998</ele>
        <time>2025-05-15T10:23:20Z</time>
      </trkpt>
      <trkpt lat="42.406077990308404" lon="2.563404003158212">
        <ele>502.91000000000003</ele>
        <time>2025-05-15T10:23:21Z</time>
      </trkpt>
      <trkpt lat="42.405960978940129" lon="2.563440967351198">
        <ele>503.87</ele>
        <time>2025-05-15T10:23:22Z</time>
      </trkpt>
      <trkpt lat="42.405923008918762" lon="2.563499975949526">
        <ele>505.31</ele>
        <time>2025-05-15T10:23:23Z</time>
      </trkpt>
      <trkpt lat="42.40585695952177" lon="2.563600977882743">
        <ele>506.26999999999998</ele>
        <time>2025-05-15T10:23:24Z</time>
      </trkpt>
      <trkpt lat="42.405787976458669" lon="2.563709020614624">
        <ele>506.75</ele>
        <time>2025-05-15T10:23:25Z</time>
      </trkpt>
      <trkpt lat="42.405718993395567" lon="2.563848998397589">
        <ele>507.23000000000002</ele>
        <time>2025-05-15T10:23:26Z</time>
      </trkpt>
      <trkpt lat="42.405700972303748" lon="2.563992999494076">
        <ele>508.19</ele>
        <time>2025-05-15T10:23:27Z</time>
      </trkpt>
      <trkpt lat="42.405679011717439" lon="2.564158961176872">
        <ele>509.16000000000003</ele>
        <time>2025-05-15T10:23:28Z</time>
      </trkpt>
      <trkpt lat="42.40570398978889" lon="2.564792968332768">
        <ele>512.03999999999996</ele>
        <time>2025-05-15T10:23:31Z</time>
      </trkpt>
      <trkpt lat="42.405751012265682" lon="2.565327985212207">
        <ele>515.39999999999998</ele>
        <time>2025-05-15T10:23:34Z</time>
      </trkpt>
      <trkpt lat="42.405759980902076" lon="2.565430998802185">
        <ele>516.37</ele>
        <time>2025-05-15T10:23:35Z</time>
      </trkpt>
      <trkpt lat="42.405721005052328" lon="2.565529989078641">
        <ele>517.33000000000004</ele>
        <time>2025-05-15T10:23:36Z</time>
      </trkpt>
      <trkpt lat="42.405675994232297" lon="2.565537029877305">
        <ele>518.28999999999996</ele>
        <time>2025-05-15T10:23:37Z</time>
      </trkpt>
      <trkpt lat="42.405640035867691" lon="2.565543986856937">
        <ele>518.76999999999998</ele>
        <time>2025-05-15T10:23:38Z</time>
      </trkpt>
      <trkpt lat="42.40559502504766" lon="2.565467040985823">
        <ele>519.73000000000002</ele>
        <time>2025-05-15T10:23:39Z</time>
      </trkpt>
      <trkpt lat="42.405549008399248" lon="2.565386993810535">
        <ele>520.69000000000005</ele>
        <time>2025-05-15T10:23:40Z</time>
      </trkpt>
      <trkpt lat="42.40548899397254" lon="2.565283980220556">
        <ele>521.64999999999998</ele>
        <time>2025-05-15T10:23:41Z</time>
      </trkpt>
      <trkpt lat="42.405267041176558" lon="2.5649069622159">
        <ele>524.53999999999996</ele>
        <time>2025-05-15T10:23:44Z</time>
      </trkpt>
      <trkpt lat="42.405215995386243" lon="2.564765978604555">
        <ele>525.5</ele>
        <time>2025-05-15T10:23:45Z</time>
      </trkpt>
      <trkpt lat="42.405163021758199" lon="2.564619965851307">
        <ele>526.46000000000004</ele>
        <time>2025-05-15T10:23:46Z</time>
      </trkpt>
      <trkpt lat="42.405095966532826" lon="2.564480993896723">
        <ele>526.94000000000005</ele>
        <time>2025-05-15T10:23:47Z</time>
      </trkpt>
      <trkpt lat="42.404985995963216" lon="2.564359959214926">
        <ele>527.89999999999998</ele>
        <time>2025-05-15T10:23:48Z</time>
      </trkpt>
      <trkpt lat="42.40484400652349" lon="2.564313020557165">
        <ele>529.34000000000003</ele>
        <time>2025-05-15T10:23:49Z</time>
      </trkpt>
      <trkpt lat="42.404697993770242" lon="2.564311008900404">
        <ele>530.78999999999996</ele>
        <time>2025-05-15T10:23:50Z</time>
      </trkpt>
      <trkpt lat="42.404541000723839" lon="2.564330035820603">
        <ele>532.23000000000002</ele>
        <time>2025-05-15T10:23:51Z</time>
      </trkpt>
      <trkpt lat="42.404390964657068" lon="2.56434503942728">
        <ele>533.19000000000005</ele>
        <time>2025-05-15T10:23:52Z</time>
      </trkpt>
      <trkpt lat="42.404259033501148" lon="2.564355013892055">
        <ele>534.63</ele>
        <time>2025-05-15T10:23:53Z</time>
      </trkpt>
      <trkpt lat="42.404145039618015" lon="2.564362976700068">
        <ele>535.59000000000003</ele>
        <time>2025-05-15T10:23:54Z</time>
      </trkpt>
      <trkpt lat="42.404059041291475" lon="2.564286030828953">
        <ele>537.02999999999997</ele>
        <time>2025-05-15T10:23:55Z</time>
      </trkpt>
      <trkpt lat="42.404007995501161" lon="2.564234985038638">
        <ele>537.99000000000001</ele>
        <time>2025-05-15T10:23:56Z</time>
      </trkpt>
      <trkpt lat="42.403970025479794" lon="2.564085032790899">
        <ele>538.96000000000004</ele>
        <time>2025-05-15T10:23:57Z</time>
      </trkpt>
      <trkpt lat="42.403932977467775" lon="2.563936002552509">
        <ele>539.91999999999996</ele>
        <time>2025-05-15T10:23:58Z</time>
      </trkpt>
      <trkpt lat="42.403888972476125" lon="2.56376501172781">
        <ele>540.88</ele>
        <time>2025-05-15T10:23:59Z</time>
      </trkpt>
      <trkpt lat="42.403842033818364" lon="2.563578011468053">
        <ele>541.36000000000001</ele>
        <time>2025-05-15T10:24:00Z</time>
      </trkpt>
      <trkpt lat="42.403571968898177" lon="2.562420973554254">
        <ele>547.13</ele>
        <time>2025-05-15T10:24:06Z</time>
      </trkpt>
      <trkpt lat="42.403557971119881" lon="2.56232500076294">
        <ele>547.61000000000001</ele>
        <time>2025-05-15T10:24:07Z</time>
      </trkpt>
      <trkpt lat="42.403455041348934" lon="2.56219700910151">
        <ele>549.04999999999995</ele>
        <time>2025-05-15T10:24:08Z</time>
      </trkpt>
      <trkpt lat="42.403385974466801" lon="2.56211000494659">
        <ele>549.52999999999997</ele>
        <time>2025-05-15T10:24:09Z</time>
      </trkpt>
      <trkpt lat="42.403287990018725" lon="2.562077986076474">
        <ele>550.49000000000001</ele>
        <time>2025-05-15T10:24:10Z</time>
      </trkpt>
      <trkpt lat="42.403178019449115" lon="2.562045967206359">
        <ele>551.45000000000005</ele>
        <time>2025-05-15T10:24:11Z</time>
      </trkpt>
      <trkpt lat="42.403052039444447" lon="2.562042027711868">
        <ele>552.40999999999997</ele>
        <time>2025-05-15T10:24:12Z</time>
      </trkpt>
      <trkpt lat="42.402645014226437" lon="2.562029035761952">
        <ele>555.77999999999997</ele>
        <time>2025-05-15T10:24:15Z</time>
      </trkpt>
      <trkpt lat="42.402505958452821" lon="2.56202501244843">
        <ele>556.74000000000001</ele>
        <time>2025-05-15T10:24:16Z</time>
      </trkpt>
      <trkpt lat="42.402366986498237" lon="2.562088966369629">
        <ele>557.22000000000003</ele>
        <time>2025-05-15T10:24:17Z</time>
      </trkpt>
      <trkpt lat="42.40222399123013" lon="2.562156021595001">
        <ele>557.70000000000005</ele>
        <time>2025-05-15T10:24:18Z</time>
      </trkpt>
      <trkpt lat="42.402082001790404" lon="2.562256017699838">
        <ele>558.65999999999997</ele>
        <time>2025-05-15T10:24:19Z</time>
      </trkpt>
      <trkpt lat="42.40194596350193" lon="2.562351990491152">
        <ele>559.62</ele>
        <time>2025-05-15T10:24:20Z</time>
      </trkpt>
      <trkpt lat="42.40168402902782" lon="2.562490040436387">
        <ele>561.07000000000005</ele>
        <time>2025-05-15T10:24:22Z</time>
      </trkpt>
      <trkpt lat="42.400561021640897" lon="2.56303402595222">
        <ele>574.03999999999996</ele>
        <time>2025-05-15T10:24:30Z</time>
      </trkpt>
      <trkpt lat="42.400135975331068" lon="2.563192024827004">
        <ele>578.85000000000002</ele>
        <time>2025-05-15T10:24:33Z</time>
      </trkpt>
      <trkpt lat="42.39964404143393" lon="2.563265031203628">
        <ele>584.62</ele>
        <time>2025-05-15T10:24:36Z</time>
      </trkpt>
      <trkpt lat="42.399374982342124" lon="2.563305012881756">
        <ele>587.98000000000002</ele>
        <time>2025-05-15T10:24:38Z</time>
      </trkpt>
      <trkpt lat="42.399268029257655" lon="2.563351029530168">
        <ele>589.42999999999995</ele>
        <time>2025-05-15T10:24:39Z</time>
      </trkpt>
      <trkpt lat="42.399174990132451" lon="2.563409032300115">
        <ele>590.87</ele>
        <time>2025-05-15T10:24:40Z</time>
      </trkpt>
      <trkpt lat="42.399082034826279" lon="2.563468040898442">
        <ele>592.30999999999995</ele>
        <time>2025-05-15T10:24:41Z</time>
      </trkpt>
      <trkpt lat="42.398986984044313" lon="2.563526965677738">
        <ele>593.75</ele>
        <time>2025-05-15T10:24:42Z</time>
      </trkpt>
      <trkpt lat="42.398883970454335" lon="2.563540963456035">
        <ele>594.71000000000004</ele>
        <time>2025-05-15T10:24:43Z</time>
      </trkpt>
      <trkpt lat="42.398789003491402" lon="2.563519002869725">
        <ele>595.66999999999996</ele>
        <time>2025-05-15T10:24:44Z</time>
      </trkpt>
      <trkpt lat="42.398685989901423" lon="2.563456976786256">
        <ele>596.14999999999998</ele>
        <time>2025-05-15T10:24:45Z</time>
      </trkpt>
      <trkpt lat="42.398566966876388" lon="2.563384976238012">
        <ele>596.14999999999998</ele>
        <time>2025-05-15T10:24:46Z</time>
      </trkpt>
      <trkpt lat="42.398057011887431" lon="2.56307702511549">
        <ele>594.71000000000004</ele>
        <time>2025-05-15T10:24:50Z</time>
      </trkpt>
      <trkpt lat="42.39781997166574" lon="2.562990020960569">
        <ele>594.23000000000002</ele>
        <time>2025-05-15T10:24:52Z</time>
      </trkpt>
      <trkpt lat="42.397692985832691" lon="2.562990020960569">
        <ele>594.23000000000002</ele>
        <time>2025-05-15T10:24:53Z</time>
      </trkpt>
      <trkpt lat="42.397472038865089" lon="2.562967976555228">
        <ele>594.23000000000002</ele>
        <time>2025-05-15T10:24:55Z</time>
      </trkpt>
      <trkpt lat="42.397385034710169" lon="2.562892958521843">
        <ele>593.75</ele>
        <time>2025-05-15T10:24:56Z</time>
      </trkpt>
      <trkpt lat="42.397339018061757" lon="2.562823975458741">
        <ele>593.75</ele>
        <time>2025-05-15T10:24:57Z</time>
      </trkpt>
      <trkpt lat="42.397334994748235" lon="2.56281903013587">
        <ele>593.75</ele>
        <time>2025-05-15T10:24:58Z</time>
      </trkpt>
      <trkpt lat="42.397334994748235" lon="2.562679974362254">
        <ele>593.75</ele>
        <time>2025-05-15T10:24:59Z</time>
      </trkpt>
      <trkpt lat="42.397334994748235" lon="2.562605040147901">
        <ele>593.75</ele>
        <time>2025-05-15T10:25:00Z</time>
      </trkpt>
      <trkpt lat="42.397334994748235" lon="2.56260403431952">
        <ele>593.26999999999998</ele>
        <time>2025-05-15T10:25:01Z</time>
      </trkpt>
      <trkpt lat="42.39736701361835" lon="2.562551982700825">
        <ele>593.26999999999998</ele>
        <time>2025-05-15T10:25:02Z</time>
      </trkpt>
      <trkpt lat="42.397399032488465" lon="2.562496997416019">
        <ele>593.26999999999998</ele>
        <time>2025-05-15T10:25:03Z</time>
      </trkpt>
      <trkpt lat="42.397400960326195" lon="2.562496997416019">
        <ele>592.78999999999996</ele>
        <time>2025-05-15T10:25:04Z</time>
      </trkpt>
      <trkpt lat="42.397452006116509" lon="2.562489034608007">
        <ele>592.30999999999995</ele>
        <time>2025-05-15T10:25:05Z</time>
      </trkpt>
      <trkpt lat="42.397511014714837" lon="2.562480987980962">
        <ele>591.35000000000002</ele>
        <time>2025-05-15T10:25:06Z</time>
      </trkpt>
      <trkpt lat="42.397549990564585" lon="2.56247503682971">
        <ele>590.38999999999999</ele>
        <time>2025-05-15T10:25:07Z</time>
      </trkpt>
      <trkpt lat="42.397657027468085" lon="2.562576960772276">
        <ele>588.95000000000005</ele>
        <time>2025-05-15T10:25:08Z</time>
      </trkpt>
      <trkpt lat="42.397876968607306" lon="2.562786005437374">
        <ele>586.05999999999995</ele>
        <time>2025-05-15T10:25:10Z</time>
      </trkpt>
      <trkpt lat="42.398201012983918" lon="2.562907040119171">
        <ele>583.65999999999997</ele>
        <time>2025-05-15T10:25:12Z</time>
      </trkpt>
      <trkpt lat="42.398329004645348" lon="2.562931012362242">
        <ele>582.70000000000005</ele>
        <time>2025-05-15T10:25:13Z</time>
      </trkpt>
      <trkpt lat="42.398437969386578" lon="2.56295096129179">
        <ele>581.25</ele>
        <time>2025-05-15T10:25:14Z</time>
      </trkpt>
      <trkpt lat="42.398536959663033" lon="2.562968982383609">
        <ele>579.80999999999995</ele>
        <time>2025-05-15T10:25:15Z</time>
      </trkpt>
      <trkpt lat="42.398637039586902" lon="2.562988009303808">
        <ele>579.80999999999995</ele>
        <time>2025-05-15T10:25:16Z</time>
      </trkpt>
      <trkpt lat="42.398880030959845" lon="2.563033020123839">
        <ele>578.85000000000002</ele>
        <time>2025-05-15T10:25:17Z</time>
      </trkpt>
      <trkpt lat="42.399141965433955" lon="2.562869992107153">
        <ele>576.92999999999995</ele>
        <time>2025-05-15T10:25:19Z</time>
      </trkpt>
      <trkpt lat="42.399267023429275" lon="2.562773013487458">
        <ele>576.92999999999995</ele>
        <time>2025-05-15T10:25:20Z</time>
      </trkpt>
      <trkpt lat="42.399373976513743" lon="2.56269003264606">
        <ele>576.92999999999995</ele>
        <time>2025-05-15T10:25:21Z</time>
      </trkpt>
      <trkpt lat="42.399504985660315" lon="2.562628006562591">
        <ele>576.92999999999995</ele>
        <time>2025-05-15T10:25:22Z</time>
      </trkpt>
      <trkpt lat="42.399738002568483" lon="2.56251803599298">
        <ele>576.92999999999995</ele>
        <time>2025-05-15T10:25:23Z</time>
      </trkpt>
      <trkpt lat="42.399888960644603" lon="2.562367999926209">
        <ele>577.40999999999997</ele>
        <time>2025-05-15T10:25:24Z</time>
      </trkpt>
      <trkpt lat="42.400081995874643" lon="2.562002968043089">
        <ele>578.37</ele>
        <time>2025-05-15T10:25:26Z</time>
      </trkpt>
      <trkpt lat="42.400089036673307" lon="2.561993999406695">
        <ele>578.37</ele>
        <time>2025-05-15T10:25:27Z</time>
      </trkpt>
      <trkpt lat="42.400180986151099" lon="2.561872964724898">
        <ele>579.33000000000004</ele>
        <time>2025-05-15T10:25:28Z</time>
      </trkpt>
      <trkpt lat="42.400263966992497" lon="2.561763999983668">
        <ele>580.76999999999998</ele>
        <time>2025-05-15T10:25:29Z</time>
      </trkpt>
      <trkpt lat="42.400429006665945" lon="2.561528971418738">
        <ele>582.70000000000005</ele>
        <time>2025-05-15T10:25:30Z</time>
      </trkpt>
      <trkpt lat="42.400458008050919" lon="2.561367033049464">
        <ele>584.62</ele>
        <time>2025-05-15T10:25:31Z</time>
      </trkpt>
      <trkpt lat="42.400486003607512" lon="2.561124041676521">
        <ele>586.05999999999995</ele>
        <time>2025-05-15T10:25:32Z</time>
      </trkpt>
      <trkpt lat="42.400467982515693" lon="2.56077996455133">
        <ele>588.95000000000005</ele>
        <time>2025-05-15T10:25:34Z</time>
      </trkpt>
      <trkpt lat="42.400467982515693" lon="2.56077996455133">
        <ele>590.38999999999999</ele>
        <time>2025-05-15T10:25:35Z</time>
      </trkpt>
      <trkpt lat="42.400474017485976" lon="2.560763033106923">
        <ele>590.87</ele>
        <time>2025-05-15T10:25:36Z</time>
      </trkpt>
      <trkpt lat="42.400532020255923" lon="2.56060796789825">
        <ele>591.83000000000004</ele>
        <time>2025-05-15T10:25:37Z</time>
      </trkpt>
      <trkpt lat="42.400532020255923" lon="2.56060796789825">
        <ele>592.78999999999996</ele>
        <time>2025-05-15T10:25:38Z</time>
      </trkpt>
      <trkpt lat="42.400584993883967" lon="2.560588018968701">
        <ele>593.75</ele>
        <time>2025-05-15T10:25:39Z</time>
      </trkpt>
      <trkpt lat="42.400652971118689" lon="2.56056304089725">
        <ele>594.23000000000002</ele>
        <time>2025-05-15T10:25:40Z</time>
      </trkpt>
      <trkpt lat="42.400704016909003" lon="2.560544013977051">
        <ele>594.23000000000002</ele>
        <time>2025-05-15T10:25:41Z</time>
      </trkpt>
      <trkpt lat="42.401004005223513" lon="2.56073696538806">
        <ele>594.71000000000004</ele>
        <time>2025-05-15T10:25:42Z</time>
      </trkpt>
      <trkpt lat="42.401111964136362" lon="2.56069396622479">
        <ele>596.14999999999998</ele>
        <time>2025-05-15T10:25:43Z</time>
      </trkpt>
      <trkpt lat="42.401176001876593" lon="2.56056597456336">
        <ele>597.60000000000002</ele>
        <time>2025-05-15T10:25:44Z</time>
      </trkpt>
      <trkpt lat="42.401205003261566" lon="2.560450974851847">
        <ele>598.55999999999995</ele>
        <time>2025-05-15T10:25:45Z</time>
      </trkpt>
      <trkpt lat="42.401262000203133" lon="2.5602219812572">
        <ele>599.03999999999996</ele>
        <time>2025-05-15T10:25:46Z</time>
      </trkpt>
      <trkpt lat="42.401253031566739" lon="2.560088960453868">
        <ele>600</ele>
        <time>2025-05-15T10:25:47Z</time>
      </trkpt>
      <trkpt lat="42.401224030181766" lon="2.559861978515983">
        <ele>601.44000000000005</ele>
        <time>2025-05-15T10:25:48Z</time>
      </trkpt>
      <trkpt lat="42.401163009926677" lon="2.559723006561399">
        <ele>601.91999999999996</ele>
        <time>2025-05-15T10:25:49Z</time>
      </trkpt>
      <trkpt lat="42.401109030470252" lon="2.559599038213491">
        <ele>602.39999999999998</ele>
        <time>2025-05-15T10:25:50Z</time>
      </trkpt>
      <trkpt lat="42.401025965809822" lon="2.559407008811832">
        <ele>602.88</ele>
        <time>2025-05-15T10:25:51Z</time>
      </trkpt>
      <trkpt lat="42.401025965809822" lon="2.559407008811832">
        <ele>603.36000000000001</ele>
        <time>2025-05-15T10:25:52Z</time>
      </trkpt>
      <trkpt lat="42.401040969416499" lon="2.559325033798814">
        <ele>603.85000000000002</ele>
        <time>2025-05-15T10:25:53Z</time>
      </trkpt>
      <trkpt lat="42.401054967194796" lon="2.559244986623526">
        <ele>604.33000000000004</ele>
        <time>2025-05-15T10:25:54Z</time>
      </trkpt>
      <trkpt lat="42.401065025478601" lon="2.559192012995482">
        <ele>604.80999999999995</ele>
        <time>2025-05-15T10:25:55Z</time>
      </trkpt>
      <trkpt lat="42.401133002713323" lon="2.559154964983463">
        <ele>605.76999999999998</ele>
        <time>2025-05-15T10:25:56Z</time>
      </trkpt>
      <trkpt lat="42.401182958856225" lon="2.559141973033547">
        <ele>605.76999999999998</ele>
        <time>2025-05-15T10:25:57Z</time>
      </trkpt>
      <trkpt lat="42.401240039616823" lon="2.559127975255251">
        <ele>605.28999999999996</ele>
        <time>2025-05-15T10:25:58Z</time>
      </trkpt>
      <trkpt lat="42.401240039616823" lon="2.559127975255251">
        <ele>604.80999999999995</ele>
        <time>2025-05-15T10:25:59Z</time>
      </trkpt>
      <trkpt lat="42.401240039616823" lon="2.559127975255251">
        <ele>604.33000000000004</ele>
        <time>2025-05-15T10:26:00Z</time>
      </trkpt>
      <trkpt lat="42.401604987680912" lon="2.559364009648562">
        <ele>603.36000000000001</ele>
        <time>2025-05-15T10:26:01Z</time>
      </trkpt>
      <trkpt lat="42.401787964627147" lon="2.559272982180119">
        <ele>601.91999999999996</ele>
        <time>2025-05-15T10:26:02Z</time>
      </trkpt>
      <trkpt lat="42.401870023459196" lon="2.559149013832212">
        <ele>601.44000000000005</ele>
        <time>2025-05-15T10:26:03Z</time>
      </trkpt>
      <trkpt lat="42.401955015957355" lon="2.559022027999163">
        <ele>601.44000000000005</ele>
        <time>2025-05-15T10:26:04Z</time>
      </trkpt>
      <trkpt lat="42.402056017890573" lon="2.558869980275631">
        <ele>601.44000000000005</ele>
        <time>2025-05-15T10:26:05Z</time>
      </trkpt>
      <trkpt lat="42.402122989296913" lon="2.558829998597503">
        <ele>601.44000000000005</ele>
        <time>2025-05-15T10:26:06Z</time>
      </trkpt>
      <trkpt lat="42.402248969301581" lon="2.558753974735737">
        <ele>601.91999999999996</ele>
        <time>2025-05-15T10:26:07Z</time>
      </trkpt>
      <trkpt lat="42.402592040598392" lon="2.558548031374812">
        <ele>604.80999999999995</ele>
        <time>2025-05-15T10:26:09Z</time>
      </trkpt>
      <trkpt lat="42.402636967599392" lon="2.55848198197782">
        <ele>607.21000000000004</ele>
        <time>2025-05-15T10:26:10Z</time>
      </trkpt>
      <trkpt lat="42.402764037251472" lon="2.558290958404541">
        <ele>609.61000000000001</ele>
        <time>2025-05-15T10:26:11Z</time>
      </trkpt>
      <trkpt lat="42.40278298035264" lon="2.558213006705046">
        <ele>612.01999999999998</ele>
        <time>2025-05-15T10:26:12Z</time>
      </trkpt>
      <trkpt lat="42.402812987565994" lon="2.558086020871997">
        <ele>614.41999999999996</ele>
        <time>2025-05-15T10:26:13Z</time>
      </trkpt>
      <trkpt lat="42.402842994779348" lon="2.557959035038948">
        <ele>616.82000000000005</ele>
        <time>2025-05-15T10:26:14Z</time>
      </trkpt>
      <trkpt lat="42.402945002540946" lon="2.557529965415597">
        <ele>625.96000000000004</ele>
        <time>2025-05-15T10:26:18Z</time>
      </trkpt>
      <trkpt lat="42.402978027239442" lon="2.557389987632632">
        <ele>627.39999999999998</ele>
        <time>2025-05-15T10:26:19Z</time>
      </trkpt>
      <trkpt lat="42.40297400392592" lon="2.557354029268026">
        <ele>627.88</ele>
        <time>2025-05-15T10:26:20Z</time>
      </trkpt>
      <trkpt lat="42.402964029461145" lon="2.557284040376544">
        <ele>628.36000000000001</ele>
        <time>2025-05-15T10:26:21Z</time>
      </trkpt>
      <trkpt lat="42.402936033904552" lon="2.557068038731813">
        <ele>628.36000000000001</ele>
        <time>2025-05-15T10:26:22Z</time>
      </trkpt>
      <trkpt lat="42.402936033904552" lon="2.557068038731813">
        <ele>629.79999999999995</ele>
        <time>2025-05-15T10:26:23Z</time>
      </trkpt>
      <trkpt lat="42.402891023084521" lon="2.557010035961866">
        <ele>631.24000000000001</ele>
        <time>2025-05-15T10:26:24Z</time>
      </trkpt>
      <trkpt lat="42.402841988950968" lon="2.556947004050016">
        <ele>632.67999999999995</ele>
        <time>2025-05-15T10:26:25Z</time>
      </trkpt>
      <trkpt lat="42.402012012898922" lon="2.556454986333847">
        <ele>644.70000000000005</ele>
        <time>2025-05-15T10:26:33Z</time>
      </trkpt>
      <trkpt lat="42.401886032894254" lon="2.556395977735519">
        <ele>646.13999999999999</ele>
        <time>2025-05-15T10:26:34Z</time>
      </trkpt>
      <trkpt lat="42.401781007647514" lon="2.556347027420998">
        <ele>647.10000000000002</ele>
        <time>2025-05-15T10:26:35Z</time>
      </trkpt>
      <trkpt lat="42.401696015149355" lon="2.556306961923838">
        <ele>648.07000000000005</ele>
        <time>2025-05-15T10:26:36Z</time>
      </trkpt>
      <trkpt lat="42.401627032086253" lon="2.556274021044374">
        <ele>649.02999999999997</ele>
        <time>2025-05-15T10:26:37Z</time>
      </trkpt>
      <trkpt lat="42.401390997692943" lon="2.556231021881104">
        <ele>649.99000000000001</ele>
        <time>2025-05-15T10:26:38Z</time>
      </trkpt>
      <trkpt lat="42.401283038780093" lon="2.556102024391294">
        <ele>650.95000000000005</ele>
        <time>2025-05-15T10:26:39Z</time>
      </trkpt>
      <trkpt lat="42.401253031566739" lon="2.55592399276793">
        <ele>651.90999999999997</ele>
        <time>2025-05-15T10:26:40Z</time>
      </trkpt>
      <trkpt lat="42.401219001039863" lon="2.55572902970016">
        <ele>652.87</ele>
        <time>2025-05-15T10:26:41Z</time>
      </trkpt>
      <trkpt lat="42.401187987998128" lon="2.555544963106513">
        <ele>653.83000000000004</ele>
        <time>2025-05-15T10:26:42Z</time>
      </trkpt>
      <trkpt lat="42.401154963299632" lon="2.555351005867124">
        <ele>654.79999999999995</ele>
        <time>2025-05-15T10:26:43Z</time>
      </trkpt>
      <trkpt lat="42.401104001328349" lon="2.555251009762287">
        <ele>655.27999999999997</ele>
        <time>2025-05-15T10:26:44Z</time>
      </trkpt>
      <trkpt lat="42.401004005223513" lon="2.555051017552614">
        <ele>655.75999999999999</ele>
        <time>2025-05-15T10:26:45Z</time>
      </trkpt>
      <trkpt lat="42.400876013562083" lon="2.554922020062804">
        <ele>656.24000000000001</ele>
        <time>2025-05-15T10:26:46Z</time>
      </trkpt>
      <trkpt lat="42.400767970830202" lon="2.554900981485844">
        <ele>656.24000000000001</ele>
        <time>2025-05-15T10:26:47Z</time>
      </trkpt>
      <trkpt lat="42.400707034394145" lon="2.554906010627747">
        <ele>656.72000000000003</ele>
        <time>2025-05-15T10:26:48Z</time>
      </trkpt>
      <trkpt lat="42.400532020255923" lon="2.554922020062804">
        <ele>657.67999999999995</ele>
        <time>2025-05-15T10:26:49Z</time>
      </trkpt>
      <trkpt lat="42.40046102553606" lon="2.554973987862468">
        <ele>658.63999999999999</ele>
        <time>2025-05-15T10:26:50Z</time>
      </trkpt>
      <trkpt lat="42.400394976139069" lon="2.555022016167641">
        <ele>659.12</ele>
        <time>2025-05-15T10:26:51Z</time>
      </trkpt>
      <trkpt lat="42.400334039703012" lon="2.555066021159291">
        <ele>660.08000000000004</ele>
        <time>2025-05-15T10:26:52Z</time>
      </trkpt>
      <trkpt lat="42.400244018062949" lon="2.555098040029407">
        <ele>661.51999999999998</ele>
        <time>2025-05-15T10:26:54Z</time>
      </trkpt>
      <trkpt lat="42.399489982053638" lon="2.555026961490512">
        <ele>669.22000000000003</ele>
        <time>2025-05-15T10:27:01Z</time>
      </trkpt>
      <trkpt lat="42.398982960730791" lon="2.554747005924583">
        <ele>674.01999999999998</ele>
        <time>2025-05-15T10:27:06Z</time>
      </trkpt>
      <trkpt lat="42.398815993219614" lon="2.554640974849463">
        <ele>676.41999999999996</ele>
        <time>2025-05-15T10:27:08Z</time>
      </trkpt>
      <trkpt lat="42.398728989064693" lon="2.55459101870656">
        <ele>677.87</ele>
        <time>2025-05-15T10:27:09Z</time>
      </trkpt>
      <trkpt lat="42.398600997403264" lon="2.554536033421755">
        <ele>679.30999999999995</ele>
        <time>2025-05-15T10:27:10Z</time>
      </trkpt>
      <trkpt lat="42.39854802377522" lon="2.554524969309568">
        <ele>680.26999999999998</ele>
        <time>2025-05-15T10:27:11Z</time>
      </trkpt>
      <trkpt lat="42.398448027670383" lon="2.55450502038002">
        <ele>681.71000000000004</ele>
        <time>2025-05-15T10:27:12Z</time>
      </trkpt>
      <trkpt lat="42.398278964683414" lon="2.554471995681524">
        <ele>682.66999999999996</ele>
        <time>2025-05-15T10:27:13Z</time>
      </trkpt>
      <trkpt lat="42.39824702963233" lon="2.554452968761325">
        <ele>683.63</ele>
        <time>2025-05-15T10:27:14Z</time>
      </trkpt>
      <trkpt lat="42.398129012435675" lon="2.554385997354984">
        <ele>684.60000000000002</ele>
        <time>2025-05-15T10:27:15Z</time>
      </trkpt>
      <trkpt lat="42.398074027150869" lon="2.554307039827108">
        <ele>685.08000000000004</ele>
        <time>2025-05-15T10:27:16Z</time>
      </trkpt>
      <trkpt lat="42.398022981360555" lon="2.554234033450484">
        <ele>685.55999999999995</ele>
        <time>2025-05-15T10:27:17Z</time>
      </trkpt>
      <trkpt lat="42.397972019389272" lon="2.55416102707386">
        <ele>686.03999999999996</ele>
        <time>2025-05-15T10:27:18Z</time>
      </trkpt>
      <trkpt lat="42.39792600274086" lon="2.554086009040475">
        <ele>687</ele>
        <time>2025-05-15T10:27:19Z</time>
      </trkpt>
      <trkpt lat="42.397872023284435" lon="2.553999004885554">
        <ele>687.48000000000002</ele>
        <time>2025-05-15T10:27:20Z</time>
      </trkpt>
      <trkpt lat="42.397822989150882" lon="2.553961034864187">
        <ele>688.44000000000005</ele>
        <time>2025-05-15T10:27:21Z</time>
      </trkpt>
      <trkpt lat="42.397755011916161" lon="2.553910994902253">
        <ele>688.91999999999996</ele>
        <time>2025-05-15T10:27:22Z</time>
      </trkpt>
      <trkpt lat="42.397673958912492" lon="2.553888028487563">
        <ele>689.88</ele>
        <time>2025-05-15T10:27:23Z</time>
      </trkpt>
      <trkpt lat="42.397268023341894" lon="2.553775040432811">
        <ele>693.25</ele>
        <time>2025-05-15T10:27:28Z</time>
      </trkpt>
      <trkpt lat="42.397186970338225" lon="2.55375400185585">
        <ele>694.21000000000004</ele>
        <time>2025-05-15T10:27:29Z</time>
      </trkpt>
      <trkpt lat="42.397103989496827" lon="2.553734974935651">
        <ele>695.64999999999998</ele>
        <time>2025-05-15T10:27:30Z</time>
      </trkpt>
      <trkpt lat="42.39702302031219" lon="2.553716031834483">
        <ele>696.61000000000001</ele>
        <time>2025-05-15T10:27:31Z</time>
      </trkpt>
      <trkpt lat="42.396942973136902" lon="2.553697004914284">
        <ele>697.57000000000005</ele>
        <time>2025-05-15T10:27:32Z</time>
      </trkpt>
      <trkpt lat="42.396867033094168" lon="2.553678983822465">
        <ele>698.04999999999995</ele>
        <time>2025-05-15T10:27:33Z</time>
      </trkpt>
      <trkpt lat="42.396795032545924" lon="2.553661968559027">
        <ele>698.52999999999997</ele>
        <time>2025-05-15T10:27:34Z</time>
      </trkpt>
      <trkpt lat="42.396719008684158" lon="2.55364503711462">
        <ele>699.5</ele>
        <time>2025-05-15T10:27:35Z</time>
      </trkpt>
      <trkpt lat="42.39663896150887" lon="2.553626010194421">
        <ele>699.98000000000002</ele>
        <time>2025-05-15T10:27:36Z</time>
      </trkpt>
      <trkpt lat="42.396554974839091" lon="2.553587034344673">
        <ele>700.46000000000004</ele>
        <time>2025-05-15T10:27:37Z</time>
      </trkpt>
      <trkpt lat="42.396482974290848" lon="2.553522996604443">
        <ele>701.41999999999996</ele>
        <time>2025-05-15T10:27:38Z</time>
      </trkpt>
      <trkpt lat="42.396391024813056" lon="2.553442027419806">
        <ele>701.89999999999998</ele>
        <time>2025-05-15T10:27:39Z</time>
      </trkpt>
      <trkpt lat="42.396338973194361" lon="2.553381007164717">
        <ele>702.86000000000001</ele>
        <time>2025-05-15T10:27:40Z</time>
      </trkpt>
      <trkpt lat="42.39627200178802" lon="2.553304983302951">
        <ele>703.82000000000005</ele>
        <time>2025-05-15T10:27:41Z</time>
      </trkpt>
      <trkpt lat="42.39620603621006" lon="2.553228037431836">
        <ele>704.29999999999995</ele>
        <time>2025-05-15T10:27:42Z</time>
      </trkpt>
      <trkpt lat="42.396138980984688" lon="2.55315100774169">
        <ele>704.77999999999997</ele>
        <time>2025-05-15T10:27:43Z</time>
      </trkpt>
      <trkpt lat="42.396072009578347" lon="2.553079007193446">
        <ele>705.25999999999999</ele>
        <time>2025-05-15T10:27:44Z</time>
      </trkpt>
      <trkpt lat="42.396000009030104" lon="2.553010024130344">
        <ele>705.75</ele>
        <time>2025-05-15T10:27:45Z</time>
      </trkpt>
      <trkpt lat="42.395474966615438" lon="2.552724033594132">
        <ele>707.19000000000005</ele>
        <time>2025-05-15T10:27:51Z</time>
      </trkpt>
      <trkpt lat="42.395382011309266" lon="2.552672987803817">
        <ele>707.66999999999996</ele>
        <time>2025-05-15T10:27:52Z</time>
      </trkpt>
      <trkpt lat="42.395286960527301" lon="2.552611967548728">
        <ele>707.66999999999996</ele>
        <time>2025-05-15T10:27:53Z</time>
      </trkpt>
      <trkpt lat="42.395222000777721" lon="2.552518006414175">
        <ele>708.14999999999998</ele>
        <time>2025-05-15T10:27:54Z</time>
      </trkpt>
      <trkpt lat="42.395157041028142" lon="2.55242396146059">
        <ele>708.14999999999998</ele>
        <time>2025-05-15T10:27:55Z</time>
      </trkpt>
      <trkpt lat="42.39508998580277" lon="2.552298987284303">
        <ele>708.63</ele>
        <time>2025-05-15T10:27:56Z</time>
      </trkpt>
      <trkpt lat="42.395052015781403" lon="2.55216303281486">
        <ele>709.11000000000001</ele>
        <time>2025-05-15T10:27:57Z</time>
      </trkpt>
      <trkpt lat="42.395012034103274" lon="2.552021965384483">
        <ele>709.11000000000001</ele>
        <time>2025-05-15T10:27:58Z</time>
      </trkpt>
      <trkpt lat="42.394972974434495" lon="2.551879975944758">
        <ele>710.07000000000005</ele>
        <time>2025-05-15T10:27:59Z</time>
      </trkpt>
      <trkpt lat="42.394953025504947" lon="2.551699010655284">
        <ele>711.02999999999997</ele>
        <time>2025-05-15T10:28:00Z</time>
      </trkpt>
      <trkpt lat="42.394980015233159" lon="2.551493989303708">
        <ele>711.99000000000001</ele>
        <time>2025-05-15T10:28:01Z</time>
      </trkpt>
      <trkpt lat="42.395038018003106" lon="2.551320986822248">
        <ele>713.44000000000005</ele>
        <time>2025-05-15T10:28:02Z</time>
      </trkpt>
      <trkpt lat="42.395099038258195" lon="2.551135998219252">
        <ele>713.91999999999996</ele>
        <time>2025-05-15T10:28:03Z</time>
      </trkpt>
      <trkpt lat="42.395537998527288" lon="2.549962028861046">
        <ele>719.20000000000005</ele>
        <time>2025-05-15T10:28:09Z</time>
      </trkpt>
      <trkpt lat="42.395561970770359" lon="2.549774022772908">
        <ele>720.15999999999997</ele>
        <time>2025-05-15T10:28:10Z</time>
      </trkpt>
      <trkpt lat="42.395570017397404" lon="2.54958501085639">
        <ele>721.13</ele>
        <time>2025-05-15T10:28:11Z</time>
      </trkpt>
      <trkpt lat="42.395512014627457" lon="2.549425000324845">
        <ele>722.09000000000003</ele>
        <time>2025-05-15T10:28:12Z</time>
      </trkpt>
      <trkpt lat="42.39545501768589" lon="2.549265995621681">
        <ele>723.04999999999995</ele>
        <time>2025-05-15T10:28:13Z</time>
      </trkpt>
      <trkpt lat="42.395402966067195" lon="2.549121994525194">
        <ele>724.00999999999999</ele>
        <time>2025-05-15T10:28:14Z</time>
      </trkpt>
      <trkpt lat="42.395382011309266" lon="2.548980005085468">
        <ele>724.97000000000003</ele>
        <time>2025-05-15T10:28:15Z</time>
      </trkpt>
      <trkpt lat="42.395382011309266" lon="2.548807002604008">
        <ele>725.92999999999995</ele>
        <time>2025-05-15T10:28:16Z</time>
      </trkpt>
      <trkpt lat="42.395416963845491" lon="2.548663001507521">
        <ele>726.88999999999999</ele>
        <time>2025-05-15T10:28:17Z</time>
      </trkpt>
      <trkpt lat="42.395545961335301" lon="2.547706039622426">
        <ele>729.77999999999997</ele>
        <time>2025-05-15T10:28:22Z</time>
      </trkpt>
      <trkpt lat="42.395527018234134" lon="2.547519961372018">
        <ele>730.25999999999999</ele>
        <time>2025-05-15T10:28:23Z</time>
      </trkpt>
      <trkpt lat="42.395499022677541" lon="2.54732801578939">
        <ele>730.25999999999999</ele>
        <time>2025-05-15T10:28:24Z</time>
      </trkpt>
      <trkpt lat="42.395382011309266" lon="2.546940017491579">
        <ele>730.25999999999999</ele>
        <time>2025-05-15T10:28:26Z</time>
      </trkpt>
      <trkpt lat="42.395307999104261" lon="2.546775983646512">
        <ele>730.25999999999999</ele>
        <time>2025-05-15T10:28:27Z</time>
      </trkpt>
      <trkpt lat="42.395200962200761" lon="2.546635000035167">
        <ele>730.25999999999999</ele>
        <time>2025-05-15T10:28:28Z</time>
      </trkpt>
      <trkpt lat="42.395095014944673" lon="2.546537015587091">
        <ele>730.25999999999999</ele>
        <time>2025-05-15T10:28:29Z</time>
      </trkpt>
      <trkpt lat="42.394985966384411" lon="2.546444982290268">
        <ele>730.25999999999999</ele>
        <time>2025-05-15T10:28:30Z</time>
      </trkpt>
      <trkpt lat="42.394868033006787" lon="2.546429978683591">
        <ele>730.25999999999999</ele>
        <time>2025-05-15T10:28:31Z</time>
      </trkpt>
      <trkpt lat="42.394741969183087" lon="2.546412963420153">
        <ele>730.74000000000001</ele>
        <time>2025-05-15T10:28:32Z</time>
      </trkpt>
      <trkpt lat="42.394612971693277" lon="2.546396031975746">
        <ele>731.22000000000003</ele>
        <time>2025-05-15T10:28:33Z</time>
      </trkpt>
      <trkpt lat="42.394484980031848" lon="2.546370970085263">
        <ele>731.70000000000005</ele>
        <time>2025-05-15T10:28:34Z</time>
      </trkpt>
      <trkpt lat="42.394351959228516" lon="2.546286983415484">
        <ele>732.17999999999995</ele>
        <time>2025-05-15T10:28:35Z</time>
      </trkpt>
      <trkpt lat="42.394216004759073" lon="2.546200985088944">
        <ele>732.65999999999997</ele>
        <time>2025-05-15T10:28:36Z</time>
      </trkpt>
      <trkpt lat="42.394090024754405" lon="2.546122027561069">
        <ele>733.13999999999999</ele>
        <time>2025-05-15T10:28:37Z</time>
      </trkpt>
      <trkpt lat="42.393978964537382" lon="2.546066958457232">
        <ele>733.13999999999999</ele>
        <time>2025-05-15T10:28:38Z</time>
      </trkpt>
      <trkpt lat="42.393868993967772" lon="2.546048015356064">
        <ele>733.62</ele>
        <time>2025-05-15T10:28:39Z</time>
      </trkpt>
      <trkpt lat="42.393751982599497" lon="2.546161003410816">
        <ele>734.10000000000002</ele>
        <time>2025-05-15T10:28:40Z</time>
      </trkpt>
      <trkpt lat="42.393699008971453" lon="2.546286983415484">
        <ele>734.58000000000004</ele>
        <time>2025-05-15T10:28:41Z</time>
      </trkpt>
      <trkpt lat="42.393637988716364" lon="2.546430984511972">
        <ele>735.07000000000005</ele>
        <time>2025-05-15T10:28:42Z</time>
      </trkpt>
      <trkpt lat="42.393590966239572" lon="2.546601975336671">
        <ele>735.07000000000005</ele>
        <time>2025-05-15T10:28:43Z</time>
      </trkpt>
      <trkpt lat="42.393552996218204" lon="2.546760980039835">
        <ele>735.07000000000005</ele>
        <time>2025-05-15T10:28:44Z</time>
      </trkpt>
      <trkpt lat="42.393519971519709" lon="2.546900035813451">
        <ele>735.07000000000005</ele>
        <time>2025-05-15T10:28:45Z</time>
      </trkpt>
      <trkpt lat="42.393468003720045" lon="2.546974970027804">
        <ele>735.07000000000005</ele>
        <time>2025-05-15T10:28:46Z</time>
      </trkpt>
      <trkpt lat="42.39341402426362" lon="2.547041019424796">
        <ele>735.07000000000005</ele>
        <time>2025-05-15T10:28:47Z</time>
      </trkpt>
      <trkpt lat="42.393347974866629" lon="2.546987039968371">
        <ele>735.07000000000005</ele>
        <time>2025-05-15T10:28:48Z</time>
      </trkpt>
      <trkpt lat="42.393273040652275" lon="2.546912021934986">
        <ele>735.54999999999995</ele>
        <time>2025-05-15T10:28:49Z</time>
      </trkpt>
      <trkpt lat="42.393182013183832" lon="2.546820994466543">
        <ele>736.02999999999997</ele>
        <time>2025-05-15T10:28:50Z</time>
      </trkpt>
      <trkpt lat="42.393086040392518" lon="2.546725021675229">
        <ele>736.02999999999997</ele>
        <time>2025-05-15T10:28:51Z</time>
      </trkpt>
      <trkpt lat="42.393000964075327" lon="2.546574985608459">
        <ele>736.50999999999999</ele>
        <time>2025-05-15T10:28:52Z</time>
      </trkpt>
      <trkpt lat="42.392923012375832" lon="2.546412963420153">
        <ele>736.99000000000001</ele>
        <time>2025-05-15T10:28:53Z</time>
      </trkpt>
      <trkpt lat="42.392666023224592" lon="2.545876018702984">
        <ele>738.42999999999995</ele>
        <time>2025-05-15T10:28:56Z</time>
      </trkpt>
      <trkpt lat="42.392580024898052" lon="2.54569798707962">
        <ele>738.90999999999997</ele>
        <time>2025-05-15T10:28:57Z</time>
      </trkpt>
      <trkpt lat="42.392471982166171" lon="2.545522972941399">
        <ele>739.38999999999999</ele>
        <time>2025-05-15T10:28:58Z</time>
      </trkpt>
      <trkpt lat="42.392332004383206" lon="2.545434040948749">
        <ele>740.35000000000002</ele>
        <time>2025-05-15T10:28:59Z</time>
      </trkpt>
      <trkpt lat="42.3921890091151" lon="2.545384000986815">
        <ele>740.83000000000004</ele>
        <time>2025-05-15T10:29:00Z</time>
      </trkpt>
      <trkpt lat="42.392048025503755" lon="2.545365979894996">
        <ele>741.30999999999995</ele>
        <time>2025-05-15T10:29:01Z</time>
      </trkpt>
      <trkpt lat="42.391908969730139" lon="2.545347958803177">
        <ele>741.78999999999996</ele>
        <time>2025-05-15T10:29:02Z</time>
      </trkpt>
      <trkpt lat="42.391780978068709" lon="2.54533102735877">
        <ele>742.27999999999997</ele>
        <time>2025-05-15T10:29:03Z</time>
      </trkpt>
      <trkpt lat="42.391662960872054" lon="2.545421971008182">
        <ele>742.75999999999999</ele>
        <time>2025-05-15T10:29:04Z</time>
      </trkpt>
      <trkpt lat="42.391577968373895" lon="2.545490032061935">
        <ele>742.75999999999999</ele>
        <time>2025-05-15T10:29:05Z</time>
      </trkpt>
      <trkpt lat="42.391514014452696" lon="2.545587010681629">
        <ele>742.75999999999999</ele>
        <time>2025-05-15T10:29:06Z</time>
      </trkpt>
      <trkpt lat="42.391442013904452" lon="2.545710979029536">
        <ele>742.27999999999997</ele>
        <time>2025-05-15T10:29:07Z</time>
      </trkpt>
      <trkpt lat="42.391360038891435" lon="2.545851962640882">
        <ele>741.30999999999995</ele>
        <time>2025-05-15T10:29:08Z</time>
      </trkpt>
      <trkpt lat="42.391127021983266" lon="2.54629603587091">
        <ele>739.87</ele>
        <time>2025-05-15T10:29:11Z</time>
      </trkpt>
      <trkpt lat="42.391072036698461" lon="2.546441964805126">
        <ele>739.87</ele>
        <time>2025-05-15T10:29:12Z</time>
      </trkpt>
      <trkpt lat="42.390980003401637" lon="2.546682022511959">
        <ele>739.38999999999999</ele>
        <time>2025-05-15T10:29:14Z</time>
      </trkpt>
      <trkpt lat="42.390943039208651" lon="2.546780006960034">
        <ele>739.38999999999999</ele>
        <time>2025-05-15T10:29:15Z</time>
      </trkpt>
      <trkpt lat="42.390886964276433" lon="2.546895006671548">
        <ele>739.38999999999999</ele>
        <time>2025-05-15T10:29:16Z</time>
      </trkpt>
      <trkpt lat="42.390803983435035" lon="2.546876985579729">
        <ele>739.87</ele>
        <time>2025-05-15T10:29:17Z</time>
      </trkpt>
      <trkpt lat="42.390702981501818" lon="2.546854019165039">
        <ele>739.87</ele>
        <time>2025-05-15T10:29:18Z</time>
      </trkpt>
      <trkpt lat="42.390586975961924" lon="2.546829041093588">
        <ele>740.35000000000002</ele>
        <time>2025-05-15T10:29:19Z</time>
      </trkpt>
      <trkpt lat="42.389706959947944" lon="2.546636005863547">
        <ele>742.75999999999999</ele>
        <time>2025-05-15T10:29:25Z</time>
      </trkpt>
      <trkpt lat="42.38945902325213" lon="2.546582026407123">
        <ele>744.20000000000005</ele>
        <time>2025-05-15T10:29:27Z</time>
      </trkpt>
      <trkpt lat="42.389350980520248" lon="2.54655797034502">
        <ele>744.67999999999995</ele>
        <time>2025-05-15T10:29:28Z</time>
      </trkpt>
      <trkpt lat="42.389203039929271" lon="2.546531986445189">
        <ele>745.63999999999999</ele>
        <time>2025-05-15T10:29:29Z</time>
      </trkpt>
      <trkpt lat="42.389186024665833" lon="2.54651497118175">
        <ele>746.12</ele>
        <time>2025-05-15T10:29:30Z</time>
      </trkpt>
      <trkpt lat="42.389178983867168" lon="2.546353032812476">
        <ele>746.60000000000002</ele>
        <time>2025-05-15T10:29:31Z</time>
      </trkpt>
      <trkpt lat="42.389228018000722" lon="2.546279020607472">
        <ele>747.08000000000004</ele>
        <time>2025-05-15T10:29:32Z</time>
      </trkpt>
      <trkpt lat="42.38928803242743" lon="2.546188998967409">
        <ele>747.55999999999995</ele>
        <time>2025-05-15T10:29:33Z</time>
      </trkpt>
      <trkpt lat="42.389365984126925" lon="2.546071987599134">
        <ele>748.03999999999996</ele>
        <time>2025-05-15T10:29:34Z</time>
      </trkpt>
      <trkpt lat="42.389511996880174" lon="2.545852968469262">
        <ele>748.51999999999998</ele>
        <time>2025-05-15T10:29:36Z</time>
      </trkpt>
      <trkpt lat="42.389577040448785" lon="2.545689018443227">
        <ele>749</ele>
        <time>2025-05-15T10:29:37Z</time>
      </trkpt>
      <trkpt lat="42.389614004641771" lon="2.545518027618527">
        <ele>749</ele>
        <time>2025-05-15T10:29:38Z</time>
      </trkpt>
      <trkpt lat="42.389625990763307" lon="2.545362040400505">
        <ele>749.49000000000001</ele>
        <time>2025-05-15T10:29:39Z</time>
      </trkpt>
      <trkpt lat="42.389614004641771" lon="2.545179985463619">
        <ele>750.45000000000005</ele>
        <time>2025-05-15T10:29:40Z</time>
      </trkpt>
      <trkpt lat="42.389587014913559" lon="2.545012012124062">
        <ele>750.92999999999995</ele>
        <time>2025-05-15T10:29:41Z</time>
      </trkpt>
      <trkpt lat="42.389534963294864" lon="2.54468796774745">
        <ele>752.37</ele>
        <time>2025-05-15T10:29:43Z</time>
      </trkpt>
      <trkpt lat="42.389479978010058" lon="2.544547989964485">
        <ele>753.33000000000004</ele>
        <time>2025-05-15T10:29:44Z</time>
      </trkpt>
      <trkpt lat="42.389382999390364" lon="2.544494010508061">
        <ele>753.80999999999995</ele>
        <time>2025-05-15T10:29:45Z</time>
      </trkpt>
      <trkpt lat="42.389284009113908" lon="2.544467020779848">
        <ele>754.76999999999998</ele>
        <time>2025-05-15T10:29:46Z</time>
      </trkpt>
      <trkpt lat="42.38915903493762" lon="2.544458974152803">
        <ele>756.21000000000004</ele>
        <time>2025-05-15T10:29:47Z</time>
      </trkpt>
      <trkpt lat="42.389019979164004" lon="2.544475989416242">
        <ele>757.17999999999995</ele>
        <time>2025-05-15T10:29:48Z</time>
      </trkpt>
      <trkpt lat="42.388183968141675" lon="2.544498033821583">
        <ele>759.10000000000002</ele>
        <time>2025-05-15T10:29:53Z</time>
      </trkpt>
      <trkpt lat="42.388024963438511" lon="2.544443970546126">
        <ele>759.58000000000004</ele>
        <time>2025-05-15T10:29:54Z</time>
      </trkpt>
      <trkpt lat="42.387733021751046" lon="2.544346991926432">
        <ele>760.05999999999995</ele>
        <time>2025-05-15T10:29:56Z</time>
      </trkpt>
      <trkpt lat="42.387629002332687" lon="2.544259987771511">
        <ele>760.05999999999995</ele>
        <time>2025-05-15T10:29:57Z</time>
      </trkpt>
      <trkpt lat="42.38750696182251" lon="2.544150017201901">
        <ele>760.53999999999996</ele>
        <time>2025-05-15T10:29:58Z</time>
      </trkpt>
      <trkpt lat="42.387455999851227" lon="2.544064018875361">
        <ele>760.53999999999996</ele>
        <time>2025-05-15T10:29:59Z</time>
      </trkpt>
      <trkpt lat="42.387443007901311" lon="2.543884981423616">
        <ele>760.53999999999996</ele>
        <time>2025-05-15T10:30:00Z</time>
      </trkpt>
      <trkpt lat="42.387435967102647" lon="2.543704016134143">
        <ele>760.53999999999996</ele>
        <time>2025-05-15T10:30:01Z</time>
      </trkpt>
      <trkpt lat="42.38741802982986" lon="2.543512992560864">
        <ele>760.53999999999996</ele>
        <time>2025-05-15T10:30:02Z</time>
      </trkpt>
      <trkpt lat="42.387400008738041" lon="2.543314006179571">
        <ele>760.53999999999996</ele>
        <time>2025-05-15T10:30:03Z</time>
      </trkpt>
      <trkpt lat="42.387348040938377" lon="2.543147038668394">
        <ele>760.53999999999996</ele>
        <time>2025-05-15T10:30:04Z</time>
      </trkpt>
      <trkpt lat="42.387293977662921" lon="2.542970012873411">
        <ele>760.05999999999995</ele>
        <time>2025-05-15T10:30:05Z</time>
      </trkpt>
      <trkpt lat="42.387236980721354" lon="2.542786030098796">
        <ele>759.58000000000004</ele>
        <time>2025-05-15T10:30:06Z</time>
      </trkpt>
      <trkpt lat="42.387181995436549" lon="2.542609004303813">
        <ele>759.10000000000002</ele>
        <time>2025-05-15T10:30:07Z</time>
      </trkpt>
      <trkpt lat="42.387057021260262" lon="2.54230197519064">
        <ele>758.13999999999999</ele>
        <time>2025-05-15T10:30:09Z</time>
      </trkpt>
      <trkpt lat="42.386979991570115" lon="2.542168032377958">
        <ele>757.65999999999997</ele>
        <time>2025-05-15T10:30:10Z</time>
      </trkpt>
      <trkpt lat="42.386885024607182" lon="2.542005004361272">
        <ele>757.65999999999997</ele>
        <time>2025-05-15T10:30:11Z</time>
      </trkpt>
      <trkpt lat="42.386760972440243" lon="2.541929986327887">
        <ele>757.65999999999997</ele>
        <time>2025-05-15T10:30:12Z</time>
      </trkpt>
      <trkpt lat="42.386627029627562" lon="2.54185002297163">
        <ele>757.65999999999997</ele>
        <time>2025-05-15T10:30:13Z</time>
      </trkpt>
      <trkpt lat="42.386456038802862" lon="2.541747009381652">
        <ele>757.65999999999997</ele>
        <time>2025-05-15T10:30:14Z</time>
      </trkpt>
      <trkpt lat="42.385206967592239" lon="2.541496977210045">
        <ele>762.46000000000004</ele>
        <time>2025-05-15T10:30:22Z</time>
      </trkpt>
      <trkpt lat="42.385057015344501" lon="2.54146495833993">
        <ele>763.41999999999996</ele>
        <time>2025-05-15T10:30:23Z</time>
      </trkpt>
      <trkpt lat="42.384912008419633" lon="2.541351970285177">
        <ele>764.38999999999999</ele>
        <time>2025-05-15T10:30:24Z</time>
      </trkpt>
      <trkpt lat="42.384488973766565" lon="2.54097000695765">
        <ele>767.75</ele>
        <time>2025-05-15T10:30:27Z</time>
      </trkpt>
      <trkpt lat="42.384331980720162" lon="2.540803039446473">
        <ele>769.19000000000005</ele>
        <time>2025-05-15T10:30:28Z</time>
      </trkpt>
      <trkpt lat="42.384287975728512" lon="2.540672030299902">
        <ele>770.14999999999998</ele>
        <time>2025-05-15T10:30:29Z</time>
      </trkpt>
      <trkpt lat="42.384255034849048" lon="2.540521994233131">
        <ele>770.63</ele>
        <time>2025-05-15T10:30:30Z</time>
      </trkpt>
      <trkpt lat="42.384267020970583" lon="2.540333988144994">
        <ele>771.60000000000002</ele>
        <time>2025-05-15T10:30:31Z</time>
      </trkpt>
      <trkpt lat="42.384332986548543" lon="2.54013299010694">
        <ele>772.55999999999995</ele>
        <time>2025-05-15T10:30:32Z</time>
      </trkpt>
      <trkpt lat="42.384430970996618" lon="2.540025031194091">
        <ele>773.51999999999998</ele>
        <time>2025-05-15T10:30:33Z</time>
      </trkpt>
      <trkpt lat="42.384538007900119" lon="2.539896033704281">
        <ele>774.48000000000002</ele>
        <time>2025-05-15T10:30:34Z</time>
      </trkpt>
      <trkpt lat="42.384617971256375" lon="2.53972495906055">
        <ele>776.39999999999998</ele>
        <time>2025-05-15T10:30:35Z</time>
      </trkpt>
      <trkpt lat="42.384704975411296" lon="2.539540976285934">
        <ele>777.84000000000003</ele>
        <time>2025-05-15T10:30:36Z</time>
      </trkpt>
      <trkpt lat="42.385473009198904" lon="2.538065006956458">
        <ele>787.94000000000005</ele>
        <time>2025-05-15T10:30:44Z</time>
      </trkpt>
      <trkpt lat="42.385539980605245" lon="2.537911031395197">
        <ele>788.89999999999998</ele>
        <time>2025-05-15T10:30:45Z</time>
      </trkpt>
      <trkpt lat="42.385576022788882" lon="2.537820003926754">
        <ele>789.86000000000001</ele>
        <time>2025-05-15T10:30:46Z</time>
      </trkpt>
      <trkpt lat="42.385538974776864" lon="2.537647001445293">
        <ele>790.34000000000003</ele>
        <time>2025-05-15T10:30:47Z</time>
      </trkpt>
      <trkpt lat="42.385511985048652" lon="2.537520015612245">
        <ele>791.29999999999995</ele>
        <time>2025-05-15T10:30:48Z</time>
      </trkpt>
      <trkpt lat="42.385479966178536" lon="2.537413984537125">
        <ele>791.77999999999997</ele>
        <time>2025-05-15T10:30:49Z</time>
      </trkpt>
      <trkpt lat="42.385440990328789" lon="2.537286998704076">
        <ele>791.77999999999997</ele>
        <time>2025-05-15T10:30:50Z</time>
      </trkpt>
      <trkpt lat="42.385398996993899" lon="2.537149032577872">
        <ele>791.77999999999997</ele>
        <time>2025-05-15T10:30:51Z</time>
      </trkpt>
      <trkpt lat="42.385369995608926" lon="2.536997990682721">
        <ele>791.77999999999997</ele>
        <time>2025-05-15T10:30:52Z</time>
      </trkpt>
      <trkpt lat="42.385409977287054" lon="2.536862036213279">
        <ele>792.25999999999999</ele>
        <time>2025-05-15T10:30:53Z</time>
      </trkpt>
      <trkpt lat="42.385449958965182" lon="2.536728009581566">
        <ele>791.77999999999997</ele>
        <time>2025-05-15T10:30:54Z</time>
      </trkpt>
      <trkpt lat="42.385501004755497" lon="2.536607980728149">
        <ele>791.77999999999997</ele>
        <time>2025-05-15T10:30:55Z</time>
      </trkpt>
      <trkpt lat="42.385577028617263" lon="2.536482000723481">
        <ele>792.25999999999999</ele>
        <time>2025-05-15T10:30:56Z</time>
      </trkpt>
      <trkpt lat="42.385660009458661" lon="2.536343028768897">
        <ele>793.22000000000003</ele>
        <time>2025-05-15T10:30:57Z</time>
      </trkpt>
      <trkpt lat="42.385740978643298" lon="2.536209002137184">
        <ele>794.19000000000005</ele>
        <time>2025-05-15T10:30:58Z</time>
      </trkpt>
      <trkpt lat="42.386041972786188" lon="2.53570600412786">
        <ele>798.02999999999997</ele>
        <time>2025-05-15T10:31:02Z</time>
      </trkpt>
      <trkpt lat="42.386074997484684" lon="2.53555303439498">
        <ele>798.50999999999999</ele>
        <time>2025-05-15T10:31:03Z</time>
      </trkpt>
      <trkpt lat="42.386102993041277" lon="2.535402998328209">
        <ele>799.47000000000003</ele>
        <time>2025-05-15T10:31:04Z</time>
      </trkpt>
      <trkpt lat="42.386169964447618" lon="2.534927995875478">
        <ele>800.44000000000005</ele>
        <time>2025-05-15T10:31:07Z</time>
      </trkpt>
      <trkpt lat="42.386156972497702" lon="2.534769997000694">
        <ele>800.91999999999996</ele>
        <time>2025-05-15T10:31:08Z</time>
      </trkpt>
      <trkpt lat="42.386143980547786" lon="2.534616021439433">
        <ele>801.39999999999998</ele>
        <time>2025-05-15T10:31:09Z</time>
      </trkpt>
      <trkpt lat="42.386134006083012" lon="2.534493980929256">
        <ele>801.39999999999998</ele>
        <time>2025-05-15T10:31:10Z</time>
      </trkpt>
      <trkpt lat="42.386067034676671" lon="2.534365989267826">
        <ele>801.39999999999998</ele>
        <time>2025-05-15T10:31:11Z</time>
      </trkpt>
      <trkpt lat="42.385997967794538" lon="2.534233974292874">
        <ele>801.39999999999998</ele>
        <time>2025-05-15T10:31:12Z</time>
      </trkpt>
      <trkpt lat="42.385927978903055" lon="2.534101037308574">
        <ele>801.88</ele>
        <time>2025-05-15T10:31:13Z</time>
      </trkpt>
      <trkpt lat="42.38585002720356" lon="2.533997017890215">
        <ele>801.88</ele>
        <time>2025-05-15T10:31:14Z</time>
      </trkpt>
      <trkpt lat="42.385750031098723" lon="2.533900961279869">
        <ele>802.36000000000001</ele>
        <time>2025-05-15T10:31:15Z</time>
      </trkpt>
      <trkpt lat="42.385649029165506" lon="2.533802976831794">
        <ele>802.36000000000001</ele>
        <time>2025-05-15T10:31:16Z</time>
      </trkpt>
      <trkpt lat="42.385544003918767" lon="2.533701974898577">
        <ele>802.84000000000003</ele>
        <time>2025-05-15T10:31:17Z</time>
      </trkpt>
      <trkpt lat="42.385309981182218" lon="2.533474992960692">
        <ele>802.36000000000001</ele>
        <time>2025-05-15T10:31:19Z</time>
      </trkpt>
      <trkpt lat="42.385211996734142" lon="2.533347001299262">
        <ele>801.39999999999998</ele>
        <time>2025-05-15T10:31:20Z</time>
      </trkpt>
      <trkpt lat="42.385168997570872" lon="2.533270977437496">
        <ele>800.91999999999996</ele>
        <time>2025-05-15T10:31:21Z</time>
      </trkpt>
      <trkpt lat="42.385168997570872" lon="2.533270977437496">
        <ele>799.95000000000005</ele>
        <time>2025-05-15T10:31:22Z</time>
      </trkpt>
      <trkpt lat="42.385168997570872" lon="2.532939976081252">
        <ele>798.99000000000001</ele>
        <time>2025-05-15T10:31:23Z</time>
      </trkpt>
      <trkpt lat="42.385168997570872" lon="2.532729003578425">
        <ele>798.50999999999999</ele>
        <time>2025-05-15T10:31:24Z</time>
      </trkpt>
      <trkpt lat="42.385168997570872" lon="2.53250696696341">
        <ele>798.02999999999997</ele>
        <time>2025-05-15T10:31:25Z</time>
      </trkpt>
      <trkpt lat="42.38511904142797" lon="2.531777992844582">
        <ele>795.63</ele>
        <time>2025-05-15T10:31:28Z</time>
      </trkpt>
      <trkpt lat="42.385047040879726" lon="2.531633991748095">
        <ele>795.14999999999998</ele>
        <time>2025-05-15T10:31:29Z</time>
      </trkpt>
      <trkpt lat="42.384972022846341" lon="2.531484039500356">
        <ele>795.14999999999998</ele>
        <time>2025-05-15T10:31:30Z</time>
      </trkpt>
      <trkpt lat="42.38458301872015" lon="2.530731009319425">
        <ele>795.63</ele>
        <time>2025-05-15T10:31:35Z</time>
      </trkpt>
      <trkpt lat="42.384509006515145" lon="2.53059103153646">
        <ele>795.63</ele>
        <time>2025-05-15T10:31:36Z</time>
      </trkpt>
      <trkpt lat="42.384429965168238" lon="2.530440995469689">
        <ele>795.63</ele>
        <time>2025-05-15T10:31:37Z</time>
      </trkpt>
      <trkpt lat="42.384318988770247" lon="2.530311997979879">
        <ele>795.63</ele>
        <time>2025-05-15T10:31:38Z</time>
      </trkpt>
      <trkpt lat="42.384217986837029" lon="2.530204961076379">
        <ele>795.63</ele>
        <time>2025-05-15T10:31:39Z</time>
      </trkpt>
      <trkpt lat="42.38411002792418" lon="2.530090967193246">
        <ele>795.63</ele>
        <time>2025-05-15T10:31:40Z</time>
      </trkpt>
      <trkpt lat="42.383970972150564" lon="2.530006980523467">
        <ele>795.63</ele>
        <time>2025-05-15T10:31:41Z</time>
      </trkpt>
      <trkpt lat="42.383856978267431" lon="2.529962975531817">
        <ele>795.14999999999998</ele>
        <time>2025-05-15T10:31:42Z</time>
      </trkpt>
      <trkpt lat="42.383641982451081" lon="2.529931040480733">
        <ele>793.71000000000004</ele>
        <time>2025-05-15T10:31:44Z</time>
      </trkpt>
      <trkpt lat="42.383537963032722" lon="2.529916036874056">
        <ele>793.22000000000003</ele>
        <time>2025-05-15T10:31:45Z</time>
      </trkpt>
      <trkpt lat="42.383439978584647" lon="2.529902039095759">
        <ele>792.25999999999999</ele>
        <time>2025-05-15T10:31:46Z</time>
      </trkpt>
      <trkpt lat="42.38329597748816" lon="2.529865996912122">
        <ele>791.77999999999997</ele>
        <time>2025-05-15T10:31:47Z</time>
      </trkpt>
      <trkpt lat="42.383254989981651" lon="2.529756026342511">
        <ele>791.29999999999995</ele>
        <time>2025-05-15T10:31:48Z</time>
      </trkpt>
      <trkpt lat="42.383236968889832" lon="2.52958201803267">
        <ele>790.82000000000005</ele>
        <time>2025-05-15T10:31:49Z</time>
      </trkpt>
      <trkpt lat="42.383236968889832" lon="2.529429970309138">
        <ele>790.34000000000003</ele>
        <time>2025-05-15T10:31:50Z</time>
      </trkpt>
      <trkpt lat="42.383236968889832" lon="2.529245987534523">
        <ele>790.34000000000003</ele>
        <time>2025-05-15T10:31:51Z</time>
      </trkpt>
      <trkpt lat="42.383236968889832" lon="2.529000984504819">
        <ele>790.34000000000003</ele>
        <time>2025-05-15T10:31:52Z</time>
      </trkpt>
      <trkpt lat="42.383268987759948" lon="2.528842985630035">
        <ele>790.34000000000003</ele>
        <time>2025-05-15T10:31:53Z</time>
      </trkpt>
      <trkpt lat="42.383309975266457" lon="2.52863897010684">
        <ele>790.34000000000003</ele>
        <time>2025-05-15T10:31:54Z</time>
      </trkpt>
      <trkpt lat="42.383407959714532" lon="2.528148964047432">
        <ele>790.82000000000005</ele>
        <time>2025-05-15T10:31:57Z</time>
      </trkpt>
      <trkpt lat="42.383430004119873" lon="2.52803597599268">
        <ele>790.82000000000005</ele>
        <time>2025-05-15T10:31:58Z</time>
      </trkpt>
      <trkpt lat="42.383393961936235" lon="2.527952995151281">
        <ele>791.29999999999995</ele>
        <time>2025-05-15T10:31:59Z</time>
      </trkpt>
      <trkpt lat="42.383336964994669" lon="2.527835983783007">
        <ele>790.82000000000005</ele>
        <time>2025-05-15T10:32:00Z</time>
      </trkpt>
      <trkpt lat="42.383243003860116" lon="2.52775501459837">
        <ele>790.82000000000005</ele>
        <time>2025-05-15T10:32:01Z</time>
      </trkpt>
      <trkpt lat="42.383059021085501" lon="2.527618976309896">
        <ele>790.34000000000003</ele>
        <time>2025-05-15T10:32:03Z</time>
      </trkpt>
      <trkpt lat="42.382963970303535" lon="2.527559967711568">
        <ele>789.86000000000001</ele>
        <time>2025-05-15T10:32:04Z</time>
      </trkpt>
      <trkpt lat="42.382862968370318" lon="2.527538007125258">
        <ele>788.89999999999998</ele>
        <time>2025-05-15T10:32:05Z</time>
      </trkpt>
      <trkpt lat="42.382755009457469" lon="2.527516968548298">
        <ele>787.94000000000005</ele>
        <time>2025-05-15T10:32:06Z</time>
      </trkpt>
      <trkpt lat="42.382642021402717" lon="2.527501964941621">
        <ele>786.98000000000002</ele>
        <time>2025-05-15T10:32:07Z</time>
      </trkpt>
      <trkpt lat="42.382516963407397" lon="2.527486039325595">
        <ele>786.01999999999998</ele>
        <time>2025-05-15T10:32:08Z</time>
      </trkpt>
      <trkpt lat="42.38196300342679" lon="2.527415966615081">
        <ele>782.64999999999998</ele>
        <time>2025-05-15T10:32:12Z</time>
      </trkpt>
      <trkpt lat="42.381819002330303" lon="2.527397023513913">
        <ele>781.21000000000004</ele>
        <time>2025-05-15T10:32:13Z</time>
      </trkpt>
      <trkpt lat="42.381057003512979" lon="2.527016988024116">
        <ele>775.44000000000005</ele>
        <time>2025-05-15T10:32:19Z</time>
      </trkpt>
      <trkpt lat="42.380924988538027" lon="2.526930989697576">
        <ele>774.48000000000002</ele>
        <time>2025-05-15T10:32:20Z</time>
      </trkpt>
      <trkpt lat="42.380402963608503" lon="2.526595965027809">
        <ele>772.55999999999995</ele>
        <time>2025-05-15T10:32:24Z</time>
      </trkpt>
      <trkpt lat="42.380287041887641" lon="2.526537962257862">
        <ele>772.08000000000004</ele>
        <time>2025-05-15T10:32:25Z</time>
      </trkpt>
      <trkpt lat="42.380172964185476" lon="2.526503009721637">
        <ele>772.08000000000004</ele>
        <time>2025-05-15T10:32:26Z</time>
      </trkpt>
      <trkpt lat="42.379997028037906" lon="2.526448024436832">
        <ele>772.08000000000004</ele>
        <time>2025-05-15T10:32:27Z</time>
      </trkpt>
      <trkpt lat="42.379846991971135" lon="2.526448024436832">
        <ele>771.60000000000002</ele>
        <time>2025-05-15T10:32:28Z</time>
      </trkpt>
      <trkpt lat="42.379764011129737" lon="2.526473002508283">
        <ele>771.60000000000002</ele>
        <time>2025-05-15T10:32:29Z</time>
      </trkpt>
      <trkpt lat="42.379630990326405" lon="2.526512984186411">
        <ele>771.60000000000002</ele>
        <time>2025-05-15T10:32:30Z</time>
      </trkpt>
      <trkpt lat="42.378766983747482" lon="2.5268330052495">
        <ele>772.55999999999995</ele>
        <time>2025-05-15T10:32:36Z</time>
      </trkpt>
      <trkpt lat="42.378624994307756" lon="2.526911040768027">
        <ele>773.51999999999998</ele>
        <time>2025-05-15T10:32:37Z</time>
      </trkpt>
      <trkpt lat="42.378503959625959" lon="2.527012964710593">
        <ele>774.48000000000002</ele>
        <time>2025-05-15T10:32:38Z</time>
      </trkpt>
      <trkpt lat="42.378377979621291" lon="2.527138022705913">
        <ele>775.91999999999996</ele>
        <time>2025-05-15T10:32:39Z</time>
      </trkpt>
      <trkpt lat="42.378293992951512" lon="2.527258973568678">
        <ele>776.39999999999998</ele>
        <time>2025-05-15T10:32:40Z</time>
      </trkpt>
      <trkpt lat="42.378220986574888" lon="2.527367016300559">
        <ele>776.88</ele>
        <time>2025-05-15T10:32:41Z</time>
      </trkpt>
      <trkpt lat="42.378129959106445" lon="2.527499031275511">
        <ele>776.88</ele>
        <time>2025-05-15T10:32:42Z</time>
      </trkpt>
      <trkpt lat="42.377980006858706" lon="2.527585029602051">
        <ele>777.36000000000001</ele>
        <time>2025-05-15T10:32:43Z</time>
      </trkpt>
      <trkpt lat="42.377975983545184" lon="2.527585029602051">
        <ele>777.84000000000003</ele>
        <time>2025-05-15T10:32:44Z</time>
      </trkpt>
      <trkpt lat="42.377844974398613" lon="2.527582012116909">
        <ele>777.84000000000003</ele>
        <time>2025-05-15T10:32:45Z</time>
      </trkpt>
      <trkpt lat="42.377757970243692" lon="2.52754395827651">
        <ele>777.84000000000003</ele>
        <time>2025-05-15T10:32:46Z</time>
      </trkpt>
      <trkpt lat="42.377668032422662" lon="2.527502970770001">
        <ele>777.36000000000001</ele>
        <time>2025-05-15T10:32:47Z</time>
      </trkpt>
      <trkpt lat="42.377465022727847" lon="2.527413032948971">
        <ele>776.39999999999998</ele>
        <time>2025-05-15T10:32:48Z</time>
      </trkpt>
      <trkpt lat="42.377465022727847" lon="2.527413032948971">
        <ele>775.91999999999996</ele>
        <time>2025-05-15T10:32:49Z</time>
      </trkpt>
      <trkpt lat="42.377390004694462" lon="2.527473969385028">
        <ele>775.44000000000005</ele>
        <time>2025-05-15T10:32:50Z</time>
      </trkpt>
      <trkpt lat="42.377313980832696" lon="2.527535995468497">
        <ele>774.96000000000004</ele>
        <time>2025-05-15T10:32:51Z</time>
      </trkpt>
      <trkpt lat="42.377250026911497" lon="2.527588969096541">
        <ele>774.48000000000002</ele>
        <time>2025-05-15T10:32:52Z</time>
      </trkpt>
      <trkpt lat="42.377122035250068" lon="2.52769198268652">
        <ele>774.48000000000002</ele>
        <time>2025-05-15T10:32:53Z</time>
      </trkpt>
      <trkpt lat="42.377122035250068" lon="2.52769198268652">
        <ele>774.48000000000002</ele>
        <time>2025-05-15T10:32:54Z</time>
      </trkpt>
      <trkpt lat="42.377014998346567" lon="2.52773498184979">
        <ele>774.48000000000002</ele>
        <time>2025-05-15T10:32:55Z</time>
      </trkpt>
      <trkpt lat="42.376993959769607" lon="2.527704974636436">
        <ele>774.48000000000002</ele>
        <time>2025-05-15T10:32:56Z</time>
      </trkpt>
      <trkpt lat="42.376947021111846" lon="2.527632974088192">
        <ele>774.96000000000004</ele>
        <time>2025-05-15T10:32:57Z</time>
      </trkpt>
      <trkpt lat="42.376714004203677" lon="2.527285041287541">
        <ele>775.44000000000005</ele>
        <time>2025-05-15T10:33:00Z</time>
      </trkpt>
      <trkpt lat="42.376709980890155" lon="2.5272820238024">
        <ele>774.48000000000002</ele>
        <time>2025-05-15T10:33:01Z</time>
      </trkpt>
      <trkpt lat="42.376606967300177" lon="2.52721999771893">
        <ele>774</ele>
        <time>2025-05-15T10:33:02Z</time>
      </trkpt>
      <trkpt lat="42.376558016985655" lon="2.527251010760665">
        <ele>773.51999999999998</ele>
        <time>2025-05-15T10:33:03Z</time>
      </trkpt>
      <trkpt lat="42.376434970647097" lon="2.527328040450811">
        <ele>773.03999999999996</ele>
        <time>2025-05-15T10:33:04Z</time>
      </trkpt>
      <trkpt lat="42.376392977312207" lon="2.527420995756984">
        <ele>772.55999999999995</ele>
        <time>2025-05-15T10:33:05Z</time>
      </trkpt>
      <trkpt lat="42.376350983977318" lon="2.527515962719917">
        <ele>772.08000000000004</ele>
        <time>2025-05-15T10:33:06Z</time>
      </trkpt>
      <trkpt lat="42.376309996470809" lon="2.52760598435998">
        <ele>771.11000000000001</ele>
        <time>2025-05-15T10:33:07Z</time>
      </trkpt>
      <trkpt lat="42.376242019236088" lon="2.527757026255131">
        <ele>770.63</ele>
        <time>2025-05-15T10:33:08Z</time>
      </trkpt>
      <trkpt lat="42.376127019524574" lon="2.527763983234763">
        <ele>770.63</ele>
        <time>2025-05-15T10:33:09Z</time>
      </trkpt>
      <trkpt lat="42.376025011762977" lon="2.52773598767817">
        <ele>770.63</ele>
        <time>2025-05-15T10:33:10Z</time>
      </trkpt>
      <trkpt lat="42.375892996788025" lon="2.527664992958307">
        <ele>770.63</ele>
        <time>2025-05-15T10:33:11Z</time>
      </trkpt>
      <trkpt lat="42.375788977369666" lon="2.527556028217077">
        <ele>771.11000000000001</ele>
        <time>2025-05-15T10:33:12Z</time>
      </trkpt>
      <trkpt lat="42.375742960721254" lon="2.527430970221758">
        <ele>771.11000000000001</ele>
        <time>2025-05-15T10:33:13Z</time>
      </trkpt>
      <trkpt lat="42.375690992921591" lon="2.527286969125271">
        <ele>771.11000000000001</ele>
        <time>2025-05-15T10:33:14Z</time>
      </trkpt>
      <trkpt lat="42.375639025121927" lon="2.527143973857164">
        <ele>771.11000000000001</ele>
        <time>2025-05-15T10:33:15Z</time>
      </trkpt>
      <trkpt lat="42.375567024573684" lon="2.527020005509257">
        <ele>770.63</ele>
        <time>2025-05-15T10:33:16Z</time>
      </trkpt>
      <trkpt lat="42.375477002933621" lon="2.526900982484222">
        <ele>770.14999999999998</ele>
        <time>2025-05-15T10:33:17Z</time>
      </trkpt>
      <trkpt lat="42.37536502070725" lon="2.526796963065863">
        <ele>770.14999999999998</ele>
        <time>2025-05-15T10:33:18Z</time>
      </trkpt>
      <trkpt lat="42.375239040702581" lon="2.526719011366367">
        <ele>770.63</ele>
        <time>2025-05-15T10:33:19Z</time>
      </trkpt>
      <trkpt lat="42.375124040991068" lon="2.526649022474885">
        <ele>771.11000000000001</ele>
        <time>2025-05-15T10:33:20Z</time>
      </trkpt>
      <trkpt lat="42.375006023794413" lon="2.526591019704938">
        <ele>771.11000000000001</ele>
        <time>2025-05-15T10:33:21Z</time>
      </trkpt>
      <trkpt lat="42.374897981062531" lon="2.526569981127977">
        <ele>770.63</ele>
        <time>2025-05-15T10:33:22Z</time>
      </trkpt>
      <trkpt lat="42.374719027429819" lon="2.526534022763372">
        <ele>770.14999999999998</ele>
        <time>2025-05-15T10:33:23Z</time>
      </trkpt>
      <trkpt lat="42.374375034123659" lon="2.526619015261531">
        <ele>769.66999999999996</ele>
        <time>2025-05-15T10:33:26Z</time>
      </trkpt>
      <trkpt lat="42.374303033575416" lon="2.526663020253182">
        <ele>769.66999999999996</ele>
        <time>2025-05-15T10:33:27Z</time>
      </trkpt>
      <trkpt lat="42.37407898530364" lon="2.526798974722624">
        <ele>770.63</ele>
        <time>2025-05-15T10:33:29Z</time>
      </trkpt>
      <trkpt lat="42.373959040269256" lon="2.526871981099248">
        <ele>770.63</ele>
        <time>2025-05-15T10:33:30Z</time>
      </trkpt>
      <trkpt lat="42.373716970905662" lon="2.526991004124284">
        <ele>771.60000000000002</ele>
        <time>2025-05-15T10:33:32Z</time>
      </trkpt>
      <trkpt lat="42.3731330037117" lon="2.527064010500908">
        <ele>774.96000000000004</ele>
        <time>2025-05-15T10:33:37Z</time>
      </trkpt>
      <trkpt lat="42.373036025092006" lon="2.527058981359005">
        <ele>775.44000000000005</ele>
        <time>2025-05-15T10:33:38Z</time>
      </trkpt>
      <trkpt lat="42.372889006510377" lon="2.527001984417439">
        <ele>775.91999999999996</ele>
        <time>2025-05-15T10:33:39Z</time>
      </trkpt>
      <trkpt lat="42.372867967933416" lon="2.526913974434137">
        <ele>775.91999999999996</ele>
        <time>2025-05-15T10:33:40Z</time>
      </trkpt>
      <trkpt lat="42.372846007347107" lon="2.526821019127965">
        <ele>776.39999999999998</ele>
        <time>2025-05-15T10:33:41Z</time>
      </trkpt>
      <trkpt lat="42.372822035104036" lon="2.526719011366367">
        <ele>776.39999999999998</ele>
        <time>2025-05-15T10:33:42Z</time>
      </trkpt>
      <trkpt lat="42.372818011790514" lon="2.526577021926642">
        <ele>776.88</ele>
        <time>2025-05-15T10:33:43Z</time>
      </trkpt>
      <trkpt lat="42.372747017070651" lon="2.525990959256887">
        <ele>778.32000000000005</ele>
        <time>2025-05-15T10:33:47Z</time>
      </trkpt>
      <trkpt lat="42.37270200625062" lon="2.525740005075932">
        <ele>777.84000000000003</ele>
        <time>2025-05-15T10:33:48Z</time>
      </trkpt>
      <trkpt lat="42.372653977945447" lon="2.525657024234533">
        <ele>778.32000000000005</ele>
        <time>2025-05-15T10:33:49Z</time>
      </trkpt>
      <trkpt lat="42.372572002932429" lon="2.525514028966427">
        <ele>778.80999999999995</ele>
        <time>2025-05-15T10:33:50Z</time>
      </trkpt>
      <trkpt lat="42.372489022091031" lon="2.525369022041559">
        <ele>778.80999999999995</ele>
        <time>2025-05-15T10:33:51Z</time>
      </trkpt>
      <trkpt lat="42.372395982965827" lon="2.525208005681634">
        <ele>778.80999999999995</ele>
        <time>2025-05-15T10:33:52Z</time>
      </trkpt>
      <trkpt lat="42.372303027659655" lon="2.525045983493328">
        <ele>778.80999999999995</ele>
        <time>2025-05-15T10:33:53Z</time>
      </trkpt>
      <trkpt lat="42.372207976877689" lon="2.524881027638912">
        <ele>779.28999999999996</ele>
        <time>2025-05-15T10:33:54Z</time>
      </trkpt>
      <trkpt lat="42.372134970501065" lon="2.524707019329071">
        <ele>779.28999999999996</ele>
        <time>2025-05-15T10:33:55Z</time>
      </trkpt>
      <trkpt lat="42.371992981061339" lon="2.524365037679672">
        <ele>779.28999999999996</ele>
        <time>2025-05-15T10:33:57Z</time>
      </trkpt>
      <trkpt lat="42.371886027976871" lon="2.524108970537782">
        <ele>779.28999999999996</ele>
        <time>2025-05-15T10:33:58Z</time>
      </trkpt>
      <trkpt lat="42.371413959190249" lon="2.523593986406922">
        <ele>779.76999999999998</ele>
        <time>2025-05-15T10:34:02Z</time>
      </trkpt>
      <trkpt lat="42.371228970587254" lon="2.523471023887396">
        <ele>779.76999999999998</ele>
        <time>2025-05-15T10:34:03Z</time>
      </trkpt>
      <trkpt lat="42.371082035824656" lon="2.52337496727705">
        <ele>780.25</ele>
        <time>2025-05-15T10:34:04Z</time>
      </trkpt>
      <trkpt lat="42.370925964787602" lon="2.523272037506104">
        <ele>780.25</ele>
        <time>2025-05-15T10:34:05Z</time>
      </trkpt>
      <trkpt lat="42.370770983397961" lon="2.523169023916125">
        <ele>780.25</ele>
        <time>2025-05-15T10:34:06Z</time>
      </trkpt>
      <trkpt lat="42.370491027832031" lon="2.522984035313129">
        <ele>780.73000000000002</ele>
        <time>2025-05-15T10:34:08Z</time>
      </trkpt>
      <trkpt lat="42.370365969836712" lon="2.52290197648108">
        <ele>780.73000000000002</ele>
        <time>2025-05-15T10:34:09Z</time>
      </trkpt>
      <trkpt lat="42.370277037844062" lon="2.522842967882752">
        <ele>781.21000000000004</ele>
        <time>2025-05-15T10:34:10Z</time>
      </trkpt>
      <trkpt lat="42.370225992053747" lon="2.522782031446695">
        <ele>781.21000000000004</ele>
        <time>2025-05-15T10:34:11Z</time>
      </trkpt>
      <trkpt lat="42.370154997333884" lon="2.522697960957885">
        <ele>781.21000000000004</ele>
        <time>2025-05-15T10:34:12Z</time>
      </trkpt>
      <trkpt lat="42.370041003450751" lon="2.522564018145204">
        <ele>781.69000000000005</ele>
        <time>2025-05-15T10:34:13Z</time>
      </trkpt>
      <trkpt lat="42.370020970702171" lon="2.522496962919831">
        <ele>782.16999999999996</ele>
        <time>2025-05-15T10:34:14Z</time>
      </trkpt>
      <trkpt lat="42.369980989024043" lon="2.522361008450389">
        <ele>782.16999999999996</ele>
        <time>2025-05-15T10:34:15Z</time>
      </trkpt>
      <trkpt lat="42.369933966547251" lon="2.522198986262083">
        <ele>783.13</ele>
        <time>2025-05-15T10:34:16Z</time>
      </trkpt>
      <trkpt lat="42.369933966547251" lon="2.522049034014344">
        <ele>783.61000000000001</ele>
        <time>2025-05-15T10:34:17Z</time>
      </trkpt>
      <trkpt lat="42.369969002902508" lon="2.521883994340897">
        <ele>783.61000000000001</ele>
        <time>2025-05-15T10:34:18Z</time>
      </trkpt>
      <trkpt lat="42.370049972087145" lon="2.521503958851099">
        <ele>783.61000000000001</ele>
        <time>2025-05-15T10:34:20Z</time>
      </trkpt>
      <trkpt lat="42.370168995112181" lon="2.520952010527253">
        <ele>786.5</ele>
        <time>2025-05-15T10:34:23Z</time>
      </trkpt>
      <trkpt lat="42.370174024254084" lon="2.520804991945624">
        <ele>786.98000000000002</ele>
        <time>2025-05-15T10:34:24Z</time>
      </trkpt>
      <trkpt lat="42.370148040354252" lon="2.520740032196045">
        <ele>786.98000000000002</ele>
        <time>2025-05-15T10:34:25Z</time>
      </trkpt>
      <trkpt lat="42.370078973472118" lon="2.520716981962323">
        <ele>787.94000000000005</ele>
        <time>2025-05-15T10:34:26Z</time>
      </trkpt>
      <trkpt lat="42.37001895904541" lon="2.520697033032775">
        <ele>788.41999999999996</ele>
        <time>2025-05-15T10:34:27Z</time>
      </trkpt>
      <trkpt lat="42.369933966547251" lon="2.52068798057735">
        <ele>789.38</ele>
        <time>2025-05-15T10:34:28Z</time>
      </trkpt>
      <trkpt lat="42.369832964614034" lon="2.520677000284195">
        <ele>789.86000000000001</ele>
        <time>2025-05-15T10:34:29Z</time>
      </trkpt>
      <trkpt lat="42.369720982387662" lon="2.52066501416266">
        <ele>790.34000000000003</ele>
        <time>2025-05-15T10:34:30Z</time>
      </trkpt>
      <trkpt lat="42.36958502791822" lon="2.520650010555983">
        <ele>790.34000000000003</ele>
        <time>2025-05-15T10:34:31Z</time>
      </trkpt>
      <trkpt lat="42.369443038478494" lon="2.520635006949306">
        <ele>790.34000000000003</ele>
        <time>2025-05-15T10:34:32Z</time>
      </trkpt>
      <trkpt lat="42.369299037382007" lon="2.520618997514248">
        <ele>789.86000000000001</ele>
        <time>2025-05-15T10:34:33Z</time>
      </trkpt>
      <trkpt lat="42.369165010750294" lon="2.520603993907571">
        <ele>789.38</ele>
        <time>2025-05-15T10:34:34Z</time>
      </trkpt>
      <trkpt lat="42.369031989946961" lon="2.520589996129274">
        <ele>789.38</ele>
        <time>2025-05-15T10:34:35Z</time>
      </trkpt>
      <trkpt lat="42.368991002440453" lon="2.520611034706235">
        <ele>789.38</ele>
        <time>2025-05-15T10:34:36Z</time>
      </trkpt>
      <trkpt lat="42.368903998285532" lon="2.520654033869505">
        <ele>789.38</ele>
        <time>2025-05-15T10:34:37Z</time>
      </trkpt>
      <trkpt lat="42.368819005787373" lon="2.520696027204394">
        <ele>788.89999999999998</ele>
        <time>2025-05-15T10:34:38Z</time>
      </trkpt>
      <trkpt lat="42.368744993582368" lon="2.520732991397381">
        <ele>788.41999999999996</ele>
        <time>2025-05-15T10:34:39Z</time>
      </trkpt>
      <trkpt lat="42.368682967498899" lon="2.520764004439116">
        <ele>787.46000000000004</ele>
        <time>2025-05-15T10:34:40Z</time>
      </trkpt>
      <trkpt lat="42.3686190135777" lon="2.520756963640451">
        <ele>786.98000000000002</ele>
        <time>2025-05-15T10:34:41Z</time>
      </trkpt>
      <trkpt lat="42.368550030514598" lon="2.520690998062491">
        <ele>786.01999999999998</ele>
        <time>2025-05-15T10:34:42Z</time>
      </trkpt>
      <trkpt lat="42.368468977510929" lon="2.520612040534616">
        <ele>785.52999999999997</ele>
        <time>2025-05-15T10:34:43Z</time>
      </trkpt>
      <trkpt lat="42.368377028033137" lon="2.520524030551314">
        <ele>785.04999999999995</ele>
        <time>2025-05-15T10:34:44Z</time>
      </trkpt>
      <trkpt lat="42.36827502027154" lon="2.520425040274859">
        <ele>784.09000000000003</ele>
        <time>2025-05-15T10:34:45Z</time>
      </trkpt>
      <trkpt lat="42.368187010288239" lon="2.520340969786048">
        <ele>783.61000000000001</ele>
        <time>2025-05-15T10:34:46Z</time>
      </trkpt>
      <trkpt lat="42.368066981434822" lon="2.520224964246154">
        <ele>783.61000000000001</ele>
        <time>2025-05-15T10:34:47Z</time>
      </trkpt>
      <trkpt lat="42.368005961179733" lon="2.520260000601411">
        <ele>782.64999999999998</ele>
        <time>2025-05-15T10:34:48Z</time>
      </trkpt>
      <trkpt lat="42.367917029187083" lon="2.520310962572694">
        <ele>781.69000000000005</ele>
        <time>2025-05-15T10:34:49Z</time>
      </trkpt>
      <trkpt lat="42.367786020040512" lon="2.520281039178371">
        <ele>780.73000000000002</ele>
        <time>2025-05-15T10:34:50Z</time>
      </trkpt>
      <trkpt lat="42.367658028379083" lon="2.520251031965017">
        <ele>779.76999999999998</ele>
        <time>2025-05-15T10:34:51Z</time>
      </trkpt>
      <trkpt lat="42.367401961237192" lon="2.520204009488225">
        <ele>777.84000000000003</ele>
        <time>2025-05-15T10:34:53Z</time>
      </trkpt>
      <trkpt lat="42.367320992052555" lon="2.520164027810097">
        <ele>776.88</ele>
        <time>2025-05-15T10:34:54Z</time>
      </trkpt>
      <trkpt lat="42.367177996784449" lon="2.520075011998415">
        <ele>776.39999999999998</ele>
        <time>2025-05-15T10:34:55Z</time>
      </trkpt>
      <trkpt lat="42.367125023156404" lon="2.519946014508605">
        <ele>775.91999999999996</ele>
        <time>2025-05-15T10:34:56Z</time>
      </trkpt>
      <trkpt lat="42.367064002901316" lon="2.519797990098596">
        <ele>774.96000000000004</ele>
        <time>2025-05-15T10:34:57Z</time>
      </trkpt>
      <trkpt lat="42.366874990984797" lon="2.519352994859219">
        <ele>773.51999999999998</ele>
        <time>2025-05-15T10:35:00Z</time>
      </trkpt>
      <trkpt lat="42.366782035678625" lon="2.519244030117989">
        <ele>773.03999999999996</ele>
        <time>2025-05-15T10:35:01Z</time>
      </trkpt>
      <trkpt lat="42.366663012653589" lon="2.519185021519661">
        <ele>772.55999999999995</ele>
        <time>2025-05-15T10:35:02Z</time>
      </trkpt>
      <trkpt lat="42.366541977971792" lon="2.519145039841533">
        <ele>773.03999999999996</ele>
        <time>2025-05-15T10:35:03Z</time>
      </trkpt>
      <trkpt lat="42.366410968825221" lon="2.519101034849882">
        <ele>772.55999999999995</ele>
        <time>2025-05-15T10:35:04Z</time>
      </trkpt>
      <trkpt lat="42.366287000477314" lon="2.519087959080935">
        <ele>772.08000000000004</ele>
        <time>2025-05-15T10:35:05Z</time>
      </trkpt>
      <trkpt lat="42.366156997159123" lon="2.519087959080935">
        <ele>771.60000000000002</ele>
        <time>2025-05-15T10:35:06Z</time>
      </trkpt>
      <trkpt lat="42.366048032417893" lon="2.519137999042869">
        <ele>770.63</ele>
        <time>2025-05-15T10:35:07Z</time>
      </trkpt>
      <trkpt lat="42.365877963602543" lon="2.519217040389776">
        <ele>769.66999999999996</ele>
        <time>2025-05-15T10:35:08Z</time>
      </trkpt>
      <trkpt lat="42.365815015509725" lon="2.519271019846201">
        <ele>769.19000000000005</ele>
        <time>2025-05-15T10:35:09Z</time>
      </trkpt>
      <trkpt lat="42.365712001919746" lon="2.519361041486263">
        <ele>768.23000000000002</ele>
        <time>2025-05-15T10:35:10Z</time>
      </trkpt>
      <trkpt lat="42.365617034956813" lon="2.519443016499281">
        <ele>767.26999999999998</ele>
        <time>2025-05-15T10:35:11Z</time>
      </trkpt>
      <trkpt lat="42.365533970296383" lon="2.519516022875905">
        <ele>766.30999999999995</ele>
        <time>2025-05-15T10:35:12Z</time>
      </trkpt>
      <trkpt lat="42.365385023877025" lon="2.519646026194096">
        <ele>765.35000000000002</ele>
        <time>2025-05-15T10:35:13Z</time>
      </trkpt>
      <trkpt lat="42.365385023877025" lon="2.519646026194096">
        <ele>765.35000000000002</ele>
        <time>2025-05-15T10:35:14Z</time>
      </trkpt>
      <trkpt lat="42.365258960053325" lon="2.519632028415799">
        <ele>765.35000000000002</ele>
        <time>2025-05-15T10:35:15Z</time>
      </trkpt>
      <trkpt lat="42.365157958120108" lon="2.519522979855537">
        <ele>765.35000000000002</ele>
        <time>2025-05-15T10:35:16Z</time>
      </trkpt>
      <trkpt lat="42.365100961178541" lon="2.519423989579082">
        <ele>765.35000000000002</ele>
        <time>2025-05-15T10:35:17Z</time>
      </trkpt>
      <trkpt lat="42.365042036399245" lon="2.519318964332342">
        <ele>764.87</ele>
        <time>2025-05-15T10:35:18Z</time>
      </trkpt>
      <trkpt lat="42.364970035851002" lon="2.519258027896285">
        <ele>763.89999999999998</ele>
        <time>2025-05-15T10:35:19Z</time>
      </trkpt>
      <trkpt lat="42.364875990897417" lon="2.519213017076254">
        <ele>763.41999999999996</ele>
        <time>2025-05-15T10:35:20Z</time>
      </trkpt>
      <trkpt lat="42.364784963428974" lon="2.519170017912984">
        <ele>762.94000000000005</ele>
        <time>2025-05-15T10:35:21Z</time>
      </trkpt>
      <trkpt lat="42.364685973152518" lon="2.519124001264572">
        <ele>761.98000000000002</ele>
        <time>2025-05-15T10:35:22Z</time>
      </trkpt>
      <trkpt lat="42.364601986482739" lon="2.51905401237309">
        <ele>761.5</ele>
        <time>2025-05-15T10:35:23Z</time>
      </trkpt>
      <trkpt lat="42.364521017298102" lon="2.51896901987493">
        <ele>761.01999999999998</ele>
        <time>2025-05-15T10:35:24Z</time>
      </trkpt>
      <trkpt lat="42.364433007314801" lon="2.518877992406488">
        <ele>761.01999999999998</ele>
        <time>2025-05-15T10:35:25Z</time>
      </trkpt>
      <trkpt lat="42.364339968189597" lon="2.518781013786793">
        <ele>760.53999999999996</ele>
        <time>2025-05-15T10:35:26Z</time>
      </trkpt>
      <trkpt lat="42.364253969863057" lon="2.51869099214673">
        <ele>760.05999999999995</ele>
        <time>2025-05-15T10:35:27Z</time>
      </trkpt>
      <trkpt lat="42.364139975979924" lon="2.518572974950075">
        <ele>760.53999999999996</ele>
        <time>2025-05-15T10:35:28Z</time>
      </trkpt>
      <trkpt lat="42.364070992916822" lon="2.518572974950075">
        <ele>761.01999999999998</ele>
        <time>2025-05-15T10:35:29Z</time>
      </trkpt>
      <trkpt lat="42.363924980163574" lon="2.518572974950075">
        <ele>761.5</ele>
        <time>2025-05-15T10:35:30Z</time>
      </trkpt>
      <trkpt lat="42.36389203928411" lon="2.518586972728372">
        <ele>761.5</ele>
        <time>2025-05-15T10:35:31Z</time>
      </trkpt>
      <trkpt lat="42.363792965188622" lon="2.518628966063261">
        <ele>761.98000000000002</ele>
        <time>2025-05-15T10:35:32Z</time>
      </trkpt>
      <trkpt lat="42.363681988790631" lon="2.518660984933376">
        <ele>761.98000000000002</ele>
        <time>2025-05-15T10:35:33Z</time>
      </trkpt>
      <trkpt lat="42.363558020442724" lon="2.51869099214673">
        <ele>761.98000000000002</ele>
        <time>2025-05-15T10:35:34Z</time>
      </trkpt>
      <trkpt lat="42.363431034609675" lon="2.518723011016846">
        <ele>761.5</ele>
        <time>2025-05-15T10:35:35Z</time>
      </trkpt>
      <trkpt lat="42.3630550224334" lon="2.518860977143049">
        <ele>761.01999999999998</ele>
        <time>2025-05-15T10:35:38Z</time>
      </trkpt>
      <trkpt lat="42.362896017730236" lon="2.518872963264585">
        <ele>761.01999999999998</ele>
        <time>2025-05-15T10:35:39Z</time>
      </trkpt>
      <trkpt lat="42.362512964755297" lon="2.519032973796129">
        <ele>760.53999999999996</ele>
        <time>2025-05-15T10:35:44Z</time>
      </trkpt>
      <trkpt lat="42.362462002784014" lon="2.51905401237309">
        <ele>760.53999999999996</ele>
        <time>2025-05-15T10:35:45Z</time>
      </trkpt>
      <trkpt lat="42.362420009449124" lon="2.519071027636528">
        <ele>761.01999999999998</ele>
        <time>2025-05-15T10:35:46Z</time>
      </trkpt>
      <trkpt lat="42.362382039427757" lon="2.519087037071586">
        <ele>761.01999999999998</ele>
        <time>2025-05-15T10:35:47Z</time>
      </trkpt>
      <trkpt lat="42.362381033599377" lon="2.519087959080935">
        <ele>761.01999999999998</ele>
        <time>2025-05-15T10:35:48Z</time>
      </trkpt>
      <trkpt lat="42.36230299808085" lon="2.519093994051218">
        <ele>761.01999999999998</ele>
        <time>2025-05-15T10:35:49Z</time>
      </trkpt>
      <trkpt lat="42.36225999891758" lon="2.51909801736474">
        <ele>761.01999999999998</ele>
        <time>2025-05-15T10:35:50Z</time>
      </trkpt>
      <trkpt lat="42.362165031954646" lon="2.519105980172753">
        <ele>761.5</ele>
        <time>2025-05-15T10:35:52Z</time>
      </trkpt>
      <trkpt lat="42.362120021134615" lon="2.519108997657895">
        <ele>761.01999999999998</ele>
        <time>2025-05-15T10:35:53Z</time>
      </trkpt>
      <trkpt lat="42.361970990896225" lon="2.519121989607811">
        <ele>762.94000000000005</ele>
        <time>2025-05-15T10:36:00Z</time>
      </trkpt>
      <trkpt lat="42.361970990896225" lon="2.519121989607811">
        <ele>764.87</ele>
        <time>2025-05-15T10:36:16Z</time>
      </trkpt>
      <trkpt lat="42.361970990896225" lon="2.519121989607811">
        <ele>765.35000000000002</ele>
        <time>2025-05-15T10:37:09Z</time>
      </trkpt>
      <trkpt lat="42.361970990896225" lon="2.519121989607811">
        <ele>767.26999999999998</ele>
        <time>2025-05-15T10:37:57Z</time>
      </trkpt>
      <trkpt lat="42.361923968419433" lon="2.519126012921333">
        <ele>767.26999999999998</ele>
        <time>2025-05-15T10:38:00Z</time>
      </trkpt>
      <trkpt lat="42.361865965649486" lon="2.519130958244205">
        <ele>770.63</ele>
        <time>2025-05-15T10:38:01Z</time>
      </trkpt>
      <trkpt lat="42.361865965649486" lon="2.519130958244205">
        <ele>772.55999999999995</ele>
        <time>2025-05-15T10:38:02Z</time>
      </trkpt>
      <trkpt lat="42.361825983971357" lon="2.519149985164404">
        <ele>774.48000000000002</ele>
        <time>2025-05-15T10:38:03Z</time>
      </trkpt>
      <trkpt lat="42.361778961494565" lon="2.519174041226506">
        <ele>775.44000000000005</ele>
        <time>2025-05-15T10:38:04Z</time>
      </trkpt>
      <trkpt lat="42.361660022288561" lon="2.519285017624497">
        <ele>777.84000000000003</ele>
        <time>2025-05-15T10:38:07Z</time>
      </trkpt>
      <trkpt lat="42.361645018681884" lon="2.519345032051206">
        <ele>778.32000000000005</ele>
        <time>2025-05-15T10:38:08Z</time>
      </trkpt>
      <trkpt lat="42.361634960398078" lon="2.519406974315643">
        <ele>778.80999999999995</ele>
        <time>2025-05-15T10:38:09Z</time>
      </trkpt>
      <trkpt lat="42.361625991761684" lon="2.519467994570732">
        <ele>778.80999999999995</ele>
        <time>2025-05-15T10:38:10Z</time>
      </trkpt>
      <trkpt lat="42.361617023125291" lon="2.519529014825821">
        <ele>778.32000000000005</ele>
        <time>2025-05-15T10:38:11Z</time>
      </trkpt>
      <trkpt lat="42.361606964841485" lon="2.51959296874702">
        <ele>777.84000000000003</ele>
        <time>2025-05-15T10:38:12Z</time>
      </trkpt>
      <trkpt lat="42.361576035618782" lon="2.519733030349016">
        <ele>777.36000000000001</ele>
        <time>2025-05-15T10:38:13Z</time>
      </trkpt>
      <trkpt lat="42.361532030627131" lon="2.519737975671887">
        <ele>776.88</ele>
        <time>2025-05-15T10:38:14Z</time>
      </trkpt>
      <trkpt lat="42.36148601397872" lon="2.51974300481379">
        <ele>776.39999999999998</ele>
        <time>2025-05-15T10:38:15Z</time>
      </trkpt>
      <trkpt lat="42.361439997330308" lon="2.519748033955693">
        <ele>775.44000000000005</ele>
        <time>2025-05-15T10:38:16Z</time>
      </trkpt>
      <trkpt lat="42.361361039802432" lon="2.519704028964043">
        <ele>774.96000000000004</ele>
        <time>2025-05-15T10:38:17Z</time>
      </trkpt>
      <trkpt lat="42.361324997618794" lon="2.519649965688586">
        <ele>774.48000000000002</ele>
        <time>2025-05-15T10:38:18Z</time>
      </trkpt>
      <trkpt lat="42.361289039254189" lon="2.519597997888923">
        <ele>774</ele>
        <time>2025-05-15T10:38:19Z</time>
      </trkpt>
      <trkpt lat="42.361252997070551" lon="2.51954703591764">
        <ele>773.03999999999996</ele>
        <time>2025-05-15T10:38:20Z</time>
      </trkpt>
      <trkpt lat="42.360997013747692" lon="2.519418960437179">
        <ele>771.11000000000001</ele>
        <time>2025-05-15T10:38:28Z</time>
      </trkpt>
      <trkpt lat="42.360954014584422" lon="2.51942197792232">
        <ele>770.63</ele>
        <time>2025-05-15T10:38:29Z</time>
      </trkpt>
      <trkpt lat="42.360903974622488" lon="2.519424995407462">
        <ele>770.63</ele>
        <time>2025-05-15T10:38:30Z</time>
      </trkpt>
      <trkpt lat="42.360856030136347" lon="2.519427007064223">
        <ele>769.66999999999996</ele>
        <time>2025-05-15T10:38:31Z</time>
      </trkpt>
      <trkpt lat="42.360792998224497" lon="2.519431030377746">
        <ele>769.19000000000005</ele>
        <time>2025-05-15T10:38:32Z</time>
      </trkpt>
      <trkpt lat="42.360770031809807" lon="2.519436981528997">
        <ele>768.71000000000004</ele>
        <time>2025-05-15T10:38:33Z</time>
      </trkpt>
      <trkpt lat="42.360730972141027" lon="2.519447039812803">
        <ele>768.23000000000002</ele>
        <time>2025-05-15T10:38:34Z</time>
      </trkpt>
      <trkpt lat="42.360689984634519" lon="2.519458020105958">
        <ele>768.23000000000002</ele>
        <time>2025-05-15T10:38:35Z</time>
      </trkpt>
      <trkpt lat="42.360602980479598" lon="2.519481992349029">
        <ele>767.75</ele>
        <time>2025-05-15T10:38:37Z</time>
      </trkpt>
      <trkpt lat="42.360561992973089" lon="2.519492972642183">
        <ele>767.75</ele>
        <time>2025-05-15T10:38:38Z</time>
      </trkpt>
      <trkpt lat="42.360455961897969" lon="2.519521974027157">
        <ele>767.26999999999998</ele>
        <time>2025-05-15T10:38:41Z</time>
      </trkpt>
      <trkpt lat="42.360430983826518" lon="2.519530020654202">
        <ele>766.78999999999996</ele>
        <time>2025-05-15T10:38:42Z</time>
      </trkpt>
      <trkpt lat="42.360399970784783" lon="2.519541000947356">
        <ele>766.30999999999995</ele>
        <time>2025-05-15T10:38:43Z</time>
      </trkpt>
      <trkpt lat="42.360367029905319" lon="2.51955097541213">
        <ele>765.83000000000004</ele>
        <time>2025-05-15T10:38:44Z</time>
      </trkpt>
      <trkpt lat="42.360329981893301" lon="2.519563967362046">
        <ele>765.83000000000004</ele>
        <time>2025-05-15T10:38:45Z</time>
      </trkpt>
      <trkpt lat="42.360278014093637" lon="2.519580982625485">
        <ele>765.35000000000002</ele>
        <time>2025-05-15T10:38:46Z</time>
      </trkpt>
      <trkpt lat="42.360250018537045" lon="2.519596992060542">
        <ele>765.35000000000002</ele>
        <time>2025-05-15T10:38:47Z</time>
      </trkpt>
      <trkpt lat="42.360212970525026" lon="2.519617024809122">
        <ele>764.87</ele>
        <time>2025-05-15T10:38:48Z</time>
      </trkpt>
      <trkpt lat="42.360179023817182" lon="2.51963596791029">
        <ele>764.87</ele>
        <time>2025-05-15T10:38:49Z</time>
      </trkpt>
      <trkpt lat="42.360148010775447" lon="2.519652983173728">
        <ele>764.87</ele>
        <time>2025-05-15T10:38:50Z</time>
      </trkpt>
      <trkpt lat="42.36011398024857" lon="2.519672010093927">
        <ele>764.38999999999999</ele>
        <time>2025-05-15T10:38:51Z</time>
      </trkpt>
      <trkpt lat="42.360084978863597" lon="2.519689025357366">
        <ele>764.38999999999999</ele>
        <time>2025-05-15T10:38:52Z</time>
      </trkpt>
      <trkpt lat="42.360084978863597" lon="2.519689025357366">
        <ele>763.89999999999998</ele>
        <time>2025-05-15T10:38:53Z</time>
      </trkpt>
      <trkpt lat="42.360021024942398" lon="2.51976597122848">
        <ele>763.89999999999998</ele>
        <time>2025-05-15T10:38:54Z</time>
      </trkpt>
      <trkpt lat="42.359990011900663" lon="2.519804025068879">
        <ele>763.41999999999996</ele>
        <time>2025-05-15T10:38:55Z</time>
      </trkpt>
      <trkpt lat="42.359953969717026" lon="2.51984803006053">
        <ele>763.41999999999996</ele>
        <time>2025-05-15T10:38:56Z</time>
      </trkpt>
      <trkpt lat="42.359891021624207" lon="2.519924975931644">
        <ele>763.41999999999996</ele>
        <time>2025-05-15T10:38:57Z</time>
      </trkpt>
      <trkpt lat="42.359851961955428" lon="2.520003011450172">
        <ele>763.41999999999996</ele>
        <time>2025-05-15T10:38:59Z</time>
      </trkpt>
      <trkpt lat="42.359825978055596" lon="2.520055985078216">
        <ele>763.41999999999996</ele>
        <time>2025-05-15T10:39:00Z</time>
      </trkpt>
      <trkpt lat="42.359796976670623" lon="2.520112982019782">
        <ele>762.94000000000005</ele>
        <time>2025-05-15T10:39:01Z</time>
      </trkpt>
      <trkpt lat="42.35976898111403" lon="2.520168973132968">
        <ele>762.94000000000005</ele>
        <time>2025-05-15T10:39:02Z</time>
      </trkpt>
      <trkpt lat="42.359740985557437" lon="2.520224964246154">
        <ele>762.94000000000005</ele>
        <time>2025-05-15T10:39:03Z</time>
      </trkpt>
      <trkpt lat="42.359710978344083" lon="2.520285984501243">
        <ele>762.46000000000004</ele>
        <time>2025-05-15T10:39:04Z</time>
      </trkpt>
      <trkpt lat="42.359680971130729" lon="2.520345998927951">
        <ele>762.46000000000004</ele>
        <time>2025-05-15T10:39:05Z</time>
      </trkpt>
      <trkpt lat="42.359650963917375" lon="2.520406013354659">
        <ele>761.98000000000002</ele>
        <time>2025-05-15T10:39:06Z</time>
      </trkpt>
      <trkpt lat="42.359620034694672" lon="2.520467033609748">
        <ele>761.5</ele>
        <time>2025-05-15T10:39:07Z</time>
      </trkpt>
      <trkpt lat="42.359591033309698" lon="2.520525958389044">
        <ele>761.01999999999998</ele>
        <time>2025-05-15T10:39:08Z</time>
      </trkpt>
      <trkpt lat="42.359562031924725" lon="2.520583961158991">
        <ele>761.01999999999998</ele>
        <time>2025-05-15T10:39:09Z</time>
      </trkpt>
      <trkpt lat="42.359534036368132" lon="2.520639030262828">
        <ele>760.53999999999996</ele>
        <time>2025-05-15T10:39:10Z</time>
      </trkpt>
      <trkpt lat="42.359506962820888" lon="2.520677000284195">
        <ele>760.53999999999996</ele>
        <time>2025-05-15T10:39:11Z</time>
      </trkpt>
      <trkpt lat="42.35946899279952" lon="2.520724022760987">
        <ele>760.05999999999995</ele>
        <time>2025-05-15T10:39:12Z</time>
      </trkpt>
      <trkpt lat="42.359430016949773" lon="2.520770039409399">
        <ele>759.58000000000004</ele>
        <time>2025-05-15T10:39:13Z</time>
      </trkpt>
      <trkpt lat="42.35938299447298" lon="2.520783031359315">
        <ele>759.10000000000002</ele>
        <time>2025-05-15T10:39:14Z</time>
      </trkpt>
      <trkpt lat="42.359334966167808" lon="2.520783031359315">
        <ele>758.62</ele>
        <time>2025-05-15T10:39:15Z</time>
      </trkpt>
      <trkpt lat="42.359282998368144" lon="2.520754029974341">
        <ele>758.13999999999999</ele>
        <time>2025-05-15T10:39:16Z</time>
      </trkpt>
      <trkpt lat="42.359241005033255" lon="2.520712036639452">
        <ele>758.13999999999999</ele>
        <time>2025-05-15T10:39:17Z</time>
      </trkpt>
      <trkpt lat="42.359202029183507" lon="2.520672976970673">
        <ele>758.13999999999999</ele>
        <time>2025-05-15T10:39:18Z</time>
      </trkpt>
      <trkpt lat="42.359179984778166" lon="2.520638024434447">
        <ele>758.13999999999999</ele>
        <time>2025-05-15T10:39:19Z</time>
      </trkpt>
      <trkpt lat="42.359171016141772" lon="2.520591001957655">
        <ele>757.65999999999997</ele>
        <time>2025-05-15T10:39:20Z</time>
      </trkpt>
      <trkpt lat="42.359161963686347" lon="2.520546996966004">
        <ele>757.17999999999995</ele>
        <time>2025-05-15T10:39:21Z</time>
      </trkpt>
      <trkpt lat="42.359176967293024" lon="2.52049301750958">
        <ele>757.17999999999995</ele>
        <time>2025-05-15T10:39:22Z</time>
      </trkpt>
      <trkpt lat="42.359244022518396" lon="2.520246002823114">
        <ele>756.69000000000005</ele>
        <time>2025-05-15T10:39:26Z</time>
      </trkpt>
      <trkpt lat="42.359347036108375" lon="2.519866973161697">
        <ele>757.65999999999997</ele>
        <time>2025-05-15T10:39:37Z</time>
      </trkpt>
      <trkpt lat="42.359352987259626" lon="2.519806958734989">
        <ele>757.65999999999997</ele>
        <time>2025-05-15T10:39:44Z</time>
      </trkpt>
      <trkpt lat="42.359335971996188" lon="2.519520968198776">
        <ele>759.10000000000002</ele>
        <time>2025-05-15T10:39:49Z</time>
      </trkpt>
      <trkpt lat="42.359328009188175" lon="2.51937897875905">
        <ele>759.58000000000004</ele>
        <time>2025-05-15T10:39:51Z</time>
      </trkpt>
      <trkpt lat="42.359323985874653" lon="2.519306978210807">
        <ele>760.05999999999995</ele>
        <time>2025-05-15T10:39:52Z</time>
      </trkpt>
      <trkpt lat="42.359319962561131" lon="2.519239000976086">
        <ele>760.05999999999995</ele>
        <time>2025-05-15T10:39:53Z</time>
      </trkpt>
      <trkpt lat="42.359304958954453" lon="2.518989974632859">
        <ele>760.53999999999996</ele>
        <time>2025-05-15T10:39:57Z</time>
      </trkpt>
      <trkpt lat="42.359302025288343" lon="2.518937001004815">
        <ele>761.01999999999998</ele>
        <time>2025-05-15T10:39:58Z</time>
      </trkpt>
      <trkpt lat="42.359299007803202" lon="2.518884027376771">
        <ele>761.5</ele>
        <time>2025-05-15T10:39:59Z</time>
      </trkpt>
      <trkpt lat="42.35929599031806" lon="2.518827030435205">
        <ele>761.5</ele>
        <time>2025-05-15T10:40:00Z</time>
      </trkpt>
      <trkpt lat="42.359266988933086" lon="2.518728040158749">
        <ele>761.5</ele>
        <time>2025-05-15T10:40:01Z</time>
      </trkpt>
      <trkpt lat="42.359213009476662" lon="2.51869099214673">
        <ele>761.5</ele>
        <time>2025-05-15T10:40:02Z</time>
      </trkpt>
      <trkpt lat="42.359156012535095" lon="2.518652016296983">
        <ele>761.5</ele>
        <time>2025-05-15T10:40:03Z</time>
      </trkpt>
      <trkpt lat="42.359099015593529" lon="2.518613040447235">
        <ele>761.5</ele>
        <time>2025-05-15T10:40:04Z</time>
      </trkpt>
      <trkpt lat="42.359041012823582" lon="2.518572974950075">
        <ele>761.98000000000002</ele>
        <time>2025-05-15T10:40:05Z</time>
      </trkpt>
      <trkpt lat="42.358793998137116" lon="2.518382035195828">
        <ele>762.94000000000005</ele>
        <time>2025-05-15T10:40:10Z</time>
      </trkpt>
      <trkpt lat="42.358749993145466" lon="2.51834599301219">
        <ele>762.94000000000005</ele>
        <time>2025-05-15T10:40:11Z</time>
      </trkpt>
      <trkpt lat="42.358700037002563" lon="2.518305005505681">
        <ele>763.41999999999996</ele>
        <time>2025-05-15T10:40:12Z</time>
      </trkpt>
      <trkpt lat="42.358647985383868" lon="2.518262006342411">
        <ele>763.41999999999996</ele>
        <time>2025-05-15T10:40:13Z</time>
      </trkpt>
      <trkpt lat="42.358583025634289" lon="2.518208026885986">
        <ele>763.41999999999996</ele>
        <time>2025-05-15T10:40:14Z</time>
      </trkpt>
      <trkpt lat="42.358529968187213" lon="2.518080035224557">
        <ele>763.89999999999998</ele>
        <time>2025-05-15T10:40:16Z</time>
      </trkpt>
      <trkpt lat="42.358464002609253" lon="2.517919018864632">
        <ele>763.41999999999996</ele>
        <time>2025-05-15T10:40:18Z</time>
      </trkpt>
      <trkpt lat="42.358433995395899" lon="2.517846012488008">
        <ele>763.41999999999996</ele>
        <time>2025-05-15T10:40:19Z</time>
      </trkpt>
      <trkpt lat="42.358388984575868" lon="2.517735958099365">
        <ele>763.41999999999996</ele>
        <time>2025-05-15T10:40:20Z</time>
      </trkpt>
      <trkpt lat="42.358226962387562" lon="2.517493972554803">
        <ele>763.41999999999996</ele>
        <time>2025-05-15T10:40:23Z</time>
      </trkpt>
      <trkpt lat="42.358045997098088" lon="2.517403028905392">
        <ele>762.46000000000004</ele>
        <time>2025-05-15T10:40:26Z</time>
      </trkpt>
      <trkpt lat="42.357982965186238" lon="2.517390036955476">
        <ele>762.94000000000005</ele>
        <time>2025-05-15T10:40:27Z</time>
      </trkpt>
      <trkpt lat="42.357937032356858" lon="2.517387019470334">
        <ele>763.41999999999996</ele>
        <time>2025-05-15T10:40:28Z</time>
      </trkpt>
      <trkpt lat="42.357835024595261" lon="2.51737997867167">
        <ele>765.83000000000004</ele>
        <time>2025-05-15T10:40:30Z</time>
      </trkpt>
      <trkpt lat="42.357777021825314" lon="2.517376039177179">
        <ele>766.30999999999995</ele>
        <time>2025-05-15T10:40:31Z</time>
      </trkpt>
      <trkpt lat="42.357716001570225" lon="2.517372015863657">
        <ele>767.26999999999998</ele>
        <time>2025-05-15T10:40:32Z</time>
      </trkpt>
      <trkpt lat="42.357659004628658" lon="2.517367992550135">
        <ele>767.26999999999998</ele>
        <time>2025-05-15T10:40:33Z</time>
      </trkpt>
      <trkpt lat="42.357607036828995" lon="2.517364975064993">
        <ele>767.75</ele>
        <time>2025-05-15T10:40:34Z</time>
      </trkpt>
      <trkpt lat="42.357554985210299" lon="2.517361035570502">
        <ele>768.23000000000002</ele>
        <time>2025-05-15T10:40:35Z</time>
      </trkpt>
      <trkpt lat="42.357509974390268" lon="2.517358018085361">
        <ele>768.23000000000002</ele>
        <time>2025-05-15T10:40:36Z</time>
      </trkpt>
      <trkpt lat="42.357465969398618" lon="2.517355000600219">
        <ele>768.71000000000004</ele>
        <time>2025-05-15T10:40:37Z</time>
      </trkpt>
      <trkpt lat="42.35742699354887" lon="2.517352988943458">
        <ele>768.71000000000004</ele>
        <time>2025-05-15T10:40:38Z</time>
      </trkpt>
      <trkpt lat="42.357362033799291" lon="2.517289035022259">
        <ele>769.19000000000005</ele>
        <time>2025-05-15T10:40:39Z</time>
      </trkpt>
      <trkpt lat="42.357347030192614" lon="2.517240000888705">
        <ele>769.19000000000005</ele>
        <time>2025-05-15T10:40:40Z</time>
      </trkpt>
      <trkpt lat="42.357332026585937" lon="2.517191972583532">
        <ele>769.19000000000005</ele>
        <time>2025-05-15T10:40:41Z</time>
      </trkpt>
      <trkpt lat="42.35729699023068" lon="2.517082002013922">
        <ele>769.66999999999996</ele>
        <time>2025-05-15T10:40:43Z</time>
      </trkpt>
      <trkpt lat="42.357265977188945" lon="2.517005978152156">
        <ele>770.63</ele>
        <time>2025-05-15T10:40:44Z</time>
      </trkpt>
      <trkpt lat="42.357223983854055" lon="2.517005978152156">
        <ele>771.11000000000001</ele>
        <time>2025-05-15T10:40:45Z</time>
      </trkpt>
      <trkpt lat="42.357177967205644" lon="2.517005978152156">
        <ele>771.60000000000002</ele>
        <time>2025-05-15T10:40:46Z</time>
      </trkpt>
      <trkpt lat="42.357128011062741" lon="2.517005978152156">
        <ele>772.08000000000004</ele>
        <time>2025-05-15T10:40:47Z</time>
      </trkpt>
      <trkpt lat="42.357079982757568" lon="2.517005978152156">
        <ele>772.08000000000004</ele>
        <time>2025-05-15T10:40:48Z</time>
      </trkpt>
      <trkpt lat="42.356989961117506" lon="2.517000027000904">
        <ele>772.55999999999995</ele>
        <time>2025-05-15T10:40:49Z</time>
      </trkpt>
      <trkpt lat="42.356948973610997" lon="2.516950992867351">
        <ele>773.03999999999996</ele>
        <time>2025-05-15T10:40:50Z</time>
      </trkpt>
      <trkpt lat="42.356905974447727" lon="2.516900030896068">
        <ele>774</ele>
        <time>2025-05-15T10:40:51Z</time>
      </trkpt>
      <trkpt lat="42.356689972802997" lon="2.516640024259687">
        <ele>776.88</ele>
        <time>2025-05-15T10:40:56Z</time>
      </trkpt>
      <trkpt lat="42.35667304135859" lon="2.516619991511107">
        <ele>776.88</ele>
        <time>2025-05-15T10:40:57Z</time>
      </trkpt>
      <trkpt lat="42.356570027768612" lon="2.516551008448005">
        <ele>777.36000000000001</ele>
        <time>2025-05-15T10:40:59Z</time>
      </trkpt>
      <trkpt lat="42.356453016400337" lon="2.516473978757858">
        <ele>778.32000000000005</ele>
        <time>2025-05-15T10:41:02Z</time>
      </trkpt>
      <trkpt lat="42.356414962559938" lon="2.516449000686407">
        <ele>778.32000000000005</ele>
        <time>2025-05-15T10:41:03Z</time>
      </trkpt>
      <trkpt lat="42.356368023902178" lon="2.516400972381234">
        <ele>778.32000000000005</ele>
        <time>2025-05-15T10:41:04Z</time>
      </trkpt>
      <trkpt lat="42.356342040002346" lon="2.516374988481402">
        <ele>778.32000000000005</ele>
        <time>2025-05-15T10:41:05Z</time>
      </trkpt>
      <trkpt lat="42.356323013082147" lon="2.516355961561203">
        <ele>777.84000000000003</ele>
        <time>2025-05-15T10:41:06Z</time>
      </trkpt>
      <trkpt lat="42.356323013082147" lon="2.516355961561203">
        <ele>777.36000000000001</ele>
        <time>2025-05-15T10:41:15Z</time>
      </trkpt>
      <trkpt lat="42.356323013082147" lon="2.516355961561203">
        <ele>777.36000000000001</ele>
        <time>2025-05-15T10:41:53Z</time>
      </trkpt>
      <trkpt lat="42.356323013082147" lon="2.516355961561203">
        <ele>776.88</ele>
        <time>2025-05-15T10:42:36Z</time>
      </trkpt>
      <trkpt lat="42.356323013082147" lon="2.516355961561203">
        <ele>776.88</ele>
        <time>2025-05-15T10:43:04Z</time>
      </trkpt>
      <trkpt lat="42.356323013082147" lon="2.516355961561203">
        <ele>776.88</ele>
        <time>2025-05-15T10:43:25Z</time>
      </trkpt>
      <trkpt lat="42.356323013082147" lon="2.516355961561203">
        <ele>776.39999999999998</ele>
        <time>2025-05-15T10:43:48Z</time>
      </trkpt>
      <trkpt lat="42.356323013082147" lon="2.516355961561203">
        <ele>777.84000000000003</ele>
        <time>2025-05-15T10:43:57Z</time>
      </trkpt>
      <trkpt lat="42.356414962559938" lon="2.516449000686407">
        <ele>777.36000000000001</ele>
        <time>2025-05-15T10:44:00Z</time>
      </trkpt>
      <trkpt lat="42.35667304135859" lon="2.516619991511107">
        <ele>777.36000000000001</ele>
        <time>2025-05-15T10:44:05Z</time>
      </trkpt>
      <trkpt lat="42.35676096752286" lon="2.516727028414607">
        <ele>776.88</ele>
        <time>2025-05-15T10:44:07Z</time>
      </trkpt>
      <trkpt lat="42.357015023007989" lon="2.517005978152156">
        <ele>776.39999999999998</ele>
        <time>2025-05-15T10:44:13Z</time>
      </trkpt>
      <trkpt lat="42.357056010514498" lon="2.517005978152156">
        <ele>776.88</ele>
        <time>2025-05-15T10:44:14Z</time>
      </trkpt>
      <trkpt lat="42.357095992192626" lon="2.517005978152156">
        <ele>777.36000000000001</ele>
        <time>2025-05-15T10:44:15Z</time>
      </trkpt>
      <trkpt lat="42.357305958867073" lon="2.517109997570515">
        <ele>777.36000000000001</ele>
        <time>2025-05-15T10:44:20Z</time>
      </trkpt>
      <trkpt lat="42.35732096247375" lon="2.517158025875688">
        <ele>777.36000000000001</ele>
        <time>2025-05-15T10:44:21Z</time>
      </trkpt>
      <trkpt lat="42.357336971908808" lon="2.517209993675351">
        <ele>777.36000000000001</ele>
        <time>2025-05-15T10:44:22Z</time>
      </trkpt>
      <trkpt lat="42.357351975515485" lon="2.517258021980524">
        <ele>776.88</ele>
        <time>2025-05-15T10:44:23Z</time>
      </trkpt>
      <trkpt lat="42.357366979122162" lon="2.517305966466665">
        <ele>776.88</ele>
        <time>2025-05-15T10:44:24Z</time>
      </trkpt>
      <trkpt lat="42.357400003820658" lon="2.517350977286696">
        <ele>776.39999999999998</ele>
        <time>2025-05-15T10:44:25Z</time>
      </trkpt>
      <trkpt lat="42.357452977448702" lon="2.517353994771838">
        <ele>776.39999999999998</ele>
        <time>2025-05-15T10:44:26Z</time>
      </trkpt>
      <trkpt lat="42.357510980218649" lon="2.517358018085361">
        <ele>776.39999999999998</ele>
        <time>2025-05-15T10:44:27Z</time>
      </trkpt>
      <trkpt lat="42.357570994645357" lon="2.517362041398883">
        <ele>776.39999999999998</ele>
        <time>2025-05-15T10:44:28Z</time>
      </trkpt>
      <trkpt lat="42.357682976871729" lon="2.517370004206896">
        <ele>776.39999999999998</ele>
        <time>2025-05-15T10:44:30Z</time>
      </trkpt>
      <trkpt lat="42.357736034318805" lon="2.517373021692038">
        <ele>775.91999999999996</ele>
        <time>2025-05-15T10:44:31Z</time>
      </trkpt>
      <trkpt lat="42.358024958521128" lon="2.517392970621586">
        <ele>775.44000000000005</ele>
        <time>2025-05-15T10:44:36Z</time>
      </trkpt>
      <trkpt lat="42.358096959069371" lon="2.517429012805224">
        <ele>775.44000000000005</ele>
        <time>2025-05-15T10:44:38Z</time>
      </trkpt>
      <trkpt lat="42.358379010111094" lon="2.517720032483339">
        <ele>774.48000000000002</ele>
        <time>2025-05-15T10:44:43Z</time>
      </trkpt>
      <trkpt lat="42.358560981228948" lon="2.518155975267291">
        <ele>774.48000000000002</ele>
        <time>2025-05-15T10:44:48Z</time>
      </trkpt>
      <trkpt lat="42.358583025634289" lon="2.518208026885986">
        <ele>774.48000000000002</ele>
        <time>2025-05-15T10:44:49Z</time>
      </trkpt>
      <trkpt lat="42.35867103561759" lon="2.51828103326261">
        <ele>774</ele>
        <time>2025-05-15T10:44:50Z</time>
      </trkpt>
      <trkpt lat="42.358727026730776" lon="2.518326966091991">
        <ele>774</ele>
        <time>2025-05-15T10:44:51Z</time>
      </trkpt>
      <trkpt lat="42.358786035329103" lon="2.518376000225544">
        <ele>774</ele>
        <time>2025-05-15T10:44:52Z</time>
      </trkpt>
      <trkpt lat="42.358846971765161" lon="2.518426040187478">
        <ele>774</ele>
        <time>2025-05-15T10:44:53Z</time>
      </trkpt>
      <trkpt lat="42.358905980363488" lon="2.518473984673619">
        <ele>774</ele>
        <time>2025-05-15T10:44:54Z</time>
      </trkpt>
      <trkpt lat="42.358963983133435" lon="2.518520001322031">
        <ele>773.51999999999998</ele>
        <time>2025-05-15T10:44:55Z</time>
      </trkpt>
      <trkpt lat="42.359025003388524" lon="2.51856199465692">
        <ele>773.51999999999998</ele>
        <time>2025-05-15T10:44:56Z</time>
      </trkpt>
      <trkpt lat="42.359148971736431" lon="2.51864698715508">
        <ele>773.51999999999998</ele>
        <time>2025-05-15T10:44:58Z</time>
      </trkpt>
      <trkpt lat="42.359220972284675" lon="2.518696021288633">
        <ele>773.51999999999998</ele>
        <time>2025-05-15T10:44:59Z</time>
      </trkpt>
      <trkpt lat="42.359284004196525" lon="2.518739020451903">
        <ele>773.51999999999998</ele>
        <time>2025-05-15T10:45:00Z</time>
      </trkpt>
      <trkpt lat="42.35929599031806" lon="2.518832981586456">
        <ele>773.51999999999998</ele>
        <time>2025-05-15T10:45:01Z</time>
      </trkpt>
      <trkpt lat="42.359301019459963" lon="2.518916968256235">
        <ele>773.51999999999998</ele>
        <time>2025-05-15T10:45:02Z</time>
      </trkpt>
      <trkpt lat="42.359305964782834" lon="2.519001960754395">
        <ele>773.03999999999996</ele>
        <time>2025-05-15T10:45:03Z</time>
      </trkpt>
      <trkpt lat="42.359310993924737" lon="2.519084019586444">
        <ele>772.55999999999995</ele>
        <time>2025-05-15T10:45:04Z</time>
      </trkpt>
      <trkpt lat="42.359315017238259" lon="2.519155014306307">
        <ele>772.55999999999995</ele>
        <time>2025-05-15T10:45:05Z</time>
      </trkpt>
      <trkpt lat="42.359319040551782" lon="2.519225003197789">
        <ele>772.08000000000004</ele>
        <time>2025-05-15T10:45:06Z</time>
      </trkpt>
      <trkpt lat="42.359322980046272" lon="2.519289962947369">
        <ele>772.08000000000004</ele>
        <time>2025-05-15T10:45:07Z</time>
      </trkpt>
      <trkpt lat="42.359325997531414" lon="2.51935500651598">
        <ele>772.08000000000004</ele>
        <time>2025-05-15T10:45:08Z</time>
      </trkpt>
      <trkpt lat="42.359331026673317" lon="2.519422983750701">
        <ele>771.60000000000002</ele>
        <time>2025-05-15T10:45:09Z</time>
      </trkpt>
      <trkpt lat="42.359334966167808" lon="2.519492972642183">
        <ele>771.60000000000002</ele>
        <time>2025-05-15T10:45:10Z</time>
      </trkpt>
      <trkpt lat="42.35933898948133" lon="2.519561033695936">
        <ele>771.60000000000002</ele>
        <time>2025-05-15T10:45:11Z</time>
      </trkpt>
      <trkpt lat="42.359343012794852" lon="2.519628005102277">
        <ele>771.11000000000001</ele>
        <time>2025-05-15T10:45:12Z</time>
      </trkpt>
      <trkpt lat="42.359346030279994" lon="2.519686007872224">
        <ele>770.63</ele>
        <time>2025-05-15T10:45:13Z</time>
      </trkpt>
      <trkpt lat="42.359348963946104" lon="2.519739987328649">
        <ele>770.14999999999998</ele>
        <time>2025-05-15T10:45:14Z</time>
      </trkpt>
      <trkpt lat="42.359351981431246" lon="2.519791033118963">
        <ele>769.66999999999996</ele>
        <time>2025-05-15T10:45:15Z</time>
      </trkpt>
      <trkpt lat="42.359354998916388" lon="2.519832020625472">
        <ele>768.71000000000004</ele>
        <time>2025-05-15T10:45:16Z</time>
      </trkpt>
      <trkpt lat="42.359354998916388" lon="2.519838977605104">
        <ele>768.71000000000004</ele>
        <time>2025-05-15T10:45:17Z</time>
      </trkpt>
      <trkpt lat="42.359354998916388" lon="2.519838977605104">
        <ele>767.75</ele>
        <time>2025-05-15T10:45:29Z</time>
      </trkpt>
      <trkpt lat="42.35933898948133" lon="2.519896980375052">
        <ele>767.75</ele>
        <time>2025-05-15T10:45:31Z</time>
      </trkpt>
      <trkpt lat="42.359354998916388" lon="2.519838977605104">
        <ele>767.75</ele>
        <time>2025-05-15T10:45:32Z</time>
      </trkpt>
      <trkpt lat="42.359344018623233" lon="2.519921036437154">
        <ele>779.76999999999998</ele>
        <time>2025-05-15T10:55:07Z</time>
      </trkpt>
      <trkpt lat="42.359353993088007" lon="2.519908966496587">
        <ele>781.69000000000005</ele>
        <time>2025-05-15T10:56:05Z</time>
      </trkpt>
      <trkpt lat="42.359357010573149" lon="2.51991399563849">
        <ele>782.64999999999998</ele>
        <time>2025-05-15T10:56:55Z</time>
      </trkpt>
      <trkpt lat="42.359335971996188" lon="2.519907038658857">
        <ele>782.16999999999996</ele>
        <time>2025-05-15T10:57:31Z</time>
      </trkpt>
      <trkpt lat="42.359323985874653" lon="2.519950959831476">
        <ele>780.73000000000002</ele>
        <time>2025-05-15T10:57:32Z</time>
      </trkpt>
      <trkpt lat="42.359311999753118" lon="2.519994964823127">
        <ele>780.25</ele>
        <time>2025-05-15T10:57:33Z</time>
      </trkpt>
      <trkpt lat="42.359190965071321" lon="2.520440965890884">
        <ele>775.44000000000005</ele>
        <time>2025-05-15T10:57:42Z</time>
      </trkpt>
      <trkpt lat="42.359175961464643" lon="2.520496034994721">
        <ele>774.48000000000002</ele>
        <time>2025-05-15T10:57:43Z</time>
      </trkpt>
      <trkpt lat="42.359161963686347" lon="2.520550014451146">
        <ele>774</ele>
        <time>2025-05-15T10:57:44Z</time>
      </trkpt>
      <trkpt lat="42.359175039455295" lon="2.520613968372345">
        <ele>773.51999999999998</ele>
        <time>2025-05-15T10:57:45Z</time>
      </trkpt>
      <trkpt lat="42.35920999199152" lon="2.520680017769337">
        <ele>772.55999999999995</ele>
        <time>2025-05-15T10:57:46Z</time>
      </trkpt>
      <trkpt lat="42.359249973669648" lon="2.520719999447465">
        <ele>772.08000000000004</ele>
        <time>2025-05-15T10:57:47Z</time>
      </trkpt>
      <trkpt lat="42.359289033338428" lon="2.520759981125593">
        <ele>771.60000000000002</ele>
        <time>2025-05-15T10:57:48Z</time>
      </trkpt>
      <trkpt lat="42.359348963946104" lon="2.520783031359315">
        <ele>771.11000000000001</ele>
        <time>2025-05-15T10:57:49Z</time>
      </trkpt>
      <trkpt lat="42.35940302722156" lon="2.520783031359315">
        <ele>770.63</ele>
        <time>2025-05-15T10:57:50Z</time>
      </trkpt>
      <trkpt lat="42.359475027769804" lon="2.520715976133943">
        <ele>770.14999999999998</ele>
        <time>2025-05-15T10:57:51Z</time>
      </trkpt>
      <trkpt lat="42.359521966427565" lon="2.520659985020757">
        <ele>769.19000000000005</ele>
        <time>2025-05-15T10:57:52Z</time>
      </trkpt>
      <trkpt lat="42.359561026096344" lon="2.520585972815752">
        <ele>768.71000000000004</ele>
        <time>2025-05-15T10:57:53Z</time>
      </trkpt>
      <trkpt lat="42.359598996117711" lon="2.520509026944637">
        <ele>768.23000000000002</ele>
        <time>2025-05-15T10:57:54Z</time>
      </trkpt>
      <trkpt lat="42.359636966139078" lon="2.520433003082871">
        <ele>767.75</ele>
        <time>2025-05-15T10:57:55Z</time>
      </trkpt>
      <trkpt lat="42.359891021624207" lon="2.519924975931644">
        <ele>772.08000000000004</ele>
        <time>2025-05-15T10:58:02Z</time>
      </trkpt>
      <trkpt lat="42.360019013285637" lon="2.519768988713622">
        <ele>773.51999999999998</ele>
        <time>2025-05-15T10:58:05Z</time>
      </trkpt>
      <trkpt lat="42.360104005783796" lon="2.519677961245179">
        <ele>774.96000000000004</ele>
        <time>2025-05-15T10:58:07Z</time>
      </trkpt>
      <trkpt lat="42.36015597358346" lon="2.519648959860206">
        <ele>775.91999999999996</ele>
        <time>2025-05-15T10:58:08Z</time>
      </trkpt>
      <trkpt lat="42.360208025202155" lon="2.519619958475232">
        <ele>776.39999999999998</ele>
        <time>2025-05-15T10:58:09Z</time>
      </trkpt>
      <trkpt lat="42.360255969688296" lon="2.51959296874702">
        <ele>776.88</ele>
        <time>2025-05-15T10:58:10Z</time>
      </trkpt>
      <trkpt lat="42.360278014093637" lon="2.519580982625485">
        <ele>777.36000000000001</ele>
        <time>2025-05-15T10:58:11Z</time>
      </trkpt>
      <trkpt lat="42.360513964667916" lon="2.519505964592099">
        <ele>780.73000000000002</ele>
        <time>2025-05-15T10:58:15Z</time>
      </trkpt>
      <trkpt lat="42.360561992973089" lon="2.519492972642183">
        <ele>781.69000000000005</ele>
        <time>2025-05-15T10:58:16Z</time>
      </trkpt>
      <trkpt lat="42.360611027106643" lon="2.519479980692267">
        <ele>782.16999999999996</ele>
        <time>2025-05-15T10:58:17Z</time>
      </trkpt>
      <trkpt lat="42.360661989077926" lon="2.519465982913971">
        <ele>783.13</ele>
        <time>2025-05-15T10:58:18Z</time>
      </trkpt>
      <trkpt lat="42.360710017383099" lon="2.519452990964055">
        <ele>784.09000000000003</ele>
        <time>2025-05-15T10:58:19Z</time>
      </trkpt>
      <trkpt lat="42.360754022374749" lon="2.51944100484252">
        <ele>785.04999999999995</ele>
        <time>2025-05-15T10:58:20Z</time>
      </trkpt>
      <trkpt lat="42.36088695935905" lon="2.519426001235843">
        <ele>787.46000000000004</ele>
        <time>2025-05-15T10:58:23Z</time>
      </trkpt>
      <trkpt lat="42.360934987664223" lon="2.519422983750701">
        <ele>788.41999999999996</ele>
        <time>2025-05-15T10:58:24Z</time>
      </trkpt>
      <trkpt lat="42.360987039282918" lon="2.519419966265559">
        <ele>788.89999999999998</ele>
        <time>2025-05-15T10:58:25Z</time>
      </trkpt>
      <trkpt lat="42.361044958233833" lon="2.519416026771069">
        <ele>789.38</ele>
        <time>2025-05-15T10:58:26Z</time>
      </trkpt>
      <trkpt lat="42.361104972660542" lon="2.519413009285927">
        <ele>789.86000000000001</ele>
        <time>2025-05-15T10:58:27Z</time>
      </trkpt>
      <trkpt lat="42.361174039542675" lon="2.519432958215475">
        <ele>790.34000000000003</ele>
        <time>2025-05-15T10:58:28Z</time>
      </trkpt>
      <trkpt lat="42.361218966543674" lon="2.519496995955706">
        <ele>791.29999999999995</ele>
        <time>2025-05-15T10:58:29Z</time>
      </trkpt>
      <trkpt lat="42.361268000677228" lon="2.519566984847188">
        <ele>791.77999999999997</ele>
        <time>2025-05-15T10:58:30Z</time>
      </trkpt>
      <trkpt lat="42.361392974853516" lon="2.519752979278565">
        <ele>793.22000000000003</ele>
        <time>2025-05-15T10:58:33Z</time>
      </trkpt>
      <trkpt lat="42.361459024250507" lon="2.519746022298932">
        <ele>793.71000000000004</ele>
        <time>2025-05-15T10:58:34Z</time>
      </trkpt>
      <trkpt lat="42.361515015363693" lon="2.519738981500268">
        <ele>794.19000000000005</ele>
        <time>2025-05-15T10:58:35Z</time>
      </trkpt>
      <trkpt lat="42.361588021740317" lon="2.51971903257072">
        <ele>794.19000000000005</ele>
        <time>2025-05-15T10:58:36Z</time>
      </trkpt>
      <trkpt lat="42.361600007861853" lon="2.519640997052193">
        <ele>794.66999999999996</ele>
        <time>2025-05-15T10:58:37Z</time>
      </trkpt>
      <trkpt lat="42.361612999811769" lon="2.519552987068892">
        <ele>795.14999999999998</ele>
        <time>2025-05-15T10:58:38Z</time>
      </trkpt>
      <trkpt lat="42.361626997590065" lon="2.519458020105958">
        <ele>795.14999999999998</ele>
        <time>2025-05-15T10:58:39Z</time>
      </trkpt>
      <trkpt lat="42.361642001196742" lon="2.519364980980754">
        <ele>795.14999999999998</ele>
        <time>2025-05-15T10:58:40Z</time>
      </trkpt>
      <trkpt lat="42.361667985096574" lon="2.519268002361059">
        <ele>795.63</ele>
        <time>2025-05-15T10:58:41Z</time>
      </trkpt>
      <trkpt lat="42.361693968996406" lon="2.519217040389776">
        <ele>795.63</ele>
        <time>2025-05-15T10:58:42Z</time>
      </trkpt>
      <trkpt lat="42.361789019778371" lon="2.519169012084603">
        <ele>796.11000000000001</ele>
        <time>2025-05-15T10:58:43Z</time>
      </trkpt>
      <trkpt lat="42.361855991184711" lon="2.519135987386107">
        <ele>796.11000000000001</ele>
        <time>2025-05-15T10:58:44Z</time>
      </trkpt>
      <trkpt lat="42.361914999783039" lon="2.519127018749714">
        <ele>796.59000000000003</ele>
        <time>2025-05-15T10:58:45Z</time>
      </trkpt>
      <trkpt lat="42.361992029473186" lon="2.51911997795105">
        <ele>796.59000000000003</ele>
        <time>2025-05-15T10:58:46Z</time>
      </trkpt>
      <trkpt lat="42.362072998657823" lon="2.519114026799798">
        <ele>797.07000000000005</ele>
        <time>2025-05-15T10:58:47Z</time>
      </trkpt>
      <trkpt lat="42.36215497367084" lon="2.519106986001134">
        <ele>797.07000000000005</ele>
        <time>2025-05-15T10:58:48Z</time>
      </trkpt>
      <trkpt lat="42.362338034436107" lon="2.519090976566076">
        <ele>797.54999999999995</ele>
        <time>2025-05-15T10:58:50Z</time>
      </trkpt>
      <trkpt lat="42.362528974190354" lon="2.519026016816497">
        <ele>798.50999999999999</ele>
        <time>2025-05-15T10:58:52Z</time>
      </trkpt>
      <trkpt lat="42.362959971651435" lon="2.518868017941713">
        <ele>800.44000000000005</ele>
        <time>2025-05-15T10:58:57Z</time>
      </trkpt>
      <trkpt lat="42.363043036311865" lon="2.51886198297143">
        <ele>800.91999999999996</ele>
        <time>2025-05-15T10:58:58Z</time>
      </trkpt>
      <trkpt lat="42.363173961639404" lon="2.518852008506656">
        <ele>800.91999999999996</ele>
        <time>2025-05-15T10:58:59Z</time>
      </trkpt>
      <trkpt lat="42.363208997994661" lon="2.518829964101315">
        <ele>800.44000000000005</ele>
        <time>2025-05-15T10:59:00Z</time>
      </trkpt>
      <trkpt lat="42.363271024078131" lon="2.518790988251567">
        <ele>799.95000000000005</ele>
        <time>2025-05-15T10:59:01Z</time>
      </trkpt>
      <trkpt lat="42.363345958292484" lon="2.518743965774775">
        <ele>799.95000000000005</ele>
        <time>2025-05-15T10:59:02Z</time>
      </trkpt>
      <trkpt lat="42.363392980769277" lon="2.51873298548162">
        <ele>799.95000000000005</ele>
        <time>2025-05-15T10:59:03Z</time>
      </trkpt>
      <trkpt lat="42.363460035994649" lon="2.518715970218182">
        <ele>799.47000000000003</ele>
        <time>2025-05-15T10:59:04Z</time>
      </trkpt>
      <trkpt lat="42.36352801322937" lon="2.518699038773775">
        <ele>799.47000000000003</ele>
        <time>2025-05-15T10:59:05Z</time>
      </trkpt>
      <trkpt lat="42.363674025982618" lon="2.518662996590138">
        <ele>798.99000000000001</ele>
        <time>2025-05-15T10:59:07Z</time>
      </trkpt>
      <trkpt lat="42.364004021510482" lon="2.518572974950075">
        <ele>797.54999999999995</ele>
        <time>2025-05-15T10:59:12Z</time>
      </trkpt>
      <trkpt lat="42.364074010401964" lon="2.518572974950075">
        <ele>797.07000000000005</ele>
        <time>2025-05-15T10:59:13Z</time>
      </trkpt>
      <trkpt lat="42.364194961264729" lon="2.518629971891642">
        <ele>796.59000000000003</ele>
        <time>2025-05-15T10:59:15Z</time>
      </trkpt>
      <trkpt lat="42.364251036196947" lon="2.518687974661589">
        <ele>796.59000000000003</ele>
        <time>2025-05-15T10:59:16Z</time>
      </trkpt>
      <trkpt lat="42.364381039515138" lon="2.518823007121682">
        <ele>796.11000000000001</ele>
        <time>2025-05-15T10:59:18Z</time>
      </trkpt>
      <trkpt lat="42.364442981779575" lon="2.518887966871262">
        <ele>795.63</ele>
        <time>2025-05-15T10:59:19Z</time>
      </trkpt>
      <trkpt lat="42.364493021741509" lon="2.518940018489957">
        <ele>795.14999999999998</ele>
        <time>2025-05-15T10:59:20Z</time>
      </trkpt>
      <trkpt lat="42.364547001197934" lon="2.518997015431523">
        <ele>795.14999999999998</ele>
        <time>2025-05-15T10:59:21Z</time>
      </trkpt>
      <trkpt lat="42.364605003967881" lon="2.519057029858232">
        <ele>794.66999999999996</ele>
        <time>2025-05-15T10:59:22Z</time>
      </trkpt>
      <trkpt lat="42.364671975374222" lon="2.519116960465908">
        <ele>794.66999999999996</ele>
        <time>2025-05-15T10:59:23Z</time>
      </trkpt>
      <trkpt lat="42.364744981750846" lon="2.519151996821165">
        <ele>794.19000000000005</ele>
        <time>2025-05-15T10:59:24Z</time>
      </trkpt>
      <trkpt lat="42.364956960082054" lon="2.519250987097621">
        <ele>792.74000000000001</ele>
        <time>2025-05-15T10:59:27Z</time>
      </trkpt>
      <trkpt lat="42.365019991993904" lon="2.519280994310975">
        <ele>792.25999999999999</ele>
        <time>2025-05-15T10:59:28Z</time>
      </trkpt>
      <trkpt lat="42.365066008642316" lon="2.519361041486263">
        <ele>791.29999999999995</ele>
        <time>2025-05-15T10:59:29Z</time>
      </trkpt>
      <trkpt lat="42.365112025290728" lon="2.519443016499281">
        <ele>790.82000000000005</ele>
        <time>2025-05-15T10:59:30Z</time>
      </trkpt>
      <trkpt lat="42.365159969776869" lon="2.519525997340679">
        <ele>789.86000000000001</ele>
        <time>2025-05-15T10:59:31Z</time>
      </trkpt>
      <trkpt lat="42.365232976153493" lon="2.519611995667219">
        <ele>788.89999999999998</ele>
        <time>2025-05-15T10:59:32Z</time>
      </trkpt>
      <trkpt lat="42.365276981145144" lon="2.519646026194096">
        <ele>788.41999999999996</ele>
        <time>2025-05-15T10:59:33Z</time>
      </trkpt>
      <trkpt lat="42.365371026098728" lon="2.519646026194096">
        <ele>787.94000000000005</ele>
        <time>2025-05-15T10:59:34Z</time>
      </trkpt>
      <trkpt lat="42.365385023877025" lon="2.519646026194096">
        <ele>787.46000000000004</ele>
        <time>2025-05-15T10:59:35Z</time>
      </trkpt>
      <trkpt lat="42.365484014153481" lon="2.519559022039175">
        <ele>786.5</ele>
        <time>2025-05-15T10:59:36Z</time>
      </trkpt>
      <trkpt lat="42.365537993609905" lon="2.519513005390763">
        <ele>786.01999999999998</ele>
        <time>2025-05-15T10:59:37Z</time>
      </trkpt>
      <trkpt lat="42.365600019693375" lon="2.519458020105958">
        <ele>785.04999999999995</ele>
        <time>2025-05-15T10:59:38Z</time>
      </trkpt>
      <trkpt lat="42.365875029936433" lon="2.519218968227506">
        <ele>782.16999999999996</ele>
        <time>2025-05-15T10:59:42Z</time>
      </trkpt>
      <trkpt lat="42.365965973585844" lon="2.519175969064236">
        <ele>781.21000000000004</ele>
        <time>2025-05-15T10:59:43Z</time>
      </trkpt>
      <trkpt lat="42.366112992167473" lon="2.519107991829515">
        <ele>779.76999999999998</ele>
        <time>2025-05-15T10:59:45Z</time>
      </trkpt>
      <trkpt lat="42.366189016029239" lon="2.519087959080935">
        <ele>779.28999999999996</ele>
        <time>2025-05-15T10:59:46Z</time>
      </trkpt>
      <trkpt lat="42.366341985762119" lon="2.519087959080935">
        <ele>778.32000000000005</ele>
        <time>2025-05-15T10:59:48Z</time>
      </trkpt>
      <trkpt lat="42.366581037640572" lon="2.519158031791449">
        <ele>776.88</ele>
        <time>2025-05-15T10:59:51Z</time>
      </trkpt>
      <trkpt lat="42.366673992946744" lon="2.519188039004803">
        <ele>776.39999999999998</ele>
        <time>2025-05-15T10:59:52Z</time>
      </trkpt>
      <trkpt lat="42.366786981001496" lon="2.51924998126924">
        <ele>776.39999999999998</ele>
        <time>2025-05-15T10:59:53Z</time>
      </trkpt>
      <trkpt lat="42.366863004863262" lon="2.519340002909303">
        <ele>776.39999999999998</ele>
        <time>2025-05-15T10:59:54Z</time>
      </trkpt>
      <trkpt lat="42.366937017068267" lon="2.519490038976073">
        <ele>776.39999999999998</ele>
        <time>2025-05-15T10:59:55Z</time>
      </trkpt>
      <trkpt lat="42.366996025666595" lon="2.51963303424418">
        <ele>775.91999999999996</ele>
        <time>2025-05-15T10:59:56Z</time>
      </trkpt>
      <trkpt lat="42.367056040093303" lon="2.519777035340667">
        <ele>775.91999999999996</ele>
        <time>2025-05-15T10:59:57Z</time>
      </trkpt>
      <trkpt lat="42.367167016491294" lon="2.520047016441822">
        <ele>775.91999999999996</ele>
        <time>2025-05-15T10:59:59Z</time>
      </trkpt>
      <trkpt lat="42.367259971797466" lon="2.520133014768362">
        <ele>775.91999999999996</ele>
        <time>2025-05-15T11:00:00Z</time>
      </trkpt>
      <trkpt lat="42.367367008700967" lon="2.520185988396406">
        <ele>775.91999999999996</ele>
        <time>2025-05-15T11:00:01Z</time>
      </trkpt>
      <trkpt lat="42.367605976760387" lon="2.520240973681212">
        <ele>775.91999999999996</ele>
        <time>2025-05-15T11:00:03Z</time>
      </trkpt>
      <trkpt lat="42.36773899756372" lon="2.520269975066185">
        <ele>776.39999999999998</ele>
        <time>2025-05-15T11:00:04Z</time>
      </trkpt>
      <trkpt lat="42.367862965911627" lon="2.520297970622778">
        <ele>776.39999999999998</ele>
        <time>2025-05-15T11:00:05Z</time>
      </trkpt>
      <trkpt lat="42.368175024166703" lon="2.520328983664513">
        <ele>776.88</ele>
        <time>2025-05-15T11:00:08Z</time>
      </trkpt>
      <trkpt lat="42.368247024714947" lon="2.520398972555995">
        <ele>777.36000000000001</ele>
        <time>2025-05-15T11:00:09Z</time>
      </trkpt>
      <trkpt lat="42.368317013606429" lon="2.520466027781367">
        <ele>777.36000000000001</ele>
        <time>2025-05-15T11:00:10Z</time>
      </trkpt>
      <trkpt lat="42.368387002497911" lon="2.520534005016089">
        <ele>776.88</ele>
        <time>2025-05-15T11:00:11Z</time>
      </trkpt>
      <trkpt lat="42.368463026359677" lon="2.520607011392713">
        <ele>776.39999999999998</ele>
        <time>2025-05-15T11:00:12Z</time>
      </trkpt>
      <trkpt lat="42.368535026907921" lon="2.520674988627434">
        <ele>775.91999999999996</ele>
        <time>2025-05-15T11:00:13Z</time>
      </trkpt>
      <trkpt lat="42.368597975000739" lon="2.520737014710903">
        <ele>775.44000000000005</ele>
        <time>2025-05-15T11:00:14Z</time>
      </trkpt>
      <trkpt lat="42.368646003305912" lon="2.520783031359315">
        <ele>774.96000000000004</ele>
        <time>2025-05-15T11:00:15Z</time>
      </trkpt>
      <trkpt lat="42.368707023561001" lon="2.52075201831758">
        <ele>774.96000000000004</ele>
        <time>2025-05-15T11:00:16Z</time>
      </trkpt>
      <trkpt lat="42.368796961382031" lon="2.520707007497549">
        <ele>775.44000000000005</ele>
        <time>2025-05-15T11:00:17Z</time>
      </trkpt>
      <trkpt lat="42.368910033255816" lon="2.520651016384363">
        <ele>775.91999999999996</ele>
        <time>2025-05-15T11:00:18Z</time>
      </trkpt>
      <trkpt lat="42.369017992168665" lon="2.520597036927939">
        <ele>776.39999999999998</ele>
        <time>2025-05-15T11:00:19Z</time>
      </trkpt>
      <trkpt lat="42.369122011587024" lon="2.520598964765668">
        <ele>776.88</ele>
        <time>2025-05-15T11:00:20Z</time>
      </trkpt>
      <trkpt lat="42.369233993813396" lon="2.520612040534616">
        <ele>777.36000000000001</ele>
        <time>2025-05-15T11:00:21Z</time>
      </trkpt>
      <trkpt lat="42.369352011010051" lon="2.520625032484531">
        <ele>777.84000000000003</ele>
        <time>2025-05-15T11:00:22Z</time>
      </trkpt>
      <trkpt lat="42.369603971019387" lon="2.520652022212744">
        <ele>779.28999999999996</ele>
        <time>2025-05-15T11:00:24Z</time>
      </trkpt>
      <trkpt lat="42.36971796490252" lon="2.520664008334279">
        <ele>780.25</ele>
        <time>2025-05-15T11:00:25Z</time>
      </trkpt>
      <trkpt lat="42.369928015395999" lon="2.520686974748969">
        <ele>781.69000000000005</ele>
        <time>2025-05-15T11:00:27Z</time>
      </trkpt>
      <trkpt lat="42.37001895904541" lon="2.520697033032775">
        <ele>782.16999999999996</ele>
        <time>2025-05-15T11:00:28Z</time>
      </trkpt>
      <trkpt lat="42.370148040354252" lon="2.520740032196045">
        <ele>783.13</ele>
        <time>2025-05-15T11:00:29Z</time>
      </trkpt>
      <trkpt lat="42.370176035910845" lon="2.520810021087527">
        <ele>784.09000000000003</ele>
        <time>2025-05-15T11:00:30Z</time>
      </trkpt>
      <trkpt lat="42.370164971798658" lon="2.520968019962311">
        <ele>785.04999999999995</ele>
        <time>2025-05-15T11:00:31Z</time>
      </trkpt>
      <trkpt lat="42.370139993727207" lon="2.521086959168315">
        <ele>785.52999999999997</ele>
        <time>2025-05-15T11:00:32Z</time>
      </trkpt>
      <trkpt lat="42.370110992342234" lon="2.521220985800028">
        <ele>786.01999999999998</ele>
        <time>2025-05-15T11:00:33Z</time>
      </trkpt>
      <trkpt lat="42.370076039806008" lon="2.521386025473476">
        <ele>786.5</ele>
        <time>2025-05-15T11:00:34Z</time>
      </trkpt>
      <trkpt lat="42.37003798596561" lon="2.521561039611697">
        <ele>786.01999999999998</ele>
        <time>2025-05-15T11:00:35Z</time>
      </trkpt>
      <trkpt lat="42.370001021772623" lon="2.521733958274126">
        <ele>785.52999999999997</ele>
        <time>2025-05-15T11:00:36Z</time>
      </trkpt>
      <trkpt lat="42.369933966547251" lon="2.522049034014344">
        <ele>784.57000000000005</ele>
        <time>2025-05-15T11:00:38Z</time>
      </trkpt>
      <trkpt lat="42.369937989860773" lon="2.52221298404038">
        <ele>784.09000000000003</ele>
        <time>2025-05-15T11:00:39Z</time>
      </trkpt>
      <trkpt lat="42.369983000680804" lon="2.522367965430021">
        <ele>783.61000000000001</ele>
        <time>2025-05-15T11:00:40Z</time>
      </trkpt>
      <trkpt lat="42.370095988735557" lon="2.522628977894783">
        <ele>782.64999999999998</ele>
        <time>2025-05-15T11:00:42Z</time>
      </trkpt>
      <trkpt lat="42.370162038132548" lon="2.52270701341331">
        <ele>782.16999999999996</ele>
        <time>2025-05-15T11:00:43Z</time>
      </trkpt>
      <trkpt lat="42.370225992053747" lon="2.522782031446695">
        <ele>781.69000000000005</ele>
        <time>2025-05-15T11:00:44Z</time>
      </trkpt>
      <trkpt lat="42.370289023965597" lon="2.522851014509797">
        <ele>781.21000000000004</ele>
        <time>2025-05-15T11:00:45Z</time>
      </trkpt>
      <trkpt lat="42.370379967615008" lon="2.522911028936505">
        <ele>780.25</ele>
        <time>2025-05-15T11:00:46Z</time>
      </trkpt>
      <trkpt lat="42.370491027832031" lon="2.522984035313129">
        <ele>779.28999999999996</ele>
        <time>2025-05-15T11:00:47Z</time>
      </trkpt>
      <trkpt lat="42.370617007836699" lon="2.523067016154528">
        <ele>778.32000000000005</ele>
        <time>2025-05-15T11:00:48Z</time>
      </trkpt>
      <trkpt lat="42.371323015540838" lon="2.523533971980214">
        <ele>774.48000000000002</ele>
        <time>2025-05-15T11:00:53Z</time>
      </trkpt>
      <trkpt lat="42.371413959190249" lon="2.523593986406922">
        <ele>773.03999999999996</ele>
        <time>2025-05-15T11:00:54Z</time>
      </trkpt>
      <trkpt lat="42.371565001085401" lon="2.523758020251989">
        <ele>772.55999999999995</ele>
        <time>2025-05-15T11:00:55Z</time>
      </trkpt>
      <trkpt lat="42.371886027976871" lon="2.524108970537782">
        <ele>770.14999999999998</ele>
        <time>2025-05-15T11:00:58Z</time>
      </trkpt>
      <trkpt lat="42.371959034353495" lon="2.524283984676004">
        <ele>769.66999999999996</ele>
        <time>2025-05-15T11:00:59Z</time>
      </trkpt>
      <trkpt lat="42.372171012684703" lon="2.524792011827231">
        <ele>769.19000000000005</ele>
        <time>2025-05-15T11:01:02Z</time>
      </trkpt>
      <trkpt lat="42.372262040153146" lon="2.524974988773465">
        <ele>768.71000000000004</ele>
        <time>2025-05-15T11:01:03Z</time>
      </trkpt>
      <trkpt lat="42.372354995459318" lon="2.525137010961771">
        <ele>768.23000000000002</ele>
        <time>2025-05-15T11:01:04Z</time>
      </trkpt>
      <trkpt lat="42.37244501709938" lon="2.525292998179793">
        <ele>767.75</ele>
        <time>2025-05-15T11:01:05Z</time>
      </trkpt>
      <trkpt lat="42.372526992112398" lon="2.52543699927628">
        <ele>766.78999999999996</ele>
        <time>2025-05-15T11:01:06Z</time>
      </trkpt>
      <trkpt lat="42.372605027630925" lon="2.525572031736374">
        <ele>766.30999999999995</ele>
        <time>2025-05-15T11:01:07Z</time>
      </trkpt>
      <trkpt lat="42.37270200625062" lon="2.525740005075932">
        <ele>765.83000000000004</ele>
        <time>2025-05-15T11:01:08Z</time>
      </trkpt>
      <trkpt lat="42.372717009857297" lon="2.52582298591733">
        <ele>765.83000000000004</ele>
        <time>2025-05-15T11:01:09Z</time>
      </trkpt>
      <trkpt lat="42.372748022899032" lon="2.525992970913649">
        <ele>765.83000000000004</ele>
        <time>2025-05-15T11:01:10Z</time>
      </trkpt>
      <trkpt lat="42.372826980426908" lon="2.526478031650186">
        <ele>764.87</ele>
        <time>2025-05-15T11:01:13Z</time>
      </trkpt>
      <trkpt lat="42.372808959335089" lon="2.526662014424801">
        <ele>763.89999999999998</ele>
        <time>2025-05-15T11:01:14Z</time>
      </trkpt>
      <trkpt lat="42.372821029275656" lon="2.526714988052845">
        <ele>763.41999999999996</ele>
        <time>2025-05-15T11:01:15Z</time>
      </trkpt>
      <trkpt lat="42.372843995690346" lon="2.526810960844159">
        <ele>762.94000000000005</ele>
        <time>2025-05-15T11:01:16Z</time>
      </trkpt>
      <trkpt lat="42.372936028987169" lon="2.527036014944315">
        <ele>761.98000000000002</ele>
        <time>2025-05-15T11:01:17Z</time>
      </trkpt>
      <trkpt lat="42.373087992891669" lon="2.52706996165216">
        <ele>761.5</ele>
        <time>2025-05-15T11:01:18Z</time>
      </trkpt>
      <trkpt lat="42.373172985389829" lon="2.527059987187386">
        <ele>760.53999999999996</ele>
        <time>2025-05-15T11:01:19Z</time>
      </trkpt>
      <trkpt lat="42.373297959566116" lon="2.527043977752328">
        <ele>760.05999999999995</ele>
        <time>2025-05-15T11:01:20Z</time>
      </trkpt>
      <trkpt lat="42.373581016436219" lon="2.527008019387722">
        <ele>758.13999999999999</ele>
        <time>2025-05-15T11:01:22Z</time>
      </trkpt>
      <trkpt lat="42.373729040846229" lon="2.526989998295903">
        <ele>758.13999999999999</ele>
        <time>2025-05-15T11:01:23Z</time>
      </trkpt>
      <trkpt lat="42.374053001403809" lon="2.526814984157682">
        <ele>758.62</ele>
        <time>2025-05-15T11:01:25Z</time>
      </trkpt>
      <trkpt lat="42.374960007146001" lon="2.526581967249513">
        <ele>754.76999999999998</ele>
        <time>2025-05-15T11:01:31Z</time>
      </trkpt>
      <trkpt lat="42.375040976330638" lon="2.52659797668457">
        <ele>753.80999999999995</ele>
        <time>2025-05-15T11:01:32Z</time>
      </trkpt>
      <trkpt lat="42.37519696354866" lon="2.526694033294916">
        <ele>752.85000000000002</ele>
        <time>2025-05-15T11:01:33Z</time>
      </trkpt>
      <trkpt lat="42.375327972695231" lon="2.526772990822792">
        <ele>751.88999999999999</ele>
        <time>2025-05-15T11:01:34Z</time>
      </trkpt>
      <trkpt lat="42.375434003770351" lon="2.526843985542655">
        <ele>750.92999999999995</ele>
        <time>2025-05-15T11:01:35Z</time>
      </trkpt>
      <trkpt lat="42.375542968511581" lon="2.526988992467523">
        <ele>749.97000000000003</ele>
        <time>2025-05-15T11:01:36Z</time>
      </trkpt>
      <trkpt lat="42.375637013465166" lon="2.527137016877532">
        <ele>749</ele>
        <time>2025-05-15T11:01:37Z</time>
      </trkpt>
      <trkpt lat="42.375697027891874" lon="2.527303984388709">
        <ele>748.51999999999998</ele>
        <time>2025-05-15T11:01:38Z</time>
      </trkpt>
      <trkpt lat="42.375791994854808" lon="2.52756399102509">
        <ele>748.51999999999998</ele>
        <time>2025-05-15T11:01:39Z</time>
      </trkpt>
      <trkpt lat="42.37581797875464" lon="2.527589974924922">
        <ele>748.51999999999998</ele>
        <time>2025-05-15T11:01:40Z</time>
      </trkpt>
      <trkpt lat="42.375942030921578" lon="2.527714027091861">
        <ele>749</ele>
        <time>2025-05-15T11:01:41Z</time>
      </trkpt>
      <trkpt lat="42.376030962914228" lon="2.527737999334931">
        <ele>749.49000000000001</ele>
        <time>2025-05-15T11:01:42Z</time>
      </trkpt>
      <trkpt lat="42.376177981495857" lon="2.52777798101306">
        <ele>749.97000000000003</ele>
        <time>2025-05-15T11:01:43Z</time>
      </trkpt>
      <trkpt lat="42.376252999529243" lon="2.527732970193029">
        <ele>751.40999999999997</ele>
        <time>2025-05-15T11:01:44Z</time>
      </trkpt>
      <trkpt lat="42.376284012570977" lon="2.527662981301546">
        <ele>752.85000000000002</ele>
        <time>2025-05-15T11:01:45Z</time>
      </trkpt>
      <trkpt lat="42.376317959278822" lon="2.527587041258812">
        <ele>754.28999999999996</ele>
        <time>2025-05-15T11:01:46Z</time>
      </trkpt>
      <trkpt lat="42.376363975927234" lon="2.527485033497214">
        <ele>755.25</ele>
        <time>2025-05-15T11:01:47Z</time>
      </trkpt>
      <trkpt lat="42.376434970647097" lon="2.527328040450811">
        <ele>755.73000000000002</ele>
        <time>2025-05-15T11:01:48Z</time>
      </trkpt>
      <trkpt lat="42.376509988680482" lon="2.527281017974019">
        <ele>756.21000000000004</ele>
        <time>2025-05-15T11:01:49Z</time>
      </trkpt>
      <trkpt lat="42.376714004203677" lon="2.527285041287541">
        <ele>758.13999999999999</ele>
        <time>2025-05-15T11:01:52Z</time>
      </trkpt>
      <trkpt lat="42.376782987266779" lon="2.527386965230107">
        <ele>759.10000000000002</ele>
        <time>2025-05-15T11:01:53Z</time>
      </trkpt>
      <trkpt lat="42.376835960894823" lon="2.527467012405396">
        <ele>759.58000000000004</ele>
        <time>2025-05-15T11:01:54Z</time>
      </trkpt>
      <trkpt lat="42.376906033605337" lon="2.527572037652135">
        <ele>761.01999999999998</ele>
        <time>2025-05-15T11:01:55Z</time>
      </trkpt>
      <trkpt lat="42.377014998346567" lon="2.52773498184979">
        <ele>761.98000000000002</ele>
        <time>2025-05-15T11:01:56Z</time>
      </trkpt>
      <trkpt lat="42.377051040530205" lon="2.527720984071493">
        <ele>762.94000000000005</ele>
        <time>2025-05-15T11:01:57Z</time>
      </trkpt>
      <trkpt lat="42.377122035250068" lon="2.52769198268652">
        <ele>763.41999999999996</ele>
        <time>2025-05-15T11:01:58Z</time>
      </trkpt>
      <trkpt lat="42.377180038020015" lon="2.527644960209727">
        <ele>763.41999999999996</ele>
        <time>2025-05-15T11:01:59Z</time>
      </trkpt>
      <trkpt lat="42.377362009137869" lon="2.52749701961875">
        <ele>763.89999999999998</ele>
        <time>2025-05-15T11:02:01Z</time>
      </trkpt>
      <trkpt lat="42.377505004405975" lon="2.527430970221758">
        <ele>763.41999999999996</ele>
        <time>2025-05-15T11:02:02Z</time>
      </trkpt>
      <trkpt lat="42.37760198302567" lon="2.527473969385028">
        <ele>763.41999999999996</ele>
        <time>2025-05-15T11:02:03Z</time>
      </trkpt>
      <trkpt lat="42.377696027979255" lon="2.527515962719917">
        <ele>763.41999999999996</ele>
        <time>2025-05-15T11:02:04Z</time>
      </trkpt>
      <trkpt lat="42.377789989113808" lon="2.527558039873838">
        <ele>763.41999999999996</ele>
        <time>2025-05-15T11:02:05Z</time>
      </trkpt>
      <trkpt lat="42.377860983833671" lon="2.527585029602051">
        <ele>763.89999999999998</ele>
        <time>2025-05-15T11:02:06Z</time>
      </trkpt>
      <trkpt lat="42.377980006858706" lon="2.527585029602051">
        <ele>764.38999999999999</ele>
        <time>2025-05-15T11:02:07Z</time>
      </trkpt>
      <trkpt lat="42.378022000193596" lon="2.527560973539949">
        <ele>764.87</ele>
        <time>2025-05-15T11:02:08Z</time>
      </trkpt>
      <trkpt lat="42.378139011561871" lon="2.527486961334944">
        <ele>765.35000000000002</ele>
        <time>2025-05-15T11:02:09Z</time>
      </trkpt>
      <trkpt lat="42.378343027085066" lon="2.527188984677196">
        <ele>766.30999999999995</ele>
        <time>2025-05-15T11:02:11Z</time>
      </trkpt>
      <trkpt lat="42.378592975437641" lon="2.52693903632462">
        <ele>767.75</ele>
        <time>2025-05-15T11:02:13Z</time>
      </trkpt>
      <trkpt lat="42.378734964877367" lon="2.526847003027797">
        <ele>768.23000000000002</ele>
        <time>2025-05-15T11:02:14Z</time>
      </trkpt>
      <trkpt lat="42.378871003165841" lon="2.526786988601089">
        <ele>769.19000000000005</ele>
        <time>2025-05-15T11:02:15Z</time>
      </trkpt>
      <trkpt lat="42.379711037501693" lon="2.52648901194334">
        <ele>772.55999999999995</ele>
        <time>2025-05-15T11:02:21Z</time>
      </trkpt>
      <trkpt lat="42.379865013062954" lon="2.526448024436832">
        <ele>773.03999999999996</ele>
        <time>2025-05-15T11:02:22Z</time>
      </trkpt>
      <trkpt lat="42.380033992230892" lon="2.526459004729986">
        <ele>773.51999999999998</ele>
        <time>2025-05-15T11:02:23Z</time>
      </trkpt>
      <trkpt lat="42.380176987498999" lon="2.526504015550017">
        <ele>774</ele>
        <time>2025-05-15T11:02:24Z</time>
      </trkpt>
      <trkpt lat="42.380346972495317" lon="2.526559000834823">
        <ele>774.96000000000004</ele>
        <time>2025-05-15T11:02:25Z</time>
      </trkpt>
      <trkpt lat="42.380493991076946" lon="2.526653967797756">
        <ele>775.91999999999996</ele>
        <time>2025-05-15T11:02:26Z</time>
      </trkpt>
      <trkpt lat="42.380635980516672" lon="2.526744995266199">
        <ele>776.88</ele>
        <time>2025-05-15T11:02:27Z</time>
      </trkpt>
      <trkpt lat="42.380772018805146" lon="2.5268330052495">
        <ele>777.36000000000001</ele>
        <time>2025-05-15T11:02:28Z</time>
      </trkpt>
      <trkpt lat="42.380908979102969" lon="2.526921015232801">
        <ele>778.32000000000005</ele>
        <time>2025-05-15T11:02:29Z</time>
      </trkpt>
      <trkpt lat="42.381049962714314" lon="2.527011958882213">
        <ele>778.80999999999995</ele>
        <time>2025-05-15T11:02:30Z</time>
      </trkpt>
      <trkpt lat="42.381198992952704" lon="2.527108015492559">
        <ele>779.28999999999996</ele>
        <time>2025-05-15T11:02:31Z</time>
      </trkpt>
      <trkpt lat="42.381349029019475" lon="2.527203988283873">
        <ele>779.76999999999998</ele>
        <time>2025-05-15T11:02:32Z</time>
      </trkpt>
      <trkpt lat="42.381497975438833" lon="2.527299961075187">
        <ele>780.25</ele>
        <time>2025-05-15T11:02:33Z</time>
      </trkpt>
      <trkpt lat="42.381642982363701" lon="2.527374979108572">
        <ele>780.25</ele>
        <time>2025-05-15T11:02:34Z</time>
      </trkpt>
      <trkpt lat="42.381952023133636" lon="2.527414038777351">
        <ele>780.73000000000002</ele>
        <time>2025-05-15T11:02:36Z</time>
      </trkpt>
      <trkpt lat="42.38211203366518" lon="2.52743499353528">
        <ele>780.73000000000002</ele>
        <time>2025-05-15T11:02:37Z</time>
      </trkpt>
      <trkpt lat="42.382968999445438" lon="2.527560973539949">
        <ele>780.25</ele>
        <time>2025-05-15T11:02:43Z</time>
      </trkpt>
      <trkpt lat="42.383078970015049" lon="2.527632974088192">
        <ele>779.76999999999998</ele>
        <time>2025-05-15T11:02:44Z</time>
      </trkpt>
      <trkpt lat="42.383345011621714" lon="2.527843024581671">
        <ele>780.25</ele>
        <time>2025-05-15T11:02:47Z</time>
      </trkpt>
      <trkpt lat="42.383389016613364" lon="2.527941009029746">
        <ele>781.69000000000005</ele>
        <time>2025-05-15T11:02:48Z</time>
      </trkpt>
      <trkpt lat="42.383427992463112" lon="2.528029019013047">
        <ele>781.69000000000005</ele>
        <time>2025-05-15T11:02:49Z</time>
      </trkpt>
      <trkpt lat="42.38342204131186" lon="2.52807998098433">
        <ele>781.69000000000005</ele>
        <time>2025-05-15T11:02:50Z</time>
      </trkpt>
      <trkpt lat="42.383392034098506" lon="2.528230017051101">
        <ele>782.64999999999998</ele>
        <time>2025-05-15T11:02:51Z</time>
      </trkpt>
      <trkpt lat="42.383353980258107" lon="2.528419028967619">
        <ele>783.61000000000001</ele>
        <time>2025-05-15T11:02:52Z</time>
      </trkpt>
      <trkpt lat="42.383277034386992" lon="2.528800992295146">
        <ele>784.57000000000005</ele>
        <time>2025-05-15T11:02:54Z</time>
      </trkpt>
      <trkpt lat="42.383237974718213" lon="2.528997967019677">
        <ele>785.04999999999995</ele>
        <time>2025-05-15T11:02:55Z</time>
      </trkpt>
      <trkpt lat="42.383236968889832" lon="2.529198965057731">
        <ele>785.52999999999997</ele>
        <time>2025-05-15T11:02:56Z</time>
      </trkpt>
      <trkpt lat="42.383236968889832" lon="2.529387976974249">
        <ele>785.52999999999997</ele>
        <time>2025-05-15T11:02:57Z</time>
      </trkpt>
      <trkpt lat="42.383236968889832" lon="2.529549999162555">
        <ele>785.52999999999997</ele>
        <time>2025-05-15T11:02:58Z</time>
      </trkpt>
      <trkpt lat="42.383236968889832" lon="2.529709003865719">
        <ele>786.01999999999998</ele>
        <time>2025-05-15T11:02:59Z</time>
      </trkpt>
      <trkpt lat="42.383269993588328" lon="2.529798019677401">
        <ele>786.01999999999998</ele>
        <time>2025-05-15T11:03:00Z</time>
      </trkpt>
      <trkpt lat="42.38337803632021" lon="2.529891980811954">
        <ele>786.5</ele>
        <time>2025-05-15T11:03:01Z</time>
      </trkpt>
      <trkpt lat="42.383494041860104" lon="2.529908996075392">
        <ele>786.5</ele>
        <time>2025-05-15T11:03:02Z</time>
      </trkpt>
      <trkpt lat="42.383620021864772" lon="2.529928022995591">
        <ele>786.5</ele>
        <time>2025-05-15T11:03:03Z</time>
      </trkpt>
      <trkpt lat="42.383750025182962" lon="2.529946966096759">
        <ele>786.5</ele>
        <time>2025-05-15T11:03:04Z</time>
      </trkpt>
      <trkpt lat="42.383881034329534" lon="2.529966998845339">
        <ele>786.5</ele>
        <time>2025-05-15T11:03:05Z</time>
      </trkpt>
      <trkpt lat="42.384005002677441" lon="2.530021984130144">
        <ele>786.01999999999998</ele>
        <time>2025-05-15T11:03:06Z</time>
      </trkpt>
      <trkpt lat="42.384129976853728" lon="2.530110999941826">
        <ele>785.52999999999997</ele>
        <time>2025-05-15T11:03:07Z</time>
      </trkpt>
      <trkpt lat="42.3842419590801" lon="2.530231028795242">
        <ele>785.52999999999997</ele>
        <time>2025-05-15T11:03:08Z</time>
      </trkpt>
      <trkpt lat="42.384345978498459" lon="2.530340999364853">
        <ele>785.04999999999995</ele>
        <time>2025-05-15T11:03:09Z</time>
      </trkpt>
      <trkpt lat="42.384440023452044" lon="2.530460022389889">
        <ele>784.57000000000005</ele>
        <time>2025-05-15T11:03:10Z</time>
      </trkpt>
      <trkpt lat="42.384524010121822" lon="2.530620032921433">
        <ele>784.57000000000005</ele>
        <time>2025-05-15T11:03:11Z</time>
      </trkpt>
      <trkpt lat="42.384615959599614" lon="2.530793035402894">
        <ele>784.57000000000005</ele>
        <time>2025-05-15T11:03:12Z</time>
      </trkpt>
      <trkpt lat="42.385062966495752" lon="2.53166601061821">
        <ele>784.57000000000005</ele>
        <time>2025-05-15T11:03:17Z</time>
      </trkpt>
      <trkpt lat="42.385168997570872" lon="2.531876983121038">
        <ele>785.04999999999995</ele>
        <time>2025-05-15T11:03:18Z</time>
      </trkpt>
      <trkpt lat="42.385168997570872" lon="2.532055014744401">
        <ele>784.57000000000005</ele>
        <time>2025-05-15T11:03:19Z</time>
      </trkpt>
      <trkpt lat="42.385168997570872" lon="2.532271016389132">
        <ele>784.57000000000005</ele>
        <time>2025-05-15T11:03:20Z</time>
      </trkpt>
      <trkpt lat="42.385168997570872" lon="2.532480983063579">
        <ele>784.57000000000005</ele>
        <time>2025-05-15T11:03:21Z</time>
      </trkpt>
      <trkpt lat="42.385168997570872" lon="2.532692961394787">
        <ele>785.04999999999995</ele>
        <time>2025-05-15T11:03:22Z</time>
      </trkpt>
      <trkpt lat="42.385168997570872" lon="2.53289395943284">
        <ele>784.57000000000005</ele>
        <time>2025-05-15T11:03:23Z</time>
      </trkpt>
      <trkpt lat="42.385168997570872" lon="2.533240970224142">
        <ele>784.57000000000005</ele>
        <time>2025-05-15T11:03:25Z</time>
      </trkpt>
      <trkpt lat="42.385236974805593" lon="2.533391006290913">
        <ele>784.09000000000003</ele>
        <time>2025-05-15T11:03:26Z</time>
      </trkpt>
      <trkpt lat="42.385325990617275" lon="2.533491002395749">
        <ele>784.09000000000003</ele>
        <time>2025-05-15T11:03:27Z</time>
      </trkpt>
      <trkpt lat="42.385430010035634" lon="2.533592004328966">
        <ele>784.09000000000003</ele>
        <time>2025-05-15T11:03:28Z</time>
      </trkpt>
      <trkpt lat="42.385538974776864" lon="2.533696023747325">
        <ele>784.09000000000003</ele>
        <time>2025-05-15T11:03:29Z</time>
      </trkpt>
      <trkpt lat="42.385652968659997" lon="2.533807000145316">
        <ele>784.09000000000003</ele>
        <time>2025-05-15T11:03:30Z</time>
      </trkpt>
      <trkpt lat="42.385766040533781" lon="2.533915964886546">
        <ele>783.61000000000001</ele>
        <time>2025-05-15T11:03:31Z</time>
      </trkpt>
      <trkpt lat="42.38587399944663" lon="2.534019984304905">
        <ele>783.61000000000001</ele>
        <time>2025-05-15T11:03:32Z</time>
      </trkpt>
      <trkpt lat="42.385952034965158" lon="2.534146970137954">
        <ele>783.61000000000001</ele>
        <time>2025-05-15T11:03:33Z</time>
      </trkpt>
      <trkpt lat="42.386019006371498" lon="2.534274039790034">
        <ele>783.61000000000001</ele>
        <time>2025-05-15T11:03:34Z</time>
      </trkpt>
      <trkpt lat="42.386082038283348" lon="2.5343949906528">
        <ele>783.13</ele>
        <time>2025-05-15T11:03:35Z</time>
      </trkpt>
      <trkpt lat="42.386137023568153" lon="2.534532034769654">
        <ele>782.64999999999998</ele>
        <time>2025-05-15T11:03:36Z</time>
      </trkpt>
      <trkpt lat="42.386150015518069" lon="2.534686010330916">
        <ele>782.64999999999998</ele>
        <time>2025-05-15T11:03:37Z</time>
      </trkpt>
      <trkpt lat="42.386165019124746" lon="2.534863036125898">
        <ele>782.64999999999998</ele>
        <time>2025-05-15T11:03:38Z</time>
      </trkpt>
      <trkpt lat="42.386165019124746" lon="2.535071996971965">
        <ele>783.13</ele>
        <time>2025-05-15T11:03:39Z</time>
      </trkpt>
      <trkpt lat="42.386133000254631" lon="2.535246005281806">
        <ele>783.13</ele>
        <time>2025-05-15T11:03:40Z</time>
      </trkpt>
      <trkpt lat="42.386100981384516" lon="2.535412972792983">
        <ele>784.09000000000003</ele>
        <time>2025-05-15T11:03:41Z</time>
      </trkpt>
      <trkpt lat="42.386070974171162" lon="2.535574994981289">
        <ele>784.09000000000003</ele>
        <time>2025-05-15T11:03:42Z</time>
      </trkpt>
      <trkpt lat="42.386018000543118" lon="2.535746991634369">
        <ele>784.09000000000003</ele>
        <time>2025-05-15T11:03:43Z</time>
      </trkpt>
      <trkpt lat="42.385948011651635" lon="2.535864003002644">
        <ele>784.57000000000005</ele>
        <time>2025-05-15T11:03:44Z</time>
      </trkpt>
      <trkpt lat="42.385869976133108" lon="2.535993000492454">
        <ele>785.04999999999995</ele>
        <time>2025-05-15T11:03:45Z</time>
      </trkpt>
      <trkpt lat="42.385625978931785" lon="2.536400025710464">
        <ele>785.52999999999997</ele>
        <time>2025-05-15T11:03:48Z</time>
      </trkpt>
      <trkpt lat="42.385476026684046" lon="2.536648968234658">
        <ele>785.04999999999995</ele>
        <time>2025-05-15T11:03:50Z</time>
      </trkpt>
      <trkpt lat="42.385434033349156" lon="2.536781989037991">
        <ele>784.57000000000005</ele>
        <time>2025-05-15T11:03:51Z</time>
      </trkpt>
      <trkpt lat="42.385393967851996" lon="2.536917021498084">
        <ele>783.61000000000001</ele>
        <time>2025-05-15T11:03:52Z</time>
      </trkpt>
      <trkpt lat="42.385362032800913" lon="2.537025986239314">
        <ele>783.13</ele>
        <time>2025-05-15T11:03:53Z</time>
      </trkpt>
      <trkpt lat="42.385398996993899" lon="2.537148026749492">
        <ele>782.16999999999996</ele>
        <time>2025-05-15T11:03:54Z</time>
      </trkpt>
      <trkpt lat="42.385438978672028" lon="2.537280041724443">
        <ele>781.69000000000005</ele>
        <time>2025-05-15T11:03:55Z</time>
      </trkpt>
      <trkpt lat="42.385478960350156" lon="2.537410967051983">
        <ele>781.21000000000004</ele>
        <time>2025-05-15T11:03:56Z</time>
      </trkpt>
      <trkpt lat="42.385511985048652" lon="2.537520015612245">
        <ele>780.73000000000002</ele>
        <time>2025-05-15T11:03:57Z</time>
      </trkpt>
      <trkpt lat="42.385541992262006" lon="2.537662005051971">
        <ele>780.25</ele>
        <time>2025-05-15T11:03:58Z</time>
      </trkpt>
      <trkpt lat="42.385576022788882" lon="2.537820003926754">
        <ele>779.76999999999998</ele>
        <time>2025-05-15T11:03:59Z</time>
      </trkpt>
      <trkpt lat="42.385532017797232" lon="2.537931986153126">
        <ele>779.28999999999996</ele>
        <time>2025-05-15T11:04:00Z</time>
      </trkpt>
      <trkpt lat="42.385466974228621" lon="2.538076993077993">
        <ele>779.28999999999996</ele>
        <time>2025-05-15T11:04:01Z</time>
      </trkpt>
      <trkpt lat="42.385380975902081" lon="2.538226023316383">
        <ele>779.28999999999996</ele>
        <time>2025-05-15T11:04:02Z</time>
      </trkpt>
      <trkpt lat="42.384714027866721" lon="2.539521027356386">
        <ele>778.80999999999995</ele>
        <time>2025-05-15T11:04:09Z</time>
      </trkpt>
      <trkpt lat="42.384552005678415" lon="2.539865020662546">
        <ele>778.32000000000005</ele>
        <time>2025-05-15T11:04:11Z</time>
      </trkpt>
      <trkpt lat="42.384447986260056" lon="2.540006004273891">
        <ele>777.84000000000003</ele>
        <time>2025-05-15T11:04:12Z</time>
      </trkpt>
      <trkpt lat="42.384342961013317" lon="2.540121003985405">
        <ele>777.36000000000001</ele>
        <time>2025-05-15T11:04:13Z</time>
      </trkpt>
      <trkpt lat="42.384273977950215" lon="2.54028202034533">
        <ele>777.36000000000001</ele>
        <time>2025-05-15T11:04:14Z</time>
      </trkpt>
      <trkpt lat="42.384254029020667" lon="2.540423003956676">
        <ele>776.88</ele>
        <time>2025-05-15T11:04:15Z</time>
      </trkpt>
      <trkpt lat="42.384267020970583" lon="2.540576979517937">
        <ele>775.91999999999996</ele>
        <time>2025-05-15T11:04:16Z</time>
      </trkpt>
      <trkpt lat="42.384305996820331" lon="2.540727015584707">
        <ele>775.44000000000005</ele>
        <time>2025-05-15T11:04:17Z</time>
      </trkpt>
      <trkpt lat="42.384398030117154" lon="2.540874034166336">
        <ele>774.96000000000004</ele>
        <time>2025-05-15T11:04:18Z</time>
      </trkpt>
      <trkpt lat="42.384518980979919" lon="2.541002025827766">
        <ele>774.48000000000002</ele>
        <time>2025-05-15T11:04:19Z</time>
      </trkpt>
      <trkpt lat="42.384655019268394" lon="2.541146026924253">
        <ele>774</ele>
        <time>2025-05-15T11:04:20Z</time>
      </trkpt>
      <trkpt lat="42.384954001754522" lon="2.541384994983673">
        <ele>773.03999999999996</ele>
        <time>2025-05-15T11:04:22Z</time>
      </trkpt>
      <trkpt lat="42.38511904142797" lon="2.541479961946607">
        <ele>772.55999999999995</ele>
        <time>2025-05-15T11:04:23Z</time>
      </trkpt>
      <trkpt lat="42.385285003110766" lon="2.541512986645103">
        <ele>772.08000000000004</ele>
        <time>2025-05-15T11:04:24Z</time>
      </trkpt>
      <trkpt lat="42.386010959744453" lon="2.54165799356997">
        <ele>769.19000000000005</ele>
        <time>2025-05-15T11:04:28Z</time>
      </trkpt>
      <trkpt lat="42.386354031041265" lon="2.541726976633072">
        <ele>767.26999999999998</ele>
        <time>2025-05-15T11:04:30Z</time>
      </trkpt>
      <trkpt lat="42.386456038802862" lon="2.541747009381652">
        <ele>766.30999999999995</ele>
        <time>2025-05-15T11:04:31Z</time>
      </trkpt>
      <trkpt lat="42.386642033234239" lon="2.541858991608024">
        <ele>765.35000000000002</ele>
        <time>2025-05-15T11:04:32Z</time>
      </trkpt>
      <trkpt lat="42.386885024607182" lon="2.542005004361272">
        <ele>764.38999999999999</ele>
        <time>2025-05-15T11:04:33Z</time>
      </trkpt>
      <trkpt lat="42.386888964101672" lon="2.542011961340904">
        <ele>763.41999999999996</ele>
        <time>2025-05-15T11:04:34Z</time>
      </trkpt>
      <trkpt lat="42.386975968256593" lon="2.542161997407675">
        <ele>762.46000000000004</ele>
        <time>2025-05-15T11:04:35Z</time>
      </trkpt>
      <trkpt lat="42.387071019038558" lon="2.542325025424361">
        <ele>761.01999999999998</ele>
        <time>2025-05-15T11:04:36Z</time>
      </trkpt>
      <trkpt lat="42.387164980173111" lon="2.542554019019008">
        <ele>760.05999999999995</ele>
        <time>2025-05-15T11:04:37Z</time>
      </trkpt>
      <trkpt lat="42.387305963784456" lon="2.543009994551539">
        <ele>758.13999999999999</ele>
        <time>2025-05-15T11:04:39Z</time>
      </trkpt>
      <trkpt lat="42.387370001524687" lon="2.543218033388257">
        <ele>757.65999999999997</ele>
        <time>2025-05-15T11:04:40Z</time>
      </trkpt>
      <trkpt lat="42.387414006516337" lon="2.543464964255691">
        <ele>757.17999999999995</ele>
        <time>2025-05-15T11:04:41Z</time>
      </trkpt>
      <trkpt lat="42.387434961274266" lon="2.543694041669369">
        <ele>756.21000000000004</ele>
        <time>2025-05-15T11:04:42Z</time>
      </trkpt>
      <trkpt lat="42.387443007901311" lon="2.543921023607254">
        <ele>755.25</ele>
        <time>2025-05-15T11:04:43Z</time>
      </trkpt>
      <trkpt lat="42.387444013729692" lon="2.544044991955161">
        <ele>754.76999999999998</ele>
        <time>2025-05-15T11:04:44Z</time>
      </trkpt>
      <trkpt lat="42.38750696182251" lon="2.544150017201901">
        <ele>753.80999999999995</ele>
        <time>2025-05-15T11:04:45Z</time>
      </trkpt>
      <trkpt lat="42.387584997341037" lon="2.544220006093383">
        <ele>753.33000000000004</ele>
        <time>2025-05-15T11:04:46Z</time>
      </trkpt>
      <trkpt lat="42.387722041457891" lon="2.54434397444129">
        <ele>753.33000000000004</ele>
        <time>2025-05-15T11:04:47Z</time>
      </trkpt>
      <trkpt lat="42.387837041169405" lon="2.544382028281689">
        <ele>752.85000000000002</ele>
        <time>2025-05-15T11:04:48Z</time>
      </trkpt>
      <trkpt lat="42.388299973681569" lon="2.54453600384295">
        <ele>751.88999999999999</ele>
        <time>2025-05-15T11:04:51Z</time>
      </trkpt>
      <trkpt lat="42.388479011133313" lon="2.544570034369826">
        <ele>751.88999999999999</ele>
        <time>2025-05-15T11:04:52Z</time>
      </trkpt>
      <trkpt lat="42.389195999130607" lon="2.544454028829932">
        <ele>751.88999999999999</ele>
        <time>2025-05-15T11:04:57Z</time>
      </trkpt>
      <trkpt lat="42.389307981356978" lon="2.544473977759481">
        <ele>752.37</ele>
        <time>2025-05-15T11:04:58Z</time>
      </trkpt>
      <trkpt lat="42.389407977461815" lon="2.544500967487693">
        <ele>752.37</ele>
        <time>2025-05-15T11:04:59Z</time>
      </trkpt>
      <trkpt lat="42.389508979395032" lon="2.544596018269658">
        <ele>752.37</ele>
        <time>2025-05-15T11:05:00Z</time>
      </trkpt>
      <trkpt lat="42.38954502157867" lon="2.544747982174158">
        <ele>752.85000000000002</ele>
        <time>2025-05-15T11:05:01Z</time>
      </trkpt>
      <trkpt lat="42.38956899382174" lon="2.544897012412548">
        <ele>752.85000000000002</ele>
        <time>2025-05-15T11:05:02Z</time>
      </trkpt>
      <trkpt lat="42.389595983549953" lon="2.545063979923725">
        <ele>753.33000000000004</ele>
        <time>2025-05-15T11:05:03Z</time>
      </trkpt>
      <trkpt lat="42.389623979106545" lon="2.545242011547089">
        <ele>753.33000000000004</ele>
        <time>2025-05-15T11:05:04Z</time>
      </trkpt>
      <trkpt lat="42.389620961621404" lon="2.545431023463607">
        <ele>752.85000000000002</ele>
        <time>2025-05-15T11:05:05Z</time>
      </trkpt>
      <trkpt lat="42.389600006863475" lon="2.545605031773448">
        <ele>752.85000000000002</ele>
        <time>2025-05-15T11:05:06Z</time>
      </trkpt>
      <trkpt lat="42.389561031013727" lon="2.545749032869935">
        <ele>752.85000000000002</ele>
        <time>2025-05-15T11:05:07Z</time>
      </trkpt>
      <trkpt lat="42.389496993273497" lon="2.545876018702984">
        <ele>753.33000000000004</ele>
        <time>2025-05-15T11:05:08Z</time>
      </trkpt>
      <trkpt lat="42.389419041574001" lon="2.545993030071259">
        <ele>753.33000000000004</ele>
        <time>2025-05-15T11:05:09Z</time>
      </trkpt>
      <trkpt lat="42.389346035197377" lon="2.546101994812489">
        <ele>752.85000000000002</ele>
        <time>2025-05-15T11:05:10Z</time>
      </trkpt>
      <trkpt lat="42.389221983030438" lon="2.546288995072246">
        <ele>751.88999999999999</ele>
        <time>2025-05-15T11:05:12Z</time>
      </trkpt>
      <trkpt lat="42.389174960553646" lon="2.546357978135347">
        <ele>751.40999999999997</ele>
        <time>2025-05-15T11:05:13Z</time>
      </trkpt>
      <trkpt lat="42.389130033552647" lon="2.546459985896945">
        <ele>750.92999999999995</ele>
        <time>2025-05-15T11:05:14Z</time>
      </trkpt>
      <trkpt lat="42.389184013009071" lon="2.54651396535337">
        <ele>749.97000000000003</ele>
        <time>2025-05-15T11:05:15Z</time>
      </trkpt>
      <trkpt lat="42.389298006892204" lon="2.546547995880246">
        <ele>749.49000000000001</ele>
        <time>2025-05-15T11:05:16Z</time>
      </trkpt>
      <trkpt lat="42.389418035745621" lon="2.546572973951697">
        <ele>749</ele>
        <time>2025-05-15T11:05:17Z</time>
      </trkpt>
      <trkpt lat="42.390204006806016" lon="2.546744970604777">
        <ele>745.63999999999999</ele>
        <time>2025-05-15T11:05:22Z</time>
      </trkpt>
      <trkpt lat="42.390735000371933" lon="2.546860976144671">
        <ele>741.78999999999996</ele>
        <time>2025-05-15T11:05:26Z</time>
      </trkpt>
      <trkpt lat="42.390842037275434" lon="2.546885032206774">
        <ele>740.83000000000004</ele>
        <time>2025-05-15T11:05:27Z</time>
      </trkpt>
      <trkpt lat="42.390912026166916" lon="2.546860976144671">
        <ele>740.35000000000002</ele>
        <time>2025-05-15T11:05:28Z</time>
      </trkpt>
      <trkpt lat="42.390949996188283" lon="2.546759974211454">
        <ele>740.35000000000002</ele>
        <time>2025-05-15T11:05:29Z</time>
      </trkpt>
      <trkpt lat="42.391000958159566" lon="2.546627037227154">
        <ele>739.87</ele>
        <time>2025-05-15T11:05:30Z</time>
      </trkpt>
      <trkpt lat="42.391058960929513" lon="2.546475995332003">
        <ele>739.38999999999999</ele>
        <time>2025-05-15T11:05:31Z</time>
      </trkpt>
      <trkpt lat="42.391121992841363" lon="2.546311039477587">
        <ele>738.42999999999995</ele>
        <time>2025-05-15T11:05:32Z</time>
      </trkpt>
      <trkpt lat="42.391192987561226" lon="2.546138959005475">
        <ele>737.95000000000005</ele>
        <time>2025-05-15T11:05:33Z</time>
      </trkpt>
      <trkpt lat="42.391531029716134" lon="2.545558009296656">
        <ele>735.07000000000005</ele>
        <time>2025-05-15T11:05:37Z</time>
      </trkpt>
      <trkpt lat="42.39163001999259" lon="2.545448960736394">
        <ele>734.58000000000004</ele>
        <time>2025-05-15T11:05:38Z</time>
      </trkpt>
      <trkpt lat="42.391726998612285" lon="2.545371009036899">
        <ele>734.10000000000002</ele>
        <time>2025-05-15T11:05:39Z</time>
      </trkpt>
      <trkpt lat="42.391876028850675" lon="2.545343013480306">
        <ele>734.10000000000002</ele>
        <time>2025-05-15T11:05:40Z</time>
      </trkpt>
      <trkpt lat="42.392007037997246" lon="2.545360028743744">
        <ele>733.62</ele>
        <time>2025-05-15T11:05:41Z</time>
      </trkpt>
      <trkpt lat="42.392150033265352" lon="2.545378971844912">
        <ele>733.13999999999999</ele>
        <time>2025-05-15T11:05:42Z</time>
      </trkpt>
      <trkpt lat="42.392308032140136" lon="2.545418031513691">
        <ele>732.65999999999997</ele>
        <time>2025-05-15T11:05:43Z</time>
      </trkpt>
      <trkpt lat="42.392442980781198" lon="2.545504029840231">
        <ele>731.70000000000005</ele>
        <time>2025-05-15T11:05:44Z</time>
      </trkpt>
      <trkpt lat="42.392562003806233" lon="2.545660017058253">
        <ele>731.22000000000003</ele>
        <time>2025-05-15T11:05:45Z</time>
      </trkpt>
      <trkpt lat="42.392638027667999" lon="2.545819021761417">
        <ele>730.25999999999999</ele>
        <time>2025-05-15T11:05:46Z</time>
      </trkpt>
      <trkpt lat="42.392718996852636" lon="2.545986995100975">
        <ele>729.77999999999997</ele>
        <time>2025-05-15T11:05:47Z</time>
      </trkpt>
      <trkpt lat="42.392799966037273" lon="2.546156980097294">
        <ele>729.29999999999995</ele>
        <time>2025-05-15T11:05:48Z</time>
      </trkpt>
      <trkpt lat="42.392885964363813" lon="2.546336017549038">
        <ele>729.29999999999995</ele>
        <time>2025-05-15T11:05:49Z</time>
      </trkpt>
      <trkpt lat="42.392974980175495" lon="2.546522011980414">
        <ele>728.82000000000005</ele>
        <time>2025-05-15T11:05:50Z</time>
      </trkpt>
      <trkpt lat="42.393061984330416" lon="2.54668302834034">
        <ele>728.34000000000003</ele>
        <time>2025-05-15T11:05:51Z</time>
      </trkpt>
      <trkpt lat="42.393148988485336" lon="2.546786963939667">
        <ele>728.34000000000003</ele>
        <time>2025-05-15T11:05:52Z</time>
      </trkpt>
      <trkpt lat="42.393248984590173" lon="2.546887965872884">
        <ele>727.86000000000001</ele>
        <time>2025-05-15T11:05:53Z</time>
      </trkpt>
      <trkpt lat="42.393330037593842" lon="2.546969018876553">
        <ele>727.86000000000001</ele>
        <time>2025-05-15T11:05:54Z</time>
      </trkpt>
      <trkpt lat="42.393407989293337" lon="2.547046970576048">
        <ele>727.37</ele>
        <time>2025-05-15T11:05:55Z</time>
      </trkpt>
      <trkpt lat="42.393468003720045" lon="2.546975975856185">
        <ele>727.37</ele>
        <time>2025-05-15T11:05:56Z</time>
      </trkpt>
      <trkpt lat="42.393530029803514" lon="2.54685896448791">
        <ele>727.37</ele>
        <time>2025-05-15T11:05:57Z</time>
      </trkpt>
      <trkpt lat="42.39356498233974" lon="2.546712029725313">
        <ele>726.88999999999999</ele>
        <time>2025-05-15T11:05:58Z</time>
      </trkpt>
      <trkpt lat="42.393601024523377" lon="2.546560987830162">
        <ele>726.40999999999997</ele>
        <time>2025-05-15T11:05:59Z</time>
      </trkpt>
      <trkpt lat="42.393755000084639" lon="2.546153040602803">
        <ele>725.45000000000005</ele>
        <time>2025-05-15T11:06:02Z</time>
      </trkpt>
      <trkpt lat="42.393794981762767" lon="2.546060001477599">
        <ele>725.45000000000005</ele>
        <time>2025-05-15T11:06:03Z</time>
      </trkpt>
      <trkpt lat="42.393889026716352" lon="2.546043992042542">
        <ele>724.97000000000003</ele>
        <time>2025-05-15T11:06:04Z</time>
      </trkpt>
      <trkpt lat="42.393966978415847" lon="2.546060001477599">
        <ele>724.49000000000001</ele>
        <time>2025-05-15T11:06:05Z</time>
      </trkpt>
      <trkpt lat="42.394087007269263" lon="2.546120015904307">
        <ele>724.49000000000001</ele>
        <time>2025-05-15T11:06:06Z</time>
      </trkpt>
      <trkpt lat="42.394212987273932" lon="2.546198973432183">
        <ele>724.49000000000001</ele>
        <time>2025-05-15T11:06:07Z</time>
      </trkpt>
      <trkpt lat="42.394349025562406" lon="2.546283965930343">
        <ele>724.00999999999999</ele>
        <time>2025-05-15T11:06:08Z</time>
      </trkpt>
      <trkpt lat="42.394506018608809" lon="2.54638203419745">
        <ele>724.00999999999999</ele>
        <time>2025-05-15T11:06:09Z</time>
      </trkpt>
      <trkpt lat="42.394658988341689" lon="2.546401983126998">
        <ele>724.00999999999999</ele>
        <time>2025-05-15T11:06:10Z</time>
      </trkpt>
      <trkpt lat="42.394798966124654" lon="2.546421010047197">
        <ele>723.52999999999997</ele>
        <time>2025-05-15T11:06:11Z</time>
      </trkpt>
      <trkpt lat="42.394925029948354" lon="2.546437019482255">
        <ele>723.04999999999995</ele>
        <time>2025-05-15T11:06:12Z</time>
      </trkpt>
      <trkpt lat="42.395043969154358" lon="2.54649099893868">
        <ele>722.09000000000003</ele>
        <time>2025-05-15T11:06:13Z</time>
      </trkpt>
      <trkpt lat="42.395163998007774" lon="2.54660096950829">
        <ele>721.13</ele>
        <time>2025-05-15T11:06:14Z</time>
      </trkpt>
      <trkpt lat="42.395295007154346" lon="2.546747988089919">
        <ele>719.67999999999995</ele>
        <time>2025-05-15T11:06:15Z</time>
      </trkpt>
      <trkpt lat="42.395385028794408" lon="2.546949991956353">
        <ele>718.24000000000001</ele>
        <time>2025-05-15T11:06:16Z</time>
      </trkpt>
      <trkpt lat="42.395449988543987" lon="2.547164987772703">
        <ele>716.79999999999995</ele>
        <time>2025-05-15T11:06:17Z</time>
      </trkpt>
      <trkpt lat="42.395510002970695" lon="2.547363974153996">
        <ele>715.84000000000003</ele>
        <time>2025-05-15T11:06:18Z</time>
      </trkpt>
      <trkpt lat="42.395549984648824" lon="2.547747027128935">
        <ele>713.91999999999996</ele>
        <time>2025-05-15T11:06:20Z</time>
      </trkpt>
      <trkpt lat="42.395575968548656" lon="2.547991024330258">
        <ele>712.95000000000005</ele>
        <time>2025-05-15T11:06:21Z</time>
      </trkpt>
      <trkpt lat="42.395542021840811" lon="2.548132007941604">
        <ele>711.99000000000001</ele>
        <time>2025-05-15T11:06:22Z</time>
      </trkpt>
      <trkpt lat="42.395382011309266" lon="2.548834998160601">
        <ele>708.14999999999998</ele>
        <time>2025-05-15T11:06:26Z</time>
      </trkpt>
      <trkpt lat="42.395382011309266" lon="2.548992997035384">
        <ele>707.19000000000005</ele>
        <time>2025-05-15T11:06:27Z</time>
      </trkpt>
      <trkpt lat="42.395417969673872" lon="2.549162982031703">
        <ele>706.23000000000002</ele>
        <time>2025-05-15T11:06:28Z</time>
      </trkpt>
      <trkpt lat="42.395572029054165" lon="2.54965097643435">
        <ele>703.34000000000003</ele>
        <time>2025-05-15T11:06:31Z</time>
      </trkpt>
      <trkpt lat="42.395559037104249" lon="2.549811992794275">
        <ele>702.86000000000001</ele>
        <time>2025-05-15T11:06:32Z</time>
      </trkpt>
      <trkpt lat="42.395537998527288" lon="2.549960017204285">
        <ele>702.38</ele>
        <time>2025-05-15T11:06:33Z</time>
      </trkpt>
      <trkpt lat="42.395505979657173" lon="2.550119021907449">
        <ele>701.41999999999996</ele>
        <time>2025-05-15T11:06:34Z</time>
      </trkpt>
      <trkpt lat="42.395472032949328" lon="2.550292024388909">
        <ele>700.94000000000005</ele>
        <time>2025-05-15T11:06:35Z</time>
      </trkpt>
      <trkpt lat="42.394964005798101" lon="2.551542017608881">
        <ele>697.09000000000003</ele>
        <time>2025-05-15T11:06:42Z</time>
      </trkpt>
      <trkpt lat="42.394953025504947" lon="2.551721977069974">
        <ele>696.13</ele>
        <time>2025-05-15T11:06:43Z</time>
      </trkpt>
      <trkpt lat="42.394970040768385" lon="2.551872013136745">
        <ele>695.16999999999996</ele>
        <time>2025-05-15T11:06:44Z</time>
      </trkpt>
      <trkpt lat="42.395001975819468" lon="2.551982989534736">
        <ele>694.69000000000005</ele>
        <time>2025-05-15T11:06:45Z</time>
      </trkpt>
      <trkpt lat="42.395031983032823" lon="2.552092038094997">
        <ele>694.69000000000005</ele>
        <time>2025-05-15T11:06:46Z</time>
      </trkpt>
      <trkpt lat="42.395061990246177" lon="2.552197985351086">
        <ele>694.21000000000004</ele>
        <time>2025-05-15T11:06:47Z</time>
      </trkpt>
      <trkpt lat="42.395091997459531" lon="2.552306028082967">
        <ele>694.21000000000004</ele>
        <time>2025-05-15T11:06:48Z</time>
      </trkpt>
      <trkpt lat="42.395147988572717" lon="2.552410969510675">
        <ele>694.21000000000004</ele>
        <time>2025-05-15T11:06:49Z</time>
      </trkpt>
      <trkpt lat="42.395212026312947" lon="2.552504008635879">
        <ele>693.73000000000002</ele>
        <time>2025-05-15T11:06:50Z</time>
      </trkpt>
      <trkpt lat="42.395278997719288" lon="2.552600987255573">
        <ele>693.73000000000002</ele>
        <time>2025-05-15T11:06:51Z</time>
      </trkpt>
      <trkpt lat="42.395372036844492" lon="2.552667036652565">
        <ele>693.73000000000002</ele>
        <time>2025-05-15T11:06:52Z</time>
      </trkpt>
      <trkpt lat="42.395465997979045" lon="2.552717998623848">
        <ele>693.73000000000002</ele>
        <time>2025-05-15T11:06:53Z</time>
      </trkpt>
      <trkpt lat="42.395559037104249" lon="2.552768960595131">
        <ele>693.73000000000002</ele>
        <time>2025-05-15T11:06:54Z</time>
      </trkpt>
      <trkpt lat="42.395647969096899" lon="2.552817994728684">
        <ele>693.73000000000002</ele>
        <time>2025-05-15T11:06:55Z</time>
      </trkpt>
      <trkpt lat="42.395737990736961" lon="2.552867028862238">
        <ele>693.73000000000002</ele>
        <time>2025-05-15T11:06:56Z</time>
      </trkpt>
      <trkpt lat="42.395833041518927" lon="2.552918996661902">
        <ele>693.73000000000002</ele>
        <time>2025-05-15T11:06:57Z</time>
      </trkpt>
      <trkpt lat="42.395921973511577" lon="2.552967024967074">
        <ele>693.73000000000002</ele>
        <time>2025-05-15T11:06:58Z</time>
      </trkpt>
      <trkpt lat="42.396000009030104" lon="2.553010024130344">
        <ele>693.73000000000002</ele>
        <time>2025-05-15T11:06:59Z</time>
      </trkpt>
      <trkpt lat="42.396069997921586" lon="2.553078001365066">
        <ele>693.73000000000002</ele>
        <time>2025-05-15T11:07:00Z</time>
      </trkpt>
      <trkpt lat="42.396138980984688" lon="2.55315100774169">
        <ele>693.73000000000002</ele>
        <time>2025-05-15T11:07:01Z</time>
      </trkpt>
      <trkpt lat="42.39620896987617" lon="2.553231976926327">
        <ele>693.25</ele>
        <time>2025-05-15T11:07:02Z</time>
      </trkpt>
      <trkpt lat="42.396497977897525" lon="2.553536994382739">
        <ele>692.28999999999996</ele>
        <time>2025-05-15T11:07:06Z</time>
      </trkpt>
      <trkpt lat="42.396578025072813" lon="2.553606983274221">
        <ele>692.28999999999996</ele>
        <time>2025-05-15T11:07:07Z</time>
      </trkpt>
      <trkpt lat="42.396669974550605" lon="2.553632967174053">
        <ele>692.28999999999996</ele>
        <time>2025-05-15T11:07:08Z</time>
      </trkpt>
      <trkpt lat="42.396759996190667" lon="2.553654005751014">
        <ele>692.28999999999996</ele>
        <time>2025-05-15T11:07:09Z</time>
      </trkpt>
      <trkpt lat="42.396849012002349" lon="2.553674960508943">
        <ele>692.28999999999996</ele>
        <time>2025-05-15T11:07:10Z</time>
      </trkpt>
      <trkpt lat="42.397788036614656" lon="2.553933039307594">
        <ele>687.96000000000004</ele>
        <time>2025-05-15T11:07:22Z</time>
      </trkpt>
      <trkpt lat="42.397844027727842" lon="2.553976960480213">
        <ele>687.48000000000002</ele>
        <time>2025-05-15T11:07:23Z</time>
      </trkpt>
      <trkpt lat="42.397902030497789" lon="2.554048039019108">
        <ele>687</ele>
        <time>2025-05-15T11:07:24Z</time>
      </trkpt>
      <trkpt lat="42.398129012435675" lon="2.554385997354984">
        <ele>687</ele>
        <time>2025-05-15T11:07:28Z</time>
      </trkpt>
      <trkpt lat="42.398245017975569" lon="2.554451962932944">
        <ele>686.51999999999998</ele>
        <time>2025-05-15T11:07:29Z</time>
      </trkpt>
      <trkpt lat="42.398329004645348" lon="2.554480964317918">
        <ele>686.51999999999998</ele>
        <time>2025-05-15T11:07:30Z</time>
      </trkpt>
      <trkpt lat="42.398422965779901" lon="2.554499991238117">
        <ele>686.03999999999996</ele>
        <time>2025-05-15T11:07:31Z</time>
      </trkpt>
      <trkpt lat="42.398508964106441" lon="2.554517006501555">
        <ele>685.08000000000004</ele>
        <time>2025-05-15T11:07:32Z</time>
      </trkpt>
      <trkpt lat="42.398600997403264" lon="2.554536033421755">
        <ele>684.60000000000002</ele>
        <time>2025-05-15T11:07:33Z</time>
      </trkpt>
      <trkpt lat="42.398666040971875" lon="2.554564028978348">
        <ele>683.63</ele>
        <time>2025-05-15T11:07:34Z</time>
      </trkpt>
      <trkpt lat="42.398752961307764" lon="2.554600993171334">
        <ele>683.14999999999998</ele>
        <time>2025-05-15T11:07:35Z</time>
      </trkpt>
      <trkpt lat="42.398838037624955" lon="2.554654972627759">
        <ele>682.19000000000005</ele>
        <time>2025-05-15T11:07:36Z</time>
      </trkpt>
      <trkpt lat="42.398933004587889" lon="2.554714987054467">
        <ele>681.23000000000002</ele>
        <time>2025-05-15T11:07:37Z</time>
      </trkpt>
      <trkpt lat="42.399033000692725" lon="2.554779024794698">
        <ele>680.75</ele>
        <time>2025-05-15T11:07:38Z</time>
      </trkpt>
      <trkpt lat="42.399135008454323" lon="2.554842978715897">
        <ele>679.78999999999996</ele>
        <time>2025-05-15T11:07:39Z</time>
      </trkpt>
      <trkpt lat="42.399523006752133" lon="2.555032996460795">
        <ele>677.87</ele>
        <time>2025-05-15T11:07:43Z</time>
      </trkpt>
      <trkpt lat="42.399615040048957" lon="2.555052023380995">
        <ele>677.38999999999999</ele>
        <time>2025-05-15T11:07:44Z</time>
      </trkpt>
      <trkpt lat="42.399706989526749" lon="2.555069960653782">
        <ele>677.38999999999999</ele>
        <time>2025-05-15T11:07:45Z</time>
      </trkpt>
      <trkpt lat="42.399998009204865" lon="2.555112037807703">
        <ele>676.90999999999997</ele>
        <time>2025-05-15T11:07:48Z</time>
      </trkpt>
      <trkpt lat="42.400077972561121" lon="2.555111031979322">
        <ele>676.90999999999997</ele>
        <time>2025-05-15T11:07:49Z</time>
      </trkpt>
      <trkpt lat="42.400175034999847" lon="2.555102985352278">
        <ele>676.41999999999996</ele>
        <time>2025-05-15T11:07:50Z</time>
      </trkpt>
      <trkpt lat="42.400295985862613" lon="2.555094016715884">
        <ele>675.94000000000005</ele>
        <time>2025-05-15T11:07:51Z</time>
      </trkpt>
      <trkpt lat="42.400363041087985" lon="2.555045988410711">
        <ele>675.46000000000004</ele>
        <time>2025-05-15T11:07:52Z</time>
      </trkpt>
      <trkpt lat="42.400532020255923" lon="2.554922020062804">
        <ele>674.01999999999998</ele>
        <time>2025-05-15T11:07:54Z</time>
      </trkpt>
      <trkpt lat="42.400658000260592" lon="2.55491103976965">
        <ele>673.05999999999995</ele>
        <time>2025-05-15T11:07:55Z</time>
      </trkpt>
      <trkpt lat="42.400767970830202" lon="2.554900981485844">
        <ele>672.10000000000002</ele>
        <time>2025-05-15T11:07:56Z</time>
      </trkpt>
      <trkpt lat="42.400843994691968" lon="2.554915985092521">
        <ele>671.62</ele>
        <time>2025-05-15T11:07:57Z</time>
      </trkpt>
      <trkpt lat="42.400923036038876" lon="2.554968958720565">
        <ele>671.13999999999999</ele>
        <time>2025-05-15T11:07:58Z</time>
      </trkpt>
      <trkpt lat="42.401004005223513" lon="2.555050011724234">
        <ele>670.17999999999995</ele>
        <time>2025-05-15T11:07:59Z</time>
      </trkpt>
      <trkpt lat="42.401067037135363" lon="2.555174985900521">
        <ele>669.70000000000005</ele>
        <time>2025-05-15T11:08:00Z</time>
      </trkpt>
      <trkpt lat="42.401137026026845" lon="2.555316975340247">
        <ele>669.22000000000003</ele>
        <time>2025-05-15T11:08:01Z</time>
      </trkpt>
      <trkpt lat="42.401177007704973" lon="2.555484026670456">
        <ele>668.73000000000002</ele>
        <time>2025-05-15T11:08:02Z</time>
      </trkpt>
      <trkpt lat="42.401208020746708" lon="2.555663986131549">
        <ele>668.25</ele>
        <time>2025-05-15T11:08:03Z</time>
      </trkpt>
      <trkpt lat="42.401266023516655" lon="2.556001022458077">
        <ele>666.80999999999995</ele>
        <time>2025-05-15T11:08:05Z</time>
      </trkpt>
      <trkpt lat="42.40132000297308" lon="2.556146029382944">
        <ele>665.85000000000002</ele>
        <time>2025-05-15T11:08:06Z</time>
      </trkpt>
      <trkpt lat="42.401404995471239" lon="2.556233033537865">
        <ele>665.37</ele>
        <time>2025-05-15T11:08:07Z</time>
      </trkpt>
      <trkpt lat="42.401507003232837" lon="2.556251976639032">
        <ele>664.88999999999999</ele>
        <time>2025-05-15T11:08:08Z</time>
      </trkpt>
      <trkpt lat="42.401623008772731" lon="2.556273015215993">
        <ele>663.92999999999995</ele>
        <time>2025-05-15T11:08:09Z</time>
      </trkpt>
      <trkpt lat="42.401744965463877" lon="2.556330012157559">
        <ele>662.49000000000001</ele>
        <time>2025-05-15T11:08:10Z</time>
      </trkpt>
      <trkpt lat="42.401887038722634" lon="2.5563969835639">
        <ele>661.03999999999996</ele>
        <time>2025-05-15T11:08:11Z</time>
      </trkpt>
      <trkpt lat="42.402721038088202" lon="2.556789005175233">
        <ele>653.83000000000004</ele>
        <time>2025-05-15T11:08:17Z</time>
      </trkpt>
      <trkpt lat="42.40280200727284" lon="2.556894030421972">
        <ele>652.87</ele>
        <time>2025-05-15T11:08:18Z</time>
      </trkpt>
      <trkpt lat="42.402878031134605" lon="2.556993020698428">
        <ele>652.38999999999999</ele>
        <time>2025-05-15T11:08:19Z</time>
      </trkpt>
      <trkpt lat="42.402938967570662" lon="2.557095028460026">
        <ele>651.90999999999997</ele>
        <time>2025-05-15T11:08:20Z</time>
      </trkpt>
      <trkpt lat="42.402957994490862" lon="2.557239029556513">
        <ele>651.42999999999995</ele>
        <time>2025-05-15T11:08:21Z</time>
      </trkpt>
      <trkpt lat="42.402978027239442" lon="2.557389987632632">
        <ele>650.95000000000005</ele>
        <time>2025-05-15T11:08:22Z</time>
      </trkpt>
      <trkpt lat="42.402946008369327" lon="2.557527031749487">
        <ele>650.47000000000003</ele>
        <time>2025-05-15T11:08:23Z</time>
      </trkpt>
      <trkpt lat="42.402906026691198" lon="2.557692993432283">
        <ele>649.99000000000001</ele>
        <time>2025-05-15T11:08:24Z</time>
      </trkpt>
      <trkpt lat="42.40278197452426" lon="2.558214012533426">
        <ele>648.54999999999995</ele>
        <time>2025-05-15T11:08:27Z</time>
      </trkpt>
      <trkpt lat="42.402718020603061" lon="2.558360025286675">
        <ele>648.07000000000005</ele>
        <time>2025-05-15T11:08:28Z</time>
      </trkpt>
      <trkpt lat="42.402635039761662" lon="2.558483993634582">
        <ele>647.59000000000003</ele>
        <time>2025-05-15T11:08:29Z</time>
      </trkpt>
      <trkpt lat="42.402525991201401" lon="2.55858801305294">
        <ele>647.10000000000002</ele>
        <time>2025-05-15T11:08:30Z</time>
      </trkpt>
      <trkpt lat="42.402402022853494" lon="2.558663031086326">
        <ele>647.10000000000002</ele>
        <time>2025-05-15T11:08:31Z</time>
      </trkpt>
      <trkpt lat="42.4022669903934" lon="2.558744000270963">
        <ele>646.62</ele>
        <time>2025-05-15T11:08:32Z</time>
      </trkpt>
      <trkpt lat="42.402126006782055" lon="2.558827986940742">
        <ele>646.62</ele>
        <time>2025-05-15T11:08:33Z</time>
      </trkpt>
      <trkpt lat="42.401988040655851" lon="2.558971988037229">
        <ele>646.13999999999999</ele>
        <time>2025-05-15T11:08:34Z</time>
      </trkpt>
      <trkpt lat="42.401801962405443" lon="2.559251021593809">
        <ele>645.65999999999997</ele>
        <time>2025-05-15T11:08:36Z</time>
      </trkpt>
      <trkpt lat="42.401702972128987" lon="2.559336014091969">
        <ele>645.17999999999995</ele>
        <time>2025-05-15T11:08:37Z</time>
      </trkpt>
      <trkpt lat="42.40160096436739" lon="2.559363003820181">
        <ele>644.70000000000005</ele>
        <time>2025-05-15T11:08:38Z</time>
      </trkpt>
      <trkpt lat="42.401447994634509" lon="2.559297038242221">
        <ele>643.74000000000001</ele>
        <time>2025-05-15T11:08:40Z</time>
      </trkpt>
      <trkpt lat="42.40138404071331" lon="2.559244986623526">
        <ele>642.77999999999997</ele>
        <time>2025-05-15T11:08:41Z</time>
      </trkpt>
      <trkpt lat="42.401317991316319" lon="2.559191007167101">
        <ele>641.82000000000005</ele>
        <time>2025-05-15T11:08:42Z</time>
      </trkpt>
      <trkpt lat="42.401224030181766" lon="2.559131998568773">
        <ele>640.38</ele>
        <time>2025-05-15T11:08:43Z</time>
      </trkpt>
      <trkpt lat="42.401057984679937" lon="2.55923199467361">
        <ele>639.40999999999997</ele>
        <time>2025-05-15T11:08:44Z</time>
      </trkpt>
      <trkpt lat="42.401038035750389" lon="2.559337019920349">
        <ele>637.97000000000003</ele>
        <time>2025-05-15T11:08:45Z</time>
      </trkpt>
      <trkpt lat="42.40108204074204" lon="2.559537012130022">
        <ele>637.00999999999999</ele>
        <time>2025-05-15T11:08:46Z</time>
      </trkpt>
      <trkpt lat="42.401136020198464" lon="2.559659974649549">
        <ele>636.04999999999995</ele>
        <time>2025-05-15T11:08:47Z</time>
      </trkpt>
      <trkpt lat="42.401196034625173" lon="2.559797018766403">
        <ele>635.09000000000003</ele>
        <time>2025-05-15T11:08:48Z</time>
      </trkpt>
      <trkpt lat="42.401243979111314" lon="2.559948982670903">
        <ele>634.61000000000001</ele>
        <time>2025-05-15T11:08:49Z</time>
      </trkpt>
      <trkpt lat="42.401254959404469" lon="2.560116034001112">
        <ele>633.64999999999998</ele>
        <time>2025-05-15T11:08:50Z</time>
      </trkpt>
      <trkpt lat="42.401244984939694" lon="2.560289958491921">
        <ele>633.16999999999996</ele>
        <time>2025-05-15T11:08:51Z</time>
      </trkpt>
      <trkpt lat="42.401206009089947" lon="2.560447035357356">
        <ele>632.20000000000005</ele>
        <time>2025-05-15T11:08:52Z</time>
      </trkpt>
      <trkpt lat="42.401168961077929" lon="2.560578966513276">
        <ele>631.24000000000001</ele>
        <time>2025-05-15T11:08:53Z</time>
      </trkpt>
      <trkpt lat="42.401116993278265" lon="2.560683991760016">
        <ele>630.27999999999997</ele>
        <time>2025-05-15T11:08:54Z</time>
      </trkpt>
      <trkpt lat="42.401036024093628" lon="2.560723973438144">
        <ele>629.32000000000005</ele>
        <time>2025-05-15T11:08:55Z</time>
      </trkpt>
      <trkpt lat="42.400971986353397" lon="2.560724979266524">
        <ele>628.84000000000003</ele>
        <time>2025-05-15T11:08:56Z</time>
      </trkpt>
      <trkpt lat="42.400899985805154" lon="2.560697989538312">
        <ele>627.88</ele>
        <time>2025-05-15T11:08:57Z</time>
      </trkpt>
      <trkpt lat="42.400811975821853" lon="2.5606519728899">
        <ele>627.39999999999998</ele>
        <time>2025-05-15T11:08:58Z</time>
      </trkpt>
      <trkpt lat="42.400743998587132" lon="2.560583995655179">
        <ele>626.91999999999996</ele>
        <time>2025-05-15T11:08:59Z</time>
      </trkpt>
      <trkpt lat="42.400664035230875" lon="2.560559017583728">
        <ele>625.96000000000004</ele>
        <time>2025-05-15T11:09:00Z</time>
      </trkpt>
      <trkpt lat="42.400573007762432" lon="2.560592964291573">
        <ele>625.47000000000003</ele>
        <time>2025-05-15T11:09:01Z</time>
      </trkpt>
      <trkpt lat="42.40050695836544" lon="2.560676028952003">
        <ele>624.99000000000001</ele>
        <time>2025-05-15T11:09:02Z</time>
      </trkpt>
      <trkpt lat="42.400467982515693" lon="2.56077996455133">
        <ele>624.02999999999997</ele>
        <time>2025-05-15T11:09:03Z</time>
      </trkpt>
      <trkpt lat="42.400477034971118" lon="2.560955984517932">
        <ele>623.07000000000005</ele>
        <time>2025-05-15T11:09:04Z</time>
      </trkpt>
      <trkpt lat="42.400487009435892" lon="2.561151031404734">
        <ele>622.11000000000001</ele>
        <time>2025-05-15T11:09:05Z</time>
      </trkpt>
      <trkpt lat="42.400466976687312" lon="2.561313975602388">
        <ele>620.66999999999996</ele>
        <time>2025-05-15T11:09:06Z</time>
      </trkpt>
      <trkpt lat="42.400437975302339" lon="2.561480021104217">
        <ele>619.23000000000002</ele>
        <time>2025-05-15T11:09:07Z</time>
      </trkpt>
      <trkpt lat="42.40039698779583" lon="2.561588985845447">
        <ele>617.77999999999997</ele>
        <time>2025-05-15T11:09:08Z</time>
      </trkpt>
      <trkpt lat="42.400316018611193" lon="2.561695016920567">
        <ele>616.34000000000003</ele>
        <time>2025-05-15T11:09:09Z</time>
      </trkpt>
      <trkpt lat="42.400233959779143" lon="2.561802975833416">
        <ele>614.41999999999996</ele>
        <time>2025-05-15T11:09:10Z</time>
      </trkpt>
      <trkpt lat="42.400059029459953" lon="2.562044961377978">
        <ele>611.53999999999996</ele>
        <time>2025-05-15T11:09:12Z</time>
      </trkpt>
      <trkpt lat="42.399980993941426" lon="2.562193991616368">
        <ele>610.09000000000003</ele>
        <time>2025-05-15T11:09:13Z</time>
      </trkpt>
      <trkpt lat="42.399905975908041" lon="2.562335981056094">
        <ele>608.16999999999996</ele>
        <time>2025-05-15T11:09:14Z</time>
      </trkpt>
      <trkpt lat="42.39981503225863" lon="2.562442012131214">
        <ele>606.73000000000002</ele>
        <time>2025-05-15T11:09:15Z</time>
      </trkpt>
      <trkpt lat="42.399738002568483" lon="2.56251803599298">
        <ele>604.80999999999995</ele>
        <time>2025-05-15T11:09:16Z</time>
      </trkpt>
      <trkpt lat="42.399592995643616" lon="2.562586013227701">
        <ele>602.88</ele>
        <time>2025-05-15T11:09:17Z</time>
      </trkpt>
      <trkpt lat="42.3989790212363" lon="2.56299396045506">
        <ele>590.87</ele>
        <time>2025-05-15T11:09:22Z</time>
      </trkpt>
      <trkpt lat="42.398862009868026" lon="2.563030002638698">
        <ele>588.46000000000004</ele>
        <time>2025-05-15T11:09:23Z</time>
      </trkpt>
      <trkpt lat="42.398715997114778" lon="2.563003012910485">
        <ele>586.53999999999996</ele>
        <time>2025-05-15T11:09:24Z</time>
      </trkpt>
      <trkpt lat="42.398555986583233" lon="2.562973005697131">
        <ele>584.62</ele>
        <time>2025-05-15T11:09:25Z</time>
      </trkpt>
      <trkpt lat="42.398397987708449" lon="2.562944004312158">
        <ele>583.17999999999995</ele>
        <time>2025-05-15T11:09:26Z</time>
      </trkpt>
      <trkpt lat="42.398102022707462" lon="2.562888013198972">
        <ele>580.76999999999998</ele>
        <time>2025-05-15T11:09:28Z</time>
      </trkpt>
      <trkpt lat="42.397835981100798" lon="2.562747029587627">
        <ele>578.85000000000002</ele>
        <time>2025-05-15T11:09:30Z</time>
      </trkpt>
      <trkpt lat="42.3977339733392" lon="2.5626499671489">
        <ele>577.88999999999999</ele>
        <time>2025-05-15T11:09:31Z</time>
      </trkpt>
      <trkpt lat="42.39764504134655" lon="2.562565980479121">
        <ele>577.40999999999997</ele>
        <time>2025-05-15T11:09:32Z</time>
      </trkpt>
      <trkpt lat="42.397571029141545" lon="2.562494985759258">
        <ele>576.45000000000005</ele>
        <time>2025-05-15T11:09:33Z</time>
      </trkpt>
      <trkpt lat="42.397525012493134" lon="2.562478976324201">
        <ele>575.00999999999999</ele>
        <time>2025-05-15T11:09:34Z</time>
      </trkpt>
      <trkpt lat="42.397399032488465" lon="2.562496997416019">
        <ele>574.52999999999997</ele>
        <time>2025-05-15T11:09:35Z</time>
      </trkpt>
      <trkpt lat="42.397334994748235" lon="2.56260403431952">
        <ele>573.55999999999995</ele>
        <time>2025-05-15T11:09:36Z</time>
      </trkpt>
      <trkpt lat="42.397334994748235" lon="2.562662959098816">
        <ele>573.08000000000004</ele>
        <time>2025-05-15T11:09:37Z</time>
      </trkpt>
      <trkpt lat="42.397334994748235" lon="2.56281903013587">
        <ele>572.60000000000002</ele>
        <time>2025-05-15T11:09:38Z</time>
      </trkpt>
      <trkpt lat="42.397420993074775" lon="2.562947021797299">
        <ele>572.60000000000002</ele>
        <time>2025-05-15T11:09:39Z</time>
      </trkpt>
      <trkpt lat="42.397500034421682" lon="2.562979040667415">
        <ele>571.63999999999999</ele>
        <time>2025-05-15T11:09:40Z</time>
      </trkpt>
      <trkpt lat="42.397631965577602" lon="2.562990020960569">
        <ele>571.63999999999999</ele>
        <time>2025-05-15T11:09:41Z</time>
      </trkpt>
      <trkpt lat="42.397757023572922" lon="2.562990020960569">
        <ele>571.15999999999997</ele>
        <time>2025-05-15T11:09:42Z</time>
      </trkpt>
      <trkpt lat="42.397889960557222" lon="2.562990020960569">
        <ele>570.67999999999995</ele>
        <time>2025-05-15T11:09:43Z</time>
      </trkpt>
      <trkpt lat="42.39799196831882" lon="2.56303695961833">
        <ele>570.20000000000005</ele>
        <time>2025-05-15T11:09:44Z</time>
      </trkpt>
      <trkpt lat="42.398105962201953" lon="2.563106026500464">
        <ele>570.20000000000005</ele>
        <time>2025-05-15T11:09:45Z</time>
      </trkpt>
      <trkpt lat="42.398202018812299" lon="2.563164029270411">
        <ele>569.72000000000003</ele>
        <time>2025-05-15T11:09:46Z</time>
      </trkpt>
      <trkpt lat="42.398276031017303" lon="2.563209040090442">
        <ele>569.72000000000003</ele>
        <time>2025-05-15T11:09:47Z</time>
      </trkpt>
      <trkpt lat="42.398388013243675" lon="2.563276011496782">
        <ele>569.72000000000003</ele>
        <time>2025-05-15T11:09:49Z</time>
      </trkpt>
      <trkpt lat="42.398491026833653" lon="2.563338959589601">
        <ele>569.24000000000001</ele>
        <time>2025-05-15T11:09:51Z</time>
      </trkpt>
      <trkpt lat="42.398793026804924" lon="2.563521014526486">
        <ele>567.79999999999995</ele>
        <time>2025-05-15T11:09:57Z</time>
      </trkpt>
      <trkpt lat="42.398880030959845" lon="2.563541969284415">
        <ele>567.79999999999995</ele>
        <time>2025-05-15T11:09:58Z</time>
      </trkpt>
      <trkpt lat="42.398986984044313" lon="2.563526965677738">
        <ele>567.79999999999995</ele>
        <time>2025-05-15T11:09:59Z</time>
      </trkpt>
      <trkpt lat="42.399005005136132" lon="2.563515985384584">
        <ele>567.79999999999995</ele>
        <time>2025-05-15T11:10:00Z</time>
      </trkpt>
      <trkpt lat="42.399045992642641" lon="2.563490001484752">
        <ele>567.79999999999995</ele>
        <time>2025-05-15T11:10:01Z</time>
      </trkpt>
      <trkpt lat="42.399083040654659" lon="2.563467035070062">
        <ele>568.27999999999997</ele>
        <time>2025-05-15T11:10:02Z</time>
      </trkpt>
      <trkpt lat="42.399115981534123" lon="2.563445996493101">
        <ele>567.79999999999995</ele>
        <time>2025-05-15T11:10:03Z</time>
      </trkpt>
      <trkpt lat="42.399149006232619" lon="2.563425963744521">
        <ele>567.79999999999995</ele>
        <time>2025-05-15T11:10:04Z</time>
      </trkpt>
      <trkpt lat="42.399178007617593" lon="2.563408026471734">
        <ele>567.32000000000005</ele>
        <time>2025-05-15T11:10:05Z</time>
      </trkpt>
      <trkpt lat="42.399192005395889" lon="2.563398974016309">
        <ele>566.35000000000002</ele>
        <time>2025-05-15T11:10:06Z</time>
      </trkpt>
      <trkpt lat="42.399245984852314" lon="2.563448008149862">
        <ele>565.87</ele>
        <time>2025-05-15T11:10:07Z</time>
      </trkpt>
      <trkpt lat="42.399235004559159" lon="2.56346401758492">
        <ele>565.38999999999999</ele>
        <time>2025-05-15T11:10:08Z</time>
      </trkpt>
      <trkpt lat="42.399223018437624" lon="2.563483966514468">
        <ele>565.38999999999999</ele>
        <time>2025-05-15T11:10:09Z</time>
      </trkpt>
      <trkpt lat="42.39919301122427" lon="2.563509028404951">
        <ele>564.90999999999997</ele>
        <time>2025-05-15T11:10:10Z</time>
      </trkpt>
      <trkpt lat="42.399167027324438" lon="2.563530988991261">
        <ele>564.42999999999995</ele>
        <time>2025-05-15T11:10:11Z</time>
      </trkpt>
      <trkpt lat="42.3991309851408" lon="2.563559990376234">
        <ele>564.42999999999995</ele>
        <time>2025-05-15T11:10:12Z</time>
      </trkpt>
      <trkpt lat="42.399084968492389" lon="2.563598966225982">
        <ele>563.95000000000005</ele>
        <time>2025-05-15T11:10:13Z</time>
      </trkpt>
      <trkpt lat="42.399030989035964" lon="2.563643977046013">
        <ele>563.47000000000003</ele>
        <time>2025-05-15T11:10:14Z</time>
      </trkpt>
      <trkpt lat="42.398909032344818" lon="2.563698040321469">
        <ele>562.99000000000001</ele>
        <time>2025-05-15T11:10:16Z</time>
      </trkpt>
      <trkpt lat="42.398858992382884" lon="2.563698040321469">
        <ele>562.50999999999999</ele>
        <time>2025-05-15T11:10:17Z</time>
      </trkpt>
      <trkpt lat="42.398758996278048" lon="2.563649006187916">
        <ele>562.50999999999999</ele>
        <time>2025-05-15T11:10:18Z</time>
      </trkpt>
      <trkpt lat="42.398031027987599" lon="2.563340971246362">
        <ele>559.62</ele>
        <time>2025-05-15T11:10:24Z</time>
      </trkpt>
      <trkpt lat="42.397913010790944" lon="2.563320016488433">
        <ele>559.13999999999999</ele>
        <time>2025-05-15T11:10:25Z</time>
      </trkpt>
      <trkpt lat="42.397788036614656" lon="2.563323033973575">
        <ele>558.65999999999997</ele>
        <time>2025-05-15T11:10:26Z</time>
      </trkpt>
      <trkpt lat="42.397665996104479" lon="2.563338959589601">
        <ele>557.70000000000005</ele>
        <time>2025-05-15T11:10:27Z</time>
      </trkpt>
      <trkpt lat="42.397549990564585" lon="2.563354969024658">
        <ele>557.22000000000003</ele>
        <time>2025-05-15T11:10:28Z</time>
      </trkpt>
      <trkpt lat="42.397440019994974" lon="2.563433004543185">
        <ele>556.25999999999999</ele>
        <time>2025-05-15T11:10:29Z</time>
      </trkpt>
      <trkpt lat="42.397340023890138" lon="2.563505005091429">
        <ele>555.29999999999995</ele>
        <time>2025-05-15T11:10:30Z</time>
      </trkpt>
      <trkpt lat="42.397248996421695" lon="2.563569964841008">
        <ele>554.34000000000003</ele>
        <time>2025-05-15T11:10:31Z</time>
      </trkpt>
      <trkpt lat="42.397165009751916" lon="2.563683958724141">
        <ele>553.38</ele>
        <time>2025-05-15T11:10:32Z</time>
      </trkpt>
      <trkpt lat="42.397081023082137" lon="2.563799964264035">
        <ele>552.40999999999997</ele>
        <time>2025-05-15T11:10:33Z</time>
      </trkpt>
      <trkpt lat="42.396994018927217" lon="2.563917981460691">
        <ele>551.45000000000005</ele>
        <time>2025-05-15T11:10:34Z</time>
      </trkpt>
      <trkpt lat="42.396475011482835" lon="2.564456015825272">
        <ele>549.52999999999997</ele>
        <time>2025-05-15T11:10:39Z</time>
      </trkpt>
      <trkpt lat="42.395962961018085" lon="2.56516202352941">
        <ele>547.61000000000001</ele>
        <time>2025-05-15T11:10:45Z</time>
      </trkpt>
      <trkpt lat="42.395939994603395" lon="2.565274005755782">
        <ele>546.64999999999998</ele>
        <time>2025-05-15T11:10:46Z</time>
      </trkpt>
      <trkpt lat="42.395939994603395" lon="2.56539998576045">
        <ele>546.16999999999996</ele>
        <time>2025-05-15T11:10:47Z</time>
      </trkpt>
      <trkpt lat="42.395943012088537" lon="2.565529989078641">
        <ele>545.20000000000005</ele>
        <time>2025-05-15T11:10:48Z</time>
      </trkpt>
      <trkpt lat="42.395979976281524" lon="2.56565404124558">
        <ele>544.72000000000003</ele>
        <time>2025-05-15T11:10:49Z</time>
      </trkpt>
      <trkpt lat="42.396024987101555" lon="2.565748002380133">
        <ele>544.72000000000003</ele>
        <time>2025-05-15T11:10:50Z</time>
      </trkpt>
      <trkpt lat="42.396107967942953" lon="2.565793013200164">
        <ele>544.72000000000003</ele>
        <time>2025-05-15T11:10:51Z</time>
      </trkpt>
      <trkpt lat="42.396198995411396" lon="2.565841041505337">
        <ele>544.72000000000003</ele>
        <time>2025-05-15T11:10:52Z</time>
      </trkpt>
      <trkpt lat="42.396297985687852" lon="2.565886974334717">
        <ele>544.72000000000003</ele>
        <time>2025-05-15T11:10:53Z</time>
      </trkpt>
      <trkpt lat="42.396407034248114" lon="2.565886974334717">
        <ele>544.72000000000003</ele>
        <time>2025-05-15T11:10:54Z</time>
      </trkpt>
      <trkpt lat="42.396512981504202" lon="2.565860990434885">
        <ele>544.72000000000003</ele>
        <time>2025-05-15T11:10:55Z</time>
      </trkpt>
      <trkpt lat="42.396608032286167" lon="2.565791001543403">
        <ele>544.72000000000003</ele>
        <time>2025-05-15T11:10:56Z</time>
      </trkpt>
      <trkpt lat="42.396710962057114" lon="2.565714977681637">
        <ele>544.72000000000003</ele>
        <time>2025-05-15T11:10:57Z</time>
      </trkpt>
      <trkpt lat="42.396884970366955" lon="2.565524959936738">
        <ele>545.20000000000005</ele>
        <time>2025-05-15T11:10:59Z</time>
      </trkpt>
      <trkpt lat="42.397052021697164" lon="2.565293032675982">
        <ele>545.20000000000005</ele>
        <time>2025-05-15T11:11:01Z</time>
      </trkpt>
      <trkpt lat="42.397142965346575" lon="2.565217008814216">
        <ele>545.69000000000005</ele>
        <time>2025-05-15T11:11:02Z</time>
      </trkpt>
      <trkpt lat="42.397261988371611" lon="2.565178032964468">
        <ele>546.16999999999996</ele>
        <time>2025-05-15T11:11:03Z</time>
      </trkpt>
      <trkpt lat="42.397368019446731" lon="2.565152971073985">
        <ele>546.64999999999998</ele>
        <time>2025-05-15T11:11:04Z</time>
      </trkpt>
      <trkpt lat="42.397474972531199" lon="2.565151965245605">
        <ele>546.64999999999998</ele>
        <time>2025-05-15T11:11:05Z</time>
      </trkpt>
      <trkpt lat="42.397545967251062" lon="2.565188007429242">
        <ele>546.64999999999998</ele>
        <time>2025-05-15T11:11:06Z</time>
      </trkpt>
      <trkpt lat="42.397571029141545" lon="2.565199993550777">
        <ele>546.64999999999998</ele>
        <time>2025-05-15T11:11:07Z</time>
      </trkpt>
      <trkpt lat="42.397587960585952" lon="2.565366961061955">
        <ele>547.13</ele>
        <time>2025-05-15T11:11:08Z</time>
      </trkpt>
      <trkpt lat="42.397599024698138" lon="2.565477015450597">
        <ele>547.13</ele>
        <time>2025-05-15T11:11:09Z</time>
      </trkpt>
      <trkpt lat="42.397608999162912" lon="2.565584974363446">
        <ele>547.61000000000001</ele>
        <time>2025-05-15T11:11:10Z</time>
      </trkpt>
      <trkpt lat="42.397684017196298" lon="2.565688993781805">
        <ele>547.61000000000001</ele>
        <time>2025-05-15T11:11:11Z</time>
      </trkpt>
      <trkpt lat="42.397757023572922" lon="2.565752025693655">
        <ele>547.13</ele>
        <time>2025-05-15T11:11:12Z</time>
      </trkpt>
      <trkpt lat="42.397825000807643" lon="2.565710032358766">
        <ele>546.64999999999998</ele>
        <time>2025-05-15T11:11:13Z</time>
      </trkpt>
      <trkpt lat="42.397884009405971" lon="2.565650017932057">
        <ele>546.64999999999998</ele>
        <time>2025-05-15T11:11:14Z</time>
      </trkpt>
      <trkpt lat="42.397942012175918" lon="2.565543986856937">
        <ele>546.16999999999996</ele>
        <time>2025-05-15T11:11:15Z</time>
      </trkpt>
      <trkpt lat="42.398005966097116" lon="2.565433010458946">
        <ele>546.16999999999996</ele>
        <time>2025-05-15T11:11:16Z</time>
      </trkpt>
      <trkpt lat="42.398084001615644" lon="2.565385987982154">
        <ele>546.16999999999996</ele>
        <time>2025-05-15T11:11:17Z</time>
      </trkpt>
      <trkpt lat="42.398189026862383" lon="2.565413983538747">
        <ele>546.16999999999996</ele>
        <time>2025-05-15T11:11:18Z</time>
      </trkpt>
      <trkpt lat="42.398296985775232" lon="2.565467962995172">
        <ele>545.69000000000005</ele>
        <time>2025-05-15T11:11:19Z</time>
      </trkpt>
      <trkpt lat="42.398407962173223" lon="2.565524959936738">
        <ele>545.69000000000005</ele>
        <time>2025-05-15T11:11:20Z</time>
      </trkpt>
      <trkpt lat="42.398534025996923" lon="2.565590003505349">
        <ele>545.20000000000005</ele>
        <time>2025-05-15T11:11:21Z</time>
      </trkpt>
      <trkpt lat="42.398834014311433" lon="2.56574297323823">
        <ele>544.72000000000003</ele>
        <time>2025-05-15T11:11:23Z</time>
      </trkpt>
      <trkpt lat="42.399268029257655" lon="2.565927039831877">
        <ele>544.24000000000001</ele>
        <time>2025-05-15T11:11:26Z</time>
      </trkpt>
      <trkpt lat="42.399415969848633" lon="2.565951012074947">
        <ele>544.24000000000001</ele>
        <time>2025-05-15T11:11:27Z</time>
      </trkpt>
      <trkpt lat="42.399553013965487" lon="2.565945982933044">
        <ele>543.75999999999999</ele>
        <time>2025-05-15T11:11:28Z</time>
      </trkpt>
      <trkpt lat="42.399716963991523" lon="2.565938020125032">
        <ele>543.75999999999999</ele>
        <time>2025-05-15T11:11:29Z</time>
      </trkpt>
      <trkpt lat="42.399885021150112" lon="2.565930979326367">
        <ele>543.27999999999997</ele>
        <time>2025-05-15T11:11:30Z</time>
      </trkpt>
      <trkpt lat="42.400019969791174" lon="2.56599803455174">
        <ele>542.79999999999995</ele>
        <time>2025-05-15T11:11:31Z</time>
      </trkpt>
      <trkpt lat="42.400149973109365" lon="2.566076992079616">
        <ele>542.32000000000005</ele>
        <time>2025-05-15T11:11:32Z</time>
      </trkpt>
      <trkpt lat="42.400234965607524" lon="2.566176988184452">
        <ele>542.32000000000005</ele>
        <time>2025-05-15T11:11:33Z</time>
      </trkpt>
      <trkpt lat="42.400305960327387" lon="2.566297017037869">
        <ele>542.32000000000005</ele>
        <time>2025-05-15T11:11:34Z</time>
      </trkpt>
      <trkpt lat="42.400347031652927" lon="2.566426014527679">
        <ele>542.32000000000005</ele>
        <time>2025-05-15T11:11:35Z</time>
      </trkpt>
      <trkpt lat="42.400389024987817" lon="2.566585019230843">
        <ele>543.27999999999997</ele>
        <time>2025-05-15T11:11:36Z</time>
      </trkpt>
      <trkpt lat="42.400435963645577" lon="2.566759027540684">
        <ele>543.27999999999997</ele>
        <time>2025-05-15T11:11:37Z</time>
      </trkpt>
      <trkpt lat="42.400475023314357" lon="2.566906968131661">
        <ele>543.27999999999997</ele>
        <time>2025-05-15T11:11:38Z</time>
      </trkpt>
      <trkpt lat="42.400575019419193" lon="2.567017022520304">
        <ele>543.27999999999997</ele>
        <time>2025-05-15T11:11:39Z</time>
      </trkpt>
      <trkpt lat="42.400648025795817" lon="2.567020962014794">
        <ele>541.84000000000003</ele>
        <time>2025-05-15T11:11:40Z</time>
      </trkpt>
      <trkpt lat="42.400704016909003" lon="2.566972011700273">
        <ele>540.39999999999998</ele>
        <time>2025-05-15T11:11:41Z</time>
      </trkpt>
      <trkpt lat="42.400767970830202" lon="2.566917026415467">
        <ele>537.99000000000001</ele>
        <time>2025-05-15T11:11:42Z</time>
      </trkpt>
      <trkpt lat="42.400817004963756" lon="2.566835973411799">
        <ele>536.07000000000005</ele>
        <time>2025-05-15T11:11:43Z</time>
      </trkpt>
      <trkpt lat="42.400896968320012" lon="2.566702030599117">
        <ele>535.11000000000001</ele>
        <time>2025-05-15T11:11:44Z</time>
      </trkpt>
      <trkpt lat="42.40097600966692" lon="2.566570015624166">
        <ele>534.14999999999998</ele>
        <time>2025-05-15T11:11:45Z</time>
      </trkpt>
      <trkpt lat="42.401090003550053" lon="2.566381003707647">
        <ele>533.19000000000005</ele>
        <time>2025-05-15T11:11:46Z</time>
      </trkpt>
      <trkpt lat="42.401211960241199" lon="2.566305985674262">
        <ele>532.23000000000002</ele>
        <time>2025-05-15T11:11:47Z</time>
      </trkpt>
      <trkpt lat="42.401381023228168" lon="2.566208001226187">
        <ele>531.26999999999998</ele>
        <time>2025-05-15T11:11:48Z</time>
      </trkpt>
      <trkpt lat="42.401537010446191" lon="2.566201966255903">
        <ele>530.78999999999996</ele>
        <time>2025-05-15T11:11:49Z</time>
      </trkpt>
      <trkpt lat="42.401705989614129" lon="2.566195009276271">
        <ele>530.29999999999995</ele>
        <time>2025-05-15T11:11:50Z</time>
      </trkpt>
      <trkpt lat="42.401898019015789" lon="2.566190985962749">
        <ele>529.34000000000003</ele>
        <time>2025-05-15T11:11:51Z</time>
      </trkpt>
      <trkpt lat="42.402069009840488" lon="2.566233985126019">
        <ele>528.38</ele>
        <time>2025-05-15T11:11:52Z</time>
      </trkpt>
      <trkpt lat="42.402251986786723" lon="2.566316965967417">
        <ele>527.89999999999998</ele>
        <time>2025-05-15T11:11:53Z</time>
      </trkpt>
      <trkpt lat="42.402409985661507" lon="2.566411010921001">
        <ele>527.41999999999996</ele>
        <time>2025-05-15T11:11:54Z</time>
      </trkpt>
      <trkpt lat="42.402574019506574" lon="2.566507989540696">
        <ele>526.94000000000005</ele>
        <time>2025-05-15T11:11:55Z</time>
      </trkpt>
      <trkpt lat="42.40303996950388" lon="2.566864974796772">
        <ele>525.5</ele>
        <time>2025-05-15T11:11:58Z</time>
      </trkpt>
      <trkpt lat="42.403208026662469" lon="2.566957008093596">
        <ele>525.01999999999998</ele>
        <time>2025-05-15T11:11:59Z</time>
      </trkpt>
      <trkpt lat="42.40336200222373" lon="2.567042000591755">
        <ele>525.01999999999998</ele>
        <time>2025-05-15T11:12:00Z</time>
      </trkpt>
      <trkpt lat="42.403642041608691" lon="2.567290021106601">
        <ele>524.53999999999996</ele>
        <time>2025-05-15T11:12:02Z</time>
      </trkpt>
      <trkpt lat="42.40385795943439" lon="2.567495964467526">
        <ele>523.58000000000004</ele>
        <time>2025-05-15T11:12:04Z</time>
      </trkpt>
      <trkpt lat="42.403915040194988" lon="2.567701991647482">
        <ele>523.09000000000003</ele>
        <time>2025-05-15T11:12:05Z</time>
      </trkpt>
      <trkpt lat="42.403959967195988" lon="2.567863008007407">
        <ele>523.58000000000004</ele>
        <time>2025-05-15T11:12:06Z</time>
      </trkpt>
      <trkpt lat="42.4041130207479" lon="2.568414034321904">
        <ele>524.05999999999995</ele>
        <time>2025-05-15T11:12:09Z</time>
      </trkpt>
      <trkpt lat="42.404153002426028" lon="2.568558035418391">
        <ele>525.5</ele>
        <time>2025-05-15T11:12:10Z</time>
      </trkpt>
      <trkpt lat="42.404179992154241" lon="2.568655014038086">
        <ele>528.86000000000001</ele>
        <time>2025-05-15T11:12:11Z</time>
      </trkpt>
      <trkpt lat="42.404189966619015" lon="2.568833967670798">
        <ele>529.34000000000003</ele>
        <time>2025-05-15T11:12:12Z</time>
      </trkpt>
      <trkpt lat="42.40419901907444" lon="2.568991966545582">
        <ele>528.86000000000001</ele>
        <time>2025-05-15T11:12:13Z</time>
      </trkpt>
      <trkpt lat="42.404202036559582" lon="2.569041000679135">
        <ele>530.29999999999995</ele>
        <time>2025-05-15T11:12:14Z</time>
      </trkpt>
      <trkpt lat="42.404280994087458" lon="2.569161029532552">
        <ele>531.26999999999998</ele>
        <time>2025-05-15T11:12:15Z</time>
      </trkpt>
      <trkpt lat="42.404357017949224" lon="2.569188019260764">
        <ele>531.26999999999998</ele>
        <time>2025-05-15T11:12:16Z</time>
      </trkpt>
      <trkpt lat="42.404462965205312" lon="2.569217020645738">
        <ele>531.75</ele>
        <time>2025-05-15T11:12:17Z</time>
      </trkpt>
      <trkpt lat="42.404576959088445" lon="2.569247027859092">
        <ele>531.75</ele>
        <time>2025-05-15T11:12:18Z</time>
      </trkpt>
      <trkpt lat="42.404703022912145" lon="2.569280974566937">
        <ele>532.23000000000002</ele>
        <time>2025-05-15T11:12:19Z</time>
      </trkpt>
      <trkpt lat="42.404841994866729" lon="2.569318022578955">
        <ele>531.26999999999998</ele>
        <time>2025-05-15T11:12:20Z</time>
      </trkpt>
      <trkpt lat="42.404974009841681" lon="2.569366972893477">
        <ele>531.26999999999998</ele>
        <time>2025-05-15T11:12:21Z</time>
      </trkpt>
      <trkpt lat="42.405098984017968" lon="2.569439979270101">
        <ele>530.78999999999996</ele>
        <time>2025-05-15T11:12:22Z</time>
      </trkpt>
      <trkpt lat="42.405189005658031" lon="2.569492030888796">
        <ele>530.78999999999996</ele>
        <time>2025-05-15T11:12:23Z</time>
      </trkpt>
      <trkpt lat="42.40533703006804" lon="2.569446014240384">
        <ele>529.82000000000005</ele>
        <time>2025-05-15T11:12:24Z</time>
      </trkpt>
      <trkpt lat="42.405449012294412" lon="2.569411983713508">
        <ele>529.34000000000003</ele>
        <time>2025-05-15T11:12:25Z</time>
      </trkpt>
      <trkpt lat="42.406072039157152" lon="2.569250967353582">
        <ele>530.29999999999995</ele>
        <time>2025-05-15T11:12:30Z</time>
      </trkpt>
      <trkpt lat="42.406178992241621" lon="2.569290027022362">
        <ele>530.78999999999996</ele>
        <time>2025-05-15T11:12:31Z</time>
      </trkpt>
      <trkpt lat="42.406260967254639" lon="2.569320034235716">
        <ele>531.26999999999998</ele>
        <time>2025-05-15T11:12:32Z</time>
      </trkpt>
      <trkpt lat="42.406382001936436" lon="2.569461017847061">
        <ele>532.23000000000002</ele>
        <time>2025-05-15T11:12:33Z</time>
      </trkpt>
      <trkpt lat="42.406440004706383" lon="2.569580040872097">
        <ele>533.66999999999996</ele>
        <time>2025-05-15T11:12:34Z</time>
      </trkpt>
      <trkpt lat="42.406489038839936" lon="2.569689005613327">
        <ele>536.54999999999995</ele>
        <time>2025-05-15T11:12:35Z</time>
      </trkpt>
      <trkpt lat="42.406544024124742" lon="2.569811968132854">
        <ele>539.44000000000005</ele>
        <time>2025-05-15T11:12:36Z</time>
      </trkpt>
      <trkpt lat="42.406883994117379" lon="2.570564998313785">
        <ele>553.38</ele>
        <time>2025-05-15T11:12:42Z</time>
      </trkpt>
      <trkpt lat="42.406914001330733" lon="2.570697013288736">
        <ele>554.82000000000005</ele>
        <time>2025-05-15T11:12:43Z</time>
      </trkpt>
      <trkpt lat="42.407064959406853" lon="2.571365972980857">
        <ele>560.11000000000001</ele>
        <time>2025-05-15T11:12:47Z</time>
      </trkpt>
      <trkpt lat="42.407104019075632" lon="2.571536963805556">
        <ele>560.59000000000003</ele>
        <time>2025-05-15T11:12:48Z</time>
      </trkpt>
      <trkpt lat="42.407140983268619" lon="2.571702003479004">
        <ele>561.54999999999995</ele>
        <time>2025-05-15T11:12:49Z</time>
      </trkpt>
      <trkpt lat="42.407114999368787" lon="2.571813985705376">
        <ele>562.50999999999999</ele>
        <time>2025-05-15T11:12:50Z</time>
      </trkpt>
      <trkpt lat="42.407063031569123" lon="2.57199302315712">
        <ele>563.95000000000005</ele>
        <time>2025-05-15T11:12:51Z</time>
      </trkpt>
      <trkpt lat="42.406974015757442" lon="2.572070974856615">
        <ele>564.90999999999997</ele>
        <time>2025-05-15T11:12:52Z</time>
      </trkpt>
      <trkpt lat="42.406859016045928" lon="2.572171976789832">
        <ele>566.35000000000002</ele>
        <time>2025-05-15T11:12:53Z</time>
      </trkpt>
      <trkpt lat="42.406729012727737" lon="2.572284964844585">
        <ele>566.83000000000004</ele>
        <time>2025-05-15T11:12:54Z</time>
      </trkpt>
      <trkpt lat="42.406561961397529" lon="2.572431983426213">
        <ele>567.79999999999995</ele>
        <time>2025-05-15T11:12:55Z</time>
      </trkpt>
      <trkpt lat="42.406452996656299" lon="2.572633987292647">
        <ele>568.75999999999999</ele>
        <time>2025-05-15T11:12:57Z</time>
      </trkpt>
      <trkpt lat="42.40641200914979" lon="2.57274404168129">
        <ele>570.20000000000005</ele>
        <time>2025-05-15T11:12:58Z</time>
      </trkpt>
      <trkpt lat="42.40641200914979" lon="2.572903968393803">
        <ele>571.63999999999999</ele>
        <time>2025-05-15T11:12:59Z</time>
      </trkpt>
      <trkpt lat="42.40643204189837" lon="2.572931963950396">
        <ele>572.60000000000002</ele>
        <time>2025-05-15T11:13:00Z</time>
      </trkpt>
      <trkpt lat="42.406504964455962" lon="2.573033971711993">
        <ele>573.08000000000004</ele>
        <time>2025-05-15T11:13:01Z</time>
      </trkpt>
      <trkpt lat="42.406680984422565" lon="2.573280986398459">
        <ele>574.52999999999997</ele>
        <time>2025-05-15T11:13:03Z</time>
      </trkpt>
      <trkpt lat="42.406818028539419" lon="2.57356102578342">
        <ele>578.37</ele>
        <time>2025-05-15T11:13:05Z</time>
      </trkpt>
      <trkpt lat="42.406881982460618" lon="2.573715001344681">
        <ele>580.76999999999998</ele>
        <time>2025-05-15T11:13:06Z</time>
      </trkpt>
      <trkpt lat="42.407213989645243" lon="2.5745739787817">
        <ele>590.87</ele>
        <time>2025-05-15T11:13:11Z</time>
      </trkpt>
      <trkpt lat="42.407291019335389" lon="2.574791992083192">
        <ele>592.78999999999996</ele>
        <time>2025-05-15T11:13:12Z</time>
      </trkpt>
      <trkpt lat="42.40731599740684" lon="2.574837002903223">
        <ele>594.71000000000004</ele>
        <time>2025-05-15T11:13:13Z</time>
      </trkpt>
      <trkpt lat="42.407448012381792" lon="2.575073037296534">
        <ele>597.12</ele>
        <time>2025-05-15T11:13:14Z</time>
      </trkpt>
      <trkpt lat="42.407640963792801" lon="2.575097009539604">
        <ele>599.51999999999998</ele>
        <time>2025-05-15T11:13:15Z</time>
      </trkpt>
      <trkpt lat="42.407800974324346" lon="2.574983015656471">
        <ele>601.44000000000005</ele>
        <time>2025-05-15T11:13:16Z</time>
      </trkpt>
      <trkpt lat="42.407870041206479" lon="2.574906991794705">
        <ele>603.36000000000001</ele>
        <time>2025-05-15T11:13:17Z</time>
      </trkpt>
      <trkpt lat="42.407961990684271" lon="2.574805989861488">
        <ele>605.28999999999996</ele>
        <time>2025-05-15T11:13:18Z</time>
      </trkpt>
      <trkpt lat="42.408019993454218" lon="2.574712028726935">
        <ele>607.69000000000005</ele>
        <time>2025-05-15T11:13:19Z</time>
      </trkpt>
      <trkpt lat="42.408083025366068" lon="2.574612032622099">
        <ele>609.61000000000001</ele>
        <time>2025-05-15T11:13:20Z</time>
      </trkpt>
      <trkpt lat="42.408146979287267" lon="2.574509019032121">
        <ele>611.53999999999996</ele>
        <time>2025-05-15T11:13:21Z</time>
      </trkpt>
      <trkpt lat="42.408204982057214" lon="2.574429977685213">
        <ele>612.01999999999998</ele>
        <time>2025-05-15T11:13:22Z</time>
      </trkpt>
      <trkpt lat="42.408286035060883" lon="2.574332999065518">
        <ele>612.98000000000002</ele>
        <time>2025-05-15T11:13:23Z</time>
      </trkpt>
      <trkpt lat="42.408386031165719" lon="2.574212970212102">
        <ele>615.86000000000001</ele>
        <time>2025-05-15T11:13:24Z</time>
      </trkpt>
      <trkpt lat="42.408435987308621" lon="2.57420601323247">
        <ele>617.77999999999997</ele>
        <time>2025-05-15T11:13:25Z</time>
      </trkpt>
      <trkpt lat="42.408546041697264" lon="2.574193021282554">
        <ele>618.75</ele>
        <time>2025-05-15T11:13:26Z</time>
      </trkpt>
      <trkpt lat="42.408729018643498" lon="2.574169971048832">
        <ele>621.14999999999998</ele>
        <time>2025-05-15T11:13:27Z</time>
      </trkpt>
      <trkpt lat="42.408738993108273" lon="2.574179023504257">
        <ele>622.59000000000003</ele>
        <time>2025-05-15T11:13:28Z</time>
      </trkpt>
      <trkpt lat="42.408814011141658" lon="2.574251024052501">
        <ele>624.02999999999997</ele>
        <time>2025-05-15T11:13:29Z</time>
      </trkpt>
      <trkpt lat="42.40890403278172" lon="2.574337022379041">
        <ele>625.47000000000003</ele>
        <time>2025-05-15T11:13:30Z</time>
      </trkpt>
      <trkpt lat="42.409222964197397" lon="2.574642039835453">
        <ele>628.84000000000003</ele>
        <time>2025-05-15T11:13:33Z</time>
      </trkpt>
      <trkpt lat="42.409327989444137" lon="2.57468000985682">
        <ele>629.32000000000005</ele>
        <time>2025-05-15T11:13:34Z</time>
      </trkpt>
      <trkpt lat="42.409448018297553" lon="2.574724014848471">
        <ele>629.79999999999995</ele>
        <time>2025-05-15T11:13:35Z</time>
      </trkpt>
      <trkpt lat="42.409554971382022" lon="2.574762990698218">
        <ele>630.75999999999999</ele>
        <time>2025-05-15T11:13:36Z</time>
      </trkpt>
      <trkpt lat="42.409695032984018" lon="2.574813030660152">
        <ele>630.75999999999999</ele>
        <time>2025-05-15T11:13:37Z</time>
      </trkpt>
      <trkpt lat="42.40972001105547" lon="2.574863992631435">
        <ele>630.75999999999999</ele>
        <time>2025-05-15T11:13:38Z</time>
      </trkpt>
      <trkpt lat="42.409771978855133" lon="2.574968012049794">
        <ele>630.75999999999999</ele>
        <time>2025-05-15T11:13:39Z</time>
      </trkpt>
      <trkpt lat="42.409808021038771" lon="2.575135985389352">
        <ele>630.75999999999999</ele>
        <time>2025-05-15T11:13:40Z</time>
      </trkpt>
      <trkpt lat="42.409815983846784" lon="2.575295995920897">
        <ele>631.24000000000001</ele>
        <time>2025-05-15T11:13:41Z</time>
      </trkpt>
      <trkpt lat="42.409812966361642" lon="2.575479978695512">
        <ele>631.72000000000003</ele>
        <time>2025-05-15T11:13:42Z</time>
      </trkpt>
      <trkpt lat="42.409772984683514" lon="2.575650969520211">
        <ele>633.16999999999996</ele>
        <time>2025-05-15T11:13:43Z</time>
      </trkpt>
      <trkpt lat="42.409728979691863" lon="2.575836963951588">
        <ele>634.61000000000001</ele>
        <time>2025-05-15T11:13:44Z</time>
      </trkpt>
      <trkpt lat="42.409683968871832" lon="2.576025975868106">
        <ele>635.09000000000003</ele>
        <time>2025-05-15T11:13:45Z</time>
      </trkpt>
      <trkpt lat="42.409366965293884" lon="2.577677965164185">
        <ele>634.61000000000001</ele>
        <time>2025-05-15T11:13:53Z</time>
      </trkpt>
      <trkpt lat="42.409201003611088" lon="2.578370980918407">
        <ele>633.64999999999998</ele>
        <time>2025-05-15T11:13:57Z</time>
      </trkpt>
      <trkpt lat="42.409151969477534" lon="2.57850400172174">
        <ele>633.64999999999998</ele>
        <time>2025-05-15T11:13:58Z</time>
      </trkpt>
      <trkpt lat="42.409078041091561" lon="2.578593017533422">
        <ele>633.16999999999996</ele>
        <time>2025-05-15T11:13:59Z</time>
      </trkpt>
      <trkpt lat="42.408997993916273" lon="2.57865697145462">
        <ele>634.13</ele>
        <time>2025-05-15T11:14:00Z</time>
      </trkpt>
      <trkpt lat="42.408894980326295" lon="2.578738024458289">
        <ele>634.61000000000001</ele>
        <time>2025-05-15T11:14:01Z</time>
      </trkpt>
      <trkpt lat="42.408788027241826" lon="2.578823016956449">
        <ele>635.57000000000005</ele>
        <time>2025-05-15T11:14:02Z</time>
      </trkpt>
      <trkpt lat="42.408676967024803" lon="2.578942961990833">
        <ele>635.57000000000005</ele>
        <time>2025-05-15T11:14:03Z</time>
      </trkpt>
      <trkpt lat="42.408575965091586" lon="2.579090986400843">
        <ele>635.57000000000005</ele>
        <time>2025-05-15T11:14:04Z</time>
      </trkpt>
      <trkpt lat="42.408504970371723" lon="2.579269018024206">
        <ele>635.57000000000005</ele>
        <time>2025-05-15T11:14:05Z</time>
      </trkpt>
      <trkpt lat="42.407975988462567" lon="2.580658989027143">
        <ele>636.52999999999997</ele>
        <time>2025-05-15T11:14:12Z</time>
      </trkpt>
      <trkpt lat="42.407913962379098" lon="2.580907009541988">
        <ele>637.00999999999999</ele>
        <time>2025-05-15T11:14:13Z</time>
      </trkpt>
      <trkpt lat="42.407913962379098" lon="2.581065008416772">
        <ele>637.49000000000001</ele>
        <time>2025-05-15T11:14:14Z</time>
      </trkpt>
      <trkpt lat="42.407913962379098" lon="2.581440014764667">
        <ele>637.49000000000001</ele>
        <time>2025-05-15T11:14:16Z</time>
      </trkpt>
      <trkpt lat="42.407913962379098" lon="2.581618968397379">
        <ele>637.49000000000001</ele>
        <time>2025-05-15T11:14:17Z</time>
      </trkpt>
      <trkpt lat="42.407884960994124" lon="2.581801023334265">
        <ele>637.00999999999999</ele>
        <time>2025-05-15T11:14:18Z</time>
      </trkpt>
      <trkpt lat="42.407814972102642" lon="2.581990035250783">
        <ele>637.00999999999999</ele>
        <time>2025-05-15T11:14:19Z</time>
      </trkpt>
      <trkpt lat="42.407730985432863" lon="2.582191033288837">
        <ele>636.52999999999997</ele>
        <time>2025-05-15T11:14:20Z</time>
      </trkpt>
      <trkpt lat="42.407626966014504" lon="2.582389013841748">
        <ele>637.00999999999999</ele>
        <time>2025-05-15T11:14:21Z</time>
      </trkpt>
      <trkpt lat="42.407499980181456" lon="2.582580959424377">
        <ele>637.49000000000001</ele>
        <time>2025-05-15T11:14:22Z</time>
      </trkpt>
      <trkpt lat="42.407256988808513" lon="2.582868961617351">
        <ele>637.97000000000003</ele>
        <time>2025-05-15T11:14:24Z</time>
      </trkpt>
      <trkpt lat="42.407150035724044" lon="2.582945991307497">
        <ele>637.97000000000003</ele>
        <time>2025-05-15T11:14:25Z</time>
      </trkpt>
      <trkpt lat="42.407051967456937" lon="2.582970969378948">
        <ele>638.45000000000005</ele>
        <time>2025-05-15T11:14:26Z</time>
      </trkpt>
      <trkpt lat="42.406963035464287" lon="2.582975998520851">
        <ele>637.97000000000003</ele>
        <time>2025-05-15T11:14:27Z</time>
      </trkpt>
      <trkpt lat="42.406874019652605" lon="2.582982033491135">
        <ele>637.97000000000003</ele>
        <time>2025-05-15T11:14:28Z</time>
      </trkpt>
      <trkpt lat="42.406783998012543" lon="2.582986978814006">
        <ele>637.49000000000001</ele>
        <time>2025-05-15T11:14:29Z</time>
      </trkpt>
      <trkpt lat="42.40673596970737" lon="2.583026038482785">
        <ele>637.00999999999999</ele>
        <time>2025-05-15T11:14:30Z</time>
      </trkpt>
      <trkpt lat="42.406702022999525" lon="2.583095021545887">
        <ele>636.04999999999995</ele>
        <time>2025-05-15T11:14:31Z</time>
      </trkpt>
      <trkpt lat="42.406668998301029" lon="2.583159981295466">
        <ele>635.57000000000005</ele>
        <time>2025-05-15T11:14:32Z</time>
      </trkpt>
      <trkpt lat="42.406677966937423" lon="2.583201974630356">
        <ele>635.09000000000003</ele>
        <time>2025-05-15T11:14:33Z</time>
      </trkpt>
      <trkpt lat="42.40669397637248" lon="2.583285039290786">
        <ele>634.13</ele>
        <time>2025-05-15T11:14:34Z</time>
      </trkpt>
      <trkpt lat="42.406722977757454" lon="2.583382017910481">
        <ele>633.16999999999996</ele>
        <time>2025-05-15T11:14:35Z</time>
      </trkpt>
      <trkpt lat="42.406820962205529" lon="2.583444966003299">
        <ele>632.20000000000005</ele>
        <time>2025-05-15T11:14:36Z</time>
      </trkpt>
      <trkpt lat="42.406931016594172" lon="2.583515960723162">
        <ele>631.72000000000003</ele>
        <time>2025-05-15T11:14:37Z</time>
      </trkpt>
      <trkpt lat="42.407036041840911" lon="2.583593996241689">
        <ele>630.27999999999997</ele>
        <time>2025-05-15T11:14:38Z</time>
      </trkpt>
      <trkpt lat="42.407139977440238" lon="2.583706984296441">
        <ele>629.32000000000005</ele>
        <time>2025-05-15T11:14:39Z</time>
      </trkpt>
      <trkpt lat="42.4072490260005" lon="2.583826007321477">
        <ele>628.36000000000001</ele>
        <time>2025-05-15T11:14:40Z</time>
      </trkpt>
      <trkpt lat="42.407307028770447" lon="2.583965985104442">
        <ele>627.39999999999998</ele>
        <time>2025-05-15T11:14:41Z</time>
      </trkpt>
      <trkpt lat="42.407366037368774" lon="2.584106968715787">
        <ele>626.44000000000005</ele>
        <time>2025-05-15T11:14:42Z</time>
      </trkpt>
      <trkpt lat="42.407419010996819" lon="2.584235966205597">
        <ele>625.47000000000003</ele>
        <time>2025-05-15T11:14:43Z</time>
      </trkpt>
      <trkpt lat="42.407481959089637" lon="2.584361024200916">
        <ele>624.50999999999999</ele>
        <time>2025-05-15T11:14:44Z</time>
      </trkpt>
      <trkpt lat="42.407563012093306" lon="2.584450040012598">
        <ele>623.54999999999995</ele>
        <time>2025-05-15T11:14:45Z</time>
      </trkpt>
      <trkpt lat="42.407641969621181" lon="2.584536038339138">
        <ele>622.59000000000003</ele>
        <time>2025-05-15T11:14:46Z</time>
      </trkpt>
      <trkpt lat="42.407707013189793" lon="2.584620025008917">
        <ele>621.63</ele>
        <time>2025-05-15T11:14:47Z</time>
      </trkpt>
      <trkpt lat="42.40774598903954" lon="2.584738964214921">
        <ele>620.66999999999996</ele>
        <time>2025-05-15T11:14:48Z</time>
      </trkpt>
      <trkpt lat="42.407763004302979" lon="2.58490702137351">
        <ele>619.71000000000004</ele>
        <time>2025-05-15T11:14:49Z</time>
      </trkpt>
      <trkpt lat="42.40776501595974" lon="2.585091004148126">
        <ele>619.23000000000002</ele>
        <time>2025-05-15T11:14:50Z</time>
      </trkpt>
      <trkpt lat="42.407779013738036" lon="2.585292002186179">
        <ele>618.75</ele>
        <time>2025-05-15T11:14:51Z</time>
      </trkpt>
      <trkpt lat="42.407822012901306" lon="2.585493000224233">
        <ele>618.25999999999999</ele>
        <time>2025-05-15T11:14:52Z</time>
      </trkpt>
      <trkpt lat="42.407876998186111" lon="2.585673965513706">
        <ele>617.77999999999997</ele>
        <time>2025-05-15T11:14:53Z</time>
      </trkpt>
      <trkpt lat="42.407930977642536" lon="2.58585300296545">
        <ele>617.29999999999995</ele>
        <time>2025-05-15T11:14:54Z</time>
      </trkpt>
      <trkpt lat="42.407999960705638" lon="2.586078979074955">
        <ele>617.29999999999995</ele>
        <time>2025-05-15T11:14:55Z</time>
      </trkpt>
      <trkpt lat="42.408018987625837" lon="2.586435964331031">
        <ele>616.82000000000005</ele>
        <time>2025-05-15T11:14:57Z</time>
      </trkpt>
      <trkpt lat="42.407995015382767" lon="2.586606033146381">
        <ele>616.34000000000003</ele>
        <time>2025-05-15T11:14:58Z</time>
      </trkpt>
      <trkpt lat="42.407972970977426" lon="2.586759002879262">
        <ele>616.34000000000003</ele>
        <time>2025-05-15T11:14:59Z</time>
      </trkpt>
      <trkpt lat="42.407940030097961" lon="2.586917001754046">
        <ele>616.34000000000003</ele>
        <time>2025-05-15T11:15:00Z</time>
      </trkpt>
      <trkpt lat="42.407882027328014" lon="2.587066031992436">
        <ele>617.29999999999995</ele>
        <time>2025-05-15T11:15:01Z</time>
      </trkpt>
      <trkpt lat="42.407822012901306" lon="2.587221013382077">
        <ele>617.77999999999997</ele>
        <time>2025-05-15T11:15:02Z</time>
      </trkpt>
      <trkpt lat="42.407758980989456" lon="2.587382029742003">
        <ele>617.77999999999997</ele>
        <time>2025-05-15T11:15:03Z</time>
      </trkpt>
      <trkpt lat="42.407689997926354" lon="2.587564000859857">
        <ele>617.77999999999997</ele>
        <time>2025-05-15T11:15:04Z</time>
      </trkpt>
      <trkpt lat="42.407624032348394" lon="2.587747983634472">
        <ele>617.29999999999995</ele>
        <time>2025-05-15T11:15:05Z</time>
      </trkpt>
      <trkpt lat="42.40755395963788" lon="2.587945964187384">
        <ele>616.82000000000005</ele>
        <time>2025-05-15T11:15:06Z</time>
      </trkpt>
      <trkpt lat="42.407477013766766" lon="2.588162971660495">
        <ele>616.82000000000005</ele>
        <time>2025-05-15T11:15:07Z</time>
      </trkpt>
      <trkpt lat="42.407183982431889" lon="2.588738976046443">
        <ele>616.82000000000005</ele>
        <time>2025-05-15T11:15:10Z</time>
      </trkpt>
      <trkpt lat="42.407067976891994" lon="2.588879959657788">
        <ele>617.29999999999995</ele>
        <time>2025-05-15T11:15:11Z</time>
      </trkpt>
      <trkpt lat="42.406955994665623" lon="2.589015997946262">
        <ele>617.29999999999995</ele>
        <time>2025-05-15T11:15:12Z</time>
      </trkpt>
      <trkpt lat="42.406857004389167" lon="2.589168967679143">
        <ele>616.82000000000005</ele>
        <time>2025-05-15T11:15:13Z</time>
      </trkpt>
      <trkpt lat="42.406788021326065" lon="2.589336019009352">
        <ele>615.86000000000001</ele>
        <time>2025-05-15T11:15:14Z</time>
      </trkpt>
      <trkpt lat="42.40671400912106" lon="2.589514972642064">
        <ele>615.38</ele>
        <time>2025-05-15T11:15:15Z</time>
      </trkpt>
      <trkpt lat="42.405938012525439" lon="2.591315992176533">
        <ele>605.76999999999998</ele>
        <time>2025-05-15T11:15:24Z</time>
      </trkpt>
      <trkpt lat="42.405232004821301" lon="2.5929219648242">
        <ele>600.96000000000004</ele>
        <time>2025-05-15T11:15:32Z</time>
      </trkpt>
      <trkpt lat="42.405158998444676" lon="2.593140983954072">
        <ele>600.48000000000002</ele>
        <time>2025-05-15T11:15:33Z</time>
      </trkpt>
      <trkpt lat="42.405096972361207" lon="2.593367965891957">
        <ele>599.51999999999998</ele>
        <time>2025-05-15T11:15:34Z</time>
      </trkpt>
      <trkpt lat="42.405075011774898" lon="2.593600982800126">
        <ele>598.55999999999995</ele>
        <time>2025-05-15T11:15:35Z</time>
      </trkpt>
      <trkpt lat="42.405052967369556" lon="2.593827964738011">
        <ele>598.08000000000004</ele>
        <time>2025-05-15T11:15:36Z</time>
      </trkpt>
      <trkpt lat="42.405037963762879" lon="2.594042038545013">
        <ele>597.12</ele>
        <time>2025-05-15T11:15:37Z</time>
      </trkpt>
      <trkpt lat="42.405037963762879" lon="2.594238007441163">
        <ele>596.14999999999998</ele>
        <time>2025-05-15T11:15:38Z</time>
      </trkpt>
      <trkpt lat="42.405022038146853" lon="2.594415033236146">
        <ele>595.19000000000005</ele>
        <time>2025-05-15T11:15:39Z</time>
      </trkpt>
      <trkpt lat="42.404969986528158" lon="2.594578983262181">
        <ele>594.71000000000004</ele>
        <time>2025-05-15T11:15:40Z</time>
      </trkpt>
      <trkpt lat="42.40490997210145" lon="2.59476900100708">
        <ele>594.23000000000002</ele>
        <time>2025-05-15T11:15:41Z</time>
      </trkpt>
      <trkpt lat="42.404831014573574" lon="2.594936974346638">
        <ele>593.75</ele>
        <time>2025-05-15T11:15:42Z</time>
      </trkpt>
      <trkpt lat="42.40473797544837" lon="2.595134032890201">
        <ele>593.26999999999998</ele>
        <time>2025-05-15T11:15:43Z</time>
      </trkpt>
      <trkpt lat="42.404696987941861" lon="2.595321033149958">
        <ele>592.78999999999996</ele>
        <time>2025-05-15T11:15:44Z</time>
      </trkpt>
      <trkpt lat="42.404654994606972" lon="2.595515996217728">
        <ele>591.83000000000004</ele>
        <time>2025-05-15T11:15:45Z</time>
      </trkpt>
      <trkpt lat="42.40458601154387" lon="2.595690004527569">
        <ele>590.87</ele>
        <time>2025-05-15T11:15:46Z</time>
      </trkpt>
      <trkpt lat="42.404484003782272" lon="2.595835011452436">
        <ele>589.90999999999997</ele>
        <time>2025-05-15T11:15:47Z</time>
      </trkpt>
      <trkpt lat="42.404375039041042" lon="2.595989992842078">
        <ele>588.95000000000005</ele>
        <time>2025-05-15T11:15:48Z</time>
      </trkpt>
      <trkpt lat="42.404180997982621" lon="2.596300039440393">
        <ele>587.5</ele>
        <time>2025-05-15T11:15:50Z</time>
      </trkpt>
      <trkpt lat="42.404096005484462" lon="2.596435993909836">
        <ele>586.53999999999996</ele>
        <time>2025-05-15T11:15:51Z</time>
      </trkpt>
      <trkpt lat="42.404034985229373" lon="2.596577983349562">
        <ele>585.58000000000004</ele>
        <time>2025-05-15T11:15:52Z</time>
      </trkpt>
      <trkpt lat="42.404010007157922" lon="2.596735982224345">
        <ele>585.10000000000002</ele>
        <time>2025-05-15T11:15:53Z</time>
      </trkpt>
      <trkpt lat="42.404017969965935" lon="2.596893981099129">
        <ele>584.62</ele>
        <time>2025-05-15T11:15:54Z</time>
      </trkpt>
      <trkpt lat="42.404025010764599" lon="2.597042005509138">
        <ele>584.13999999999999</ele>
        <time>2025-05-15T11:15:55Z</time>
      </trkpt>
      <trkpt lat="42.404030039906502" lon="2.597422963008285">
        <ele>582.70000000000005</ele>
        <time>2025-05-15T11:15:58Z</time>
      </trkpt>
      <trkpt lat="42.404026016592979" lon="2.597543997690082">
        <ele>582.22000000000003</ele>
        <time>2025-05-15T11:15:59Z</time>
      </trkpt>
      <trkpt lat="42.403977988287807" lon="2.597628990188241">
        <ele>581.73000000000002</ele>
        <time>2025-05-15T11:16:00Z</time>
      </trkpt>
      <trkpt lat="42.403930965811014" lon="2.59771297685802">
        <ele>581.25</ele>
        <time>2025-05-15T11:16:01Z</time>
      </trkpt>
      <trkpt lat="42.403886960819364" lon="2.597792018204927">
        <ele>581.25</ele>
        <time>2025-05-15T11:16:02Z</time>
      </trkpt>
      <trkpt lat="42.403837004676461" lon="2.597880028188229">
        <ele>581.25</ele>
        <time>2025-05-15T11:16:04Z</time>
      </trkpt>
      <trkpt lat="42.40381496027112" lon="2.598005002364516">
        <ele>581.73000000000002</ele>
        <time>2025-05-15T11:16:05Z</time>
      </trkpt>
      <trkpt lat="42.403781013563275" lon="2.598200971260667">
        <ele>582.70000000000005</ele>
        <time>2025-05-15T11:16:07Z</time>
      </trkpt>
      <trkpt lat="42.403761986643076" lon="2.598308008164167">
        <ele>583.17999999999995</ele>
        <time>2025-05-15T11:16:08Z</time>
      </trkpt>
      <trkpt lat="42.403731979429722" lon="2.598728025332093">
        <ele>584.13999999999999</ele>
        <time>2025-05-15T11:16:12Z</time>
      </trkpt>
      <trkpt lat="42.403711024671793" lon="2.599132033064961">
        <ele>584.13999999999999</ele>
        <time>2025-05-15T11:16:16Z</time>
      </trkpt>
      <trkpt lat="42.403717981651425" lon="2.599200010299683">
        <ele>584.13999999999999</ele>
        <time>2025-05-15T11:16:17Z</time>
      </trkpt>
      <trkpt lat="42.40376902744174" lon="2.59925901889801">
        <ele>584.13999999999999</ele>
        <time>2025-05-15T11:16:18Z</time>
      </trkpt>
      <trkpt lat="42.403820995241404" lon="2.599318027496338">
        <ele>584.13999999999999</ele>
        <time>2025-05-15T11:16:19Z</time>
      </trkpt>
      <trkpt lat="42.40385795943439" lon="2.599361026659608">
        <ele>584.13999999999999</ele>
        <time>2025-05-15T11:16:20Z</time>
      </trkpt>
      <trkpt lat="42.403935994952917" lon="2.599392039701343">
        <ele>584.13999999999999</ele>
        <time>2025-05-15T11:16:21Z</time>
      </trkpt>
      <trkpt lat="42.404009001329541" lon="2.599421041086316">
        <ele>584.13999999999999</ele>
        <time>2025-05-15T11:16:22Z</time>
      </trkpt>
      <trkpt lat="42.404079996049404" lon="2.599449036642909">
        <ele>584.13999999999999</ele>
        <time>2025-05-15T11:16:23Z</time>
      </trkpt>
      <trkpt lat="42.404151996597648" lon="2.599478960037231">
        <ele>584.13999999999999</ele>
        <time>2025-05-15T11:16:24Z</time>
      </trkpt>
      <trkpt lat="42.404576037079096" lon="2.599648023024201">
        <ele>585.58000000000004</ele>
        <time>2025-05-15T11:16:30Z</time>
      </trkpt>
      <trkpt lat="42.404628004878759" lon="2.599690016359091">
        <ele>586.05999999999995</ele>
        <time>2025-05-15T11:16:31Z</time>
      </trkpt>
      <trkpt lat="42.404668992385268" lon="2.599751958623529">
        <ele>586.53999999999996</ele>
        <time>2025-05-15T11:16:32Z</time>
      </trkpt>
      <trkpt lat="42.404703022912145" lon="2.599866036325693">
        <ele>587.5</ele>
        <time>2025-05-15T11:16:34Z</time>
      </trkpt>
      <trkpt lat="42.404706962406635" lon="2.599910041317344">
        <ele>587.98000000000002</ele>
        <time>2025-05-15T11:16:35Z</time>
      </trkpt>
      <trkpt lat="42.404669998213649" lon="2.599980030208826">
        <ele>588.95000000000005</ele>
        <time>2025-05-15T11:16:42Z</time>
      </trkpt>
      <trkpt lat="42.404621969908476" lon="2.599954968318343">
        <ele>588.95000000000005</ele>
        <time>2025-05-15T11:16:43Z</time>
      </trkpt>
      <trkpt lat="42.404554998502135" lon="2.599919009953737">
        <ele>589.42999999999995</ele>
        <time>2025-05-15T11:16:44Z</time>
      </trkpt>
      <trkpt lat="42.404482997953892" lon="2.59988103993237">
        <ele>589.42999999999995</ele>
        <time>2025-05-15T11:16:45Z</time>
      </trkpt>
      <trkpt lat="42.404407979920506" lon="2.599841980263591">
        <ele>589.90999999999997</ele>
        <time>2025-05-15T11:16:46Z</time>
      </trkpt>
      <trkpt lat="42.404098017141223" lon="2.59975497610867">
        <ele>591.83000000000004</ele>
        <time>2025-05-15T11:16:50Z</time>
      </trkpt>
      <trkpt lat="42.404011012986302" lon="2.599736033007503">
        <ele>592.30999999999995</ele>
        <time>2025-05-15T11:16:51Z</time>
      </trkpt>
      <trkpt lat="42.403926020488143" lon="2.599728992208839">
        <ele>592.78999999999996</ele>
        <time>2025-05-15T11:16:52Z</time>
      </trkpt>
      <trkpt lat="42.403287990018725" lon="2.599790012463927">
        <ele>596.63999999999999</ele>
        <time>2025-05-15T11:17:00Z</time>
      </trkpt>
      <trkpt lat="42.402450973168015" lon="2.599885985255241">
        <ele>598.55999999999995</ele>
        <time>2025-05-15T11:17:07Z</time>
      </trkpt>
      <trkpt lat="42.402291968464851" lon="2.599896965548396">
        <ele>598.55999999999995</ele>
        <time>2025-05-15T11:17:08Z</time>
      </trkpt>
      <trkpt lat="42.402194989845157" lon="2.599849021062255">
        <ele>598.55999999999995</ele>
        <time>2025-05-15T11:17:09Z</time>
      </trkpt>
      <trkpt lat="42.402083007618785" lon="2.599752964451909">
        <ele>598.55999999999995</ele>
        <time>2025-05-15T11:17:10Z</time>
      </trkpt>
      <trkpt lat="42.401969013735652" lon="2.599619021639228">
        <ele>598.08000000000004</ele>
        <time>2025-05-15T11:17:11Z</time>
      </trkpt>
      <trkpt lat="42.40187899209559" lon="2.599445013329387">
        <ele>597.60000000000002</ele>
        <time>2025-05-15T11:17:12Z</time>
      </trkpt>
      <trkpt lat="42.401787964627147" lon="2.599272010847926">
        <ele>597.60000000000002</ele>
        <time>2025-05-15T11:17:13Z</time>
      </trkpt>
      <trkpt lat="42.401711018756032" lon="2.599088028073311">
        <ele>597.12</ele>
        <time>2025-05-15T11:17:14Z</time>
      </trkpt>
      <trkpt lat="42.401660978794098" lon="2.598907984793186">
        <ele>596.63999999999999</ele>
        <time>2025-05-15T11:17:15Z</time>
      </trkpt>
      <trkpt lat="42.401612028479576" lon="2.598732970654964">
        <ele>596.63999999999999</ele>
        <time>2025-05-15T11:17:16Z</time>
      </trkpt>
      <trkpt lat="42.401546984910965" lon="2.598547982051969">
        <ele>595.66999999999996</ele>
        <time>2025-05-15T11:17:17Z</time>
      </trkpt>
      <trkpt lat="42.401461992412806" lon="2.59835796430707">
        <ele>595.19000000000005</ele>
        <time>2025-05-15T11:17:18Z</time>
      </trkpt>
      <trkpt lat="42.401355039328337" lon="2.598171969875693">
        <ele>595.19000000000005</ele>
        <time>2025-05-15T11:17:19Z</time>
      </trkpt>
      <trkpt lat="42.400693036615849" lon="2.597345011308789">
        <ele>595.66999999999996</ele>
        <time>2025-05-15T11:17:24Z</time>
      </trkpt>
      <trkpt lat="42.400575019419193" lon="2.597272004932165">
        <ele>596.14999999999998</ele>
        <time>2025-05-15T11:17:25Z</time>
      </trkpt>
      <trkpt lat="42.400435963645577" lon="2.597287008538842">
        <ele>596.63999999999999</ele>
        <time>2025-05-15T11:17:26Z</time>
      </trkpt>
      <trkpt lat="42.400293974205852" lon="2.597323972731829">
        <ele>597.12</ele>
        <time>2025-05-15T11:17:27Z</time>
      </trkpt>
      <trkpt lat="42.40016296505928" lon="2.597421035170555">
        <ele>597.60000000000002</ele>
        <time>2025-05-15T11:17:28Z</time>
      </trkpt>
      <trkpt lat="42.400019969791174" lon="2.597525976598263">
        <ele>598.08000000000004</ele>
        <time>2025-05-15T11:17:29Z</time>
      </trkpt>
      <trkpt lat="42.399876974523067" lon="2.59762697853148">
        <ele>598.55999999999995</ele>
        <time>2025-05-15T11:17:30Z</time>
      </trkpt>
      <trkpt lat="42.399700032547116" lon="2.597681963816285">
        <ele>599.03999999999996</ele>
        <time>2025-05-15T11:17:31Z</time>
      </trkpt>
      <trkpt lat="42.399519989266992" lon="2.597744995728135">
        <ele>599.51999999999998</ele>
        <time>2025-05-15T11:17:32Z</time>
      </trkpt>
      <trkpt lat="42.399368025362492" lon="2.597836023196578">
        <ele>600</ele>
        <time>2025-05-15T11:17:33Z</time>
      </trkpt>
      <trkpt lat="42.39923701621592" lon="2.598016988486052">
        <ele>600.48000000000002</ele>
        <time>2025-05-15T11:17:34Z</time>
      </trkpt>
      <trkpt lat="42.399126039817929" lon="2.598204994574189">
        <ele>600.96000000000004</ele>
        <time>2025-05-15T11:17:35Z</time>
      </trkpt>
      <trkpt lat="42.399009028449655" lon="2.59840196929872">
        <ele>600.96000000000004</ele>
        <time>2025-05-15T11:17:36Z</time>
      </trkpt>
      <trkpt lat="42.398671992123127" lon="2.598946038633585">
        <ele>602.39999999999998</ele>
        <time>2025-05-15T11:17:39Z</time>
      </trkpt>
      <trkpt lat="42.398553974926472" lon="2.599063972011209">
        <ele>602.39999999999998</ele>
        <time>2025-05-15T11:17:40Z</time>
      </trkpt>
      <trkpt lat="42.398423971608281" lon="2.599165979772806">
        <ele>602.88</ele>
        <time>2025-05-15T11:17:41Z</time>
      </trkpt>
      <trkpt lat="42.398102022707462" lon="2.599352980032563">
        <ele>602.88</ele>
        <time>2025-05-15T11:17:43Z</time>
      </trkpt>
      <trkpt lat="42.3975820094347" lon="2.599533023312688">
        <ele>602.88</ele>
        <time>2025-05-15T11:17:46Z</time>
      </trkpt>
      <trkpt lat="42.397433985024691" lon="2.599620027467609">
        <ele>602.88</ele>
        <time>2025-05-15T11:17:47Z</time>
      </trkpt>
      <trkpt lat="42.397319991141558" lon="2.599722035229206">
        <ele>602.88</ele>
        <time>2025-05-15T11:17:48Z</time>
      </trkpt>
      <trkpt lat="42.39721798337996" lon="2.599813984706998">
        <ele>602.39999999999998</ele>
        <time>2025-05-15T11:17:49Z</time>
      </trkpt>
      <trkpt lat="42.39713198505342" lon="2.599891014397144">
        <ele>602.39999999999998</ele>
        <time>2025-05-15T11:17:50Z</time>
      </trkpt>
      <trkpt lat="42.397067025303841" lon="2.599938958883286">
        <ele>601.91999999999996</ele>
        <time>2025-05-15T11:17:51Z</time>
      </trkpt>
      <trkpt lat="42.396926963701844" lon="2.599919009953737">
        <ele>601.44000000000005</ele>
        <time>2025-05-15T11:17:52Z</time>
      </trkpt>
      <trkpt lat="42.39687298424542" lon="2.599828988313675">
        <ele>600.96000000000004</ele>
        <time>2025-05-15T11:17:53Z</time>
      </trkpt>
      <trkpt lat="42.396777011454105" lon="2.59968901053071">
        <ele>600.48000000000002</ele>
        <time>2025-05-15T11:17:54Z</time>
      </trkpt>
      <trkpt lat="42.396656982600689" lon="2.599601000547409">
        <ele>600</ele>
        <time>2025-05-15T11:17:55Z</time>
      </trkpt>
      <trkpt lat="42.396515998989344" lon="2.599528999999166">
        <ele>599.51999999999998</ele>
        <time>2025-05-15T11:17:56Z</time>
      </trkpt>
      <trkpt lat="42.396366968750954" lon="2.59951600804925">
        <ele>599.51999999999998</ele>
        <time>2025-05-15T11:17:57Z</time>
      </trkpt>
      <trkpt lat="42.396064968779683" lon="2.599489018321037">
        <ele>598.08000000000004</ele>
        <time>2025-05-15T11:17:59Z</time>
      </trkpt>
      <trkpt lat="42.39541101269424" lon="2.599309980869293">
        <ele>596.63999999999999</ele>
        <time>2025-05-15T11:18:03Z</time>
      </trkpt>
      <trkpt lat="42.395249996334314" lon="2.599317021667957">
        <ele>597.12</ele>
        <time>2025-05-15T11:18:04Z</time>
      </trkpt>
      <trkpt lat="42.394945984706283" lon="2.599372006952763">
        <ele>598.08000000000004</ele>
        <time>2025-05-15T11:18:06Z</time>
      </trkpt>
      <trkpt lat="42.394803995266557" lon="2.599347028881311">
        <ele>599.03999999999996</ele>
        <time>2025-05-15T11:18:07Z</time>
      </trkpt>
      <trkpt lat="42.394657982513309" lon="2.599286008626223">
        <ele>599.51999999999998</ele>
        <time>2025-05-15T11:18:08Z</time>
      </trkpt>
      <trkpt lat="42.394523033872247" lon="2.599230017513037">
        <ele>600</ele>
        <time>2025-05-15T11:18:09Z</time>
      </trkpt>
      <trkpt lat="42.394398981705308" lon="2.599177965894342">
        <ele>600.48000000000002</ele>
        <time>2025-05-15T11:18:10Z</time>
      </trkpt>
      <trkpt lat="42.394267972558737" lon="2.599209984764457">
        <ele>600.96000000000004</ele>
        <time>2025-05-15T11:18:11Z</time>
      </trkpt>
      <trkpt lat="42.394137969240546" lon="2.599277961999178">
        <ele>600.96000000000004</ele>
        <time>2025-05-15T11:18:12Z</time>
      </trkpt>
      <trkpt lat="42.394025987014174" lon="2.599406959488988">
        <ele>600.96000000000004</ele>
        <time>2025-05-15T11:18:13Z</time>
      </trkpt>
      <trkpt lat="42.393910987302661" lon="2.59953998029232">
        <ele>601.44000000000005</ele>
        <time>2025-05-15T11:18:14Z</time>
      </trkpt>
      <trkpt lat="42.393834963440895" lon="2.599735027179122">
        <ele>601.44000000000005</ele>
        <time>2025-05-15T11:18:15Z</time>
      </trkpt>
      <trkpt lat="42.39378098398447" lon="2.59992596693337">
        <ele>602.39999999999998</ele>
        <time>2025-05-15T11:18:16Z</time>
      </trkpt>
      <trkpt lat="42.393724992871284" lon="2.600125959143043">
        <ele>602.88</ele>
        <time>2025-05-15T11:18:17Z</time>
      </trkpt>
      <trkpt lat="42.393665984272957" lon="2.60033299215138">
        <ele>603.85000000000002</ele>
        <time>2025-05-15T11:18:18Z</time>
      </trkpt>
      <trkpt lat="42.393601024523377" lon="2.600562991574407">
        <ele>605.28999999999996</ele>
        <time>2025-05-15T11:18:19Z</time>
      </trkpt>
      <trkpt lat="42.393514020368457" lon="2.600717972964048">
        <ele>606.73000000000002</ele>
        <time>2025-05-15T11:18:20Z</time>
      </trkpt>
      <trkpt lat="42.393419975414872" lon="2.600886030122638">
        <ele>608.16999999999996</ele>
        <time>2025-05-15T11:18:21Z</time>
      </trkpt>
      <trkpt lat="42.393301036208868" lon="2.601099014282227">
        <ele>609.13</ele>
        <time>2025-05-15T11:18:22Z</time>
      </trkpt>
      <trkpt lat="42.393171032890677" lon="2.601185012608767">
        <ele>610.57000000000005</ele>
        <time>2025-05-15T11:18:23Z</time>
      </trkpt>
      <trkpt lat="42.392982020974159" lon="2.601228011772037">
        <ele>611.53999999999996</ele>
        <time>2025-05-15T11:18:24Z</time>
      </trkpt>
      <trkpt lat="42.392825027927756" lon="2.601228011772037">
        <ele>612.98000000000002</ele>
        <time>2025-05-15T11:18:25Z</time>
      </trkpt>
      <trkpt lat="42.392667029052973" lon="2.601146036759019">
        <ele>613.94000000000005</ele>
        <time>2025-05-15T11:18:26Z</time>
      </trkpt>
      <trkpt lat="42.392539959400892" lon="2.601072024554014">
        <ele>615.38</ele>
        <time>2025-05-15T11:18:27Z</time>
      </trkpt>
      <trkpt lat="42.392420014366508" lon="2.601002035662532">
        <ele>616.34000000000003</ele>
        <time>2025-05-15T11:18:28Z</time>
      </trkpt>
      <trkpt lat="42.392308032140136" lon="2.60093598626554">
        <ele>617.77999999999997</ele>
        <time>2025-05-15T11:18:29Z</time>
      </trkpt>
      <trkpt lat="42.392208036035299" lon="2.600927017629147">
        <ele>618.25999999999999</ele>
        <time>2025-05-15T11:18:30Z</time>
      </trkpt>
      <trkpt lat="42.392079960554838" lon="2.600927017629147">
        <ele>619.23000000000002</ele>
        <time>2025-05-15T11:18:31Z</time>
      </trkpt>
      <trkpt lat="42.392001003026962" lon="2.601017039269209">
        <ele>619.71000000000004</ele>
        <time>2025-05-15T11:18:32Z</time>
      </trkpt>
      <trkpt lat="42.391922967508435" lon="2.601126004010439">
        <ele>620.19000000000005</ele>
        <time>2025-05-15T11:18:33Z</time>
      </trkpt>
      <trkpt lat="42.391848033294082" lon="2.601266987621784">
        <ele>620.66999999999996</ele>
        <time>2025-05-15T11:18:34Z</time>
      </trkpt>
      <trkpt lat="42.391768991947174" lon="2.601416017860174">
        <ele>620.66999999999996</ele>
        <time>2025-05-15T11:18:35Z</time>
      </trkpt>
      <trkpt lat="42.391681987792253" lon="2.601578962057829">
        <ele>620.66999999999996</ele>
        <time>2025-05-15T11:18:36Z</time>
      </trkpt>
      <trkpt lat="42.391594983637333" lon="2.601745007559657">
        <ele>620.66999999999996</ele>
        <time>2025-05-15T11:18:37Z</time>
      </trkpt>
      <trkpt lat="42.391517031937838" lon="2.601919015869498">
        <ele>621.14999999999998</ele>
        <time>2025-05-15T11:18:38Z</time>
      </trkpt>
      <trkpt lat="42.391357021406293" lon="2.602271977812052">
        <ele>620.66999999999996</ele>
        <time>2025-05-15T11:18:40Z</time>
      </trkpt>
      <trkpt lat="42.391256019473076" lon="2.602414973080158">
        <ele>620.66999999999996</ele>
        <time>2025-05-15T11:18:41Z</time>
      </trkpt>
      <trkpt lat="42.391135990619659" lon="2.602483034133911">
        <ele>620.66999999999996</ele>
        <time>2025-05-15T11:18:42Z</time>
      </trkpt>
      <trkpt lat="42.391006993129849" lon="2.602556962519884">
        <ele>620.66999999999996</ele>
        <time>2025-05-15T11:18:43Z</time>
      </trkpt>
      <trkpt lat="42.390872966498137" lon="2.60263298638165">
        <ele>620.66999999999996</ele>
        <time>2025-05-15T11:18:44Z</time>
      </trkpt>
      <trkpt lat="42.390745980665088" lon="2.602728959172964">
        <ele>620.66999999999996</ele>
        <time>2025-05-15T11:18:45Z</time>
      </trkpt>
      <trkpt lat="42.390624023973942" lon="2.602823004126549">
        <ele>620.66999999999996</ele>
        <time>2025-05-15T11:18:46Z</time>
      </trkpt>
      <trkpt lat="42.390506006777287" lon="2.602915037423372">
        <ele>620.66999999999996</ele>
        <time>2025-05-15T11:18:47Z</time>
      </trkpt>
      <trkpt lat="42.390096969902515" lon="2.603295994922519">
        <ele>621.63</ele>
        <time>2025-05-15T11:18:51Z</time>
      </trkpt>
      <trkpt lat="42.389988005161285" lon="2.603336982429028">
        <ele>621.63</ele>
        <time>2025-05-15T11:18:52Z</time>
      </trkpt>
      <trkpt lat="42.389879040420055" lon="2.603346034884453">
        <ele>622.11000000000001</ele>
        <time>2025-05-15T11:18:53Z</time>
      </trkpt>
      <trkpt lat="42.389547033235431" lon="2.603373024612665">
        <ele>624.50999999999999</ele>
        <time>2025-05-15T11:18:56Z</time>
      </trkpt>
      <trkpt lat="42.389445025473833" lon="2.603453993797302">
        <ele>624.99000000000001</ele>
        <time>2025-05-15T11:18:57Z</time>
      </trkpt>
      <trkpt lat="42.3893310315907" lon="2.603545021265745">
        <ele>625.96000000000004</ele>
        <time>2025-05-15T11:18:58Z</time>
      </trkpt>
      <trkpt lat="42.389315022155643" lon="2.603673012927175">
        <ele>626.91999999999996</ele>
        <time>2025-05-15T11:18:59Z</time>
      </trkpt>
      <trkpt lat="42.389297001063824" lon="2.603822965174913">
        <ele>627.88</ele>
        <time>2025-05-15T11:19:00Z</time>
      </trkpt>
      <trkpt lat="42.389276968315244" lon="2.603980964049697">
        <ele>628.84000000000003</ele>
        <time>2025-05-15T11:19:01Z</time>
      </trkpt>
      <trkpt lat="42.389276968315244" lon="2.604146003723145">
        <ele>629.32000000000005</ele>
        <time>2025-05-15T11:19:02Z</time>
      </trkpt>
      <trkpt lat="42.389294989407063" lon="2.604309031739831">
        <ele>630.75999999999999</ele>
        <time>2025-05-15T11:19:03Z</time>
      </trkpt>
      <trkpt lat="42.389317033812404" lon="2.604467030614615">
        <ele>631.72000000000003</ele>
        <time>2025-05-15T11:19:04Z</time>
      </trkpt>
      <trkpt lat="42.389364978298545" lon="2.604607008397579">
        <ele>632.67999999999995</ele>
        <time>2025-05-15T11:19:05Z</time>
      </trkpt>
      <trkpt lat="42.389414012432098" lon="2.604748997837305">
        <ele>633.64999999999998</ele>
        <time>2025-05-15T11:19:06Z</time>
      </trkpt>
      <trkpt lat="42.389463968575001" lon="2.604894004762173">
        <ele>634.13</ele>
        <time>2025-05-15T11:19:07Z</time>
      </trkpt>
      <trkpt lat="42.389515014365315" lon="2.605042029172182">
        <ele>634.13</ele>
        <time>2025-05-15T11:19:08Z</time>
      </trkpt>
      <trkpt lat="42.38954602740705" lon="2.605188963934779">
        <ele>634.13</ele>
        <time>2025-05-15T11:19:09Z</time>
      </trkpt>
      <trkpt lat="42.38954602740705" lon="2.605344029143453">
        <ele>634.13</ele>
        <time>2025-05-15T11:19:10Z</time>
      </trkpt>
      <trkpt lat="42.38954602740705" lon="2.605500016361475">
        <ele>634.13</ele>
        <time>2025-05-15T11:19:11Z</time>
      </trkpt>
      <trkpt lat="42.389536974951625" lon="2.605662038549781">
        <ele>634.61000000000001</ele>
        <time>2025-05-15T11:19:12Z</time>
      </trkpt>
      <trkpt lat="42.389528006315231" lon="2.605828000232577">
        <ele>635.09000000000003</ele>
        <time>2025-05-15T11:19:13Z</time>
      </trkpt>
      <trkpt lat="42.389494981616735" lon="2.605982981622219">
        <ele>635.09000000000003</ele>
        <time>2025-05-15T11:19:14Z</time>
      </trkpt>
      <trkpt lat="42.38943899050355" lon="2.606128994375467">
        <ele>635.57000000000005</ele>
        <time>2025-05-15T11:19:15Z</time>
      </trkpt>
      <trkpt lat="42.389188958331943" lon="2.606488997116685">
        <ele>636.04999999999995</ele>
        <time>2025-05-15T11:19:18Z</time>
      </trkpt>
      <trkpt lat="42.389110000804067" lon="2.606626963242889">
        <ele>636.52999999999997</ele>
        <time>2025-05-15T11:19:19Z</time>
      </trkpt>
      <trkpt lat="42.389079993590713" lon="2.606784040108323">
        <ele>636.52999999999997</ele>
        <time>2025-05-15T11:19:20Z</time>
      </trkpt>
      <trkpt lat="42.389041017740965" lon="2.607124010100961">
        <ele>636.52999999999997</ele>
        <time>2025-05-15T11:19:22Z</time>
      </trkpt>
      <trkpt lat="42.389059038832784" lon="2.607281003147364">
        <ele>636.52999999999997</ele>
        <time>2025-05-15T11:19:23Z</time>
      </trkpt>
      <trkpt lat="42.38909499719739" lon="2.607587026432157">
        <ele>637.00999999999999</ele>
        <time>2025-05-15T11:19:25Z</time>
      </trkpt>
      <trkpt lat="42.389113018289208" lon="2.60774401947856">
        <ele>637.00999999999999</ele>
        <time>2025-05-15T11:19:26Z</time>
      </trkpt>
      <trkpt lat="42.3890720307827" lon="2.607879973948002">
        <ele>636.52999999999997</ele>
        <time>2025-05-15T11:19:27Z</time>
      </trkpt>
      <trkpt lat="42.389014028012753" lon="2.608021041378379">
        <ele>636.52999999999997</ele>
        <time>2025-05-15T11:19:28Z</time>
      </trkpt>
      <trkpt lat="42.388955019414425" lon="2.608164036646485">
        <ele>636.52999999999997</ele>
        <time>2025-05-15T11:19:29Z</time>
      </trkpt>
      <trkpt lat="42.388897016644478" lon="2.608305020257831">
        <ele>637.00999999999999</ele>
        <time>2025-05-15T11:19:30Z</time>
      </trkpt>
      <trkpt lat="42.388855023309588" lon="2.608477016910911">
        <ele>637.49000000000001</ele>
        <time>2025-05-15T11:19:31Z</time>
      </trkpt>
      <trkpt lat="42.388847982510924" lon="2.608637027442455">
        <ele>637.49000000000001</ele>
        <time>2025-05-15T11:19:32Z</time>
      </trkpt>
      <trkpt lat="42.388840019702911" lon="2.608796032145619">
        <ele>637.49000000000001</ele>
        <time>2025-05-15T11:19:33Z</time>
      </trkpt>
      <trkpt lat="42.388845970854163" lon="2.608964005485177">
        <ele>637.97000000000003</ele>
        <time>2025-05-15T11:19:34Z</time>
      </trkpt>
      <trkpt lat="42.38888100720942" lon="2.609468009322882">
        <ele>638.92999999999995</ele>
        <time>2025-05-15T11:19:37Z</time>
      </trkpt>
      <trkpt lat="42.388843037188053" lon="2.609555013477802">
        <ele>639.40999999999997</ele>
        <time>2025-05-15T11:19:38Z</time>
      </trkpt>
      <trkpt lat="42.388780005276203" lon="2.609646962955594">
        <ele>639.88999999999999</ele>
        <time>2025-05-15T11:19:39Z</time>
      </trkpt>
      <trkpt lat="42.38868503831327" lon="2.609721980988979">
        <ele>640.86000000000001</ele>
        <time>2025-05-15T11:19:40Z</time>
      </trkpt>
      <trkpt lat="42.388586970046163" lon="2.609794987365603">
        <ele>641.34000000000003</ele>
        <time>2025-05-15T11:19:41Z</time>
      </trkpt>
      <trkpt lat="42.388499965891242" lon="2.609860030934215">
        <ele>642.29999999999995</ele>
        <time>2025-05-15T11:19:42Z</time>
      </trkpt>
      <trkpt lat="42.388422014191747" lon="2.609938988462091">
        <ele>642.77999999999997</ele>
        <time>2025-05-15T11:19:43Z</time>
      </trkpt>
      <trkpt lat="42.388360993936658" lon="2.610024986788631">
        <ele>643.74000000000001</ele>
        <time>2025-05-15T11:19:44Z</time>
      </trkpt>
      <trkpt lat="42.388297040015459" lon="2.610120037570596">
        <ele>644.22000000000003</ele>
        <time>2025-05-15T11:19:45Z</time>
      </trkpt>
      <trkpt lat="42.388251023367047" lon="2.610223973169923">
        <ele>644.22000000000003</ele>
        <time>2025-05-15T11:19:46Z</time>
      </trkpt>
      <trkpt lat="42.38812998868525" lon="2.6104979775846">
        <ele>644.70000000000005</ele>
        <time>2025-05-15T11:19:49Z</time>
      </trkpt>
      <trkpt lat="42.388055976480246" lon="2.610534019768238">
        <ele>644.70000000000005</ele>
        <time>2025-05-15T11:19:50Z</time>
      </trkpt>
      <trkpt lat="42.387972995638847" lon="2.610576013103128">
        <ele>645.65999999999997</ele>
        <time>2025-05-15T11:19:51Z</time>
      </trkpt>
      <trkpt lat="42.387888003140688" lon="2.610618006438017">
        <ele>645.65999999999997</ele>
        <time>2025-05-15T11:19:52Z</time>
      </trkpt>
      <trkpt lat="42.387800998985767" lon="2.610665028914809">
        <ele>646.13999999999999</ele>
        <time>2025-05-15T11:19:53Z</time>
      </trkpt>
      <trkpt lat="42.38771902397275" lon="2.610713979229331">
        <ele>646.62</ele>
        <time>2025-05-15T11:19:54Z</time>
      </trkpt>
      <trkpt lat="42.387635037302971" lon="2.610764019191265">
        <ele>647.59000000000003</ele>
        <time>2025-05-15T11:19:55Z</time>
      </trkpt>
      <trkpt lat="42.38755096681416" lon="2.610814981162548">
        <ele>648.07000000000005</ele>
        <time>2025-05-15T11:19:56Z</time>
      </trkpt>
      <trkpt lat="42.387463040649891" lon="2.610887987539172">
        <ele>649.02999999999997</ele>
        <time>2025-05-15T11:19:57Z</time>
      </trkpt>
      <trkpt lat="42.38724896684289" lon="2.61111999861896">
        <ele>650.95000000000005</ele>
        <time>2025-05-15T11:20:00Z</time>
      </trkpt>
      <trkpt lat="42.387118963524699" lon="2.611270034685731">
        <ele>651.90999999999997</ele>
        <time>2025-05-15T11:20:02Z</time>
      </trkpt>
      <trkpt lat="42.387060960754752" lon="2.611339017748833">
        <ele>652.38999999999999</ele>
        <time>2025-05-15T11:20:03Z</time>
      </trkpt>
      <trkpt lat="42.38699197769165" lon="2.61141998693347">
        <ele>652.87</ele>
        <time>2025-05-15T11:20:04Z</time>
      </trkpt>
      <trkpt lat="42.386875972151756" lon="2.6116359885782">
        <ele>654.79999999999995</ele>
        <time>2025-05-15T11:20:07Z</time>
      </trkpt>
      <trkpt lat="42.386824004352093" lon="2.611705977469683">
        <ele>654.79999999999995</ele>
        <time>2025-05-15T11:20:08Z</time>
      </trkpt>
      <trkpt lat="42.386750997975469" lon="2.611733973026276">
        <ele>654.79999999999995</ele>
        <time>2025-05-15T11:20:09Z</time>
      </trkpt>
      <trkpt lat="42.386078014969826" lon="2.611986016854644">
        <ele>653.83000000000004</ele>
        <time>2025-05-15T11:20:18Z</time>
      </trkpt>
      <trkpt lat="42.386011965572834" lon="2.612010994926095">
        <ele>653.83000000000004</ele>
        <time>2025-05-15T11:20:19Z</time>
      </trkpt>
      <trkpt lat="42.385983970016241" lon="2.612020969390869">
        <ele>653.83000000000004</ele>
        <time>2025-05-15T11:20:20Z</time>
      </trkpt>
      <trkpt lat="42.385884979739785" lon="2.612048964947462">
        <ele>653.35000000000002</ele>
        <time>2025-05-15T11:20:21Z</time>
      </trkpt>
      <trkpt lat="42.385820019990206" lon="2.612067991867662">
        <ele>652.87</ele>
        <time>2025-05-15T11:20:22Z</time>
      </trkpt>
      <trkpt lat="42.385758999735117" lon="2.6120850071311">
        <ele>652.87</ele>
        <time>2025-05-15T11:20:23Z</time>
      </trkpt>
      <trkpt lat="42.385696973651648" lon="2.612103028222919">
        <ele>652.38999999999999</ele>
        <time>2025-05-15T11:20:24Z</time>
      </trkpt>
      <trkpt lat="42.385639976710081" lon="2.612119037657976">
        <ele>651.90999999999997</ele>
        <time>2025-05-15T11:20:25Z</time>
      </trkpt>
      <trkpt lat="42.385580968111753" lon="2.612135969102383">
        <ele>651.42999999999995</ele>
        <time>2025-05-15T11:20:26Z</time>
      </trkpt>
      <trkpt lat="42.38552900031209" lon="2.612147033214569">
        <ele>651.42999999999995</ele>
        <time>2025-05-15T11:20:27Z</time>
      </trkpt>
      <trkpt lat="42.385464962571859" lon="2.612113002687693">
        <ele>650.95000000000005</ele>
        <time>2025-05-15T11:20:28Z</time>
      </trkpt>
      <trkpt lat="42.385398996993899" lon="2.612076960504055">
        <ele>650.47000000000003</ele>
        <time>2025-05-15T11:20:29Z</time>
      </trkpt>
      <trkpt lat="42.385296989232302" lon="2.612020969390869">
        <ele>650.47000000000003</ele>
        <time>2025-05-15T11:20:30Z</time>
      </trkpt>
      <trkpt lat="42.385262958705425" lon="2.611973024904728">
        <ele>649.50999999999999</ele>
        <time>2025-05-15T11:20:31Z</time>
      </trkpt>
      <trkpt lat="42.385215014219284" lon="2.611905969679356">
        <ele>648.54999999999995</ele>
        <time>2025-05-15T11:20:32Z</time>
      </trkpt>
      <trkpt lat="42.38516497425735" lon="2.611836986616254">
        <ele>647.10000000000002</ele>
        <time>2025-05-15T11:20:33Z</time>
      </trkpt>
      <trkpt lat="42.385116023942828" lon="2.611769009381533">
        <ele>645.65999999999997</ele>
        <time>2025-05-15T11:20:34Z</time>
      </trkpt>
      <trkpt lat="42.385063972324133" lon="2.611697008833289">
        <ele>644.70000000000005</ele>
        <time>2025-05-15T11:20:35Z</time>
      </trkpt>
      <trkpt lat="42.38501301035285" lon="2.611626014113426">
        <ele>644.22000000000003</ele>
        <time>2025-05-15T11:20:36Z</time>
      </trkpt>
      <trkpt lat="42.384964982047677" lon="2.611559964716435">
        <ele>643.74000000000001</ele>
        <time>2025-05-15T11:20:37Z</time>
      </trkpt>
      <trkpt lat="42.384888958185911" lon="2.611485030502081">
        <ele>643.25999999999999</ele>
        <time>2025-05-15T11:20:38Z</time>
      </trkpt>
      <trkpt lat="42.38482098095119" lon="2.611485030502081">
        <ele>642.77999999999997</ele>
        <time>2025-05-15T11:20:39Z</time>
      </trkpt>
      <trkpt lat="42.384750992059708" lon="2.611485030502081">
        <ele>642.29999999999995</ele>
        <time>2025-05-15T11:20:40Z</time>
      </trkpt>
      <trkpt lat="42.384661976248026" lon="2.611497016623616">
        <ele>641.82000000000005</ele>
        <time>2025-05-15T11:20:41Z</time>
      </trkpt>
      <trkpt lat="42.384603973478079" lon="2.611553007736802">
        <ele>641.34000000000003</ele>
        <time>2025-05-15T11:20:42Z</time>
      </trkpt>
      <trkpt lat="42.384543959051371" lon="2.611610004678369">
        <ele>640.86000000000001</ele>
        <time>2025-05-15T11:20:43Z</time>
      </trkpt>
      <trkpt lat="42.38447698764503" lon="2.611673958599567">
        <ele>640.38</ele>
        <time>2025-05-15T11:20:44Z</time>
      </trkpt>
      <trkpt lat="42.38441102206707" lon="2.611736990511417">
        <ele>639.88999999999999</ele>
        <time>2025-05-15T11:20:45Z</time>
      </trkpt>
      <trkpt lat="42.384215975180268" lon="2.611923990771174">
        <ele>637.97000000000003</ele>
        <time>2025-05-15T11:20:48Z</time>
      </trkpt>
      <trkpt lat="42.384152021259069" lon="2.612002026289702">
        <ele>637.49000000000001</ele>
        <time>2025-05-15T11:20:49Z</time>
      </trkpt>
      <trkpt lat="42.384125031530857" lon="2.612084001302719">
        <ele>637.49000000000001</ele>
        <time>2025-05-15T11:20:50Z</time>
      </trkpt>
      <trkpt lat="42.38406702876091" lon="2.61225800961256">
        <ele>637.00999999999999</ele>
        <time>2025-05-15T11:20:52Z</time>
      </trkpt>
      <trkpt lat="42.383873993530869" lon="2.613015985116363">
        <ele>637.97000000000003</ele>
        <time>2025-05-15T11:21:00Z</time>
      </trkpt>
      <trkpt lat="42.383863013237715" lon="2.613196028396487">
        <ele>637.97000000000003</ele>
        <time>2025-05-15T11:21:02Z</time>
      </trkpt>
      <trkpt lat="42.383851027116179" lon="2.613382022827864">
        <ele>637.49000000000001</ele>
        <time>2025-05-15T11:21:04Z</time>
      </trkpt>
      <trkpt lat="42.383844992145896" lon="2.613485958427191">
        <ele>637.00999999999999</ele>
        <time>2025-05-15T11:21:05Z</time>
      </trkpt>
      <trkpt lat="42.383838035166264" lon="2.613588972017169">
        <ele>637.00999999999999</ele>
        <time>2025-05-15T11:21:06Z</time>
      </trkpt>
      <trkpt lat="42.383868964388967" lon="2.613787958398461">
        <ele>637.00999999999999</ele>
        <time>2025-05-15T11:21:08Z</time>
      </trkpt>
      <trkpt lat="42.383884973824024" lon="2.613889966160059">
        <ele>637.00999999999999</ele>
        <time>2025-05-15T11:21:09Z</time>
      </trkpt>
      <trkpt lat="42.383954962715507" lon="2.614348037168384">
        <ele>637.00999999999999</ele>
        <time>2025-05-15T11:21:13Z</time>
      </trkpt>
      <trkpt lat="42.383962003514171" lon="2.614451972767711">
        <ele>636.52999999999997</ele>
        <time>2025-05-15T11:21:14Z</time>
      </trkpt>
      <trkpt lat="42.383944988250732" lon="2.614553980529308">
        <ele>636.52999999999997</ele>
        <time>2025-05-15T11:21:15Z</time>
      </trkpt>
      <trkpt lat="42.383872987702489" lon="2.614843994379044">
        <ele>636.52999999999997</ele>
        <time>2025-05-15T11:21:18Z</time>
      </trkpt>
      <trkpt lat="42.383810039609671" lon="2.614915994927287">
        <ele>636.04999999999995</ele>
        <time>2025-05-15T11:21:19Z</time>
      </trkpt>
      <trkpt lat="42.383728986606002" lon="2.614989001303911">
        <ele>635.57000000000005</ele>
        <time>2025-05-15T11:21:20Z</time>
      </trkpt>
      <trkpt lat="42.383554978296161" lon="2.615038035437465">
        <ele>635.09000000000003</ele>
        <time>2025-05-15T11:21:22Z</time>
      </trkpt>
      <trkpt lat="42.383298994973302" lon="2.615053039044142">
        <ele>633.16999999999996</ele>
        <time>2025-05-15T11:21:25Z</time>
      </trkpt>
      <trkpt lat="42.383128004148602" lon="2.615036023780704">
        <ele>631.72000000000003</ele>
        <time>2025-05-15T11:21:27Z</time>
      </trkpt>
      <trkpt lat="42.383050974458456" lon="2.615027977153659">
        <ele>631.24000000000001</ele>
        <time>2025-05-15T11:21:28Z</time>
      </trkpt>
      <trkpt lat="42.382987020537257" lon="2.614937033504248">
        <ele>630.75999999999999</ele>
        <time>2025-05-15T11:21:29Z</time>
      </trkpt>
      <trkpt lat="42.382961958646774" lon="2.614834019914269">
        <ele>630.27999999999997</ele>
        <time>2025-05-15T11:21:30Z</time>
      </trkpt>
      <trkpt lat="42.382942009717226" lon="2.614737041294575">
        <ele>629.79999999999995</ele>
        <time>2025-05-15T11:21:31Z</time>
      </trkpt>
      <trkpt lat="42.382922982797027" lon="2.614647019654512">
        <ele>629.32000000000005</ele>
        <time>2025-05-15T11:21:32Z</time>
      </trkpt>
      <trkpt lat="42.382893981412053" lon="2.614509975537658">
        <ele>628.84000000000003</ele>
        <time>2025-05-15T11:21:33Z</time>
      </trkpt>
      <trkpt lat="42.38284201361239" lon="2.614468988031149">
        <ele>628.36000000000001</ele>
        <time>2025-05-15T11:21:34Z</time>
      </trkpt>
      <trkpt lat="42.382743023335934" lon="2.614446021616459">
        <ele>627.88</ele>
        <time>2025-05-15T11:21:35Z</time>
      </trkpt>
      <trkpt lat="42.382680997252464" lon="2.614477034658194">
        <ele>627.39999999999998</ele>
        <time>2025-05-15T11:21:36Z</time>
      </trkpt>
      <trkpt lat="42.382615031674504" lon="2.614509975537658">
        <ele>626.91999999999996</ele>
        <time>2025-05-15T11:21:37Z</time>
      </trkpt>
      <trkpt lat="42.382540013641119" lon="2.614601003006101">
        <ele>626.44000000000005</ele>
        <time>2025-05-15T11:21:38Z</time>
      </trkpt>
      <trkpt lat="42.38249802030623" lon="2.614693036302924">
        <ele>625.96000000000004</ele>
        <time>2025-05-15T11:21:39Z</time>
      </trkpt>
      <trkpt lat="42.38245602697134" lon="2.614784985780716">
        <ele>625.47000000000003</ele>
        <time>2025-05-15T11:21:40Z</time>
      </trkpt>
      <trkpt lat="42.38241596147418" lon="2.614871989935637">
        <ele>624.99000000000001</ele>
        <time>2025-05-15T11:21:41Z</time>
      </trkpt>
      <trkpt lat="42.38234899006784" lon="2.615019008517265">
        <ele>623.54999999999995</ele>
        <time>2025-05-15T11:21:43Z</time>
      </trkpt>
      <trkpt lat="42.38228302448988" lon="2.615198967978358">
        <ele>623.54999999999995</ele>
        <time>2025-05-15T11:21:47Z</time>
      </trkpt>
      <trkpt lat="42.382271960377693" lon="2.615268034860492">
        <ele>624.50999999999999</ele>
        <time>2025-05-15T11:21:48Z</time>
      </trkpt>
      <trkpt lat="42.382359970360994" lon="2.615374987944961">
        <ele>624.99000000000001</ele>
        <time>2025-05-15T11:21:49Z</time>
      </trkpt>
      <trkpt lat="42.3823700286448" lon="2.615470960736275">
        <ele>624.99000000000001</ele>
        <time>2025-05-15T11:21:50Z</time>
      </trkpt>
      <trkpt lat="42.382227033376694" lon="2.615546984598041">
        <ele>625.47000000000003</ele>
        <time>2025-05-15T11:21:51Z</time>
      </trkpt>
      <trkpt lat="42.382207000628114" lon="2.615669025108218">
        <ele>625.47000000000003</ele>
        <time>2025-05-15T11:21:52Z</time>
      </trkpt>
      <trkpt lat="42.382189985364676" lon="2.615692997351289">
        <ele>624.99000000000001</ele>
        <time>2025-05-15T11:21:53Z</time>
      </trkpt>
      <trkpt lat="42.382144974544644" lon="2.6157580409199">
        <ele>624.99000000000001</ele>
        <time>2025-05-15T11:21:54Z</time>
      </trkpt>
      <trkpt lat="42.382100969552994" lon="2.615820989012718">
        <ele>624.99000000000001</ele>
        <time>2025-05-15T11:21:55Z</time>
      </trkpt>
      <trkpt lat="42.38189896568656" lon="2.616108991205692">
        <ele>625.47000000000003</ele>
        <time>2025-05-15T11:21:59Z</time>
      </trkpt>
      <trkpt lat="42.381854960694909" lon="2.616172023117542">
        <ele>625.47000000000003</ele>
        <time>2025-05-15T11:22:00Z</time>
      </trkpt>
      <trkpt lat="42.381517002359033" lon="2.616652976721525">
        <ele>627.39999999999998</ele>
        <time>2025-05-15T11:22:06Z</time>
      </trkpt>
      <trkpt lat="42.381285997107625" lon="2.616956988349557">
        <ele>628.84000000000003</ele>
        <time>2025-05-15T11:22:10Z</time>
      </trkpt>
      <trkpt lat="42.381226988509297" lon="2.617035023868084">
        <ele>629.32000000000005</ele>
        <time>2025-05-15T11:22:11Z</time>
      </trkpt>
      <trkpt lat="42.380517041310668" lon="2.617967007681727">
        <ele>638.45000000000005</ele>
        <time>2025-05-15T11:22:24Z</time>
      </trkpt>
      <trkpt lat="42.380334986373782" lon="2.618182003498077">
        <ele>639.88999999999999</ele>
        <time>2025-05-15T11:22:27Z</time>
      </trkpt>
      <trkpt lat="42.380182016640902" lon="2.618246041238308">
        <ele>640.86000000000001</ele>
        <time>2025-05-15T11:22:29Z</time>
      </trkpt>
      <trkpt lat="42.380100963637233" lon="2.61827303096652">
        <ele>641.34000000000003</ele>
        <time>2025-05-15T11:22:30Z</time>
      </trkpt>
      <trkpt lat="42.380023011937737" lon="2.618289040401578">
        <ele>641.82000000000005</ele>
        <time>2025-05-15T11:22:31Z</time>
      </trkpt>
      <trkpt lat="42.379938019439578" lon="2.618293985724449">
        <ele>641.82000000000005</ele>
        <time>2025-05-15T11:22:32Z</time>
      </trkpt>
      <trkpt lat="42.379847997799516" lon="2.618300020694733">
        <ele>642.29999999999995</ele>
        <time>2025-05-15T11:22:33Z</time>
      </trkpt>
      <trkpt lat="42.379759987816215" lon="2.618304966017604">
        <ele>642.29999999999995</ele>
        <time>2025-05-15T11:22:34Z</time>
      </trkpt>
      <trkpt lat="42.379717994481325" lon="2.618307983502746">
        <ele>642.77999999999997</ele>
        <time>2025-05-15T11:22:35Z</time>
      </trkpt>
      <trkpt lat="42.379614980891347" lon="2.618428012356162">
        <ele>642.77999999999997</ele>
        <time>2025-05-15T11:22:36Z</time>
      </trkpt>
      <trkpt lat="42.379554966464639" lon="2.618524990975857">
        <ele>642.77999999999997</ele>
        <time>2025-05-15T11:22:37Z</time>
      </trkpt>
      <trkpt lat="42.379220025613904" lon="2.619065959006548">
        <ele>644.22000000000003</ele>
        <time>2025-05-15T11:22:41Z</time>
      </trkpt>
      <trkpt lat="42.379099996760488" lon="2.619160003960133">
        <ele>644.70000000000005</ele>
        <time>2025-05-15T11:22:42Z</time>
      </trkpt>
      <trkpt lat="42.379009975120425" lon="2.619230998679996">
        <ele>644.70000000000005</ele>
        <time>2025-05-15T11:22:43Z</time>
      </trkpt>
      <trkpt lat="42.378863962367177" lon="2.619282966479659">
        <ele>645.17999999999995</ele>
        <time>2025-05-15T11:22:44Z</time>
      </trkpt>
      <trkpt lat="42.378776036202908" lon="2.619315991178155">
        <ele>645.17999999999995</ele>
        <time>2025-05-15T11:22:45Z</time>
      </trkpt>
      <trkpt lat="42.378663970157504" lon="2.619355972856283">
        <ele>645.65999999999997</ele>
        <time>2025-05-15T11:22:47Z</time>
      </trkpt>
      <trkpt lat="42.378618959337473" lon="2.619371982291341">
        <ele>645.65999999999997</ele>
        <time>2025-05-15T11:22:48Z</time>
      </trkpt>
      <trkpt lat="42.378572020679712" lon="2.619388997554779">
        <ele>645.65999999999997</ele>
        <time>2025-05-15T11:22:49Z</time>
      </trkpt>
      <trkpt lat="42.378515023738146" lon="2.61941003613174">
        <ele>646.13999999999999</ele>
        <time>2025-05-15T11:22:50Z</time>
      </trkpt>
      <trkpt lat="42.378444029018283" lon="2.619436020031571">
        <ele>646.13999999999999</ele>
        <time>2025-05-15T11:22:51Z</time>
      </trkpt>
      <trkpt lat="42.378358030691743" lon="2.619467033073306">
        <ele>646.13999999999999</ele>
        <time>2025-05-15T11:22:52Z</time>
      </trkpt>
      <trkpt lat="42.378259962424636" lon="2.619501985609531">
        <ele>646.13999999999999</ele>
        <time>2025-05-15T11:22:53Z</time>
      </trkpt>
      <trkpt lat="42.378037003800273" lon="2.6195830386132">
        <ele>646.62</ele>
        <time>2025-05-15T11:22:55Z</time>
      </trkpt>
      <trkpt lat="42.377909012138844" lon="2.619586978107691">
        <ele>646.62</ele>
        <time>2025-05-15T11:22:56Z</time>
      </trkpt>
      <trkpt lat="42.377400984987617" lon="2.619530986994505">
        <ele>648.07000000000005</ele>
        <time>2025-05-15T11:23:00Z</time>
      </trkpt>
      <trkpt lat="42.377277016639709" lon="2.619571974501014">
        <ele>648.54999999999995</ele>
        <time>2025-05-15T11:23:01Z</time>
      </trkpt>
      <trkpt lat="42.376685002818704" lon="2.619716981425881">
        <ele>649.50999999999999</ele>
        <time>2025-05-15T11:23:05Z</time>
      </trkpt>
      <trkpt lat="42.376210000365973" lon="2.619781019166112">
        <ele>650.47000000000003</ele>
        <time>2025-05-15T11:23:08Z</time>
      </trkpt>
      <trkpt lat="42.376067005097866" lon="2.619813038036227">
        <ele>650.95000000000005</ele>
        <time>2025-05-15T11:23:09Z</time>
      </trkpt>
      <trkpt lat="42.375920992344618" lon="2.61986299417913">
        <ele>650.95000000000005</ele>
        <time>2025-05-15T11:23:10Z</time>
      </trkpt>
      <trkpt lat="42.375622009858489" lon="2.620008001103997">
        <ele>651.90999999999997</ele>
        <time>2025-05-15T11:23:12Z</time>
      </trkpt>
      <trkpt lat="42.375479014590383" lon="2.62007798999548">
        <ele>652.38999999999999</ele>
        <time>2025-05-15T11:23:13Z</time>
      </trkpt>
      <trkpt lat="42.375346999615431" lon="2.62014202773571">
        <ele>653.35000000000002</ele>
        <time>2025-05-15T11:23:14Z</time>
      </trkpt>
      <trkpt lat="42.375228982418776" lon="2.620199024677277">
        <ele>653.83000000000004</ele>
        <time>2025-05-15T11:23:15Z</time>
      </trkpt>
      <trkpt lat="42.375120017677546" lon="2.620273036882281">
        <ele>654.79999999999995</ele>
        <time>2025-05-15T11:23:16Z</time>
      </trkpt>
      <trkpt lat="42.375032007694244" lon="2.620395999401808">
        <ele>655.75999999999999</ele>
        <time>2025-05-15T11:23:17Z</time>
      </trkpt>
      <trkpt lat="42.37498096190393" lon="2.620561039075255">
        <ele>656.72000000000003</ele>
        <time>2025-05-15T11:23:18Z</time>
      </trkpt>
      <trkpt lat="42.374922959133983" lon="2.620749967172742">
        <ele>657.20000000000005</ele>
        <time>2025-05-15T11:23:19Z</time>
      </trkpt>
      <trkpt lat="42.374534038826823" lon="2.62190499342978">
        <ele>661.03999999999996</ele>
        <time>2025-05-15T11:23:24Z</time>
      </trkpt>
      <trkpt lat="42.374415015801787" lon="2.622125018388033">
        <ele>662.00999999999999</ele>
        <time>2025-05-15T11:23:25Z</time>
      </trkpt>
      <trkpt lat="42.373887961730361" lon="2.622750978916884">
        <ele>665.85000000000002</ele>
        <time>2025-05-15T11:23:29Z</time>
      </trkpt>
      <trkpt lat="42.373749995604157" lon="2.622804958373308">
        <ele>667.28999999999996</ele>
        <time>2025-05-15T11:23:30Z</time>
      </trkpt>
      <trkpt lat="42.373559977859259" lon="2.622878970578313">
        <ele>668.73000000000002</ele>
        <time>2025-05-15T11:23:31Z</time>
      </trkpt>
      <trkpt lat="42.373435003682971" lon="2.622834965586662">
        <ele>669.70000000000005</ele>
        <time>2025-05-15T11:23:32Z</time>
      </trkpt>
      <trkpt lat="42.373270969837904" lon="2.622776962816715">
        <ele>670.65999999999997</ele>
        <time>2025-05-15T11:23:33Z</time>
      </trkpt>
      <trkpt lat="42.373105008155107" lon="2.622718038037419">
        <ele>672.10000000000002</ele>
        <time>2025-05-15T11:23:34Z</time>
      </trkpt>
      <trkpt lat="42.37294097431004" lon="2.622655006125569">
        <ele>673.05999999999995</ele>
        <time>2025-05-15T11:23:35Z</time>
      </trkpt>
      <trkpt lat="42.372780963778496" lon="2.622591974213719">
        <ele>674.5</ele>
        <time>2025-05-15T11:23:36Z</time>
      </trkpt>
      <trkpt lat="42.372650960460305" lon="2.622577976435423">
        <ele>675.46000000000004</ele>
        <time>2025-05-15T11:23:37Z</time>
      </trkpt>
      <trkpt lat="42.372526992112398" lon="2.622589962556958">
        <ele>676.90999999999997</ele>
        <time>2025-05-15T11:23:38Z</time>
      </trkpt>
      <trkpt lat="42.372336974367499" lon="2.622685013338924">
        <ele>678.35000000000002</ele>
        <time>2025-05-15T11:23:39Z</time>
      </trkpt>
      <trkpt lat="42.372231027111411" lon="2.62278500944376">
        <ele>679.78999999999996</ele>
        <time>2025-05-15T11:23:40Z</time>
      </trkpt>
      <trkpt lat="42.372078979387879" lon="2.622926998883486">
        <ele>680.75</ele>
        <time>2025-05-15T11:23:41Z</time>
      </trkpt>
      <trkpt lat="42.371927015483379" lon="2.623068988323212">
        <ele>682.19000000000005</ele>
        <time>2025-05-15T11:23:42Z</time>
      </trkpt>
      <trkpt lat="42.371634989976883" lon="2.623331006616354">
        <ele>684.60000000000002</ele>
        <time>2025-05-15T11:23:44Z</time>
      </trkpt>
      <trkpt lat="42.371486965566874" lon="2.623424967750907">
        <ele>685.55999999999995</ele>
        <time>2025-05-15T11:23:45Z</time>
      </trkpt>
      <trkpt lat="42.371318992227316" lon="2.623405018821359">
        <ele>687.48000000000002</ele>
        <time>2025-05-15T11:23:46Z</time>
      </trkpt>
      <trkpt lat="42.371167028322816" lon="2.623336035758257">
        <ele>688.44000000000005</ele>
        <time>2025-05-15T11:23:47Z</time>
      </trkpt>
      <trkpt lat="42.371011963114142" lon="2.623265041038394">
        <ele>689.88</ele>
        <time>2025-05-15T11:23:48Z</time>
      </trkpt>
      <trkpt lat="42.370851030573249" lon="2.62319203466177">
        <ele>691.80999999999995</ele>
        <time>2025-05-15T11:23:49Z</time>
      </trkpt>
      <trkpt lat="42.370523968711495" lon="2.623120034113526">
        <ele>694.69000000000005</ele>
        <time>2025-05-15T11:23:51Z</time>
      </trkpt>
      <trkpt lat="42.370449034497142" lon="2.623115004971623">
        <ele>696.13</ele>
        <time>2025-05-15T11:23:52Z</time>
      </trkpt>
      <trkpt lat="42.370320037007332" lon="2.623199997469783">
        <ele>697.57000000000005</ele>
        <time>2025-05-15T11:23:53Z</time>
      </trkpt>
      <trkpt lat="42.370216017588973" lon="2.623334024101496">
        <ele>699.01999999999998</ele>
        <time>2025-05-15T11:23:54Z</time>
      </trkpt>
      <trkpt lat="42.370135970413685" lon="2.623467966914177">
        <ele>700.94000000000005</ele>
        <time>2025-05-15T11:23:55Z</time>
      </trkpt>
      <trkpt lat="42.370048966258764" lon="2.623657984659076">
        <ele>702.38</ele>
        <time>2025-05-15T11:23:56Z</time>
      </trkpt>
      <trkpt lat="42.36928797326982" lon="2.625243002548814">
        <ele>711.02999999999997</ele>
        <time>2025-05-15T11:24:03Z</time>
      </trkpt>
      <trkpt lat="42.369108013808727" lon="2.625651033595204">
        <ele>712.47000000000003</ele>
        <time>2025-05-15T11:24:05Z</time>
      </trkpt>
      <trkpt lat="42.369077000766993" lon="2.625849014148116">
        <ele>712.47000000000003</ele>
        <time>2025-05-15T11:24:06Z</time>
      </trkpt>
      <trkpt lat="42.3690490052104" lon="2.626026961952448">
        <ele>712.95000000000005</ele>
        <time>2025-05-15T11:24:07Z</time>
      </trkpt>
      <trkpt lat="42.368971975520253" lon="2.626582011580467">
        <ele>713.44000000000005</ele>
        <time>2025-05-15T11:24:10Z</time>
      </trkpt>
      <trkpt lat="42.369001982733607" lon="2.626805976033211">
        <ele>713.91999999999996</ele>
        <time>2025-05-15T11:24:11Z</time>
      </trkpt>
      <trkpt lat="42.369160987436771" lon="2.62819997034967">
        <ele>717.27999999999997</ele>
        <time>2025-05-15T11:24:16Z</time>
      </trkpt>
      <trkpt lat="42.369150007143617" lon="2.628429969772697">
        <ele>718.24000000000001</ele>
        <time>2025-05-15T11:24:17Z</time>
      </trkpt>
      <trkpt lat="42.369132991880178" lon="2.628701040521264">
        <ele>718.72000000000003</ele>
        <time>2025-05-15T11:24:18Z</time>
      </trkpt>
      <trkpt lat="42.368978010490537" lon="2.630122024565935">
        <ele>722.57000000000005</ele>
        <time>2025-05-15T11:24:23Z</time>
      </trkpt>
      <trkpt lat="42.368991002440453" lon="2.630402985960245">
        <ele>723.52999999999997</ele>
        <time>2025-05-15T11:24:24Z</time>
      </trkpt>
      <trkpt lat="42.369011035189033" lon="2.631245031952858">
        <ele>724.49000000000001</ele>
        <time>2025-05-15T11:24:27Z</time>
      </trkpt>
      <trkpt lat="42.369011035189033" lon="2.631533034145832">
        <ele>724.97000000000003</ele>
        <time>2025-05-15T11:24:28Z</time>
      </trkpt>
      <trkpt lat="42.368842978030443" lon="2.633475037291646">
        <ele>731.22000000000003</ele>
        <time>2025-05-15T11:24:35Z</time>
      </trkpt>
      <trkpt lat="42.3687709774822" lon="2.633954985067248">
        <ele>733.62</ele>
        <time>2025-05-15T11:24:37Z</time>
      </trkpt>
      <trkpt lat="42.368721021339297" lon="2.634209962561727">
        <ele>735.07000000000005</ele>
        <time>2025-05-15T11:24:38Z</time>
      </trkpt>
      <trkpt lat="42.368668969720602" lon="2.63447399251163">
        <ele>735.54999999999995</ele>
        <time>2025-05-15T11:24:39Z</time>
      </trkpt>
      <trkpt lat="42.368581965565681" lon="2.634992999956012">
        <ele>737.95000000000005</ele>
        <time>2025-05-15T11:24:41Z</time>
      </trkpt>
      <trkpt lat="42.368581965565681" lon="2.635255018249154">
        <ele>738.42999999999995</ele>
        <time>2025-05-15T11:24:42Z</time>
      </trkpt>
      <trkpt lat="42.368566961959004" lon="2.636056998744607">
        <ele>740.83000000000004</ele>
        <time>2025-05-15T11:24:45Z</time>
      </trkpt>
      <trkpt lat="42.368550030514598" lon="2.636293033137918">
        <ele>741.78999999999996</ele>
        <time>2025-05-15T11:24:46Z</time>
      </trkpt>
      <trkpt lat="42.368520023301244" lon="2.636478021740913">
        <ele>742.75999999999999</ele>
        <time>2025-05-15T11:24:47Z</time>
      </trkpt>
      <trkpt lat="42.368449028581381" lon="2.636620011180639">
        <ele>743.72000000000003</ele>
        <time>2025-05-15T11:24:48Z</time>
      </trkpt>
      <trkpt lat="42.368381973356009" lon="2.636754037812352">
        <ele>744.67999999999995</ele>
        <time>2025-05-15T11:24:49Z</time>
      </trkpt>
      <trkpt lat="42.368366969749331" lon="2.636900972574949">
        <ele>745.15999999999997</ele>
        <time>2025-05-15T11:24:50Z</time>
      </trkpt>
      <trkpt lat="42.368374010547996" lon="2.637060983106494">
        <ele>745.63999999999999</ele>
        <time>2025-05-15T11:24:51Z</time>
      </trkpt>
      <trkpt lat="42.368389014154673" lon="2.637251000851393">
        <ele>746.12</ele>
        <time>2025-05-15T11:24:52Z</time>
      </trkpt>
      <trkpt lat="42.368468977510929" lon="2.638153983280063">
        <ele>747.55999999999995</ele>
        <time>2025-05-15T11:24:56Z</time>
      </trkpt>
      <trkpt lat="42.368652960285544" lon="2.639088984578848">
        <ele>751.88999999999999</ele>
        <time>2025-05-15T11:25:00Z</time>
      </trkpt>
      <trkpt lat="42.368654971942306" lon="2.639328958466649">
        <ele>753.33000000000004</ele>
        <time>2025-05-15T11:25:01Z</time>
      </trkpt>
      <trkpt lat="42.368636028841138" lon="2.639576978981495">
        <ele>754.28999999999996</ele>
        <time>2025-05-15T11:25:02Z</time>
      </trkpt>
      <trkpt lat="42.368586994707584" lon="2.640206962823868">
        <ele>757.65999999999997</ele>
        <time>2025-05-15T11:25:05Z</time>
      </trkpt>
      <trkpt lat="42.3686190135777" lon="2.640387006103993">
        <ele>758.62</ele>
        <time>2025-05-15T11:25:06Z</time>
      </trkpt>
      <trkpt lat="42.368681039661169" lon="2.640567971393466">
        <ele>759.58000000000004</ele>
        <time>2025-05-15T11:25:07Z</time>
      </trkpt>
      <trkpt lat="42.369015980511904" lon="2.641389984637499">
        <ele>763.89999999999998</ele>
        <time>2025-05-15T11:25:11Z</time>
      </trkpt>
      <trkpt lat="42.369099967181683" lon="2.641572039574385">
        <ele>764.38999999999999</ele>
        <time>2025-05-15T11:25:12Z</time>
      </trkpt>
      <trkpt lat="42.369215972721577" lon="2.641681004315615">
        <ele>765.35000000000002</ele>
        <time>2025-05-15T11:25:13Z</time>
      </trkpt>
      <trkpt lat="42.369331978261471" lon="2.641764990985394">
        <ele>766.30999999999995</ele>
        <time>2025-05-15T11:25:14Z</time>
      </trkpt>
      <trkpt lat="42.369439015164971" lon="2.641843026503921">
        <ele>767.26999999999998</ele>
        <time>2025-05-15T11:25:15Z</time>
      </trkpt>
      <trkpt lat="42.369519984349608" lon="2.641931958496571">
        <ele>767.75</ele>
        <time>2025-05-15T11:25:16Z</time>
      </trkpt>
      <trkpt lat="42.369558960199356" lon="2.642034972086549">
        <ele>768.71000000000004</ele>
        <time>2025-05-15T11:25:17Z</time>
      </trkpt>
      <trkpt lat="42.369538005441427" lon="2.642164975404739">
        <ele>770.14999999999998</ele>
        <time>2025-05-15T11:25:18Z</time>
      </trkpt>
      <trkpt lat="42.369485031813383" lon="2.642291039228439">
        <ele>771.60000000000002</ele>
        <time>2025-05-15T11:25:19Z</time>
      </trkpt>
      <trkpt lat="42.369390986859798" lon="2.642360022291541">
        <ele>773.03999999999996</ele>
        <time>2025-05-15T11:25:20Z</time>
      </trkpt>
      <trkpt lat="42.36928696744144" lon="2.642436968162656">
        <ele>774</ele>
        <time>2025-05-15T11:25:21Z</time>
      </trkpt>
      <trkpt lat="42.368987984955311" lon="2.642704015597701">
        <ele>776.88</ele>
        <time>2025-05-15T11:25:24Z</time>
      </trkpt>
      <trkpt lat="42.368934005498886" lon="2.64285103417933">
        <ele>778.32000000000005</ele>
        <time>2025-05-15T11:25:25Z</time>
      </trkpt>
      <trkpt lat="42.368874996900558" lon="2.643009033054113">
        <ele>779.28999999999996</ele>
        <time>2025-05-15T11:25:26Z</time>
      </trkpt>
      <trkpt lat="42.368703000247478" lon="2.643512031063438">
        <ele>782.64999999999998</ele>
        <time>2025-05-15T11:25:29Z</time>
      </trkpt>
      <trkpt lat="42.368677016347647" lon="2.643687967211008">
        <ele>784.09000000000003</ele>
        <time>2025-05-15T11:25:30Z</time>
      </trkpt>
      <trkpt lat="42.368695959448814" lon="2.643872033804655">
        <ele>785.04999999999995</ele>
        <time>2025-05-15T11:25:31Z</time>
      </trkpt>
      <trkpt lat="42.368768965825438" lon="2.64446496963501">
        <ele>787.94000000000005</ele>
        <time>2025-05-15T11:25:34Z</time>
      </trkpt>
      <trkpt lat="42.368758991360664" lon="2.644663034006953">
        <ele>788.89999999999998</ele>
        <time>2025-05-15T11:25:35Z</time>
      </trkpt>
      <trkpt lat="42.368711968883872" lon="2.644865959882736">
        <ele>789.38</ele>
        <time>2025-05-15T11:25:36Z</time>
      </trkpt>
      <trkpt lat="42.368628988042474" lon="2.645327970385552">
        <ele>791.29999999999995</ele>
        <time>2025-05-15T11:25:38Z</time>
      </trkpt>
      <trkpt lat="42.36851298250258" lon="2.646001959219575">
        <ele>794.19000000000005</ele>
        <time>2025-05-15T11:25:41Z</time>
      </trkpt>
      <trkpt lat="42.368439976125956" lon="2.646207986399531">
        <ele>795.14999999999998</ele>
        <time>2025-05-15T11:25:42Z</time>
      </trkpt>
      <trkpt lat="42.368337968364358" lon="2.646404961124063">
        <ele>796.59000000000003</ele>
        <time>2025-05-15T11:25:43Z</time>
      </trkpt>
      <trkpt lat="42.368139987811446" lon="2.646789019927383">
        <ele>798.50999999999999</ele>
        <time>2025-05-15T11:25:45Z</time>
      </trkpt>
      <trkpt lat="42.368076033890247" lon="2.646971996873617">
        <ele>799.47000000000003</ele>
        <time>2025-05-15T11:25:46Z</time>
      </trkpt>
      <trkpt lat="42.368046026676893" lon="2.647167965769768">
        <ele>800.91999999999996</ele>
        <time>2025-05-15T11:25:47Z</time>
      </trkpt>
      <trkpt lat="42.3680180311203" lon="2.647347003221512">
        <ele>801.88</ele>
        <time>2025-05-15T11:25:48Z</time>
      </trkpt>
      <trkpt lat="42.367987018078566" lon="2.647509025409818">
        <ele>803.32000000000005</ele>
        <time>2025-05-15T11:25:49Z</time>
      </trkpt>
      <trkpt lat="42.367922980338335" lon="2.647765008732677">
        <ele>805.72000000000003</ele>
        <time>2025-05-15T11:25:51Z</time>
      </trkpt>
      <trkpt lat="42.367895990610123" lon="2.647873973473907">
        <ele>806.67999999999995</ele>
        <time>2025-05-15T11:25:52Z</time>
      </trkpt>
      <trkpt lat="42.367870006710291" lon="2.647975981235504">
        <ele>807.15999999999997</ele>
        <time>2025-05-15T11:25:53Z</time>
      </trkpt>
      <trkpt lat="42.36780596897006" lon="2.648156024515629">
        <ele>809.09000000000003</ele>
        <time>2025-05-15T11:25:55Z</time>
      </trkpt>
      <trkpt lat="42.367691975086927" lon="2.64841603115201">
        <ele>811.49000000000001</ele>
        <time>2025-05-15T11:25:58Z</time>
      </trkpt>
      <trkpt lat="42.36761000007391" lon="2.648581992834806">
        <ele>812.92999999999995</ele>
        <time>2025-05-15T11:26:00Z</time>
      </trkpt>
      <trkpt lat="42.367560965940356" lon="2.648652987554669">
        <ele>813.40999999999997</ele>
        <time>2025-05-15T11:26:01Z</time>
      </trkpt>
      <trkpt lat="42.367507992312312" lon="2.648730017244816">
        <ele>813.88999999999999</ele>
        <time>2025-05-15T11:26:02Z</time>
      </trkpt>
      <trkpt lat="42.367457030341029" lon="2.648805035278201">
        <ele>813.88999999999999</ele>
        <time>2025-05-15T11:26:03Z</time>
      </trkpt>
      <trkpt lat="42.367401961237192" lon="2.648884998634458">
        <ele>814.37</ele>
        <time>2025-05-15T11:26:04Z</time>
      </trkpt>
      <trkpt lat="42.367239017039537" lon="2.649280037730932">
        <ele>814.85000000000002</ele>
        <time>2025-05-15T11:26:09Z</time>
      </trkpt>
      <trkpt lat="42.367208003997803" lon="2.649354971945286">
        <ele>814.85000000000002</ele>
        <time>2025-05-15T11:26:10Z</time>
      </trkpt>
      <trkpt lat="42.36718101426959" lon="2.649422027170658">
        <ele>814.85000000000002</ele>
        <time>2025-05-15T11:26:11Z</time>
      </trkpt>
      <trkpt lat="42.367154024541378" lon="2.649486986920238">
        <ele>814.85000000000002</ele>
        <time>2025-05-15T11:26:12Z</time>
      </trkpt>
      <trkpt lat="42.367123011499643" lon="2.649563010782003">
        <ele>814.85000000000002</ele>
        <time>2025-05-15T11:26:13Z</time>
      </trkpt>
      <trkpt lat="42.366930982097983" lon="2.64998696744442">
        <ele>814.85000000000002</ele>
        <time>2025-05-15T11:26:18Z</time>
      </trkpt>
      <trkpt lat="42.366896029561758" lon="2.650074977427721">
        <ele>814.85000000000002</ele>
        <time>2025-05-15T11:26:19Z</time>
      </trkpt>
      <trkpt lat="42.366552036255598" lon="2.651298986747861">
        <ele>817.74000000000001</ele>
        <time>2025-05-15T11:26:29Z</time>
      </trkpt>
      <trkpt lat="42.366328993812203" lon="2.652294002473354">
        <ele>818.70000000000005</ele>
        <time>2025-05-15T11:26:35Z</time>
      </trkpt>
      <trkpt lat="42.366337040439248" lon="2.652484020218253">
        <ele>818.22000000000003</ele>
        <time>2025-05-15T11:26:36Z</time>
      </trkpt>
      <trkpt lat="42.366345003247261" lon="2.652687029913068">
        <ele>817.74000000000001</ele>
        <time>2025-05-15T11:26:37Z</time>
      </trkpt>
      <trkpt lat="42.366336034610868" lon="2.653522035107017">
        <ele>814.85000000000002</ele>
        <time>2025-05-15T11:26:41Z</time>
      </trkpt>
      <trkpt lat="42.366294041275978" lon="2.653718004003167">
        <ele>813.88999999999999</ele>
        <time>2025-05-15T11:26:42Z</time>
      </trkpt>
      <trkpt lat="42.366251964122057" lon="2.653915984556079">
        <ele>812.92999999999995</ele>
        <time>2025-05-15T11:26:43Z</time>
      </trkpt>
      <trkpt lat="42.366207037121058" lon="2.654122011736035">
        <ele>811.97000000000003</ele>
        <time>2025-05-15T11:26:44Z</time>
      </trkpt>
      <trkpt lat="42.366156997159123" lon="2.654357040300965">
        <ele>811.00999999999999</ele>
        <time>2025-05-15T11:26:45Z</time>
      </trkpt>
      <trkpt lat="42.365716025233269" lon="2.65559496358037">
        <ele>804.27999999999997</ele>
        <time>2025-05-15T11:26:51Z</time>
      </trkpt>
      <trkpt lat="42.365624997764826" lon="2.655757991597056">
        <ele>803.32000000000005</ele>
        <time>2025-05-15T11:26:52Z</time>
      </trkpt>
      <trkpt lat="42.365556014701724" lon="2.655880032107234">
        <ele>802.36000000000001</ele>
        <time>2025-05-15T11:26:53Z</time>
      </trkpt>
      <trkpt lat="42.365530030801892" lon="2.656072983518243">
        <ele>800.91999999999996</ele>
        <time>2025-05-15T11:26:54Z</time>
      </trkpt>
      <trkpt lat="42.365506980568171" lon="2.656235005706549">
        <ele>799.95000000000005</ele>
        <time>2025-05-15T11:26:55Z</time>
      </trkpt>
      <trkpt lat="42.365484014153481" lon="2.656401973217726">
        <ele>798.99000000000001</ele>
        <time>2025-05-15T11:26:56Z</time>
      </trkpt>
      <trkpt lat="42.365470016375184" lon="2.656502975150943">
        <ele>797.54999999999995</ele>
        <time>2025-05-15T11:26:57Z</time>
      </trkpt>
      <trkpt lat="42.365385023877025" lon="2.656653011217713">
        <ele>796.11000000000001</ele>
        <time>2025-05-15T11:26:58Z</time>
      </trkpt>
      <trkpt lat="42.365233981981874" lon="2.656845962628722">
        <ele>794.66999999999996</ele>
        <time>2025-05-15T11:26:59Z</time>
      </trkpt>
      <trkpt lat="42.365104984492064" lon="2.656941013410687">
        <ele>793.22000000000003</ele>
        <time>2025-05-15T11:27:00Z</time>
      </trkpt>
      <trkpt lat="42.36494698561728" lon="2.657058024778962">
        <ele>791.77999999999997</ele>
        <time>2025-05-15T11:27:01Z</time>
      </trkpt>
      <trkpt lat="42.364794015884399" lon="2.657202025875449">
        <ele>790.82000000000005</ele>
        <time>2025-05-15T11:27:02Z</time>
      </trkpt>
      <trkpt lat="42.364686978980899" lon="2.657381985336542">
        <ele>789.38</ele>
        <time>2025-05-15T11:27:03Z</time>
      </trkpt>
      <trkpt lat="42.364576002582908" lon="2.657568985596299">
        <ele>787.94000000000005</ele>
        <time>2025-05-15T11:27:04Z</time>
      </trkpt>
      <trkpt lat="42.364465026184916" lon="2.657738970592618">
        <ele>786.98000000000002</ele>
        <time>2025-05-15T11:27:05Z</time>
      </trkpt>
      <trkpt lat="42.364320019260049" lon="2.657843995839357">
        <ele>785.52999999999997</ele>
        <time>2025-05-15T11:27:06Z</time>
      </trkpt>
      <trkpt lat="42.364183980971575" lon="2.657942986115813">
        <ele>784.09000000000003</ele>
        <time>2025-05-15T11:27:07Z</time>
      </trkpt>
      <trkpt lat="42.364074010401964" lon="2.658023033291102">
        <ele>783.13</ele>
        <time>2025-05-15T11:27:08Z</time>
      </trkpt>
      <trkpt lat="42.36400100402534" lon="2.658104002475739">
        <ele>782.16999999999996</ele>
        <time>2025-05-15T11:27:09Z</time>
      </trkpt>
      <trkpt lat="42.363978959619999" lon="2.658182960003614">
        <ele>781.69000000000005</ele>
        <time>2025-05-15T11:27:10Z</time>
      </trkpt>
      <trkpt lat="42.363983988761902" lon="2.658242974430323">
        <ele>780.73000000000002</ele>
        <time>2025-05-15T11:27:11Z</time>
      </trkpt>
      <trkpt lat="42.364010978490114" lon="2.658283961936832">
        <ele>779.76999999999998</ele>
        <time>2025-05-15T11:27:12Z</time>
      </trkpt>
      <trkpt lat="42.36410896293819" lon="2.658283961936832">
        <ele>778.80999999999995</ele>
        <time>2025-05-15T11:27:13Z</time>
      </trkpt>
      <trkpt lat="42.364212982356548" lon="2.658207016065717">
        <ele>777.84000000000003</ele>
        <time>2025-05-15T11:27:14Z</time>
      </trkpt>
      <trkpt lat="42.364327982068062" lon="2.658110959455371">
        <ele>776.88</ele>
        <time>2025-05-15T11:27:15Z</time>
      </trkpt>
      <trkpt lat="42.365084029734135" lon="2.657490028068423">
        <ele>768.71000000000004</ele>
        <time>2025-05-15T11:27:20Z</time>
      </trkpt>
      <trkpt lat="42.365250997245312" lon="2.657471001148224">
        <ele>766.78999999999996</ele>
        <time>2025-05-15T11:27:21Z</time>
      </trkpt>
      <trkpt lat="42.365414025261998" lon="2.657452980056405">
        <ele>764.87</ele>
        <time>2025-05-15T11:27:22Z</time>
      </trkpt>
      <trkpt lat="42.36556900665164" lon="2.657435964792967">
        <ele>762.94000000000005</ele>
        <time>2025-05-15T11:27:23Z</time>
      </trkpt>
      <trkpt lat="42.36572097055614" lon="2.657385002821684">
        <ele>761.5</ele>
        <time>2025-05-15T11:27:24Z</time>
      </trkpt>
      <trkpt lat="42.365843011066318" lon="2.657300010323525">
        <ele>760.05999999999995</ele>
        <time>2025-05-15T11:27:25Z</time>
      </trkpt>
      <trkpt lat="42.365940995514393" lon="2.657137988135219">
        <ele>759.10000000000002</ele>
        <time>2025-05-15T11:27:26Z</time>
      </trkpt>
      <trkpt lat="42.3660200368613" lon="2.656962973996997">
        <ele>757.65999999999997</ele>
        <time>2025-05-15T11:27:27Z</time>
      </trkpt>
      <trkpt lat="42.366107041016221" lon="2.656772034242749">
        <ele>756.21000000000004</ele>
        <time>2025-05-15T11:27:28Z</time>
      </trkpt>
      <trkpt lat="42.366511970758438" lon="2.655696971341968">
        <ele>750.45000000000005</ele>
        <time>2025-05-15T11:27:33Z</time>
      </trkpt>
      <trkpt lat="42.366592017933726" lon="2.655496979132295">
        <ele>749.97000000000003</ele>
        <time>2025-05-15T11:27:34Z</time>
      </trkpt>
      <trkpt lat="42.366688996553421" lon="2.655302016064525">
        <ele>749</ele>
        <time>2025-05-15T11:27:35Z</time>
      </trkpt>
      <trkpt lat="42.366826040670276" lon="2.655128007754684">
        <ele>748.51999999999998</ele>
        <time>2025-05-15T11:27:36Z</time>
      </trkpt>
      <trkpt lat="42.366968030110002" lon="2.654946958646178">
        <ele>747.08000000000004</ele>
        <time>2025-05-15T11:27:37Z</time>
      </trkpt>
      <trkpt lat="42.367256032302976" lon="2.654561977833509">
        <ele>745.63999999999999</ele>
        <time>2025-05-15T11:27:39Z</time>
      </trkpt>
      <trkpt lat="42.367535987868905" lon="2.654001982882619">
        <ele>742.75999999999999</ele>
        <time>2025-05-15T11:27:42Z</time>
      </trkpt>
      <trkpt lat="42.367620980367064" lon="2.653914978727698">
        <ele>741.78999999999996</ele>
        <time>2025-05-15T11:27:43Z</time>
      </trkpt>
      <trkpt lat="42.367700021713972" lon="2.653884971514344">
        <ele>740.35000000000002</ele>
        <time>2025-05-15T11:27:44Z</time>
      </trkpt>
      <trkpt lat="42.367765987291932" lon="2.653884971514344">
        <ele>738.90999999999997</ele>
        <time>2025-05-15T11:27:45Z</time>
      </trkpt>
      <trkpt lat="42.367813009768724" lon="2.653969964012504">
        <ele>737.47000000000003</ele>
        <time>2025-05-15T11:27:46Z</time>
      </trkpt>
      <trkpt lat="42.367894984781742" lon="2.654121005907655">
        <ele>736.02999999999997</ele>
        <time>2025-05-15T11:27:47Z</time>
      </trkpt>
      <trkpt lat="42.367903031408787" lon="2.654247991740704">
        <ele>734.58000000000004</ele>
        <time>2025-05-15T11:27:48Z</time>
      </trkpt>
      <trkpt lat="42.367915017530322" lon="2.654443960636854">
        <ele>733.62</ele>
        <time>2025-05-15T11:27:49Z</time>
      </trkpt>
      <trkpt lat="42.36793396063149" lon="2.655695965513587">
        <ele>728.34000000000003</ele>
        <time>2025-05-15T11:27:54Z</time>
      </trkpt>
      <trkpt lat="42.367919962853193" lon="2.655985979363322">
        <ele>726.88999999999999</ele>
        <time>2025-05-15T11:27:55Z</time>
      </trkpt>
      <trkpt lat="42.367861960083246" lon="2.658203998580575">
        <ele>714.88</ele>
        <time>2025-05-15T11:28:03Z</time>
      </trkpt>
      <trkpt lat="42.367817033082247" lon="2.659679967910051">
        <ele>702.86000000000001</ele>
        <time>2025-05-15T11:28:10Z</time>
      </trkpt>
      <trkpt lat="42.367817033082247" lon="2.65984601341188">
        <ele>701.41999999999996</ele>
        <time>2025-05-15T11:28:11Z</time>
      </trkpt>
      <trkpt lat="42.367831030860543" lon="2.659999988973141">
        <ele>700.46000000000004</ele>
        <time>2025-05-15T11:28:12Z</time>
      </trkpt>
      <trkpt lat="42.367861960083246" lon="2.660165028646588">
        <ele>699.01999999999998</ele>
        <time>2025-05-15T11:28:13Z</time>
      </trkpt>
      <trkpt lat="42.3678919672966" lon="2.660327972844243">
        <ele>697.57000000000005</ele>
        <time>2025-05-15T11:28:14Z</time>
      </trkpt>
      <trkpt lat="42.367949970066547" lon="2.660639025270939">
        <ele>694.69000000000005</ele>
        <time>2025-05-15T11:28:16Z</time>
      </trkpt>
      <trkpt lat="42.36795499920845" lon="2.660787971690297">
        <ele>693.73000000000002</ele>
        <time>2025-05-15T11:28:17Z</time>
      </trkpt>
      <trkpt lat="42.367947958409786" lon="2.660941025242209">
        <ele>692.76999999999998</ele>
        <time>2025-05-15T11:28:18Z</time>
      </trkpt>
      <trkpt lat="42.367941001430154" lon="2.661089971661568">
        <ele>691.80999999999995</ele>
        <time>2025-05-15T11:28:19Z</time>
      </trkpt>
      <trkpt lat="42.367905965074897" lon="2.6612229924649">
        <ele>690.84000000000003</ele>
        <time>2025-05-15T11:28:20Z</time>
      </trkpt>
      <trkpt lat="42.367851985618472" lon="2.661361964419484">
        <ele>690.36000000000001</ele>
        <time>2025-05-15T11:28:21Z</time>
      </trkpt>
      <trkpt lat="42.367804041132331" lon="2.661477969959378">
        <ele>689.39999999999998</ele>
        <time>2025-05-15T11:28:22Z</time>
      </trkpt>
      <trkpt lat="42.367733968421817" lon="2.661582995206118">
        <ele>688.91999999999996</ele>
        <time>2025-05-15T11:28:23Z</time>
      </trkpt>
      <trkpt lat="42.367664985358715" lon="2.661686008796096">
        <ele>688.44000000000005</ele>
        <time>2025-05-15T11:28:24Z</time>
      </trkpt>
      <trkpt lat="42.367283022031188" lon="2.662323033437133">
        <ele>687</ele>
        <time>2025-05-15T11:28:30Z</time>
      </trkpt>
      <trkpt lat="42.367234993726015" lon="2.66246996819973">
        <ele>687.48000000000002</ele>
        <time>2025-05-15T11:28:31Z</time>
      </trkpt>
      <trkpt lat="42.3672029748559" lon="2.662638025358319">
        <ele>687.48000000000002</ele>
        <time>2025-05-15T11:28:32Z</time>
      </trkpt>
      <trkpt lat="42.367185037583113" lon="2.662821002304554">
        <ele>687.96000000000004</ele>
        <time>2025-05-15T11:28:33Z</time>
      </trkpt>
      <trkpt lat="42.36718000844121" lon="2.662997022271156">
        <ele>688.44000000000005</ele>
        <time>2025-05-15T11:28:34Z</time>
      </trkpt>
      <trkpt lat="42.367175985127687" lon="2.663173964247108">
        <ele>688.91999999999996</ele>
        <time>2025-05-15T11:28:35Z</time>
      </trkpt>
      <trkpt lat="42.367171039804816" lon="2.663346966728568">
        <ele>688.44000000000005</ele>
        <time>2025-05-15T11:28:36Z</time>
      </trkpt>
      <trkpt lat="42.367167016491294" lon="2.66352198086679">
        <ele>688.91999999999996</ele>
        <time>2025-05-15T11:28:37Z</time>
      </trkpt>
      <trkpt lat="42.367142038419843" lon="2.66369397751987">
        <ele>688.91999999999996</ele>
        <time>2025-05-15T11:28:38Z</time>
      </trkpt>
      <trkpt lat="42.367088980972767" lon="2.663860023021698">
        <ele>688.91999999999996</ele>
        <time>2025-05-15T11:28:39Z</time>
      </trkpt>
      <trkpt lat="42.366997031494975" lon="2.664025984704495">
        <ele>689.39999999999998</ele>
        <time>2025-05-15T11:28:40Z</time>
      </trkpt>
      <trkpt lat="42.366900974884629" lon="2.664200998842716">
        <ele>689.39999999999998</ele>
        <time>2025-05-15T11:28:41Z</time>
      </trkpt>
      <trkpt lat="42.366802990436554" lon="2.664377018809319">
        <ele>689.88</ele>
        <time>2025-05-15T11:28:42Z</time>
      </trkpt>
      <trkpt lat="42.366739958524704" lon="2.664596037939191">
        <ele>689.88</ele>
        <time>2025-05-15T11:28:43Z</time>
      </trkpt>
      <trkpt lat="42.366702994331717" lon="2.664826037362218">
        <ele>690.36000000000001</ele>
        <time>2025-05-15T11:28:44Z</time>
      </trkpt>
      <trkpt lat="42.366414992138743" lon="2.667371034622192">
        <ele>695.64999999999998</ele>
        <time>2025-05-15T11:28:54Z</time>
      </trkpt>
      <trkpt lat="42.366630993783474" lon="2.670929990708828">
        <ele>711.02999999999997</ele>
        <time>2025-05-15T11:29:06Z</time>
      </trkpt>
      <trkpt lat="42.366695031523705" lon="2.672060960903764">
        <ele>717.27999999999997</ele>
        <time>2025-05-15T11:29:10Z</time>
      </trkpt>
      <trkpt lat="42.366653960198164" lon="2.67228601500392">
        <ele>719.20000000000005</ele>
        <time>2025-05-15T11:29:11Z</time>
      </trkpt>
      <trkpt lat="42.366587994620204" lon="2.672469997778535">
        <ele>720.64999999999998</ele>
        <time>2025-05-15T11:29:12Z</time>
      </trkpt>
      <trkpt lat="42.366463020443916" lon="2.672606036067009">
        <ele>722.57000000000005</ele>
        <time>2025-05-15T11:29:13Z</time>
      </trkpt>
      <trkpt lat="42.366318013519049" lon="2.672719024121761">
        <ele>724.49000000000001</ele>
        <time>2025-05-15T11:29:14Z</time>
      </trkpt>
      <trkpt lat="42.366137970238924" lon="2.672771997749806">
        <ele>726.40999999999997</ele>
        <time>2025-05-15T11:29:15Z</time>
      </trkpt>
      <trkpt lat="42.365944012999535" lon="2.67278297804296">
        <ele>728.34000000000003</ele>
        <time>2025-05-15T11:29:16Z</time>
      </trkpt>
      <trkpt lat="42.365737985819578" lon="2.672793958336115">
        <ele>730.74000000000001</ele>
        <time>2025-05-15T11:29:17Z</time>
      </trkpt>
      <trkpt lat="42.365521984174848" lon="2.672806028276682">
        <ele>732.65999999999997</ele>
        <time>2025-05-15T11:29:18Z</time>
      </trkpt>
      <trkpt lat="42.365292990580201" lon="2.672847015783191">
        <ele>734.58000000000004</ele>
        <time>2025-05-15T11:29:19Z</time>
      </trkpt>
      <trkpt lat="42.363708978518844" lon="2.673264015465975">
        <ele>746.60000000000002</ele>
        <time>2025-05-15T11:29:26Z</time>
      </trkpt>
      <trkpt lat="42.36354704014957" lon="2.673359988257289">
        <ele>748.03999999999996</ele>
        <time>2025-05-15T11:29:27Z</time>
      </trkpt>
      <trkpt lat="42.363424999639392" lon="2.673488985747099">
        <ele>749</ele>
        <time>2025-05-15T11:29:28Z</time>
      </trkpt>
      <trkpt lat="42.363352999091148" lon="2.673657964915037">
        <ele>749.97000000000003</ele>
        <time>2025-05-15T11:29:29Z</time>
      </trkpt>
      <trkpt lat="42.363300025463104" lon="2.673857035115361">
        <ele>750.92999999999995</ele>
        <time>2025-05-15T11:29:30Z</time>
      </trkpt>
      <trkpt lat="42.363296002149582" lon="2.674046969041228">
        <ele>751.88999999999999</ele>
        <time>2025-05-15T11:29:31Z</time>
      </trkpt>
      <trkpt lat="42.363320980221033" lon="2.674260959029198">
        <ele>752.85000000000002</ele>
        <time>2025-05-15T11:29:32Z</time>
      </trkpt>
      <trkpt lat="42.363389963284135" lon="2.674447037279606">
        <ele>753.33000000000004</ele>
        <time>2025-05-15T11:29:33Z</time>
      </trkpt>
      <trkpt lat="42.363489959388971" lon="2.674601012840867">
        <ele>753.80999999999995</ele>
        <time>2025-05-15T11:29:34Z</time>
      </trkpt>
      <trkpt lat="42.363634966313839" lon="2.67473503947258">
        <ele>753.80999999999995</ele>
        <time>2025-05-15T11:29:35Z</time>
      </trkpt>
      <trkpt lat="42.363796988502145" lon="2.674837969243527">
        <ele>754.28999999999996</ele>
        <time>2025-05-15T11:29:36Z</time>
      </trkpt>
      <trkpt lat="42.36398097127676" lon="2.67493000254035">
        <ele>753.80999999999995</ele>
        <time>2025-05-15T11:29:37Z</time>
      </trkpt>
      <trkpt lat="42.365307994186878" lon="2.675349013879895">
        <ele>753.33000000000004</ele>
        <time>2025-05-15T11:29:43Z</time>
      </trkpt>
      <trkpt lat="42.366195973008871" lon="2.675611032173038">
        <ele>753.33000000000004</ele>
        <time>2025-05-15T11:29:47Z</time>
      </trkpt>
      <trkpt lat="42.366328993812203" lon="2.675707004964352">
        <ele>752.85000000000002</ele>
        <time>2025-05-15T11:29:48Z</time>
      </trkpt>
      <trkpt lat="42.366463020443916" lon="2.675908003002405">
        <ele>752.85000000000002</ele>
        <time>2025-05-15T11:29:49Z</time>
      </trkpt>
      <trkpt lat="42.366526974365115" lon="2.676100032404065">
        <ele>753.33000000000004</ele>
        <time>2025-05-15T11:29:50Z</time>
      </trkpt>
      <trkpt lat="42.366575002670288" lon="2.676335982978344">
        <ele>753.33000000000004</ele>
        <time>2025-05-15T11:29:51Z</time>
      </trkpt>
      <trkpt lat="42.36662202514708" lon="2.676571011543274">
        <ele>753.33000000000004</ele>
        <time>2025-05-15T11:29:52Z</time>
      </trkpt>
      <trkpt lat="42.366666030138731" lon="2.676794975996018">
        <ele>753.80999999999995</ele>
        <time>2025-05-15T11:29:53Z</time>
      </trkpt>
      <trkpt lat="42.366756973788142" lon="2.677019024267793">
        <ele>753.80999999999995</ele>
        <time>2025-05-15T11:29:54Z</time>
      </trkpt>
      <trkpt lat="42.366898041218519" lon="2.677161013707519">
        <ele>753.33000000000004</ele>
        <time>2025-05-15T11:29:55Z</time>
      </trkpt>
      <trkpt lat="42.367047993466258" lon="2.677284982055426">
        <ele>752.85000000000002</ele>
        <time>2025-05-15T11:29:56Z</time>
      </trkpt>
      <trkpt lat="42.3672029748559" lon="2.677412973716855">
        <ele>752.85000000000002</ele>
        <time>2025-05-15T11:29:57Z</time>
      </trkpt>
      <trkpt lat="42.367335995659232" lon="2.67755001783371">
        <ele>752.85000000000002</ele>
        <time>2025-05-15T11:29:58Z</time>
      </trkpt>
      <trkpt lat="42.367453007027507" lon="2.677726037800312">
        <ele>752.85000000000002</ele>
        <time>2025-05-15T11:29:59Z</time>
      </trkpt>
      <trkpt lat="42.367522995918989" lon="2.677926030009985">
        <ele>752.85000000000002</ele>
        <time>2025-05-15T11:30:00Z</time>
      </trkpt>
      <trkpt lat="42.367551997303963" lon="2.678154017776251">
        <ele>752.37</ele>
        <time>2025-05-15T11:30:01Z</time>
      </trkpt>
      <trkpt lat="42.36752500757575" lon="2.678414024412632">
        <ele>751.88999999999999</ele>
        <time>2025-05-15T11:30:02Z</time>
      </trkpt>
      <trkpt lat="42.367499023675919" lon="2.678673025220633">
        <ele>751.88999999999999</ele>
        <time>2025-05-15T11:30:03Z</time>
      </trkpt>
      <trkpt lat="42.367473039776087" lon="2.678923979401588">
        <ele>751.40999999999997</ele>
        <time>2025-05-15T11:30:04Z</time>
      </trkpt>
      <trkpt lat="42.367484020069242" lon="2.679146016016603">
        <ele>750.92999999999995</ele>
        <time>2025-05-15T11:30:05Z</time>
      </trkpt>
      <trkpt lat="42.367506986483932" lon="2.679337961599231">
        <ele>750.45000000000005</ele>
        <time>2025-05-15T11:30:06Z</time>
      </trkpt>
      <trkpt lat="42.367576975375414" lon="2.679464025422931">
        <ele>750.45000000000005</ele>
        <time>2025-05-15T11:30:07Z</time>
      </trkpt>
      <trkpt lat="42.367658028379083" lon="2.679544994607568">
        <ele>750.45000000000005</ele>
        <time>2025-05-15T11:30:08Z</time>
      </trkpt>
      <trkpt lat="42.367770010605454" lon="2.67959101125598">
        <ele>749.97000000000003</ele>
        <time>2025-05-15T11:30:09Z</time>
      </trkpt>
      <trkpt lat="42.367902025580406" lon="2.679578019306064">
        <ele>749.49000000000001</ele>
        <time>2025-05-15T11:30:10Z</time>
      </trkpt>
      <trkpt lat="42.368030017241836" lon="2.679521022364497">
        <ele>749.49000000000001</ele>
        <time>2025-05-15T11:30:11Z</time>
      </trkpt>
      <trkpt lat="42.368141999468207" lon="2.679380038753152">
        <ele>749</ele>
        <time>2025-05-15T11:30:12Z</time>
      </trkpt>
      <trkpt lat="42.368236966431141" lon="2.679201001301408">
        <ele>748.51999999999998</ele>
        <time>2025-05-15T11:30:13Z</time>
      </trkpt>
      <trkpt lat="42.368338974192739" lon="2.679007966071367">
        <ele>748.03999999999996</ele>
        <time>2025-05-15T11:30:14Z</time>
      </trkpt>
      <trkpt lat="42.368442993611097" lon="2.678811997175217">
        <ele>747.08000000000004</ele>
        <time>2025-05-15T11:30:15Z</time>
      </trkpt>
      <trkpt lat="42.368554975837469" lon="2.67864502966404">
        <ele>746.60000000000002</ele>
        <time>2025-05-15T11:30:16Z</time>
      </trkpt>
      <trkpt lat="42.368697971105576" lon="2.678484013304114">
        <ele>745.63999999999999</ele>
        <time>2025-05-15T11:30:17Z</time>
      </trkpt>
      <trkpt lat="42.36919803544879" lon="2.677913038060069">
        <ele>742.27999999999997</ele>
        <time>2025-05-15T11:30:20Z</time>
      </trkpt>
      <trkpt lat="42.369337007403374" lon="2.677684966474772">
        <ele>741.30999999999995</ele>
        <time>2025-05-15T11:30:21Z</time>
      </trkpt>
      <trkpt lat="42.369601037353277" lon="2.67724902369082">
        <ele>738.90999999999997</ele>
        <time>2025-05-15T11:30:23Z</time>
      </trkpt>
      <trkpt lat="42.369750989601016" lon="2.677134023979306">
        <ele>737.47000000000003</ele>
        <time>2025-05-15T11:30:24Z</time>
      </trkpt>
      <trkpt lat="42.369932038709521" lon="2.677007038146257">
        <ele>736.02999999999997</ele>
        <time>2025-05-15T11:30:25Z</time>
      </trkpt>
      <trkpt lat="42.370848013088107" lon="2.67641301266849">
        <ele>728.34000000000003</ele>
        <time>2025-05-15T11:30:30Z</time>
      </trkpt>
      <trkpt lat="42.371006011962891" lon="2.676364984363318">
        <ele>726.40999999999997</ele>
        <time>2025-05-15T11:30:31Z</time>
      </trkpt>
      <trkpt lat="42.371140038594604" lon="2.676379987969995">
        <ele>724.49000000000001</ele>
        <time>2025-05-15T11:30:32Z</time>
      </trkpt>
      <trkpt lat="42.371289990842342" lon="2.676428016275168">
        <ele>722.57000000000005</ele>
        <time>2025-05-15T11:30:33Z</time>
      </trkpt>
      <trkpt lat="42.371438015252352" lon="2.67647503875196">
        <ele>720.64999999999998</ele>
        <time>2025-05-15T11:30:34Z</time>
      </trkpt>
      <trkpt lat="42.371561983600259" lon="2.6765420101583">
        <ele>718.72000000000003</ele>
        <time>2025-05-15T11:30:35Z</time>
      </trkpt>
      <trkpt lat="42.371672037988901" lon="2.676651980727911">
        <ele>717.27999999999997</ele>
        <time>2025-05-15T11:30:36Z</time>
      </trkpt>
      <trkpt lat="42.371758036315441" lon="2.676781984046102">
        <ele>715.84000000000003</ele>
        <time>2025-05-15T11:30:37Z</time>
      </trkpt>
      <trkpt lat="42.371800029650331" lon="2.67690896987915">
        <ele>714.39999999999998</ele>
        <time>2025-05-15T11:30:38Z</time>
      </trkpt>
      <trkpt lat="42.371788965538144" lon="2.67707996070385">
        <ele>712.95000000000005</ele>
        <time>2025-05-15T11:30:39Z</time>
      </trkpt>
      <trkpt lat="42.37177899107337" lon="2.677231002599001">
        <ele>711.50999999999999</ele>
        <time>2025-05-15T11:30:40Z</time>
      </trkpt>
      <trkpt lat="42.371730962768197" lon="2.677340973168612">
        <ele>709.59000000000003</ele>
        <time>2025-05-15T11:30:41Z</time>
      </trkpt>
      <trkpt lat="42.371661979705095" lon="2.677497966215015">
        <ele>707.66999999999996</ele>
        <time>2025-05-15T11:30:42Z</time>
      </trkpt>
      <trkpt lat="42.371393004432321" lon="2.678111018612981">
        <ele>703.34000000000003</ele>
        <time>2025-05-15T11:30:45Z</time>
      </trkpt>
      <trkpt lat="42.371356040239334" lon="2.678296007215977">
        <ele>702.86000000000001</ele>
        <time>2025-05-15T11:30:46Z</time>
      </trkpt>
      <trkpt lat="42.371342964470387" lon="2.678560959175229">
        <ele>701.89999999999998</ele>
        <time>2025-05-15T11:30:47Z</time>
      </trkpt>
      <trkpt lat="42.371370038017631" lon="2.678784001618624">
        <ele>701.41999999999996</ele>
        <time>2025-05-15T11:30:48Z</time>
      </trkpt>
      <trkpt lat="42.371399039402604" lon="2.679035039618611">
        <ele>700.46000000000004</ele>
        <time>2025-05-15T11:30:49Z</time>
      </trkpt>
      <trkpt lat="42.371430974453688" lon="2.679308960214257">
        <ele>699.98000000000002</ele>
        <time>2025-05-15T11:30:50Z</time>
      </trkpt>
      <trkpt lat="42.371456958353519" lon="2.679526973515749">
        <ele>699.5</ele>
        <time>2025-05-15T11:30:51Z</time>
      </trkpt>
      <trkpt lat="42.371411025524139" lon="2.679868033155799">
        <ele>698.52999999999997</ele>
        <time>2025-05-15T11:30:52Z</time>
      </trkpt>
      <trkpt lat="42.371368026360869" lon="2.680180007591844">
        <ele>698.04999999999995</ele>
        <time>2025-05-15T11:30:53Z</time>
      </trkpt>
      <trkpt lat="42.371325027197599" lon="2.680496005341411">
        <ele>697.57000000000005</ele>
        <time>2025-05-15T11:30:54Z</time>
      </trkpt>
      <trkpt lat="42.371201980859041" lon="2.681400999426842">
        <ele>695.64999999999998</ele>
        <time>2025-05-15T11:30:57Z</time>
      </trkpt>
      <trkpt lat="42.37119996920228" lon="2.681672992184758">
        <ele>694.69000000000005</ele>
        <time>2025-05-15T11:30:58Z</time>
      </trkpt>
      <trkpt lat="42.371273981407285" lon="2.681930987164378">
        <ele>694.21000000000004</ele>
        <time>2025-05-15T11:30:59Z</time>
      </trkpt>
      <trkpt lat="42.371344976127148" lon="2.682160986587405">
        <ele>693.73000000000002</ele>
        <time>2025-05-15T11:31:00Z</time>
      </trkpt>
      <trkpt lat="42.371417982503772" lon="2.682389980182052">
        <ele>693.25</ele>
        <time>2025-05-15T11:31:01Z</time>
      </trkpt>
      <trkpt lat="42.371446983888745" lon="2.682633977383375">
        <ele>693.25</ele>
        <time>2025-05-15T11:31:02Z</time>
      </trkpt>
      <trkpt lat="42.371462993323803" lon="2.682881997898221">
        <ele>692.76999999999998</ele>
        <time>2025-05-15T11:31:03Z</time>
      </trkpt>
      <trkpt lat="42.37147799693048" lon="2.683119960129261">
        <ele>692.28999999999996</ele>
        <time>2025-05-15T11:31:04Z</time>
      </trkpt>
      <trkpt lat="42.371533988043666" lon="2.68331098370254">
        <ele>691.80999999999995</ele>
        <time>2025-05-15T11:31:05Z</time>
      </trkpt>
      <trkpt lat="42.37156399525702" lon="2.683410979807377">
        <ele>691.80999999999995</ele>
        <time>2025-05-15T11:31:06Z</time>
      </trkpt>
      <trkpt lat="42.371699027717113" lon="2.683532014489174">
        <ele>692.76999999999998</ele>
        <time>2025-05-15T11:31:07Z</time>
      </trkpt>
      <trkpt lat="42.371834982186556" lon="2.683640979230404">
        <ele>693.25</ele>
        <time>2025-05-15T11:31:08Z</time>
      </trkpt>
      <trkpt lat="42.371999016031623" lon="2.683747010305524">
        <ele>694.21000000000004</ele>
        <time>2025-05-15T11:31:09Z</time>
      </trkpt>
      <trkpt lat="42.372338986024261" lon="2.683970974758267">
        <ele>695.16999999999996</ele>
        <time>2025-05-15T11:31:11Z</time>
      </trkpt>
      <trkpt lat="42.372504025697708" lon="2.68404196947813">
        <ele>694.69000000000005</ele>
        <time>2025-05-15T11:31:12Z</time>
      </trkpt>
      <trkpt lat="42.372678034007549" lon="2.684069965034723">
        <ele>694.69000000000005</ele>
        <time>2025-05-15T11:31:13Z</time>
      </trkpt>
      <trkpt lat="42.372870985418558" lon="2.684043981134892">
        <ele>695.16999999999996</ele>
        <time>2025-05-15T11:31:14Z</time>
      </trkpt>
      <trkpt lat="42.373049017041922" lon="2.683942979201675">
        <ele>695.16999999999996</ele>
        <time>2025-05-15T11:31:15Z</time>
      </trkpt>
      <trkpt lat="42.373231993988156" lon="2.683840971440077">
        <ele>694.69000000000005</ele>
        <time>2025-05-15T11:31:16Z</time>
      </trkpt>
      <trkpt lat="42.373556960374117" lon="2.683664029464126">
        <ele>693.73000000000002</ele>
        <time>2025-05-15T11:31:18Z</time>
      </trkpt>
      <trkpt lat="42.373731974512339" lon="2.683624969795346">
        <ele>693.73000000000002</ele>
        <time>2025-05-15T11:31:19Z</time>
      </trkpt>
      <trkpt lat="42.373825013637543" lon="2.683699987828732">
        <ele>693.73000000000002</ele>
        <time>2025-05-15T11:31:20Z</time>
      </trkpt>
      <trkpt lat="42.373944036662579" lon="2.683795038610697">
        <ele>693.25</ele>
        <time>2025-05-15T11:31:21Z</time>
      </trkpt>
      <trkpt lat="42.374073034152389" lon="2.683897968381643">
        <ele>693.73000000000002</ele>
        <time>2025-05-15T11:31:22Z</time>
      </trkpt>
      <trkpt lat="42.374212006106973" lon="2.684009028598666">
        <ele>693.73000000000002</ele>
        <time>2025-05-15T11:31:23Z</time>
      </trkpt>
      <trkpt lat="42.374361036345363" lon="2.684100978076458">
        <ele>694.21000000000004</ele>
        <time>2025-05-15T11:31:24Z</time>
      </trkpt>
      <trkpt lat="42.374525992199779" lon="2.684183036908507">
        <ele>693.73000000000002</ele>
        <time>2025-05-15T11:31:25Z</time>
      </trkpt>
      <trkpt lat="42.374704023823142" lon="2.684193011373282">
        <ele>693.73000000000002</ele>
        <time>2025-05-15T11:31:26Z</time>
      </trkpt>
      <trkpt lat="42.374911978840828" lon="2.684204997494817">
        <ele>692.76999999999998</ele>
        <time>2025-05-15T11:31:27Z</time>
      </trkpt>
      <trkpt lat="42.375075006857514" lon="2.684158980846405">
        <ele>692.28999999999996</ele>
        <time>2025-05-15T11:31:28Z</time>
      </trkpt>
      <trkpt lat="42.375245997682214" lon="2.684111036360264">
        <ele>691.80999999999995</ele>
        <time>2025-05-15T11:31:29Z</time>
      </trkpt>
      <trkpt lat="42.375448001548648" lon="2.684054039418697">
        <ele>690.84000000000003</ele>
        <time>2025-05-15T11:31:30Z</time>
      </trkpt>
      <trkpt lat="42.375556966289878" lon="2.684141965582967">
        <ele>690.36000000000001</ele>
        <time>2025-05-15T11:31:31Z</time>
      </trkpt>
      <trkpt lat="42.375685963779688" lon="2.684260988608003">
        <ele>689.39999999999998</ele>
        <time>2025-05-15T11:31:32Z</time>
      </trkpt>
      <trkpt lat="42.375759975984693" lon="2.684479001909494">
        <ele>688.44000000000005</ele>
        <time>2025-05-15T11:31:33Z</time>
      </trkpt>
      <trkpt lat="42.375757964327931" lon="2.684701960533857">
        <ele>687.48000000000002</ele>
        <time>2025-05-15T11:31:34Z</time>
      </trkpt>
      <trkpt lat="42.37573298625648" lon="2.684930032119155">
        <ele>687</ele>
        <time>2025-05-15T11:31:35Z</time>
      </trkpt>
      <trkpt lat="42.375707002356648" lon="2.685172017663717">
        <ele>686.03999999999996</ele>
        <time>2025-05-15T11:31:36Z</time>
      </trkpt>
      <trkpt lat="42.375619998201728" lon="2.685970980674028">
        <ele>683.63</ele>
        <time>2025-05-15T11:31:39Z</time>
      </trkpt>
      <trkpt lat="42.375615974888206" lon="2.686265017837286">
        <ele>682.19000000000005</ele>
        <time>2025-05-15T11:31:40Z</time>
      </trkpt>
      <trkpt lat="42.37560298293829" lon="2.687772000208497">
        <ele>676.41999999999996</ele>
        <time>2025-05-15T11:31:45Z</time>
      </trkpt>
      <trkpt lat="42.37564698792994" lon="2.688001999631524">
        <ele>674.98000000000002</ele>
        <time>2025-05-15T11:31:46Z</time>
      </trkpt>
      <trkpt lat="42.375711025670171" lon="2.688141977414489">
        <ele>674.01999999999998</ele>
        <time>2025-05-15T11:31:47Z</time>
      </trkpt>
      <trkpt lat="42.375806998461485" lon="2.688249014317989">
        <ele>673.05999999999995</ele>
        <time>2025-05-15T11:31:48Z</time>
      </trkpt>
      <trkpt lat="42.375899031758308" lon="2.688314979895949">
        <ele>672.10000000000002</ele>
        <time>2025-05-15T11:31:49Z</time>
      </trkpt>
      <trkpt lat="42.376025011762977" lon="2.688338030129671">
        <ele>671.62</ele>
        <time>2025-05-15T11:31:50Z</time>
      </trkpt>
      <trkpt lat="42.37615903839469" lon="2.688284972682595">
        <ele>671.13999999999999</ele>
        <time>2025-05-15T11:31:51Z</time>
      </trkpt>
      <trkpt lat="42.376304967328906" lon="2.688210038468242">
        <ele>670.17999999999995</ele>
        <time>2025-05-15T11:31:52Z</time>
      </trkpt>
      <trkpt lat="42.37646103836596" lon="2.688115993514657">
        <ele>669.70000000000005</ele>
        <time>2025-05-15T11:31:53Z</time>
      </trkpt>
      <trkpt lat="42.377276010811329" lon="2.687460025772452">
        <ele>663.92999999999995</ele>
        <time>2025-05-15T11:31:58Z</time>
      </trkpt>
      <trkpt lat="42.377455970272422" lon="2.687409985810518">
        <ele>662.97000000000003</ele>
        <time>2025-05-15T11:31:59Z</time>
      </trkpt>
      <trkpt lat="42.377631990239024" lon="2.687379978597164">
        <ele>662.49000000000001</ele>
        <time>2025-05-15T11:32:00Z</time>
      </trkpt>
      <trkpt lat="42.377954022958875" lon="2.687368998304009">
        <ele>661.51999999999998</ele>
        <time>2025-05-15T11:32:02Z</time>
      </trkpt>
      <trkpt lat="42.378070028498769" lon="2.687288029119372">
        <ele>661.03999999999996</ele>
        <time>2025-05-15T11:32:03Z</time>
      </trkpt>
      <trkpt lat="42.378169018775225" lon="2.687189960852265">
        <ele>660.55999999999995</ele>
        <time>2025-05-15T11:32:04Z</time>
      </trkpt>
      <trkpt lat="42.37822400406003" lon="2.687056018039584">
        <ele>660.08000000000004</ele>
        <time>2025-05-15T11:32:05Z</time>
      </trkpt>
      <trkpt lat="42.378254011273384" lon="2.68689600750804">
        <ele>659.60000000000002</ele>
        <time>2025-05-15T11:32:06Z</time>
      </trkpt>
      <trkpt lat="42.378243030980229" lon="2.686742031946778">
        <ele>659.12</ele>
        <time>2025-05-15T11:32:07Z</time>
      </trkpt>
      <trkpt lat="42.378189973533154" lon="2.686587972566485">
        <ele>658.63999999999999</ele>
        <time>2025-05-15T11:32:08Z</time>
      </trkpt>
      <trkpt lat="42.378101041540504" lon="2.686462998390198">
        <ele>658.15999999999997</ele>
        <time>2025-05-15T11:32:09Z</time>
      </trkpt>
      <trkpt lat="42.377999033778906" lon="2.686343975365162">
        <ele>657.67999999999995</ele>
        <time>2025-05-15T11:32:10Z</time>
      </trkpt>
      <trkpt lat="42.377899037674069" lon="2.686226963996887">
        <ele>657.20000000000005</ele>
        <time>2025-05-15T11:32:11Z</time>
      </trkpt>
      <trkpt lat="42.377850003540516" lon="2.686067037284374">
        <ele>656.72000000000003</ele>
        <time>2025-05-15T11:32:12Z</time>
      </trkpt>
      <trkpt lat="42.377812033519149" lon="2.685906020924449">
        <ele>656.24000000000001</ele>
        <time>2025-05-15T11:32:13Z</time>
      </trkpt>
      <trkpt lat="42.377845980226994" lon="2.685748022049666">
        <ele>655.75999999999999</ele>
        <time>2025-05-15T11:32:14Z</time>
      </trkpt>
      <trkpt lat="42.377905994653702" lon="2.685597985982895">
        <ele>654.79999999999995</ele>
        <time>2025-05-15T11:32:15Z</time>
      </trkpt>
      <trkpt lat="42.378022000193596" lon="2.685517016798258">
        <ele>654.30999999999995</ele>
        <time>2025-05-15T11:32:16Z</time>
      </trkpt>
      <trkpt lat="42.378161977976561" lon="2.685463037341833">
        <ele>653.35000000000002</ele>
        <time>2025-05-15T11:32:17Z</time>
      </trkpt>
      <trkpt lat="42.37833003513515" lon="2.685446022078395">
        <ele>652.38999999999999</ele>
        <time>2025-05-15T11:32:18Z</time>
      </trkpt>
      <trkpt lat="42.378505971282721" lon="2.685429006814957">
        <ele>651.42999999999995</ele>
        <time>2025-05-15T11:32:19Z</time>
      </trkpt>
      <trkpt lat="42.378861028701067" lon="2.685438981279731">
        <ele>649.50999999999999</ele>
        <time>2025-05-15T11:32:21Z</time>
      </trkpt>
      <trkpt lat="42.379029002040625" lon="2.685505030676723">
        <ele>648.54999999999995</ele>
        <time>2025-05-15T11:32:22Z</time>
      </trkpt>
      <trkpt lat="42.379180965945125" lon="2.685633022338152">
        <ele>647.59000000000003</ele>
        <time>2025-05-15T11:32:23Z</time>
      </trkpt>
      <trkpt lat="42.379484977573156" lon="2.685891017317772">
        <ele>645.65999999999997</ele>
        <time>2025-05-15T11:32:25Z</time>
      </trkpt>
      <trkpt lat="42.379639958962798" lon="2.685977015644312">
        <ele>644.70000000000005</ele>
        <time>2025-05-15T11:32:26Z</time>
      </trkpt>
      <trkpt lat="42.3798159789294" lon="2.68603996373713">
        <ele>643.74000000000001</ele>
        <time>2025-05-15T11:32:27Z</time>
      </trkpt>
      <trkpt lat="42.379993004724383" lon="2.686105007305741">
        <ele>642.29999999999995</ele>
        <time>2025-05-15T11:32:28Z</time>
      </trkpt>
      <trkpt lat="42.380167013034225" lon="2.686168039217591">
        <ele>640.86000000000001</ele>
        <time>2025-05-15T11:32:29Z</time>
      </trkpt>
      <trkpt lat="42.38033096306026" lon="2.686275998130441">
        <ele>639.40999999999997</ele>
        <time>2025-05-15T11:32:30Z</time>
      </trkpt>
      <trkpt lat="42.380482004955411" lon="2.686439026147127">
        <ele>638.45000000000005</ele>
        <time>2025-05-15T11:32:31Z</time>
      </trkpt>
      <trkpt lat="42.38058602437377" lon="2.686648992821574">
        <ele>637.00999999999999</ele>
        <time>2025-05-15T11:32:32Z</time>
      </trkpt>
      <trkpt lat="42.380669005215168" lon="2.686893995851278">
        <ele>635.57000000000005</ele>
        <time>2025-05-15T11:32:33Z</time>
      </trkpt>
      <trkpt lat="42.380744023248553" lon="2.687130030244589">
        <ele>634.13</ele>
        <time>2025-05-15T11:32:34Z</time>
      </trkpt>
      <trkpt lat="42.380776964128017" lon="2.687403028830886">
        <ele>633.16999999999996</ele>
        <time>2025-05-15T11:32:35Z</time>
      </trkpt>
      <trkpt lat="42.380779981613159" lon="2.687680972740054">
        <ele>631.72000000000003</ele>
        <time>2025-05-15T11:32:36Z</time>
      </trkpt>
      <trkpt lat="42.38075902685523" lon="2.687961012125015">
        <ele>630.27999999999997</ele>
        <time>2025-05-15T11:32:37Z</time>
      </trkpt>
      <trkpt lat="42.380735976621509" lon="2.688258988782764">
        <ele>629.32000000000005</ele>
        <time>2025-05-15T11:32:38Z</time>
      </trkpt>
      <trkpt lat="42.380631035193801" lon="2.689967975020409">
        <ele>622.59000000000003</ele>
        <time>2025-05-15T11:32:44Z</time>
      </trkpt>
      <trkpt lat="42.380701024085283" lon="2.690177019685507">
        <ele>621.63</ele>
        <time>2025-05-15T11:32:45Z</time>
      </trkpt>
      <trkpt lat="42.380779981613159" lon="2.690382963046432">
        <ele>621.14999999999998</ele>
        <time>2025-05-15T11:32:46Z</time>
      </trkpt>
      <trkpt lat="42.380991959944367" lon="2.69080700352788">
        <ele>619.71000000000004</ele>
        <time>2025-05-15T11:32:48Z</time>
      </trkpt>
      <trkpt lat="42.38105901516974" lon="2.691049994900823">
        <ele>619.23000000000002</ele>
        <time>2025-05-15T11:32:49Z</time>
      </trkpt>
      <trkpt lat="42.381078964099288" lon="2.691316958516836">
        <ele>618.75</ele>
        <time>2025-05-15T11:32:50Z</time>
      </trkpt>
      <trkpt lat="42.381077036261559" lon="2.69160102121532">
        <ele>618.25999999999999</ele>
        <time>2025-05-15T11:32:51Z</time>
      </trkpt>
      <trkpt lat="42.381043005734682" lon="2.691890029236674">
        <ele>618.25999999999999</ele>
        <time>2025-05-15T11:32:52Z</time>
      </trkpt>
      <trkpt lat="42.380962958559394" lon="2.692454969510436">
        <ele>617.77999999999997</ele>
        <time>2025-05-15T11:32:54Z</time>
      </trkpt>
      <trkpt lat="42.380881989374757" lon="2.692710030823946">
        <ele>617.29999999999995</ele>
        <time>2025-05-15T11:32:55Z</time>
      </trkpt>
      <trkpt lat="42.380658024922013" lon="2.693120995536447">
        <ele>616.34000000000003</ele>
        <time>2025-05-15T11:32:57Z</time>
      </trkpt>
      <trkpt lat="42.380616031587124" lon="2.693339008837938">
        <ele>615.86000000000001</ele>
        <time>2025-05-15T11:32:58Z</time>
      </trkpt>
      <trkpt lat="42.380617037415504" lon="2.693531960248947">
        <ele>615.38</ele>
        <time>2025-05-15T11:32:59Z</time>
      </trkpt>
      <trkpt lat="42.380678979679942" lon="2.693718038499355">
        <ele>614.89999999999998</ele>
        <time>2025-05-15T11:33:00Z</time>
      </trkpt>
      <trkpt lat="42.380766989663243" lon="2.693893974646926">
        <ele>614.41999999999996</ele>
        <time>2025-05-15T11:33:01Z</time>
      </trkpt>
      <trkpt lat="42.380877966061234" lon="2.694069994613528">
        <ele>613.46000000000004</ele>
        <time>2025-05-15T11:33:02Z</time>
      </trkpt>
      <trkpt lat="42.38097402267158" lon="2.694247020408511">
        <ele>612.98000000000002</ele>
        <time>2025-05-15T11:33:03Z</time>
      </trkpt>
      <trkpt lat="42.381023978814483" lon="2.694434020668268">
        <ele>611.53999999999996</ele>
        <time>2025-05-15T11:33:04Z</time>
      </trkpt>
      <trkpt lat="42.381023978814483" lon="2.69460903480649">
        <ele>610.57000000000005</ele>
        <time>2025-05-15T11:33:05Z</time>
      </trkpt>
      <trkpt lat="42.380966981872916" lon="2.694764016196132">
        <ele>609.61000000000001</ele>
        <time>2025-05-15T11:33:06Z</time>
      </trkpt>
      <trkpt lat="42.380856005474925" lon="2.694912040606141">
        <ele>608.64999999999998</ele>
        <time>2025-05-15T11:33:07Z</time>
      </trkpt>
      <trkpt lat="42.380723990499973" lon="2.694993009790778">
        <ele>607.69000000000005</ele>
        <time>2025-05-15T11:33:08Z</time>
      </trkpt>
      <trkpt lat="42.380569009110332" lon="2.695087976753712">
        <ele>606.73000000000002</ele>
        <time>2025-05-15T11:33:09Z</time>
      </trkpt>
      <trkpt lat="42.379903988912702" lon="2.695541018620133">
        <ele>602.88</ele>
        <time>2025-05-15T11:33:13Z</time>
      </trkpt>
      <trkpt lat="42.379788989201188" lon="2.695692982524633">
        <ele>601.91999999999996</ele>
        <time>2025-05-15T11:33:14Z</time>
      </trkpt>
      <trkpt lat="42.379710031673312" lon="2.695874031633139">
        <ele>600.96000000000004</ele>
        <time>2025-05-15T11:33:15Z</time>
      </trkpt>
      <trkpt lat="42.37966300919652" lon="2.696092966943979">
        <ele>600</ele>
        <time>2025-05-15T11:33:16Z</time>
      </trkpt>
      <trkpt lat="42.379668960347772" lon="2.696333024650812">
        <ele>599.03999999999996</ele>
        <time>2025-05-15T11:33:17Z</time>
      </trkpt>
      <trkpt lat="42.379723023623228" lon="2.69656696356833">
        <ele>597.60000000000002</ele>
        <time>2025-05-15T11:33:18Z</time>
      </trkpt>
      <trkpt lat="42.379798963665962" lon="2.696809032931924">
        <ele>596.63999999999999</ele>
        <time>2025-05-15T11:33:19Z</time>
      </trkpt>
      <trkpt lat="42.379873981699347" lon="2.697051018476486">
        <ele>595.19000000000005</ele>
        <time>2025-05-15T11:33:20Z</time>
      </trkpt>
      <trkpt lat="42.379950005561113" lon="2.697291998192668">
        <ele>593.26999999999998</ele>
        <time>2025-05-15T11:33:21Z</time>
      </trkpt>
      <trkpt lat="42.379995016381145" lon="2.697530966252089">
        <ele>591.35000000000002</ele>
        <time>2025-05-15T11:33:22Z</time>
      </trkpt>
      <trkpt lat="42.3799869697541" lon="2.697774041444063">
        <ele>589.42999999999995</ele>
        <time>2025-05-15T11:33:23Z</time>
      </trkpt>
      <trkpt lat="42.379997028037906" lon="2.698288019746542">
        <ele>586.05999999999995</ele>
        <time>2025-05-15T11:33:25Z</time>
      </trkpt>
      <trkpt lat="42.380037009716034" lon="2.698552971705794">
        <ele>584.13999999999999</ele>
        <time>2025-05-15T11:33:26Z</time>
      </trkpt>
      <trkpt lat="42.380098029971123" lon="2.698813984170556">
        <ele>582.22000000000003</ele>
        <time>2025-05-15T11:33:27Z</time>
      </trkpt>
      <trkpt lat="42.3802649974823" lon="2.699558967724443">
        <ele>577.88999999999999</ele>
        <time>2025-05-15T11:33:30Z</time>
      </trkpt>
      <trkpt lat="42.380258040502667" lon="2.699787961319089">
        <ele>576.45000000000005</ele>
        <time>2025-05-15T11:33:31Z</time>
      </trkpt>
      <trkpt lat="42.380232978612185" lon="2.700009997934103">
        <ele>575.49000000000001</ele>
        <time>2025-05-15T11:33:32Z</time>
      </trkpt>
      <trkpt lat="42.380203977227211" lon="2.700212001800537">
        <ele>574.52999999999997</ele>
        <time>2025-05-15T11:33:33Z</time>
      </trkpt>
      <trkpt lat="42.380141029134393" lon="2.700388021767139">
        <ele>573.55999999999995</ele>
        <time>2025-05-15T11:33:34Z</time>
      </trkpt>
      <trkpt lat="42.380083026364446" lon="2.700551971793175">
        <ele>573.08000000000004</ele>
        <time>2025-05-15T11:33:35Z</time>
      </trkpt>
      <trkpt lat="42.37994103692472" lon="2.701072990894318">
        <ele>571.63999999999999</ele>
        <time>2025-05-15T11:33:39Z</time>
      </trkpt>
      <trkpt lat="42.37992100417614" lon="2.701171981170774">
        <ele>571.15999999999997</ele>
        <time>2025-05-15T11:33:40Z</time>
      </trkpt>
      <trkpt lat="42.379924021661282" lon="2.701263008639216">
        <ele>570.67999999999995</ele>
        <time>2025-05-15T11:33:41Z</time>
      </trkpt>
      <trkpt lat="42.379953023046255" lon="2.70135797560215">
        <ele>570.67999999999995</ele>
        <time>2025-05-15T11:33:42Z</time>
      </trkpt>
      <trkpt lat="42.379985963925719" lon="2.701465012505651">
        <ele>570.20000000000005</ele>
        <time>2025-05-15T11:33:43Z</time>
      </trkpt>
      <trkpt lat="42.380019994452596" lon="2.701575988903642">
        <ele>570.20000000000005</ele>
        <time>2025-05-15T11:33:44Z</time>
      </trkpt>
      <trkpt lat="42.380061987787485" lon="2.701714038848877">
        <ele>569.72000000000003</ele>
        <time>2025-05-15T11:33:45Z</time>
      </trkpt>
      <trkpt lat="42.3801130335778" lon="2.701816968619824">
        <ele>569.24000000000001</ele>
        <time>2025-05-15T11:33:46Z</time>
      </trkpt>
      <trkpt lat="42.380807977169752" lon="2.7029699832201">
        <ele>566.35000000000002</ele>
        <time>2025-05-15T11:33:53Z</time>
      </trkpt>
      <trkpt lat="42.381437961012125" lon="2.704088967293501">
        <ele>562.99000000000001</ele>
        <time>2025-05-15T11:33:58Z</time>
      </trkpt>
      <trkpt lat="42.381481966003776" lon="2.704320978373289">
        <ele>562.02999999999997</ele>
        <time>2025-05-15T11:33:59Z</time>
      </trkpt>
      <trkpt lat="42.381515996530652" lon="2.70455801859498">
        <ele>561.54999999999995</ele>
        <time>2025-05-15T11:34:00Z</time>
      </trkpt>
      <trkpt lat="42.381478026509285" lon="2.704801009967923">
        <ele>560.59000000000003</ele>
        <time>2025-05-15T11:34:01Z</time>
      </trkpt>
      <trkpt lat="42.381427986547351" lon="2.705051964148879">
        <ele>560.11000000000001</ele>
        <time>2025-05-15T11:34:02Z</time>
      </trkpt>
      <trkpt lat="42.381327990442514" lon="2.705286992713809">
        <ele>559.13999999999999</ele>
        <time>2025-05-15T11:34:03Z</time>
      </trkpt>
      <trkpt lat="42.381198992952704" lon="2.705534007400274">
        <ele>558.17999999999995</ele>
        <time>2025-05-15T11:34:04Z</time>
      </trkpt>
      <trkpt lat="42.38105901516974" lon="2.705744979903102">
        <ele>557.70000000000005</ele>
        <time>2025-05-15T11:34:05Z</time>
      </trkpt>
      <trkpt lat="42.380905039608479" lon="2.70597699098289">
        <ele>556.74000000000001</ele>
        <time>2025-05-15T11:34:06Z</time>
      </trkpt>
      <trkpt lat="42.380038015544415" lon="2.707325974479318">
        <ele>548.57000000000005</ele>
        <time>2025-05-15T11:34:12Z</time>
      </trkpt>
      <trkpt lat="42.379959980025887" lon="2.707571983337402">
        <ele>547.13</ele>
        <time>2025-05-15T11:34:13Z</time>
      </trkpt>
      <trkpt lat="42.379932990297675" lon="2.707818998023868">
        <ele>545.69000000000005</ele>
        <time>2025-05-15T11:34:14Z</time>
      </trkpt>
      <trkpt lat="42.379938019439578" lon="2.708062995225191">
        <ele>544.24000000000001</ele>
        <time>2025-05-15T11:34:15Z</time>
      </trkpt>
      <trkpt lat="42.379999039694667" lon="2.708315039053559">
        <ele>542.79999999999995</ele>
        <time>2025-05-15T11:34:16Z</time>
      </trkpt>
      <trkpt lat="42.380063999444246" lon="2.708584014326334">
        <ele>541.36000000000001</ele>
        <time>2025-05-15T11:34:17Z</time>
      </trkpt>
      <trkpt lat="42.380148991942406" lon="2.708847038447857">
        <ele>539.91999999999996</ele>
        <time>2025-05-15T11:34:18Z</time>
      </trkpt>
      <trkpt lat="42.380270026624203" lon="2.709094975143671">
        <ele>538.48000000000002</ele>
        <time>2025-05-15T11:34:19Z</time>
      </trkpt>
      <trkpt lat="42.380430037155747" lon="2.709312988445163">
        <ele>536.54999999999995</ele>
        <time>2025-05-15T11:34:20Z</time>
      </trkpt>
      <trkpt lat="42.38060999661684" lon="2.709497977048159">
        <ele>535.11000000000001</ele>
        <time>2025-05-15T11:34:21Z</time>
      </trkpt>
      <trkpt lat="42.38080495968461" lon="2.709665028378367">
        <ele>533.66999999999996</ele>
        <time>2025-05-15T11:34:22Z</time>
      </trkpt>
      <trkpt lat="42.381006963551044" lon="2.709814980626106">
        <ele>532.23000000000002</ele>
        <time>2025-05-15T11:34:23Z</time>
      </trkpt>
      <trkpt lat="42.381221037358046" lon="2.709915982559323">
        <ele>530.29999999999995</ele>
        <time>2025-05-15T11:34:24Z</time>
      </trkpt>
      <trkpt lat="42.381442990154028" lon="2.709971973672509">
        <ele>528.38</ele>
        <time>2025-05-15T11:34:25Z</time>
      </trkpt>
      <trkpt lat="42.381657985970378" lon="2.709983959794045">
        <ele>525.98000000000002</ele>
        <time>2025-05-15T11:34:26Z</time>
      </trkpt>
      <trkpt lat="42.38187700510025" lon="2.709959987550974">
        <ele>523.58000000000004</ele>
        <time>2025-05-15T11:34:27Z</time>
      </trkpt>
      <trkpt lat="42.382095018401742" lon="2.709935009479523">
        <ele>521.16999999999996</ele>
        <time>2025-05-15T11:34:28Z</time>
      </trkpt>
      <trkpt lat="42.382291993126273" lon="2.709836019203067">
        <ele>519.25</ele>
        <time>2025-05-15T11:34:29Z</time>
      </trkpt>
      <trkpt lat="42.38249802030623" lon="2.709720013663173">
        <ele>517.33000000000004</ele>
        <time>2025-05-15T11:34:30Z</time>
      </trkpt>
      <trkpt lat="42.382683008909225" lon="2.709581041708589">
        <ele>515.88</ele>
        <time>2025-05-15T11:34:31Z</time>
      </trkpt>
      <trkpt lat="42.382859028875828" lon="2.709394041448832">
        <ele>514.44000000000005</ele>
        <time>2025-05-15T11:34:32Z</time>
      </trkpt>
      <trkpt lat="42.383024990558624" lon="2.709184996783733">
        <ele>513</ele>
        <time>2025-05-15T11:34:33Z</time>
      </trkpt>
      <trkpt lat="42.383179971948266" lon="2.7089639659971">
        <ele>511.56</ele>
        <time>2025-05-15T11:34:34Z</time>
      </trkpt>
      <trkpt lat="42.383331013843417" lon="2.708747964352369">
        <ele>510.12</ele>
        <time>2025-05-15T11:34:35Z</time>
      </trkpt>
      <trkpt lat="42.383635025471449" lon="2.708315039053559">
        <ele>506.75</ele>
        <time>2025-05-15T11:34:37Z</time>
      </trkpt>
      <trkpt lat="42.383824037387967" lon="2.708162991330028">
        <ele>505.31</ele>
        <time>2025-05-15T11:34:38Z</time>
      </trkpt>
      <trkpt lat="42.384010031819344" lon="2.70801798440516">
        <ele>503.87</ele>
        <time>2025-05-15T11:34:39Z</time>
      </trkpt>
      <trkpt lat="42.3843680229038" lon="2.707739034667611">
        <ele>500.98000000000002</ele>
        <time>2025-05-15T11:34:41Z</time>
      </trkpt>
      <trkpt lat="42.384495008736849" lon="2.707553962245584">
        <ele>499.54000000000002</ele>
        <time>2025-05-15T11:34:42Z</time>
      </trkpt>
      <trkpt lat="42.384592993184924" lon="2.707366961985827">
        <ele>498.57999999999998</ele>
        <time>2025-05-15T11:34:43Z</time>
      </trkpt>
      <trkpt lat="42.384670022875071" lon="2.707161018624902">
        <ele>497.62</ele>
        <time>2025-05-15T11:34:44Z</time>
      </trkpt>
      <trkpt lat="42.384738000109792" lon="2.706918027251959">
        <ele>496.18000000000001</ele>
        <time>2025-05-15T11:34:45Z</time>
      </trkpt>
      <trkpt lat="42.384810000658035" lon="2.70666497759521">
        <ele>494.74000000000001</ele>
        <time>2025-05-15T11:34:46Z</time>
      </trkpt>
      <trkpt lat="42.384878983721137" lon="2.706418968737125">
        <ele>493.29000000000002</ele>
        <time>2025-05-15T11:34:47Z</time>
      </trkpt>
      <trkpt lat="42.384967999532819" lon="2.706203972920775">
        <ele>491.85000000000002</ele>
        <time>2025-05-15T11:34:48Z</time>
      </trkpt>
      <trkpt lat="42.385090962052345" lon="2.70604002289474">
        <ele>489.93000000000001</ele>
        <time>2025-05-15T11:34:49Z</time>
      </trkpt>
      <trkpt lat="42.385233035311103" lon="2.705941032618284">
        <ele>488.49000000000001</ele>
        <time>2025-05-15T11:34:50Z</time>
      </trkpt>
      <trkpt lat="42.385396985337138" lon="2.705886969342828">
        <ele>486.56</ele>
        <time>2025-05-15T11:34:51Z</time>
      </trkpt>
      <trkpt lat="42.385560013353825" lon="2.705873977392912">
        <ele>485.12</ele>
        <time>2025-05-15T11:34:52Z</time>
      </trkpt>
      <trkpt lat="42.385737961158156" lon="2.705920999869704">
        <ele>482.72000000000003</ele>
        <time>2025-05-15T11:34:53Z</time>
      </trkpt>
      <trkpt lat="42.385892020538449" lon="2.70601999014616">
        <ele>480.80000000000001</ele>
        <time>2025-05-15T11:34:54Z</time>
      </trkpt>
      <trkpt lat="42.386029986664653" lon="2.706158040091395">
        <ele>478.87</ele>
        <time>2025-05-15T11:34:55Z</time>
      </trkpt>
      <trkpt lat="42.386116990819573" lon="2.706358032301068">
        <ele>477.43000000000001</ele>
        <time>2025-05-15T11:34:56Z</time>
      </trkpt>
      <trkpt lat="42.38619796000421" lon="2.706571016460657">
        <ele>475.50999999999999</ele>
        <time>2025-05-15T11:34:57Z</time>
      </trkpt>
      <trkpt lat="42.386222016066313" lon="2.706838985905051">
        <ele>474.55000000000001</ele>
        <time>2025-05-15T11:34:58Z</time>
      </trkpt>
      <trkpt lat="42.386224027723074" lon="2.707127993926406">
        <ele>472.63</ele>
        <time>2025-05-15T11:34:59Z</time>
      </trkpt>
      <trkpt lat="42.386226039379835" lon="2.70743896253407">
        <ele>471.18000000000001</ele>
        <time>2025-05-15T11:35:00Z</time>
      </trkpt>
      <trkpt lat="42.386231990531087" lon="2.709914976730943">
        <ele>461.56999999999999</ele>
        <time>2025-05-15T11:35:07Z</time>
      </trkpt>
      <trkpt lat="42.386207012459636" lon="2.710258970037103">
        <ele>461.08999999999997</ele>
        <time>2025-05-15T11:35:08Z</time>
      </trkpt>
      <trkpt lat="42.386183040216565" lon="2.71059500053525">
        <ele>460.61000000000001</ele>
        <time>2025-05-15T11:35:09Z</time>
      </trkpt>
      <trkpt lat="42.386110033839941" lon="2.710879985243082">
        <ele>460.13</ele>
        <time>2025-05-15T11:35:10Z</time>
      </trkpt>
      <trkpt lat="42.386011965572834" lon="2.711162958294153">
        <ele>460.13</ele>
        <time>2025-05-15T11:35:11Z</time>
      </trkpt>
      <trkpt lat="42.385903000831604" lon="2.711434029042721">
        <ele>460.13</ele>
        <time>2025-05-15T11:35:12Z</time>
      </trkpt>
      <trkpt lat="42.385752964764833" lon="2.711682971566916">
        <ele>460.61000000000001</ele>
        <time>2025-05-15T11:35:13Z</time>
      </trkpt>
      <trkpt lat="42.385580968111753" lon="2.711909031495452">
        <ele>460.61000000000001</ele>
        <time>2025-05-15T11:35:14Z</time>
      </trkpt>
      <trkpt lat="42.385388016700745" lon="2.712113969027996">
        <ele>461.56999999999999</ele>
        <time>2025-05-15T11:35:15Z</time>
      </trkpt>
      <trkpt lat="42.385018961504102" lon="2.712524011731148">
        <ele>463.00999999999999</ele>
        <time>2025-05-15T11:35:17Z</time>
      </trkpt>
      <trkpt lat="42.384892981499434" lon="2.712753005325794">
        <ele>463.97000000000003</ele>
        <time>2025-05-15T11:35:18Z</time>
      </trkpt>
      <trkpt lat="42.384792985394597" lon="2.713002031669021">
        <ele>464.44999999999999</ele>
        <time>2025-05-15T11:35:19Z</time>
      </trkpt>
      <trkpt lat="42.384760966524482" lon="2.713274024426937">
        <ele>464.93000000000001</ele>
        <time>2025-05-15T11:35:20Z</time>
      </trkpt>
      <trkpt lat="42.384744035080075" lon="2.71356001496315">
        <ele>465.42000000000002</ele>
        <time>2025-05-15T11:35:21Z</time>
      </trkpt>
      <trkpt lat="42.384757027029991" lon="2.713867966085672">
        <ele>465.89999999999998</ele>
        <time>2025-05-15T11:35:22Z</time>
      </trkpt>
      <trkpt lat="42.384782005101442" lon="2.714194022119045">
        <ele>465.89999999999998</ele>
        <time>2025-05-15T11:35:23Z</time>
      </trkpt>
      <trkpt lat="42.384926006197929" lon="2.715479973703623">
        <ele>463.97000000000003</ele>
        <time>2025-05-15T11:35:27Z</time>
      </trkpt>
      <trkpt lat="42.384997000917792" lon="2.715747021138668">
        <ele>463.00999999999999</ele>
        <time>2025-05-15T11:35:28Z</time>
      </trkpt>
      <trkpt lat="42.385119963437319" lon="2.716026976704598">
        <ele>461.56999999999999</ele>
        <time>2025-05-15T11:35:29Z</time>
      </trkpt>
      <trkpt lat="42.385236974805593" lon="2.71628899499774">
        <ele>460.13</ele>
        <time>2025-05-15T11:35:30Z</time>
      </trkpt>
      <trkpt lat="42.385417018085718" lon="2.716496028006077">
        <ele>458.69</ele>
        <time>2025-05-15T11:35:31Z</time>
      </trkpt>
      <trkpt lat="42.385595971718431" lon="2.716703983023763">
        <ele>457.24000000000001</ele>
        <time>2025-05-15T11:35:32Z</time>
      </trkpt>
      <trkpt lat="42.385780038312078" lon="2.716895006597042">
        <ele>455.31999999999999</ele>
        <time>2025-05-15T11:35:33Z</time>
      </trkpt>
      <trkpt lat="42.386121014133096" lon="2.71731804125011">
        <ele>451.48000000000002</ele>
        <time>2025-05-15T11:35:35Z</time>
      </trkpt>
      <trkpt lat="42.38623701967299" lon="2.717575030401349">
        <ele>450.02999999999997</ele>
        <time>2025-05-15T11:35:36Z</time>
      </trkpt>
      <trkpt lat="42.386329974979162" lon="2.71783797070384">
        <ele>448.58999999999997</ele>
        <time>2025-05-15T11:35:37Z</time>
      </trkpt>
      <trkpt lat="42.386344978585839" lon="2.718112980946899">
        <ele>447.14999999999998</ele>
        <time>2025-05-15T11:35:38Z</time>
      </trkpt>
      <trkpt lat="42.386333998292685" lon="2.718390002846718">
        <ele>445.70999999999998</ele>
        <time>2025-05-15T11:35:39Z</time>
      </trkpt>
      <trkpt lat="42.386315977200866" lon="2.718669958412647">
        <ele>444.75</ele>
        <time>2025-05-15T11:35:40Z</time>
      </trkpt>
      <trkpt lat="42.386300973594189" lon="2.719214027747512">
        <ele>444.26999999999998</ele>
        <time>2025-05-15T11:35:42Z</time>
      </trkpt>
      <trkpt lat="42.386355036869645" lon="2.719456013292074">
        <ele>443.79000000000002</ele>
        <time>2025-05-15T11:35:43Z</time>
      </trkpt>
      <trkpt lat="42.386455032974482" lon="2.719906959682703">
        <ele>442.33999999999997</ele>
        <time>2025-05-15T11:35:45Z</time>
      </trkpt>
      <trkpt lat="42.386443968862295" lon="2.720104018226266">
        <ele>441.86000000000001</ele>
        <time>2025-05-15T11:35:46Z</time>
      </trkpt>
      <trkpt lat="42.386417984962463" lon="2.720278026536107">
        <ele>441.38</ele>
        <time>2025-05-15T11:35:47Z</time>
      </trkpt>
      <trkpt lat="42.386314971372485" lon="2.720433007925749">
        <ele>440.89999999999998</ele>
        <time>2025-05-15T11:35:48Z</time>
      </trkpt>
      <trkpt lat="42.386200977489352" lon="2.720591006800532">
        <ele>440.42000000000002</ele>
        <time>2025-05-15T11:35:49Z</time>
      </trkpt>
      <trkpt lat="42.386042978614569" lon="2.720717992633581">
        <ele>440.42000000000002</ele>
        <time>2025-05-15T11:35:50Z</time>
      </trkpt>
      <trkpt lat="42.384524010121822" lon="2.721877964213491">
        <ele>439.45999999999998</ele>
        <time>2025-05-15T11:35:58Z</time>
      </trkpt>
      <trkpt lat="42.38292801193893" lon="2.722808020189405">
        <ele>443.31</ele>
        <time>2025-05-15T11:36:05Z</time>
      </trkpt>
      <trkpt lat="42.382718967273831" lon="2.722995020449162">
        <ele>444.26999999999998</ele>
        <time>2025-05-15T11:36:06Z</time>
      </trkpt>
      <trkpt lat="42.382531967014074" lon="2.723216973245144">
        <ele>444.75</ele>
        <time>2025-05-15T11:36:07Z</time>
      </trkpt>
      <trkpt lat="42.381900977343321" lon="2.724146023392677">
        <ele>449.06999999999999</ele>
        <time>2025-05-15T11:36:11Z</time>
      </trkpt>
      <trkpt lat="42.381782038137317" lon="2.724414998665452">
        <ele>450.02999999999997</ele>
        <time>2025-05-15T11:36:12Z</time>
      </trkpt>
      <trkpt lat="42.381676007062197" lon="2.724691014736891">
        <ele>451</ele>
        <time>2025-05-15T11:36:13Z</time>
      </trkpt>
      <trkpt lat="42.381603000685573" lon="2.724992008879781">
        <ele>451.48000000000002</ele>
        <time>2025-05-15T11:36:14Z</time>
      </trkpt>
      <trkpt lat="42.381538962945342" lon="2.72531202994287">
        <ele>451.95999999999998</ele>
        <time>2025-05-15T11:36:15Z</time>
      </trkpt>
      <trkpt lat="42.381412982940674" lon="2.726239990442991">
        <ele>451.95999999999998</ele>
        <time>2025-05-15T11:36:18Z</time>
      </trkpt>
      <trkpt lat="42.381455982103944" lon="2.726524975150824">
        <ele>451.95999999999998</ele>
        <time>2025-05-15T11:36:19Z</time>
      </trkpt>
      <trkpt lat="42.381503004580736" lon="2.72675296291709">
        <ele>451.48000000000002</ele>
        <time>2025-05-15T11:36:20Z</time>
      </trkpt>
      <trkpt lat="42.381586991250515" lon="2.726941974833608">
        <ele>450.51999999999998</ele>
        <time>2025-05-15T11:36:21Z</time>
      </trkpt>
      <trkpt lat="42.381701990962029" lon="2.727092010900378">
        <ele>449.55000000000001</ele>
        <time>2025-05-15T11:36:22Z</time>
      </trkpt>
      <trkpt lat="42.3818330001086" lon="2.727231988683343">
        <ele>449.06999999999999</ele>
        <time>2025-05-15T11:36:23Z</time>
      </trkpt>
      <trkpt lat="42.38198596984148" lon="2.727369032800198">
        <ele>448.11000000000001</ele>
        <time>2025-05-15T11:36:24Z</time>
      </trkpt>
      <trkpt lat="42.382636992260814" lon="2.728015026077628">
        <ele>445.23000000000002</ele>
        <time>2025-05-15T11:36:28Z</time>
      </trkpt>
      <trkpt lat="42.38273598253727" lon="2.728225998580456">
        <ele>444.26999999999998</ele>
        <time>2025-05-15T11:36:29Z</time>
      </trkpt>
      <trkpt lat="42.382830027490854" lon="2.728492962196469">
        <ele>444.26999999999998</ele>
        <time>2025-05-15T11:36:30Z</time>
      </trkpt>
      <trkpt lat="42.382841007784009" lon="2.728699995204806">
        <ele>443.31</ele>
        <time>2025-05-15T11:36:31Z</time>
      </trkpt>
      <trkpt lat="42.382830027490854" lon="2.72894399240613">
        <ele>443.31</ele>
        <time>2025-05-15T11:36:32Z</time>
      </trkpt>
      <trkpt lat="42.382760960608721" lon="2.729149013757706">
        <ele>442.81999999999999</ele>
        <time>2025-05-15T11:36:33Z</time>
      </trkpt>
      <trkpt lat="42.382632968947291" lon="2.729345988482237">
        <ele>442.33999999999997</ele>
        <time>2025-05-15T11:36:34Z</time>
      </trkpt>
      <trkpt lat="42.382471030578017" lon="2.729521002620459">
        <ele>441.86000000000001</ele>
        <time>2025-05-15T11:36:35Z</time>
      </trkpt>
      <trkpt lat="42.382289981469512" lon="2.729648994281888">
        <ele>441.86000000000001</ele>
        <time>2025-05-15T11:36:36Z</time>
      </trkpt>
      <trkpt lat="42.382099963724613" lon="2.729783020913601">
        <ele>441.38</ele>
        <time>2025-05-15T11:36:37Z</time>
      </trkpt>
      <trkpt lat="42.380954995751381" lon="2.730632023885846">
        <ele>442.33999999999997</ele>
        <time>2025-05-15T11:36:43Z</time>
      </trkpt>
      <trkpt lat="42.380833961069584" lon="2.730821035802364">
        <ele>442.33999999999997</ele>
        <time>2025-05-15T11:36:44Z</time>
      </trkpt>
      <trkpt lat="42.380762966349721" lon="2.731038965284824">
        <ele>442.33999999999997</ele>
        <time>2025-05-15T11:36:45Z</time>
      </trkpt>
      <trkpt lat="42.380727007985115" lon="2.7312630135566">
        <ele>442.33999999999997</ele>
        <time>2025-05-15T11:36:46Z</time>
      </trkpt>
      <trkpt lat="42.380739999935031" lon="2.731492007151246">
        <ele>442.33999999999997</ele>
        <time>2025-05-15T11:36:47Z</time>
      </trkpt>
      <trkpt lat="42.380790039896965" lon="2.731718989089131">
        <ele>442.81999999999999</ele>
        <time>2025-05-15T11:36:48Z</time>
      </trkpt>
      <trkpt lat="42.380879977717996" lon="2.731913030147553">
        <ele>443.31</ele>
        <time>2025-05-15T11:36:49Z</time>
      </trkpt>
      <trkpt lat="42.381005035713315" lon="2.732088966295123">
        <ele>443.79000000000002</ele>
        <time>2025-05-15T11:36:50Z</time>
      </trkpt>
      <trkpt lat="42.381139984354377" lon="2.732274038717151">
        <ele>444.75</ele>
        <time>2025-05-15T11:36:51Z</time>
      </trkpt>
      <trkpt lat="42.381312986835837" lon="2.73242399096489">
        <ele>445.23000000000002</ele>
        <time>2025-05-15T11:36:52Z</time>
      </trkpt>
      <trkpt lat="42.381868036463857" lon="2.732904022559524">
        <ele>445.70999999999998</ele>
        <time>2025-05-15T11:36:55Z</time>
      </trkpt>
      <trkpt lat="42.382064005360007" lon="2.733028996735811">
        <ele>445.23000000000002</ele>
        <time>2025-05-15T11:36:56Z</time>
      </trkpt>
      <trkpt lat="42.382269026711583" lon="2.73311197757721">
        <ele>444.75</ele>
        <time>2025-05-15T11:36:57Z</time>
      </trkpt>
      <trkpt lat="42.382476981729269" lon="2.733131004497409">
        <ele>444.26999999999998</ele>
        <time>2025-05-15T11:36:58Z</time>
      </trkpt>
      <trkpt lat="42.382688960060477" lon="2.733146008104086">
        <ele>444.26999999999998</ele>
        <time>2025-05-15T11:36:59Z</time>
      </trkpt>
      <trkpt lat="42.382891969755292" lon="2.733065960928798">
        <ele>443.31</ele>
        <time>2025-05-15T11:37:00Z</time>
      </trkpt>
      <trkpt lat="42.383094979450107" lon="2.732987003400922">
        <ele>442.81999999999999</ele>
        <time>2025-05-15T11:37:01Z</time>
      </trkpt>
      <trkpt lat="42.383280973881483" lon="2.732841996476054">
        <ele>441.38</ele>
        <time>2025-05-15T11:37:02Z</time>
      </trkpt>
      <trkpt lat="42.383448025211692" lon="2.732663964852691">
        <ele>440.42000000000002</ele>
        <time>2025-05-15T11:37:03Z</time>
      </trkpt>
      <trkpt lat="42.383605018258095" lon="2.732459027320147">
        <ele>438.98000000000002</ele>
        <time>2025-05-15T11:37:04Z</time>
      </trkpt>
      <trkpt lat="42.38374600186944" lon="2.732246965169907">
        <ele>438.01999999999998</ele>
        <time>2025-05-15T11:37:05Z</time>
      </trkpt>
      <trkpt lat="42.383987987414002" lon="2.731884028762579">
        <ele>434.17000000000002</ele>
        <time>2025-05-15T11:37:07Z</time>
      </trkpt>
      <trkpt lat="42.384160989895463" lon="2.73175897076726">
        <ele>432.25</ele>
        <time>2025-05-15T11:37:08Z</time>
      </trkpt>
      <trkpt lat="42.384324017912149" lon="2.731641959398985">
        <ele>430.32999999999998</ele>
        <time>2025-05-15T11:37:09Z</time>
      </trkpt>
      <trkpt lat="42.38449702039361" lon="2.731576999649406">
        <ele>428.39999999999998</ele>
        <time>2025-05-15T11:37:10Z</time>
      </trkpt>
      <trkpt lat="42.384674968197942" lon="2.731594014912844">
        <ele>426.95999999999998</ele>
        <time>2025-05-15T11:37:11Z</time>
      </trkpt>
      <trkpt lat="42.384839002043009" lon="2.73167297244072">
        <ele>425.51999999999998</ele>
        <time>2025-05-15T11:37:12Z</time>
      </trkpt>
      <trkpt lat="42.384995995089412" lon="2.73180196993053">
        <ele>424.07999999999998</ele>
        <time>2025-05-15T11:37:13Z</time>
      </trkpt>
      <trkpt lat="42.385147036984563" lon="2.731927027925849">
        <ele>422.63999999999999</ele>
        <time>2025-05-15T11:37:14Z</time>
      </trkpt>
      <trkpt lat="42.385252984240651" lon="2.732138000428677">
        <ele>421.68000000000001</ele>
        <time>2025-05-15T11:37:15Z</time>
      </trkpt>
      <trkpt lat="42.385330013930798" lon="2.732389038428664">
        <ele>420.70999999999998</ele>
        <time>2025-05-15T11:37:16Z</time>
      </trkpt>
      <trkpt lat="42.385354992002249" lon="2.732651978731155">
        <ele>419.75</ele>
        <time>2025-05-15T11:37:17Z</time>
      </trkpt>
      <trkpt lat="42.385321967303753" lon="2.732931012287736">
        <ele>419.26999999999998</ele>
        <time>2025-05-15T11:37:18Z</time>
      </trkpt>
      <trkpt lat="42.385245021432638" lon="2.733194036409259">
        <ele>418.79000000000002</ele>
        <time>2025-05-15T11:37:19Z</time>
      </trkpt>
      <trkpt lat="42.385144019499421" lon="2.733448008075357">
        <ele>417.82999999999998</ele>
        <time>2025-05-15T11:37:20Z</time>
      </trkpt>
      <trkpt lat="42.385041005909443" lon="2.733704997226596">
        <ele>417.35000000000002</ele>
        <time>2025-05-15T11:37:21Z</time>
      </trkpt>
      <trkpt lat="42.384943021461368" lon="2.733963998034596">
        <ele>416.87</ele>
        <time>2025-05-15T11:37:22Z</time>
      </trkpt>
      <trkpt lat="42.384869009256363" lon="2.734245965257287">
        <ele>417.35000000000002</ele>
        <time>2025-05-15T11:37:23Z</time>
      </trkpt>
      <trkpt lat="42.384815029799938" lon="2.734534973278642">
        <ele>417.82999999999998</ele>
        <time>2025-05-15T11:37:24Z</time>
      </trkpt>
      <trkpt lat="42.384788962081075" lon="2.734835967421532">
        <ele>418.79000000000002</ele>
        <time>2025-05-15T11:37:25Z</time>
      </trkpt>
      <trkpt lat="42.384805977344513" lon="2.735140984877944">
        <ele>419.26999999999998</ele>
        <time>2025-05-15T11:37:26Z</time>
      </trkpt>
      <trkpt lat="42.384836990386248" lon="2.735440973192453">
        <ele>420.23000000000002</ele>
        <time>2025-05-15T11:37:27Z</time>
      </trkpt>
      <trkpt lat="42.384866997599602" lon="2.735740039497614">
        <ele>421.19</ele>
        <time>2025-05-15T11:37:28Z</time>
      </trkpt>
      <trkpt lat="42.385261030867696" lon="2.737951017916203">
        <ele>428.39999999999998</ele>
        <time>2025-05-15T11:37:36Z</time>
      </trkpt>
      <trkpt lat="42.385366978123784" lon="2.73818202316761">
        <ele>428.88999999999999</ele>
        <time>2025-05-15T11:37:37Z</time>
      </trkpt>
      <trkpt lat="42.386064017191529" lon="2.739629996940494">
        <ele>428.39999999999998</ele>
        <time>2025-05-15T11:37:43Z</time>
      </trkpt>
      <trkpt lat="42.386166024953127" lon="2.739891009405255">
        <ele>427.44</ele>
        <time>2025-05-15T11:37:44Z</time>
      </trkpt>
      <trkpt lat="42.386210029944777" lon="2.740165013819933">
        <ele>426.48000000000002</ele>
        <time>2025-05-15T11:37:45Z</time>
      </trkpt>
      <trkpt lat="42.386232996359468" lon="2.740432983264327">
        <ele>425.04000000000002</ele>
        <time>2025-05-15T11:37:46Z</time>
      </trkpt>
      <trkpt lat="42.386203994974494" lon="2.740693995729089">
        <ele>424.07999999999998</ele>
        <time>2025-05-15T11:37:47Z</time>
      </trkpt>
      <trkpt lat="42.386168958619237" lon="2.740970011800528">
        <ele>422.63999999999999</ele>
        <time>2025-05-15T11:37:48Z</time>
      </trkpt>
      <trkpt lat="42.386097041890025" lon="2.741261031478643">
        <ele>421.19</ele>
        <time>2025-05-15T11:37:49Z</time>
      </trkpt>
      <trkpt lat="42.385394973680377" lon="2.743879035115242">
        <ele>406.29000000000002</ele>
        <time>2025-05-15T11:37:57Z</time>
      </trkpt>
      <trkpt lat="42.385283997282386" lon="2.744194027036429">
        <ele>404.37</ele>
        <time>2025-05-15T11:37:58Z</time>
      </trkpt>
      <trkpt lat="42.385124992579222" lon="2.744463002309203">
        <ele>401.97000000000003</ele>
        <time>2025-05-15T11:37:59Z</time>
      </trkpt>
      <trkpt lat="42.384962970390916" lon="2.744725020602346">
        <ele>400.05000000000001</ele>
        <time>2025-05-15T11:38:00Z</time>
      </trkpt>
      <trkpt lat="42.384745040908456" lon="2.744896011427045">
        <ele>397.63999999999999</ele>
        <time>2025-05-15T11:38:01Z</time>
      </trkpt>
      <trkpt lat="42.384518980979919" lon="2.745073037222028">
        <ele>395.72000000000003</ele>
        <time>2025-05-15T11:38:02Z</time>
      </trkpt>
      <trkpt lat="42.384288981556892" lon="2.745252996683121">
        <ele>393.31999999999999</ele>
        <time>2025-05-15T11:38:03Z</time>
      </trkpt>
      <trkpt lat="42.38292801193893" lon="2.746327975764871">
        <ele>379.86000000000001</ele>
        <time>2025-05-15T11:38:09Z</time>
      </trkpt>
      <trkpt lat="42.38275702111423" lon="2.746553029865027">
        <ele>378.42000000000002</ele>
        <time>2025-05-15T11:38:10Z</time>
      </trkpt>
      <trkpt lat="42.382603967562318" lon="2.746779005974531">
        <ele>376.97000000000003</ele>
        <time>2025-05-15T11:38:11Z</time>
      </trkpt>
      <trkpt lat="42.382483016699553" lon="2.747035995125771">
        <ele>375.52999999999997</ele>
        <time>2025-05-15T11:38:12Z</time>
      </trkpt>
      <trkpt lat="42.38239198923111" lon="2.747317040339112">
        <ele>374.56999999999999</ele>
        <time>2025-05-15T11:38:13Z</time>
      </trkpt>
      <trkpt lat="42.382314959540963" lon="2.747611999511719">
        <ele>373.61000000000001</ele>
        <time>2025-05-15T11:38:14Z</time>
      </trkpt>
      <trkpt lat="42.38228595815599" lon="2.747923973947763">
        <ele>372.17000000000002</ele>
        <time>2025-05-15T11:38:15Z</time>
      </trkpt>
      <trkpt lat="42.38228403031826" lon="2.748225973919034">
        <ele>370.73000000000002</ele>
        <time>2025-05-15T11:38:16Z</time>
      </trkpt>
      <trkpt lat="42.382309008389711" lon="2.748533003032208">
        <ele>368.80000000000001</ele>
        <time>2025-05-15T11:38:17Z</time>
      </trkpt>
      <trkpt lat="42.382333986461163" lon="2.748833997175098">
        <ele>367.36000000000001</ele>
        <time>2025-05-15T11:38:18Z</time>
      </trkpt>
      <trkpt lat="42.382405987009406" lon="2.74911898188293">
        <ele>365.92000000000002</ele>
        <time>2025-05-15T11:38:19Z</time>
      </trkpt>
      <trkpt lat="42.382504977285862" lon="2.749391980469227">
        <ele>364</ele>
        <time>2025-05-15T11:38:20Z</time>
      </trkpt>
      <trkpt lat="42.382622994482517" lon="2.749653998762369">
        <ele>361.58999999999997</ele>
        <time>2025-05-15T11:38:21Z</time>
      </trkpt>
      <trkpt lat="42.382761966437101" lon="2.749903025105596">
        <ele>359.67000000000002</ele>
        <time>2025-05-15T11:38:22Z</time>
      </trkpt>
      <trkpt lat="42.382938992232084" lon="2.750088013708592">
        <ele>357.26999999999998</ele>
        <time>2025-05-15T11:38:23Z</time>
      </trkpt>
      <trkpt lat="42.383119035512209" lon="2.750276019796729">
        <ele>355.33999999999997</ele>
        <time>2025-05-15T11:38:24Z</time>
      </trkpt>
      <trkpt lat="42.383300000801682" lon="2.750464025884867">
        <ele>352.94</ele>
        <time>2025-05-15T11:38:25Z</time>
      </trkpt>
      <trkpt lat="42.38443398848176" lon="2.75165400467813">
        <ele>341.41000000000003</ele>
        <time>2025-05-15T11:38:32Z</time>
      </trkpt>
      <trkpt lat="42.384537002071738" lon="2.751839999109507">
        <ele>340.92000000000002</ele>
        <time>2025-05-15T11:38:33Z</time>
      </trkpt>
      <trkpt lat="42.384635992348194" lon="2.752023981884122">
        <ele>340.92000000000002</ele>
        <time>2025-05-15T11:38:34Z</time>
      </trkpt>
      <trkpt lat="42.384687960147858" lon="2.752220034599304">
        <ele>340.92000000000002</ele>
        <time>2025-05-15T11:38:35Z</time>
      </trkpt>
      <trkpt lat="42.384738000109792" lon="2.752402005717158">
        <ele>340.92000000000002</ele>
        <time>2025-05-15T11:38:36Z</time>
      </trkpt>
      <trkpt lat="42.384783010929823" lon="2.752572996541858">
        <ele>341.41000000000003</ele>
        <time>2025-05-15T11:38:37Z</time>
      </trkpt>
      <trkpt lat="42.384815029799938" lon="2.752737030386925">
        <ele>341.41000000000003</ele>
        <time>2025-05-15T11:38:38Z</time>
      </trkpt>
      <trkpt lat="42.384909996762872" lon="2.753187976777554">
        <ele>342.37</ele>
        <time>2025-05-15T11:38:41Z</time>
      </trkpt>
      <trkpt lat="42.384954001754522" lon="2.753320997580886">
        <ele>342.85000000000002</ele>
        <time>2025-05-15T11:38:42Z</time>
      </trkpt>
      <trkpt lat="42.385017033666372" lon="2.753420993685722">
        <ele>343.32999999999998</ele>
        <time>2025-05-15T11:38:43Z</time>
      </trkpt>
      <trkpt lat="42.385098002851009" lon="2.753492994233966">
        <ele>343.32999999999998</ele>
        <time>2025-05-15T11:38:44Z</time>
      </trkpt>
      <trkpt lat="42.385178972035646" lon="2.753558959811926">
        <ele>343.32999999999998</ele>
        <time>2025-05-15T11:38:45Z</time>
      </trkpt>
      <trkpt lat="42.385277040302753" lon="2.753591984510422">
        <ele>343.32999999999998</ele>
        <time>2025-05-15T11:38:46Z</time>
      </trkpt>
      <trkpt lat="42.385375024750829" lon="2.753624003380537">
        <ele>343.32999999999998</ele>
        <time>2025-05-15T11:38:47Z</time>
      </trkpt>
      <trkpt lat="42.385476026684046" lon="2.753665996715426">
        <ele>343.32999999999998</ele>
        <time>2025-05-15T11:38:48Z</time>
      </trkpt>
      <trkpt lat="42.385570993646979" lon="2.753714025020599">
        <ele>343.32999999999998</ele>
        <time>2025-05-15T11:38:49Z</time>
      </trkpt>
      <trkpt lat="42.385668978095055" lon="2.753762975335121">
        <ele>343.32999999999998</ele>
        <time>2025-05-15T11:38:50Z</time>
      </trkpt>
      <trkpt lat="42.385762017220259" lon="2.753809997811914">
        <ele>343.32999999999998</ele>
        <time>2025-05-15T11:38:51Z</time>
      </trkpt>
      <trkpt lat="42.385822031646967" lon="2.753932038322091">
        <ele>343.32999999999998</ele>
        <time>2025-05-15T11:38:52Z</time>
      </trkpt>
      <trkpt lat="42.385868970304728" lon="2.754062041640282">
        <ele>343.32999999999998</ele>
        <time>2025-05-15T11:38:53Z</time>
      </trkpt>
      <trkpt lat="42.385905012488365" lon="2.754205958917737">
        <ele>343.32999999999998</ele>
        <time>2025-05-15T11:38:54Z</time>
      </trkpt>
      <trkpt lat="42.385941976681352" lon="2.754355994984508">
        <ele>343.32999999999998</ele>
        <time>2025-05-15T11:38:55Z</time>
      </trkpt>
      <trkpt lat="42.386330980807543" lon="2.755816038697958">
        <ele>344.29000000000002</ele>
        <time>2025-05-15T11:39:04Z</time>
      </trkpt>
      <trkpt lat="42.38683900795877" lon="2.757687969133258">
        <ele>345.25</ele>
        <time>2025-05-15T11:39:14Z</time>
      </trkpt>
      <trkpt lat="42.387143019586802" lon="2.758812988176942">
        <ele>344.76999999999998</ele>
        <time>2025-05-15T11:39:20Z</time>
      </trkpt>
      <trkpt lat="42.387217031791806" lon="2.758947014808655">
        <ele>344.29000000000002</ele>
        <time>2025-05-15T11:39:21Z</time>
      </trkpt>
      <trkpt lat="42.387310992926359" lon="2.759056985378265">
        <ele>343.81</ele>
        <time>2025-05-15T11:39:22Z</time>
      </trkpt>
      <trkpt lat="42.387424986809492" lon="2.759152036160231">
        <ele>343.81</ele>
        <time>2025-05-15T11:39:23Z</time>
      </trkpt>
      <trkpt lat="42.38754803314805" lon="2.759255971759558">
        <ele>343.81</ele>
        <time>2025-05-15T11:39:24Z</time>
      </trkpt>
      <trkpt lat="42.387666972354054" lon="2.759363008663058">
        <ele>343.81</ele>
        <time>2025-05-15T11:39:25Z</time>
      </trkpt>
      <trkpt lat="42.387755988165736" lon="2.759492006152868">
        <ele>343.81</ele>
        <time>2025-05-15T11:39:26Z</time>
      </trkpt>
      <trkpt lat="42.387820025905967" lon="2.759654028341174">
        <ele>343.81</ele>
        <time>2025-05-15T11:39:27Z</time>
      </trkpt>
      <trkpt lat="42.38785196095705" lon="2.759838011115789">
        <ele>343.81</ele>
        <time>2025-05-15T11:39:28Z</time>
      </trkpt>
      <trkpt lat="42.387863025069237" lon="2.760004978626967">
        <ele>343.81</ele>
        <time>2025-05-15T11:39:29Z</time>
      </trkpt>
      <trkpt lat="42.387837963178754" lon="2.760167000815272">
        <ele>343.81</ele>
        <time>2025-05-15T11:39:30Z</time>
      </trkpt>
      <trkpt lat="42.387810973450541" lon="2.760335979983211">
        <ele>343.32999999999998</ele>
        <time>2025-05-15T11:39:31Z</time>
      </trkpt>
      <trkpt lat="42.387776020914316" lon="2.760521974414587">
        <ele>343.32999999999998</ele>
        <time>2025-05-15T11:39:32Z</time>
      </trkpt>
      <trkpt lat="42.387717012315989" lon="2.760716015473008">
        <ele>343.32999999999998</ele>
        <time>2025-05-15T11:39:33Z</time>
      </trkpt>
      <trkpt lat="42.387434961274266" lon="2.761746989563108">
        <ele>344.76999999999998</ele>
        <time>2025-05-15T11:39:38Z</time>
      </trkpt>
      <trkpt lat="42.387422975152731" lon="2.761917980387807">
        <ele>344.76999999999998</ele>
        <time>2025-05-15T11:39:39Z</time>
      </trkpt>
      <trkpt lat="42.387458011507988" lon="2.762076985090971">
        <ele>344.76999999999998</ele>
        <time>2025-05-15T11:39:40Z</time>
      </trkpt>
      <trkpt lat="42.387516014277935" lon="2.762233978137374">
        <ele>344.29000000000002</ele>
        <time>2025-05-15T11:39:41Z</time>
      </trkpt>
      <trkpt lat="42.387609975412488" lon="2.762400023639202">
        <ele>343.81</ele>
        <time>2025-05-15T11:39:42Z</time>
      </trkpt>
      <trkpt lat="42.388368034735322" lon="2.763582961633802">
        <ele>339</ele>
        <time>2025-05-15T11:39:48Z</time>
      </trkpt>
      <trkpt lat="42.388944961130619" lon="2.76424203068018">
        <ele>336.12</ele>
        <time>2025-05-15T11:39:52Z</time>
      </trkpt>
      <trkpt lat="42.389080999419093" lon="2.764310007914901">
        <ele>335.63999999999999</ele>
        <time>2025-05-15T11:39:53Z</time>
      </trkpt>
      <trkpt lat="42.389204967767" lon="2.764370022341609">
        <ele>334.68000000000001</ele>
        <time>2025-05-15T11:39:54Z</time>
      </trkpt>
      <trkpt lat="42.389338994398713" lon="2.764324005693197">
        <ele>334.19999999999999</ele>
        <time>2025-05-15T11:39:55Z</time>
      </trkpt>
      <trkpt lat="42.389491964131594" lon="2.764271032065153">
        <ele>333.70999999999998</ele>
        <time>2025-05-15T11:39:56Z</time>
      </trkpt>
      <trkpt lat="42.390003008767962" lon="2.76411596685648">
        <ele>330.82999999999998</ele>
        <time>2025-05-15T11:39:59Z</time>
      </trkpt>
      <trkpt lat="42.390168970450759" lon="2.764128036797047">
        <ele>329.87</ele>
        <time>2025-05-15T11:40:00Z</time>
      </trkpt>
      <trkpt lat="42.390311965718865" lon="2.764186961576343">
        <ele>328.91000000000003</ele>
        <time>2025-05-15T11:40:01Z</time>
      </trkpt>
      <trkpt lat="42.390440963208675" lon="2.764305984601378">
        <ele>328.43000000000001</ele>
        <time>2025-05-15T11:40:02Z</time>
      </trkpt>
      <trkpt lat="42.390550011768937" lon="2.764453003183007">
        <ele>327.94999999999999</ele>
        <time>2025-05-15T11:40:03Z</time>
      </trkpt>
      <trkpt lat="42.390638021752238" lon="2.764640003442764">
        <ele>327.94999999999999</ele>
        <time>2025-05-15T11:40:04Z</time>
      </trkpt>
      <trkpt lat="42.39072997123003" lon="2.764836978167296">
        <ele>327.47000000000003</ele>
        <time>2025-05-15T11:40:05Z</time>
      </trkpt>
      <trkpt lat="42.390822004526854" lon="2.765033030882478">
        <ele>326.99000000000001</ele>
        <time>2025-05-15T11:40:06Z</time>
      </trkpt>
      <trkpt lat="42.390869027003646" lon="2.765236040577292">
        <ele>326.99000000000001</ele>
        <time>2025-05-15T11:40:07Z</time>
      </trkpt>
      <trkpt lat="42.390906997025013" lon="2.76542698033154">
        <ele>326.99000000000001</ele>
        <time>2025-05-15T11:40:08Z</time>
      </trkpt>
      <trkpt lat="42.390930969268084" lon="2.765625966712833">
        <ele>326.99000000000001</ele>
        <time>2025-05-15T11:40:09Z</time>
      </trkpt>
      <trkpt lat="42.390874978154898" lon="2.76581397280097">
        <ele>326.99000000000001</ele>
        <time>2025-05-15T11:40:10Z</time>
      </trkpt>
      <trkpt lat="42.390816975384951" lon="2.766012037172914">
        <ele>326.99000000000001</ele>
        <time>2025-05-15T11:40:11Z</time>
      </trkpt>
      <trkpt lat="42.390742041170597" lon="2.766208006069064">
        <ele>326.99000000000001</ele>
        <time>2025-05-15T11:40:12Z</time>
      </trkpt>
      <trkpt lat="42.390620000660419" lon="2.766367010772228">
        <ele>326.99000000000001</ele>
        <time>2025-05-15T11:40:13Z</time>
      </trkpt>
      <trkpt lat="42.390470970422029" lon="2.766512017697096">
        <ele>326.5</ele>
        <time>2025-05-15T11:40:14Z</time>
      </trkpt>
      <trkpt lat="42.390296040102839" lon="2.766631040722132">
        <ele>326.5</ele>
        <time>2025-05-15T11:40:15Z</time>
      </trkpt>
      <trkpt lat="42.390101999044418" lon="2.766699017956853">
        <ele>326.5</ele>
        <time>2025-05-15T11:40:16Z</time>
      </trkpt>
      <trkpt lat="42.389899995177984" lon="2.766770012676716">
        <ele>326.01999999999998</ele>
        <time>2025-05-15T11:40:17Z</time>
      </trkpt>
      <trkpt lat="42.388650001958013" lon="2.767353979870677">
        <ele>325.54000000000002</ele>
        <time>2025-05-15T11:40:23Z</time>
      </trkpt>
      <trkpt lat="42.387641994282603" lon="2.767847003415227">
        <ele>326.01999999999998</ele>
        <time>2025-05-15T11:40:28Z</time>
      </trkpt>
      <trkpt lat="42.386958030983806" lon="2.768331980332732">
        <ele>324.57999999999998</ele>
        <time>2025-05-15T11:40:32Z</time>
      </trkpt>
      <trkpt lat="42.38686197437346" lon="2.768495008349419">
        <ele>323.62</ele>
        <time>2025-05-15T11:40:33Z</time>
      </trkpt>
      <trkpt lat="42.386798020452261" lon="2.768687959760428">
        <ele>323.13999999999999</ele>
        <time>2025-05-15T11:40:34Z</time>
      </trkpt>
      <trkpt lat="42.386752003803849" lon="2.768903039395809">
        <ele>322.18000000000001</ele>
        <time>2025-05-15T11:40:35Z</time>
      </trkpt>
      <trkpt lat="42.386712022125721" lon="2.76914200745523">
        <ele>321.69999999999999</ele>
        <time>2025-05-15T11:40:36Z</time>
      </trkpt>
      <trkpt lat="42.386672040447593" lon="2.769382987171412">
        <ele>320.74000000000001</ele>
        <time>2025-05-15T11:40:37Z</time>
      </trkpt>
      <trkpt lat="42.386602973565459" lon="2.769588008522987">
        <ele>320.25999999999999</ele>
        <time>2025-05-15T11:40:38Z</time>
      </trkpt>
      <trkpt lat="42.386486968025565" lon="2.769758999347687">
        <ele>319.77999999999997</ele>
        <time>2025-05-15T11:40:39Z</time>
      </trkpt>
      <trkpt lat="42.386244982481003" lon="2.770115984603763">
        <ele>318.81</ele>
        <time>2025-05-15T11:40:41Z</time>
      </trkpt>
      <trkpt lat="42.386154038831592" lon="2.770341038703919">
        <ele>318.32999999999998</ele>
        <time>2025-05-15T11:40:42Z</time>
      </trkpt>
      <trkpt lat="42.386058988049626" lon="2.770576989278197">
        <ele>317.37</ele>
        <time>2025-05-15T11:40:43Z</time>
      </trkpt>
      <trkpt lat="42.385972989723086" lon="2.770825009793043">
        <ele>316.88999999999999</ele>
        <time>2025-05-15T11:40:44Z</time>
      </trkpt>
      <trkpt lat="42.385924961417913" lon="2.771099014207721">
        <ele>316.41000000000003</ele>
        <time>2025-05-15T11:40:45Z</time>
      </trkpt>
      <trkpt lat="42.38587299361825" lon="2.771391961723566">
        <ele>315.93000000000001</ele>
        <time>2025-05-15T11:40:46Z</time>
      </trkpt>
      <trkpt lat="42.385819014161825" lon="2.771693961694837">
        <ele>314.97000000000003</ele>
        <time>2025-05-15T11:40:47Z</time>
      </trkpt>
      <trkpt lat="42.385244015604258" lon="2.773855989798904">
        <ele>311.12</ele>
        <time>2025-05-15T11:40:54Z</time>
      </trkpt>
      <trkpt lat="42.384436000138521" lon="2.775389039888978">
        <ele>308.24000000000001</ele>
        <time>2025-05-15T11:41:00Z</time>
      </trkpt>
      <trkpt lat="42.38394096493721" lon="2.776327980682254">
        <ele>304.88</ele>
        <time>2025-05-15T11:41:05Z</time>
      </trkpt>
      <trkpt lat="42.383881034329534" lon="2.776515986770392">
        <ele>303.91000000000003</ele>
        <time>2025-05-15T11:41:06Z</time>
      </trkpt>
      <trkpt lat="42.383867958560586" lon="2.776731988415122">
        <ele>303.43000000000001</ele>
        <time>2025-05-15T11:41:07Z</time>
      </trkpt>
      <trkpt lat="42.383873993530869" lon="2.776928041130304">
        <ele>302.47000000000003</ele>
        <time>2025-05-15T11:41:08Z</time>
      </trkpt>
      <trkpt lat="42.383919004350901" lon="2.777144964784384">
        <ele>301.02999999999997</ele>
        <time>2025-05-15T11:41:09Z</time>
      </trkpt>
      <trkpt lat="42.383967032656074" lon="2.77737395837903">
        <ele>300.06999999999999</ele>
        <time>2025-05-15T11:41:10Z</time>
      </trkpt>
      <trkpt lat="42.384052025154233" lon="2.777518965303898">
        <ele>299.11000000000001</ele>
        <time>2025-05-15T11:41:11Z</time>
      </trkpt>
      <trkpt lat="42.38415302708745" lon="2.77767201885581">
        <ele>298.14999999999998</ele>
        <time>2025-05-15T11:41:12Z</time>
      </trkpt>
      <trkpt lat="42.384273977950215" lon="2.777806967496872">
        <ele>296.69999999999999</ele>
        <time>2025-05-15T11:41:13Z</time>
      </trkpt>
      <trkpt lat="42.38441102206707" lon="2.777877962216735">
        <ele>295.74000000000001</ele>
        <time>2025-05-15T11:41:14Z</time>
      </trkpt>
      <trkpt lat="42.384558040648699" lon="2.777941999956965">
        <ele>294.77999999999997</ele>
        <time>2025-05-15T11:41:15Z</time>
      </trkpt>
      <trkpt lat="42.384701035916805" lon="2.777977036312223">
        <ele>293.33999999999997</ele>
        <time>2025-05-15T11:41:16Z</time>
      </trkpt>
      <trkpt lat="42.384849982336164" lon="2.777980975806713">
        <ele>292.38</ele>
        <time>2025-05-15T11:41:17Z</time>
      </trkpt>
      <trkpt lat="42.384999012574553" lon="2.777984999120235">
        <ele>291.42000000000002</ele>
        <time>2025-05-15T11:41:18Z</time>
      </trkpt>
      <trkpt lat="42.385303024202585" lon="2.777993967756629">
        <ele>289.49000000000001</ele>
        <time>2025-05-15T11:41:20Z</time>
      </trkpt>
      <trkpt lat="42.385452976450324" lon="2.778052976354957">
        <ele>288.52999999999997</ele>
        <time>2025-05-15T11:41:21Z</time>
      </trkpt>
      <trkpt lat="42.385590020567179" lon="2.778137968853116">
        <ele>287.08999999999997</ele>
        <time>2025-05-15T11:41:22Z</time>
      </trkpt>
      <trkpt lat="42.385705020278692" lon="2.77821097522974">
        <ele>286.13</ele>
        <time>2025-05-15T11:41:23Z</time>
      </trkpt>
      <trkpt lat="42.385832006111741" lon="2.778371991589665">
        <ele>284.20999999999998</ele>
        <time>2025-05-15T11:41:24Z</time>
      </trkpt>
      <trkpt lat="42.385940970852971" lon="2.778510041534901">
        <ele>282.76999999999998</ele>
        <time>2025-05-15T11:41:25Z</time>
      </trkpt>
      <trkpt lat="42.386026969179511" lon="2.77861800044775">
        <ele>281.31999999999999</ele>
        <time>2025-05-15T11:41:26Z</time>
      </trkpt>
      <trkpt lat="42.386171976104379" lon="2.778739035129547">
        <ele>279.88</ele>
        <time>2025-05-15T11:41:27Z</time>
      </trkpt>
      <trkpt lat="42.386286975815892" lon="2.778834002092481">
        <ele>278.44</ele>
        <time>2025-05-15T11:41:28Z</time>
      </trkpt>
      <trkpt lat="42.386425025761127" lon="2.778865015134215">
        <ele>277</ele>
        <time>2025-05-15T11:41:29Z</time>
      </trkpt>
      <trkpt lat="42.386562991887331" lon="2.778897034004331">
        <ele>275.56</ele>
        <time>2025-05-15T11:41:30Z</time>
      </trkpt>
      <trkpt lat="42.386707998812199" lon="2.778897034004331">
        <ele>274.11000000000001</ele>
        <time>2025-05-15T11:41:31Z</time>
      </trkpt>
      <trkpt lat="42.386858034878969" lon="2.778897034004331">
        <ele>273.14999999999998</ele>
        <time>2025-05-15T11:41:32Z</time>
      </trkpt>
      <trkpt lat="42.38716104067862" lon="2.778944978490472">
        <ele>270.26999999999998</ele>
        <time>2025-05-15T11:41:34Z</time>
      </trkpt>
      <trkpt lat="42.387315016239882" lon="2.778999963775277">
        <ele>268.82999999999998</ele>
        <time>2025-05-15T11:41:35Z</time>
      </trkpt>
      <trkpt lat="42.387447031214833" lon="2.779107000678778">
        <ele>267.38</ele>
        <time>2025-05-15T11:41:36Z</time>
      </trkpt>
      <trkpt lat="42.387578040361404" lon="2.779211020097137">
        <ele>266.42000000000002</ele>
        <time>2025-05-15T11:41:37Z</time>
      </trkpt>
      <trkpt lat="42.387683987617493" lon="2.779373964294791">
        <ele>264.98000000000002</ele>
        <time>2025-05-15T11:41:38Z</time>
      </trkpt>
      <trkpt lat="42.387766968458891" lon="2.779535986483097">
        <ele>264.01999999999998</ele>
        <time>2025-05-15T11:41:39Z</time>
      </trkpt>
      <trkpt lat="42.387841986492276" lon="2.779681999236345">
        <ele>262.57999999999998</ele>
        <time>2025-05-15T11:41:40Z</time>
      </trkpt>
      <trkpt lat="42.387966960668564" lon="2.779923984780908">
        <ele>260.17000000000002</ele>
        <time>2025-05-15T11:41:42Z</time>
      </trkpt>
      <trkpt lat="42.388049019500613" lon="2.779990034177899">
        <ele>259.20999999999998</ele>
        <time>2025-05-15T11:41:43Z</time>
      </trkpt>
      <trkpt lat="42.388145998120308" lon="2.780046025291085">
        <ele>258.25</ele>
        <time>2025-05-15T11:41:44Z</time>
      </trkpt>
      <trkpt lat="42.388245994225144" lon="2.780106039717794">
        <ele>257.29000000000002</ele>
        <time>2025-05-15T11:41:45Z</time>
      </trkpt>
      <trkpt lat="42.3883449845016" lon="2.780164964497089">
        <ele>256.81</ele>
        <time>2025-05-15T11:41:46Z</time>
      </trkpt>
      <trkpt lat="42.388424025848508" lon="2.780269989743829">
        <ele>255.84999999999999</ele>
        <time>2025-05-15T11:41:47Z</time>
      </trkpt>
      <trkpt lat="42.388500971719623" lon="2.780371997505426">
        <ele>254.88999999999999</ele>
        <time>2025-05-15T11:41:48Z</time>
      </trkpt>
      <trkpt lat="42.388574983924627" lon="2.780470987781882">
        <ele>254.41</ele>
        <time>2025-05-15T11:41:49Z</time>
      </trkpt>
      <trkpt lat="42.388648996129632" lon="2.780521027743816">
        <ele>253.93000000000001</ele>
        <time>2025-05-15T11:41:50Z</time>
      </trkpt>
      <trkpt lat="42.388732982799411" lon="2.780547011643648">
        <ele>253.93000000000001</ele>
        <time>2025-05-15T11:41:51Z</time>
      </trkpt>
      <trkpt lat="42.38896700553596" lon="2.780635021626949">
        <ele>252.47999999999999</ele>
        <time>2025-05-15T11:41:54Z</time>
      </trkpt>
      <trkpt lat="42.38903196528554" lon="2.780667962506414">
        <ele>252</ele>
        <time>2025-05-15T11:41:55Z</time>
      </trkpt>
      <trkpt lat="42.389083011075854" lon="2.780770976096392">
        <ele>251.52000000000001</ele>
        <time>2025-05-15T11:41:56Z</time>
      </trkpt>
      <trkpt lat="42.38909499719739" lon="2.780892010778189">
        <ele>252</ele>
        <time>2025-05-15T11:41:57Z</time>
      </trkpt>
      <trkpt lat="42.38909499719739" lon="2.78102301992476">
        <ele>252</ele>
        <time>2025-05-15T11:41:58Z</time>
      </trkpt>
      <trkpt lat="42.38909499719739" lon="2.78115201741457">
        <ele>252.47999999999999</ele>
        <time>2025-05-15T11:41:59Z</time>
      </trkpt>
      <trkpt lat="42.38909499719739" lon="2.781383022665978">
        <ele>252.47999999999999</ele>
        <time>2025-05-15T11:42:01Z</time>
      </trkpt>
      <trkpt lat="42.389060966670513" lon="2.781485030427575">
        <ele>252</ele>
        <time>2025-05-15T11:42:02Z</time>
      </trkpt>
      <trkpt lat="42.388987960293889" lon="2.781601035967469">
        <ele>251.52000000000001</ele>
        <time>2025-05-15T11:42:03Z</time>
      </trkpt>
      <trkpt lat="42.388892993330956" lon="2.78164797462523">
        <ele>251.52000000000001</ele>
        <time>2025-05-15T11:42:04Z</time>
      </trkpt>
      <trkpt lat="42.388791991397738" lon="2.781699020415545">
        <ele>251.52000000000001</ele>
        <time>2025-05-15T11:42:05Z</time>
      </trkpt>
      <trkpt lat="42.388694006949663" lon="2.781747970730066">
        <ele>251.52000000000001</ele>
        <time>2025-05-15T11:42:06Z</time>
      </trkpt>
      <trkpt lat="42.388587975874543" lon="2.781806979328394">
        <ele>251.52000000000001</ele>
        <time>2025-05-15T11:42:07Z</time>
      </trkpt>
      <trkpt lat="42.388452021405101" lon="2.781944023445249">
        <ele>251.52000000000001</ele>
        <time>2025-05-15T11:42:08Z</time>
      </trkpt>
      <trkpt lat="42.388352025300264" lon="2.782111996784806">
        <ele>251.52000000000001</ele>
        <time>2025-05-15T11:42:09Z</time>
      </trkpt>
      <trkpt lat="42.388226967304945" lon="2.782320035621524">
        <ele>251.52000000000001</ele>
        <time>2025-05-15T11:42:10Z</time>
      </trkpt>
      <trkpt lat="42.387632019817829" lon="2.783260988071561">
        <ele>251.52000000000001</ele>
        <time>2025-05-15T11:42:14Z</time>
      </trkpt>
      <trkpt lat="42.387344017624855" lon="2.783637000247836">
        <ele>252</ele>
        <time>2025-05-15T11:42:16Z</time>
      </trkpt>
      <trkpt lat="42.386537007987499" lon="2.784951031208038">
        <ele>252</ele>
        <time>2025-05-15T11:42:22Z</time>
      </trkpt>
      <trkpt lat="42.386239031329751" lon="2.785301981493831">
        <ele>251.52000000000001</ele>
        <time>2025-05-15T11:42:24Z</time>
      </trkpt>
      <trkpt lat="42.38610802218318" lon="2.785522006452084">
        <ele>251.03999999999999</ele>
        <time>2025-05-15T11:42:25Z</time>
      </trkpt>
      <trkpt lat="42.385971983894706" lon="2.785747982561588">
        <ele>251.03999999999999</ele>
        <time>2025-05-15T11:42:26Z</time>
      </trkpt>
      <trkpt lat="42.38582999445498" lon="2.785980999469757">
        <ele>250.56</ele>
        <time>2025-05-15T11:42:27Z</time>
      </trkpt>
      <trkpt lat="42.385639976710081" lon="2.786112008616328">
        <ele>250.56</ele>
        <time>2025-05-15T11:42:28Z</time>
      </trkpt>
      <trkpt lat="42.385436967015266" lon="2.786231031641364">
        <ele>250.08000000000001</ele>
        <time>2025-05-15T11:42:29Z</time>
      </trkpt>
      <trkpt lat="42.385214008390903" lon="2.786302026361227">
        <ele>249.59999999999999</ele>
        <time>2025-05-15T11:42:30Z</time>
      </trkpt>
      <trkpt lat="42.384991971775889" lon="2.78637302108109">
        <ele>249.59999999999999</ele>
        <time>2025-05-15T11:42:31Z</time>
      </trkpt>
      <trkpt lat="42.384572038426995" lon="2.786506963893771">
        <ele>248.63999999999999</ele>
        <time>2025-05-15T11:42:33Z</time>
      </trkpt>
      <trkpt lat="42.384376991540194" lon="2.786630010232329">
        <ele>248.16</ele>
        <time>2025-05-15T11:42:34Z</time>
      </trkpt>
      <trkpt lat="42.384181022644043" lon="2.786764958873391">
        <ele>247.19999999999999</ele>
        <time>2025-05-15T11:42:35Z</time>
      </trkpt>
      <trkpt lat="42.383993016555905" lon="2.786938967183232">
        <ele>246.72</ele>
        <time>2025-05-15T11:42:36Z</time>
      </trkpt>
      <trkpt lat="42.383807022124529" lon="2.787124961614609">
        <ele>245.75</ele>
        <time>2025-05-15T11:42:37Z</time>
      </trkpt>
      <trkpt lat="42.383629996329546" lon="2.787302993237972">
        <ele>245.27000000000001</ele>
        <time>2025-05-15T11:42:38Z</time>
      </trkpt>
      <trkpt lat="42.383453976362944" lon="2.787436014041305">
        <ele>244.31</ele>
        <time>2025-05-15T11:42:39Z</time>
      </trkpt>
      <trkpt lat="42.383263036608696" lon="2.787526035681367">
        <ele>243.83000000000001</ele>
        <time>2025-05-15T11:42:40Z</time>
      </trkpt>
      <trkpt lat="42.383054997771978" lon="2.787564005702734">
        <ele>242.87</ele>
        <time>2025-05-15T11:42:41Z</time>
      </trkpt>
      <trkpt lat="42.38284301944077" lon="2.787601975724101">
        <ele>242.38999999999999</ele>
        <time>2025-05-15T11:42:42Z</time>
      </trkpt>
      <trkpt lat="42.382626011967659" lon="2.78764103539288">
        <ele>241.43000000000001</ele>
        <time>2025-05-15T11:42:43Z</time>
      </trkpt>
      <trkpt lat="42.382405987009406" lon="2.787696020677686">
        <ele>240.94999999999999</ele>
        <time>2025-05-15T11:42:44Z</time>
      </trkpt>
      <trkpt lat="42.38220096565783" lon="2.787822000682354">
        <ele>239.99000000000001</ele>
        <time>2025-05-15T11:42:45Z</time>
      </trkpt>
      <trkpt lat="42.380459038540721" lon="2.78901700861752">
        <ele>234.22</ele>
        <time>2025-05-15T11:42:53Z</time>
      </trkpt>
      <trkpt lat="42.380257034674287" lon="2.789098983630538">
        <ele>233.74000000000001</ele>
        <time>2025-05-15T11:42:54Z</time>
      </trkpt>
      <trkpt lat="42.38007397390902" lon="2.789174001663923">
        <ele>232.78</ele>
        <time>2025-05-15T11:42:55Z</time>
      </trkpt>
      <trkpt lat="42.379913963377476" lon="2.789300987496972">
        <ele>232.30000000000001</ele>
        <time>2025-05-15T11:42:56Z</time>
      </trkpt>
      <trkpt lat="42.379759987816215" lon="2.789455968886614">
        <ele>231.33000000000001</ele>
        <time>2025-05-15T11:42:57Z</time>
      </trkpt>
      <trkpt lat="42.379596037790179" lon="2.789631988853216">
        <ele>230.84999999999999</ele>
        <time>2025-05-15T11:42:58Z</time>
      </trkpt>
      <trkpt lat="42.379439966753125" lon="2.789837010204792">
        <ele>229.88999999999999</ele>
        <time>2025-05-15T11:42:59Z</time>
      </trkpt>
      <trkpt lat="42.379171997308731" lon="2.790225008502603">
        <ele>228.93000000000001</ele>
        <time>2025-05-15T11:43:01Z</time>
      </trkpt>
      <trkpt lat="42.379107037559152" lon="2.790425000712276">
        <ele>227.97</ele>
        <time>2025-05-15T11:43:02Z</time>
      </trkpt>
      <trkpt lat="42.379082981497049" lon="2.790624992921948">
        <ele>227.97</ele>
        <time>2025-05-15T11:43:03Z</time>
      </trkpt>
      <trkpt lat="42.379022967070341" lon="2.792240018025041">
        <ele>227.97</ele>
        <time>2025-05-15T11:43:09Z</time>
      </trkpt>
      <trkpt lat="42.378906961530447" lon="2.793049961328507">
        <ele>227.97</ele>
        <time>2025-05-15T11:43:12Z</time>
      </trkpt>
      <trkpt lat="42.378833033144474" lon="2.793311979621649">
        <ele>228.44999999999999</ele>
        <time>2025-05-15T11:43:13Z</time>
      </trkpt>
      <trkpt lat="42.378758015111089" lon="2.793578021228313">
        <ele>228.93000000000001</ele>
        <time>2025-05-15T11:43:14Z</time>
      </trkpt>
      <trkpt lat="42.378635974600911" lon="2.793814977630973">
        <ele>228.93000000000001</ele>
        <time>2025-05-15T11:43:15Z</time>
      </trkpt>
      <trkpt lat="42.378508988767862" lon="2.794053023681045">
        <ele>229.41</ele>
        <time>2025-05-15T11:43:16Z</time>
      </trkpt>
      <trkpt lat="42.378365993499756" lon="2.794286040589213">
        <ele>229.88999999999999</ele>
        <time>2025-05-15T11:43:17Z</time>
      </trkpt>
      <trkpt lat="42.378187039867043" lon="2.794478992000222">
        <ele>229.88999999999999</ele>
        <time>2025-05-15T11:43:18Z</time>
      </trkpt>
      <trkpt lat="42.378003979101777" lon="2.794674960896373">
        <ele>229.88999999999999</ele>
        <time>2025-05-15T11:43:19Z</time>
      </trkpt>
      <trkpt lat="42.377814967185259" lon="2.794874031096697">
        <ele>229.88999999999999</ele>
        <time>2025-05-15T11:43:20Z</time>
      </trkpt>
      <trkpt lat="42.377423029392958" lon="2.795201009139419">
        <ele>230.37</ele>
        <time>2025-05-15T11:43:22Z</time>
      </trkpt>
      <trkpt lat="42.377117006108165" lon="2.795455986633897">
        <ele>231.33000000000001</ele>
        <time>2025-05-15T11:43:24Z</time>
      </trkpt>
      <trkpt lat="42.377047017216682" lon="2.79554701410234">
        <ele>231.81</ele>
        <time>2025-05-15T11:43:25Z</time>
      </trkpt>
      <trkpt lat="42.377018015831709" lon="2.795662013813853">
        <ele>231.81</ele>
        <time>2025-05-15T11:43:26Z</time>
      </trkpt>
      <trkpt lat="42.376988008618355" lon="2.795783970504999">
        <ele>232.30000000000001</ele>
        <time>2025-05-15T11:43:27Z</time>
      </trkpt>
      <trkpt lat="42.376950960606337" lon="2.795930989086628">
        <ele>232.30000000000001</ele>
        <time>2025-05-15T11:43:28Z</time>
      </trkpt>
      <trkpt lat="42.376892035827041" lon="2.796090999618173">
        <ele>233.25999999999999</ele>
        <time>2025-05-15T11:43:29Z</time>
      </trkpt>
      <trkpt lat="42.376802014186978" lon="2.796265007928014">
        <ele>233.74000000000001</ele>
        <time>2025-05-15T11:43:30Z</time>
      </trkpt>
      <trkpt lat="42.376702018082142" lon="2.796457037329674">
        <ele>234.22</ele>
        <time>2025-05-15T11:43:31Z</time>
      </trkpt>
      <trkpt lat="42.376614008098841" lon="2.79666499234736">
        <ele>234.22</ele>
        <time>2025-05-15T11:43:32Z</time>
      </trkpt>
      <trkpt lat="42.376534966751933" lon="2.796902032569051">
        <ele>234.69999999999999</ele>
        <time>2025-05-15T11:43:33Z</time>
      </trkpt>
      <trkpt lat="42.376439999789" lon="2.797136977314949">
        <ele>235.18000000000001</ele>
        <time>2025-05-15T11:43:34Z</time>
      </trkpt>
      <trkpt lat="42.376328017562628" lon="2.797348033636808">
        <ele>235.18000000000001</ele>
        <time>2025-05-15T11:43:35Z</time>
      </trkpt>
      <trkpt lat="42.376108998432755" lon="2.797671994194388">
        <ele>235.66</ele>
        <time>2025-05-15T11:43:37Z</time>
      </trkpt>
      <trkpt lat="42.376071028411388" lon="2.797864023596048">
        <ele>236.13999999999999</ele>
        <time>2025-05-15T11:43:38Z</time>
      </trkpt>
      <trkpt lat="42.376030962914228" lon="2.79806200414896">
        <ele>236.62</ele>
        <time>2025-05-15T11:43:39Z</time>
      </trkpt>
      <trkpt lat="42.375948987901211" lon="2.798238024115562">
        <ele>237.09999999999999</ele>
        <time>2025-05-15T11:43:40Z</time>
      </trkpt>
      <trkpt lat="42.375820996239781" lon="2.798380013555288">
        <ele>237.58000000000001</ele>
        <time>2025-05-15T11:43:41Z</time>
      </trkpt>
      <trkpt lat="42.37568898126483" lon="2.798519991338253">
        <ele>238.06</ele>
        <time>2025-05-15T11:43:42Z</time>
      </trkpt>
      <trkpt lat="42.375551015138626" lon="2.798646977171302">
        <ele>238.53999999999999</ele>
        <time>2025-05-15T11:43:43Z</time>
      </trkpt>
      <trkpt lat="42.375403996556997" lon="2.798696011304855">
        <ele>239.50999999999999</ele>
        <time>2025-05-15T11:43:44Z</time>
      </trkpt>
      <trkpt lat="42.375264018774033" lon="2.798742027953267">
        <ele>239.99000000000001</ele>
        <time>2025-05-15T11:43:45Z</time>
      </trkpt>
      <trkpt lat="42.37515103071928" lon="2.798839006572962">
        <ele>240.47</ele>
        <time>2025-05-15T11:43:46Z</time>
      </trkpt>
      <trkpt lat="42.375039970502257" lon="2.798958029597998">
        <ele>240.94999999999999</ele>
        <time>2025-05-15T11:43:47Z</time>
      </trkpt>
      <trkpt lat="42.374946009367704" lon="2.799135977402329">
        <ele>241.43000000000001</ele>
        <time>2025-05-15T11:43:48Z</time>
      </trkpt>
      <trkpt lat="42.374675022438169" lon="2.799719022586942">
        <ele>241.91</ele>
        <time>2025-05-15T11:43:51Z</time>
      </trkpt>
      <trkpt lat="42.374635962769389" lon="2.799927983433008">
        <ele>242.38999999999999</ele>
        <time>2025-05-15T11:43:52Z</time>
      </trkpt>
      <trkpt lat="42.374577037990093" lon="2.800124036148191">
        <ele>242.38999999999999</ele>
        <time>2025-05-15T11:43:53Z</time>
      </trkpt>
      <trkpt lat="42.374492967501283" lon="2.800291003659368">
        <ele>242.87</ele>
        <time>2025-05-15T11:43:54Z</time>
      </trkpt>
      <trkpt lat="42.374384002760053" lon="2.800406003370881">
        <ele>243.34999999999999</ele>
        <time>2025-05-15T11:43:55Z</time>
      </trkpt>
      <trkpt lat="42.374260034412146" lon="2.80046702362597">
        <ele>243.34999999999999</ele>
        <time>2025-05-15T11:43:56Z</time>
      </trkpt>
      <trkpt lat="42.374129025265574" lon="2.800513040274382">
        <ele>243.34999999999999</ele>
        <time>2025-05-15T11:43:57Z</time>
      </trkpt>
      <trkpt lat="42.374002039432526" lon="2.8005759883672">
        <ele>243.34999999999999</ele>
        <time>2025-05-15T11:43:58Z</time>
      </trkpt>
      <trkpt lat="42.373891985043883" lon="2.800676990300417">
        <ele>243.83000000000001</ele>
        <time>2025-05-15T11:43:59Z</time>
      </trkpt>
      <trkpt lat="42.373790983110666" lon="2.80076902359724">
        <ele>244.31</ele>
        <time>2025-05-15T11:44:00Z</time>
      </trkpt>
      <trkpt lat="42.373714037239552" lon="2.800781009718776">
        <ele>245.75</ele>
        <time>2025-05-15T11:44:01Z</time>
      </trkpt>
      <trkpt lat="42.373617980629206" lon="2.800775980576873">
        <ele>246.72</ele>
        <time>2025-05-15T11:44:02Z</time>
      </trkpt>
      <trkpt lat="42.373505998402834" lon="2.800770029425621">
        <ele>246.22999999999999</ele>
        <time>2025-05-15T11:44:03Z</time>
      </trkpt>
      <trkpt lat="42.37336702644825" lon="2.800762988626957">
        <ele>246.72</ele>
        <time>2025-05-15T11:44:04Z</time>
      </trkpt>
      <trkpt lat="42.37328102812171" lon="2.800847981125116">
        <ele>246.22999999999999</ele>
        <time>2025-05-15T11:44:05Z</time>
      </trkpt>
      <trkpt lat="42.373167034238577" lon="2.800961975008249">
        <ele>246.22999999999999</ele>
        <time>2025-05-15T11:44:06Z</time>
      </trkpt>
      <trkpt lat="42.373084975406528" lon="2.801137994974852">
        <ele>246.22999999999999</ele>
        <time>2025-05-15T11:44:07Z</time>
      </trkpt>
      <trkpt lat="42.373013980686665" lon="2.801358019933105">
        <ele>246.22999999999999</ele>
        <time>2025-05-15T11:44:08Z</time>
      </trkpt>
      <trkpt lat="42.37293703481555" lon="2.801591958850622">
        <ele>246.22999999999999</ele>
        <time>2025-05-15T11:44:09Z</time>
      </trkpt>
      <trkpt lat="42.372751040384173" lon="2.80231699347496">
        <ele>245.75</ele>
        <time>2025-05-15T11:44:12Z</time>
      </trkpt>
      <trkpt lat="42.372736958786845" lon="2.802540035918355">
        <ele>245.75</ele>
        <time>2025-05-15T11:44:13Z</time>
      </trkpt>
      <trkpt lat="42.372781969606876" lon="2.802729969844222">
        <ele>246.22999999999999</ele>
        <time>2025-05-15T11:44:14Z</time>
      </trkpt>
      <trkpt lat="42.372847013175488" lon="2.80289500951767">
        <ele>246.22999999999999</ele>
        <time>2025-05-15T11:44:15Z</time>
      </trkpt>
      <trkpt lat="42.372958995401859" lon="2.803044961765409">
        <ele>246.22999999999999</ele>
        <time>2025-05-15T11:44:16Z</time>
      </trkpt>
      <trkpt lat="42.373081035912037" lon="2.803200026974082">
        <ele>246.72</ele>
        <time>2025-05-15T11:44:17Z</time>
      </trkpt>
      <trkpt lat="42.373224031180143" lon="2.803329024463892">
        <ele>246.72</ele>
        <time>2025-05-15T11:44:18Z</time>
      </trkpt>
      <trkpt lat="42.373350011184812" lon="2.80347696505487">
        <ele>247.19999999999999</ele>
        <time>2025-05-15T11:44:19Z</time>
      </trkpt>
      <trkpt lat="42.373457970097661" lon="2.803628006950021">
        <ele>247.68000000000001</ele>
        <time>2025-05-15T11:44:20Z</time>
      </trkpt>
      <trkpt lat="42.373533993959427" lon="2.803834034129977">
        <ele>248.63999999999999</ele>
        <time>2025-05-15T11:44:21Z</time>
      </trkpt>
      <trkpt lat="42.373544974252582" lon="2.804069984704256">
        <ele>249.12</ele>
        <time>2025-05-15T11:44:22Z</time>
      </trkpt>
      <trkpt lat="42.373481020331383" lon="2.804275006055832">
        <ele>249.59999999999999</ele>
        <time>2025-05-15T11:44:23Z</time>
      </trkpt>
      <trkpt lat="42.373402984812856" lon="2.804469969123602">
        <ele>250.56</ele>
        <time>2025-05-15T11:44:24Z</time>
      </trkpt>
      <trkpt lat="42.37332402728498" lon="2.804668033495545">
        <ele>251.03999999999999</ele>
        <time>2025-05-15T11:44:25Z</time>
      </trkpt>
      <trkpt lat="42.373245991766453" lon="2.804861990734935">
        <ele>252</ele>
        <time>2025-05-15T11:44:26Z</time>
      </trkpt>
      <trkpt lat="42.373188994824886" lon="2.805059971287847">
        <ele>252.47999999999999</ele>
        <time>2025-05-15T11:44:27Z</time>
      </trkpt>
      <trkpt lat="42.373183965682983" lon="2.805287959054112">
        <ele>253.44</ele>
        <time>2025-05-15T11:44:28Z</time>
      </trkpt>
      <trkpt lat="42.373221013695002" lon="2.805522987619042">
        <ele>253.93000000000001</ele>
        <time>2025-05-15T11:44:29Z</time>
      </trkpt>
      <trkpt lat="42.373259989544749" lon="2.805762039497495">
        <ele>254.88999999999999</ele>
        <time>2025-05-15T11:44:30Z</time>
      </trkpt>
      <trkpt lat="42.373259989544749" lon="2.806024979799986">
        <ele>255.84999999999999</ele>
        <time>2025-05-15T11:44:31Z</time>
      </trkpt>
      <trkpt lat="42.373210033401847" lon="2.806273000314832">
        <ele>256.81</ele>
        <time>2025-05-15T11:44:32Z</time>
      </trkpt>
      <trkpt lat="42.37311297096312" lon="2.806501993909478">
        <ele>257.76999999999998</ele>
        <time>2025-05-15T11:44:33Z</time>
      </trkpt>
      <trkpt lat="42.373006017878652" lon="2.806740961968899">
        <ele>258.73000000000002</ele>
        <time>2025-05-15T11:44:34Z</time>
      </trkpt>
      <trkpt lat="42.372193979099393" lon="2.808535024523735">
        <ele>263.54000000000002</ele>
        <time>2025-05-15T11:44:41Z</time>
      </trkpt>
      <trkpt lat="42.371652005240321" lon="2.809867998585105">
        <ele>262.57999999999998</ele>
        <time>2025-05-15T11:44:46Z</time>
      </trkpt>
      <trkpt lat="42.371495012193918" lon="2.810430005192757">
        <ele>261.62</ele>
        <time>2025-05-15T11:44:48Z</time>
      </trkpt>
      <trkpt lat="42.371388981118798" lon="2.810639971867204">
        <ele>260.64999999999998</ele>
        <time>2025-05-15T11:44:49Z</time>
      </trkpt>
      <trkpt lat="42.371295019984245" lon="2.810850022360683">
        <ele>260.17000000000002</ele>
        <time>2025-05-15T11:44:50Z</time>
      </trkpt>
      <trkpt lat="42.371099973097444" lon="2.811615038663149">
        <ele>258.25</ele>
        <time>2025-05-15T11:44:53Z</time>
      </trkpt>
      <trkpt lat="42.371066026389599" lon="2.811888959258795">
        <ele>257.76999999999998</ele>
        <time>2025-05-15T11:44:54Z</time>
      </trkpt>
      <trkpt lat="42.370999976992607" lon="2.814172022044659">
        <ele>249.59999999999999</ele>
        <time>2025-05-15T11:45:01Z</time>
      </trkpt>
      <trkpt lat="42.370954966172576" lon="2.81484198756516">
        <ele>246.22999999999999</ele>
        <time>2025-05-15T11:45:03Z</time>
      </trkpt>
      <trkpt lat="42.37089897505939" lon="2.815167037770152">
        <ele>244.31</ele>
        <time>2025-05-15T11:45:04Z</time>
      </trkpt>
      <trkpt lat="42.370743993669748" lon="2.816074965521693">
        <ele>239.50999999999999</ele>
        <time>2025-05-15T11:45:07Z</time>
      </trkpt>
      <trkpt lat="42.370750028640032" lon="2.816349975764751">
        <ele>238.06</ele>
        <time>2025-05-15T11:45:08Z</time>
      </trkpt>
      <trkpt lat="42.370781963691115" lon="2.816604031249881">
        <ele>236.62</ele>
        <time>2025-05-15T11:45:09Z</time>
      </trkpt>
      <trkpt lat="42.370859999209642" lon="2.816821038722992">
        <ele>235.18000000000001</ele>
        <time>2025-05-15T11:45:10Z</time>
      </trkpt>
      <trkpt lat="42.37096200697124" lon="2.817023964598775">
        <ele>234.22</ele>
        <time>2025-05-15T11:45:11Z</time>
      </trkpt>
      <trkpt lat="42.371074995025992" lon="2.817233009263873">
        <ele>233.25999999999999</ele>
        <time>2025-05-15T11:45:12Z</time>
      </trkpt>
      <trkpt lat="42.37119703553617" lon="2.817433001473546">
        <ele>231.81</ele>
        <time>2025-05-15T11:45:13Z</time>
      </trkpt>
      <trkpt lat="42.371422005817294" lon="2.817799039185047">
        <ele>230.37</ele>
        <time>2025-05-15T11:45:15Z</time>
      </trkpt>
      <trkpt lat="42.371479002758861" lon="2.817997019737959">
        <ele>229.88999999999999</ele>
        <time>2025-05-15T11:45:16Z</time>
      </trkpt>
      <trkpt lat="42.371481014415622" lon="2.818145966157317">
        <ele>229.41</ele>
        <time>2025-05-15T11:45:17Z</time>
      </trkpt>
      <trkpt lat="42.371456958353519" lon="2.818229030817747">
        <ele>228.93000000000001</ele>
        <time>2025-05-15T11:45:18Z</time>
      </trkpt>
      <trkpt lat="42.371413037180901" lon="2.818289967253804">
        <ele>228.44999999999999</ele>
        <time>2025-05-15T11:45:19Z</time>
      </trkpt>
      <trkpt lat="42.371366014704108" lon="2.818354004994035">
        <ele>227.97</ele>
        <time>2025-05-15T11:45:20Z</time>
      </trkpt>
      <trkpt lat="42.371312035247684" lon="2.81842801719904">
        <ele>227.49000000000001</ele>
        <time>2025-05-15T11:45:21Z</time>
      </trkpt>
      <trkpt lat="42.371250009164214" lon="2.818513009697199">
        <ele>227.49000000000001</ele>
        <time>2025-05-15T11:45:22Z</time>
      </trkpt>
      <trkpt lat="42.371183959767222" lon="2.818603031337261">
        <ele>227.00999999999999</ele>
        <time>2025-05-15T11:45:23Z</time>
      </trkpt>
      <trkpt lat="42.371111959218979" lon="2.818702021613717">
        <ele>226.53</ele>
        <time>2025-05-15T11:45:24Z</time>
      </trkpt>
      <trkpt lat="42.371033001691103" lon="2.818825989961624">
        <ele>225.56999999999999</ele>
        <time>2025-05-15T11:45:25Z</time>
      </trkpt>
      <trkpt lat="42.370966030284762" lon="2.818978959694505">
        <ele>225.09</ele>
        <time>2025-05-15T11:45:26Z</time>
      </trkpt>
      <trkpt lat="42.370894029736519" lon="2.819145005196333">
        <ele>224.61000000000001</ele>
        <time>2025-05-15T11:45:27Z</time>
      </trkpt>
      <trkpt lat="42.370823035016656" lon="2.819309961050749">
        <ele>224.12</ele>
        <time>2025-05-15T11:45:28Z</time>
      </trkpt>
      <trkpt lat="42.370738964527845" lon="2.819462008774281">
        <ele>223.63999999999999</ele>
        <time>2025-05-15T11:45:29Z</time>
      </trkpt>
      <trkpt lat="42.370606027543545" lon="2.819525040686131">
        <ele>223.16</ele>
        <time>2025-05-15T11:45:30Z</time>
      </trkpt>
      <trkpt lat="42.370464038103819" lon="2.819568961858749">
        <ele>222.68000000000001</ele>
        <time>2025-05-15T11:45:31Z</time>
      </trkpt>
      <trkpt lat="42.370307967066765" lon="2.819615984335542">
        <ele>222.19999999999999</ele>
        <time>2025-05-15T11:45:32Z</time>
      </trkpt>
      <trkpt lat="42.370148040354252" lon="2.819664012640715">
        <ele>221.72</ele>
        <time>2025-05-15T11:45:33Z</time>
      </trkpt>
      <trkpt lat="42.36999599263072" lon="2.819712040945888">
        <ele>221.24000000000001</ele>
        <time>2025-05-15T11:45:34Z</time>
      </trkpt>
      <trkpt lat="42.369894990697503" lon="2.819860987365246">
        <ele>221.24000000000001</ele>
        <time>2025-05-15T11:45:35Z</time>
      </trkpt>
      <trkpt lat="42.369791977107525" lon="2.820012029260397">
        <ele>220.75999999999999</ele>
        <time>2025-05-15T11:45:36Z</time>
      </trkpt>
      <trkpt lat="42.369682006537914" lon="2.820172961801291">
        <ele>220.28</ele>
        <time>2025-05-15T11:45:37Z</time>
      </trkpt>
      <trkpt lat="42.369548985734582" lon="2.820292990654707">
        <ele>219.80000000000001</ele>
        <time>2025-05-15T11:45:38Z</time>
      </trkpt>
      <trkpt lat="42.36941303126514" lon="2.820412013679743">
        <ele>218.84</ele>
        <time>2025-05-15T11:45:39Z</time>
      </trkpt>
      <trkpt lat="42.369279004633427" lon="2.820572024211288">
        <ele>217.88</ele>
        <time>2025-05-15T11:45:40Z</time>
      </trkpt>
      <trkpt lat="42.369171967729926" lon="2.820768998935819">
        <ele>217.40000000000001</ele>
        <time>2025-05-15T11:45:41Z</time>
      </trkpt>
      <trkpt lat="42.368810037150979" lon="2.821583971381187">
        <ele>214.99000000000001</ele>
        <time>2025-05-15T11:45:45Z</time>
      </trkpt>
      <trkpt lat="42.368775000795722" lon="2.821774994954467">
        <ele>214.03</ele>
        <time>2025-05-15T11:45:46Z</time>
      </trkpt>
      <trkpt lat="42.368788998574018" lon="2.821964006870985">
        <ele>212.59</ele>
        <time>2025-05-15T11:45:47Z</time>
      </trkpt>
      <trkpt lat="42.368831997737288" lon="2.822157964110375">
        <ele>211.63</ele>
        <time>2025-05-15T11:45:48Z</time>
      </trkpt>
      <trkpt lat="42.368874996900558" lon="2.822357034310699">
        <ele>210.66999999999999</ele>
        <time>2025-05-15T11:45:49Z</time>
      </trkpt>
      <trkpt lat="42.368915984407067" lon="2.822544034570456">
        <ele>209.69999999999999</ele>
        <time>2025-05-15T11:45:50Z</time>
      </trkpt>
      <trkpt lat="42.368911961093545" lon="2.822728017345071">
        <ele>208.74000000000001</ele>
        <time>2025-05-15T11:45:51Z</time>
      </trkpt>
      <trkpt lat="42.368866028264165" lon="2.822912000119686">
        <ele>207.78</ele>
        <time>2025-05-15T11:45:52Z</time>
      </trkpt>
      <trkpt lat="42.368793021887541" lon="2.823082990944386">
        <ele>206.81999999999999</ele>
        <time>2025-05-15T11:45:53Z</time>
      </trkpt>
      <trkpt lat="42.368699982762337" lon="2.823191033676267">
        <ele>205.38</ele>
        <time>2025-05-15T11:45:54Z</time>
      </trkpt>
      <trkpt lat="42.368590012192726" lon="2.823244007304311">
        <ele>204.90000000000001</ele>
        <time>2025-05-15T11:45:55Z</time>
      </trkpt>
      <trkpt lat="42.368474006652832" lon="2.823267979547381">
        <ele>204.41999999999999</ele>
        <time>2025-05-15T11:45:56Z</time>
      </trkpt>
      <trkpt lat="42.368346014991403" lon="2.823293041437864">
        <ele>204.41999999999999</ele>
        <time>2025-05-15T11:45:57Z</time>
      </trkpt>
      <trkpt lat="42.368225986137986" lon="2.823377028107643">
        <ele>203.94</ele>
        <time>2025-05-15T11:45:58Z</time>
      </trkpt>
      <trkpt lat="42.36810302361846" lon="2.823512982577086">
        <ele>204.41999999999999</ele>
        <time>2025-05-15T11:45:59Z</time>
      </trkpt>
      <trkpt lat="42.368028005585074" lon="2.823701994493604">
        <ele>204.41999999999999</ele>
        <time>2025-05-15T11:46:00Z</time>
      </trkpt>
      <trkpt lat="42.367978971451521" lon="2.823920007795095">
        <ele>203.94</ele>
        <time>2025-05-15T11:46:01Z</time>
      </trkpt>
      <trkpt lat="42.367944018915296" lon="2.824142966419458">
        <ele>203.94</ele>
        <time>2025-05-15T11:46:02Z</time>
      </trkpt>
      <trkpt lat="42.367907976731658" lon="2.824376989156008">
        <ele>203.46000000000001</ele>
        <time>2025-05-15T11:46:03Z</time>
      </trkpt>
      <trkpt lat="42.367804041132331" lon="2.824865989387035">
        <ele>202.00999999999999</ele>
        <time>2025-05-15T11:46:05Z</time>
      </trkpt>
      <trkpt lat="42.36771896481514" lon="2.825095988810062">
        <ele>201.53</ele>
        <time>2025-05-15T11:46:06Z</time>
      </trkpt>
      <trkpt lat="42.367604970932007" lon="2.825300004333258">
        <ele>201.05000000000001</ele>
        <time>2025-05-15T11:46:07Z</time>
      </trkpt>
      <trkpt lat="42.367469016462564" lon="2.825475018471479">
        <ele>200.09</ele>
        <time>2025-05-15T11:46:08Z</time>
      </trkpt>
      <trkpt lat="42.367308000102639" lon="2.825626982375979">
        <ele>199.61000000000001</ele>
        <time>2025-05-15T11:46:09Z</time>
      </trkpt>
      <trkpt lat="42.367142038419843" lon="2.825785987079144">
        <ele>199.13</ele>
        <time>2025-05-15T11:46:10Z</time>
      </trkpt>
      <trkpt lat="42.366964006796479" lon="2.825926970690489">
        <ele>199.13</ele>
        <time>2025-05-15T11:46:11Z</time>
      </trkpt>
      <trkpt lat="42.366614984348416" lon="2.826198963448405">
        <ele>198.65000000000001</ele>
        <time>2025-05-15T11:46:13Z</time>
      </trkpt>
      <trkpt lat="42.366464026272297" lon="2.826369032263756">
        <ele>198.16999999999999</ele>
        <time>2025-05-15T11:46:14Z</time>
      </trkpt>
      <trkpt lat="42.366334022954106" lon="2.826557960361242">
        <ele>198.16999999999999</ele>
        <time>2025-05-15T11:46:15Z</time>
      </trkpt>
      <trkpt lat="42.365991035476327" lon="2.827123990282416">
        <ele>197.21000000000001</ele>
        <time>2025-05-15T11:46:18Z</time>
      </trkpt>
      <trkpt lat="42.365917023271322" lon="2.827333034947515">
        <ele>197.21000000000001</ele>
        <time>2025-05-15T11:46:19Z</time>
      </trkpt>
      <trkpt lat="42.36587000079453" lon="2.827545013278723">
        <ele>196.72999999999999</ele>
        <time>2025-05-15T11:46:20Z</time>
      </trkpt>
      <trkpt lat="42.365872012451291" lon="2.82775497995317">
        <ele>196.72999999999999</ele>
        <time>2025-05-15T11:46:21Z</time>
      </trkpt>
      <trkpt lat="42.365894978865981" lon="2.827966958284378">
        <ele>196.25</ele>
        <time>2025-05-15T11:46:22Z</time>
      </trkpt>
      <trkpt lat="42.365969996899366" lon="2.828164016827941">
        <ele>195.77000000000001</ele>
        <time>2025-05-15T11:46:23Z</time>
      </trkpt>
      <trkpt lat="42.366059012711048" lon="2.828352022916079">
        <ele>195.77000000000001</ele>
        <time>2025-05-15T11:46:24Z</time>
      </trkpt>
      <trkpt lat="42.3661720007658" lon="2.828503986820579">
        <ele>194.80000000000001</ele>
        <time>2025-05-15T11:46:25Z</time>
      </trkpt>
      <trkpt lat="42.366291023790836" lon="2.828651005402207">
        <ele>194.31999999999999</ele>
        <time>2025-05-15T11:46:26Z</time>
      </trkpt>
      <trkpt lat="42.366399988532066" lon="2.82878503203392">
        <ele>194.31999999999999</ele>
        <time>2025-05-15T11:46:27Z</time>
      </trkpt>
      <trkpt lat="42.366446005180478" lon="2.828959040343761">
        <ele>194.31999999999999</ele>
        <time>2025-05-15T11:46:28Z</time>
      </trkpt>
      <trkpt lat="42.366456985473633" lon="2.829109998419881">
        <ele>194.80000000000001</ele>
        <time>2025-05-15T11:46:29Z</time>
      </trkpt>
      <trkpt lat="42.36640996299684" lon="2.829230027273297">
        <ele>194.80000000000001</ele>
        <time>2025-05-15T11:46:30Z</time>
      </trkpt>
      <trkpt lat="42.366354977712035" lon="2.829368999227881">
        <ele>194.80000000000001</ele>
        <time>2025-05-15T11:46:31Z</time>
      </trkpt>
      <trkpt lat="42.366179041564465" lon="2.829815000295639">
        <ele>194.80000000000001</ele>
        <time>2025-05-15T11:46:34Z</time>
      </trkpt>
      <trkpt lat="42.366154985502362" lon="2.829980039969087">
        <ele>194.80000000000001</ele>
        <time>2025-05-15T11:46:35Z</time>
      </trkpt>
      <trkpt lat="42.366139981895685" lon="2.830148013308644">
        <ele>194.80000000000001</ele>
        <time>2025-05-15T11:46:36Z</time>
      </trkpt>
      <trkpt lat="42.366164037957788" lon="2.830319004133344">
        <ele>194.80000000000001</ele>
        <time>2025-05-15T11:46:37Z</time>
      </trkpt>
      <trkpt lat="42.366189016029239" lon="2.830491000786424">
        <ele>194.80000000000001</ele>
        <time>2025-05-15T11:46:38Z</time>
      </trkpt>
      <trkpt lat="42.366365035995841" lon="2.831703023985028">
        <ele>193.84</ele>
        <time>2025-05-15T11:46:45Z</time>
      </trkpt>
      <trkpt lat="42.366355983540416" lon="2.831874014809728">
        <ele>193.84</ele>
        <time>2025-05-15T11:46:46Z</time>
      </trkpt>
      <trkpt lat="42.366336034610868" lon="2.832036036998034">
        <ele>193.84</ele>
        <time>2025-05-15T11:46:47Z</time>
      </trkpt>
      <trkpt lat="42.366074016317725" lon="2.833425002172589">
        <ele>192.88</ele>
        <time>2025-05-15T11:46:56Z</time>
      </trkpt>
      <trkpt lat="42.366052977740765" lon="2.833553999662399">
        <ele>192.88</ele>
        <time>2025-05-15T11:46:57Z</time>
      </trkpt>
      <trkpt lat="42.3660200368613" lon="2.833750974386931">
        <ele>192.88</ele>
        <time>2025-05-15T11:46:59Z</time>
      </trkpt>
      <trkpt lat="42.366007966920733" lon="2.833824986591935">
        <ele>192.88</ele>
        <time>2025-05-15T11:47:00Z</time>
      </trkpt>
      <trkpt lat="42.365995980799198" lon="2.833892041817308">
        <ele>192.40000000000001</ele>
        <time>2025-05-15T11:47:01Z</time>
      </trkpt>
      <trkpt lat="42.365966979414225" lon="2.834111982956529">
        <ele>190.47999999999999</ele>
        <time>2025-05-15T11:47:10Z</time>
      </trkpt>
      <trkpt lat="42.365985000506043" lon="2.834236035123467">
        <ele>189.52000000000001</ele>
        <time>2025-05-15T11:47:12Z</time>
      </trkpt>
      <trkpt lat="42.366053983569145" lon="2.834738027304411">
        <ele>187.11000000000001</ele>
        <time>2025-05-15T11:47:17Z</time>
      </trkpt>
      <trkpt lat="42.366073010489345" lon="2.834860989823937">
        <ele>187.11000000000001</ele>
        <time>2025-05-15T11:47:18Z</time>
      </trkpt>
      <trkpt lat="42.366092037409544" lon="2.834983030334115">
        <ele>186.63</ele>
        <time>2025-05-15T11:47:19Z</time>
      </trkpt>
      <trkpt lat="42.366212988272309" lon="2.835758021101356">
        <ele>185.19</ele>
        <time>2025-05-15T11:47:25Z</time>
      </trkpt>
      <trkpt lat="42.366223968565464" lon="2.836015010252595">
        <ele>185.19</ele>
        <time>2025-05-15T11:47:27Z</time>
      </trkpt>
      <trkpt lat="42.366190021857619" lon="2.836129004135728">
        <ele>185.19</ele>
        <time>2025-05-15T11:47:28Z</time>
      </trkpt>
      <trkpt lat="42.366113997995853" lon="2.836381969973445">
        <ele>184.71000000000001</ele>
        <time>2025-05-15T11:47:30Z</time>
      </trkpt>
      <trkpt lat="42.365494994446635" lon="2.837926000356674">
        <ele>180.38</ele>
        <time>2025-05-15T11:47:40Z</time>
      </trkpt>
      <trkpt lat="42.36509601585567" lon="2.838887991383672">
        <ele>176.53999999999999</ele>
        <time>2025-05-15T11:47:46Z</time>
      </trkpt>
      <trkpt lat="42.365067014470696" lon="2.839051019400358">
        <ele>176.06</ele>
        <time>2025-05-15T11:47:47Z</time>
      </trkpt>
      <trkpt lat="42.365046981722116" lon="2.839212035760284">
        <ele>175.58000000000001</ele>
        <time>2025-05-15T11:47:48Z</time>
      </trkpt>
      <trkpt lat="42.365041030570865" lon="2.839366011321545">
        <ele>175.09999999999999</ele>
        <time>2025-05-15T11:47:49Z</time>
      </trkpt>
      <trkpt lat="42.365041030570865" lon="2.839515963569284">
        <ele>174.13999999999999</ele>
        <time>2025-05-15T11:47:50Z</time>
      </trkpt>
      <trkpt lat="42.365023009479046" lon="2.839753003790975">
        <ele>172.69</ele>
        <time>2025-05-15T11:47:52Z</time>
      </trkpt>
      <trkpt lat="42.364985961467028" lon="2.839845037087798">
        <ele>171.72999999999999</ele>
        <time>2025-05-15T11:47:53Z</time>
      </trkpt>
      <trkpt lat="42.364948997274041" lon="2.839932963252068">
        <ele>171.25</ele>
        <time>2025-05-15T11:47:54Z</time>
      </trkpt>
      <trkpt lat="42.364915972575545" lon="2.840014016255736">
        <ele>170.77000000000001</ele>
        <time>2025-05-15T11:47:55Z</time>
      </trkpt>
      <trkpt lat="42.364883031696081" lon="2.840094985440373">
        <ele>170.77000000000001</ele>
        <time>2025-05-15T11:47:56Z</time>
      </trkpt>
      <trkpt lat="42.364849001169205" lon="2.840178972110152">
        <ele>170.28999999999999</ele>
        <time>2025-05-15T11:47:57Z</time>
      </trkpt>
      <trkpt lat="42.364852018654346" lon="2.840274022892118">
        <ele>170.28999999999999</ele>
        <time>2025-05-15T11:47:58Z</time>
      </trkpt>
      <trkpt lat="42.364856963977218" lon="2.840384999290109">
        <ele>169.81</ele>
        <time>2025-05-15T11:47:59Z</time>
      </trkpt>
      <trkpt lat="42.364862998947501" lon="2.840502010658383">
        <ele>169.33000000000001</ele>
        <time>2025-05-15T11:48:00Z</time>
      </trkpt>
      <trkpt lat="42.364868028089404" lon="2.840619022026658">
        <ele>168.84999999999999</ele>
        <time>2025-05-15T11:48:01Z</time>
      </trkpt>
      <trkpt lat="42.364839026704431" lon="2.840738967061043">
        <ele>168.37</ele>
        <time>2025-05-15T11:48:02Z</time>
      </trkpt>
      <trkpt lat="42.364802984520793" lon="2.84083804115653">
        <ele>167.88999999999999</ele>
        <time>2025-05-15T11:48:03Z</time>
      </trkpt>
      <trkpt lat="42.364769037812948" lon="2.840935019776225">
        <ele>167.41</ele>
        <time>2025-05-15T11:48:04Z</time>
      </trkpt>
      <trkpt lat="42.364697959274054" lon="2.840993022546172">
        <ele>166.93000000000001</ele>
        <time>2025-05-15T11:48:05Z</time>
      </trkpt>
      <trkpt lat="42.364627970382571" lon="2.841037027537823">
        <ele>166.44999999999999</ele>
        <time>2025-05-15T11:48:06Z</time>
      </trkpt>
      <trkpt lat="42.364525040611625" lon="2.841063011437655">
        <ele>165.47999999999999</ele>
        <time>2025-05-15T11:48:07Z</time>
      </trkpt>
      <trkpt lat="42.36438799649477" lon="2.841068962588906">
        <ele>165</ele>
        <time>2025-05-15T11:48:08Z</time>
      </trkpt>
      <trkpt lat="42.364222034811974" lon="2.84107499755919">
        <ele>164.52000000000001</ele>
        <time>2025-05-15T11:48:09Z</time>
      </trkpt>
      <trkpt lat="42.363454001024365" lon="2.841129982843995">
        <ele>161.63999999999999</ele>
        <time>2025-05-15T11:48:13Z</time>
      </trkpt>
      <trkpt lat="42.363302959129214" lon="2.841167030856013">
        <ele>160.68000000000001</ele>
        <time>2025-05-15T11:48:14Z</time>
      </trkpt>
      <trkpt lat="42.363211009651423" lon="2.841258980333805">
        <ele>159.24000000000001</ele>
        <time>2025-05-15T11:48:15Z</time>
      </trkpt>
      <trkpt lat="42.363134985789657" lon="2.841373980045319">
        <ele>158.27000000000001</ele>
        <time>2025-05-15T11:48:16Z</time>
      </trkpt>
      <trkpt lat="42.363059967756271" lon="2.841495014727116">
        <ele>157.78999999999999</ele>
        <time>2025-05-15T11:48:17Z</time>
      </trkpt>
      <trkpt lat="42.363005988299847" lon="2.841639015823603">
        <ele>156.83000000000001</ele>
        <time>2025-05-15T11:48:18Z</time>
      </trkpt>
      <trkpt lat="42.362972963601351" lon="2.841792991384864">
        <ele>155.87</ele>
        <time>2025-05-15T11:48:19Z</time>
      </trkpt>
      <trkpt lat="42.362977992743254" lon="2.841961970552802">
        <ele>155.38999999999999</ele>
        <time>2025-05-15T11:48:20Z</time>
      </trkpt>
      <trkpt lat="42.36301101744175" lon="2.84212801605463">
        <ele>154.43000000000001</ele>
        <time>2025-05-15T11:48:21Z</time>
      </trkpt>
      <trkpt lat="42.363083017989993" lon="2.842264976352453">
        <ele>153.94999999999999</ele>
        <time>2025-05-15T11:48:22Z</time>
      </trkpt>
      <trkpt lat="42.363156024366617" lon="2.842406965792179">
        <ele>153.47</ele>
        <time>2025-05-15T11:48:23Z</time>
      </trkpt>
      <trkpt lat="42.363230036571622" lon="2.842548033222556">
        <ele>152.50999999999999</ele>
        <time>2025-05-15T11:48:24Z</time>
      </trkpt>
      <trkpt lat="42.363282004371285" lon="2.842703014612198">
        <ele>151.53999999999999</ele>
        <time>2025-05-15T11:48:25Z</time>
      </trkpt>
      <trkpt lat="42.363282004371285" lon="2.842883979901671">
        <ele>151.06</ele>
        <time>2025-05-15T11:48:26Z</time>
      </trkpt>
      <trkpt lat="42.363282004371285" lon="2.843071985989809">
        <ele>150.58000000000001</ele>
        <time>2025-05-15T11:48:27Z</time>
      </trkpt>
      <trkpt lat="42.363282004371285" lon="2.843262003734708">
        <ele>149.62</ele>
        <time>2025-05-15T11:48:28Z</time>
      </trkpt>
      <trkpt lat="42.363282004371285" lon="2.843816969543695">
        <ele>147.22</ele>
        <time>2025-05-15T11:48:31Z</time>
      </trkpt>
      <trkpt lat="42.36326901242137" lon="2.843993995338678">
        <ele>146.25999999999999</ele>
        <time>2025-05-15T11:48:32Z</time>
      </trkpt>
      <trkpt lat="42.363230036571622" lon="2.84416800364852">
        <ele>145.78</ele>
        <time>2025-05-15T11:48:33Z</time>
      </trkpt>
      <trkpt lat="42.363196006044745" lon="2.844321979209781">
        <ele>145.30000000000001</ele>
        <time>2025-05-15T11:48:34Z</time>
      </trkpt>
      <trkpt lat="42.363116964697838" lon="2.844478972256184">
        <ele>144.34</ele>
        <time>2025-05-15T11:48:35Z</time>
      </trkpt>
      <trkpt lat="42.363042030483484" lon="2.844629008322954">
        <ele>143.84999999999999</ele>
        <time>2025-05-15T11:48:36Z</time>
      </trkpt>
      <trkpt lat="42.36296801827848" lon="2.844778038561344">
        <ele>143.37</ele>
        <time>2025-05-15T11:48:37Z</time>
      </trkpt>
      <trkpt lat="42.362270979210734" lon="2.846171027049422">
        <ele>136.16</ele>
        <time>2025-05-15T11:48:47Z</time>
      </trkpt>
      <trkpt lat="42.362226974219084" lon="2.846309999004006">
        <ele>135.68000000000001</ele>
        <time>2025-05-15T11:48:48Z</time>
      </trkpt>
      <trkpt lat="42.362189004197717" lon="2.846462968736887">
        <ele>135.19999999999999</ele>
        <time>2025-05-15T11:48:49Z</time>
      </trkpt>
      <trkpt lat="42.362186992540956" lon="2.846638988703489">
        <ele>135.19999999999999</ele>
        <time>2025-05-15T11:48:50Z</time>
      </trkpt>
      <trkpt lat="42.36219696700573" lon="2.84683302976191">
        <ele>134.72</ele>
        <time>2025-05-15T11:48:51Z</time>
      </trkpt>
      <trkpt lat="42.362228985875845" lon="2.847039978951216">
        <ele>134.72</ele>
        <time>2025-05-15T11:48:52Z</time>
      </trkpt>
      <trkpt lat="42.362501984462142" lon="2.848820965737104">
        <ele>128.94999999999999</ele>
        <time>2025-05-15T11:48:59Z</time>
      </trkpt>
      <trkpt lat="42.3626250308007" lon="2.849851017817855">
        <ele>125.11</ele>
        <time>2025-05-15T11:49:03Z</time>
      </trkpt>
      <trkpt lat="42.362602986395359" lon="2.850102977827191">
        <ele>124.15000000000001</ele>
        <time>2025-05-15T11:49:04Z</time>
      </trkpt>
      <trkpt lat="42.362557975575328" lon="2.850612010806799">
        <ele>122.22</ele>
        <time>2025-05-15T11:49:06Z</time>
      </trkpt>
      <trkpt lat="42.362585971131921" lon="2.850870005786419">
        <ele>121.26000000000001</ele>
        <time>2025-05-15T11:49:07Z</time>
      </trkpt>
      <trkpt lat="42.36288201995194" lon="2.852951986715198">
        <ele>115.5</ele>
        <time>2025-05-15T11:49:15Z</time>
      </trkpt>
      <trkpt lat="42.362941028550267" lon="2.853172011673451">
        <ele>115.01000000000001</ele>
        <time>2025-05-15T11:49:16Z</time>
      </trkpt>
      <trkpt lat="42.363015040755272" lon="2.853361023589969">
        <ele>115.01000000000001</ele>
        <time>2025-05-15T11:49:17Z</time>
      </trkpt>
      <trkpt lat="42.363088969141245" lon="2.853549029678106">
        <ele>114.53</ele>
        <time>2025-05-15T11:49:18Z</time>
      </trkpt>
      <trkpt lat="42.363225007429719" lon="2.853684984147549">
        <ele>113.56999999999999</ele>
        <time>2025-05-15T11:49:19Z</time>
      </trkpt>
      <trkpt lat="42.363366996869445" lon="2.853826973587275">
        <ele>113.09</ele>
        <time>2025-05-15T11:49:20Z</time>
      </trkpt>
      <trkpt lat="42.363516027107835" lon="2.853974997997284">
        <ele>112.13</ele>
        <time>2025-05-15T11:49:21Z</time>
      </trkpt>
      <trkpt lat="42.363922968506813" lon="2.854382023215294">
        <ele>110.69</ele>
        <time>2025-05-15T11:49:24Z</time>
      </trkpt>
      <trkpt lat="42.364025982096791" lon="2.854526024311781">
        <ele>110.20999999999999</ele>
        <time>2025-05-15T11:49:25Z</time>
      </trkpt>
      <trkpt lat="42.364074010401964" lon="2.854704977944493">
        <ele>110.20999999999999</ele>
        <time>2025-05-15T11:49:26Z</time>
      </trkpt>
      <trkpt lat="42.364125978201628" lon="2.854898013174534">
        <ele>110.20999999999999</ele>
        <time>2025-05-15T11:49:27Z</time>
      </trkpt>
      <trkpt lat="42.364167971536517" lon="2.855104962363839">
        <ele>110.20999999999999</ele>
        <time>2025-05-15T11:49:28Z</time>
      </trkpt>
      <trkpt lat="42.364188004285097" lon="2.85531903617084">
        <ele>109.73</ele>
        <time>2025-05-15T11:49:29Z</time>
      </trkpt>
      <trkpt lat="42.364189010113478" lon="2.855558004230261">
        <ele>109.25</ele>
        <time>2025-05-15T11:49:30Z</time>
      </trkpt>
      <trkpt lat="42.364135030657053" lon="2.855760008096695">
        <ele>108.77</ele>
        <time>2025-05-15T11:49:31Z</time>
      </trkpt>
      <trkpt lat="42.364051965996623" lon="2.855950025841594">
        <ele>108.29000000000001</ele>
        <time>2025-05-15T11:49:32Z</time>
      </trkpt>
      <trkpt lat="42.363963034003973" lon="2.856120010837913">
        <ele>107.81</ele>
        <time>2025-05-15T11:49:33Z</time>
      </trkpt>
      <trkpt lat="42.363877035677433" lon="2.856282033026218">
        <ele>107.31999999999999</ele>
        <time>2025-05-15T11:49:34Z</time>
      </trkpt>
      <trkpt lat="42.363643012940884" lon="2.856688974425197">
        <ele>106.84</ele>
        <time>2025-05-15T11:49:37Z</time>
      </trkpt>
      <trkpt lat="42.363580986857414" lon="2.856813026592135">
        <ele>107.31999999999999</ele>
        <time>2025-05-15T11:49:38Z</time>
      </trkpt>
      <trkpt lat="42.363532036542892" lon="2.857046965509653">
        <ele>107.31999999999999</ele>
        <time>2025-05-15T11:49:39Z</time>
      </trkpt>
      <trkpt lat="42.363552991300821" lon="2.857205970212817">
        <ele>108.29000000000001</ele>
        <time>2025-05-15T11:49:40Z</time>
      </trkpt>
      <trkpt lat="42.363574029877782" lon="2.857373021543026">
        <ele>108.29000000000001</ele>
        <time>2025-05-15T11:49:41Z</time>
      </trkpt>
      <trkpt lat="42.363599007949233" lon="2.857550969347358">
        <ele>108.77</ele>
        <time>2025-05-15T11:49:42Z</time>
      </trkpt>
      <trkpt lat="42.363623986020684" lon="2.857732018455863">
        <ele>108.77</ele>
        <time>2025-05-15T11:49:43Z</time>
      </trkpt>
      <trkpt lat="42.363736974075437" lon="2.859516022726893">
        <ele>112.13</ele>
        <time>2025-05-15T11:49:52Z</time>
      </trkpt>
      <trkpt lat="42.363582998514175" lon="2.860981011763215">
        <ele>118.38</ele>
        <time>2025-05-15T11:49:59Z</time>
      </trkpt>
      <trkpt lat="42.363581992685795" lon="2.861216962337494">
        <ele>119.34</ele>
        <time>2025-05-15T11:50:00Z</time>
      </trkpt>
      <trkpt lat="42.36359003931284" lon="2.861451990902424">
        <ele>120.78</ele>
        <time>2025-05-15T11:50:01Z</time>
      </trkpt>
      <trkpt lat="42.363587021827698" lon="2.862155986949801">
        <ele>124.63</ele>
        <time>2025-05-15T11:50:04Z</time>
      </trkpt>
      <trkpt lat="42.363557014614344" lon="2.862396966665983">
        <ele>126.06999999999999</ele>
        <time>2025-05-15T11:50:05Z</time>
      </trkpt>
      <trkpt lat="42.363512003794312" lon="2.86262696608901">
        <ele>127.03</ele>
        <time>2025-05-15T11:50:06Z</time>
      </trkpt>
      <trkpt lat="42.363244034349918" lon="2.863583005964756">
        <ele>132.31999999999999</ele>
        <time>2025-05-15T11:50:10Z</time>
      </trkpt>
      <trkpt lat="42.363201035186648" lon="2.863836977630854">
        <ele>133.75999999999999</ele>
        <time>2025-05-15T11:50:11Z</time>
      </trkpt>
      <trkpt lat="42.362915966659784" lon="2.86597503349185">
        <ele>140.00999999999999</ele>
        <time>2025-05-15T11:50:19Z</time>
      </trkpt>
      <trkpt lat="42.36281999386847" lon="2.866178965196014">
        <ele>140.00999999999999</ele>
        <time>2025-05-15T11:50:20Z</time>
      </trkpt>
      <trkpt lat="42.362715974450111" lon="2.866376023739576">
        <ele>140.49000000000001</ele>
        <time>2025-05-15T11:50:21Z</time>
      </trkpt>
      <trkpt lat="42.362573985010386" lon="2.866542991250753">
        <ele>140.49000000000001</ele>
        <time>2025-05-15T11:50:22Z</time>
      </trkpt>
      <trkpt lat="42.362425038591027" lon="2.86670601926744">
        <ele>140.49000000000001</ele>
        <time>2025-05-15T11:50:23Z</time>
      </trkpt>
      <trkpt lat="42.362277014181018" lon="2.866868041455746">
        <ele>140.49000000000001</ele>
        <time>2025-05-15T11:50:24Z</time>
      </trkpt>
      <trkpt lat="42.361983982846141" lon="2.867204993963242">
        <ele>140.00999999999999</ele>
        <time>2025-05-15T11:50:26Z</time>
      </trkpt>
      <trkpt lat="42.361838975921273" lon="2.867377996444702">
        <ele>139.53</ele>
        <time>2025-05-15T11:50:27Z</time>
      </trkpt>
      <trkpt lat="42.361384006217122" lon="2.868334036320448">
        <ele>137.13</ele>
        <time>2025-05-15T11:50:31Z</time>
      </trkpt>
      <trkpt lat="42.361297002062201" lon="2.868585996329784">
        <ele>137.13</ele>
        <time>2025-05-15T11:50:32Z</time>
      </trkpt>
      <trkpt lat="42.361235981807113" lon="2.868840973824263">
        <ele>136.63999999999999</ele>
        <time>2025-05-15T11:50:33Z</time>
      </trkpt>
      <trkpt lat="42.361217038705945" lon="2.869100980460644">
        <ele>136.16</ele>
        <time>2025-05-15T11:50:34Z</time>
      </trkpt>
      <trkpt lat="42.361205974593759" lon="2.86937003955245">
        <ele>135.68000000000001</ele>
        <time>2025-05-15T11:50:35Z</time>
      </trkpt>
      <trkpt lat="42.361235981807113" lon="2.869643038138747">
        <ele>135.19999999999999</ele>
        <time>2025-05-15T11:50:36Z</time>
      </trkpt>
      <trkpt lat="42.361289039254189" lon="2.869916958734393">
        <ele>135.19999999999999</ele>
        <time>2025-05-15T11:50:37Z</time>
      </trkpt>
      <trkpt lat="42.361348969861865" lon="2.870190963149071">
        <ele>134.72</ele>
        <time>2025-05-15T11:50:38Z</time>
      </trkpt>
      <trkpt lat="42.361604031175375" lon="2.871507005766034">
        <ele>133.75999999999999</ele>
        <time>2025-05-15T11:50:43Z</time>
      </trkpt>
      <trkpt lat="42.361591961234808" lon="2.871754020452499">
        <ele>133.75999999999999</ele>
        <time>2025-05-15T11:50:44Z</time>
      </trkpt>
      <trkpt lat="42.361574023962021" lon="2.872002962976694">
        <ele>133.75999999999999</ele>
        <time>2025-05-15T11:50:45Z</time>
      </trkpt>
      <trkpt lat="42.361523984000087" lon="2.872255006805062">
        <ele>133.75999999999999</ele>
        <time>2025-05-15T11:50:46Z</time>
      </trkpt>
      <trkpt lat="42.361435974016786" lon="2.872493974864483">
        <ele>133.75999999999999</ele>
        <time>2025-05-15T11:50:47Z</time>
      </trkpt>
      <trkpt lat="42.36131502315402" lon="2.872720034793019">
        <ele>133.75999999999999</ele>
        <time>2025-05-15T11:50:48Z</time>
      </trkpt>
      <trkpt lat="42.361192982643843" lon="2.872948022559285">
        <ele>134.24000000000001</ele>
        <time>2025-05-15T11:50:49Z</time>
      </trkpt>
      <trkpt lat="42.360828034579754" lon="2.873593010008335">
        <ele>136.63999999999999</ele>
        <time>2025-05-15T11:50:52Z</time>
      </trkpt>
      <trkpt lat="42.360771037638187" lon="2.873783027753234">
        <ele>137.61000000000001</ele>
        <time>2025-05-15T11:50:53Z</time>
      </trkpt>
      <trkpt lat="42.360771037638187" lon="2.874015038833022">
        <ele>138.56999999999999</ele>
        <time>2025-05-15T11:50:54Z</time>
      </trkpt>
      <trkpt lat="42.360809007659554" lon="2.875062022358179">
        <ele>141.44999999999999</ele>
        <time>2025-05-15T11:50:58Z</time>
      </trkpt>
      <trkpt lat="42.360835997387767" lon="2.875353964045644">
        <ele>141.44999999999999</ele>
        <time>2025-05-15T11:50:59Z</time>
      </trkpt>
      <trkpt lat="42.361320974305272" lon="2.878016978502274">
        <ele>132.31999999999999</ele>
        <time>2025-05-15T11:51:08Z</time>
      </trkpt>
      <trkpt lat="42.361625991761684" lon="2.879821015521884">
        <ele>121.73999999999999</ele>
        <time>2025-05-15T11:51:16Z</time>
      </trkpt>
      <trkpt lat="42.36161601729691" lon="2.880023019388318">
        <ele>120.78</ele>
        <time>2025-05-15T11:51:17Z</time>
      </trkpt>
      <trkpt lat="42.361593972891569" lon="2.880260981619358">
        <ele>119.81999999999999</ele>
        <time>2025-05-15T11:51:18Z</time>
      </trkpt>
      <trkpt lat="42.361399009823799" lon="2.882161997258663">
        <ele>111.65000000000001</ele>
        <time>2025-05-15T11:51:24Z</time>
      </trkpt>
      <trkpt lat="42.36099299043417" lon="2.884392002597451">
        <ele>99.629999999999995</ele>
        <time>2025-05-15T11:51:31Z</time>
      </trkpt>
      <trkpt lat="42.360945967957377" lon="2.884646980091929">
        <ele>97.709999999999994</ele>
        <time>2025-05-15T11:51:32Z</time>
      </trkpt>
      <trkpt lat="42.360835997387767" lon="2.884839009493589">
        <ele>95.790000000000006</ele>
        <time>2025-05-15T11:51:33Z</time>
      </trkpt>
      <trkpt lat="42.360723009333014" lon="2.885025003924966">
        <ele>93.870000000000005</ele>
        <time>2025-05-15T11:51:34Z</time>
      </trkpt>
      <trkpt lat="42.360613960772753" lon="2.885204963386059">
        <ele>92.420000000000002</ele>
        <time>2025-05-15T11:51:35Z</time>
      </trkpt>
      <trkpt lat="42.360502984374762" lon="2.885389029979706">
        <ele>91.459999999999994</ele>
        <time>2025-05-15T11:51:36Z</time>
      </trkpt>
      <trkpt lat="42.360418997704983" lon="2.88561400026083">
        <ele>90.5</ele>
        <time>2025-05-15T11:51:37Z</time>
      </trkpt>
      <trkpt lat="42.360359989106655" lon="2.885874006897211">
        <ele>90.019999999999996</ele>
        <time>2025-05-15T11:51:38Z</time>
      </trkpt>
      <trkpt lat="42.360297041013837" lon="2.886152034625411">
        <ele>89.540000000000006</ele>
        <time>2025-05-15T11:51:39Z</time>
      </trkpt>
      <trkpt lat="42.359633026644588" lon="2.889302959665656">
        <ele>87.620000000000005</ele>
        <time>2025-05-15T11:51:49Z</time>
      </trkpt>
      <trkpt lat="42.359006982296705" lon="2.892419015988708">
        <ele>89.540000000000006</ele>
        <time>2025-05-15T11:51:59Z</time>
      </trkpt>
      <trkpt lat="42.358231991529465" lon="2.896245019510388">
        <ele>86.180000000000007</ele>
        <time>2025-05-15T11:52:12Z</time>
      </trkpt>
      <trkpt lat="42.357928985729814" lon="2.897673966363072">
        <ele>79.930000000000007</ele>
        <time>2025-05-15T11:52:17Z</time>
      </trkpt>
      <trkpt lat="42.357865031808615" lon="2.897931039333344">
        <ele>78.480000000000004</ele>
        <time>2025-05-15T11:52:18Z</time>
      </trkpt>
      <trkpt lat="42.357766963541508" lon="2.898222981020808">
        <ele>77.040000000000006</ele>
        <time>2025-05-15T11:52:19Z</time>
      </trkpt>
      <trkpt lat="42.357675014063716" lon="2.898381985723972">
        <ele>75.120000000000005</ele>
        <time>2025-05-15T11:52:20Z</time>
      </trkpt>
      <trkpt lat="42.357536964118481" lon="2.898575020954013">
        <ele>73.680000000000007</ele>
        <time>2025-05-15T11:52:21Z</time>
      </trkpt>
      <trkpt lat="42.357377037405968" lon="2.898763027042151">
        <ele>72.239999999999995</ele>
        <time>2025-05-15T11:52:22Z</time>
      </trkpt>
      <trkpt lat="42.355756983160973" lon="2.900633029639721">
        <ele>64.069999999999993</ele>
        <time>2025-05-15T11:52:31Z</time>
      </trkpt>
      <trkpt lat="42.355259014293551" lon="2.901151031255722">
        <ele>61.18</ele>
        <time>2025-05-15T11:52:34Z</time>
      </trkpt>
      <trkpt lat="42.355079976841807" lon="2.901297966018319">
        <ele>60.700000000000003</ele>
        <time>2025-05-15T11:52:35Z</time>
      </trkpt>
      <trkpt lat="42.35488903708756" lon="2.901421012356877">
        <ele>60.219999999999999</ele>
        <time>2025-05-15T11:52:36Z</time>
      </trkpt>
      <trkpt lat="42.354689966887236" lon="2.901484966278076">
        <ele>60.219999999999999</ele>
        <time>2025-05-15T11:52:37Z</time>
      </trkpt>
      <trkpt lat="42.354502966627479" lon="2.901544980704784">
        <ele>60.700000000000003</ele>
        <time>2025-05-15T11:52:38Z</time>
      </trkpt>
      <trkpt lat="42.354331975802779" lon="2.901609018445015">
        <ele>61.18</ele>
        <time>2025-05-15T11:52:39Z</time>
      </trkpt>
      <trkpt lat="42.354175988584757" lon="2.901717983186245">
        <ele>61.659999999999997</ele>
        <time>2025-05-15T11:52:40Z</time>
      </trkpt>
      <trkpt lat="42.354025030508637" lon="2.901884028688073">
        <ele>61.659999999999997</ele>
        <time>2025-05-15T11:52:41Z</time>
      </trkpt>
      <trkpt lat="42.353871976956725" lon="2.90207002311945">
        <ele>61.659999999999997</ele>
        <time>2025-05-15T11:52:42Z</time>
      </trkpt>
      <trkpt lat="42.353727975860238" lon="2.902266997843981">
        <ele>61.659999999999997</ele>
        <time>2025-05-15T11:52:43Z</time>
      </trkpt>
      <trkpt lat="42.353612976148725" lon="2.902490040287376">
        <ele>61.659999999999997</ele>
        <time>2025-05-15T11:52:44Z</time>
      </trkpt>
      <trkpt lat="42.353501999750733" lon="2.902705958113074">
        <ele>61.659999999999997</ele>
        <time>2025-05-15T11:52:45Z</time>
      </trkpt>
      <trkpt lat="42.353390017524362" lon="2.902924977242947">
        <ele>61.18</ele>
        <time>2025-05-15T11:52:46Z</time>
      </trkpt>
      <trkpt lat="42.353251967579126" lon="2.903142990544438">
        <ele>60.700000000000003</ele>
        <time>2025-05-15T11:52:47Z</time>
      </trkpt>
      <trkpt lat="42.351823020726442" lon="2.905041994526982">
        <ele>56.859999999999999</ele>
        <time>2025-05-15T11:52:56Z</time>
      </trkpt>
      <trkpt lat="42.351639037951827" lon="2.905195970088244">
        <ele>56.369999999999997</ele>
        <time>2025-05-15T11:52:57Z</time>
      </trkpt>
      <trkpt lat="42.350846026092768" lon="2.905774991959333">
        <ele>54.450000000000003</ele>
        <time>2025-05-15T11:53:02Z</time>
      </trkpt>
      <trkpt lat="42.350770002231002" lon="2.905897032469511">
        <ele>54.450000000000003</ele>
        <time>2025-05-15T11:53:03Z</time>
      </trkpt>
      <trkpt lat="42.350728008896112" lon="2.906032986938953">
        <ele>54.450000000000003</ele>
        <time>2025-05-15T11:53:04Z</time>
      </trkpt>
      <trkpt lat="42.350713005289435" lon="2.906174976378679">
        <ele>54.450000000000003</ele>
        <time>2025-05-15T11:53:05Z</time>
      </trkpt>
      <trkpt lat="42.350724991410971" lon="2.906319983303547">
        <ele>54.450000000000003</ele>
        <time>2025-05-15T11:53:06Z</time>
      </trkpt>
      <trkpt lat="42.350715016946197" lon="2.906462978571653">
        <ele>54.450000000000003</ele>
        <time>2025-05-15T11:53:07Z</time>
      </trkpt>
      <trkpt lat="42.350695990025997" lon="2.90658401325345">
        <ele>53.969999999999999</ele>
        <time>2025-05-15T11:53:08Z</time>
      </trkpt>
      <trkpt lat="42.350676963105798" lon="2.906704964116216">
        <ele>53.490000000000002</ele>
        <time>2025-05-15T11:53:09Z</time>
      </trkpt>
      <trkpt lat="42.350643016397953" lon="2.906914008781314">
        <ele>53.490000000000002</ele>
        <time>2025-05-15T11:53:10Z</time>
      </trkpt>
      <trkpt lat="42.34999199397862" lon="2.907879017293453">
        <ele>52.049999999999997</ele>
        <time>2025-05-15T11:53:17Z</time>
      </trkpt>
      <trkpt lat="42.348732026293874" lon="2.909685987979174">
        <ele>50.130000000000003</ele>
        <time>2025-05-15T11:53:26Z</time>
      </trkpt>
      <trkpt lat="42.347100991755724" lon="2.912070974707604">
        <ele>51.090000000000003</ele>
        <time>2025-05-15T11:53:36Z</time>
      </trkpt>
      <trkpt lat="42.346149981021881" lon="2.913294984027743">
        <ele>51.57</ele>
        <time>2025-05-15T11:53:42Z</time>
      </trkpt>
      <trkpt lat="42.345965998247266" lon="2.913453988730907">
        <ele>51.57</ele>
        <time>2025-05-15T11:53:43Z</time>
      </trkpt>
      <trkpt lat="42.3432029876858" lon="2.915514009073377">
        <ele>50.130000000000003</ele>
        <time>2025-05-15T11:53:57Z</time>
      </trkpt>
      <trkpt lat="42.340358002111316" lon="2.917650975286961">
        <ele>47.719999999999999</ele>
        <time>2025-05-15T11:54:11Z</time>
      </trkpt>
      <trkpt lat="42.338179964572191" lon="2.919266000390053">
        <ele>49.159999999999997</ele>
        <time>2025-05-15T11:54:22Z</time>
      </trkpt>
      <trkpt lat="42.336549013853073" lon="2.920482968911529">
        <ele>50.130000000000003</ele>
        <time>2025-05-15T11:54:32Z</time>
      </trkpt>
      <trkpt lat="42.334230998530984" lon="2.92222497984767">
        <ele>50.609999999999999</ele>
        <time>2025-05-15T11:54:47Z</time>
      </trkpt>
      <trkpt lat="42.332857036963105" lon="2.923542028293014">
        <ele>53.490000000000002</ele>
        <time>2025-05-15T11:54:56Z</time>
      </trkpt>
      <trkpt lat="42.332038041204214" lon="2.925099972635508">
        <ele>52.530000000000001</ele>
        <time>2025-05-15T11:55:03Z</time>
      </trkpt>
      <trkpt lat="42.331218961626291" lon="2.926753973588347">
        <ele>49.649999999999999</ele>
        <time>2025-05-15T11:55:11Z</time>
      </trkpt>
      <trkpt lat="42.33003200031817" lon="2.928962018340826">
        <ele>50.130000000000003</ele>
        <time>2025-05-15T11:55:22Z</time>
      </trkpt>
      <trkpt lat="42.328827017918229" lon="2.930712997913361">
        <ele>50.130000000000003</ele>
        <time>2025-05-15T11:55:31Z</time>
      </trkpt>
      <trkpt lat="42.327854968607426" lon="2.93204496614635">
        <ele>48.68</ele>
        <time>2025-05-15T11:55:37Z</time>
      </trkpt>
      <trkpt lat="42.326990040019155" lon="2.932976027950645">
        <ele>46.759999999999998</ele>
        <time>2025-05-15T11:55:44Z</time>
      </trkpt>
      <trkpt lat="42.326838998124003" lon="2.933069989085197">
        <ele>46.759999999999998</ele>
        <time>2025-05-15T11:55:45Z</time>
      </trkpt>
      <trkpt lat="42.326676975935698" lon="2.933142995461822">
        <ele>46.759999999999998</ele>
        <time>2025-05-15T11:55:46Z</time>
      </trkpt>
      <trkpt lat="42.326514031738043" lon="2.933216001838446">
        <ele>46.280000000000001</ele>
        <time>2025-05-15T11:55:47Z</time>
      </trkpt>
      <trkpt lat="42.326345974579453" lon="2.933253971859813">
        <ele>46.280000000000001</ele>
        <time>2025-05-15T11:55:48Z</time>
      </trkpt>
      <trkpt lat="42.326178001239896" lon="2.93328900821507">
        <ele>46.280000000000001</ele>
        <time>2025-05-15T11:55:49Z</time>
      </trkpt>
      <trkpt lat="42.325987983494997" lon="2.933327984064817">
        <ele>46.280000000000001</ele>
        <time>2025-05-15T11:55:50Z</time>
      </trkpt>
      <trkpt lat="42.325837025418878" lon="2.933323038741946">
        <ele>45.799999999999997</ele>
        <time>2025-05-15T11:55:51Z</time>
      </trkpt>
      <trkpt lat="42.324431966990232" lon="2.933195969089866">
        <ele>45.799999999999997</ele>
        <time>2025-05-15T11:55:58Z</time>
      </trkpt>
      <trkpt lat="42.322932025417686" lon="2.932947026565671">
        <ele>45.32</ele>
        <time>2025-05-15T11:56:05Z</time>
      </trkpt>
      <trkpt lat="42.322738990187645" lon="2.93286002241075">
        <ele>45.32</ele>
        <time>2025-05-15T11:56:06Z</time>
      </trkpt>
      <trkpt lat="42.322561964392662" lon="2.932748962193728">
        <ele>45.32</ele>
        <time>2025-05-15T11:56:07Z</time>
      </trkpt>
      <trkpt lat="42.321221027523279" lon="2.931687980890274">
        <ele>46.280000000000001</ele>
        <time>2025-05-15T11:56:16Z</time>
      </trkpt>
      <trkpt lat="42.320222994312644" lon="2.931156987324357">
        <ele>45.799999999999997</ele>
        <time>2025-05-15T11:56:24Z</time>
      </trkpt>
      <trkpt lat="42.319498965516686" lon="2.931200992316008">
        <ele>45.32</ele>
        <time>2025-05-15T11:56:31Z</time>
      </trkpt>
      <trkpt lat="42.319486979395151" lon="2.931204009801149">
        <ele>45.32</ele>
        <time>2025-05-15T11:56:32Z</time>
      </trkpt>
      <trkpt lat="42.319486979395151" lon="2.931204009801149">
        <ele>44.840000000000003</ele>
        <time>2025-05-15T11:56:33Z</time>
      </trkpt>
      <trkpt lat="42.319251028820872" lon="2.931310962885618">
        <ele>44.840000000000003</ele>
        <time>2025-05-15T11:56:34Z</time>
      </trkpt>
      <trkpt lat="42.319218004122376" lon="2.931256983429194">
        <ele>44.840000000000003</ele>
        <time>2025-05-15T11:56:35Z</time>
      </trkpt>
      <trkpt lat="42.319182967767119" lon="2.931198980659246">
        <ele>44.359999999999999</ele>
        <time>2025-05-15T11:56:36Z</time>
      </trkpt>
      <trkpt lat="42.319122031331062" lon="2.931096972897649">
        <ele>44.359999999999999</ele>
        <time>2025-05-15T11:56:37Z</time>
      </trkpt>
      <trkpt lat="42.319122031331062" lon="2.931096972897649">
        <ele>44.359999999999999</ele>
        <time>2025-05-15T11:56:38Z</time>
      </trkpt>
      <trkpt lat="42.319082971662283" lon="2.931108959019184">
        <ele>44.359999999999999</ele>
        <time>2025-05-15T11:56:39Z</time>
      </trkpt>
      <trkpt lat="42.319023041054606" lon="2.931128991767764">
        <ele>44.840000000000003</ele>
        <time>2025-05-15T11:56:40Z</time>
      </trkpt>
      <trkpt lat="42.318955985829234" lon="2.931151958182454">
        <ele>44.840000000000003</ele>
        <time>2025-05-15T11:56:41Z</time>
      </trkpt>
      <trkpt lat="42.318928996101022" lon="2.931161010637879">
        <ele>44.359999999999999</ele>
        <time>2025-05-15T11:56:42Z</time>
      </trkpt>
      <trkpt lat="42.31881701387465" lon="2.931305011734366">
        <ele>44.359999999999999</ele>
        <time>2025-05-15T11:56:43Z</time>
      </trkpt>
      <trkpt lat="42.318764040246606" lon="2.931299982592464">
        <ele>44.359999999999999</ele>
        <time>2025-05-15T11:56:44Z</time>
      </trkpt>
      <trkpt lat="42.318706037476659" lon="2.931295037269592">
        <ele>44.359999999999999</ele>
        <time>2025-05-15T11:56:45Z</time>
      </trkpt>
      <trkpt lat="42.318630013614893" lon="2.93129101395607">
        <ele>44.359999999999999</ele>
        <time>2025-05-15T11:56:46Z</time>
      </trkpt>
      <trkpt lat="42.318551978096366" lon="2.931295037269592">
        <ele>43.880000000000003</ele>
        <time>2025-05-15T11:56:47Z</time>
      </trkpt>
      <trkpt lat="42.31847302056849" lon="2.931298976764083">
        <ele>44.359999999999999</ele>
        <time>2025-05-15T11:56:48Z</time>
      </trkpt>
      <trkpt lat="42.318394985049963" lon="2.931304005905986">
        <ele>44.359999999999999</ele>
        <time>2025-05-15T11:56:49Z</time>
      </trkpt>
      <trkpt lat="42.318319967016578" lon="2.931308029219508">
        <ele>44.840000000000003</ele>
        <time>2025-05-15T11:56:50Z</time>
      </trkpt>
      <trkpt lat="42.317349007353187" lon="2.931457981467247">
        <ele>47.240000000000002</ele>
        <time>2025-05-15T11:57:00Z</time>
      </trkpt>
      <trkpt lat="42.316089039668441" lon="2.931629978120327">
        <ele>48.68</ele>
        <time>2025-05-15T11:57:10Z</time>
      </trkpt>
      <trkpt lat="42.314933007583022" lon="2.931790994480252">
        <ele>47.240000000000002</ele>
        <time>2025-05-15T11:57:22Z</time>
      </trkpt>
      <trkpt lat="42.313587963581085" lon="2.931997021660209">
        <ele>45.32</ele>
        <time>2025-05-15T11:57:35Z</time>
      </trkpt>
      <trkpt lat="42.31301698833704" lon="2.932047983631492">
        <ele>45.799999999999997</ele>
        <time>2025-05-15T11:57:40Z</time>
      </trkpt>
      <trkpt lat="42.312452970072627" lon="2.932115038856864">
        <ele>45.799999999999997</ele>
        <time>2025-05-15T11:57:47Z</time>
      </trkpt>
      <trkpt lat="42.312281979247928" lon="2.93212803080678">
        <ele>45.799999999999997</ele>
        <time>2025-05-15T11:57:50Z</time>
      </trkpt>
      <trkpt lat="42.3122229706496" lon="2.932134987786412">
        <ele>45.32</ele>
        <time>2025-05-15T11:57:51Z</time>
      </trkpt>
      <trkpt lat="42.312165973708034" lon="2.932141022756696">
        <ele>45.32</ele>
        <time>2025-05-15T11:57:52Z</time>
      </trkpt>
      <trkpt lat="42.312062038108706" lon="2.931975983083248">
        <ele>45.32</ele>
        <time>2025-05-15T11:57:53Z</time>
      </trkpt>
      <trkpt lat="42.31205097399652" lon="2.931965002790093">
        <ele>45.32</ele>
        <time>2025-05-15T11:57:54Z</time>
      </trkpt>
      <trkpt lat="42.311960030347109" lon="2.931873975321651">
        <ele>45.32</ele>
        <time>2025-05-15T11:57:56Z</time>
      </trkpt>
      <trkpt lat="42.311901021748781" lon="2.931877998635173">
        <ele>45.32</ele>
        <time>2025-05-15T11:57:57Z</time>
      </trkpt>
      <trkpt lat="42.311846036463976" lon="2.931886967271566">
        <ele>45.32</ele>
        <time>2025-05-15T11:57:58Z</time>
      </trkpt>
      <trkpt lat="42.311791973188519" lon="2.93191303499043">
        <ele>44.840000000000003</ele>
        <time>2025-05-15T11:57:59Z</time>
      </trkpt>
      <trkpt lat="42.311761965975165" lon="2.931932983919978">
        <ele>44.840000000000003</ele>
        <time>2025-05-15T11:58:00Z</time>
      </trkpt>
      <trkpt lat="42.311746962368488" lon="2.932019988074899">
        <ele>44.359999999999999</ele>
        <time>2025-05-15T11:58:01Z</time>
      </trkpt>
      <trkpt lat="42.311734976246953" lon="2.932092994451523">
        <ele>44.359999999999999</ele>
        <time>2025-05-15T11:58:02Z</time>
      </trkpt>
      <trkpt lat="42.311645038425922" lon="2.932232972234488">
        <ele>43.880000000000003</ele>
        <time>2025-05-15T11:58:03Z</time>
      </trkpt>
      <trkpt lat="42.311524003744125" lon="2.932305978611112">
        <ele>43.880000000000003</ele>
        <time>2025-05-15T11:58:05Z</time>
      </trkpt>
      <trkpt lat="42.31052496470511" lon="2.933108964934945">
        <ele>44.359999999999999</ele>
        <time>2025-05-15T11:58:17Z</time>
      </trkpt>
      <trkpt lat="42.309360969811678" lon="2.934237001463771">
        <ele>41.469999999999999</ele>
        <time>2025-05-15T11:58:28Z</time>
      </trkpt>
      <trkpt lat="42.308001006022096" lon="2.935590008273721">
        <ele>40.509999999999998</ele>
        <time>2025-05-15T11:58:39Z</time>
      </trkpt>
      <trkpt lat="42.3063999786973" lon="2.937160022556782">
        <ele>44.359999999999999</ele>
        <time>2025-05-15T11:58:52Z</time>
      </trkpt>
      <trkpt lat="42.30487396940589" lon="2.938124025240541">
        <ele>49.159999999999997</ele>
        <time>2025-05-15T11:59:04Z</time>
      </trkpt>
      <trkpt lat="42.303099017590284" lon="2.938989037647843">
        <ele>51.090000000000003</ele>
        <time>2025-05-15T11:59:16Z</time>
      </trkpt>
      <trkpt lat="42.300992980599403" lon="2.939903000369668">
        <ele>55.890000000000001</ele>
        <time>2025-05-15T11:59:29Z</time>
      </trkpt>
      <trkpt lat="42.298993980512023" lon="2.940929029136896">
        <ele>56.369999999999997</ele>
        <time>2025-05-15T11:59:42Z</time>
      </trkpt>
      <trkpt lat="42.297237971797585" lon="2.941800998523831">
        <ele>52.049999999999997</ele>
        <time>2025-05-15T11:59:53Z</time>
      </trkpt>
      <trkpt lat="42.297063041478395" lon="2.941867969930172">
        <ele>52.049999999999997</ele>
        <time>2025-05-15T11:59:54Z</time>
      </trkpt>
      <trkpt lat="42.29677302762866" lon="2.94199101626873">
        <ele>51.57</ele>
        <time>2025-05-15T11:59:56Z</time>
      </trkpt>
      <trkpt lat="42.296617962419987" lon="2.942044995725155">
        <ele>51.57</ele>
        <time>2025-05-15T11:59:57Z</time>
      </trkpt>
      <trkpt lat="42.296463986858726" lon="2.94209604151547">
        <ele>51.57</ele>
        <time>2025-05-15T11:59:58Z</time>
      </trkpt>
      <trkpt lat="42.295058006420732" lon="2.942771036177874">
        <ele>52.530000000000001</ele>
        <time>2025-05-15T12:00:08Z</time>
      </trkpt>
      <trkpt lat="42.29494996368885" lon="2.942852005362511">
        <ele>53.009999999999998</ele>
        <time>2025-05-15T12:00:09Z</time>
      </trkpt>
      <trkpt lat="42.294843010604382" lon="2.942955018952489">
        <ele>53.009999999999998</ele>
        <time>2025-05-15T12:00:10Z</time>
      </trkpt>
      <trkpt lat="42.293672980740666" lon="2.944379020482302">
        <ele>52.530000000000001</ele>
        <time>2025-05-15T12:00:21Z</time>
      </trkpt>
      <trkpt lat="42.292766980826855" lon="2.945933025330305">
        <ele>51.090000000000003</ele>
        <time>2025-05-15T12:00:29Z</time>
      </trkpt>
      <trkpt lat="42.291747992858291" lon="2.948405016213656">
        <ele>48.200000000000003</ele>
        <time>2025-05-15T12:00:39Z</time>
      </trkpt>
      <trkpt lat="42.290266994386911" lon="2.952761007472873">
        <ele>45.799999999999997</ele>
        <time>2025-05-15T12:00:56Z</time>
      </trkpt>
      <trkpt lat="42.289033010601997" lon="2.956059034913778">
        <ele>41.469999999999999</ele>
        <time>2025-05-15T12:01:10Z</time>
      </trkpt>
      <trkpt lat="42.287467019632459" lon="2.95963098295033">
        <ele>39.07</ele>
        <time>2025-05-15T12:01:25Z</time>
      </trkpt>
      <trkpt lat="42.285196026787162" lon="2.964042965322733">
        <ele>33.299999999999997</ele>
        <time>2025-05-15T12:01:44Z</time>
      </trkpt>
      <trkpt lat="42.283296016976237" lon="2.967192968353629">
        <ele>29.940000000000001</ele>
        <time>2025-05-15T12:01:59Z</time>
      </trkpt>
      <trkpt lat="42.281212024390697" lon="2.970535000786185">
        <ele>28.98</ele>
        <time>2025-05-15T12:02:16Z</time>
      </trkpt>
      <trkpt lat="42.279571015387774" lon="2.973429020494223">
        <ele>27.050000000000001</ele>
        <time>2025-05-15T12:02:30Z</time>
      </trkpt>
      <trkpt lat="42.277783993631601" lon="2.977101970463991">
        <ele>24.649999999999999</ele>
        <time>2025-05-15T12:02:46Z</time>
      </trkpt>
      <trkpt lat="42.276334008201957" lon="2.980373008176684">
        <ele>27.530000000000001</ele>
        <time>2025-05-15T12:03:00Z</time>
      </trkpt>
      <trkpt lat="42.275317031890154" lon="2.982507962733507">
        <ele>30.420000000000002</ele>
        <time>2025-05-15T12:03:11Z</time>
      </trkpt>
      <trkpt lat="42.274240041151643" lon="2.984304036945105">
        <ele>30.899999999999999</ele>
        <time>2025-05-15T12:03:22Z</time>
      </trkpt>
      <trkpt lat="42.272995999082923" lon="2.985776988789439">
        <ele>28.02</ele>
        <time>2025-05-15T12:03:33Z</time>
      </trkpt>
      <trkpt lat="42.272354029119015" lon="2.986369002610445">
        <ele>27.050000000000001</ele>
        <time>2025-05-15T12:03:42Z</time>
      </trkpt>
      <trkpt lat="42.271679034456611" lon="2.986904019489884">
        <ele>24.649999999999999</ele>
        <time>2025-05-15T12:03:49Z</time>
      </trkpt>
      <trkpt lat="42.270143972709775" lon="2.987765008583665">
        <ele>21.77</ele>
        <time>2025-05-15T12:04:00Z</time>
      </trkpt>
      <trkpt lat="42.268340019509196" lon="2.988314023241401">
        <ele>23.690000000000001</ele>
        <time>2025-05-15T12:04:10Z</time>
      </trkpt>
      <trkpt lat="42.26615603081882" lon="2.988373031839728">
        <ele>24.649999999999999</ele>
        <time>2025-05-15T12:04:22Z</time>
      </trkpt>
      <trkpt lat="42.263970030471683" lon="2.987846983596683">
        <ele>25.609999999999999</ele>
        <time>2025-05-15T12:04:33Z</time>
      </trkpt>
      <trkpt lat="42.260868977755308" lon="2.986751971766353">
        <ele>27.050000000000001</ele>
        <time>2025-05-15T12:04:48Z</time>
      </trkpt>
      <trkpt lat="42.257943022996187" lon="2.985869022086263">
        <ele>28.02</ele>
        <time>2025-05-15T12:05:02Z</time>
      </trkpt>
      <trkpt lat="42.254811963066459" lon="2.985140969976783">
        <ele>26.09</ele>
        <time>2025-05-15T12:05:17Z</time>
      </trkpt>
      <trkpt lat="42.251673024147749" lon="2.984615005552769">
        <ele>24.170000000000002</ele>
        <time>2025-05-15T12:05:33Z</time>
      </trkpt>
      <trkpt lat="42.249717023223639" lon="2.984397998079658">
        <ele>26.57</ele>
        <time>2025-05-15T12:05:44Z</time>
      </trkpt>
      <trkpt lat="42.247018972411752" lon="2.984213009476662">
        <ele>29.940000000000001</ele>
        <time>2025-05-15T12:05:59Z</time>
      </trkpt>
      <trkpt lat="42.244470035657287" lon="2.984094992280006">
        <ele>31.379999999999999</ele>
        <time>2025-05-15T12:06:13Z</time>
      </trkpt>
      <trkpt lat="42.241907017305493" lon="2.983832973986864">
        <ele>29.940000000000001</ele>
        <time>2025-05-15T12:06:26Z</time>
      </trkpt>
      <trkpt lat="42.240064004436135" lon="2.983403988182545">
        <ele>30.420000000000002</ele>
        <time>2025-05-15T12:06:36Z</time>
      </trkpt>
      <trkpt lat="42.238128958269954" lon="2.982566971331835">
        <ele>32.82</ele>
        <time>2025-05-15T12:06:47Z</time>
      </trkpt>
      <trkpt lat="42.236908972263336" lon="2.981811007484794">
        <ele>35.229999999999997</ele>
        <time>2025-05-15T12:06:55Z</time>
      </trkpt>
      <trkpt lat="42.235313979908824" lon="2.980475015938282">
        <ele>36.670000000000002</ele>
        <time>2025-05-15T12:07:07Z</time>
      </trkpt>
      <trkpt lat="42.234137998893857" lon="2.979172971099615">
        <ele>38.590000000000003</ele>
        <time>2025-05-15T12:07:16Z</time>
      </trkpt>
      <trkpt lat="42.233147006481886" lon="2.977860029786825">
        <ele>39.549999999999997</ele>
        <time>2025-05-15T12:07:24Z</time>
      </trkpt>
      <trkpt lat="42.232978027313948" lon="2.977404976263642">
        <ele>40.509999999999998</ele>
        <time>2025-05-15T12:07:27Z</time>
      </trkpt>
      <trkpt lat="42.23294198513031" lon="2.977262986823916">
        <ele>40.990000000000002</ele>
        <time>2025-05-15T12:07:28Z</time>
      </trkpt>
      <trkpt lat="42.232907032594085" lon="2.977128038182855">
        <ele>40.990000000000002</ele>
        <time>2025-05-15T12:07:29Z</time>
      </trkpt>
      <trkpt lat="42.232891023159027" lon="2.977007003501058">
        <ele>41.469999999999999</ele>
        <time>2025-05-15T12:07:30Z</time>
      </trkpt>
      <trkpt lat="42.232923964038491" lon="2.976875994354487">
        <ele>41.469999999999999</ele>
        <time>2025-05-15T12:07:31Z</time>
      </trkpt>
      <trkpt lat="42.232957994565368" lon="2.976740039885044">
        <ele>41.469999999999999</ele>
        <time>2025-05-15T12:07:32Z</time>
      </trkpt>
      <trkpt lat="42.233019014820457" lon="2.976625962182879">
        <ele>41.469999999999999</ele>
        <time>2025-05-15T12:07:33Z</time>
      </trkpt>
      <trkpt lat="42.233095038682222" lon="2.976522026583552">
        <ele>41.469999999999999</ele>
        <time>2025-05-15T12:07:34Z</time>
      </trkpt>
      <trkpt lat="42.233182964846492" lon="2.976446002721787">
        <ele>41.469999999999999</ele>
        <time>2025-05-15T12:07:35Z</time>
      </trkpt>
      <trkpt lat="42.233283966779709" lon="2.976415995508432">
        <ele>40.509999999999998</ele>
        <time>2025-05-15T12:07:36Z</time>
      </trkpt>
      <trkpt lat="42.233382035046816" lon="2.976386994123459">
        <ele>40.030000000000001</ele>
        <time>2025-05-15T12:07:37Z</time>
      </trkpt>
      <trkpt lat="42.233506003394723" lon="2.976351035758853">
        <ele>39.07</ele>
        <time>2025-05-15T12:07:38Z</time>
      </trkpt>
      <trkpt lat="42.233596025034785" lon="2.976393029093742">
        <ele>38.590000000000003</ele>
        <time>2025-05-15T12:07:39Z</time>
      </trkpt>
      <trkpt lat="42.233685962855816" lon="2.976435022428632">
        <ele>37.630000000000003</ele>
        <time>2025-05-15T12:07:40Z</time>
      </trkpt>
      <trkpt lat="42.233785036951303" lon="2.976694023236632">
        <ele>37.149999999999999</ele>
        <time>2025-05-15T12:07:41Z</time>
      </trkpt>
      <trkpt lat="42.233790988102555" lon="2.976719001308084">
        <ele>36.670000000000002</ele>
        <time>2025-05-15T12:07:42Z</time>
      </trkpt>
      <trkpt lat="42.233824012801051" lon="2.976850010454655">
        <ele>36.189999999999998</ele>
        <time>2025-05-15T12:07:43Z</time>
      </trkpt>
      <trkpt lat="42.23384496755898" lon="2.976994011551142">
        <ele>36.189999999999998</ele>
        <time>2025-05-15T12:07:44Z</time>
      </trkpt>
      <trkpt lat="42.23386500030756" lon="2.977141030132771">
        <ele>35.710000000000001</ele>
        <time>2025-05-15T12:07:45Z</time>
      </trkpt>
      <trkpt lat="42.23388503305614" lon="2.977288970723748">
        <ele>35.229999999999997</ele>
        <time>2025-05-15T12:07:46Z</time>
      </trkpt>
      <trkpt lat="42.233860976994038" lon="2.977447975426912">
        <ele>35.229999999999997</ele>
        <time>2025-05-15T12:07:47Z</time>
      </trkpt>
      <trkpt lat="42.233820995315909" lon="2.977590970695019">
        <ele>34.740000000000002</ele>
        <time>2025-05-15T12:07:48Z</time>
      </trkpt>
      <trkpt lat="42.233780007809401" lon="2.977735977619886">
        <ele>34.259999999999998</ele>
        <time>2025-05-15T12:07:49Z</time>
      </trkpt>
      <trkpt lat="42.233739020302892" lon="2.977881990373135">
        <ele>34.259999999999998</ele>
        <time>2025-05-15T12:07:50Z</time>
      </trkpt>
      <trkpt lat="42.233592001721263" lon="2.978475010022521">
        <ele>33.299999999999997</ele>
        <time>2025-05-15T12:07:54Z</time>
      </trkpt>
      <trkpt lat="42.233532993122935" lon="2.978638960048556">
        <ele>32.82</ele>
        <time>2025-05-15T12:07:55Z</time>
      </trkpt>
      <trkpt lat="42.232981966808438" lon="2.980652963742614">
        <ele>30.899999999999999</ele>
        <time>2025-05-15T12:08:07Z</time>
      </trkpt>
      <trkpt lat="42.232461031526327" lon="2.982521960511804">
        <ele>33.299999999999997</ele>
        <time>2025-05-15T12:08:16Z</time>
      </trkpt>
      <trkpt lat="42.232054006308317" lon="2.983997007831931">
        <ele>34.740000000000002</ele>
        <time>2025-05-15T12:08:21Z</time>
      </trkpt>
      <trkpt lat="42.231137026101351" lon="2.987242983654141">
        <ele>30.899999999999999</ele>
        <time>2025-05-15T12:08:32Z</time>
      </trkpt>
      <trkpt lat="42.23021300509572" lon="2.990499017760158">
        <ele>25.129999999999999</ele>
        <time>2025-05-15T12:08:44Z</time>
      </trkpt>
      <trkpt lat="42.229269035160542" lon="2.993859993293881">
        <ele>23.210000000000001</ele>
        <time>2025-05-15T12:08:56Z</time>
      </trkpt>
      <trkpt lat="42.228781962767243" lon="2.995223980396986">
        <ele>22.73</ele>
        <time>2025-05-15T12:09:02Z</time>
      </trkpt>
      <trkpt lat="42.228076960891485" lon="2.996628032997251">
        <ele>25.609999999999999</ele>
        <time>2025-05-15T12:09:10Z</time>
      </trkpt>
      <trkpt lat="42.22802197560668" lon="2.996662985533476">
        <ele>26.09</ele>
        <time>2025-05-15T12:09:11Z</time>
      </trkpt>
      <trkpt lat="42.227980988100171" lon="2.996688969433308">
        <ele>26.09</ele>
        <time>2025-05-15T12:09:12Z</time>
      </trkpt>
      <trkpt lat="42.227940000593662" lon="2.996715037152171">
        <ele>26.57</ele>
        <time>2025-05-15T12:09:13Z</time>
      </trkpt>
      <trkpt lat="42.227891972288489" lon="2.996745966374874">
        <ele>26.57</ele>
        <time>2025-05-15T12:09:14Z</time>
      </trkpt>
      <trkpt lat="42.227831035852432" lon="2.996781002730131">
        <ele>27.050000000000001</ele>
        <time>2025-05-15T12:09:15Z</time>
      </trkpt>
      <trkpt lat="42.227771021425724" lon="2.996796006336808">
        <ele>27.530000000000001</ele>
        <time>2025-05-15T12:09:16Z</time>
      </trkpt>
      <trkpt lat="42.227745959535241" lon="2.996845962479711">
        <ele>28.02</ele>
        <time>2025-05-15T12:09:17Z</time>
      </trkpt>
      <trkpt lat="42.227727016434073" lon="2.996943024918437">
        <ele>28.02</ele>
        <time>2025-05-15T12:09:18Z</time>
      </trkpt>
      <trkpt lat="42.227715030312538" lon="2.997034974396229">
        <ele>28.5</ele>
        <time>2025-05-15T12:09:19Z</time>
      </trkpt>
      <trkpt lat="42.227800022810698" lon="2.997073028236628">
        <ele>28.02</ele>
        <time>2025-05-15T12:09:20Z</time>
      </trkpt>
      <trkpt lat="42.227841010317206" lon="2.99710001796484">
        <ele>28.02</ele>
        <time>2025-05-15T12:09:21Z</time>
      </trkpt>
      <trkpt lat="42.227992974221706" lon="2.997052995488048">
        <ele>28.02</ele>
        <time>2025-05-15T12:09:22Z</time>
      </trkpt>
      <trkpt lat="42.228077966719866" lon="2.997126001864672">
        <ele>27.530000000000001</ele>
        <time>2025-05-15T12:09:23Z</time>
      </trkpt>
      <trkpt lat="42.228173017501831" lon="2.997217029333115">
        <ele>27.530000000000001</ele>
        <time>2025-05-15T12:09:24Z</time>
      </trkpt>
      <trkpt lat="42.228259015828371" lon="2.99729498103261">
        <ele>27.530000000000001</ele>
        <time>2025-05-15T12:09:25Z</time>
      </trkpt>
      <trkpt lat="42.228330010548234" lon="2.99735801294446">
        <ele>27.530000000000001</ele>
        <time>2025-05-15T12:09:26Z</time>
      </trkpt>
      <trkpt lat="42.228377033025026" lon="2.99740101210773">
        <ele>27.530000000000001</ele>
        <time>2025-05-15T12:09:27Z</time>
      </trkpt>
      <trkpt lat="42.228416008874774" lon="2.997576026245952">
        <ele>28.02</ele>
        <time>2025-05-15T12:09:28Z</time>
      </trkpt>
      <trkpt lat="42.228477029129863" lon="2.997618019580841">
        <ele>28.02</ele>
        <time>2025-05-15T12:09:29Z</time>
      </trkpt>
      <trkpt lat="42.228506030514836" lon="2.997636962682009">
        <ele>28.02</ele>
        <time>2025-05-15T12:09:30Z</time>
      </trkpt>
      <trkpt lat="42.228662017732859" lon="2.997651966288686">
        <ele>28.02</ele>
        <time>2025-05-15T12:09:31Z</time>
      </trkpt>
      <trkpt lat="42.228738041594625" lon="2.997738970443606">
        <ele>27.530000000000001</ele>
        <time>2025-05-15T12:09:32Z</time>
      </trkpt>
      <trkpt lat="42.228813981637359" lon="2.997868973761797">
        <ele>27.050000000000001</ele>
        <time>2025-05-15T12:09:33Z</time>
      </trkpt>
      <trkpt lat="42.228895034641027" lon="2.998011969029903">
        <ele>26.57</ele>
        <time>2025-05-15T12:09:34Z</time>
      </trkpt>
      <trkpt lat="42.228979021310806" lon="2.998157981783152">
        <ele>25.609999999999999</ele>
        <time>2025-05-15T12:09:35Z</time>
      </trkpt>
      <trkpt lat="42.229048004373908" lon="2.998320003971458">
        <ele>25.129999999999999</ele>
        <time>2025-05-15T12:09:36Z</time>
      </trkpt>
      <trkpt lat="42.229108018800616" lon="2.99847699701786">
        <ele>24.170000000000002</ele>
        <time>2025-05-15T12:09:37Z</time>
      </trkpt>
      <trkpt lat="42.229146994650364" lon="2.998623009771109">
        <ele>23.210000000000001</ele>
        <time>2025-05-15T12:09:38Z</time>
      </trkpt>
      <trkpt lat="42.229107012972236" lon="2.998881004750729">
        <ele>22.25</ele>
        <time>2025-05-15T12:09:39Z</time>
      </trkpt>
      <trkpt lat="42.229107012972236" lon="2.998913023620844">
        <ele>21.77</ele>
        <time>2025-05-15T12:09:40Z</time>
      </trkpt>
      <trkpt lat="42.229126961901784" lon="2.999049983918667">
        <ele>21.289999999999999</ele>
        <time>2025-05-15T12:09:41Z</time>
      </trkpt>
      <trkpt lat="42.229150012135506" lon="2.999096000567079">
        <ele>21.289999999999999</ele>
        <time>2025-05-15T12:09:42Z</time>
      </trkpt>
      <trkpt lat="42.229324020445347" lon="2.99922801554203">
        <ele>20.809999999999999</ele>
        <time>2025-05-15T12:09:43Z</time>
      </trkpt>
      <trkpt lat="42.229368025436997" lon="2.999385008588433">
        <ele>20.32</ele>
        <time>2025-05-15T12:09:44Z</time>
      </trkpt>
      <trkpt lat="42.229432985186577" lon="2.999565973877907">
        <ele>19.84</ele>
        <time>2025-05-15T12:09:45Z</time>
      </trkpt>
      <trkpt lat="42.229939000681043" lon="3.001186028122902">
        <ele>18.879999999999999</ele>
        <time>2025-05-15T12:09:52Z</time>
      </trkpt>
      <trkpt lat="42.230330016463995" lon="3.003577971830964">
        <ele>16.48</ele>
        <time>2025-05-15T12:10:01Z</time>
      </trkpt>
      <trkpt lat="42.230145027860999" lon="3.006074018776417">
        <ele>15.52</ele>
        <time>2025-05-15T12:10:10Z</time>
      </trkpt>
      <trkpt lat="42.23023203201592" lon="3.008114006370306">
        <ele>16</ele>
        <time>2025-05-15T12:10:17Z</time>
      </trkpt>
      <trkpt lat="42.230285005643964" lon="3.008398991078138">
        <ele>16</ele>
        <time>2025-05-15T12:10:18Z</time>
      </trkpt>
      <trkpt lat="42.230379972606897" lon="3.00865899771452">
        <ele>16</ele>
        <time>2025-05-15T12:10:19Z</time>
      </trkpt>
      <trkpt lat="42.230476029217243" lon="3.00891699269414">
        <ele>16</ele>
        <time>2025-05-15T12:10:20Z</time>
      </trkpt>
      <trkpt lat="42.230572002008557" lon="3.009170964360237">
        <ele>16</ele>
        <time>2025-05-15T12:10:21Z</time>
      </trkpt>
      <trkpt lat="42.230691025033593" lon="3.009409010410309">
        <ele>16</ele>
        <time>2025-05-15T12:10:22Z</time>
      </trkpt>
      <trkpt lat="42.231925008818507" lon="3.011892987415195">
        <ele>14.08</ele>
        <time>2025-05-15T12:10:32Z</time>
      </trkpt>
      <trkpt lat="42.232900997623801" lon="3.013957031071186">
        <ele>11.67</ele>
        <time>2025-05-15T12:10:40Z</time>
      </trkpt>
      <trkpt lat="42.234834032133222" lon="3.016720041632652">
        <ele>9.75</ele>
        <time>2025-05-15T12:10:52Z</time>
      </trkpt>
      <trkpt lat="42.236432963982224" lon="3.018966978415847">
        <ele>9.75</ele>
        <time>2025-05-15T12:11:02Z</time>
      </trkpt>
      <trkpt lat="42.23773299716413" lon="3.020662972703576">
        <ele>9.75</ele>
        <time>2025-05-15T12:11:10Z</time>
      </trkpt>
      <trkpt lat="42.238777969032526" lon="3.022137014195323">
        <ele>8.789999999999999</ele>
        <time>2025-05-15T12:11:17Z</time>
      </trkpt>
      <trkpt lat="42.239335030317307" lon="3.023879025131464">
        <ele>8.310000000000001</ele>
        <time>2025-05-15T12:11:23Z</time>
      </trkpt>
      <trkpt lat="42.240173975005746" lon="3.027389030903578">
        <ele>6.87</ele>
        <time>2025-05-15T12:11:34Z</time>
      </trkpt>
      <trkpt lat="42.240578988566995" lon="3.029455002397299">
        <ele>3.98</ele>
        <time>2025-05-15T12:11:41Z</time>
      </trkpt>
      <trkpt lat="42.240822985768318" lon="3.030596030876041">
        <ele>2.54</ele>
        <time>2025-05-15T12:11:46Z</time>
      </trkpt>
      <trkpt lat="42.240922981873155" lon="3.030812032520771">
        <ele>2.54</ele>
        <time>2025-05-15T12:11:47Z</time>
      </trkpt>
      <trkpt lat="42.241019960492849" lon="3.031020993366838">
        <ele>2.54</ele>
        <time>2025-05-15T12:11:48Z</time>
      </trkpt>
      <trkpt lat="42.241508960723877" lon="3.032119022682309">
        <ele>2.06</ele>
        <time>2025-05-15T12:11:54Z</time>
      </trkpt>
      <trkpt lat="42.241796962916851" lon="3.032853025943041">
        <ele>1.1</ele>
        <time>2025-05-15T12:12:00Z</time>
      </trkpt>
      <trkpt lat="42.241767039522529" lon="3.033062992617488">
        <ele>1.1</ele>
        <time>2025-05-15T12:12:01Z</time>
      </trkpt>
      <trkpt lat="42.241787994280457" lon="3.033114960417152">
        <ele>1.1</ele>
        <time>2025-05-15T12:12:02Z</time>
      </trkpt>
      <trkpt lat="42.241810038685799" lon="3.033171035349369">
        <ele>1.1</ele>
        <time>2025-05-15T12:12:03Z</time>
      </trkpt>
      <trkpt lat="42.241896037012339" lon="3.033320987597108">
        <ele>1.1</ele>
        <time>2025-05-15T12:12:04Z</time>
      </trkpt>
      <trkpt lat="42.241916991770267" lon="3.033400028944016">
        <ele>1.1</ele>
        <time>2025-05-15T12:12:05Z</time>
      </trkpt>
      <trkpt lat="42.241942975670099" lon="3.033493990078569">
        <ele>1.1</ele>
        <time>2025-05-15T12:12:06Z</time>
      </trkpt>
      <trkpt lat="42.241968037560582" lon="3.03358200006187">
        <ele>1.1</ele>
        <time>2025-05-15T12:12:07Z</time>
      </trkpt>
      <trkpt lat="42.242318987846375" lon="3.034729985520244">
        <ele>1.1</ele>
        <time>2025-05-15T12:12:21Z</time>
      </trkpt>
      <trkpt lat="42.242402974516153" lon="3.034968031570315">
        <ele>0.62</ele>
        <time>2025-05-15T12:12:24Z</time>
      </trkpt>
      <trkpt lat="42.242427030578256" lon="3.035053024068475">
        <ele>0.14</ele>
        <time>2025-05-15T12:12:25Z</time>
      </trkpt>
      <trkpt lat="42.242478998377919" lon="3.035219991579652">
        <ele>-0.34</ele>
        <time>2025-05-15T12:12:27Z</time>
      </trkpt>
      <trkpt lat="42.242561979219317" lon="3.035460971295834">
        <ele>-0.82</ele>
        <time>2025-05-15T12:12:30Z</time>
      </trkpt>
      <trkpt lat="42.242869008332491" lon="3.036364959552884">
        <ele>-1.79</ele>
        <time>2025-05-15T12:12:41Z</time>
      </trkpt>
      <trkpt lat="42.243319032713771" lon="3.037242963910103">
        <ele>-0.34</ele>
        <time>2025-05-15T12:12:53Z</time>
      </trkpt>
      <trkpt lat="42.243702001869678" lon="3.037875965237618">
        <ele>-0.34</ele>
        <time>2025-05-15T12:13:03Z</time>
      </trkpt>
      <trkpt lat="42.243879027664661" lon="3.03815801627934">
        <ele>-1.3</ele>
        <time>2025-05-15T12:13:13Z</time>
      </trkpt>
      <trkpt lat="42.244020011276007" lon="3.038341999053955">
        <ele>-1.79</ele>
        <time>2025-05-15T12:13:26Z</time>
      </trkpt>
      <trkpt lat="42.244202988222241" lon="3.03863201290369">
        <ele>-2.27</ele>
        <time>2025-05-15T12:13:30Z</time>
      </trkpt>
      <trkpt lat="42.244247999042273" lon="3.038703007623553">
        <ele>-1.79</ele>
        <time>2025-05-15T12:13:31Z</time>
      </trkpt>
      <trkpt lat="42.244427036494017" lon="3.03895496763289">
        <ele>-1.3</ele>
        <time>2025-05-15T12:13:35Z</time>
      </trkpt>
      <trkpt lat="42.244614958763123" lon="3.039284963160753">
        <ele>-0.82</ele>
        <time>2025-05-15T12:13:40Z</time>
      </trkpt>
      <trkpt lat="42.244711015373468" lon="3.039501970633864">
        <ele>-1.3</ele>
        <time>2025-05-15T12:13:43Z</time>
      </trkpt>
      <trkpt lat="42.244744040071964" lon="3.03957799449563">
        <ele>-1.3</ele>
        <time>2025-05-15T12:13:44Z</time>
      </trkpt>
      <trkpt lat="42.244775975123048" lon="3.039651000872254">
        <ele>-1.3</ele>
        <time>2025-05-15T12:13:45Z</time>
      </trkpt>
      <trkpt lat="42.245060037821531" lon="3.040319960564375">
        <ele>-4.19</ele>
        <time>2025-05-15T12:13:54Z</time>
      </trkpt>
      <trkpt lat="42.245178977027535" lon="3.040581978857517">
        <ele>-5.15</ele>
        <time>2025-05-15T12:14:02Z</time>
      </trkpt>
      <trkpt lat="42.245178977027535" lon="3.040581978857517">
        <ele>-5.63</ele>
        <time>2025-05-15T12:14:41Z</time>
      </trkpt>
      <trkpt lat="42.245218958705664" lon="3.040664959698916">
        <ele>-6.11</ele>
        <time>2025-05-15T12:15:21Z</time>
      </trkpt>
      <trkpt lat="42.245376035571098" lon="3.041000990197063">
        <ele>-7.07</ele>
        <time>2025-05-15T12:15:27Z</time>
      </trkpt>
      <trkpt lat="42.245409982278943" lon="3.041071984916925">
        <ele>-7.07</ele>
        <time>2025-05-15T12:15:28Z</time>
      </trkpt>
      <trkpt lat="42.245485000312328" lon="3.041193019598723">
        <ele>-7.07</ele>
        <time>2025-05-15T12:15:30Z</time>
      </trkpt>
      <trkpt lat="42.245674012228847" lon="3.04151002317667">
        <ele>-6.59</ele>
        <time>2025-05-15T12:15:34Z</time>
      </trkpt>
      <trkpt lat="42.246076008304954" lon="3.042405964806676">
        <ele>-2.75</ele>
        <time>2025-05-15T12:15:44Z</time>
      </trkpt>
      <trkpt lat="42.246365016326308" lon="3.043098980560899">
        <ele>0.14</ele>
        <time>2025-05-15T12:15:52Z</time>
      </trkpt>
      <trkpt lat="42.246557967737317" lon="3.04342201910913">
        <ele>0.14</ele>
        <time>2025-05-15T12:15:56Z</time>
      </trkpt>
      <trkpt lat="42.247180994600058" lon="3.044237997382879">
        <ele>0.62</ele>
        <time>2025-05-15T12:16:03Z</time>
      </trkpt>
      <trkpt lat="42.248233007267118" lon="3.045494025573134">
        <ele>2.06</ele>
        <time>2025-05-15T12:16:11Z</time>
      </trkpt>
      <trkpt lat="42.248557973653078" lon="3.045760989189148">
        <ele>2.54</ele>
        <time>2025-05-15T12:16:13Z</time>
      </trkpt>
      <trkpt lat="42.250163024291396" lon="3.046952979639173">
        <ele>4.94</ele>
        <time>2025-05-15T12:16:22Z</time>
      </trkpt>
      <trkpt lat="42.250319011509418" lon="3.047141991555691">
        <ele>4.46</ele>
        <time>2025-05-15T12:16:23Z</time>
      </trkpt>
      <trkpt lat="42.251845020800829" lon="3.04931097663939">
        <ele>3.98</ele>
        <time>2025-05-15T12:16:33Z</time>
      </trkpt>
      <trkpt lat="42.252538036555052" lon="3.051233030855656">
        <ele>2.54</ele>
        <time>2025-05-15T12:16:40Z</time>
      </trkpt>
      <trkpt lat="42.252613976597786" lon="3.051498988643289">
        <ele>2.54</ele>
        <time>2025-05-15T12:16:41Z</time>
      </trkpt>
      <trkpt lat="42.252716990187764" lon="3.051734017208219">
        <ele>2.54</ele>
        <time>2025-05-15T12:16:42Z</time>
      </trkpt>
      <trkpt lat="42.252837019041181" lon="3.051943983882666">
        <ele>2.54</ele>
        <time>2025-05-15T12:16:43Z</time>
      </trkpt>
      <trkpt lat="42.252971967682242" lon="3.052144981920719">
        <ele>2.54</ele>
        <time>2025-05-15T12:16:44Z</time>
      </trkpt>
      <trkpt lat="42.253107000142336" lon="3.052347991615534">
        <ele>2.54</ele>
        <time>2025-05-15T12:16:45Z</time>
      </trkpt>
      <trkpt lat="42.254866026341915" lon="3.05491897277534">
        <ele>3.5</ele>
        <time>2025-05-15T12:16:57Z</time>
      </trkpt>
      <trkpt lat="42.255717040970922" lon="3.056150022894144">
        <ele>3.98</ele>
        <time>2025-05-15T12:17:03Z</time>
      </trkpt>
      <trkpt lat="42.255871016532183" lon="3.056283965706825">
        <ele>4.46</ele>
        <time>2025-05-15T12:17:04Z</time>
      </trkpt>
      <trkpt lat="42.256024992093444" lon="3.056393014267087">
        <ele>4.94</ele>
        <time>2025-05-15T12:17:05Z</time>
      </trkpt>
      <trkpt lat="42.25618701428175" lon="3.056473983451724">
        <ele>5.42</ele>
        <time>2025-05-15T12:17:06Z</time>
      </trkpt>
      <trkpt lat="42.256346018984914" lon="3.056551013141871">
        <ele>5.42</ele>
        <time>2025-05-15T12:17:07Z</time>
      </trkpt>
      <trkpt lat="42.256999975070357" lon="3.056815965101123">
        <ele>5.91</ele>
        <time>2025-05-15T12:17:13Z</time>
      </trkpt>
      <trkpt lat="42.257028976455331" lon="3.056826023384929">
        <ele>6.39</ele>
        <time>2025-05-15T12:17:20Z</time>
      </trkpt>
      <trkpt lat="42.257041968405247" lon="3.0568309687078">
        <ele>6.39</ele>
        <time>2025-05-15T12:17:21Z</time>
      </trkpt>
      <trkpt lat="42.25706703029573" lon="3.056839015334845">
        <ele>5.91</ele>
        <time>2025-05-15T12:17:22Z</time>
      </trkpt>
      <trkpt lat="42.257130984216928" lon="3.056947980076075">
        <ele>5.91</ele>
        <time>2025-05-15T12:17:23Z</time>
      </trkpt>
      <trkpt lat="42.257130984216928" lon="3.057026015594602">
        <ele>5.91</ele>
        <time>2025-05-15T12:17:24Z</time>
      </trkpt>
      <trkpt lat="42.257130984216928" lon="3.057118970900774">
        <ele>5.42</ele>
        <time>2025-05-15T12:17:25Z</time>
      </trkpt>
      <trkpt lat="42.257321001961827" lon="3.057505963370204">
        <ele>5.91</ele>
        <time>2025-05-15T12:17:28Z</time>
      </trkpt>
      <trkpt lat="42.257286971434951" lon="3.057655999436975">
        <ele>5.91</ele>
        <time>2025-05-15T12:17:29Z</time>
      </trkpt>
      <trkpt lat="42.257247995585203" lon="3.057832019403577">
        <ele>5.42</ele>
        <time>2025-05-15T12:17:30Z</time>
      </trkpt>
      <trkpt lat="42.256908025592566" lon="3.059351993724704">
        <ele>6.39</ele>
        <time>2025-05-15T12:17:37Z</time>
      </trkpt>
      <trkpt lat="42.256378959864378" lon="3.06168501265347">
        <ele>5.42</ele>
        <time>2025-05-15T12:17:46Z</time>
      </trkpt>
      <trkpt lat="42.255575973540545" lon="3.065149001777172">
        <ele>5.42</ele>
        <time>2025-05-15T12:17:57Z</time>
      </trkpt>
      <trkpt lat="42.254604008048773" lon="3.069346994161606">
        <ele>6.87</ele>
        <time>2025-05-15T12:18:10Z</time>
      </trkpt>
      <trkpt lat="42.254064967855811" lon="3.071420006453991">
        <ele>9.27</ele>
        <time>2025-05-15T12:18:17Z</time>
      </trkpt>
      <trkpt lat="42.253951979801059" lon="3.071681018918753">
        <ele>9.75</ele>
        <time>2025-05-15T12:18:18Z</time>
      </trkpt>
      <trkpt lat="42.252497971057892" lon="3.074397007003427">
        <ele>9.27</ele>
        <time>2025-05-15T12:18:29Z</time>
      </trkpt>
      <trkpt lat="42.25201802328229" lon="3.075196975842118">
        <ele>9.27</ele>
        <time>2025-05-15T12:18:33Z</time>
      </trkpt>
      <trkpt lat="42.251924984157085" lon="3.075326979160309">
        <ele>9.27</ele>
        <time>2025-05-15T12:18:34Z</time>
      </trkpt>
      <trkpt lat="42.251678975299001" lon="3.075545998290181">
        <ele>9.75</ele>
        <time>2025-05-15T12:18:37Z</time>
      </trkpt>
      <trkpt lat="42.251572022214532" lon="3.075614981353283">
        <ele>10.710000000000001</ele>
        <time>2025-05-15T12:18:39Z</time>
      </trkpt>
      <trkpt lat="42.251507984474301" lon="3.075647000223398">
        <ele>10.710000000000001</ele>
        <time>2025-05-15T12:18:40Z</time>
      </trkpt>
      <trkpt lat="42.251435983926058" lon="3.075682958588004">
        <ele>11.19</ele>
        <time>2025-05-15T12:18:41Z</time>
      </trkpt>
      <trkpt lat="42.251256024464965" lon="3.075723024085164">
        <ele>10.710000000000001</ele>
        <time>2025-05-15T12:18:43Z</time>
      </trkpt>
      <trkpt lat="42.251164996996522" lon="3.075797036290169">
        <ele>9.75</ele>
        <time>2025-05-15T12:18:44Z</time>
      </trkpt>
      <trkpt lat="42.25109500810504" lon="3.075901977717876">
        <ele>9.75</ele>
        <time>2025-05-15T12:18:45Z</time>
      </trkpt>
      <trkpt lat="42.251051003113389" lon="3.076056037098169">
        <ele>9.27</ele>
        <time>2025-05-15T12:18:46Z</time>
      </trkpt>
      <trkpt lat="42.251041028648615" lon="3.076203977689147">
        <ele>9.27</ele>
        <time>2025-05-15T12:18:47Z</time>
      </trkpt>
      <trkpt lat="42.251070030033588" lon="3.076374968513846">
        <ele>9.27</ele>
        <time>2025-05-15T12:18:48Z</time>
      </trkpt>
      <trkpt lat="42.251162985339761" lon="3.076502960175276">
        <ele>9.27</ele>
        <time>2025-05-15T12:18:49Z</time>
      </trkpt>
      <trkpt lat="42.251230040565133" lon="3.076579989865422">
        <ele>9.27</ele>
        <time>2025-05-15T12:18:50Z</time>
      </trkpt>
      <trkpt lat="42.251300029456615" lon="3.076775958761573">
        <ele>9.27</ele>
        <time>2025-05-15T12:18:51Z</time>
      </trkpt>
      <trkpt lat="42.251345040276647" lon="3.076933035627008">
        <ele>9.75</ele>
        <time>2025-05-15T12:18:52Z</time>
      </trkpt>
      <trkpt lat="42.251372030004859" lon="3.077126992866397">
        <ele>10.23</ele>
        <time>2025-05-15T12:18:53Z</time>
      </trkpt>
      <trkpt lat="42.251401031389832" lon="3.077331008389592">
        <ele>10.23</ele>
        <time>2025-05-15T12:18:54Z</time>
      </trkpt>
      <trkpt lat="42.251405976712704" lon="3.077550027519465">
        <ele>10.710000000000001</ele>
        <time>2025-05-15T12:18:55Z</time>
      </trkpt>
      <trkpt lat="42.251489041373134" lon="3.079686993733048">
        <ele>12.15</ele>
        <time>2025-05-15T12:19:03Z</time>
      </trkpt>
      <trkpt lat="42.251905035227537" lon="3.081818008795381">
        <ele>12.15</ele>
        <time>2025-05-15T12:19:10Z</time>
      </trkpt>
      <trkpt lat="42.252753032371402" lon="3.084463002160192">
        <ele>11.19</ele>
        <time>2025-05-15T12:19:19Z</time>
      </trkpt>
      <trkpt lat="42.252960987389088" lon="3.084924006834626">
        <ele>11.19</ele>
        <time>2025-05-15T12:19:21Z</time>
      </trkpt>
      <trkpt lat="42.253071963787079" lon="3.085120981559157">
        <ele>11.19</ele>
        <time>2025-05-15T12:19:22Z</time>
      </trkpt>
      <trkpt lat="42.253203978762031" lon="3.085309993475676">
        <ele>11.19</ele>
        <time>2025-05-15T12:19:23Z</time>
      </trkpt>
      <trkpt lat="42.253344962373376" lon="3.08549297042191">
        <ele>11.67</ele>
        <time>2025-05-15T12:19:24Z</time>
      </trkpt>
      <trkpt lat="42.253512013703585" lon="3.085646023973823">
        <ele>11.67</ele>
        <time>2025-05-15T12:19:25Z</time>
      </trkpt>
      <trkpt lat="42.253685016185045" lon="3.085803017020226">
        <ele>11.67</ele>
        <time>2025-05-15T12:19:26Z</time>
      </trkpt>
      <trkpt lat="42.255627019330859" lon="3.087173039093614">
        <ele>13.6</ele>
        <time>2025-05-15T12:19:36Z</time>
      </trkpt>
      <trkpt lat="42.257806984707713" lon="3.088659988716245">
        <ele>11.19</ele>
        <time>2025-05-15T12:19:47Z</time>
      </trkpt>
      <trkpt lat="42.259062007069588" lon="3.090107962489128">
        <ele>6.87</ele>
        <time>2025-05-15T12:19:55Z</time>
      </trkpt>
      <trkpt lat="42.259930958971381" lon="3.092026999220252">
        <ele>3.98</ele>
        <time>2025-05-15T12:20:03Z</time>
      </trkpt>
      <trkpt lat="42.260308982804418" lon="3.093498023226857">
        <ele>3.5</ele>
        <time>2025-05-15T12:20:10Z</time>
      </trkpt>
      <trkpt lat="42.260328009724617" lon="3.093616962432861">
        <ele>3.5</ele>
        <time>2025-05-15T12:20:11Z</time>
      </trkpt>
      <trkpt lat="42.260220972821116" lon="3.093793988227844">
        <ele>3.02</ele>
        <time>2025-05-15T12:20:12Z</time>
      </trkpt>
      <trkpt lat="42.260220972821116" lon="3.09393497183919">
        <ele>3.02</ele>
        <time>2025-05-15T12:20:13Z</time>
      </trkpt>
      <trkpt lat="42.260260032489896" lon="3.094101017341018">
        <ele>3.02</ele>
        <time>2025-05-15T12:20:14Z</time>
      </trkpt>
      <trkpt lat="42.260285010561347" lon="3.094175029546022">
        <ele>2.54</ele>
        <time>2025-05-15T12:20:15Z</time>
      </trkpt>
      <trkpt lat="42.260525990277529" lon="3.094265973195434">
        <ele>2.54</ele>
        <time>2025-05-15T12:20:16Z</time>
      </trkpt>
      <trkpt lat="42.260563960298896" lon="3.094453979283571">
        <ele>2.06</ele>
        <time>2025-05-15T12:20:17Z</time>
      </trkpt>
      <trkpt lat="42.260602014139295" lon="3.094594040885568">
        <ele>2.06</ele>
        <time>2025-05-15T12:20:18Z</time>
      </trkpt>
      <trkpt lat="42.261113980785012" lon="3.096523974090815">
        <ele>2.06</ele>
        <time>2025-05-15T12:20:27Z</time>
      </trkpt>
      <trkpt lat="42.261869022622705" lon="3.09941397048533">
        <ele>0.62</ele>
        <time>2025-05-15T12:20:38Z</time>
      </trkpt>
      <trkpt lat="42.262352993711829" lon="3.101351028308272">
        <ele>0.14</ele>
        <time>2025-05-15T12:20:46Z</time>
      </trkpt>
      <trkpt lat="42.262819027528167" lon="3.103251038119197">
        <ele>-0.34</ele>
        <time>2025-05-15T12:20:55Z</time>
      </trkpt>
      <trkpt lat="42.26284702308476" lon="3.103422028943896">
        <ele>-0.34</ele>
        <time>2025-05-15T12:20:56Z</time>
      </trkpt>
      <trkpt lat="42.26287099532783" lon="3.103573992848396">
        <ele>0.14</ele>
        <time>2025-05-15T12:20:57Z</time>
      </trkpt>
      <trkpt lat="42.262720037251711" lon="3.10386098921299">
        <ele>0.14</ele>
        <time>2025-05-15T12:20:59Z</time>
      </trkpt>
      <trkpt lat="42.262773010879755" lon="3.104036003351212">
        <ele>0.14</ele>
        <time>2025-05-15T12:21:00Z</time>
      </trkpt>
      <trkpt lat="42.262817015871406" lon="3.104087971150875">
        <ele>0.62</ele>
        <time>2025-05-15T12:21:01Z</time>
      </trkpt>
      <trkpt lat="42.262989012524486" lon="3.104131976142526">
        <ele>1.1</ele>
        <time>2025-05-15T12:21:02Z</time>
      </trkpt>
      <trkpt lat="42.263033017516136" lon="3.104262985289097">
        <ele>1.1</ele>
        <time>2025-05-15T12:21:03Z</time>
      </trkpt>
      <trkpt lat="42.26308599114418" lon="3.104416960850358">
        <ele>1.1</ele>
        <time>2025-05-15T12:21:04Z</time>
      </trkpt>
      <trkpt lat="42.263142988085747" lon="3.104579988867044">
        <ele>2.06</ele>
        <time>2025-05-15T12:21:05Z</time>
      </trkpt>
      <trkpt lat="42.263197973370552" lon="3.104759026318789">
        <ele>2.54</ele>
        <time>2025-05-15T12:21:06Z</time>
      </trkpt>
      <trkpt lat="42.263663001358509" lon="3.106558034196496">
        <ele>4.46</ele>
        <time>2025-05-15T12:21:14Z</time>
      </trkpt>
      <trkpt lat="42.264515021815896" lon="3.109709965065122">
        <ele>3.02</ele>
        <time>2025-05-15T12:21:26Z</time>
      </trkpt>
      <trkpt lat="42.264685006812215" lon="3.110547987744212">
        <ele>2.54</ele>
        <time>2025-05-15T12:21:30Z</time>
      </trkpt>
      <trkpt lat="42.26469699293375" lon="3.110715039074421">
        <ele>2.54</ele>
        <time>2025-05-15T12:21:31Z</time>
      </trkpt>
      <trkpt lat="42.264675032347441" lon="3.111045034602284">
        <ele>3.02</ele>
        <time>2025-05-15T12:21:33Z</time>
      </trkpt>
      <trkpt lat="42.264702022075653" lon="3.111194986850023">
        <ele>3.02</ele>
        <time>2025-05-15T12:21:34Z</time>
      </trkpt>
      <trkpt lat="42.264804029837251" lon="3.111335970461369">
        <ele>3.5</ele>
        <time>2025-05-15T12:21:35Z</time>
      </trkpt>
      <trkpt lat="42.264861026778817" lon="3.111501010134816">
        <ele>3.02</ele>
        <time>2025-05-15T12:21:36Z</time>
      </trkpt>
      <trkpt lat="42.264922969043255" lon="3.111680969595909">
        <ele>3.02</ele>
        <time>2025-05-15T12:21:37Z</time>
      </trkpt>
      <trkpt lat="42.265006033703685" lon="3.111920021474361">
        <ele>3.02</ele>
        <time>2025-05-15T12:21:38Z</time>
      </trkpt>
      <trkpt lat="42.265011984854937" lon="3.112091012299061">
        <ele>2.54</ele>
        <time>2025-05-15T12:21:39Z</time>
      </trkpt>
      <trkpt lat="42.265020031481981" lon="3.11232402920723">
        <ele>2.54</ele>
        <time>2025-05-15T12:21:40Z</time>
      </trkpt>
      <trkpt lat="42.265027994289994" lon="3.112567020580173">
        <ele>2.54</ele>
        <time>2025-05-15T12:21:41Z</time>
      </trkpt>
      <trkpt lat="42.265079040080309" lon="3.115593977272511">
        <ele>1.58</ele>
        <time>2025-05-15T12:21:52Z</time>
      </trkpt>
      <trkpt lat="42.265155985951424" lon="3.118886975571513">
        <ele>1.58</ele>
        <time>2025-05-15T12:22:03Z</time>
      </trkpt>
      <trkpt lat="42.265251036733389" lon="3.120557991787791">
        <ele>2.54</ele>
        <time>2025-05-15T12:22:09Z</time>
      </trkpt>
      <trkpt lat="42.265309961512685" lon="3.120817998424172">
        <ele>2.54</ele>
        <time>2025-05-15T12:22:10Z</time>
      </trkpt>
      <trkpt lat="42.26538497954607" lon="3.121081022545695">
        <ele>3.02</ele>
        <time>2025-05-15T12:22:11Z</time>
      </trkpt>
      <trkpt lat="42.265468966215849" lon="3.121342035010457">
        <ele>2.54</ele>
        <time>2025-05-15T12:22:12Z</time>
      </trkpt>
      <trkpt lat="42.265554964542389" lon="3.121602963656187">
        <ele>2.54</ele>
        <time>2025-05-15T12:22:13Z</time>
      </trkpt>
      <trkpt lat="42.266466999426484" lon="3.124238988384605">
        <ele>0.62</ele>
        <time>2025-05-15T12:22:24Z</time>
      </trkpt>
      <trkpt lat="42.267448017373681" lon="3.126766970381141">
        <ele>-0.34</ele>
        <time>2025-05-15T12:22:35Z</time>
      </trkpt>
      <trkpt lat="42.267562011256814" lon="3.126990012824535">
        <ele>0.14</ele>
        <time>2025-05-15T12:22:36Z</time>
      </trkpt>
      <trkpt lat="42.269497979432344" lon="3.129956033080816">
        <ele>0.62</ele>
        <time>2025-05-15T12:22:50Z</time>
      </trkpt>
      <trkpt lat="42.271372005343437" lon="3.132814010605216">
        <ele>3.98</ele>
        <time>2025-05-15T12:23:04Z</time>
      </trkpt>
      <trkpt lat="42.27217398583889" lon="3.134228959679604">
        <ele>2.54</ele>
        <time>2025-05-15T12:23:13Z</time>
      </trkpt>
      <trkpt lat="42.272209022194147" lon="3.134335996583104">
        <ele>2.06</ele>
        <time>2025-05-15T12:23:14Z</time>
      </trkpt>
      <trkpt lat="42.272234000265598" lon="3.134428029879928">
        <ele>1.58</ele>
        <time>2025-05-15T12:23:15Z</time>
      </trkpt>
      <trkpt lat="42.272254033014178" lon="3.134502964094281">
        <ele>1.58</ele>
        <time>2025-05-15T12:23:16Z</time>
      </trkpt>
      <trkpt lat="42.272235006093979" lon="3.134653000161052">
        <ele>1.58</ele>
        <time>2025-05-15T12:23:17Z</time>
      </trkpt>
      <trkpt lat="42.2721510194242" lon="3.134750984609127">
        <ele>1.1</ele>
        <time>2025-05-15T12:23:18Z</time>
      </trkpt>
      <trkpt lat="42.272150013595819" lon="3.134758025407791">
        <ele>1.1</ele>
        <time>2025-05-15T12:23:19Z</time>
      </trkpt>
      <trkpt lat="42.272141966968775" lon="3.134849974885583">
        <ele>1.1</ele>
        <time>2025-05-15T12:23:20Z</time>
      </trkpt>
      <trkpt lat="42.272129980847239" lon="3.134987019002438">
        <ele>1.1</ele>
        <time>2025-05-15T12:23:21Z</time>
      </trkpt>
      <trkpt lat="42.27217398583889" lon="3.1350770406425">
        <ele>0.62</ele>
        <time>2025-05-15T12:23:22Z</time>
      </trkpt>
      <trkpt lat="42.272203993052244" lon="3.135197991505265">
        <ele>0.62</ele>
        <time>2025-05-15T12:23:23Z</time>
      </trkpt>
      <trkpt lat="42.272220002487302" lon="3.135340986773372">
        <ele>0.14</ele>
        <time>2025-05-15T12:23:24Z</time>
      </trkpt>
      <trkpt lat="42.272238023579121" lon="3.135494040325284">
        <ele>0.14</ele>
        <time>2025-05-15T12:23:25Z</time>
      </trkpt>
      <trkpt lat="42.272256966680288" lon="3.135656984522939">
        <ele>0.14</ele>
        <time>2025-05-15T12:23:26Z</time>
      </trkpt>
      <trkpt lat="42.27228001691401" lon="3.135845996439457">
        <ele>0.14</ele>
        <time>2025-05-15T12:23:27Z</time>
      </trkpt>
      <trkpt lat="42.272249003872275" lon="3.136008018627763">
        <ele>-0.34</ele>
        <time>2025-05-15T12:23:28Z</time>
      </trkpt>
      <trkpt lat="42.272213967517018" lon="3.136193007230759">
        <ele>-0.34</ele>
        <time>2025-05-15T12:23:29Z</time>
      </trkpt>
      <trkpt lat="42.271941974759102" lon="3.138245986774564">
        <ele>-1.3</ele>
        <time>2025-05-15T12:23:39Z</time>
      </trkpt>
      <trkpt lat="42.271820018067956" lon="3.140711020678282">
        <ele>-2.75</ele>
        <time>2025-05-15T12:23:50Z</time>
      </trkpt>
      <trkpt lat="42.271707030013204" lon="3.143336987122893">
        <ele>-2.75</ele>
        <time>2025-05-15T12:24:01Z</time>
      </trkpt>
      <trkpt lat="42.271622037515044" lon="3.145032981410623">
        <ele>-1.3</ele>
        <time>2025-05-15T12:24:10Z</time>
      </trkpt>
      <trkpt lat="42.271538972854614" lon="3.147044973447919">
        <ele>-0.34</ele>
        <time>2025-05-15T12:24:20Z</time>
      </trkpt>
      <trkpt lat="42.271423973143101" lon="3.147488962858915">
        <ele>0.14</ele>
        <time>2025-05-15T12:24:23Z</time>
      </trkpt>
      <trkpt lat="42.271369993686676" lon="3.147588036954403">
        <ele>0.14</ele>
        <time>2025-05-15T12:24:24Z</time>
      </trkpt>
      <trkpt lat="42.271318025887012" lon="3.147680992260575">
        <ele>0.14</ele>
        <time>2025-05-15T12:24:25Z</time>
      </trkpt>
      <trkpt lat="42.27112096734345" lon="3.147925995290279">
        <ele>0.14</ele>
        <time>2025-05-15T12:24:28Z</time>
      </trkpt>
      <trkpt lat="42.27107796818018" lon="3.148011993616819">
        <ele>-0.34</ele>
        <time>2025-05-15T12:24:29Z</time>
      </trkpt>
      <trkpt lat="42.271018959581852" lon="3.148178961127996">
        <ele>-0.34</ele>
        <time>2025-05-15T12:24:30Z</time>
      </trkpt>
      <trkpt lat="42.271033963188529" lon="3.148284992203116">
        <ele>-0.34</ele>
        <time>2025-05-15T12:24:31Z</time>
      </trkpt>
      <trkpt lat="42.271049972623587" lon="3.148396974429488">
        <ele>-0.34</ele>
        <time>2025-05-15T12:24:32Z</time>
      </trkpt>
      <trkpt lat="42.271061036735773" lon="3.148504011332989">
        <ele>-0.34</ele>
        <time>2025-05-15T12:24:33Z</time>
      </trkpt>
      <trkpt lat="42.271067993715405" lon="3.148609036579728">
        <ele>-0.34</ele>
        <time>2025-05-15T12:24:34Z</time>
      </trkpt>
      <trkpt lat="42.271074028685689" lon="3.148701991885901">
        <ele>-0.82</ele>
        <time>2025-05-15T12:24:35Z</time>
      </trkpt>
      <trkpt lat="42.27107796818018" lon="3.148782039061189">
        <ele>-0.82</ele>
        <time>2025-05-15T12:24:36Z</time>
      </trkpt>
      <trkpt lat="42.27105500176549" lon="3.148859990760684">
        <ele>-0.82</ele>
        <time>2025-05-15T12:24:37Z</time>
      </trkpt>
      <trkpt lat="42.271004961803555" lon="3.148885974660516">
        <ele>-1.3</ele>
        <time>2025-05-15T12:24:38Z</time>
      </trkpt>
      <trkpt lat="42.27099196985364" lon="3.148892009630799">
        <ele>-1.3</ele>
        <time>2025-05-15T12:24:39Z</time>
      </trkpt>
      <trkpt lat="42.270914018154144" lon="3.148887986317277">
        <ele>-1.79</ele>
        <time>2025-05-15T12:24:40Z</time>
      </trkpt>
      <trkpt lat="42.270951988175511" lon="3.148995023220778">
        <ele>-1.79</ele>
        <time>2025-05-15T12:24:41Z</time>
      </trkpt>
      <trkpt lat="42.270938996225595" lon="3.149028969928622">
        <ele>-1.79</ele>
        <time>2025-05-15T12:24:42Z</time>
      </trkpt>
      <trkpt lat="42.270918963477015" lon="3.149078004062176">
        <ele>-3.71</ele>
        <time>2025-05-15T12:24:53Z</time>
      </trkpt>
      <trkpt lat="42.270650994032621" lon="3.149349996820092">
        <ele>-42.159999999999997</ele>
        <time>2025-05-15T12:28:09Z</time>
      </trkpt>
      <trkpt lat="42.270768005400896" lon="3.149166014045477">
        <ele>-14.76</ele>
        <time>2025-05-15T12:28:43Z</time>
      </trkpt>
      <trkpt lat="42.270756019279361" lon="3.149115974083543">
        <ele>-18.129999999999999</ele>
        <time>2025-05-15T12:29:28Z</time>
      </trkpt>
      <trkpt lat="42.270804969593883" lon="3.149256035685539">
        <ele>-3.71</ele>
        <time>2025-05-15T12:29:41Z</time>
      </trkpt>
      <trkpt lat="42.27081703953445" lon="3.149252012372017">
        <ele>-0.82</ele>
        <time>2025-05-15T12:29:47Z</time>
      </trkpt>
      <trkpt lat="42.270799018442631" lon="3.149385033175349">
        <ele>-0.82</ele>
        <time>2025-05-15T12:29:49Z</time>
      </trkpt>
      <trkpt lat="42.270799018442631" lon="3.149385033175349">
        <ele>-0.82</ele>
        <time>2025-05-15T12:29:50Z</time>
      </trkpt>
      <trkpt lat="42.270799018442631" lon="3.149405987933278">
        <ele>-0.34</ele>
        <time>2025-05-15T12:29:51Z</time>
      </trkpt>
      <trkpt lat="42.270799018442631" lon="3.149461979046464">
        <ele>-0.34</ele>
        <time>2025-05-15T12:29:52Z</time>
      </trkpt>
      <trkpt lat="42.270799018442631" lon="3.149515958502889">
        <ele>0.14</ele>
        <time>2025-05-15T12:29:53Z</time>
      </trkpt>
      <trkpt lat="42.270799018442631" lon="3.149564992636442">
        <ele>0.14</ele>
        <time>2025-05-15T12:29:54Z</time>
      </trkpt>
      <trkpt lat="42.270799018442631" lon="3.149600028991699">
        <ele>0.14</ele>
        <time>2025-05-15T12:29:55Z</time>
      </trkpt>
      <trkpt lat="42.27086397819221" lon="3.149729026481509">
        <ele>0.14</ele>
        <time>2025-05-15T12:29:56Z</time>
      </trkpt>
      <trkpt lat="42.270832965150476" lon="3.149826005101204">
        <ele>0.14</ele>
        <time>2025-05-15T12:29:57Z</time>
      </trkpt>
      <trkpt lat="42.27079801261425" lon="3.149939998984337">
        <ele>0.14</ele>
        <time>2025-05-15T12:29:58Z</time>
      </trkpt>
      <trkpt lat="42.270365003496408" lon="3.151443041861057">
        <ele>0.62</ele>
        <time>2025-05-15T12:30:08Z</time>
      </trkpt>
      <trkpt lat="42.269715992733836" lon="3.153740018606186">
        <ele>1.58</ele>
        <time>2025-05-15T12:30:19Z</time>
      </trkpt>
      <trkpt lat="42.26937803439796" lon="3.154984982684255">
        <ele>1.1</ele>
        <time>2025-05-15T12:30:27Z</time>
      </trkpt>
      <trkpt lat="42.269210983067751" lon="3.155093025416136">
        <ele>1.58</ele>
        <time>2025-05-15T12:30:32Z</time>
      </trkpt>
      <trkpt lat="42.26912297308445" lon="3.155163014307618">
        <ele>1.58</ele>
        <time>2025-05-15T12:30:34Z</time>
      </trkpt>
      <trkpt lat="42.269054995849729" lon="3.155276002362371">
        <ele>1.58</ele>
        <time>2025-05-15T12:30:35Z</time>
      </trkpt>
      <trkpt lat="42.269018031656742" lon="3.15542696043849">
        <ele>1.58</ele>
        <time>2025-05-15T12:30:36Z</time>
      </trkpt>
      <trkpt lat="42.269039992243052" lon="3.155586970970035">
        <ele>1.58</ele>
        <time>2025-05-15T12:30:37Z</time>
      </trkpt>
      <trkpt lat="42.269082991406322" lon="3.155672969296575">
        <ele>1.58</ele>
        <time>2025-05-15T12:30:38Z</time>
      </trkpt>
      <trkpt lat="42.269180975854397" lon="3.155730972066522">
        <ele>1.58</ele>
        <time>2025-05-15T12:30:39Z</time>
      </trkpt>
      <trkpt lat="42.269261023029685" lon="3.155720997601748">
        <ele>1.58</ele>
        <time>2025-05-15T12:30:40Z</time>
      </trkpt>
      <trkpt lat="42.2693379689008" lon="3.155703982338309">
        <ele>1.58</ele>
        <time>2025-05-15T12:30:41Z</time>
      </trkpt>
      <trkpt lat="42.269405024126172" lon="3.155659977346659">
        <ele>1.58</ele>
        <time>2025-05-15T12:30:42Z</time>
      </trkpt>
      <trkpt lat="42.269454980269074" lon="3.155579008162022">
        <ele>2.06</ele>
        <time>2025-05-15T12:30:43Z</time>
      </trkpt>
      <trkpt lat="42.269490016624331" lon="3.155479012057185">
        <ele>2.06</ele>
        <time>2025-05-15T12:30:44Z</time>
      </trkpt>
      <trkpt lat="42.269490016624331" lon="3.155394019559026">
        <ele>2.06</ele>
        <time>2025-05-15T12:30:45Z</time>
      </trkpt>
      <trkpt lat="42.269451962783933" lon="3.155239960178733">
        <ele>2.06</ele>
        <time>2025-05-15T12:30:46Z</time>
      </trkpt>
      <trkpt lat="42.269447017461061" lon="3.155222022905946">
        <ele>2.06</ele>
        <time>2025-05-15T12:30:47Z</time>
      </trkpt>
      <trkpt lat="42.269396977499127" lon="3.154920022934675">
        <ele>2.06</ele>
        <time>2025-05-15T12:30:48Z</time>
      </trkpt>
      <trkpt lat="42.269431008026004" lon="3.154806029051542">
        <ele>2.06</ele>
        <time>2025-05-15T12:30:49Z</time>
      </trkpt>
      <trkpt lat="42.269797967746854" lon="3.153439024463296">
        <ele>-0.34</ele>
        <time>2025-05-15T12:30:59Z</time>
      </trkpt>
      <trkpt lat="42.270312029868364" lon="3.151626018807292">
        <ele>-1.79</ele>
        <time>2025-05-15T12:31:09Z</time>
      </trkpt>
      <trkpt lat="42.270788038149476" lon="3.149972017854452">
        <ele>-1.79</ele>
        <time>2025-05-15T12:31:19Z</time>
      </trkpt>
      <trkpt lat="42.271186010912061" lon="3.148880023509264">
        <ele>-1.3</ele>
        <time>2025-05-15T12:31:26Z</time>
      </trkpt>
      <trkpt lat="42.271251976490021" lon="3.148793019354343">
        <ele>-1.3</ele>
        <time>2025-05-15T12:31:27Z</time>
      </trkpt>
      <trkpt lat="42.271320959553123" lon="3.148706015199423">
        <ele>-0.82</ele>
        <time>2025-05-15T12:31:28Z</time>
      </trkpt>
      <trkpt lat="42.27140000090003" lon="3.148624040186405">
        <ele>-0.82</ele>
        <time>2025-05-15T12:31:29Z</time>
      </trkpt>
      <trkpt lat="42.27150896564126" lon="3.148615993559361">
        <ele>-0.34</ele>
        <time>2025-05-15T12:31:30Z</time>
      </trkpt>
      <trkpt lat="42.27159102447331" lon="3.148662010207772">
        <ele>-0.82</ele>
        <time>2025-05-15T12:31:31Z</time>
      </trkpt>
      <trkpt lat="42.271663025021553" lon="3.148713978007436">
        <ele>-0.82</ele>
        <time>2025-05-15T12:31:32Z</time>
      </trkpt>
      <trkpt lat="42.271663025021553" lon="3.148713978007436">
        <ele>-0.82</ele>
        <time>2025-05-15T12:31:33Z</time>
      </trkpt>
      <trkpt lat="42.271734019741416" lon="3.148966021835804">
        <ele>-0.82</ele>
        <time>2025-05-15T12:31:34Z</time>
      </trkpt>
      <trkpt lat="42.271696971729398" lon="3.149089990183711">
        <ele>-0.82</ele>
        <time>2025-05-15T12:31:35Z</time>
      </trkpt>
      <trkpt lat="42.271655984222889" lon="3.149230973795056">
        <ele>-0.82</ele>
        <time>2025-05-15T12:31:36Z</time>
      </trkpt>
      <trkpt lat="42.27157199755311" lon="3.149532973766327">
        <ele>-0.34</ele>
        <time>2025-05-15T12:31:38Z</time>
      </trkpt>
      <trkpt lat="42.27157199755311" lon="3.14971100538969">
        <ele>-0.34</ele>
        <time>2025-05-15T12:31:39Z</time>
      </trkpt>
      <trkpt lat="42.27157199755311" lon="3.14988199621439">
        <ele>-0.34</ele>
        <time>2025-05-15T12:31:40Z</time>
      </trkpt>
      <trkpt lat="42.271605022251606" lon="3.150062039494515">
        <ele>0.14</ele>
        <time>2025-05-15T12:31:41Z</time>
      </trkpt>
      <trkpt lat="42.271665958687663" lon="3.150210985913873">
        <ele>0.14</ele>
        <time>2025-05-15T12:31:42Z</time>
      </trkpt>
      <trkpt lat="42.271749023348093" lon="3.150368984788656">
        <ele>0.14</ele>
        <time>2025-05-15T12:31:43Z</time>
      </trkpt>
      <trkpt lat="42.271836027503014" lon="3.150531006976962">
        <ele>0.14</ele>
        <time>2025-05-15T12:31:44Z</time>
      </trkpt>
      <trkpt lat="42.272898014634848" lon="3.152478039264679">
        <ele>1.58</ele>
        <time>2025-05-15T12:31:56Z</time>
      </trkpt>
      <trkpt lat="42.273679962381721" lon="3.153919978067279">
        <ele>4.94</ele>
        <time>2025-05-15T12:32:05Z</time>
      </trkpt>
      <trkpt lat="42.274740021675825" lon="3.155849995091558">
        <ele>7.83</ele>
        <time>2025-05-15T12:32:16Z</time>
      </trkpt>
      <trkpt lat="42.275605034083128" lon="3.157406011596322">
        <ele>9.27</ele>
        <time>2025-05-15T12:32:26Z</time>
      </trkpt>
      <trkpt lat="42.276243986561894" lon="3.15856103785336">
        <ele>10.710000000000001</ele>
        <time>2025-05-15T12:32:34Z</time>
      </trkpt>
      <trkpt lat="42.276308024302125" lon="3.158666985109448">
        <ele>10.710000000000001</ele>
        <time>2025-05-15T12:32:35Z</time>
      </trkpt>
      <trkpt lat="42.276292014867067" lon="3.158891033381224">
        <ele>10.710000000000001</ele>
        <time>2025-05-15T12:32:36Z</time>
      </trkpt>
      <trkpt lat="42.276279022917151" lon="3.159148022532463">
        <ele>11.19</ele>
        <time>2025-05-15T12:32:38Z</time>
      </trkpt>
      <trkpt lat="42.276321016252041" lon="3.159261010587215">
        <ele>11.19</ele>
        <time>2025-05-15T12:32:39Z</time>
      </trkpt>
      <trkpt lat="42.276397040113807" lon="3.159360000863671">
        <ele>11.67</ele>
        <time>2025-05-15T12:32:40Z</time>
      </trkpt>
      <trkpt lat="42.276501981541514" lon="3.15937701612711">
        <ele>12.15</ele>
        <time>2025-05-15T12:32:41Z</time>
      </trkpt>
      <trkpt lat="42.276654029265046" lon="3.159390008077025">
        <ele>12.15</ele>
        <time>2025-05-15T12:32:42Z</time>
      </trkpt>
      <trkpt lat="42.276731980964541" lon="3.159502996131778">
        <ele>12.630000000000001</ele>
        <time>2025-05-15T12:32:43Z</time>
      </trkpt>
      <trkpt lat="42.27681596763432" lon="3.159623024985194">
        <ele>12.630000000000001</ele>
        <time>2025-05-15T12:32:44Z</time>
      </trkpt>
      <trkpt lat="42.27690096013248" lon="3.159761996939778">
        <ele>13.119999999999999</ele>
        <time>2025-05-15T12:32:45Z</time>
      </trkpt>
      <trkpt lat="42.27773898281157" lon="3.161276020109654">
        <ele>15.52</ele>
        <time>2025-05-15T12:32:54Z</time>
      </trkpt>
      <trkpt lat="42.278702985495329" lon="3.163048038259149">
        <ele>18.399999999999999</ele>
        <time>2025-05-15T12:33:05Z</time>
      </trkpt>
      <trkpt lat="42.279707975685596" lon="3.164849979802966">
        <ele>22.73</ele>
        <time>2025-05-15T12:33:17Z</time>
      </trkpt>
      <trkpt lat="42.280956963077188" lon="3.167152991518378">
        <ele>24.649999999999999</ele>
        <time>2025-05-15T12:33:32Z</time>
      </trkpt>
      <trkpt lat="42.282319022342563" lon="3.16962799988687">
        <ele>28.02</ele>
        <time>2025-05-15T12:33:45Z</time>
      </trkpt>
      <trkpt lat="42.283806977793574" lon="3.172326972708106">
        <ele>32.82</ele>
        <time>2025-05-15T12:33:57Z</time>
      </trkpt>
      <trkpt lat="42.285165013745427" lon="3.174745989963412">
        <ele>34.740000000000002</ele>
        <time>2025-05-15T12:34:08Z</time>
      </trkpt>
      <trkpt lat="42.285948973149061" lon="3.176254983991385">
        <ele>35.710000000000001</ele>
        <time>2025-05-15T12:34:15Z</time>
      </trkpt>
      <trkpt lat="42.286069002002478" lon="3.176709031686187">
        <ele>36.670000000000002</ele>
        <time>2025-05-15T12:34:17Z</time>
      </trkpt>
      <trkpt lat="42.28611602447927" lon="3.176946993917227">
        <ele>37.630000000000003</ele>
        <time>2025-05-15T12:34:18Z</time>
      </trkpt>
      <trkpt lat="42.286433028057218" lon="3.178395973518491">
        <ele>43.399999999999999</ele>
        <time>2025-05-15T12:34:24Z</time>
      </trkpt>
      <trkpt lat="42.286515003070235" lon="3.178623961284757">
        <ele>43.880000000000003</ele>
        <time>2025-05-15T12:34:25Z</time>
      </trkpt>
      <trkpt lat="42.286621034145355" lon="3.17882495932281">
        <ele>44.840000000000003</ele>
        <time>2025-05-15T12:34:26Z</time>
      </trkpt>
      <trkpt lat="42.286749025806785" lon="3.179017994552851">
        <ele>45.32</ele>
        <time>2025-05-15T12:34:27Z</time>
      </trkpt>
      <trkpt lat="42.286878023296595" lon="3.179211029782891">
        <ele>46.280000000000001</ele>
        <time>2025-05-15T12:34:28Z</time>
      </trkpt>
      <trkpt lat="42.287009032443166" lon="3.179404987022281">
        <ele>46.759999999999998</ele>
        <time>2025-05-15T12:34:29Z</time>
      </trkpt>
      <trkpt lat="42.288144025951624" lon="3.180938959121704">
        <ele>53.490000000000002</ele>
        <time>2025-05-15T12:34:38Z</time>
      </trkpt>
      <trkpt lat="42.288785995915532" lon="3.181791985407472">
        <ele>57.82</ele>
        <time>2025-05-15T12:34:43Z</time>
      </trkpt>
      <trkpt lat="42.288941983133554" lon="3.181919977068901">
        <ele>58.780000000000001</ele>
        <time>2025-05-15T12:34:44Z</time>
      </trkpt>
      <trkpt lat="42.289359988644719" lon="3.18221602588892">
        <ele>62.140000000000001</ele>
        <time>2025-05-15T12:34:47Z</time>
      </trkpt>
      <trkpt lat="42.28938496671617" lon="3.182351980358362">
        <ele>63.100000000000001</ele>
        <time>2025-05-15T12:34:48Z</time>
      </trkpt>
      <trkpt lat="42.289402987807989" lon="3.182451976463199">
        <ele>63.579999999999998</ele>
        <time>2025-05-15T12:34:49Z</time>
      </trkpt>
      <trkpt lat="42.289378009736538" lon="3.182575022801757">
        <ele>64.549999999999997</ele>
        <time>2025-05-15T12:34:50Z</time>
      </trkpt>
      <trkpt lat="42.289348002523184" lon="3.182725980877876">
        <ele>65.510000000000005</ele>
        <time>2025-05-15T12:34:51Z</time>
      </trkpt>
      <trkpt lat="42.289316989481449" lon="3.182881968095899">
        <ele>66.469999999999999</ele>
        <time>2025-05-15T12:34:52Z</time>
      </trkpt>
      <trkpt lat="42.289321012794971" lon="3.183044996112585">
        <ele>67.430000000000007</ele>
        <time>2025-05-15T12:34:53Z</time>
      </trkpt>
      <trkpt lat="42.289369963109493" lon="3.183154966682196">
        <ele>68.390000000000001</ele>
        <time>2025-05-15T12:34:54Z</time>
      </trkpt>
      <trkpt lat="42.289442969486117" lon="3.183219004422426">
        <ele>69.349999999999994</ele>
        <time>2025-05-15T12:34:55Z</time>
      </trkpt>
      <trkpt lat="42.28955302387476" lon="3.183288993313909">
        <ele>70.790000000000006</ele>
        <time>2025-05-15T12:34:56Z</time>
      </trkpt>
      <trkpt lat="42.289641033858061" lon="3.183298967778683">
        <ele>71.760000000000005</ele>
        <time>2025-05-15T12:34:57Z</time>
      </trkpt>
      <trkpt lat="42.289767013862729" lon="3.18331397138536">
        <ele>72.719999999999999</ele>
        <time>2025-05-15T12:34:58Z</time>
      </trkpt>
      <trkpt lat="42.29065197519958" lon="3.183475993573666">
        <ele>78</ele>
        <time>2025-05-15T12:35:04Z</time>
      </trkpt>
      <trkpt lat="42.290740991011262" lon="3.183557968586683">
        <ele>78.480000000000004</ele>
        <time>2025-05-15T12:35:05Z</time>
      </trkpt>
      <trkpt lat="42.290819026529789" lon="3.183674979954958">
        <ele>78.969999999999999</ele>
        <time>2025-05-15T12:35:06Z</time>
      </trkpt>
      <trkpt lat="42.290875017642975" lon="3.183838007971644">
        <ele>79.930000000000007</ele>
        <time>2025-05-15T12:35:07Z</time>
      </trkpt>
      <trkpt lat="42.290936959907413" lon="3.184017967432737">
        <ele>80.409999999999997</ele>
        <time>2025-05-15T12:35:08Z</time>
      </trkpt>
      <trkpt lat="42.291141981258988" lon="3.184529012069106">
        <ele>82.810000000000002</ele>
        <time>2025-05-15T12:35:11Z</time>
      </trkpt>
      <trkpt lat="42.291216999292374" lon="3.184647029265761">
        <ele>83.290000000000006</ele>
        <time>2025-05-15T12:35:12Z</time>
      </trkpt>
      <trkpt lat="42.291325964033604" lon="3.184698997065425">
        <ele>84.25</ele>
        <time>2025-05-15T12:35:13Z</time>
      </trkpt>
      <trkpt lat="42.291441969573498" lon="3.184720035642386">
        <ele>85.209999999999994</ele>
        <time>2025-05-15T12:35:14Z</time>
      </trkpt>
      <trkpt lat="42.29157398454845" lon="3.184698997065425">
        <ele>86.180000000000007</ele>
        <time>2025-05-15T12:35:15Z</time>
      </trkpt>
      <trkpt lat="42.291719997301698" lon="3.184677036479116">
        <ele>86.659999999999997</ele>
        <time>2025-05-15T12:35:16Z</time>
      </trkpt>
      <trkpt lat="42.291871961206198" lon="3.184652980417013">
        <ele>87.140000000000001</ele>
        <time>2025-05-15T12:35:17Z</time>
      </trkpt>
      <trkpt lat="42.292011016979814" lon="3.18466798402369">
        <ele>87.620000000000005</ele>
        <time>2025-05-15T12:35:18Z</time>
      </trkpt>
      <trkpt lat="42.292113024741411" lon="3.184739984571934">
        <ele>87.620000000000005</ele>
        <time>2025-05-15T12:35:19Z</time>
      </trkpt>
      <trkpt lat="42.292201034724712" lon="3.184854984283447">
        <ele>88.099999999999994</ele>
        <time>2025-05-15T12:35:20Z</time>
      </trkpt>
      <trkpt lat="42.292302036657929" lon="3.184984987601638">
        <ele>88.579999999999998</ele>
        <time>2025-05-15T12:35:21Z</time>
      </trkpt>
      <trkpt lat="42.292430028319359" lon="3.185082972049713">
        <ele>89.060000000000002</ele>
        <time>2025-05-15T12:35:22Z</time>
      </trkpt>
      <trkpt lat="42.293024975806475" lon="3.185538025572896">
        <ele>91.939999999999998</ele>
        <time>2025-05-15T12:35:26Z</time>
      </trkpt>
      <trkpt lat="42.293196972459555" lon="3.185571972280741">
        <ele>92.900000000000006</ele>
        <time>2025-05-15T12:35:27Z</time>
      </trkpt>
      <trkpt lat="42.293358994647861" lon="3.185599967837334">
        <ele>93.870000000000005</ele>
        <time>2025-05-15T12:35:28Z</time>
      </trkpt>
      <trkpt lat="42.293621012941003" lon="3.185646990314126">
        <ele>95.310000000000002</ele>
        <time>2025-05-15T12:35:30Z</time>
      </trkpt>
      <trkpt lat="42.293666023761034" lon="3.185726031661034">
        <ele>95.790000000000006</ele>
        <time>2025-05-15T12:35:31Z</time>
      </trkpt>
      <trkpt lat="42.2937230207026" lon="3.185850000008941">
        <ele>96.269999999999996</ele>
        <time>2025-05-15T12:35:32Z</time>
      </trkpt>
      <trkpt lat="42.293783035129309" lon="3.185978997498751">
        <ele>96.75</ele>
        <time>2025-05-15T12:35:33Z</time>
      </trkpt>
      <trkpt lat="42.293842965736985" lon="3.186110006645322">
        <ele>97.230000000000004</ele>
        <time>2025-05-15T12:35:34Z</time>
      </trkpt>
      <trkpt lat="42.293932987377048" lon="3.186228023841977">
        <ele>97.709999999999994</ele>
        <time>2025-05-15T12:35:35Z</time>
      </trkpt>
      <trkpt lat="42.294053016230464" lon="3.186286026611924">
        <ele>98.670000000000002</ele>
        <time>2025-05-15T12:35:36Z</time>
      </trkpt>
      <trkpt lat="42.294189976528287" lon="3.186350986361504">
        <ele>99.150000000000006</ele>
        <time>2025-05-15T12:35:37Z</time>
      </trkpt>
      <trkpt lat="42.294328026473522" lon="3.186417035758495">
        <ele>99.629999999999995</ele>
        <time>2025-05-15T12:35:38Z</time>
      </trkpt>
      <trkpt lat="42.294442020356655" lon="3.186504039913416">
        <ele>100.11</ele>
        <time>2025-05-15T12:35:39Z</time>
      </trkpt>
      <trkpt lat="42.29451896622777" lon="3.186633037403226">
        <ele>100.59999999999999</ele>
        <time>2025-05-15T12:35:40Z</time>
      </trkpt>
      <trkpt lat="42.294585015624762" lon="3.186806039884687">
        <ele>101.56</ele>
        <time>2025-05-15T12:35:41Z</time>
      </trkpt>
      <trkpt lat="42.294656010344625" lon="3.186996979638934">
        <ele>103</ele>
        <time>2025-05-15T12:35:42Z</time>
      </trkpt>
      <trkpt lat="42.294730022549629" lon="3.187195966020227">
        <ele>103.95999999999999</ele>
        <time>2025-05-15T12:35:43Z</time>
      </trkpt>
      <trkpt lat="42.294848039746284" lon="3.187376009300351">
        <ele>104.92</ele>
        <time>2025-05-15T12:35:44Z</time>
      </trkpt>
      <trkpt lat="42.294977037236094" lon="3.187552029266954">
        <ele>105.88</ele>
        <time>2025-05-15T12:35:45Z</time>
      </trkpt>
      <trkpt lat="42.295353971421719" lon="3.188003981485963">
        <ele>109.25</ele>
        <time>2025-05-15T12:35:48Z</time>
      </trkpt>
      <trkpt lat="42.295480035245419" lon="3.188110012561083">
        <ele>110.20999999999999</ele>
        <time>2025-05-15T12:35:49Z</time>
      </trkpt>
      <trkpt lat="42.295749010518193" lon="3.188262982293963">
        <ele>112.13</ele>
        <time>2025-05-15T12:35:51Z</time>
      </trkpt>
      <trkpt lat="42.295827968046069" lon="3.188384016975761">
        <ele>113.09</ele>
        <time>2025-05-15T12:35:52Z</time>
      </trkpt>
      <trkpt lat="42.295861998572946" lon="3.188509996980429">
        <ele>114.05</ele>
        <time>2025-05-15T12:35:53Z</time>
      </trkpt>
      <trkpt lat="42.29585001245141" lon="3.188633965328336">
        <ele>115.01000000000001</ele>
        <time>2025-05-15T12:35:54Z</time>
      </trkpt>
      <trkpt lat="42.295784968882799" lon="3.188747959211469">
        <ele>115.98</ele>
        <time>2025-05-15T12:35:55Z</time>
      </trkpt>
      <trkpt lat="42.295682961121202" lon="3.188821971416473">
        <ele>116.94</ele>
        <time>2025-05-15T12:35:56Z</time>
      </trkpt>
      <trkpt lat="42.295565027743578" lon="3.188907969743013">
        <ele>117.90000000000001</ele>
        <time>2025-05-15T12:35:57Z</time>
      </trkpt>
      <trkpt lat="42.295324970036745" lon="3.189081978052855">
        <ele>120.3</ele>
        <time>2025-05-15T12:35:59Z</time>
      </trkpt>
      <trkpt lat="42.295214999467134" lon="3.189230002462864">
        <ele>121.26000000000001</ele>
        <time>2025-05-15T12:36:00Z</time>
      </trkpt>
      <trkpt lat="42.295170994475484" lon="3.18937199190259">
        <ele>122.22</ele>
        <time>2025-05-15T12:36:01Z</time>
      </trkpt>
      <trkpt lat="42.295139981433749" lon="3.189516998827457">
        <ele>122.70999999999999</ele>
        <time>2025-05-15T12:36:02Z</time>
      </trkpt>
      <trkpt lat="42.295139981433749" lon="3.189662005752325">
        <ele>123.19</ele>
        <time>2025-05-15T12:36:03Z</time>
      </trkpt>
      <trkpt lat="42.295153979212046" lon="3.189832996577025">
        <ele>124.15000000000001</ele>
        <time>2025-05-15T12:36:04Z</time>
      </trkpt>
      <trkpt lat="42.29520401917398" lon="3.190030977129936">
        <ele>125.11</ele>
        <time>2025-05-15T12:36:05Z</time>
      </trkpt>
      <trkpt lat="42.29531298391521" lon="3.190456023439765">
        <ele>126.55</ele>
        <time>2025-05-15T12:36:07Z</time>
      </trkpt>
      <trkpt lat="42.295367969200015" lon="3.190670013427734">
        <ele>127.51000000000001</ele>
        <time>2025-05-15T12:36:08Z</time>
      </trkpt>
      <trkpt lat="42.295483974739909" lon="3.190827006474137">
        <ele>128.47</ele>
        <time>2025-05-15T12:36:09Z</time>
      </trkpt>
      <trkpt lat="42.295605009421706" lon="3.190991962328553">
        <ele>129.43000000000001</ele>
        <time>2025-05-15T12:36:10Z</time>
      </trkpt>
      <trkpt lat="42.295723026618361" lon="3.191152978688479">
        <ele>130.40000000000001</ele>
        <time>2025-05-15T12:36:11Z</time>
      </trkpt>
      <trkpt lat="42.295836014673114" lon="3.191306032240391">
        <ele>131.36000000000001</ele>
        <time>2025-05-15T12:36:12Z</time>
      </trkpt>
      <trkpt lat="42.296286039054394" lon="3.191985972225666">
        <ele>137.13</ele>
        <time>2025-05-15T12:36:18Z</time>
      </trkpt>
      <trkpt lat="42.296532969921827" lon="3.192370031028986">
        <ele>140.00999999999999</ele>
        <time>2025-05-15T12:36:22Z</time>
      </trkpt>
      <trkpt lat="42.296577980741858" lon="3.192449994385243">
        <ele>140.97</ele>
        <time>2025-05-15T12:36:23Z</time>
      </trkpt>
      <trkpt lat="42.296590972691774" lon="3.192555019631982">
        <ele>141.93000000000001</ele>
        <time>2025-05-15T12:36:24Z</time>
      </trkpt>
      <trkpt lat="42.296590972691774" lon="3.192644035443664">
        <ele>142.88999999999999</ele>
        <time>2025-05-15T12:36:25Z</time>
      </trkpt>
      <trkpt lat="42.296529030427337" lon="3.192727016285062">
        <ele>143.37</ele>
        <time>2025-05-15T12:36:26Z</time>
      </trkpt>
      <trkpt lat="42.296455018222332" lon="3.1927440315485">
        <ele>143.37</ele>
        <time>2025-05-15T12:36:27Z</time>
      </trkpt>
      <trkpt lat="42.29636499658227" lon="3.192736990749836">
        <ele>143.84999999999999</ele>
        <time>2025-05-15T12:36:28Z</time>
      </trkpt>
      <trkpt lat="42.296265000477433" lon="3.192708995193243">
        <ele>143.84999999999999</ele>
        <time>2025-05-15T12:36:29Z</time>
      </trkpt>
      <trkpt lat="42.296160981059074" lon="3.19268099963665">
        <ele>144.34</ele>
        <time>2025-05-15T12:36:30Z</time>
      </trkpt>
      <trkpt lat="42.296054027974606" lon="3.192651998251677">
        <ele>144.81999999999999</ele>
        <time>2025-05-15T12:36:31Z</time>
      </trkpt>
      <trkpt lat="42.295941961929202" lon="3.192622996866703">
        <ele>145.78</ele>
        <time>2025-05-15T12:36:32Z</time>
      </trkpt>
      <trkpt lat="42.295342991128564" lon="3.192622996866703">
        <ele>149.13999999999999</ele>
        <time>2025-05-15T12:36:37Z</time>
      </trkpt>
      <trkpt lat="42.294316962361336" lon="3.192902030423284">
        <ele>155.38999999999999</ele>
        <time>2025-05-15T12:36:43Z</time>
      </trkpt>
      <trkpt lat="42.29417597874999" lon="3.192972019314766">
        <ele>156.34999999999999</ele>
        <time>2025-05-15T12:36:44Z</time>
      </trkpt>
      <trkpt lat="42.294070031493902" lon="3.193062962964177">
        <ele>157.31</ele>
        <time>2025-05-15T12:36:45Z</time>
      </trkpt>
      <trkpt lat="42.293979004025459" lon="3.19315399043262">
        <ele>158.75</ele>
        <time>2025-05-15T12:36:46Z</time>
      </trkpt>
      <trkpt lat="42.29393801651895" lon="3.193292962387204">
        <ele>159.72</ele>
        <time>2025-05-15T12:36:47Z</time>
      </trkpt>
      <trkpt lat="42.293897029012442" lon="3.193451967090368">
        <ele>160.68000000000001</ele>
        <time>2025-05-15T12:36:48Z</time>
      </trkpt>
      <trkpt lat="42.293854029849172" lon="3.193617006763816">
        <ele>162.12</ele>
        <time>2025-05-15T12:36:49Z</time>
      </trkpt>
      <trkpt lat="42.293859981000423" lon="3.193781962618232">
        <ele>163.08000000000001</ele>
        <time>2025-05-15T12:36:50Z</time>
      </trkpt>
      <trkpt lat="42.293882025405765" lon="3.193963011726737">
        <ele>164.52000000000001</ele>
        <time>2025-05-15T12:36:51Z</time>
      </trkpt>
      <trkpt lat="42.293902980163693" lon="3.194138025864959">
        <ele>165.47999999999999</ele>
        <time>2025-05-15T12:36:52Z</time>
      </trkpt>
      <trkpt lat="42.293945979326963" lon="3.194272974506021">
        <ele>166.93000000000001</ele>
        <time>2025-05-15T12:36:53Z</time>
      </trkpt>
      <trkpt lat="42.29400398209691" lon="3.194401971995831">
        <ele>167.88999999999999</ele>
        <time>2025-05-15T12:36:54Z</time>
      </trkpt>
      <trkpt lat="42.294059973210096" lon="3.194529041647911">
        <ele>168.84999999999999</ele>
        <time>2025-05-15T12:36:55Z</time>
      </trkpt>
      <trkpt lat="42.294130967929959" lon="3.194643035531044">
        <ele>170.28999999999999</ele>
        <time>2025-05-15T12:36:56Z</time>
      </trkpt>
      <trkpt lat="42.294921968132257" lon="3.195648025721312">
        <ele>177.97999999999999</ele>
        <time>2025-05-15T12:37:05Z</time>
      </trkpt>
      <trkpt lat="42.295030010864139" lon="3.195714997127652">
        <ele>178.94</ele>
        <time>2025-05-15T12:37:06Z</time>
      </trkpt>
      <trkpt lat="42.295861998572946" lon="3.19622796960175">
        <ele>186.15000000000001</ele>
        <time>2025-05-15T12:37:14Z</time>
      </trkpt>
      <trkpt lat="42.295931987464428" lon="3.19635302759707">
        <ele>186.63</ele>
        <time>2025-05-15T12:37:15Z</time>
      </trkpt>
      <trkpt lat="42.295980015769601" lon="3.196456041187048">
        <ele>187.11000000000001</ele>
        <time>2025-05-15T12:37:16Z</time>
      </trkpt>
      <trkpt lat="42.296013962477446" lon="3.19656802341342">
        <ele>188.08000000000001</ele>
        <time>2025-05-15T12:37:17Z</time>
      </trkpt>
      <trkpt lat="42.296048998832703" lon="3.196680005639792">
        <ele>189.03999999999999</ele>
        <time>2025-05-15T12:37:18Z</time>
      </trkpt>
      <trkpt lat="42.296122005209327" lon="3.196916962042451">
        <ele>190.47999999999999</ele>
        <time>2025-05-15T12:37:20Z</time>
      </trkpt>
      <trkpt lat="42.29617397300899" lon="3.197031039744616">
        <ele>191.44</ele>
        <time>2025-05-15T12:37:21Z</time>
      </trkpt>
      <trkpt lat="42.296234993264079" lon="3.19712701253593">
        <ele>191.91999999999999</ele>
        <time>2025-05-15T12:37:22Z</time>
      </trkpt>
      <trkpt lat="42.296289978548884" lon="3.197216028347611">
        <ele>192.88</ele>
        <time>2025-05-15T12:37:23Z</time>
      </trkpt>
      <trkpt lat="42.296344041824341" lon="3.19730001501739">
        <ele>193.36000000000001</ele>
        <time>2025-05-15T12:37:24Z</time>
      </trkpt>
      <trkpt lat="42.296398021280766" lon="3.197387019172311">
        <ele>194.31999999999999</ele>
        <time>2025-05-15T12:37:25Z</time>
      </trkpt>
      <trkpt lat="42.296398021280766" lon="3.197492966428399">
        <ele>195.28</ele>
        <time>2025-05-15T12:37:26Z</time>
      </trkpt>
      <trkpt lat="42.296383017674088" lon="3.197612995281816">
        <ele>196.25</ele>
        <time>2025-05-15T12:37:27Z</time>
      </trkpt>
      <trkpt lat="42.296337001025677" lon="3.197712991386652">
        <ele>197.21000000000001</ele>
        <time>2025-05-15T12:37:28Z</time>
      </trkpt>
      <trkpt lat="42.296286039054394" lon="3.197822039946914">
        <ele>198.16999999999999</ele>
        <time>2025-05-15T12:37:29Z</time>
      </trkpt>
      <trkpt lat="42.296205991879106" lon="3.197918012738228">
        <ele>198.65000000000001</ele>
        <time>2025-05-15T12:37:30Z</time>
      </trkpt>
      <trkpt lat="42.296119993552566" lon="3.197999987751246">
        <ele>199.13</ele>
        <time>2025-05-15T12:37:31Z</time>
      </trkpt>
      <trkpt lat="42.296031983569264" lon="3.198083974421024">
        <ele>199.61000000000001</ele>
        <time>2025-05-15T12:37:32Z</time>
      </trkpt>
      <trkpt lat="42.295941039919853" lon="3.198170978575945">
        <ele>200.09</ele>
        <time>2025-05-15T12:37:33Z</time>
      </trkpt>
      <trkpt lat="42.295840037986636" lon="3.19826602935791">
        <ele>200.56999999999999</ele>
        <time>2025-05-15T12:37:34Z</time>
      </trkpt>
      <trkpt lat="42.295772982761264" lon="3.198371976613998">
        <ele>201.05000000000001</ele>
        <time>2025-05-15T12:37:35Z</time>
      </trkpt>
      <trkpt lat="42.295696036890149" lon="3.198492005467415">
        <ele>202.00999999999999</ele>
        <time>2025-05-15T12:37:36Z</time>
      </trkpt>
      <trkpt lat="42.295620013028383" lon="3.198612034320831">
        <ele>202.49000000000001</ele>
        <time>2025-05-15T12:37:37Z</time>
      </trkpt>
      <trkpt lat="42.295539965853095" lon="3.1987380143255">
        <ele>202.49000000000001</ele>
        <time>2025-05-15T12:37:38Z</time>
      </trkpt>
      <trkpt lat="42.295431001111865" lon="3.198809009045363">
        <ele>202.97999999999999</ele>
        <time>2025-05-15T12:37:39Z</time>
      </trkpt>
      <trkpt lat="42.294918028637767" lon="3.199145961552858">
        <ele>206.81999999999999</ele>
        <time>2025-05-15T12:37:45Z</time>
      </trkpt>
      <trkpt lat="42.294871006160975" lon="3.199226008728147">
        <ele>207.30000000000001</ele>
        <time>2025-05-15T12:37:46Z</time>
      </trkpt>
      <trkpt lat="42.294835969805717" lon="3.199288034811616">
        <ele>207.78</ele>
        <time>2025-05-15T12:37:47Z</time>
      </trkpt>
      <trkpt lat="42.294837981462479" lon="3.199344025924802">
        <ele>208.25999999999999</ele>
        <time>2025-05-15T12:37:48Z</time>
      </trkpt>
      <trkpt lat="42.294847033917904" lon="3.199418960139155">
        <ele>208.74000000000001</ele>
        <time>2025-05-15T12:37:49Z</time>
      </trkpt>
      <trkpt lat="42.294875029474497" lon="3.199477968737483">
        <ele>208.74000000000001</ele>
        <time>2025-05-15T12:37:50Z</time>
      </trkpt>
      <trkpt lat="42.294955998659134" lon="3.199518034234643">
        <ele>209.22</ele>
        <time>2025-05-15T12:37:51Z</time>
      </trkpt>
      <trkpt lat="42.295073010027409" lon="3.199574025347829">
        <ele>209.69999999999999</ele>
        <time>2025-05-15T12:37:52Z</time>
      </trkpt>
      <trkpt lat="42.295213993638754" lon="3.199643008410931">
        <ele>210.19</ele>
        <time>2025-05-15T12:37:53Z</time>
      </trkpt>
      <trkpt lat="42.295379033312201" lon="3.199722971767187">
        <ele>210.19</ele>
        <time>2025-05-15T12:37:54Z</time>
      </trkpt>
      <trkpt lat="42.295556981116533" lon="3.199808970093727">
        <ele>210.66999999999999</ele>
        <time>2025-05-15T12:37:55Z</time>
      </trkpt>
      <trkpt lat="42.296273969113827" lon="3.200156986713409">
        <ele>212.59</ele>
        <time>2025-05-15T12:37:59Z</time>
      </trkpt>
      <trkpt lat="42.296410007402301" lon="3.200294030830264">
        <ele>213.06999999999999</ele>
        <time>2025-05-15T12:38:00Z</time>
      </trkpt>
      <trkpt lat="42.296540010720491" lon="3.200452029705048">
        <ele>214.03</ele>
        <time>2025-05-15T12:38:01Z</time>
      </trkpt>
      <trkpt lat="42.296664984896779" lon="3.200617991387844">
        <ele>214.50999999999999</ele>
        <time>2025-05-15T12:38:02Z</time>
      </trkpt>
      <trkpt lat="42.296780990436673" lon="3.200787976384163">
        <ele>214.99000000000001</ele>
        <time>2025-05-15T12:38:03Z</time>
      </trkpt>
      <trkpt lat="42.296888027340174" lon="3.200945975258946">
        <ele>215.94999999999999</ele>
        <time>2025-05-15T12:38:04Z</time>
      </trkpt>
      <trkpt lat="42.296985005959868" lon="3.201088970527053">
        <ele>216.91</ele>
        <time>2025-05-15T12:38:05Z</time>
      </trkpt>
      <trkpt lat="42.297048037871718" lon="3.201233977451921">
        <ele>218.36000000000001</ele>
        <time>2025-05-15T12:38:06Z</time>
      </trkpt>
      <trkpt lat="42.297082990407944" lon="3.201369009912014">
        <ele>218.84</ele>
        <time>2025-05-15T12:38:07Z</time>
      </trkpt>
      <trkpt lat="42.297063041478395" lon="3.201528014615178">
        <ele>219.80000000000001</ele>
        <time>2025-05-15T12:38:08Z</time>
      </trkpt>
      <trkpt lat="42.296978970989585" lon="3.201644020155072">
        <ele>220.75999999999999</ele>
        <time>2025-05-15T12:38:09Z</time>
      </trkpt>
      <trkpt lat="42.296869000419974" lon="3.201778968796134">
        <ele>221.72</ele>
        <time>2025-05-15T12:38:10Z</time>
      </trkpt>
      <trkpt lat="42.296718964353204" lon="3.201880976557732">
        <ele>222.68000000000001</ele>
        <time>2025-05-15T12:38:11Z</time>
      </trkpt>
      <trkpt lat="42.296562977135181" lon="3.201986001804471">
        <ele>223.63999999999999</ele>
        <time>2025-05-15T12:38:12Z</time>
      </trkpt>
      <trkpt lat="42.296412019059062" lon="3.202089015394449">
        <ele>224.61000000000001</ele>
        <time>2025-05-15T12:38:13Z</time>
      </trkpt>
      <trkpt lat="42.296290984377265" lon="3.202170990407467">
        <ele>226.05000000000001</ele>
        <time>2025-05-15T12:38:14Z</time>
      </trkpt>
      <trkpt lat="42.296185959130526" lon="3.20232898928225">
        <ele>227.00999999999999</ele>
        <time>2025-05-15T12:38:15Z</time>
      </trkpt>
      <trkpt lat="42.296112030744553" lon="3.202473996207118">
        <ele>228.44999999999999</ele>
        <time>2025-05-15T12:38:16Z</time>
      </trkpt>
      <trkpt lat="42.296080011874437" lon="3.202679017558694">
        <ele>229.88999999999999</ele>
        <time>2025-05-15T12:38:17Z</time>
      </trkpt>
      <trkpt lat="42.2960439696908" lon="3.202910022810102">
        <ele>231.81</ele>
        <time>2025-05-15T12:38:18Z</time>
      </trkpt>
      <trkpt lat="42.29600197635591" lon="3.203147985041142">
        <ele>232.78</ele>
        <time>2025-05-15T12:38:19Z</time>
      </trkpt>
      <trkpt lat="42.29593500494957" lon="3.203364992514253">
        <ele>234.69999999999999</ele>
        <time>2025-05-15T12:38:20Z</time>
      </trkpt>
      <trkpt lat="42.295878008008003" lon="3.20355199277401">
        <ele>236.13999999999999</ele>
        <time>2025-05-15T12:38:21Z</time>
      </trkpt>
      <trkpt lat="42.295840037986636" lon="3.203673027455807">
        <ele>237.09999999999999</ele>
        <time>2025-05-15T12:38:22Z</time>
      </trkpt>
      <trkpt lat="42.2958729788661" lon="3.203861033543944">
        <ele>237.58000000000001</ele>
        <time>2025-05-15T12:38:23Z</time>
      </trkpt>
      <trkpt lat="42.295906003564596" lon="3.204049039632082">
        <ele>238.53999999999999</ele>
        <time>2025-05-15T12:38:24Z</time>
      </trkpt>
      <trkpt lat="42.296013962477446" lon="3.204692015424371">
        <ele>241.91</ele>
        <time>2025-05-15T12:38:27Z</time>
      </trkpt>
      <trkpt lat="42.296025026589632" lon="3.204897036775947">
        <ele>242.87</ele>
        <time>2025-05-15T12:38:28Z</time>
      </trkpt>
      <trkpt lat="42.296032989397645" lon="3.205046989023686">
        <ele>243.83000000000001</ele>
        <time>2025-05-15T12:38:29Z</time>
      </trkpt>
      <trkpt lat="42.295999964699149" lon="3.205214040353894">
        <ele>244.31</ele>
        <time>2025-05-15T12:38:30Z</time>
      </trkpt>
      <trkpt lat="42.295943973585963" lon="3.205290986225009">
        <ele>244.78999999999999</ele>
        <time>2025-05-15T12:38:31Z</time>
      </trkpt>
      <trkpt lat="42.295854035764933" lon="3.205347983166575">
        <ele>245.75</ele>
        <time>2025-05-15T12:38:32Z</time>
      </trkpt>
      <trkpt lat="42.295754039660096" lon="3.205411015078425">
        <ele>246.22999999999999</ele>
        <time>2025-05-15T12:38:33Z</time>
      </trkpt>
      <trkpt lat="42.295642979443073" lon="3.205407997593284">
        <ele>246.22999999999999</ele>
        <time>2025-05-15T12:38:34Z</time>
      </trkpt>
      <trkpt lat="42.295510964468122" lon="3.205403974279761">
        <ele>246.72</ele>
        <time>2025-05-15T12:38:35Z</time>
      </trkpt>
      <trkpt lat="42.295383978635073" lon="3.20539902895689">
        <ele>247.68000000000001</ele>
        <time>2025-05-15T12:38:36Z</time>
      </trkpt>
      <trkpt lat="42.295110980048776" lon="3.205389976501465">
        <ele>248.63999999999999</ele>
        <time>2025-05-15T12:38:38Z</time>
      </trkpt>
      <trkpt lat="42.295047026127577" lon="3.205454014241695">
        <ele>249.12</ele>
        <time>2025-05-15T12:38:39Z</time>
      </trkpt>
      <trkpt lat="42.294959016144276" lon="3.205575970932841">
        <ele>250.08000000000001</ele>
        <time>2025-05-15T12:38:40Z</time>
      </trkpt>
      <trkpt lat="42.294330960139632" lon="3.206612979993224">
        <ele>255.84999999999999</ele>
        <time>2025-05-15T12:38:47Z</time>
      </trkpt>
      <trkpt lat="42.293812958523631" lon="3.207265008240938">
        <ele>257.76999999999998</ele>
        <time>2025-05-15T12:38:51Z</time>
      </trkpt>
      <trkpt lat="42.29365898296237" lon="3.207387970760465">
        <ele>257.76999999999998</ele>
        <time>2025-05-15T12:38:52Z</time>
      </trkpt>
      <trkpt lat="42.293500984087586" lon="3.207514034584165">
        <ele>258.25</ele>
        <time>2025-05-15T12:38:53Z</time>
      </trkpt>
      <trkpt lat="42.293336028233171" lon="3.2075260207057">
        <ele>258.73000000000002</ele>
        <time>2025-05-15T12:38:54Z</time>
      </trkpt>
      <trkpt lat="42.293157996609807" lon="3.207539012655616">
        <ele>258.73000000000002</ele>
        <time>2025-05-15T12:38:55Z</time>
      </trkpt>
      <trkpt lat="42.29297099635005" lon="3.207552004605532">
        <ele>258.73000000000002</ele>
        <time>2025-05-15T12:38:56Z</time>
      </trkpt>
      <trkpt lat="42.29277896694839" lon="3.207566002383828">
        <ele>259.20999999999998</ele>
        <time>2025-05-15T12:38:57Z</time>
      </trkpt>
      <trkpt lat="42.292579980567098" lon="3.207585029304028">
        <ele>259.20999999999998</ele>
        <time>2025-05-15T12:38:58Z</time>
      </trkpt>
      <trkpt lat="42.292379988357425" lon="3.207652000710368">
        <ele>259.69</ele>
        <time>2025-05-15T12:38:59Z</time>
      </trkpt>
      <trkpt lat="42.291963994503021" lon="3.207790972664952">
        <ele>260.64999999999998</ele>
        <time>2025-05-15T12:39:01Z</time>
      </trkpt>
      <trkpt lat="42.291757967323065" lon="3.207895997911692">
        <ele>261.62</ele>
        <time>2025-05-15T12:39:02Z</time>
      </trkpt>
      <trkpt lat="42.291253041476011" lon="3.208163967356086">
        <ele>263.54000000000002</ele>
        <time>2025-05-15T12:39:05Z</time>
      </trkpt>
      <trkpt lat="42.291095964610577" lon="3.208162961527705">
        <ele>264.01999999999998</ele>
        <time>2025-05-15T12:39:06Z</time>
      </trkpt>
      <trkpt lat="42.290924973785877" lon="3.208135971799493">
        <ele>264.98000000000002</ele>
        <time>2025-05-15T12:39:07Z</time>
      </trkpt>
      <trkpt lat="42.290767980739474" lon="3.20804201066494">
        <ele>264.98000000000002</ele>
        <time>2025-05-15T12:39:08Z</time>
      </trkpt>
      <trkpt lat="42.290606964379549" lon="3.207945032045245">
        <ele>265.45999999999998</ele>
        <time>2025-05-15T12:39:09Z</time>
      </trkpt>
      <trkpt lat="42.290449971333146" lon="3.207850987091661">
        <ele>265.45999999999998</ele>
        <time>2025-05-15T12:39:10Z</time>
      </trkpt>
      <trkpt lat="42.290313011035323" lon="3.207768006250262">
        <ele>265.94</ele>
        <time>2025-05-15T12:39:11Z</time>
      </trkpt>
      <trkpt lat="42.290188958868384" lon="3.207771023735404">
        <ele>265.94</ele>
        <time>2025-05-15T12:39:12Z</time>
      </trkpt>
      <trkpt lat="42.290089968591928" lon="3.207792984321713">
        <ele>266.42000000000002</ele>
        <time>2025-05-15T12:39:13Z</time>
      </trkpt>
      <trkpt lat="42.290021991357207" lon="3.207877976819873">
        <ele>266.42000000000002</ele>
        <time>2025-05-15T12:39:14Z</time>
      </trkpt>
      <trkpt lat="42.289978992193937" lon="3.208003034815192">
        <ele>266.89999999999998</ele>
        <time>2025-05-15T12:39:15Z</time>
      </trkpt>
      <trkpt lat="42.289939010515809" lon="3.20817100815475">
        <ele>267.38</ele>
        <time>2025-05-15T12:39:16Z</time>
      </trkpt>
      <trkpt lat="42.2898980230093" lon="3.20834401063621">
        <ele>267.38</ele>
        <time>2025-05-15T12:39:17Z</time>
      </trkpt>
      <trkpt lat="42.289802972227335" lon="3.208484994247556">
        <ele>267.86000000000001</ele>
        <time>2025-05-15T12:39:18Z</time>
      </trkpt>
      <trkpt lat="42.289617983624339" lon="3.208749024197459">
        <ele>268.35000000000002</ele>
        <time>2025-05-15T12:39:20Z</time>
      </trkpt>
      <trkpt lat="42.289557969197631" lon="3.20892496034503">
        <ele>268.82999999999998</ele>
        <time>2025-05-15T12:39:21Z</time>
      </trkpt>
      <trkpt lat="42.289503989741206" lon="3.209128975868225">
        <ele>268.82999999999998</ele>
        <time>2025-05-15T12:39:22Z</time>
      </trkpt>
      <trkpt lat="42.289311038330197" lon="3.209773041307926">
        <ele>269.31</ele>
        <time>2025-05-15T12:39:25Z</time>
      </trkpt>
      <trkpt lat="42.289208024740219" lon="3.209973033517599">
        <ele>269.79000000000002</ele>
        <time>2025-05-15T12:39:26Z</time>
      </trkpt>
      <trkpt lat="42.28908103890717" lon="3.210132038220763">
        <ele>270.26999999999998</ele>
        <time>2025-05-15T12:39:27Z</time>
      </trkpt>
      <trkpt lat="42.288917005062103" lon="3.210290037095547">
        <ele>270.75</ele>
        <time>2025-05-15T12:39:28Z</time>
      </trkpt>
      <trkpt lat="42.288764035329223" lon="3.210437977686524">
        <ele>271.23000000000002</ele>
        <time>2025-05-15T12:39:29Z</time>
      </trkpt>
      <trkpt lat="42.28850201703608" lon="3.210690021514893">
        <ele>271.70999999999998</ele>
        <time>2025-05-15T12:39:31Z</time>
      </trkpt>
      <trkpt lat="42.28839498013258" lon="3.210851037874818">
        <ele>271.70999999999998</ele>
        <time>2025-05-15T12:39:32Z</time>
      </trkpt>
      <trkpt lat="42.288366984575987" lon="3.210970982909203">
        <ele>271.70999999999998</ele>
        <time>2025-05-15T12:39:33Z</time>
      </trkpt>
      <trkpt lat="42.288358015939593" lon="3.211097968742251">
        <ele>271.70999999999998</ele>
        <time>2025-05-15T12:39:34Z</time>
      </trkpt>
      <trkpt lat="42.288362961262465" lon="3.211214980110526">
        <ele>271.70999999999998</ele>
        <time>2025-05-15T12:39:35Z</time>
      </trkpt>
      <trkpt lat="42.288414007052779" lon="3.211359987035394">
        <ele>271.70999999999998</ele>
        <time>2025-05-15T12:39:36Z</time>
      </trkpt>
      <trkpt lat="42.288469998165965" lon="3.211517985910177">
        <ele>271.70999999999998</ele>
        <time>2025-05-15T12:39:37Z</time>
      </trkpt>
      <trkpt lat="42.288627997040749" lon="3.212048979476094">
        <ele>272.67000000000002</ele>
        <time>2025-05-15T12:39:40Z</time>
      </trkpt>
      <trkpt lat="42.28865004144609" lon="3.212222987785935">
        <ele>272.67000000000002</ele>
        <time>2025-05-15T12:39:41Z</time>
      </trkpt>
      <trkpt lat="42.288640988990664" lon="3.212408982217312">
        <ele>272.67000000000002</ele>
        <time>2025-05-15T12:39:42Z</time>
      </trkpt>
      <trkpt lat="42.28863101452589" lon="3.212603023275733">
        <ele>273.14999999999998</ele>
        <time>2025-05-15T12:39:43Z</time>
      </trkpt>
      <trkpt lat="42.288660015910864" lon="3.212806032970548">
        <ele>273.14999999999998</ele>
        <time>2025-05-15T12:39:44Z</time>
      </trkpt>
      <trkpt lat="42.288693962618709" lon="3.213020022958517">
        <ele>273.63</ele>
        <time>2025-05-15T12:39:45Z</time>
      </trkpt>
      <trkpt lat="42.288937037810683" lon="3.214321983978152">
        <ele>277.95999999999998</ele>
        <time>2025-05-15T12:39:52Z</time>
      </trkpt>
      <trkpt lat="42.28895204141736" lon="3.21450999006629">
        <ele>278.92000000000002</ele>
        <time>2025-05-15T12:39:53Z</time>
      </trkpt>
      <trkpt lat="42.288929997012019" lon="3.21465902030468">
        <ele>279.39999999999998</ele>
        <time>2025-05-15T12:39:54Z</time>
      </trkpt>
      <trkpt lat="42.288849027827382" lon="3.215210968628526">
        <ele>279.88</ele>
        <time>2025-05-15T12:39:57Z</time>
      </trkpt>
      <trkpt lat="42.288785995915532" lon="3.215379025787115">
        <ele>279.88</ele>
        <time>2025-05-15T12:39:58Z</time>
      </trkpt>
      <trkpt lat="42.288710977882147" lon="3.215556973591447">
        <ele>280.36000000000001</ele>
        <time>2025-05-15T12:39:59Z</time>
      </trkpt>
      <trkpt lat="42.288457006216049" lon="3.216089978814125">
        <ele>280.36000000000001</ele>
        <time>2025-05-15T12:40:02Z</time>
      </trkpt>
      <trkpt lat="42.28841601870954" lon="3.216226017102599">
        <ele>280.36000000000001</ele>
        <time>2025-05-15T12:40:03Z</time>
      </trkpt>
      <trkpt lat="42.288446025922894" lon="3.216360965743661">
        <ele>279.88</ele>
        <time>2025-05-15T12:40:04Z</time>
      </trkpt>
      <trkpt lat="42.288494976237416" lon="3.216473031789064">
        <ele>279.39999999999998</ele>
        <time>2025-05-15T12:40:05Z</time>
      </trkpt>
      <trkpt lat="42.288590027019382" lon="3.216573027893901">
        <ele>279.39999999999998</ele>
        <time>2025-05-15T12:40:06Z</time>
      </trkpt>
      <trkpt lat="42.288726987317204" lon="3.216647040098906">
        <ele>278.92000000000002</ele>
        <time>2025-05-15T12:40:07Z</time>
      </trkpt>
      <trkpt lat="42.288873000070453" lon="3.216725997626782">
        <ele>278.92000000000002</ele>
        <time>2025-05-15T12:40:08Z</time>
      </trkpt>
      <trkpt lat="42.289009960368276" lon="3.216800009831786">
        <ele>278.92000000000002</ele>
        <time>2025-05-15T12:40:09Z</time>
      </trkpt>
      <trkpt lat="42.289149016141891" lon="3.21682901121676">
        <ele>279.39999999999998</ele>
        <time>2025-05-15T12:40:10Z</time>
      </trkpt>
      <trkpt lat="42.289282036945224" lon="3.216832028701901">
        <ele>279.88</ele>
        <time>2025-05-15T12:40:11Z</time>
      </trkpt>
      <trkpt lat="42.289415979757905" lon="3.216834962368012">
        <ele>279.88</ele>
        <time>2025-05-15T12:40:12Z</time>
      </trkpt>
      <trkpt lat="42.290157023817301" lon="3.216865975409746">
        <ele>281.80000000000001</ele>
        <time>2025-05-15T12:40:18Z</time>
      </trkpt>
      <trkpt lat="42.290255008265376" lon="3.216906040906906">
        <ele>281.80000000000001</ele>
        <time>2025-05-15T12:40:19Z</time>
      </trkpt>
      <trkpt lat="42.290356010198593" lon="3.216968988999724">
        <ele>281.80000000000001</ele>
        <time>2025-05-15T12:40:20Z</time>
      </trkpt>
      <trkpt lat="42.291342979297042" lon="3.217896027490497">
        <ele>279.39999999999998</ele>
        <time>2025-05-15T12:40:30Z</time>
      </trkpt>
      <trkpt lat="42.291420008987188" lon="3.218028964474797">
        <ele>279.39999999999998</ele>
        <time>2025-05-15T12:40:31Z</time>
      </trkpt>
      <trkpt lat="42.291452027857304" lon="3.218197021633387">
        <ele>278.92000000000002</ele>
        <time>2025-05-15T12:40:32Z</time>
      </trkpt>
      <trkpt lat="42.291604997590184" lon="3.2191720046103">
        <ele>277.95999999999998</ele>
        <time>2025-05-15T12:40:37Z</time>
      </trkpt>
      <trkpt lat="42.29159502312541" lon="3.219328997656703">
        <ele>277.48000000000002</ele>
        <time>2025-05-15T12:40:38Z</time>
      </trkpt>
      <trkpt lat="42.291555041447282" lon="3.219459000974894">
        <ele>277.48000000000002</ele>
        <time>2025-05-15T12:40:39Z</time>
      </trkpt>
      <trkpt lat="42.291498966515064" lon="3.21958196349442">
        <ele>277.48000000000002</ele>
        <time>2025-05-15T12:40:40Z</time>
      </trkpt>
      <trkpt lat="42.291463008150458" lon="3.219658993184567">
        <ele>277</ele>
        <time>2025-05-15T12:40:41Z</time>
      </trkpt>
      <trkpt lat="42.291410034522414" lon="3.219691012054682">
        <ele>277</ele>
        <time>2025-05-15T12:40:42Z</time>
      </trkpt>
      <trkpt lat="42.291368041187525" lon="3.219715990126133">
        <ele>276.51999999999998</ele>
        <time>2025-05-15T12:40:43Z</time>
      </trkpt>
      <trkpt lat="42.291314983740449" lon="3.21970802731812">
        <ele>276.04000000000002</ele>
        <time>2025-05-15T12:40:44Z</time>
      </trkpt>
      <trkpt lat="42.291246000677347" lon="3.219681959599257">
        <ele>275.56</ele>
        <time>2025-05-15T12:40:45Z</time>
      </trkpt>
      <trkpt lat="42.291160002350807" lon="3.219649018719792">
        <ele>275.06999999999999</ele>
        <time>2025-05-15T12:40:46Z</time>
      </trkpt>
      <trkpt lat="42.291063023731112" lon="3.219611970707774">
        <ele>274.58999999999997</ele>
        <time>2025-05-15T12:40:47Z</time>
      </trkpt>
      <trkpt lat="42.290957998484373" lon="3.219571989029646">
        <ele>274.58999999999997</ele>
        <time>2025-05-15T12:40:48Z</time>
      </trkpt>
      <trkpt lat="42.290853979066014" lon="3.219552040100098">
        <ele>274.11000000000001</ele>
        <time>2025-05-15T12:40:49Z</time>
      </trkpt>
      <trkpt lat="42.290748031809926" lon="3.219552040100098">
        <ele>274.11000000000001</ele>
        <time>2025-05-15T12:40:50Z</time>
      </trkpt>
      <trkpt lat="42.290453994646668" lon="3.219677014276385">
        <ele>273.14999999999998</ele>
        <time>2025-05-15T12:40:53Z</time>
      </trkpt>
      <trkpt lat="42.290378976613283" lon="3.219737028703094">
        <ele>273.14999999999998</ele>
        <time>2025-05-15T12:40:54Z</time>
      </trkpt>
      <trkpt lat="42.290333965793252" lon="3.219824032858014">
        <ele>273.14999999999998</ele>
        <time>2025-05-15T12:40:55Z</time>
      </trkpt>
      <trkpt lat="42.290283003821969" lon="3.219938026741147">
        <ele>272.67000000000002</ele>
        <time>2025-05-15T12:40:56Z</time>
      </trkpt>
      <trkpt lat="42.290258025750518" lon="3.220059983432293">
        <ele>273.14999999999998</ele>
        <time>2025-05-15T12:40:57Z</time>
      </trkpt>
      <trkpt lat="42.290231036022305" lon="3.220198033377528">
        <ele>273.14999999999998</ele>
        <time>2025-05-15T12:40:58Z</time>
      </trkpt>
      <trkpt lat="42.290176972746849" lon="3.220467008650303">
        <ele>272.67000000000002</ele>
        <time>2025-05-15T12:41:00Z</time>
      </trkpt>
      <trkpt lat="42.290119975805283" lon="3.220555018633604">
        <ele>272.67000000000002</ele>
        <time>2025-05-15T12:41:01Z</time>
      </trkpt>
      <trkpt lat="42.290059039369226" lon="3.220641016960144">
        <ele>272.19</ele>
        <time>2025-05-15T12:41:02Z</time>
      </trkpt>
      <trkpt lat="42.28998402133584" lon="3.220710000023246">
        <ele>272.19</ele>
        <time>2025-05-15T12:41:03Z</time>
      </trkpt>
      <trkpt lat="42.289886036887765" lon="3.220759034156799">
        <ele>271.70999999999998</ele>
        <time>2025-05-15T12:41:04Z</time>
      </trkpt>
      <trkpt lat="42.289679003879428" lon="3.220862969756126">
        <ele>271.23000000000002</ele>
        <time>2025-05-15T12:41:06Z</time>
      </trkpt>
      <trkpt lat="42.289337022230029" lon="3.221043013036251">
        <ele>271.23000000000002</ele>
        <time>2025-05-15T12:41:09Z</time>
      </trkpt>
      <trkpt lat="42.289221016690135" lon="3.221125993877649">
        <ele>271.23000000000002</ele>
        <time>2025-05-15T12:41:10Z</time>
      </trkpt>
      <trkpt lat="42.288865959271789" lon="3.221381977200508">
        <ele>271.23000000000002</ele>
        <time>2025-05-15T12:41:13Z</time>
      </trkpt>
      <trkpt lat="42.288740985095501" lon="3.221426988020539">
        <ele>271.70999999999998</ele>
        <time>2025-05-15T12:41:14Z</time>
      </trkpt>
      <trkpt lat="42.287528961896896" lon="3.22177198715508">
        <ele>271.23000000000002</ele>
        <time>2025-05-15T12:41:22Z</time>
      </trkpt>
      <trkpt lat="42.287265015766025" lon="3.221848011016846">
        <ele>271.23000000000002</ele>
        <time>2025-05-15T12:41:24Z</time>
      </trkpt>
      <trkpt lat="42.28717097081244" lon="3.22190098464489">
        <ele>271.23000000000002</ele>
        <time>2025-05-15T12:41:25Z</time>
      </trkpt>
      <trkpt lat="42.28710601106286" lon="3.221991006284952">
        <ele>271.23000000000002</ele>
        <time>2025-05-15T12:41:26Z</time>
      </trkpt>
      <trkpt lat="42.287091007456183" lon="3.222069963812828">
        <ele>271.23000000000002</ele>
        <time>2025-05-15T12:41:27Z</time>
      </trkpt>
      <trkpt lat="42.287103999406099" lon="3.222188986837864">
        <ele>271.70999999999998</ele>
        <time>2025-05-15T12:41:28Z</time>
      </trkpt>
      <trkpt lat="42.287153033539653" lon="3.222252018749714">
        <ele>271.70999999999998</ele>
        <time>2025-05-15T12:41:29Z</time>
      </trkpt>
      <trkpt lat="42.28725696913898" lon="3.222342040389776">
        <ele>271.70999999999998</ele>
        <time>2025-05-15T12:41:30Z</time>
      </trkpt>
      <trkpt lat="42.287353025749326" lon="3.22235201485455">
        <ele>271.70999999999998</ele>
        <time>2025-05-15T12:41:31Z</time>
      </trkpt>
      <trkpt lat="42.287496021017432" lon="3.222368024289608">
        <ele>272.19</ele>
        <time>2025-05-15T12:41:32Z</time>
      </trkpt>
      <trkpt lat="42.288584997877479" lon="3.22250397875905">
        <ele>271.70999999999998</ele>
        <time>2025-05-15T12:41:38Z</time>
      </trkpt>
      <trkpt lat="42.288754982873797" lon="3.222530968487263">
        <ele>271.23000000000002</ele>
        <time>2025-05-15T12:41:39Z</time>
      </trkpt>
      <trkpt lat="42.288922034204006" lon="3.222601041197777">
        <ele>271.23000000000002</ele>
        <time>2025-05-15T12:41:40Z</time>
      </trkpt>
      <trkpt lat="42.289475994184613" lon="3.222859036177397">
        <ele>269.79000000000002</ele>
        <time>2025-05-15T12:41:43Z</time>
      </trkpt>
      <trkpt lat="42.289679003879428" lon="3.222908992320299">
        <ele>269.79000000000002</ele>
        <time>2025-05-15T12:41:44Z</time>
      </trkpt>
      <trkpt lat="42.290291972458363" lon="3.22306296788156">
        <ele>268.82999999999998</ele>
        <time>2025-05-15T12:41:47Z</time>
      </trkpt>
      <trkpt lat="42.290492970496416" lon="3.2231489662081">
        <ele>268.35000000000002</ele>
        <time>2025-05-15T12:41:48Z</time>
      </trkpt>
      <trkpt lat="42.291883025318384" lon="3.223869977518916">
        <ele>266.42000000000002</ele>
        <time>2025-05-15T12:41:55Z</time>
      </trkpt>
      <trkpt lat="42.292026020586491" lon="3.224016996100545">
        <ele>265.94</ele>
        <time>2025-05-15T12:41:56Z</time>
      </trkpt>
      <trkpt lat="42.292156023904681" lon="3.224172983318567">
        <ele>265.45999999999998</ele>
        <time>2025-05-15T12:41:57Z</time>
      </trkpt>
      <trkpt lat="42.292271023616195" lon="3.224333999678493">
        <ele>265.45999999999998</ele>
        <time>2025-05-15T12:41:58Z</time>
      </trkpt>
      <trkpt lat="42.292337995022535" lon="3.224525023251772">
        <ele>264.98000000000002</ele>
        <time>2025-05-15T12:41:59Z</time>
      </trkpt>
      <trkpt lat="42.292397003620863" lon="3.224727027118206">
        <ele>264.5</ele>
        <time>2025-05-15T12:42:00Z</time>
      </trkpt>
      <trkpt lat="42.29243497364223" lon="3.224943028762937">
        <ele>264.5</ele>
        <time>2025-05-15T12:42:01Z</time>
      </trkpt>
      <trkpt lat="42.292467998340726" lon="3.225135980173945">
        <ele>264.01999999999998</ele>
        <time>2025-05-15T12:42:02Z</time>
      </trkpt>
      <trkpt lat="42.292533041909337" lon="3.225276041775942">
        <ele>263.54000000000002</ele>
        <time>2025-05-15T12:42:03Z</time>
      </trkpt>
      <trkpt lat="42.292631026357412" lon="3.225309988483787">
        <ele>263.54000000000002</ele>
        <time>2025-05-15T12:42:04Z</time>
      </trkpt>
      <trkpt lat="42.292749965563416" lon="3.225346030667424">
        <ele>263.06</ele>
        <time>2025-05-15T12:42:05Z</time>
      </trkpt>
      <trkpt lat="42.292878041043878" lon="3.225325997918844">
        <ele>263.06</ele>
        <time>2025-05-15T12:42:06Z</time>
      </trkpt>
      <trkpt lat="42.293027993291616" lon="3.225302025675774">
        <ele>263.06</ele>
        <time>2025-05-15T12:42:07Z</time>
      </trkpt>
      <trkpt lat="42.293318007141352" lon="3.22529599070549">
        <ele>262.57999999999998</ele>
        <time>2025-05-15T12:42:09Z</time>
      </trkpt>
      <trkpt lat="42.293419009074569" lon="3.225332032889128">
        <ele>262.10000000000002</ele>
        <time>2025-05-15T12:42:10Z</time>
      </trkpt>
      <trkpt lat="42.293493021279573" lon="3.225420964881778">
        <ele>261.62</ele>
        <time>2025-05-15T12:42:11Z</time>
      </trkpt>
      <trkpt lat="42.293580025434494" lon="3.225525990128517">
        <ele>261.13999999999999</ele>
        <time>2025-05-15T12:42:12Z</time>
      </trkpt>
      <trkpt lat="42.293652025982738" lon="3.225676026195288">
        <ele>260.64999999999998</ele>
        <time>2025-05-15T12:42:13Z</time>
      </trkpt>
      <trkpt lat="42.293721009045839" lon="3.225859003141522">
        <ele>260.17000000000002</ele>
        <time>2025-05-15T12:42:14Z</time>
      </trkpt>
      <trkpt lat="42.293801978230476" lon="3.226075004786253">
        <ele>259.69</ele>
        <time>2025-05-15T12:42:15Z</time>
      </trkpt>
      <trkpt lat="42.293838020414114" lon="3.226297041401267">
        <ele>259.20999999999998</ele>
        <time>2025-05-15T12:42:16Z</time>
      </trkpt>
      <trkpt lat="42.293914966285229" lon="3.226772965863347">
        <ele>258.73000000000002</ele>
        <time>2025-05-15T12:42:18Z</time>
      </trkpt>
      <trkpt lat="42.293930975720286" lon="3.227010006085038">
        <ele>258.73000000000002</ele>
        <time>2025-05-15T12:42:19Z</time>
      </trkpt>
      <trkpt lat="42.293915972113609" lon="3.227268001064658">
        <ele>258.25</ele>
        <time>2025-05-15T12:42:20Z</time>
      </trkpt>
      <trkpt lat="42.293753027915955" lon="3.228938011452556">
        <ele>257.76999999999998</ele>
        <time>2025-05-15T12:42:26Z</time>
      </trkpt>
      <trkpt lat="42.293685972690582" lon="3.229112019762397">
        <ele>257.29000000000002</ele>
        <time>2025-05-15T12:42:27Z</time>
      </trkpt>
      <trkpt lat="42.293584970757365" lon="3.229245962575078">
        <ele>256.81</ele>
        <time>2025-05-15T12:42:28Z</time>
      </trkpt>
      <trkpt lat="42.292738985270262" lon="3.230155985802412">
        <ele>253.44</ele>
        <time>2025-05-15T12:42:34Z</time>
      </trkpt>
      <trkpt lat="42.292569000273943" lon="3.230277020484209">
        <ele>252.47999999999999</ele>
        <time>2025-05-15T12:42:35Z</time>
      </trkpt>
      <trkpt lat="42.292398009449244" lon="3.230373999103904">
        <ele>251.52000000000001</ele>
        <time>2025-05-15T12:42:36Z</time>
      </trkpt>
      <trkpt lat="42.292237998917699" lon="3.23043099604547">
        <ele>250.56</ele>
        <time>2025-05-15T12:42:37Z</time>
      </trkpt>
      <trkpt lat="42.292084023356438" lon="3.23043099604547">
        <ele>249.12</ele>
        <time>2025-05-15T12:42:38Z</time>
      </trkpt>
      <trkpt lat="42.291925018653274" lon="3.23043099604547">
        <ele>248.16</ele>
        <time>2025-05-15T12:42:39Z</time>
      </trkpt>
      <trkpt lat="42.291785040870309" lon="3.23043099604547">
        <ele>246.72</ele>
        <time>2025-05-15T12:42:40Z</time>
      </trkpt>
      <trkpt lat="42.291696025058627" lon="3.23049696162343">
        <ele>245.75</ele>
        <time>2025-05-15T12:42:41Z</time>
      </trkpt>
      <trkpt lat="42.291612960398197" lon="3.23055999353528">
        <ele>245.27000000000001</ele>
        <time>2025-05-15T12:42:42Z</time>
      </trkpt>
      <trkpt lat="42.291597034782171" lon="3.230672981590033">
        <ele>244.31</ele>
        <time>2025-05-15T12:42:43Z</time>
      </trkpt>
      <trkpt lat="42.291603991761804" lon="3.230797033756971">
        <ele>244.31</ele>
        <time>2025-05-15T12:42:44Z</time>
      </trkpt>
      <trkpt lat="42.291644979268312" lon="3.230900969356298">
        <ele>244.31</ele>
        <time>2025-05-15T12:42:45Z</time>
      </trkpt>
      <trkpt lat="42.291727038100362" lon="3.231001971289516">
        <ele>243.83000000000001</ele>
        <time>2025-05-15T12:42:46Z</time>
      </trkpt>
      <trkpt lat="42.291817981749773" lon="3.231115965172648">
        <ele>243.83000000000001</ele>
        <time>2025-05-15T12:42:47Z</time>
      </trkpt>
      <trkpt lat="42.291914038360119" lon="3.231235994026065">
        <ele>243.83000000000001</ele>
        <time>2025-05-15T12:42:48Z</time>
      </trkpt>
      <trkpt lat="42.291980003938079" lon="3.23137303814292">
        <ele>243.83000000000001</ele>
        <time>2025-05-15T12:42:49Z</time>
      </trkpt>
      <trkpt lat="42.291999030858278" lon="3.231527013704181">
        <ele>243.34999999999999</ele>
        <time>2025-05-15T12:42:50Z</time>
      </trkpt>
      <trkpt lat="42.291994001716375" lon="3.231688030064106">
        <ele>243.34999999999999</ele>
        <time>2025-05-15T12:42:51Z</time>
      </trkpt>
      <trkpt lat="42.291928036138415" lon="3.231843011453748">
        <ele>242.87</ele>
        <time>2025-05-15T12:42:52Z</time>
      </trkpt>
      <trkpt lat="42.291845977306366" lon="3.23199899867177">
        <ele>242.87</ele>
        <time>2025-05-15T12:42:53Z</time>
      </trkpt>
      <trkpt lat="42.291722008958459" lon="3.232118021696806">
        <ele>242.38999999999999</ele>
        <time>2025-05-15T12:42:54Z</time>
      </trkpt>
      <trkpt lat="42.291590999811888" lon="3.232242995873094">
        <ele>241.91</ele>
        <time>2025-05-15T12:42:55Z</time>
      </trkpt>
      <trkpt lat="42.291364017874002" lon="3.232483975589275">
        <ele>241.43000000000001</ele>
        <time>2025-05-15T12:42:57Z</time>
      </trkpt>
      <trkpt lat="42.291314983740449" lon="3.232620013877749">
        <ele>240.94999999999999</ele>
        <time>2025-05-15T12:42:58Z</time>
      </trkpt>
      <trkpt lat="42.291306015104055" lon="3.23277298361063">
        <ele>240.94999999999999</ele>
        <time>2025-05-15T12:42:59Z</time>
      </trkpt>
      <trkpt lat="42.291335016489029" lon="3.23294498026371">
        <ele>240.47</ele>
        <time>2025-05-15T12:43:00Z</time>
      </trkpt>
      <trkpt lat="42.291378015652299" lon="3.233115971088409">
        <ele>240.47</ele>
        <time>2025-05-15T12:43:01Z</time>
      </trkpt>
      <trkpt lat="42.291470970958471" lon="3.233232982456684">
        <ele>239.99000000000001</ele>
        <time>2025-05-15T12:43:02Z</time>
      </trkpt>
      <trkpt lat="42.291549006476998" lon="3.233285034075379">
        <ele>239.99000000000001</ele>
        <time>2025-05-15T12:43:03Z</time>
      </trkpt>
      <trkpt lat="42.291683033108711" lon="3.233297020196915">
        <ele>239.99000000000001</ele>
        <time>2025-05-15T12:43:04Z</time>
      </trkpt>
      <trkpt lat="42.291791997849941" lon="3.233304983004928">
        <ele>239.99000000000001</ele>
        <time>2025-05-15T12:43:05Z</time>
      </trkpt>
      <trkpt lat="42.291922001168132" lon="3.233274975791574">
        <ele>240.47</ele>
        <time>2025-05-15T12:43:06Z</time>
      </trkpt>
      <trkpt lat="42.292580986395478" lon="3.233123011887074">
        <ele>241.43000000000001</ele>
        <time>2025-05-15T12:43:10Z</time>
      </trkpt>
      <trkpt lat="42.292749965563416" lon="3.233130974695087">
        <ele>241.43000000000001</ele>
        <time>2025-05-15T12:43:11Z</time>
      </trkpt>
      <trkpt lat="42.293308032676578" lon="3.233242034912109">
        <ele>241.43000000000001</ele>
        <time>2025-05-15T12:43:15Z</time>
      </trkpt>
      <trkpt lat="42.293379027396441" lon="3.233321998268366">
        <ele>241.43000000000001</ele>
        <time>2025-05-15T12:43:16Z</time>
      </trkpt>
      <trkpt lat="42.293457984924316" lon="3.233414031565189">
        <ele>241.43000000000001</ele>
        <time>2025-05-15T12:43:17Z</time>
      </trkpt>
      <trkpt lat="42.29350802488625" lon="3.233535988256335">
        <ele>241.43000000000001</ele>
        <time>2025-05-15T12:43:18Z</time>
      </trkpt>
      <trkpt lat="42.293566027656198" lon="3.233677977696061">
        <ele>241.43000000000001</ele>
        <time>2025-05-15T12:43:19Z</time>
      </trkpt>
      <trkpt lat="42.293767025694251" lon="3.234102018177509">
        <ele>242.38999999999999</ele>
        <time>2025-05-15T12:43:22Z</time>
      </trkpt>
      <trkpt lat="42.293862998485565" lon="3.23421198874712">
        <ele>242.87</ele>
        <time>2025-05-15T12:43:23Z</time>
      </trkpt>
      <trkpt lat="42.293997025117278" lon="3.234299998730421">
        <ele>243.34999999999999</ele>
        <time>2025-05-15T12:43:24Z</time>
      </trkpt>
      <trkpt lat="42.29464603587985" lon="3.234680034220219">
        <ele>244.78999999999999</ele>
        <time>2025-05-15T12:43:28Z</time>
      </trkpt>
      <trkpt lat="42.294803028926253" lon="3.234680034220219">
        <ele>244.78999999999999</ele>
        <time>2025-05-15T12:43:29Z</time>
      </trkpt>
      <trkpt lat="42.294961027801037" lon="3.234680034220219">
        <ele>245.27000000000001</ele>
        <time>2025-05-15T12:43:30Z</time>
      </trkpt>
      <trkpt lat="42.295460002496839" lon="3.234650027006865">
        <ele>246.72</ele>
        <time>2025-05-15T12:43:33Z</time>
      </trkpt>
      <trkpt lat="42.295624036341906" lon="3.234700988978148">
        <ele>246.72</ele>
        <time>2025-05-15T12:43:34Z</time>
      </trkpt>
      <trkpt lat="42.296771015971899" lon="3.235133998095989">
        <ele>247.68000000000001</ele>
        <time>2025-05-15T12:43:41Z</time>
      </trkpt>
      <trkpt lat="42.296862965449691" lon="3.235227959230542">
        <ele>247.68000000000001</ele>
        <time>2025-05-15T12:43:42Z</time>
      </trkpt>
      <trkpt lat="42.296913005411625" lon="3.235344970598817">
        <ele>248.16</ele>
        <time>2025-05-15T12:43:43Z</time>
      </trkpt>
      <trkpt lat="42.296913005411625" lon="3.235509004443884">
        <ele>248.16</ele>
        <time>2025-05-15T12:43:44Z</time>
      </trkpt>
      <trkpt lat="42.296890961006284" lon="3.235661974176765">
        <ele>247.68000000000001</ele>
        <time>2025-05-15T12:43:45Z</time>
      </trkpt>
      <trkpt lat="42.296847961843014" lon="3.235818967223167">
        <ele>247.68000000000001</ele>
        <time>2025-05-15T12:43:46Z</time>
      </trkpt>
      <trkpt lat="42.296802029013634" lon="3.235988030210137">
        <ele>247.68000000000001</ele>
        <time>2025-05-15T12:43:47Z</time>
      </trkpt>
      <trkpt lat="42.296303976327181" lon="3.237518984824419">
        <ele>246.22999999999999</ele>
        <time>2025-05-15T12:43:55Z</time>
      </trkpt>
      <trkpt lat="42.296309005469084" lon="3.237681007012725">
        <ele>245.75</ele>
        <time>2025-05-15T12:43:56Z</time>
      </trkpt>
      <trkpt lat="42.296334989368916" lon="3.237827019765973">
        <ele>244.78999999999999</ele>
        <time>2025-05-15T12:43:57Z</time>
      </trkpt>
      <trkpt lat="42.296369019895792" lon="3.237983006983995">
        <ele>243.83000000000001</ele>
        <time>2025-05-15T12:43:58Z</time>
      </trkpt>
      <trkpt lat="42.296425011008978" lon="3.238157015293837">
        <ele>242.87</ele>
        <time>2025-05-15T12:43:59Z</time>
      </trkpt>
      <trkpt lat="42.29660295881331" lon="3.238762021064758">
        <ele>240.47</ele>
        <time>2025-05-15T12:44:02Z</time>
      </trkpt>
      <trkpt lat="42.296633971855044" lon="3.238993026316166">
        <ele>239.50999999999999</ele>
        <time>2025-05-15T12:44:03Z</time>
      </trkpt>
      <trkpt lat="42.296633971855044" lon="3.23921799659729">
        <ele>239.02000000000001</ele>
        <time>2025-05-15T12:44:04Z</time>
      </trkpt>
      <trkpt lat="42.296599019318819" lon="3.239441961050034">
        <ele>238.06</ele>
        <time>2025-05-15T12:44:05Z</time>
      </trkpt>
      <trkpt lat="42.296548979356885" lon="3.239655029028654">
        <ele>237.09999999999999</ele>
        <time>2025-05-15T12:44:06Z</time>
      </trkpt>
      <trkpt lat="42.296500029042363" lon="3.239861978217959">
        <ele>236.13999999999999</ele>
        <time>2025-05-15T12:44:07Z</time>
      </trkpt>
      <trkpt lat="42.296459041535854" lon="3.240068005397916">
        <ele>235.18000000000001</ele>
        <time>2025-05-15T12:44:08Z</time>
      </trkpt>
      <trkpt lat="42.296438002958894" lon="3.240291969850659">
        <ele>233.74000000000001</ele>
        <time>2025-05-15T12:44:09Z</time>
      </trkpt>
      <trkpt lat="42.296415958553553" lon="3.240530015900731">
        <ele>232.78</ele>
        <time>2025-05-15T12:44:10Z</time>
      </trkpt>
      <trkpt lat="42.296383017674088" lon="3.240776024758816">
        <ele>231.81</ele>
        <time>2025-05-15T12:44:11Z</time>
      </trkpt>
      <trkpt lat="42.296304982155561" lon="3.241018010303378">
        <ele>230.37</ele>
        <time>2025-05-15T12:44:12Z</time>
      </trkpt>
      <trkpt lat="42.296224012970924" lon="3.241268964484334">
        <ele>229.41</ele>
        <time>2025-05-15T12:44:13Z</time>
      </trkpt>
      <trkpt lat="42.29574297554791" lon="3.24276203289628">
        <ele>222.68000000000001</ele>
        <time>2025-05-15T12:44:19Z</time>
      </trkpt>
      <trkpt lat="42.295713974162936" lon="3.242924977093935">
        <ele>221.72</ele>
        <time>2025-05-15T12:44:20Z</time>
      </trkpt>
      <trkpt lat="42.295744987204671" lon="3.243028996512294">
        <ele>220.28</ele>
        <time>2025-05-15T12:44:21Z</time>
      </trkpt>
      <trkpt lat="42.295782035216689" lon="3.243123963475227">
        <ele>219.31999999999999</ele>
        <time>2025-05-15T12:44:22Z</time>
      </trkpt>
      <trkpt lat="42.295818999409676" lon="3.243220020085573">
        <ele>218.36000000000001</ele>
        <time>2025-05-15T12:44:23Z</time>
      </trkpt>
      <trkpt lat="42.295888988301158" lon="3.243295960128307">
        <ele>217.88</ele>
        <time>2025-05-15T12:44:24Z</time>
      </trkpt>
      <trkpt lat="42.295963000506163" lon="3.243377013131976">
        <ele>216.91</ele>
        <time>2025-05-15T12:44:25Z</time>
      </trkpt>
      <trkpt lat="42.296269023790956" lon="3.243712959811091">
        <ele>213.55000000000001</ele>
        <time>2025-05-15T12:44:31Z</time>
      </trkpt>
      <trkpt lat="42.296288972720504" lon="3.243829971179366">
        <ele>213.06999999999999</ele>
        <time>2025-05-15T12:44:32Z</time>
      </trkpt>
      <trkpt lat="42.296303976327181" lon="3.243917981162667">
        <ele>212.59</ele>
        <time>2025-05-15T12:44:33Z</time>
      </trkpt>
      <trkpt lat="42.296297019347548" lon="3.243992999196053">
        <ele>212.59</ele>
        <time>2025-05-15T12:44:34Z</time>
      </trkpt>
      <trkpt lat="42.296248991042376" lon="3.244058964774013">
        <ele>212.11000000000001</ele>
        <time>2025-05-15T12:44:35Z</time>
      </trkpt>
      <trkpt lat="42.29617103934288" lon="3.24411797337234">
        <ele>211.63</ele>
        <time>2025-05-15T12:44:36Z</time>
      </trkpt>
      <trkpt lat="42.296091997995973" lon="3.244112022221088">
        <ele>211.15000000000001</ele>
        <time>2025-05-15T12:44:37Z</time>
      </trkpt>
      <trkpt lat="42.296011028811336" lon="3.244104981422424">
        <ele>210.66999999999999</ele>
        <time>2025-05-15T12:44:38Z</time>
      </trkpt>
      <trkpt lat="42.295653959736228" lon="3.244102969765663">
        <ele>207.78</ele>
        <time>2025-05-15T12:44:42Z</time>
      </trkpt>
      <trkpt lat="42.295562010258436" lon="3.244167007505894">
        <ele>206.81999999999999</ele>
        <time>2025-05-15T12:44:43Z</time>
      </trkpt>
      <trkpt lat="42.295466037467122" lon="3.244232973083854">
        <ele>206.34</ele>
        <time>2025-05-15T12:44:44Z</time>
      </trkpt>
      <trkpt lat="42.295384984463453" lon="3.244307991117239">
        <ele>205.38</ele>
        <time>2025-05-15T12:44:45Z</time>
      </trkpt>
      <trkpt lat="42.29531398974359" lon="3.244404969736934">
        <ele>204.41999999999999</ele>
        <time>2025-05-15T12:44:46Z</time>
      </trkpt>
      <trkpt lat="42.295238971710205" lon="3.244506977498531">
        <ele>203.94</ele>
        <time>2025-05-15T12:44:47Z</time>
      </trkpt>
      <trkpt lat="42.295187003910542" lon="3.244619965553284">
        <ele>203.46000000000001</ele>
        <time>2025-05-15T12:44:48Z</time>
      </trkpt>
      <trkpt lat="42.294936971738935" lon="3.245150959119201">
        <ele>201.05000000000001</ele>
        <time>2025-05-15T12:44:52Z</time>
      </trkpt>
      <trkpt lat="42.294895984232426" lon="3.245237041264772">
        <ele>200.56999999999999</ele>
        <time>2025-05-15T12:44:53Z</time>
      </trkpt>
      <trkpt lat="42.294888021424413" lon="3.245365032926202">
        <ele>199.61000000000001</ele>
        <time>2025-05-15T12:44:54Z</time>
      </trkpt>
      <trkpt lat="42.294879974797368" lon="3.245475003495812">
        <ele>199.13</ele>
        <time>2025-05-15T12:44:55Z</time>
      </trkpt>
      <trkpt lat="42.294878968968987" lon="3.245567958801985">
        <ele>198.16999999999999</ele>
        <time>2025-05-15T12:44:56Z</time>
      </trkpt>
      <trkpt lat="42.294922973960638" lon="3.245664015412331">
        <ele>198.16999999999999</ele>
        <time>2025-05-15T12:44:57Z</time>
      </trkpt>
      <trkpt lat="42.294965973123908" lon="3.245756970718503">
        <ele>197.69</ele>
        <time>2025-05-15T12:44:58Z</time>
      </trkpt>
      <trkpt lat="42.29501198977232" lon="3.24585503898561">
        <ele>197.21000000000001</ele>
        <time>2025-05-15T12:44:59Z</time>
      </trkpt>
      <trkpt lat="42.295149033889174" lon="3.246197020635009">
        <ele>195.28</ele>
        <time>2025-05-15T12:45:02Z</time>
      </trkpt>
      <trkpt lat="42.295179041102529" lon="3.246340015903115">
        <ele>194.31999999999999</ele>
        <time>2025-05-15T12:45:03Z</time>
      </trkpt>
      <trkpt lat="42.295209970325232" lon="3.246485022827983">
        <ele>193.84</ele>
        <time>2025-05-15T12:45:04Z</time>
      </trkpt>
      <trkpt lat="42.295206030830741" lon="3.246621983125806">
        <ele>192.88</ele>
        <time>2025-05-15T12:45:05Z</time>
      </trkpt>
      <trkpt lat="42.295189015567303" lon="3.246760033071041">
        <ele>191.91999999999999</ele>
        <time>2025-05-15T12:45:06Z</time>
      </trkpt>
      <trkpt lat="42.295173006132245" lon="3.24688701890409">
        <ele>191.44</ele>
        <time>2025-05-15T12:45:07Z</time>
      </trkpt>
      <trkpt lat="42.295158002525568" lon="3.247007969766855">
        <ele>190.47999999999999</ele>
        <time>2025-05-15T12:45:08Z</time>
      </trkpt>
      <trkpt lat="42.295142998918891" lon="3.247126992791891">
        <ele>190</ele>
        <time>2025-05-15T12:45:09Z</time>
      </trkpt>
      <trkpt lat="42.295132018625736" lon="3.247245009988546">
        <ele>189.52000000000001</ele>
        <time>2025-05-15T12:45:10Z</time>
      </trkpt>
      <trkpt lat="42.295132018625736" lon="3.247357998043299">
        <ele>189.03999999999999</ele>
        <time>2025-05-15T12:45:11Z</time>
      </trkpt>
      <trkpt lat="42.295132018625736" lon="3.247464029118419">
        <ele>188.08000000000001</ele>
        <time>2025-05-15T12:45:12Z</time>
      </trkpt>
      <trkpt lat="42.295132018625736" lon="3.247553966939449">
        <ele>187.59</ele>
        <time>2025-05-15T12:45:13Z</time>
      </trkpt>
      <trkpt lat="42.295088013634086" lon="3.247641976922751">
        <ele>187.11000000000001</ele>
        <time>2025-05-15T12:45:14Z</time>
      </trkpt>
      <trkpt lat="42.295041996985674" lon="3.247728981077671">
        <ele>186.63</ele>
        <time>2025-05-15T12:45:15Z</time>
      </trkpt>
      <trkpt lat="42.294964967295527" lon="3.247782038524747">
        <ele>185.66999999999999</ele>
        <time>2025-05-15T12:45:16Z</time>
      </trkpt>
      <trkpt lat="42.29488299228251" lon="3.247838029637933">
        <ele>185.19</ele>
        <time>2025-05-15T12:45:17Z</time>
      </trkpt>
      <trkpt lat="42.294716024771333" lon="3.247953029349446">
        <ele>184.22999999999999</ele>
        <time>2025-05-15T12:45:19Z</time>
      </trkpt>
      <trkpt lat="42.294651987031102" lon="3.248042967170477">
        <ele>183.27000000000001</ele>
        <time>2025-05-15T12:45:20Z</time>
      </trkpt>
      <trkpt lat="42.294598007574677" lon="3.248129971325398">
        <ele>182.78999999999999</ele>
        <time>2025-05-15T12:45:21Z</time>
      </trkpt>
      <trkpt lat="42.294576968997717" lon="3.248227033764124">
        <ele>181.83000000000001</ele>
        <time>2025-05-15T12:45:22Z</time>
      </trkpt>
      <trkpt lat="42.294552996754646" lon="3.248347984626889">
        <ele>181.34999999999999</ele>
        <time>2025-05-15T12:45:23Z</time>
      </trkpt>
      <trkpt lat="42.294563977047801" lon="3.248432977125049">
        <ele>180.87</ele>
        <time>2025-05-15T12:45:24Z</time>
      </trkpt>
      <trkpt lat="42.294577974826097" lon="3.248539008200169">
        <ele>180.38</ele>
        <time>2025-05-15T12:45:25Z</time>
      </trkpt>
      <trkpt lat="42.294570012018085" lon="3.248746963217855">
        <ele>179.41999999999999</ele>
        <time>2025-05-15T12:45:27Z</time>
      </trkpt>
      <trkpt lat="42.29453899897635" lon="3.24884201399982">
        <ele>178.94</ele>
        <time>2025-05-15T12:45:28Z</time>
      </trkpt>
      <trkpt lat="42.294482002034783" lon="3.248889958485961">
        <ele>178.46000000000001</ele>
        <time>2025-05-15T12:45:29Z</time>
      </trkpt>
      <trkpt lat="42.294406984001398" lon="3.248931029811502">
        <ele>177.97999999999999</ele>
        <time>2025-05-15T12:45:30Z</time>
      </trkpt>
      <trkpt lat="42.294327020645142" lon="3.248976040631533">
        <ele>177.97999999999999</ele>
        <time>2025-05-15T12:45:31Z</time>
      </trkpt>
      <trkpt lat="42.294240016490221" lon="3.249022979289293">
        <ele>177.5</ele>
        <time>2025-05-15T12:45:32Z</time>
      </trkpt>
      <trkpt lat="42.294143959879875" lon="3.249076036736369">
        <ele>177.02000000000001</ele>
        <time>2025-05-15T12:45:33Z</time>
      </trkpt>
      <trkpt lat="42.294059973210096" lon="3.249164968729019">
        <ele>177.02000000000001</ele>
        <time>2025-05-15T12:45:34Z</time>
      </trkpt>
      <trkpt lat="42.293985961005092" lon="3.249278962612152">
        <ele>176.06</ele>
        <time>2025-05-15T12:45:35Z</time>
      </trkpt>
      <trkpt lat="42.293912032619119" lon="3.249393962323666">
        <ele>175.58000000000001</ele>
        <time>2025-05-15T12:45:36Z</time>
      </trkpt>
      <trkpt lat="42.293428983539343" lon="3.250167025253177">
        <ele>171.72999999999999</ele>
        <time>2025-05-15T12:45:43Z</time>
      </trkpt>
      <trkpt lat="42.293408028781414" lon="3.250275989994407">
        <ele>171.25</ele>
        <time>2025-05-15T12:45:44Z</time>
      </trkpt>
      <trkpt lat="42.293384978547692" lon="3.25039098970592">
        <ele>170.77000000000001</ele>
        <time>2025-05-15T12:45:45Z</time>
      </trkpt>
      <trkpt lat="42.293380033224821" lon="3.250515041872859">
        <ele>170.28999999999999</ele>
        <time>2025-05-15T12:45:46Z</time>
      </trkpt>
      <trkpt lat="42.293395958840847" lon="3.250644039362669">
        <ele>169.33000000000001</ele>
        <time>2025-05-15T12:45:47Z</time>
      </trkpt>
      <trkpt lat="42.293411968275905" lon="3.250773036852479">
        <ele>168.37</ele>
        <time>2025-05-15T12:45:48Z</time>
      </trkpt>
      <trkpt lat="42.293457984924316" lon="3.251382987946272">
        <ele>167.41</ele>
        <time>2025-05-15T12:45:53Z</time>
      </trkpt>
      <trkpt lat="42.293457984924316" lon="3.251503016799688">
        <ele>166.93000000000001</ele>
        <time>2025-05-15T12:45:54Z</time>
      </trkpt>
      <trkpt lat="42.293402999639511" lon="3.25165799818933">
        <ele>166.44999999999999</ele>
        <time>2025-05-15T12:45:55Z</time>
      </trkpt>
      <trkpt lat="42.293350026011467" lon="3.25180602259934">
        <ele>165.96000000000001</ele>
        <time>2025-05-15T12:45:56Z</time>
      </trkpt>
      <trkpt lat="42.293295962736011" lon="3.251954969018698">
        <ele>165.47999999999999</ele>
        <time>2025-05-15T12:45:57Z</time>
      </trkpt>
      <trkpt lat="42.293050959706306" lon="3.252640021964908">
        <ele>163.56</ele>
        <time>2025-05-15T12:46:02Z</time>
      </trkpt>
      <trkpt lat="42.293027993291616" lon="3.252800032496452">
        <ele>163.08000000000001</ele>
        <time>2025-05-15T12:46:03Z</time>
      </trkpt>
      <trkpt lat="42.293007038533688" lon="3.252943027764559">
        <ele>162.59999999999999</ele>
        <time>2025-05-15T12:46:04Z</time>
      </trkpt>
      <trkpt lat="42.292993040755391" lon="3.253220971673727">
        <ele>161.63999999999999</ele>
        <time>2025-05-15T12:46:06Z</time>
      </trkpt>
      <trkpt lat="42.292998991906643" lon="3.253368996083736">
        <ele>161.16</ele>
        <time>2025-05-15T12:46:07Z</time>
      </trkpt>
      <trkpt lat="42.293116003274918" lon="3.25464497320354">
        <ele>157.31</ele>
        <time>2025-05-15T12:46:16Z</time>
      </trkpt>
      <trkpt lat="42.293151961639524" lon="3.254746980965138">
        <ele>156.34999999999999</ele>
        <time>2025-05-15T12:46:17Z</time>
      </trkpt>
      <trkpt lat="42.293210970237851" lon="3.254799032583833">
        <ele>155.87</ele>
        <time>2025-05-15T12:46:18Z</time>
      </trkpt>
      <trkpt lat="42.293285988271236" lon="3.254849994555116">
        <ele>155.38999999999999</ele>
        <time>2025-05-15T12:46:19Z</time>
      </trkpt>
      <trkpt lat="42.293351031839848" lon="3.254892993718386">
        <ele>155.38999999999999</ele>
        <time>2025-05-15T12:46:20Z</time>
      </trkpt>
      <trkpt lat="42.293438035994768" lon="3.254887964576483">
        <ele>154.91</ele>
        <time>2025-05-15T12:46:21Z</time>
      </trkpt>
      <trkpt lat="42.293522022664547" lon="3.254883019253612">
        <ele>154.43000000000001</ele>
        <time>2025-05-15T12:46:22Z</time>
      </trkpt>
      <trkpt lat="42.293603997677565" lon="3.254877990111709">
        <ele>153.94999999999999</ele>
        <time>2025-05-15T12:46:23Z</time>
      </trkpt>
      <trkpt lat="42.293755039572716" lon="3.254886036738753">
        <ele>152.99000000000001</ele>
        <time>2025-05-15T12:46:25Z</time>
      </trkpt>
      <trkpt lat="42.293823016807437" lon="3.254911014810205">
        <ele>152.50999999999999</ele>
        <time>2025-05-15T12:46:26Z</time>
      </trkpt>
      <trkpt lat="42.293887976557016" lon="3.254935992881656">
        <ele>152.03</ele>
        <time>2025-05-15T12:46:27Z</time>
      </trkpt>
      <trkpt lat="42.293932987377048" lon="3.255026014521718">
        <ele>151.53999999999999</ele>
        <time>2025-05-15T12:46:28Z</time>
      </trkpt>
      <trkpt lat="42.293972969055176" lon="3.255106983706355">
        <ele>151.53999999999999</ele>
        <time>2025-05-15T12:46:29Z</time>
      </trkpt>
      <trkpt lat="42.293983027338982" lon="3.255231035873294">
        <ele>151.06</ele>
        <time>2025-05-15T12:46:30Z</time>
      </trkpt>
      <trkpt lat="42.293990990146995" lon="3.255350980907679">
        <ele>151.06</ele>
        <time>2025-05-15T12:46:31Z</time>
      </trkpt>
      <trkpt lat="42.293999958783388" lon="3.255470003932715">
        <ele>150.58000000000001</ele>
        <time>2025-05-15T12:46:32Z</time>
      </trkpt>
      <trkpt lat="42.294015968218446" lon="3.255687011405826">
        <ele>149.62</ele>
        <time>2025-05-15T12:46:34Z</time>
      </trkpt>
      <trkpt lat="42.294083023443818" lon="3.255796981975436">
        <ele>149.13999999999999</ele>
        <time>2025-05-15T12:46:35Z</time>
      </trkpt>
      <trkpt lat="42.29413297958672" lon="3.255880968645215">
        <ele>148.66</ele>
        <time>2025-05-15T12:46:36Z</time>
      </trkpt>
      <trkpt lat="42.294203974306583" lon="3.255917010828853">
        <ele>147.69999999999999</ele>
        <time>2025-05-15T12:46:37Z</time>
      </trkpt>
      <trkpt lat="42.294284021481872" lon="3.255938971415162">
        <ele>147.22</ele>
        <time>2025-05-15T12:46:38Z</time>
      </trkpt>
      <trkpt lat="42.294381000101566" lon="3.255965961143374">
        <ele>146.74000000000001</ele>
        <time>2025-05-15T12:46:39Z</time>
      </trkpt>
      <trkpt lat="42.2944759670645" lon="3.25595498085022">
        <ele>145.78</ele>
        <time>2025-05-15T12:46:40Z</time>
      </trkpt>
      <trkpt lat="42.295497972518206" lon="3.255813997238874">
        <ele>139.53</ele>
        <time>2025-05-15T12:46:49Z</time>
      </trkpt>
      <trkpt lat="42.29559101164341" lon="3.255841992795467">
        <ele>139.05000000000001</ele>
        <time>2025-05-15T12:46:50Z</time>
      </trkpt>
      <trkpt lat="42.295671980828047" lon="3.255892032757402">
        <ele>138.09</ele>
        <time>2025-05-15T12:46:51Z</time>
      </trkpt>
      <trkpt lat="42.295739036053419" lon="3.255980964750052">
        <ele>137.13</ele>
        <time>2025-05-15T12:46:52Z</time>
      </trkpt>
      <trkpt lat="42.29580600745976" lon="3.256069980561733">
        <ele>136.16</ele>
        <time>2025-05-15T12:46:53Z</time>
      </trkpt>
      <trkpt lat="42.295870967209339" lon="3.256156984716654">
        <ele>135.68000000000001</ele>
        <time>2025-05-15T12:46:54Z</time>
      </trkpt>
      <trkpt lat="42.295933999121189" lon="3.256240971386433">
        <ele>135.19999999999999</ele>
        <time>2025-05-15T12:46:55Z</time>
      </trkpt>
      <trkpt lat="42.295985966920853" lon="3.256333004683256">
        <ele>134.24000000000001</ele>
        <time>2025-05-15T12:46:56Z</time>
      </trkpt>
      <trkpt lat="42.296023014932871" lon="3.256430989131331">
        <ele>133.28</ele>
        <time>2025-05-15T12:46:57Z</time>
      </trkpt>
      <trkpt lat="42.296032989397645" lon="3.256526961922646">
        <ele>132.80000000000001</ele>
        <time>2025-05-15T12:46:58Z</time>
      </trkpt>
      <trkpt lat="42.296032989397645" lon="3.256630981341004">
        <ele>131.84</ele>
        <time>2025-05-15T12:46:59Z</time>
      </trkpt>
      <trkpt lat="42.295999964699149" lon="3.256710022687912">
        <ele>131.36000000000001</ele>
        <time>2025-05-15T12:47:00Z</time>
      </trkpt>
      <trkpt lat="42.295953026041389" lon="3.256795015186071">
        <ele>130.88</ele>
        <time>2025-05-15T12:47:01Z</time>
      </trkpt>
      <trkpt lat="42.295882031321526" lon="3.25685502961278">
        <ele>130.40000000000001</ele>
        <time>2025-05-15T12:47:02Z</time>
      </trkpt>
      <trkpt lat="42.295803995802999" lon="3.25692099519074">
        <ele>130.40000000000001</ele>
        <time>2025-05-15T12:47:03Z</time>
      </trkpt>
      <trkpt lat="42.295394958928227" lon="3.257278986275196">
        <ele>128.94999999999999</ele>
        <time>2025-05-15T12:47:08Z</time>
      </trkpt>
      <trkpt lat="42.29533301666379" lon="3.257378982380033">
        <ele>128.47</ele>
        <time>2025-05-15T12:47:09Z</time>
      </trkpt>
      <trkpt lat="42.294885003939271" lon="3.25810301117599">
        <ele>125.59</ele>
        <time>2025-05-15T12:47:16Z</time>
      </trkpt>
      <trkpt lat="42.294848039746284" lon="3.258218010887504">
        <ele>124.63</ele>
        <time>2025-05-15T12:47:17Z</time>
      </trkpt>
      <trkpt lat="42.294836975634098" lon="3.25833803974092">
        <ele>124.15000000000001</ele>
        <time>2025-05-15T12:47:18Z</time>
      </trkpt>
      <trkpt lat="42.294837981462479" lon="3.258456978946924">
        <ele>123.19</ele>
        <time>2025-05-15T12:47:19Z</time>
      </trkpt>
      <trkpt lat="42.294849967584014" lon="3.25857499614358">
        <ele>122.70999999999999</ele>
        <time>2025-05-15T12:47:20Z</time>
      </trkpt>
      <trkpt lat="42.294881986454129" lon="3.258694019168615">
        <ele>122.22</ele>
        <time>2025-05-15T12:47:21Z</time>
      </trkpt>
      <trkpt lat="42.294957004487514" lon="3.258924018591642">
        <ele>121.26000000000001</ele>
        <time>2025-05-15T12:47:23Z</time>
      </trkpt>
      <trkpt lat="42.29499296285212" lon="3.259036000818014">
        <ele>121.26000000000001</ele>
        <time>2025-05-15T12:47:24Z</time>
      </trkpt>
      <trkpt lat="42.295094970613718" lon="3.259350992739201">
        <ele>120.3</ele>
        <time>2025-05-15T12:47:27Z</time>
      </trkpt>
      <trkpt lat="42.295096982270479" lon="3.259447971358895">
        <ele>119.34</ele>
        <time>2025-05-15T12:47:28Z</time>
      </trkpt>
      <trkpt lat="42.295070998370647" lon="3.259544027969241">
        <ele>119.34</ele>
        <time>2025-05-15T12:47:29Z</time>
      </trkpt>
      <trkpt lat="42.295039985328913" lon="3.259636983275414">
        <ele>118.86</ele>
        <time>2025-05-15T12:47:30Z</time>
      </trkpt>
      <trkpt lat="42.294962033629417" lon="3.259662967175245">
        <ele>118.86</ele>
        <time>2025-05-15T12:47:31Z</time>
      </trkpt>
      <trkpt lat="42.294852985069156" lon="3.259699009358883">
        <ele>118.38</ele>
        <time>2025-05-15T12:47:32Z</time>
      </trkpt>
      <trkpt lat="42.294785007834435" lon="3.259687023237348">
        <ele>117.90000000000001</ele>
        <time>2025-05-15T12:47:33Z</time>
      </trkpt>
      <trkpt lat="42.29469196870923" lon="3.259669002145529">
        <ele>117.90000000000001</ele>
        <time>2025-05-15T12:47:34Z</time>
      </trkpt>
      <trkpt lat="42.294124010950327" lon="3.259577974677086">
        <ele>115.98</ele>
        <time>2025-05-15T12:47:40Z</time>
      </trkpt>
      <trkpt lat="42.294030971825123" lon="3.259594989940524">
        <ele>115.98</ele>
        <time>2025-05-15T12:47:41Z</time>
      </trkpt>
      <trkpt lat="42.293930975720286" lon="3.259614016860724">
        <ele>115.5</ele>
        <time>2025-05-15T12:47:42Z</time>
      </trkpt>
      <trkpt lat="42.293856041505933" lon="3.259672019630671">
        <ele>115.5</ele>
        <time>2025-05-15T12:47:43Z</time>
      </trkpt>
      <trkpt lat="42.293769037351012" lon="3.259738991037011">
        <ele>115.5</ele>
        <time>2025-05-15T12:47:44Z</time>
      </trkpt>
      <trkpt lat="42.293695025146008" lon="3.259818032383919">
        <ele>115.01000000000001</ele>
        <time>2025-05-15T12:47:45Z</time>
      </trkpt>
      <trkpt lat="42.293625958263874" lon="3.259907970204949">
        <ele>115.01000000000001</ele>
        <time>2025-05-15T12:47:46Z</time>
      </trkpt>
      <trkpt lat="42.293565021827817" lon="3.260014001280069">
        <ele>114.53</ele>
        <time>2025-05-15T12:47:47Z</time>
      </trkpt>
      <trkpt lat="42.293516993522644" lon="3.260136041790247">
        <ele>114.05</ele>
        <time>2025-05-15T12:47:48Z</time>
      </trkpt>
      <trkpt lat="42.293468965217471" lon="3.260257998481393">
        <ele>113.56999999999999</ele>
        <time>2025-05-15T12:47:49Z</time>
      </trkpt>
      <trkpt lat="42.293341979384422" lon="3.260618001222611">
        <ele>112.13</ele>
        <time>2025-05-15T12:47:52Z</time>
      </trkpt>
      <trkpt lat="42.293323036283255" lon="3.260743981227279">
        <ele>112.13</ele>
        <time>2025-05-15T12:47:53Z</time>
      </trkpt>
      <trkpt lat="42.293315995484591" lon="3.260864010080695">
        <ele>111.65000000000001</ele>
        <time>2025-05-15T12:47:54Z</time>
      </trkpt>
      <trkpt lat="42.293350026011467" lon="3.260976998135448">
        <ele>111.17</ele>
        <time>2025-05-15T12:47:55Z</time>
      </trkpt>
      <trkpt lat="42.293390007689595" lon="3.261075988411903">
        <ele>110.69</ele>
        <time>2025-05-15T12:47:56Z</time>
      </trkpt>
      <trkpt lat="42.293453039601445" lon="3.261163998395205">
        <ele>110.69</ele>
        <time>2025-05-15T12:47:57Z</time>
      </trkpt>
      <trkpt lat="42.293521016836166" lon="3.261241028085351">
        <ele>110.20999999999999</ele>
        <time>2025-05-15T12:47:58Z</time>
      </trkpt>
      <trkpt lat="42.293597962707281" lon="3.261315040290356">
        <ele>110.20999999999999</ele>
        <time>2025-05-15T12:47:59Z</time>
      </trkpt>
      <trkpt lat="42.294091992080212" lon="3.261791970580816">
        <ele>107.81</ele>
        <time>2025-05-15T12:48:05Z</time>
      </trkpt>
      <trkpt lat="42.294121999293566" lon="3.261869000270963">
        <ele>107.31999999999999</ele>
        <time>2025-05-15T12:48:06Z</time>
      </trkpt>
      <trkpt lat="42.294148989021778" lon="3.261959021911025">
        <ele>106.84</ele>
        <time>2025-05-15T12:48:07Z</time>
      </trkpt>
      <trkpt lat="42.294160975143313" lon="3.262029010802507">
        <ele>106.84</ele>
        <time>2025-05-15T12:48:08Z</time>
      </trkpt>
      <trkpt lat="42.294125016778708" lon="3.262110985815525">
        <ele>106.36</ele>
        <time>2025-05-15T12:48:09Z</time>
      </trkpt>
      <trkpt lat="42.294081011787057" lon="3.262209976091981">
        <ele>106.36</ele>
        <time>2025-05-15T12:48:10Z</time>
      </trkpt>
      <trkpt lat="42.29400398209691" lon="3.262253981083632">
        <ele>106.36</ele>
        <time>2025-05-15T12:48:11Z</time>
      </trkpt>
      <trkpt lat="42.293915972113609" lon="3.262305026873946">
        <ele>105.88</ele>
        <time>2025-05-15T12:48:12Z</time>
      </trkpt>
      <trkpt lat="42.293181968852878" lon="3.262728983536363">
        <ele>102.52</ele>
        <time>2025-05-15T12:48:19Z</time>
      </trkpt>
      <trkpt lat="42.293083984404802" lon="3.262806013226509">
        <ele>102.04000000000001</ele>
        <time>2025-05-15T12:48:20Z</time>
      </trkpt>
      <trkpt lat="42.292997986078262" lon="3.262911038473249">
        <ele>101.56</ele>
        <time>2025-05-15T12:48:21Z</time>
      </trkpt>
      <trkpt lat="42.292917016893625" lon="3.263018997386098">
        <ele>100.59999999999999</ele>
        <time>2025-05-15T12:48:22Z</time>
      </trkpt>
      <trkpt lat="42.292876029387116" lon="3.263156963512301">
        <ele>100.11</ele>
        <time>2025-05-15T12:48:23Z</time>
      </trkpt>
      <trkpt lat="42.292854990810156" lon="3.263297025114298">
        <ele>99.629999999999995</ele>
        <time>2025-05-15T12:48:24Z</time>
      </trkpt>
      <trkpt lat="42.292849961668253" lon="3.263439014554024">
        <ele>99.150000000000006</ele>
        <time>2025-05-15T12:48:25Z</time>
      </trkpt>
      <trkpt lat="42.292838981375098" lon="3.263715030625463">
        <ele>97.709999999999994</ele>
        <time>2025-05-15T12:48:27Z</time>
      </trkpt>
      <trkpt lat="42.292849039658904" lon="3.263834975659847">
        <ele>97.709999999999994</ele>
        <time>2025-05-15T12:48:28Z</time>
      </trkpt>
      <trkpt lat="42.292886003851891" lon="3.263942012563348">
        <ele>97.230000000000004</ele>
        <time>2025-05-15T12:48:29Z</time>
      </trkpt>
      <trkpt lat="42.292921962216496" lon="3.264046031981707">
        <ele>96.75</ele>
        <time>2025-05-15T12:48:30Z</time>
      </trkpt>
      <trkpt lat="42.292958004400134" lon="3.264149967581034">
        <ele>96.75</ele>
        <time>2025-05-15T12:48:31Z</time>
      </trkpt>
      <trkpt lat="42.293028999119997" lon="3.264452973380685">
        <ele>95.310000000000002</ele>
        <time>2025-05-15T12:48:34Z</time>
      </trkpt>
      <trkpt lat="42.293028999119997" lon="3.264564033597708">
        <ele>95.310000000000002</ele>
        <time>2025-05-15T12:48:35Z</time>
      </trkpt>
      <trkpt lat="42.293003015220165" lon="3.264666041359305">
        <ele>94.829999999999998</ele>
        <time>2025-05-15T12:48:36Z</time>
      </trkpt>
      <trkpt lat="42.292963033542037" lon="3.264780035242438">
        <ele>94.829999999999998</ele>
        <time>2025-05-15T12:48:37Z</time>
      </trkpt>
      <trkpt lat="42.292922968044877" lon="3.264894029125571">
        <ele>94.829999999999998</ele>
        <time>2025-05-15T12:48:38Z</time>
      </trkpt>
      <trkpt lat="42.292876029387116" lon="3.264995031058788">
        <ele>94.349999999999994</ele>
        <time>2025-05-15T12:48:39Z</time>
      </trkpt>
      <trkpt lat="42.292815009132028" lon="3.265093015506864">
        <ele>93.870000000000005</ele>
        <time>2025-05-15T12:48:40Z</time>
      </trkpt>
      <trkpt lat="42.292752983048558" lon="3.265190999954939">
        <ele>93.390000000000001</ele>
        <time>2025-05-15T12:48:41Z</time>
      </trkpt>
      <trkpt lat="42.292619962245226" lon="3.265401972457767">
        <ele>92.420000000000002</ele>
        <time>2025-05-15T12:48:43Z</time>
      </trkpt>
      <trkpt lat="42.292535975575447" lon="3.265535999089479">
        <ele>91.939999999999998</ele>
        <time>2025-05-15T12:48:44Z</time>
      </trkpt>
      <trkpt lat="42.292504040524364" lon="3.26564496383071">
        <ele>90.980000000000004</ele>
        <time>2025-05-15T12:48:45Z</time>
      </trkpt>
      <trkpt lat="42.292397003620863" lon="3.266150979325175">
        <ele>88.099999999999994</ele>
        <time>2025-05-15T12:48:49Z</time>
      </trkpt>
      <trkpt lat="42.29239197447896" lon="3.266265979036689">
        <ele>87.620000000000005</ele>
        <time>2025-05-15T12:48:50Z</time>
      </trkpt>
      <trkpt lat="42.292429022490978" lon="3.266383996233344">
        <ele>86.659999999999997</ele>
        <time>2025-05-15T12:48:51Z</time>
      </trkpt>
      <trkpt lat="42.292465986683965" lon="3.266506036743522">
        <ele>85.689999999999998</ele>
        <time>2025-05-15T12:48:52Z</time>
      </trkpt>
      <trkpt lat="42.292506974190474" lon="3.266637967899442">
        <ele>84.730000000000004</ele>
        <time>2025-05-15T12:48:53Z</time>
      </trkpt>
      <trkpt lat="42.292595990002155" lon="3.266927981749177">
        <ele>82.810000000000002</ele>
        <time>2025-05-15T12:48:55Z</time>
      </trkpt>
      <trkpt lat="42.292642006650567" lon="3.267078017815948">
        <ele>81.849999999999994</ele>
        <time>2025-05-15T12:48:56Z</time>
      </trkpt>
      <trkpt lat="42.292645024135709" lon="3.26723400503397">
        <ele>81.370000000000005</ele>
        <time>2025-05-15T12:48:57Z</time>
      </trkpt>
      <trkpt lat="42.29264703579247" lon="3.267398960888386">
        <ele>80.409999999999997</ele>
        <time>2025-05-15T12:48:58Z</time>
      </trkpt>
      <trkpt lat="42.292648963630199" lon="3.267564000561833">
        <ele>79.450000000000003</ele>
        <time>2025-05-15T12:48:59Z</time>
      </trkpt>
      <trkpt lat="42.292715013027191" lon="3.268866967409849">
        <ele>72.719999999999999</ele>
        <time>2025-05-15T12:49:07Z</time>
      </trkpt>
      <trkpt lat="42.292758012190461" lon="3.269014991819859">
        <ele>71.760000000000005</ele>
        <time>2025-05-15T12:49:08Z</time>
      </trkpt>
      <trkpt lat="42.292878963053226" lon="3.269474990665913">
        <ele>68.870000000000005</ele>
        <time>2025-05-15T12:49:12Z</time>
      </trkpt>
      <trkpt lat="42.292878963053226" lon="3.269563000649214">
        <ele>68.390000000000001</ele>
        <time>2025-05-15T12:49:13Z</time>
      </trkpt>
      <trkpt lat="42.292878963053226" lon="3.269590996205807">
        <ele>67.909999999999997</ele>
        <time>2025-05-15T12:49:14Z</time>
      </trkpt>
      <trkpt lat="42.292810985818505" lon="3.269670959562063">
        <ele>67.430000000000007</ele>
        <time>2025-05-15T12:49:15Z</time>
      </trkpt>
      <trkpt lat="42.292749965563416" lon="3.269742038100958">
        <ele>66.469999999999999</ele>
        <time>2025-05-15T12:49:16Z</time>
      </trkpt>
      <trkpt lat="42.292689029127359" lon="3.26976802200079">
        <ele>65.510000000000005</ele>
        <time>2025-05-15T12:49:17Z</time>
      </trkpt>
      <trkpt lat="42.292610993608832" lon="3.269802974537015">
        <ele>65.030000000000001</ele>
        <time>2025-05-15T12:49:18Z</time>
      </trkpt>
      <trkpt lat="42.292532036080956" lon="3.269837005063891">
        <ele>64.069999999999993</ele>
        <time>2025-05-15T12:49:19Z</time>
      </trkpt>
      <trkpt lat="42.292448971420527" lon="3.269872963428497">
        <ele>63.100000000000001</ele>
        <time>2025-05-15T12:49:20Z</time>
      </trkpt>
      <trkpt lat="42.292362973093987" lon="3.269929038360715">
        <ele>62.619999999999997</ele>
        <time>2025-05-15T12:49:21Z</time>
      </trkpt>
      <trkpt lat="42.292278986424208" lon="3.270000033080578">
        <ele>62.140000000000001</ele>
        <time>2025-05-15T12:49:22Z</time>
      </trkpt>
      <trkpt lat="42.292114030569792" lon="3.270130036398768">
        <ele>60.700000000000003</ele>
        <time>2025-05-15T12:49:24Z</time>
      </trkpt>
      <trkpt lat="42.292016968131065" lon="3.270144034177065">
        <ele>59.740000000000002</ele>
        <time>2025-05-15T12:49:25Z</time>
      </trkpt>
      <trkpt lat="42.291916972026229" lon="3.270159037783742">
        <ele>58.780000000000001</ele>
        <time>2025-05-15T12:49:26Z</time>
      </trkpt>
      <trkpt lat="42.291170982643962" lon="3.270271020010114">
        <ele>51.090000000000003</ele>
        <time>2025-05-15T12:49:34Z</time>
      </trkpt>
      <trkpt lat="42.291103005409241" lon="3.270258028060198">
        <ele>50.609999999999999</ele>
        <time>2025-05-15T12:49:35Z</time>
      </trkpt>
      <trkpt lat="42.291028993204236" lon="3.270243024453521">
        <ele>50.130000000000003</ele>
        <time>2025-05-15T12:49:36Z</time>
      </trkpt>
      <trkpt lat="42.290944000706077" lon="3.270207988098264">
        <ele>50.130000000000003</ele>
        <time>2025-05-15T12:49:37Z</time>
      </trkpt>
      <trkpt lat="42.290847022086382" lon="3.270153002813458">
        <ele>49.649999999999999</ele>
        <time>2025-05-15T12:49:38Z</time>
      </trkpt>
      <trkpt lat="42.290363973006606" lon="3.269938006997109">
        <ele>47.719999999999999</ele>
        <time>2025-05-15T12:49:42Z</time>
      </trkpt>
      <trkpt lat="42.290231036022305" lon="3.269916968420148">
        <ele>46.759999999999998</ele>
        <time>2025-05-15T12:49:43Z</time>
      </trkpt>
      <trkpt lat="42.289230991154909" lon="3.269827030599117">
        <ele>40.509999999999998</ele>
        <time>2025-05-15T12:49:51Z</time>
      </trkpt>
      <trkpt lat="42.28912697173655" lon="3.269885033369064">
        <ele>39.549999999999997</ele>
        <time>2025-05-15T12:49:52Z</time>
      </trkpt>
      <trkpt lat="42.2890380397439" lon="3.269934989511967">
        <ele>38.590000000000003</ele>
        <time>2025-05-15T12:49:53Z</time>
      </trkpt>
      <trkpt lat="42.288998980075121" lon="3.27002702280879">
        <ele>37.630000000000003</ele>
        <time>2025-05-15T12:49:54Z</time>
      </trkpt>
      <trkpt lat="42.288965033367276" lon="3.270142022520304">
        <ele>37.149999999999999</ele>
        <time>2025-05-15T12:49:55Z</time>
      </trkpt>
      <trkpt lat="42.288943994790316" lon="3.270282000303268">
        <ele>36.189999999999998</ele>
        <time>2025-05-15T12:49:56Z</time>
      </trkpt>
      <trkpt lat="42.288945000618696" lon="3.270431030541658">
        <ele>35.710000000000001</ele>
        <time>2025-05-15T12:49:57Z</time>
      </trkpt>
      <trkpt lat="42.288979031145573" lon="3.270596992224455">
        <ele>34.740000000000002</ele>
        <time>2025-05-15T12:49:58Z</time>
      </trkpt>
      <trkpt lat="42.289013983681798" lon="3.270767983049154">
        <ele>33.780000000000001</ele>
        <time>2025-05-15T12:49:59Z</time>
      </trkpt>
      <trkpt lat="42.289156978949904" lon="3.27127299271524">
        <ele>31.379999999999999</ele>
        <time>2025-05-15T12:50:02Z</time>
      </trkpt>
      <trkpt lat="42.289215987548232" lon="3.271412970498204">
        <ele>30.420000000000002</ele>
        <time>2025-05-15T12:50:03Z</time>
      </trkpt>
      <trkpt lat="42.289281031116843" lon="3.271525958552957">
        <ele>28.98</ele>
        <time>2025-05-15T12:50:04Z</time>
      </trkpt>
      <trkpt lat="42.289370968937874" lon="3.271606005728245">
        <ele>28.02</ele>
        <time>2025-05-15T12:50:05Z</time>
      </trkpt>
      <trkpt lat="42.289455961436033" lon="3.27168102376163">
        <ele>27.050000000000001</ele>
        <time>2025-05-15T12:50:06Z</time>
      </trkpt>
      <trkpt lat="42.290237993001938" lon="3.272288041189313">
        <ele>18.879999999999999</ele>
        <time>2025-05-15T12:50:15Z</time>
      </trkpt>
      <trkpt lat="42.290308987721801" lon="3.272319976240397">
        <ele>18.879999999999999</ele>
        <time>2025-05-15T12:50:16Z</time>
      </trkpt>
      <trkpt lat="42.290373025462031" lon="3.272337997332215">
        <ele>17.920000000000002</ele>
        <time>2025-05-15T12:50:17Z</time>
      </trkpt>
      <trkpt lat="42.290447959676385" lon="3.272337997332215">
        <ele>17.440000000000001</ele>
        <time>2025-05-15T12:50:18Z</time>
      </trkpt>
      <trkpt lat="42.29052297770977" lon="3.272337997332215">
        <ele>17.440000000000001</ele>
        <time>2025-05-15T12:50:19Z</time>
      </trkpt>
      <trkpt lat="42.290746020153165" lon="3.272374961525202">
        <ele>16</ele>
        <time>2025-05-15T12:50:22Z</time>
      </trkpt>
      <trkpt lat="42.290812991559505" lon="3.272419972345233">
        <ele>15.039999999999999</ele>
        <time>2025-05-15T12:50:23Z</time>
      </trkpt>
      <trkpt lat="42.290835035964847" lon="3.272492978721857">
        <ele>14.56</ele>
        <time>2025-05-15T12:50:24Z</time>
      </trkpt>
      <trkpt lat="42.290854984894395" lon="3.272583000361919">
        <ele>13.6</ele>
        <time>2025-05-15T12:50:25Z</time>
      </trkpt>
      <trkpt lat="42.290858002379537" lon="3.272655000910163">
        <ele>12.630000000000001</ele>
        <time>2025-05-15T12:50:26Z</time>
      </trkpt>
      <trkpt lat="42.290847022086382" lon="3.272752985358238">
        <ele>12.15</ele>
        <time>2025-05-15T12:50:27Z</time>
      </trkpt>
      <trkpt lat="42.290825983509421" lon="3.272833032533526">
        <ele>11.19</ele>
        <time>2025-05-15T12:50:28Z</time>
      </trkpt>
      <trkpt lat="42.29077803902328" lon="3.27290796674788">
        <ele>10.710000000000001</ele>
        <time>2025-05-15T12:50:29Z</time>
      </trkpt>
      <trkpt lat="42.290730010718107" lon="3.272983990609646">
        <ele>10.710000000000001</ele>
        <time>2025-05-15T12:50:30Z</time>
      </trkpt>
      <trkpt lat="42.290636971592903" lon="3.273144001141191">
        <ele>10.23</ele>
        <time>2025-05-15T12:50:32Z</time>
      </trkpt>
      <trkpt lat="42.290532030165195" lon="3.273334018886089">
        <ele>9.75</ele>
        <time>2025-05-15T12:50:35Z</time>
      </trkpt>
      <trkpt lat="42.290475033223629" lon="3.273436026647687">
        <ele>8.789999999999999</ele>
        <time>2025-05-15T12:50:37Z</time>
      </trkpt>
      <trkpt lat="42.290448965504766" lon="3.273481959477067">
        <ele>8.789999999999999</ele>
        <time>2025-05-15T12:50:38Z</time>
      </trkpt>
      <trkpt lat="42.290421975776553" lon="3.273528981953859">
        <ele>8.310000000000001</ele>
        <time>2025-05-15T12:50:39Z</time>
      </trkpt>
      <trkpt lat="42.290330026298761" lon="3.273692009970546">
        <ele>6.87</ele>
        <time>2025-05-15T12:50:42Z</time>
      </trkpt>
      <trkpt lat="42.290297001600266" lon="3.273751018568873">
        <ele>6.39</ele>
        <time>2025-05-15T12:50:43Z</time>
      </trkpt>
      <trkpt lat="42.290127016603947" lon="3.273867024108768">
        <ele>4.94</ele>
        <time>2025-05-15T12:50:46Z</time>
      </trkpt>
      <trkpt lat="42.290074964985251" lon="3.273918991908431">
        <ele>4.46</ele>
        <time>2025-05-15T12:50:47Z</time>
      </trkpt>
      <trkpt lat="42.289989972487092" lon="3.274003984406591">
        <ele>3.98</ele>
        <time>2025-05-15T12:50:49Z</time>
      </trkpt>
      <trkpt lat="42.289954014122486" lon="3.274040026590228">
        <ele>3.5</ele>
        <time>2025-05-15T12:50:50Z</time>
      </trkpt>
      <trkpt lat="42.289933981373906" lon="3.274094006046653">
        <ele>3.02</ele>
        <time>2025-05-15T12:50:51Z</time>
      </trkpt>
      <trkpt lat="42.289926018565893" lon="3.274146979674697">
        <ele>2.54</ele>
        <time>2025-05-15T12:50:52Z</time>
      </trkpt>
      <trkpt lat="42.289955019950867" lon="3.274204982444644">
        <ele>2.06</ele>
        <time>2025-05-15T12:50:53Z</time>
      </trkpt>
      <trkpt lat="42.289982009679079" lon="3.274204982444644">
        <ele>1.58</ele>
        <time>2025-05-15T12:50:54Z</time>
      </trkpt>
      <trkpt lat="42.290012016892433" lon="3.27417497523129">
        <ele>1.58</ele>
        <time>2025-05-15T12:50:55Z</time>
      </trkpt>
      <trkpt lat="42.290041018277407" lon="3.274145973846316">
        <ele>1.1</ele>
        <time>2025-05-15T12:50:56Z</time>
      </trkpt>
      <trkpt lat="42.290069013834" lon="3.274117978289723">
        <ele>1.1</ele>
        <time>2025-05-15T12:50:57Z</time>
      </trkpt>
      <trkpt lat="42.290103966370225" lon="3.274083025753498">
        <ele>1.1</ele>
        <time>2025-05-15T12:50:58Z</time>
      </trkpt>
      <trkpt lat="42.290142020210624" lon="3.274044971913099">
        <ele>0.62</ele>
        <time>2025-05-15T12:50:59Z</time>
      </trkpt>
      <trkpt lat="42.290184013545513" lon="3.274007001891732">
        <ele>0.62</ele>
        <time>2025-05-15T12:51:00Z</time>
      </trkpt>
      <trkpt lat="42.290231036022305" lon="3.273967020213604">
        <ele>0.62</ele>
        <time>2025-05-15T12:51:01Z</time>
      </trkpt>
      <trkpt lat="42.290304964408278" lon="3.273903988301754">
        <ele>1.1</ele>
        <time>2025-05-15T12:51:02Z</time>
      </trkpt>
      <trkpt lat="42.290754988789558" lon="3.273840034380555">
        <ele>4.94</ele>
        <time>2025-05-15T12:51:08Z</time>
      </trkpt>
      <trkpt lat="42.290824977681041" lon="3.273840034380555">
        <ele>6.39</ele>
        <time>2025-05-15T12:51:09Z</time>
      </trkpt>
      <trkpt lat="42.290905024856329" lon="3.273840034380555">
        <ele>6.87</ele>
        <time>2025-05-15T12:51:10Z</time>
      </trkpt>
      <trkpt lat="42.290964033454657" lon="3.273868029937148">
        <ele>7.83</ele>
        <time>2025-05-15T12:51:11Z</time>
      </trkpt>
      <trkpt lat="42.291027987375855" lon="3.273897031322122">
        <ele>8.789999999999999</ele>
        <time>2025-05-15T12:51:12Z</time>
      </trkpt>
      <trkpt lat="42.291448004543781" lon="3.274089982733131">
        <ele>12.15</ele>
        <time>2025-05-15T12:51:18Z</time>
      </trkpt>
      <trkpt lat="42.291501984000206" lon="3.274132981896401">
        <ele>13.119999999999999</ele>
        <time>2025-05-15T12:51:19Z</time>
      </trkpt>
      <trkpt lat="42.291613966226578" lon="3.274232978001237">
        <ele>14.56</ele>
        <time>2025-05-15T12:51:21Z</time>
      </trkpt>
      <trkpt lat="42.291665012016892" lon="3.274280000478029">
        <ele>15.52</ele>
        <time>2025-05-15T12:51:22Z</time>
      </trkpt>
      <trkpt lat="42.291757967323065" lon="3.274362981319428">
        <ele>16.960000000000001</ele>
        <time>2025-05-15T12:51:24Z</time>
      </trkpt>
      <trkpt lat="42.291800966486335" lon="3.274402040988207">
        <ele>17.440000000000001</ele>
        <time>2025-05-15T12:51:25Z</time>
      </trkpt>
      <trkpt lat="42.291839020326734" lon="3.274435987696052">
        <ele>17.920000000000002</ele>
        <time>2025-05-15T12:51:26Z</time>
      </trkpt>
      <trkpt lat="42.292115036398172" lon="3.274534977972508">
        <ele>21.289999999999999</ele>
        <time>2025-05-15T12:51:35Z</time>
      </trkpt>
      <trkpt lat="42.292336989194155" lon="3.274534977972508">
        <ele>22.73</ele>
        <time>2025-05-15T12:51:39Z</time>
      </trkpt>
      <trkpt lat="42.292403038591146" lon="3.274530032649636">
        <ele>23.210000000000001</ele>
        <time>2025-05-15T12:51:40Z</time>
      </trkpt>
      <trkpt lat="42.292677965015173" lon="3.274445040151477">
        <ele>24.649999999999999</ele>
        <time>2025-05-15T12:51:44Z</time>
      </trkpt>
      <trkpt lat="42.292747031897306" lon="3.2744110096246">
        <ele>24.649999999999999</ele>
        <time>2025-05-15T12:51:45Z</time>
      </trkpt>
      <trkpt lat="42.292808974161744" lon="3.274354012683034">
        <ele>24.649999999999999</ele>
        <time>2025-05-15T12:51:46Z</time>
      </trkpt>
      <trkpt lat="42.293078033253551" lon="3.274029968306422">
        <ele>26.09</ele>
        <time>2025-05-15T12:51:51Z</time>
      </trkpt>
      <trkpt lat="42.293150033801794" lon="3.274012031033635">
        <ele>26.57</ele>
        <time>2025-05-15T12:51:52Z</time>
      </trkpt>
      <trkpt lat="42.293214993551373" lon="3.274012031033635">
        <ele>27.050000000000001</ele>
        <time>2025-05-15T12:51:53Z</time>
      </trkpt>
      <trkpt lat="42.293262016028166" lon="3.274057963863015">
        <ele>27.530000000000001</ele>
        <time>2025-05-15T12:51:54Z</time>
      </trkpt>
      <trkpt lat="42.293319012969732" lon="3.274124013260007">
        <ele>28.02</ele>
        <time>2025-05-15T12:51:55Z</time>
      </trkpt>
      <trkpt lat="42.293351031839848" lon="3.27419601380825">
        <ele>28.5</ele>
        <time>2025-05-15T12:51:56Z</time>
      </trkpt>
      <trkpt lat="42.293351031839848" lon="3.274321993812919">
        <ele>28.98</ele>
        <time>2025-05-15T12:51:57Z</time>
      </trkpt>
      <trkpt lat="42.293351031839848" lon="3.274459037929773">
        <ele>29.940000000000001</ele>
        <time>2025-05-15T12:51:58Z</time>
      </trkpt>
      <trkpt lat="42.293351031839848" lon="3.274589041247964">
        <ele>30.899999999999999</ele>
        <time>2025-05-15T12:51:59Z</time>
      </trkpt>
      <trkpt lat="42.293337034061551" lon="3.274713009595871">
        <ele>32.340000000000003</ele>
        <time>2025-05-15T12:52:00Z</time>
      </trkpt>
      <trkpt lat="42.293303003534675" lon="3.27499003149569">
        <ele>34.259999999999998</ele>
        <time>2025-05-15T12:52:02Z</time>
      </trkpt>
      <trkpt lat="42.293287999927998" lon="3.275121040642262">
        <ele>35.710000000000001</ele>
        <time>2025-05-15T12:52:03Z</time>
      </trkpt>
      <trkpt lat="42.293218011036515" lon="3.275195974856615">
        <ele>36.670000000000002</ele>
        <time>2025-05-15T12:52:04Z</time>
      </trkpt>
      <trkpt lat="42.293148022145033" lon="3.275265963748097">
        <ele>37.149999999999999</ele>
        <time>2025-05-15T12:52:05Z</time>
      </trkpt>
      <trkpt lat="42.293064035475254" lon="3.275304017588496">
        <ele>38.109999999999999</ele>
        <time>2025-05-15T12:52:06Z</time>
      </trkpt>
      <trkpt lat="42.292968984693289" lon="3.27533695846796">
        <ele>38.590000000000003</ele>
        <time>2025-05-15T12:52:07Z</time>
      </trkpt>
      <trkpt lat="42.29243497364223" lon="3.27565697953105">
        <ele>42.439999999999998</ele>
        <time>2025-05-15T12:52:14Z</time>
      </trkpt>
      <trkpt lat="42.292331960052252" lon="3.275776002556086">
        <ele>42.920000000000002</ele>
        <time>2025-05-15T12:52:16Z</time>
      </trkpt>
      <trkpt lat="42.292280998080969" lon="3.275840962305665">
        <ele>42.920000000000002</ele>
        <time>2025-05-15T12:52:17Z</time>
      </trkpt>
      <trkpt lat="42.292210003361106" lon="3.276002984493971">
        <ele>43.399999999999999</ele>
        <time>2025-05-15T12:52:19Z</time>
      </trkpt>
      <trkpt lat="42.292191982269287" lon="3.276071967557073">
        <ele>43.399999999999999</ele>
        <time>2025-05-15T12:52:20Z</time>
      </trkpt>
      <trkpt lat="42.292191982269287" lon="3.276138016954064">
        <ele>43.399999999999999</ele>
        <time>2025-05-15T12:52:21Z</time>
      </trkpt>
      <trkpt lat="42.292191982269287" lon="3.27625896781683">
        <ele>43.880000000000003</ele>
        <time>2025-05-15T12:52:23Z</time>
      </trkpt>
      <trkpt lat="42.292191982269287" lon="3.276331974193454">
        <ele>43.880000000000003</ele>
        <time>2025-05-15T12:52:24Z</time>
      </trkpt>
      <trkpt lat="42.292289966717362" lon="3.27703102491796">
        <ele>44.359999999999999</ele>
        <time>2025-05-15T12:52:32Z</time>
      </trkpt>
      <trkpt lat="42.292312011122704" lon="3.27709598466754">
        <ele>44.359999999999999</ele>
        <time>2025-05-15T12:52:33Z</time>
      </trkpt>
      <trkpt lat="42.292335983365774" lon="3.277165973559022">
        <ele>44.359999999999999</ele>
        <time>2025-05-15T12:52:34Z</time>
      </trkpt>
      <trkpt lat="42.29238904081285" lon="3.277229005470872">
        <ele>43.880000000000003</ele>
        <time>2025-05-15T12:52:35Z</time>
      </trkpt>
      <trkpt lat="42.292446959763765" lon="3.277280973270536">
        <ele>43.880000000000003</ele>
        <time>2025-05-15T12:52:36Z</time>
      </trkpt>
      <trkpt lat="42.292501023039222" lon="3.277330007404089">
        <ele>43.880000000000003</ele>
        <time>2025-05-15T12:52:37Z</time>
      </trkpt>
      <trkpt lat="42.292548967525363" lon="3.277373006567359">
        <ele>43.880000000000003</ele>
        <time>2025-05-15T12:52:38Z</time>
      </trkpt>
      <trkpt lat="42.292714007198811" lon="3.277442995458841">
        <ele>43.880000000000003</ele>
        <time>2025-05-15T12:52:41Z</time>
      </trkpt>
      <trkpt lat="42.292772009968758" lon="3.277465961873531">
        <ele>43.880000000000003</ele>
        <time>2025-05-15T12:52:42Z</time>
      </trkpt>
      <trkpt lat="42.292839987203479" lon="3.277479959651828">
        <ele>43.880000000000003</ele>
        <time>2025-05-15T12:52:43Z</time>
      </trkpt>
      <trkpt lat="42.292977031320333" lon="3.277507033199072">
        <ele>43.880000000000003</ele>
        <time>2025-05-15T12:52:45Z</time>
      </trkpt>
      <trkpt lat="42.293098988011479" lon="3.277532011270523">
        <ele>43.880000000000003</ele>
        <time>2025-05-15T12:52:47Z</time>
      </trkpt>
      <trkpt lat="42.293200995773077" lon="3.277551960200071">
        <ele>43.880000000000003</ele>
        <time>2025-05-15T12:52:49Z</time>
      </trkpt>
      <trkpt lat="42.293254975229502" lon="3.27761298045516">
        <ele>43.399999999999999</ele>
        <time>2025-05-15T12:52:50Z</time>
      </trkpt>
      <trkpt lat="42.293295040726662" lon="3.277660002931953">
        <ele>43.399999999999999</ele>
        <time>2025-05-15T12:52:51Z</time>
      </trkpt>
      <trkpt lat="42.293332004919648" lon="3.277701996266842">
        <ele>42.439999999999998</ele>
        <time>2025-05-15T12:52:52Z</time>
      </trkpt>
      <trkpt lat="42.293346002697945" lon="3.27774197794497">
        <ele>41.950000000000003</ele>
        <time>2025-05-15T12:52:53Z</time>
      </trkpt>
      <trkpt lat="42.293327981606126" lon="3.277799980714917">
        <ele>40.990000000000002</ele>
        <time>2025-05-15T12:52:54Z</time>
      </trkpt>
      <trkpt lat="42.293307026848197" lon="3.2778699696064">
        <ele>40.990000000000002</ele>
        <time>2025-05-15T12:52:55Z</time>
      </trkpt>
      <trkpt lat="42.293286994099617" lon="3.277938030660152">
        <ele>40.509999999999998</ele>
        <time>2025-05-15T12:52:56Z</time>
      </trkpt>
      <trkpt lat="42.293247012421489" lon="3.277985975146294">
        <ele>40.030000000000001</ele>
        <time>2025-05-15T12:52:57Z</time>
      </trkpt>
      <trkpt lat="42.293203007429838" lon="3.278037020936608">
        <ele>39.549999999999997</ele>
        <time>2025-05-15T12:52:58Z</time>
      </trkpt>
      <trkpt lat="42.293159002438188" lon="3.278088988736272">
        <ele>39.07</ele>
        <time>2025-05-15T12:52:59Z</time>
      </trkpt>
      <trkpt lat="42.29307996109128" lon="3.278183033689857">
        <ele>37.630000000000003</ele>
        <time>2025-05-15T12:53:01Z</time>
      </trkpt>
      <trkpt lat="42.292988011613488" lon="3.278264002874494">
        <ele>36.670000000000002</ele>
        <time>2025-05-15T12:53:03Z</time>
      </trkpt>
      <trkpt lat="42.292932020500302" lon="3.278314964845777">
        <ele>36.189999999999998</ele>
        <time>2025-05-15T12:53:04Z</time>
      </trkpt>
      <trkpt lat="42.292858008295298" lon="3.278388977050781">
        <ele>36.189999999999998</ele>
        <time>2025-05-15T12:53:05Z</time>
      </trkpt>
      <trkpt lat="42.292829006910324" lon="3.278401969000697">
        <ele>35.710000000000001</ele>
        <time>2025-05-15T12:53:06Z</time>
      </trkpt>
      <trkpt lat="42.292777961120009" lon="3.2784260250628">
        <ele>35.710000000000001</ele>
        <time>2025-05-15T12:53:07Z</time>
      </trkpt>
      <trkpt lat="42.292524995282292" lon="3.278558040037751">
        <ele>36.189999999999998</ele>
        <time>2025-05-15T12:53:12Z</time>
      </trkpt>
      <trkpt lat="42.292475961148739" lon="3.278595004230738">
        <ele>35.710000000000001</ele>
        <time>2025-05-15T12:53:13Z</time>
      </trkpt>
      <trkpt lat="42.292406978085637" lon="3.278646972030401">
        <ele>36.189999999999998</ele>
        <time>2025-05-15T12:53:14Z</time>
      </trkpt>
      <trkpt lat="42.292384011670947" lon="3.278700029477477">
        <ele>36.189999999999998</ele>
        <time>2025-05-15T12:53:15Z</time>
      </trkpt>
      <trkpt lat="42.292352998629212" lon="3.278769012540579">
        <ele>36.189999999999998</ele>
        <time>2025-05-15T12:53:16Z</time>
      </trkpt>
      <trkpt lat="42.292322991415858" lon="3.278839001432061">
        <ele>36.189999999999998</ele>
        <time>2025-05-15T12:53:17Z</time>
      </trkpt>
      <trkpt lat="42.29213397949934" lon="3.279348034411669">
        <ele>36.670000000000002</ele>
        <time>2025-05-15T12:53:24Z</time>
      </trkpt>
      <trkpt lat="42.292086035013199" lon="3.279486000537872">
        <ele>36.670000000000002</ele>
        <time>2025-05-15T12:53:26Z</time>
      </trkpt>
      <trkpt lat="42.292020991444588" lon="3.279820019379258">
        <ele>35.710000000000001</ele>
        <time>2025-05-15T12:53:35Z</time>
      </trkpt>
      <trkpt lat="42.292043035849929" lon="3.279892019927502">
        <ele>35.710000000000001</ele>
        <time>2025-05-15T12:53:36Z</time>
      </trkpt>
      <trkpt lat="42.292072959244251" lon="3.279921021312475">
        <ele>36.189999999999998</ele>
        <time>2025-05-15T12:53:37Z</time>
      </trkpt>
      <trkpt lat="42.292095003649592" lon="3.279943987727165">
        <ele>36.670000000000002</ele>
        <time>2025-05-15T12:53:38Z</time>
      </trkpt>
      <trkpt lat="42.292115958407521" lon="3.279965026304126">
        <ele>37.149999999999999</ele>
        <time>2025-05-15T12:53:39Z</time>
      </trkpt>
      <trkpt lat="42.292149988934398" lon="3.279998973011971">
        <ele>37.149999999999999</ele>
        <time>2025-05-15T12:53:40Z</time>
      </trkpt>
      <trkpt lat="42.292189970612526" lon="3.28003803268075">
        <ele>37.630000000000003</ele>
        <time>2025-05-15T12:53:41Z</time>
      </trkpt>
      <trkpt lat="42.292230958119035" lon="3.280080026015639">
        <ele>37.630000000000003</ele>
        <time>2025-05-15T12:53:42Z</time>
      </trkpt>
      <trkpt lat="42.292277980595827" lon="3.2801269646734">
        <ele>38.109999999999999</ele>
        <time>2025-05-15T12:53:43Z</time>
      </trkpt>
      <trkpt lat="42.292304970324039" lon="3.280168035998941">
        <ele>38.590000000000003</ele>
        <time>2025-05-15T12:53:44Z</time>
      </trkpt>
      <trkpt lat="42.292421981692314" lon="3.280349001288414">
        <ele>39.549999999999997</ele>
        <time>2025-05-15T12:53:47Z</time>
      </trkpt>
      <trkpt lat="42.292546033859253" lon="3.280539019033313">
        <ele>40.030000000000001</ele>
        <time>2025-05-15T12:53:51Z</time>
      </trkpt>
      <trkpt lat="42.292610993608832" lon="3.280567014589906">
        <ele>40.030000000000001</ele>
        <time>2025-05-15T12:53:52Z</time>
      </trkpt>
      <trkpt lat="42.292772009968758" lon="3.280599033460021">
        <ele>40.990000000000002</ele>
        <time>2025-05-15T12:53:55Z</time>
      </trkpt>
      <trkpt lat="42.292816014960408" lon="3.280637003481388">
        <ele>41.469999999999999</ele>
        <time>2025-05-15T12:53:56Z</time>
      </trkpt>
      <trkpt lat="42.292897989973426" lon="3.280709004029632">
        <ele>41.950000000000003</ele>
        <time>2025-05-15T12:53:58Z</time>
      </trkpt>
      <trkpt lat="42.292936965823174" lon="3.280743034556508">
        <ele>42.439999999999998</ele>
        <time>2025-05-15T12:53:59Z</time>
      </trkpt>
      <trkpt lat="42.293007960543036" lon="3.280814029276371">
        <ele>42.439999999999998</ele>
        <time>2025-05-15T12:54:01Z</time>
      </trkpt>
      <trkpt lat="42.293041991069913" lon="3.28085602261126">
        <ele>41.950000000000003</ele>
        <time>2025-05-15T12:54:02Z</time>
      </trkpt>
      <trkpt lat="42.293066969141364" lon="3.280888041481376">
        <ele>41.950000000000003</ele>
        <time>2025-05-15T12:54:03Z</time>
      </trkpt>
      <trkpt lat="42.293195966631174" lon="3.28096498735249">
        <ele>41.950000000000003</ele>
        <time>2025-05-15T12:54:06Z</time>
      </trkpt>
      <trkpt lat="42.293252041563392" lon="3.280988959595561">
        <ele>42.439999999999998</ele>
        <time>2025-05-15T12:54:07Z</time>
      </trkpt>
      <trkpt lat="42.293372992426157" lon="3.281041011214256">
        <ele>42.920000000000002</ele>
        <time>2025-05-15T12:54:09Z</time>
      </trkpt>
      <trkpt lat="42.293438035994768" lon="3.28104997985065">
        <ele>42.439999999999998</ele>
        <time>2025-05-15T12:54:10Z</time>
      </trkpt>
      <trkpt lat="42.293511964380741" lon="3.28104997985065">
        <ele>42.920000000000002</ele>
        <time>2025-05-15T12:54:11Z</time>
      </trkpt>
      <trkpt lat="42.29419601149857" lon="3.280945038422942">
        <ele>44.840000000000003</ele>
        <time>2025-05-15T12:54:19Z</time>
      </trkpt>
      <trkpt lat="42.29428100399673" lon="3.280957024544478">
        <ele>44.840000000000003</ele>
        <time>2025-05-15T12:54:20Z</time>
      </trkpt>
      <trkpt lat="42.294359961524606" lon="3.280999017879367">
        <ele>44.840000000000003</ele>
        <time>2025-05-15T12:54:21Z</time>
      </trkpt>
      <trkpt lat="42.29443397372961" lon="3.281058026477695">
        <ele>44.840000000000003</ele>
        <time>2025-05-15T12:54:22Z</time>
      </trkpt>
      <trkpt lat="42.294509997591376" lon="3.281118962913752">
        <ele>44.359999999999999</ele>
        <time>2025-05-15T12:54:23Z</time>
      </trkpt>
      <trkpt lat="42.294585015624762" lon="3.28117897734046">
        <ele>43.880000000000003</ele>
        <time>2025-05-15T12:54:24Z</time>
      </trkpt>
      <trkpt lat="42.294649975374341" lon="3.281255001202226">
        <ele>43.399999999999999</ele>
        <time>2025-05-15T12:54:25Z</time>
      </trkpt>
      <trkpt lat="42.294692974537611" lon="3.281377963721752">
        <ele>42.439999999999998</ele>
        <time>2025-05-15T12:54:26Z</time>
      </trkpt>
      <trkpt lat="42.294737985357642" lon="3.281508972868323">
        <ele>41.469999999999999</ele>
        <time>2025-05-15T12:54:27Z</time>
      </trkpt>
      <trkpt lat="42.294782996177673" lon="3.281637970358133">
        <ele>40.509999999999998</ele>
        <time>2025-05-15T12:54:28Z</time>
      </trkpt>
      <trkpt lat="42.294830018654466" lon="3.281773002818227">
        <ele>39.549999999999997</ele>
        <time>2025-05-15T12:54:29Z</time>
      </trkpt>
      <trkpt lat="42.294918028637767" lon="3.281893031671643">
        <ele>38.590000000000003</ele>
        <time>2025-05-15T12:54:30Z</time>
      </trkpt>
      <trkpt lat="42.295008972287178" lon="3.282011970877647">
        <ele>37.149999999999999</ele>
        <time>2025-05-15T12:54:31Z</time>
      </trkpt>
      <trkpt lat="42.295099999755621" lon="3.282131999731064">
        <ele>35.710000000000001</ele>
        <time>2025-05-15T12:54:32Z</time>
      </trkpt>
      <trkpt lat="42.29518499225378" lon="3.282260997220874">
        <ele>34.740000000000002</ele>
        <time>2025-05-15T12:54:33Z</time>
      </trkpt>
      <trkpt lat="42.29522799141705" lon="3.282398963347077">
        <ele>33.299999999999997</ele>
        <time>2025-05-15T12:54:34Z</time>
      </trkpt>
      <trkpt lat="42.295265039429069" lon="3.282515974715352">
        <ele>32.82</ele>
        <time>2025-05-15T12:54:35Z</time>
      </trkpt>
      <trkpt lat="42.295309966430068" lon="3.282611025497317">
        <ele>31.859999999999999</ele>
        <time>2025-05-15T12:54:36Z</time>
      </trkpt>
      <trkpt lat="42.295360006392002" lon="3.282680008560419">
        <ele>31.379999999999999</ele>
        <time>2025-05-15T12:54:37Z</time>
      </trkpt>
      <trkpt lat="42.295408034697175" lon="3.282744968309999">
        <ele>30.420000000000002</ele>
        <time>2025-05-15T12:54:38Z</time>
      </trkpt>
      <trkpt lat="42.295466959476471" lon="3.282815963029862">
        <ele>30.420000000000002</ele>
        <time>2025-05-15T12:54:39Z</time>
      </trkpt>
      <trkpt lat="42.295542983338237" lon="3.28285301104188">
        <ele>30.420000000000002</ele>
        <time>2025-05-15T12:54:40Z</time>
      </trkpt>
      <trkpt lat="42.295653959736228" lon="3.282901039347053">
        <ele>29.940000000000001</ele>
        <time>2025-05-15T12:54:41Z</time>
      </trkpt>
      <trkpt lat="42.296367008239031" lon="3.28304504044354">
        <ele>26.09</ele>
        <time>2025-05-15T12:54:46Z</time>
      </trkpt>
      <trkpt lat="42.296478990465403" lon="3.28304504044354">
        <ele>25.609999999999999</ele>
        <time>2025-05-15T12:54:47Z</time>
      </trkpt>
      <trkpt lat="42.296585021540523" lon="3.283012015745044">
        <ele>25.129999999999999</ele>
        <time>2025-05-15T12:54:48Z</time>
      </trkpt>
      <trkpt lat="42.296694992110133" lon="3.282974967733026">
        <ele>25.129999999999999</ele>
        <time>2025-05-15T12:54:49Z</time>
      </trkpt>
      <trkpt lat="42.296793982386589" lon="3.282930040732026">
        <ele>25.129999999999999</ele>
        <time>2025-05-15T12:54:50Z</time>
      </trkpt>
      <trkpt lat="42.296893978491426" lon="3.282873965799809">
        <ele>25.609999999999999</ele>
        <time>2025-05-15T12:54:51Z</time>
      </trkpt>
      <trkpt lat="42.297721020877361" lon="3.28246702440083">
        <ele>24.170000000000002</ele>
        <time>2025-05-15T12:54:59Z</time>
      </trkpt>
      <trkpt lat="42.297823028638959" lon="3.282453026622534">
        <ele>23.690000000000001</ele>
        <time>2025-05-15T12:55:00Z</time>
      </trkpt>
      <trkpt lat="42.297924030572176" lon="3.28246702440083">
        <ele>22.73</ele>
        <time>2025-05-15T12:55:01Z</time>
      </trkpt>
      <trkpt lat="42.298016985878348" lon="3.282513041049242">
        <ele>21.77</ele>
        <time>2025-05-15T12:55:02Z</time>
      </trkpt>
      <trkpt lat="42.298108013346791" lon="3.282569032162428">
        <ele>20.809999999999999</ele>
        <time>2025-05-15T12:55:03Z</time>
      </trkpt>
      <trkpt lat="42.298180013895035" lon="3.282656958326697">
        <ele>19.84</ele>
        <time>2025-05-15T12:55:04Z</time>
      </trkpt>
      <trkpt lat="42.29825503192842" lon="3.28274697996676">
        <ele>18.879999999999999</ele>
        <time>2025-05-15T12:55:05Z</time>
      </trkpt>
      <trkpt lat="42.298573963344097" lon="3.283179989084601">
        <ele>16</ele>
        <time>2025-05-15T12:55:10Z</time>
      </trkpt>
      <trkpt lat="42.298631966114044" lon="3.283291971310973">
        <ele>16</ele>
        <time>2025-05-15T12:55:11Z</time>
      </trkpt>
      <trkpt lat="42.298655016347766" lon="3.283424992114306">
        <ele>15.52</ele>
        <time>2025-05-15T12:55:12Z</time>
      </trkpt>
      <trkpt lat="42.298844028264284" lon="3.284589992836118">
        <ele>16</ele>
        <time>2025-05-15T12:55:21Z</time>
      </trkpt>
      <trkpt lat="42.298866994678974" lon="3.284699963405728">
        <ele>16.960000000000001</ele>
        <time>2025-05-15T12:55:22Z</time>
      </trkpt>
      <trkpt lat="42.298889039084315" lon="3.284804988652468">
        <ele>17.440000000000001</ele>
        <time>2025-05-15T12:55:23Z</time>
      </trkpt>
      <trkpt lat="42.298912005499005" lon="3.28491697087884">
        <ele>18.399999999999999</ele>
        <time>2025-05-15T12:55:24Z</time>
      </trkpt>
      <trkpt lat="42.298936983570457" lon="3.285035993903875">
        <ele>19.359999999999999</ele>
        <time>2025-05-15T12:55:25Z</time>
      </trkpt>
      <trkpt lat="42.298966990783811" lon="3.285164991393685">
        <ele>19.84</ele>
        <time>2025-05-15T12:55:26Z</time>
      </trkpt>
      <trkpt lat="42.299003032967448" lon="3.28530396334827">
        <ele>20.809999999999999</ele>
        <time>2025-05-15T12:55:27Z</time>
      </trkpt>
      <trkpt lat="42.299162959679961" lon="3.285888014361262">
        <ele>25.129999999999999</ele>
        <time>2025-05-15T12:55:31Z</time>
      </trkpt>
      <trkpt lat="42.29922397993505" lon="3.285993961617351">
        <ele>26.09</ele>
        <time>2025-05-15T12:55:32Z</time>
      </trkpt>
      <trkpt lat="42.299292962998152" lon="3.286060011014342">
        <ele>27.530000000000001</ele>
        <time>2025-05-15T12:55:33Z</time>
      </trkpt>
      <trkpt lat="42.299370998516679" lon="3.286126982420683">
        <ele>28.5</ele>
        <time>2025-05-15T12:55:34Z</time>
      </trkpt>
      <trkpt lat="42.299464037641883" lon="3.286146009340882">
        <ele>28.98</ele>
        <time>2025-05-15T12:55:35Z</time>
      </trkpt>
      <trkpt lat="42.299551963806152" lon="3.286156989634037">
        <ele>29.940000000000001</ele>
        <time>2025-05-15T12:55:36Z</time>
      </trkpt>
      <trkpt lat="42.29965397156775" lon="3.286077026277781">
        <ele>30.420000000000002</ele>
        <time>2025-05-15T12:55:37Z</time>
      </trkpt>
      <trkpt lat="42.299754973500967" lon="3.285997984930873">
        <ele>31.379999999999999</ele>
        <time>2025-05-15T12:55:38Z</time>
      </trkpt>
      <trkpt lat="42.299862010404468" lon="3.285913998261094">
        <ele>32.340000000000003</ele>
        <time>2025-05-15T12:55:39Z</time>
      </trkpt>
      <trkpt lat="42.300982000306249" lon="3.284988971427083">
        <ele>41.950000000000003</ele>
        <time>2025-05-15T12:55:50Z</time>
      </trkpt>
      <trkpt lat="42.301089959219098" lon="3.284912025555968">
        <ele>42.439999999999998</ele>
        <time>2025-05-15T12:55:51Z</time>
      </trkpt>
      <trkpt lat="42.30119900777936" lon="3.284906996414065">
        <ele>43.399999999999999</ele>
        <time>2025-05-15T12:55:52Z</time>
      </trkpt>
      <trkpt lat="42.301311995834112" lon="3.284900961443782">
        <ele>44.359999999999999</ele>
        <time>2025-05-15T12:55:53Z</time>
      </trkpt>
      <trkpt lat="42.301423978060484" lon="3.284896016120911">
        <ele>45.32</ele>
        <time>2025-05-15T12:55:54Z</time>
      </trkpt>
      <trkpt lat="42.301977016031742" lon="3.284870032221079">
        <ele>48.200000000000003</ele>
        <time>2025-05-15T12:56:01Z</time>
      </trkpt>
      <trkpt lat="42.302412036806345" lon="3.2848309725523">
        <ele>48.200000000000003</ele>
        <time>2025-05-15T12:56:06Z</time>
      </trkpt>
      <trkpt lat="42.302795005962253" lon="3.284783028066158">
        <ele>47.719999999999999</ele>
        <time>2025-05-15T12:56:10Z</time>
      </trkpt>
      <trkpt lat="42.303721960633993" lon="3.284468036144972">
        <ele>42.439999999999998</ele>
        <time>2025-05-15T12:56:19Z</time>
      </trkpt>
      <trkpt lat="42.303822040557861" lon="3.284406010061503">
        <ele>41.469999999999999</ele>
        <time>2025-05-15T12:56:20Z</time>
      </trkpt>
      <trkpt lat="42.303917007520795" lon="3.284345995634794">
        <ele>40.030000000000001</ele>
        <time>2025-05-15T12:56:21Z</time>
      </trkpt>
      <trkpt lat="42.303972998633981" lon="3.284310959279537">
        <ele>39.07</ele>
        <time>2025-05-15T12:56:22Z</time>
      </trkpt>
      <trkpt lat="42.304080035537481" lon="3.284356975927949">
        <ele>37.630000000000003</ele>
        <time>2025-05-15T12:56:23Z</time>
      </trkpt>
      <trkpt lat="42.304134014993906" lon="3.284391006454825">
        <ele>36.189999999999998</ele>
        <time>2025-05-15T12:56:24Z</time>
      </trkpt>
      <trkpt lat="42.304184976965189" lon="3.28446501865983">
        <ele>34.740000000000002</ele>
        <time>2025-05-15T12:56:25Z</time>
      </trkpt>
      <trkpt lat="42.304235016927123" lon="3.284535007551312">
        <ele>33.780000000000001</ele>
        <time>2025-05-15T12:56:26Z</time>
      </trkpt>
      <trkpt lat="42.304301988333464" lon="3.284599967300892">
        <ele>31.859999999999999</ele>
        <time>2025-05-15T12:56:27Z</time>
      </trkpt>
      <trkpt lat="42.30440097860992" lon="3.284633997827768">
        <ele>30.420000000000002</ele>
        <time>2025-05-15T12:56:28Z</time>
      </trkpt>
      <trkpt lat="42.304516984149814" lon="3.284672973677516">
        <ele>29.460000000000001</ele>
        <time>2025-05-15T12:56:29Z</time>
      </trkpt>
      <trkpt lat="42.305369004607201" lon="3.284923005849123">
        <ele>21.77</ele>
        <time>2025-05-15T12:56:36Z</time>
      </trkpt>
      <trkpt lat="42.305467994883657" lon="3.284899033606052">
        <ele>20.809999999999999</ele>
        <time>2025-05-15T12:56:37Z</time>
      </trkpt>
      <trkpt lat="42.305568996816874" lon="3.284811023622751">
        <ele>20.32</ele>
        <time>2025-05-15T12:56:38Z</time>
      </trkpt>
      <trkpt lat="42.30577502399683" lon="3.284598039463162">
        <ele>19.84</ele>
        <time>2025-05-15T12:56:40Z</time>
      </trkpt>
      <trkpt lat="42.305882982909679" lon="3.284503994509578">
        <ele>19.84</ele>
        <time>2025-05-15T12:56:41Z</time>
      </trkpt>
      <trkpt lat="42.305967975407839" lon="3.284503994509578">
        <ele>19.84</ele>
        <time>2025-05-15T12:56:42Z</time>
      </trkpt>
      <trkpt lat="42.306040981784463" lon="3.284577000886202">
        <ele>19.84</ele>
        <time>2025-05-15T12:56:43Z</time>
      </trkpt>
      <trkpt lat="42.306096972897649" lon="3.284632991999388">
        <ele>19.359999999999999</ele>
        <time>2025-05-15T12:56:44Z</time>
      </trkpt>
      <trkpt lat="42.306096972897649" lon="3.284736005589366">
        <ele>19.359999999999999</ele>
        <time>2025-05-15T12:56:45Z</time>
      </trkpt>
      <trkpt lat="42.306092027574778" lon="3.284841030836105">
        <ele>19.359999999999999</ele>
        <time>2025-05-15T12:56:46Z</time>
      </trkpt>
      <trkpt lat="42.306051040068269" lon="3.284962987527251">
        <ele>18.879999999999999</ele>
        <time>2025-05-15T12:56:47Z</time>
      </trkpt>
      <trkpt lat="42.306003011763096" lon="3.285106988623738">
        <ele>18.879999999999999</ele>
        <time>2025-05-15T12:56:48Z</time>
      </trkpt>
      <trkpt lat="42.305903015658259" lon="3.285407982766628">
        <ele>18.879999999999999</ele>
        <time>2025-05-15T12:56:50Z</time>
      </trkpt>
      <trkpt lat="42.305862028151751" lon="3.285536980256438">
        <ele>18.879999999999999</ele>
        <time>2025-05-15T12:56:51Z</time>
      </trkpt>
      <trkpt lat="42.305907960981131" lon="3.285638988018036">
        <ele>19.359999999999999</ele>
        <time>2025-05-15T12:56:52Z</time>
      </trkpt>
      <trkpt lat="42.305962024256587" lon="3.285759016871452">
        <ele>19.359999999999999</ele>
        <time>2025-05-15T12:56:53Z</time>
      </trkpt>
      <trkpt lat="42.306022038683295" lon="3.285892037674785">
        <ele>19.359999999999999</ele>
        <time>2025-05-15T12:56:54Z</time>
      </trkpt>
      <trkpt lat="42.306271987035871" lon="3.286297973245382">
        <ele>19.84</ele>
        <time>2025-05-15T12:56:57Z</time>
      </trkpt>
      <trkpt lat="42.306362008675933" lon="3.286396963521838">
        <ele>20.809999999999999</ele>
        <time>2025-05-15T12:56:58Z</time>
      </trkpt>
      <trkpt lat="42.306471979245543" lon="3.286412972956896">
        <ele>21.289999999999999</ele>
        <time>2025-05-15T12:56:59Z</time>
      </trkpt>
      <trkpt lat="42.306588990613818" lon="3.286430994048715">
        <ele>22.73</ele>
        <time>2025-05-15T12:57:00Z</time>
      </trkpt>
      <trkpt lat="42.306712036952376" lon="3.286449015140533">
        <ele>24.170000000000002</ele>
        <time>2025-05-15T12:57:01Z</time>
      </trkpt>
      <trkpt lat="42.306834999471903" lon="3.286456977948546">
        <ele>25.609999999999999</ele>
        <time>2025-05-15T12:57:02Z</time>
      </trkpt>
      <trkpt lat="42.30734696611762" lon="3.286427976563573">
        <ele>30.899999999999999</ele>
        <time>2025-05-15T12:57:07Z</time>
      </trkpt>
      <trkpt lat="42.307435981929302" lon="3.286375002935529">
        <ele>32.340000000000003</ele>
        <time>2025-05-15T12:57:08Z</time>
      </trkpt>
      <trkpt lat="42.307513011619449" lon="3.286327980458736">
        <ele>33.299999999999997</ele>
        <time>2025-05-15T12:57:09Z</time>
      </trkpt>
      <trkpt lat="42.307604039087892" lon="3.286209963262081">
        <ele>34.740000000000002</ele>
        <time>2025-05-15T12:57:10Z</time>
      </trkpt>
      <trkpt lat="42.30768701992929" lon="3.286102004349232">
        <ele>36.189999999999998</ele>
        <time>2025-05-15T12:57:11Z</time>
      </trkpt>
      <trkpt lat="42.307762959972024" lon="3.285984992980957">
        <ele>37.630000000000003</ele>
        <time>2025-05-15T12:57:12Z</time>
      </trkpt>
      <trkpt lat="42.307834038510919" lon="3.285853983834386">
        <ele>39.07</ele>
        <time>2025-05-15T12:57:13Z</time>
      </trkpt>
      <trkpt lat="42.307892963290215" lon="3.285707971081138">
        <ele>40.509999999999998</ele>
        <time>2025-05-15T12:57:14Z</time>
      </trkpt>
      <trkpt lat="42.307948032394052" lon="3.285547038540244">
        <ele>41.950000000000003</ele>
        <time>2025-05-15T12:57:15Z</time>
      </trkpt>
      <trkpt lat="42.308006035163999" lon="3.285376969724894">
        <ele>43.880000000000003</ele>
        <time>2025-05-15T12:57:16Z</time>
      </trkpt>
      <trkpt lat="42.308109970763326" lon="3.285073963925242">
        <ele>47.240000000000002</ele>
        <time>2025-05-15T12:57:18Z</time>
      </trkpt>
      <trkpt lat="42.308206027373672" lon="3.285034988075495">
        <ele>48.200000000000003</ele>
        <time>2025-05-15T12:57:19Z</time>
      </trkpt>
      <trkpt lat="42.308277022093534" lon="3.285013027489185">
        <ele>49.649999999999999</ele>
        <time>2025-05-15T12:57:20Z</time>
      </trkpt>
      <trkpt lat="42.308358997106552" lon="3.285038005560637">
        <ele>51.090000000000003</ele>
        <time>2025-05-15T12:57:21Z</time>
      </trkpt>
      <trkpt lat="42.308410964906216" lon="3.285129033029079">
        <ele>52.049999999999997</ele>
        <time>2025-05-15T12:57:22Z</time>
      </trkpt>
      <trkpt lat="42.308458993211389" lon="3.285245960578322">
        <ele>53.009999999999998</ele>
        <time>2025-05-15T12:57:23Z</time>
      </trkpt>
      <trkpt lat="42.308508027344942" lon="3.2853680010885">
        <ele>53.969999999999999</ele>
        <time>2025-05-15T12:57:24Z</time>
      </trkpt>
      <trkpt lat="42.308651022613049" lon="3.285719035193324">
        <ele>55.890000000000001</ele>
        <time>2025-05-15T12:57:27Z</time>
      </trkpt>
      <trkpt lat="42.308663008734584" lon="3.285848032683134">
        <ele>56.369999999999997</ele>
        <time>2025-05-15T12:57:28Z</time>
      </trkpt>
      <trkpt lat="42.308648005127907" lon="3.285970995202661">
        <ele>57.340000000000003</ele>
        <time>2025-05-15T12:57:29Z</time>
      </trkpt>
      <trkpt lat="42.308607017621398" lon="3.286090018227696">
        <ele>57.82</ele>
        <time>2025-05-15T12:57:30Z</time>
      </trkpt>
      <trkpt lat="42.308563012629747" lon="3.286218009889126">
        <ele>58.780000000000001</ele>
        <time>2025-05-15T12:57:31Z</time>
      </trkpt>
      <trkpt lat="42.308436026796699" lon="3.286586981266737">
        <ele>61.18</ele>
        <time>2025-05-15T12:57:34Z</time>
      </trkpt>
      <trkpt lat="42.308413982391357" lon="3.286707010120153">
        <ele>62.140000000000001</ele>
        <time>2025-05-15T12:57:35Z</time>
      </trkpt>
      <trkpt lat="42.30841800570488" lon="3.286856962367892">
        <ele>62.619999999999997</ele>
        <time>2025-05-15T12:57:36Z</time>
      </trkpt>
      <trkpt lat="42.308457987383008" lon="3.286996018141508">
        <ele>63.100000000000001</ele>
        <time>2025-05-15T12:57:37Z</time>
      </trkpt>
      <trkpt lat="42.308495035395026" lon="3.287127027288079">
        <ele>63.579999999999998</ele>
        <time>2025-05-15T12:57:38Z</time>
      </trkpt>
      <trkpt lat="42.308576004579663" lon="3.287205984815955">
        <ele>64.069999999999993</ele>
        <time>2025-05-15T12:57:39Z</time>
      </trkpt>
      <trkpt lat="42.308670971542597" lon="3.287283014506102">
        <ele>64.549999999999997</ele>
        <time>2025-05-15T12:57:40Z</time>
      </trkpt>
      <trkpt lat="42.308771973475814" lon="3.2873659953475">
        <ele>65.030000000000001</ele>
        <time>2025-05-15T12:57:41Z</time>
      </trkpt>
      <trkpt lat="42.30923498980701" lon="3.287722980603576">
        <ele>68.870000000000005</ele>
        <time>2025-05-15T12:57:46Z</time>
      </trkpt>
      <trkpt lat="42.309293998405337" lon="3.287722980603576">
        <ele>69.829999999999998</ele>
        <time>2025-05-15T12:57:47Z</time>
      </trkpt>
      <trkpt lat="42.309379996731877" lon="3.287670006975532">
        <ele>70.310000000000002</ele>
        <time>2025-05-15T12:57:48Z</time>
      </trkpt>
      <trkpt lat="42.309465995058417" lon="3.287616027519107">
        <ele>70.790000000000006</ele>
        <time>2025-05-15T12:57:49Z</time>
      </trkpt>
      <trkpt lat="42.309534978121519" lon="3.287521982565522">
        <ele>71.269999999999996</ele>
        <time>2025-05-15T12:57:50Z</time>
      </trkpt>
      <trkpt lat="42.309891041368246" lon="3.287105988711119">
        <ele>74.640000000000001</ele>
        <time>2025-05-15T12:57:55Z</time>
      </trkpt>
      <trkpt lat="42.309971004724503" lon="3.287084028124809">
        <ele>75.120000000000005</ele>
        <time>2025-05-15T12:57:56Z</time>
      </trkpt>
      <trkpt lat="42.310068989172578" lon="3.287057960405946">
        <ele>75.599999999999994</ele>
        <time>2025-05-15T12:57:57Z</time>
      </trkpt>
      <trkpt lat="42.310170996934175" lon="3.287092996761203">
        <ele>76.560000000000002</ele>
        <time>2025-05-15T12:57:58Z</time>
      </trkpt>
      <trkpt lat="42.310276022180915" lon="3.28712803311646">
        <ele>77.519999999999996</ele>
        <time>2025-05-15T12:57:59Z</time>
      </trkpt>
      <trkpt lat="42.310380963608623" lon="3.287162985652685">
        <ele>78</ele>
        <time>2025-05-15T12:58:00Z</time>
      </trkpt>
      <trkpt lat="42.310466961935163" lon="3.28725996427238">
        <ele>78.969999999999999</ele>
        <time>2025-05-15T12:58:01Z</time>
      </trkpt>
      <trkpt lat="42.310541979968548" lon="3.287369012832642">
        <ele>79.930000000000007</ele>
        <time>2025-05-15T12:58:02Z</time>
      </trkpt>
      <trkpt lat="42.310620015487075" lon="3.28749499283731">
        <ele>80.890000000000001</ele>
        <time>2025-05-15T12:58:03Z</time>
      </trkpt>
      <trkpt lat="42.310701990500093" lon="3.287628013640642">
        <ele>82.329999999999998</ele>
        <time>2025-05-15T12:58:04Z</time>
      </trkpt>
      <trkpt lat="42.310985969379544" lon="3.287920039147139">
        <ele>85.689999999999998</ele>
        <time>2025-05-15T12:58:07Z</time>
      </trkpt>
      <trkpt lat="42.311080014333129" lon="3.28798801638186">
        <ele>87.140000000000001</ele>
        <time>2025-05-15T12:58:08Z</time>
      </trkpt>
      <trkpt lat="42.311818040907383" lon="3.288442986086011">
        <ele>95.310000000000002</ele>
        <time>2025-05-15T12:58:18Z</time>
      </trkpt>
      <trkpt lat="42.311891969293356" lon="3.288473999127746">
        <ele>95.790000000000006</ele>
        <time>2025-05-15T12:58:19Z</time>
      </trkpt>
      <trkpt lat="42.311955001205206" lon="3.288473999127746">
        <ele>96.269999999999996</ele>
        <time>2025-05-15T12:58:20Z</time>
      </trkpt>
      <trkpt lat="42.312035970389843" lon="3.288442986086011">
        <ele>96.269999999999996</ele>
        <time>2025-05-15T12:58:21Z</time>
      </trkpt>
      <trkpt lat="42.312104031443596" lon="3.288415996357799">
        <ele>96.75</ele>
        <time>2025-05-15T12:58:22Z</time>
      </trkpt>
      <trkpt lat="42.312162034213543" lon="3.288393029943109">
        <ele>97.709999999999994</ele>
        <time>2025-05-15T12:58:23Z</time>
      </trkpt>
      <trkpt lat="42.312203021720052" lon="3.288377020508051">
        <ele>97.709999999999994</ele>
        <time>2025-05-15T12:58:24Z</time>
      </trkpt>
      <trkpt lat="42.312250966206193" lon="3.288358999416232">
        <ele>98.670000000000002</ele>
        <time>2025-05-15T12:58:30Z</time>
      </trkpt>
      <trkpt lat="42.312344005331397" lon="3.288322035223246">
        <ele>99.629999999999995</ele>
        <time>2025-05-15T12:58:32Z</time>
      </trkpt>
      <trkpt lat="42.312404019758105" lon="3.288298984989524">
        <ele>100.11</ele>
        <time>2025-05-15T12:58:33Z</time>
      </trkpt>
      <trkpt lat="42.312562018632889" lon="3.288236958906055">
        <ele>101.08</ele>
        <time>2025-05-15T12:58:35Z</time>
      </trkpt>
      <trkpt lat="42.313397023826838" lon="3.287937976419926">
        <ele>104.92</ele>
        <time>2025-05-15T12:58:43Z</time>
      </trkpt>
      <trkpt lat="42.313515963032842" lon="3.287937976419926">
        <ele>104.92</ele>
        <time>2025-05-15T12:58:44Z</time>
      </trkpt>
      <trkpt lat="42.313643032684922" lon="3.287937976419926">
        <ele>104.92</ele>
        <time>2025-05-15T12:58:45Z</time>
      </trkpt>
      <trkpt lat="42.314860001206398" lon="3.288263026624918">
        <ele>97.230000000000004</ele>
        <time>2025-05-15T12:58:55Z</time>
      </trkpt>
      <trkpt lat="42.316279979422688" lon="3.288556979969144">
        <ele>93.390000000000001</ele>
        <time>2025-05-15T12:59:07Z</time>
      </trkpt>
      <trkpt lat="42.316396990790963" lon="3.288581036031246">
        <ele>92.900000000000006</ele>
        <time>2025-05-15T12:59:08Z</time>
      </trkpt>
      <trkpt lat="42.316494975239038" lon="3.288659993559122">
        <ele>91.939999999999998</ele>
        <time>2025-05-15T12:59:09Z</time>
      </trkpt>
      <trkpt lat="42.316578039899468" lon="3.288726964965463">
        <ele>90.980000000000004</ele>
        <time>2025-05-15T12:59:10Z</time>
      </trkpt>
      <trkpt lat="42.316635036841035" lon="3.288845987990499">
        <ele>90.5</ele>
        <time>2025-05-15T12:59:11Z</time>
      </trkpt>
      <trkpt lat="42.316665966063738" lon="3.288972973823547">
        <ele>89.540000000000006</ele>
        <time>2025-05-15T12:59:12Z</time>
      </trkpt>
      <trkpt lat="42.316699996590614" lon="3.289109012112021">
        <ele>89.060000000000002</ele>
        <time>2025-05-15T12:59:13Z</time>
      </trkpt>
      <trkpt lat="42.316761016845703" lon="3.289239015430212">
        <ele>89.060000000000002</ele>
        <time>2025-05-15T12:59:14Z</time>
      </trkpt>
      <trkpt lat="42.31684198603034" lon="3.2893449626863">
        <ele>89.060000000000002</ele>
        <time>2025-05-15T12:59:15Z</time>
      </trkpt>
      <trkpt lat="42.316923039034009" lon="3.289451999589801">
        <ele>89.060000000000002</ele>
        <time>2025-05-15T12:59:16Z</time>
      </trkpt>
      <trkpt lat="42.31714197434485" lon="3.289740001782775">
        <ele>90.019999999999996</ele>
        <time>2025-05-15T12:59:19Z</time>
      </trkpt>
      <trkpt lat="42.317226966843009" lon="3.289799010381103">
        <ele>90.5</ele>
        <time>2025-05-15T12:59:20Z</time>
      </trkpt>
      <trkpt lat="42.317315982654691" lon="3.289784006774426">
        <ele>90.980000000000004</ele>
        <time>2025-05-15T12:59:21Z</time>
      </trkpt>
      <trkpt lat="42.317412039265037" lon="3.289767997339368">
        <ele>91.459999999999994</ele>
        <time>2025-05-15T12:59:22Z</time>
      </trkpt>
      <trkpt lat="42.317513963207603" lon="3.28975098207593">
        <ele>91.459999999999994</ele>
        <time>2025-05-15T12:59:23Z</time>
      </trkpt>
      <trkpt lat="42.317930040881038" lon="3.289680993184447">
        <ele>94.349999999999994</ele>
        <time>2025-05-15T12:59:27Z</time>
      </trkpt>
      <trkpt lat="42.318016961216927" lon="3.289709994569421">
        <ele>94.829999999999998</ele>
        <time>2025-05-15T12:59:28Z</time>
      </trkpt>
      <trkpt lat="42.318094996735454" lon="3.289758022874594">
        <ele>95.310000000000002</ele>
        <time>2025-05-15T12:59:29Z</time>
      </trkpt>
      <trkpt lat="42.318156016990542" lon="3.289833962917328">
        <ele>95.790000000000006</ele>
        <time>2025-05-15T12:59:30Z</time>
      </trkpt>
      <trkpt lat="42.318198010325432" lon="3.289934964850545">
        <ele>96.269999999999996</ele>
        <time>2025-05-15T12:59:31Z</time>
      </trkpt>
      <trkpt lat="42.318241009488702" lon="3.290048036724329">
        <ele>97.230000000000004</ele>
        <time>2025-05-15T12:59:32Z</time>
      </trkpt>
      <trkpt lat="42.318219970911741" lon="3.290161024779081">
        <ele>97.709999999999994</ele>
        <time>2025-05-15T12:59:33Z</time>
      </trkpt>
      <trkpt lat="42.31819499284029" lon="3.290284993126988">
        <ele>98.189999999999998</ele>
        <time>2025-05-15T12:59:34Z</time>
      </trkpt>
      <trkpt lat="42.318143025040627" lon="3.290385995060206">
        <ele>98.670000000000002</ele>
        <time>2025-05-15T12:59:35Z</time>
      </trkpt>
      <trkpt lat="42.318091979250312" lon="3.290484985336661">
        <ele>99.150000000000006</ele>
        <time>2025-05-15T12:59:36Z</time>
      </trkpt>
      <trkpt lat="42.318037999793887" lon="3.290590010583401">
        <ele>99.629999999999995</ele>
        <time>2025-05-15T12:59:37Z</time>
      </trkpt>
      <trkpt lat="42.31787396594882" lon="3.290907014161348">
        <ele>102.04000000000001</ele>
        <time>2025-05-15T12:59:40Z</time>
      </trkpt>
      <trkpt lat="42.317827027291059" lon="3.291012039408088">
        <ele>103</ele>
        <time>2025-05-15T12:59:41Z</time>
      </trkpt>
      <trkpt lat="42.317796014249325" lon="3.291127039119601">
        <ele>103.48</ele>
        <time>2025-05-15T12:59:42Z</time>
      </trkpt>
      <trkpt lat="42.317786039784551" lon="3.291265005245805">
        <ele>104.92</ele>
        <time>2025-05-15T12:59:43Z</time>
      </trkpt>
      <trkpt lat="42.317826021462679" lon="3.291376987472177">
        <ele>105.88</ele>
        <time>2025-05-15T12:59:44Z</time>
      </trkpt>
      <trkpt lat="42.317869020625949" lon="3.291493998840451">
        <ele>106.36</ele>
        <time>2025-05-15T12:59:45Z</time>
      </trkpt>
      <trkpt lat="42.317913025617599" lon="3.291616039350629">
        <ele>106.84</ele>
        <time>2025-05-15T12:59:46Z</time>
      </trkpt>
      <trkpt lat="42.318460028618574" lon="3.293115980923176">
        <ele>115.5</ele>
        <time>2025-05-15T12:59:59Z</time>
      </trkpt>
      <trkpt lat="42.318504033610225" lon="3.293202985078096">
        <ele>115.98</ele>
        <time>2025-05-15T13:00:00Z</time>
      </trkpt>
      <trkpt lat="42.318615010008216" lon="3.293228968977928">
        <ele>115.5</ele>
        <time>2025-05-15T13:00:01Z</time>
      </trkpt>
      <trkpt lat="42.318702014163136" lon="3.293221006169915">
        <ele>115.01000000000001</ele>
        <time>2025-05-15T13:00:02Z</time>
      </trkpt>
      <trkpt lat="42.318802010267973" lon="3.293212037533522">
        <ele>114.53</ele>
        <time>2025-05-15T13:00:03Z</time>
      </trkpt>
      <trkpt lat="42.318904018029571" lon="3.293202985078096">
        <ele>113.09</ele>
        <time>2025-05-15T13:00:04Z</time>
      </trkpt>
      <trkpt lat="42.319003008306026" lon="3.293194016441703">
        <ele>112.61</ele>
        <time>2025-05-15T13:00:05Z</time>
      </trkpt>
      <trkpt lat="42.319195037707686" lon="3.293177001178265">
        <ele>111.17</ele>
        <time>2025-05-15T13:00:07Z</time>
      </trkpt>
      <trkpt lat="42.319295033812523" lon="3.293189993128181">
        <ele>110.69</ele>
        <time>2025-05-15T13:00:08Z</time>
      </trkpt>
      <trkpt lat="42.319393018260598" lon="3.293213965371251">
        <ele>110.20999999999999</ele>
        <time>2025-05-15T13:00:09Z</time>
      </trkpt>
      <trkpt lat="42.319485973566771" lon="3.293272973969579">
        <ele>109.25</ele>
        <time>2025-05-15T13:00:10Z</time>
      </trkpt>
      <trkpt lat="42.319569038227201" lon="3.293353021144867">
        <ele>108.29000000000001</ele>
        <time>2025-05-15T13:00:11Z</time>
      </trkpt>
      <trkpt lat="42.319644978269935" lon="3.293449999764562">
        <ele>107.81</ele>
        <time>2025-05-15T13:00:12Z</time>
      </trkpt>
      <trkpt lat="42.319722007960081" lon="3.293546978384256">
        <ele>107.31999999999999</ele>
        <time>2025-05-15T13:00:13Z</time>
      </trkpt>
      <trkpt lat="42.31978302821517" lon="3.293674970045686">
        <ele>106.36</ele>
        <time>2025-05-15T13:00:14Z</time>
      </trkpt>
      <trkpt lat="42.319816974923015" lon="3.293820982798934">
        <ele>105.40000000000001</ele>
        <time>2025-05-15T13:00:15Z</time>
      </trkpt>
      <trkpt lat="42.319854022935033" lon="3.293976970016956">
        <ele>104.92</ele>
        <time>2025-05-15T13:00:16Z</time>
      </trkpt>
      <trkpt lat="42.319890987128019" lon="3.294133963063359">
        <ele>103.95999999999999</ele>
        <time>2025-05-15T13:00:17Z</time>
      </trkpt>
      <trkpt lat="42.319927029311657" lon="3.29428500495851">
        <ele>103</ele>
        <time>2025-05-15T13:00:18Z</time>
      </trkpt>
      <trkpt lat="42.319958964362741" lon="3.294418025761843">
        <ele>102.04000000000001</ele>
        <time>2025-05-15T13:00:19Z</time>
      </trkpt>
      <trkpt lat="42.320028031244874" lon="3.294555991888046">
        <ele>101.08</ele>
        <time>2025-05-15T13:00:20Z</time>
      </trkpt>
      <trkpt lat="42.320086034014821" lon="3.29467199742794">
        <ele>100.59999999999999</ele>
        <time>2025-05-15T13:00:21Z</time>
      </trkpt>
      <trkpt lat="42.320168009027839" lon="3.294741986319423">
        <ele>100.11</ele>
        <time>2025-05-15T13:00:22Z</time>
      </trkpt>
      <trkpt lat="42.320255013182759" lon="3.294814992696047">
        <ele>99.629999999999995</ele>
        <time>2025-05-15T13:00:23Z</time>
      </trkpt>
      <trkpt lat="42.320345034822822" lon="3.294890010729432">
        <ele>99.629999999999995</ele>
        <time>2025-05-15T13:00:24Z</time>
      </trkpt>
      <trkpt lat="42.320434972643852" lon="3.294943990185857">
        <ele>99.150000000000006</ele>
        <time>2025-05-15T13:00:25Z</time>
      </trkpt>
      <trkpt lat="42.320701014250517" lon="3.295030994340777">
        <ele>98.189999999999998</ele>
        <time>2025-05-15T13:00:28Z</time>
      </trkpt>
      <trkpt lat="42.320785000920296" lon="3.295039040967822">
        <ele>97.709999999999994</ele>
        <time>2025-05-15T13:00:29Z</time>
      </trkpt>
      <trkpt lat="42.320870999246836" lon="3.295010039582849">
        <ele>97.230000000000004</ele>
        <time>2025-05-15T13:00:30Z</time>
      </trkpt>
      <trkpt lat="42.320961020886898" lon="3.294973997399211">
        <ele>96.75</ele>
        <time>2025-05-15T13:00:31Z</time>
      </trkpt>
      <trkpt lat="42.321051964536309" lon="3.294937033206224">
        <ele>95.790000000000006</ele>
        <time>2025-05-15T13:00:32Z</time>
      </trkpt>
      <trkpt lat="42.32122496701777" lon="3.294868972152472">
        <ele>94.349999999999994</ele>
        <time>2025-05-15T13:00:34Z</time>
      </trkpt>
      <trkpt lat="42.321342984214425" lon="3.294890010729432">
        <ele>93.390000000000001</ele>
        <time>2025-05-15T13:00:35Z</time>
      </trkpt>
      <trkpt lat="42.32146100141108" lon="3.294910965487361">
        <ele>91.939999999999998</ele>
        <time>2025-05-15T13:00:36Z</time>
      </trkpt>
      <trkpt lat="42.32152302749455" lon="3.294961005449295">
        <ele>90.5</ele>
        <time>2025-05-15T13:00:37Z</time>
      </trkpt>
      <trkpt lat="42.321593016386032" lon="3.295053038746119">
        <ele>89.540000000000006</ele>
        <time>2025-05-15T13:00:38Z</time>
      </trkpt>
      <trkpt lat="42.321635009720922" lon="3.295148005709052">
        <ele>88.099999999999994</ele>
        <time>2025-05-15T13:00:39Z</time>
      </trkpt>
      <trkpt lat="42.321654036641121" lon="3.295256970450282">
        <ele>86.659999999999997</ele>
        <time>2025-05-15T13:00:40Z</time>
      </trkpt>
      <trkpt lat="42.321654036641121" lon="3.295375993475318">
        <ele>85.209999999999994</ele>
        <time>2025-05-15T13:00:41Z</time>
      </trkpt>
      <trkpt lat="42.321654036641121" lon="3.295956021174789">
        <ele>79.930000000000007</ele>
        <time>2025-05-15T13:00:45Z</time>
      </trkpt>
      <trkpt lat="42.321641966700554" lon="3.296074038371444">
        <ele>78.480000000000004</ele>
        <time>2025-05-15T13:00:46Z</time>
      </trkpt>
      <trkpt lat="42.3216119594872" lon="3.296187026426196">
        <ele>77.519999999999996</ele>
        <time>2025-05-15T13:00:47Z</time>
      </trkpt>
      <trkpt lat="42.321556974202394" lon="3.296401016414166">
        <ele>75.599999999999994</ele>
        <time>2025-05-15T13:00:49Z</time>
      </trkpt>
      <trkpt lat="42.32131096534431" lon="3.297465015202761">
        <ele>66.950000000000003</ele>
        <time>2025-05-15T13:00:57Z</time>
      </trkpt>
      <trkpt lat="42.321257991716266" lon="3.297560987994075">
        <ele>66.469999999999999</ele>
        <time>2025-05-15T13:00:58Z</time>
      </trkpt>
      <trkpt lat="42.321200994774699" lon="3.297662995755673">
        <ele>65.989999999999995</ele>
        <time>2025-05-15T13:00:59Z</time>
      </trkpt>
      <trkpt lat="42.321143997833133" lon="3.297767015174031">
        <ele>65.510000000000005</ele>
        <time>2025-05-15T13:01:00Z</time>
      </trkpt>
      <trkpt lat="42.321075014770031" lon="3.29789400100708">
        <ele>65.989999999999995</ele>
        <time>2025-05-15T13:01:01Z</time>
      </trkpt>
      <trkpt lat="42.32100997120142" lon="3.29797899350524">
        <ele>65.510000000000005</ele>
        <time>2025-05-15T13:01:02Z</time>
      </trkpt>
      <trkpt lat="42.320374958217144" lon="3.298813998699188">
        <ele>65.510000000000005</ele>
        <time>2025-05-15T13:01:10Z</time>
      </trkpt>
      <trkpt lat="42.320303963497281" lon="3.298939978703857">
        <ele>65.510000000000005</ele>
        <time>2025-05-15T13:01:11Z</time>
      </trkpt>
      <trkpt lat="42.32025601901114" lon="3.299090014770627">
        <ele>65.510000000000005</ele>
        <time>2025-05-15T13:01:12Z</time>
      </trkpt>
      <trkpt lat="42.319497037678957" lon="3.301054984331131">
        <ele>62.619999999999997</ele>
        <time>2025-05-15T13:01:25Z</time>
      </trkpt>
      <trkpt lat="42.319007031619549" lon="3.301977999508381">
        <ele>64.549999999999997</ele>
        <time>2025-05-15T13:01:32Z</time>
      </trkpt>
      <trkpt lat="42.318973001092672" lon="3.302134992554784">
        <ele>64.549999999999997</ele>
        <time>2025-05-15T13:01:33Z</time>
      </trkpt>
      <trkpt lat="42.318938970565796" lon="3.302292991429567">
        <ele>65.510000000000005</ele>
        <time>2025-05-15T13:01:34Z</time>
      </trkpt>
      <trkpt lat="42.318908963352442" lon="3.302456019446254">
        <ele>65.510000000000005</ele>
        <time>2025-05-15T13:01:35Z</time>
      </trkpt>
      <trkpt lat="42.318933019414544" lon="3.302612006664276">
        <ele>66.469999999999999</ele>
        <time>2025-05-15T13:01:36Z</time>
      </trkpt>
      <trkpt lat="42.318955985829234" lon="3.302766988053918">
        <ele>67.430000000000007</ele>
        <time>2025-05-15T13:01:37Z</time>
      </trkpt>
      <trkpt lat="42.318980041891336" lon="3.302926998585463">
        <ele>67.909999999999997</ele>
        <time>2025-05-15T13:01:38Z</time>
      </trkpt>
      <trkpt lat="42.319299979135394" lon="3.304987018927932">
        <ele>70.790000000000006</ele>
        <time>2025-05-15T13:01:49Z</time>
      </trkpt>
      <trkpt lat="42.319687977433205" lon="3.307085009291768">
        <ele>64.069999999999993</ele>
        <time>2025-05-15T13:02:01Z</time>
      </trkpt>
      <trkpt lat="42.319846982136369" lon="3.308139033615589">
        <ele>57.82</ele>
        <time>2025-05-15T13:02:09Z</time>
      </trkpt>
      <trkpt lat="42.319834996014833" lon="3.30826903693378">
        <ele>56.859999999999999</ele>
        <time>2025-05-15T13:02:10Z</time>
      </trkpt>
      <trkpt lat="42.319822004064918" lon="3.308404991403222">
        <ele>55.890000000000001</ele>
        <time>2025-05-15T13:02:11Z</time>
      </trkpt>
      <trkpt lat="42.319809012115002" lon="3.308558966964483">
        <ele>54.93</ele>
        <time>2025-05-15T13:02:12Z</time>
      </trkpt>
      <trkpt lat="42.319769030436873" lon="3.308675978332758">
        <ele>53.969999999999999</ele>
        <time>2025-05-15T13:02:13Z</time>
      </trkpt>
      <trkpt lat="42.319727037101984" lon="3.308801958337426">
        <ele>53.009999999999998</ele>
        <time>2025-05-15T13:02:14Z</time>
      </trkpt>
      <trkpt lat="42.319662999361753" lon="3.30891796387732">
        <ele>52.049999999999997</ele>
        <time>2025-05-15T13:02:15Z</time>
      </trkpt>
      <trkpt lat="42.319588987156749" lon="3.308992981910706">
        <ele>51.090000000000003</ele>
        <time>2025-05-15T13:02:16Z</time>
      </trkpt>
      <trkpt lat="42.319517992436886" lon="3.309063976630569">
        <ele>49.649999999999999</ele>
        <time>2025-05-15T13:02:17Z</time>
      </trkpt>
      <trkpt lat="42.319437023252249" lon="3.309119967743754">
        <ele>48.200000000000003</ele>
        <time>2025-05-15T13:02:18Z</time>
      </trkpt>
      <trkpt lat="42.319350019097328" lon="3.309177970513701">
        <ele>47.240000000000002</ele>
        <time>2025-05-15T13:02:19Z</time>
      </trkpt>
      <trkpt lat="42.319255974143744" lon="3.30923899076879">
        <ele>46.280000000000001</ele>
        <time>2025-05-15T13:02:20Z</time>
      </trkpt>
      <trkpt lat="42.318833023309708" lon="3.30951701849699">
        <ele>41.469999999999999</ele>
        <time>2025-05-15T13:02:25Z</time>
      </trkpt>
      <trkpt lat="42.318770997226238" lon="3.309558006003499">
        <ele>40.509999999999998</ele>
        <time>2025-05-15T13:02:26Z</time>
      </trkpt>
      <trkpt lat="42.318741995841265" lon="3.309619026258588">
        <ele>39.549999999999997</ele>
        <time>2025-05-15T13:02:27Z</time>
      </trkpt>
      <trkpt lat="42.318719029426575" lon="3.309701001271606">
        <ele>38.590000000000003</ele>
        <time>2025-05-15T13:02:28Z</time>
      </trkpt>
      <trkpt lat="42.318694973364472" lon="3.309783982113004">
        <ele>38.109999999999999</ele>
        <time>2025-05-15T13:02:29Z</time>
      </trkpt>
      <trkpt lat="42.318671001121402" lon="3.309866962954402">
        <ele>37.149999999999999</ele>
        <time>2025-05-15T13:02:30Z</time>
      </trkpt>
      <trkpt lat="42.318703019991517" lon="3.30994701012969">
        <ele>36.189999999999998</ele>
        <time>2025-05-15T13:02:31Z</time>
      </trkpt>
      <trkpt lat="42.318714000284672" lon="3.309975005686283">
        <ele>35.710000000000001</ele>
        <time>2025-05-15T13:02:32Z</time>
      </trkpt>
      <trkpt lat="42.318808967247605" lon="3.310022028163075">
        <ele>34.740000000000002</ele>
        <time>2025-05-15T13:02:33Z</time>
      </trkpt>
      <trkpt lat="42.318928996101022" lon="3.310081958770752">
        <ele>33.780000000000001</ele>
        <time>2025-05-15T13:02:34Z</time>
      </trkpt>
      <trkpt lat="42.318965960294008" lon="3.310073995962739">
        <ele>32.82</ele>
        <time>2025-05-15T13:02:35Z</time>
      </trkpt>
      <trkpt lat="42.319058999419212" lon="3.310053963214159">
        <ele>31.859999999999999</ele>
        <time>2025-05-15T13:02:36Z</time>
      </trkpt>
      <trkpt lat="42.319151032716036" lon="3.310035020112991">
        <ele>30.420000000000002</ele>
        <time>2025-05-15T13:02:37Z</time>
      </trkpt>
      <trkpt lat="42.319261003285646" lon="3.310035020112991">
        <ele>29.940000000000001</ele>
        <time>2025-05-15T13:02:38Z</time>
      </trkpt>
      <trkpt lat="42.319342978298664" lon="3.310082964599133">
        <ele>28.98</ele>
        <time>2025-05-15T13:02:39Z</time>
      </trkpt>
      <trkpt lat="42.319406010210514" lon="3.310182960703969">
        <ele>28.02</ele>
        <time>2025-05-15T13:02:40Z</time>
      </trkpt>
      <trkpt lat="42.319438029080629" lon="3.310279017314315">
        <ele>27.050000000000001</ele>
        <time>2025-05-15T13:02:41Z</time>
      </trkpt>
      <trkpt lat="42.319464012980461" lon="3.310386976227164">
        <ele>26.57</ele>
        <time>2025-05-15T13:02:42Z</time>
      </trkpt>
      <trkpt lat="42.319455966353416" lon="3.310521002858877">
        <ele>25.609999999999999</ele>
        <time>2025-05-15T13:02:43Z</time>
      </trkpt>
      <trkpt lat="42.319446997717023" lon="3.310679001733661">
        <ele>25.129999999999999</ele>
        <time>2025-05-15T13:02:44Z</time>
      </trkpt>
      <trkpt lat="42.319435011595488" lon="3.310843035578728">
        <ele>24.170000000000002</ele>
        <time>2025-05-15T13:02:45Z</time>
      </trkpt>
      <trkpt lat="42.319259997457266" lon="3.312527965754271">
        <ele>21.77</ele>
        <time>2025-05-15T13:02:55Z</time>
      </trkpt>
      <trkpt lat="42.319189002737403" lon="3.313044961541891">
        <ele>25.609999999999999</ele>
        <time>2025-05-15T13:02:59Z</time>
      </trkpt>
      <trkpt lat="42.319144997745752" lon="3.313139006495476">
        <ele>27.050000000000001</ele>
        <time>2025-05-15T13:03:00Z</time>
      </trkpt>
      <trkpt lat="42.319093029946089" lon="3.31323497928679">
        <ele>28.02</ele>
        <time>2025-05-15T13:03:01Z</time>
      </trkpt>
      <trkpt lat="42.319023963063955" lon="3.313309997320175">
        <ele>28.98</ele>
        <time>2025-05-15T13:03:02Z</time>
      </trkpt>
      <trkpt lat="42.318935031071305" lon="3.313335981220007">
        <ele>29.940000000000001</ele>
        <time>2025-05-15T13:03:03Z</time>
      </trkpt>
      <trkpt lat="42.318852972239256" lon="3.313360037282109">
        <ele>30.899999999999999</ele>
        <time>2025-05-15T13:03:04Z</time>
      </trkpt>
      <trkpt lat="42.318775020539761" lon="3.313383003696799">
        <ele>31.859999999999999</ele>
        <time>2025-05-15T13:03:05Z</time>
      </trkpt>
      <trkpt lat="42.318694973364472" lon="3.313405970111489">
        <ele>32.82</ele>
        <time>2025-05-15T13:03:06Z</time>
      </trkpt>
      <trkpt lat="42.318611992523074" lon="3.313430026173592">
        <ele>33.780000000000001</ele>
        <time>2025-05-15T13:03:07Z</time>
      </trkpt>
      <trkpt lat="42.318535968661308" lon="3.313475959002972">
        <ele>34.259999999999998</ele>
        <time>2025-05-15T13:03:08Z</time>
      </trkpt>
      <trkpt lat="42.318511996418238" lon="3.313563968986273">
        <ele>35.229999999999997</ele>
        <time>2025-05-15T13:03:09Z</time>
      </trkpt>
      <trkpt lat="42.318487018346786" lon="3.313654996454716">
        <ele>35.710000000000001</ele>
        <time>2025-05-15T13:03:10Z</time>
      </trkpt>
      <trkpt lat="42.318496992811561" lon="3.313733031973243">
        <ele>36.670000000000002</ele>
        <time>2025-05-15T13:03:11Z</time>
      </trkpt>
      <trkpt lat="42.318530017510056" lon="3.313816012814641">
        <ele>37.630000000000003</ele>
        <time>2025-05-15T13:03:12Z</time>
      </trkpt>
      <trkpt lat="42.318590031936765" lon="3.313890025019646">
        <ele>38.590000000000003</ele>
        <time>2025-05-15T13:03:13Z</time>
      </trkpt>
      <trkpt lat="42.318659014999866" lon="3.313859011977911">
        <ele>39.549999999999997</ele>
        <time>2025-05-15T13:03:14Z</time>
      </trkpt>
      <trkpt lat="42.318739984184504" lon="3.313822969794273">
        <ele>40.509999999999998</ele>
        <time>2025-05-15T13:03:15Z</time>
      </trkpt>
      <trkpt lat="42.318823970854282" lon="3.313786005601287">
        <ele>40.990000000000002</ele>
        <time>2025-05-15T13:03:16Z</time>
      </trkpt>
      <trkpt lat="42.319057993590832" lon="3.313681986182928">
        <ele>43.399999999999999</ele>
        <time>2025-05-15T13:03:19Z</time>
      </trkpt>
      <trkpt lat="42.319124964997172" lon="3.313651978969574">
        <ele>43.880000000000003</ele>
        <time>2025-05-15T13:03:20Z</time>
      </trkpt>
      <trkpt lat="42.319203000515699" lon="3.313657008111477">
        <ele>44.359999999999999</ele>
        <time>2025-05-15T13:03:21Z</time>
      </trkpt>
      <trkpt lat="42.319281036034226" lon="3.313674023374915">
        <ele>45.32</ele>
        <time>2025-05-15T13:03:22Z</time>
      </trkpt>
      <trkpt lat="42.319356976076961" lon="3.313710987567902">
        <ele>45.799999999999997</ele>
        <time>2025-05-15T13:03:23Z</time>
      </trkpt>
      <trkpt lat="42.319415984675288" lon="3.313781982287765">
        <ele>47.240000000000002</ele>
        <time>2025-05-15T13:03:24Z</time>
      </trkpt>
      <trkpt lat="42.319479016587138" lon="3.31385700032115">
        <ele>48.200000000000003</ele>
        <time>2025-05-15T13:03:25Z</time>
      </trkpt>
      <trkpt lat="42.319540036842227" lon="3.313930006697774">
        <ele>49.649999999999999</ele>
        <time>2025-05-15T13:03:26Z</time>
      </trkpt>
      <trkpt lat="42.319602984935045" lon="3.314005024731159">
        <ele>50.609999999999999</ele>
        <time>2025-05-15T13:03:27Z</time>
      </trkpt>
      <trkpt lat="42.319905990734696" lon="3.314430993050337">
        <ele>56.859999999999999</ele>
        <time>2025-05-15T13:03:33Z</time>
      </trkpt>
      <trkpt lat="42.319922000169754" lon="3.314535012468696">
        <ele>57.340000000000003</ele>
        <time>2025-05-15T13:03:34Z</time>
      </trkpt>
      <trkpt lat="42.31993499211967" lon="3.314639031887054">
        <ele>57.82</ele>
        <time>2025-05-15T13:03:35Z</time>
      </trkpt>
      <trkpt lat="42.319905990734696" lon="3.314736010506749">
        <ele>58.780000000000001</ele>
        <time>2025-05-15T13:03:36Z</time>
      </trkpt>
      <trkpt lat="42.319872966036201" lon="3.31484598107636">
        <ele>59.740000000000002</ele>
        <time>2025-05-15T13:03:37Z</time>
      </trkpt>
      <trkpt lat="42.31980599462986" lon="3.314899038523436">
        <ele>60.219999999999999</ele>
        <time>2025-05-15T13:03:38Z</time>
      </trkpt>
      <trkpt lat="42.319722007960081" lon="3.314928961917758">
        <ele>60.700000000000003</ele>
        <time>2025-05-15T13:03:39Z</time>
      </trkpt>
      <trkpt lat="42.319636009633541" lon="3.314923010766506">
        <ele>61.18</ele>
        <time>2025-05-15T13:03:40Z</time>
      </trkpt>
      <trkpt lat="42.319554034620523" lon="3.314917981624603">
        <ele>61.18</ele>
        <time>2025-05-15T13:03:41Z</time>
      </trkpt>
      <trkpt lat="42.319479016587138" lon="3.314913958311081">
        <ele>61.659999999999997</ele>
        <time>2025-05-15T13:03:42Z</time>
      </trkpt>
      <trkpt lat="42.319422019645572" lon="3.31491001881659">
        <ele>62.140000000000001</ele>
        <time>2025-05-15T13:03:43Z</time>
      </trkpt>
      <trkpt lat="42.319344989955425" lon="3.314968021586537">
        <ele>63.100000000000001</ele>
        <time>2025-05-15T13:03:44Z</time>
      </trkpt>
      <trkpt lat="42.319279024377465" lon="3.315016971901059">
        <ele>63.579999999999998</ele>
        <time>2025-05-15T13:03:45Z</time>
      </trkpt>
      <trkpt lat="42.319251028820872" lon="3.315102970227599">
        <ele>64.069999999999993</ele>
        <time>2025-05-15T13:03:46Z</time>
      </trkpt>
      <trkpt lat="42.319251028820872" lon="3.315209001302719">
        <ele>65.030000000000001</ele>
        <time>2025-05-15T13:03:47Z</time>
      </trkpt>
      <trkpt lat="42.319251028820872" lon="3.315317966043949">
        <ele>65.510000000000005</ele>
        <time>2025-05-15T13:03:48Z</time>
      </trkpt>
      <trkpt lat="42.319271983578801" lon="3.315422991290689">
        <ele>65.989999999999995</ele>
        <time>2025-05-15T13:03:49Z</time>
      </trkpt>
      <trkpt lat="42.319291010499001" lon="3.315521981567144">
        <ele>66.950000000000003</ele>
        <time>2025-05-15T13:03:50Z</time>
      </trkpt>
      <trkpt lat="42.319298973307014" lon="3.31561996601522">
        <ele>67.430000000000007</ele>
        <time>2025-05-15T13:03:51Z</time>
      </trkpt>
      <trkpt lat="42.319304002448916" lon="3.315707975998521">
        <ele>67.909999999999997</ele>
        <time>2025-05-15T13:03:52Z</time>
      </trkpt>
      <trkpt lat="42.319309031590819" lon="3.31578902900219">
        <ele>68.390000000000001</ele>
        <time>2025-05-15T13:03:53Z</time>
      </trkpt>
      <trkpt lat="42.31931297108531" lon="3.31585600040853">
        <ele>68.390000000000001</ele>
        <time>2025-05-15T13:03:54Z</time>
      </trkpt>
      <trkpt lat="42.319314982742071" lon="3.315896987915039">
        <ele>69.349999999999994</ele>
        <time>2025-05-15T13:03:55Z</time>
      </trkpt>
      <trkpt lat="42.319279024377465" lon="3.315957002341747">
        <ele>69.829999999999998</ele>
        <time>2025-05-15T13:03:56Z</time>
      </trkpt>
      <trkpt lat="42.319264020770788" lon="3.315981980413199">
        <ele>70.310000000000002</ele>
        <time>2025-05-15T13:03:57Z</time>
      </trkpt>
      <trkpt lat="42.319314982742071" lon="3.315896987915039">
        <ele>71.269999999999996</ele>
        <time>2025-05-15T13:03:58Z</time>
      </trkpt>
      <trkpt lat="42.319314982742071" lon="3.315896987915039">
        <ele>71.760000000000005</ele>
        <time>2025-05-15T13:03:59Z</time>
      </trkpt>
      <trkpt lat="42.319314982742071" lon="3.315896987915039">
        <ele>73.200000000000003</ele>
        <time>2025-05-15T13:04:14Z</time>
      </trkpt>
      <trkpt lat="42.319336021319032" lon="3.315978040918708">
        <ele>67.430000000000007</ele>
        <time>2025-05-15T13:59:38Z</time>
      </trkpt>
      <trkpt lat="42.319271983578801" lon="3.316111983731389">
        <ele>71.269999999999996</ele>
        <time>2025-05-15T14:00:12Z</time>
      </trkpt>
      <trkpt lat="42.319278018549085" lon="3.316148025915027">
        <ele>74.640000000000001</ele>
        <time>2025-05-15T14:01:06Z</time>
      </trkpt>
      <trkpt lat="42.319288998842239" lon="3.316109972074628">
        <ele>71.760000000000005</ele>
        <time>2025-05-15T14:02:00Z</time>
      </trkpt>
      <trkpt lat="42.31929000467062" lon="3.316111983731389">
        <ele>71.760000000000005</ele>
        <time>2025-05-15T14:02:45Z</time>
      </trkpt>
      <trkpt lat="42.31929000467062" lon="3.316119024530053">
        <ele>70.790000000000006</ele>
        <time>2025-05-15T14:03:29Z</time>
      </trkpt>
      <trkpt lat="42.31929000467062" lon="3.316119024530053">
        <ele>70.790000000000006</ele>
        <time>2025-05-15T14:03:59Z</time>
      </trkpt>
      <trkpt lat="42.319296961650252" lon="3.316108966246247">
        <ele>71.269999999999996</ele>
        <time>2025-05-15T14:04:10Z</time>
      </trkpt>
      <trkpt lat="42.319362005218863" lon="3.316012993454933">
        <ele>70.310000000000002</ele>
        <time>2025-05-15T14:04:22Z</time>
      </trkpt>
      <trkpt lat="42.319368040189147" lon="3.316006036475301">
        <ele>70.310000000000002</ele>
        <time>2025-05-15T14:05:02Z</time>
      </trkpt>
      <trkpt lat="42.319314982742071" lon="3.315896987915039">
        <ele>70.310000000000002</ele>
        <time>2025-05-15T14:05:03Z</time>
      </trkpt>
      <trkpt lat="42.319314982742071" lon="3.315896987915039">
        <ele>70.310000000000002</ele>
        <time>2025-05-15T14:05:04Z</time>
      </trkpt>
      <trkpt lat="42.319313976913691" lon="3.315872009843588">
        <ele>70.790000000000006</ele>
        <time>2025-05-15T14:05:05Z</time>
      </trkpt>
      <trkpt lat="42.319251028820872" lon="3.315193997696042">
        <ele>69.829999999999998</ele>
        <time>2025-05-15T14:05:13Z</time>
      </trkpt>
      <trkpt lat="42.319251028820872" lon="3.315106993541122">
        <ele>69.349999999999994</ele>
        <time>2025-05-15T14:05:14Z</time>
      </trkpt>
      <trkpt lat="42.319251028820872" lon="3.3150390163064">
        <ele>69.349999999999994</ele>
        <time>2025-05-15T14:05:15Z</time>
      </trkpt>
      <trkpt lat="42.319336021319032" lon="3.31497497856617">
        <ele>68.870000000000005</ele>
        <time>2025-05-15T14:05:16Z</time>
      </trkpt>
      <trkpt lat="42.319387989118695" lon="3.314936002716422">
        <ele>68.390000000000001</ele>
        <time>2025-05-15T14:05:17Z</time>
      </trkpt>
      <trkpt lat="42.319453032687306" lon="3.314912030473352">
        <ele>67.909999999999997</ele>
        <time>2025-05-15T14:05:18Z</time>
      </trkpt>
      <trkpt lat="42.319520004093647" lon="3.314915969967842">
        <ele>67.430000000000007</ele>
        <time>2025-05-15T14:05:19Z</time>
      </trkpt>
      <trkpt lat="42.319601979106665" lon="3.314920999109745">
        <ele>66.950000000000003</ele>
        <time>2025-05-15T14:05:20Z</time>
      </trkpt>
      <trkpt lat="42.319681020453572" lon="3.314926028251648">
        <ele>65.989999999999995</ele>
        <time>2025-05-15T14:05:21Z</time>
      </trkpt>
      <trkpt lat="42.319753021001816" lon="3.314929967746139">
        <ele>65.510000000000005</ele>
        <time>2025-05-15T14:05:22Z</time>
      </trkpt>
      <trkpt lat="42.319800965487957" lon="3.314902978017926">
        <ele>65.030000000000001</ele>
        <time>2025-05-15T14:05:23Z</time>
      </trkpt>
      <trkpt lat="42.319855028763413" lon="3.314859978854656">
        <ele>64.549999999999997</ele>
        <time>2025-05-15T14:05:24Z</time>
      </trkpt>
      <trkpt lat="42.319872966036201" lon="3.31484598107636">
        <ele>63.579999999999998</ele>
        <time>2025-05-15T14:05:25Z</time>
      </trkpt>
      <trkpt lat="42.319904984906316" lon="3.314740033820272">
        <ele>62.619999999999997</ele>
        <time>2025-05-15T14:05:26Z</time>
      </trkpt>
      <trkpt lat="42.319937003776431" lon="3.31463098526001">
        <ele>62.140000000000001</ele>
        <time>2025-05-15T14:05:27Z</time>
      </trkpt>
      <trkpt lat="42.319929962977767" lon="3.314582034945488">
        <ele>61.659999999999997</ele>
        <time>2025-05-15T14:05:28Z</time>
      </trkpt>
      <trkpt lat="42.319916971027851" lon="3.314497964456677">
        <ele>61.18</ele>
        <time>2025-05-15T14:05:29Z</time>
      </trkpt>
      <trkpt lat="42.319903979077935" lon="3.314414983615279">
        <ele>60.700000000000003</ele>
        <time>2025-05-15T14:05:30Z</time>
      </trkpt>
      <trkpt lat="42.319881012663245" lon="3.314336026087403">
        <ele>60.219999999999999</ele>
        <time>2025-05-15T14:05:31Z</time>
      </trkpt>
      <trkpt lat="42.319833990186453" lon="3.314280034974217">
        <ele>60.219999999999999</ele>
        <time>2025-05-15T14:05:32Z</time>
      </trkpt>
      <trkpt lat="42.31978403404355" lon="3.314220020547509">
        <ele>59.740000000000002</ele>
        <time>2025-05-15T14:05:33Z</time>
      </trkpt>
      <trkpt lat="42.319349013268948" lon="3.313702018931508">
        <ele>55.890000000000001</ele>
        <time>2025-05-15T14:05:41Z</time>
      </trkpt>
      <trkpt lat="42.319284975528717" lon="3.313675029203296">
        <ele>55.409999999999997</ele>
        <time>2025-05-15T14:05:42Z</time>
      </trkpt>
      <trkpt lat="42.319222027435899" lon="3.31366203725338">
        <ele>54.450000000000003</ele>
        <time>2025-05-15T14:05:43Z</time>
      </trkpt>
      <trkpt lat="42.319163018837571" lon="3.313648039475083">
        <ele>53.969999999999999</ele>
        <time>2025-05-15T14:05:44Z</time>
      </trkpt>
      <trkpt lat="42.319105016067624" lon="3.313661031424999">
        <ele>53.009999999999998</ele>
        <time>2025-05-15T14:05:45Z</time>
      </trkpt>
      <trkpt lat="42.319048019126058" lon="3.31368600949645">
        <ele>52.530000000000001</ele>
        <time>2025-05-15T14:05:46Z</time>
      </trkpt>
      <trkpt lat="42.31898901052773" lon="3.313711993396282">
        <ele>52.049999999999997</ele>
        <time>2025-05-15T14:05:47Z</time>
      </trkpt>
      <trkpt lat="42.318927990272641" lon="3.313739988952875">
        <ele>51.090000000000003</ele>
        <time>2025-05-15T14:05:48Z</time>
      </trkpt>
      <trkpt lat="42.318864958360791" lon="3.313767984509468">
        <ele>50.609999999999999</ele>
        <time>2025-05-15T14:05:49Z</time>
      </trkpt>
      <trkpt lat="42.318804021924734" lon="3.31379497423768">
        <ele>49.649999999999999</ele>
        <time>2025-05-15T14:05:50Z</time>
      </trkpt>
      <trkpt lat="42.318620961159468" lon="3.313876027241349">
        <ele>47.240000000000002</ele>
        <time>2025-05-15T14:05:53Z</time>
      </trkpt>
      <trkpt lat="42.318563964217901" lon="3.3139010053128">
        <ele>46.759999999999998</ele>
        <time>2025-05-15T14:05:54Z</time>
      </trkpt>
      <trkpt lat="42.318533034995198" lon="3.313824981451035">
        <ele>45.799999999999997</ele>
        <time>2025-05-15T14:05:55Z</time>
      </trkpt>
      <trkpt lat="42.318506967276335" lon="3.313759015873075">
        <ele>44.840000000000003</ele>
        <time>2025-05-15T14:05:56Z</time>
      </trkpt>
      <trkpt lat="42.318477965891361" lon="3.313687015324831">
        <ele>44.359999999999999</ele>
        <time>2025-05-15T14:05:57Z</time>
      </trkpt>
      <trkpt lat="42.318491963669658" lon="3.313634963706136">
        <ele>43.880000000000003</ele>
        <time>2025-05-15T14:05:58Z</time>
      </trkpt>
      <trkpt lat="42.31851601973176" lon="3.313548965379596">
        <ele>42.920000000000002</ele>
        <time>2025-05-15T14:05:59Z</time>
      </trkpt>
      <trkpt lat="42.318535968661308" lon="3.313474031165242">
        <ele>41.950000000000003</ele>
        <time>2025-05-15T14:06:00Z</time>
      </trkpt>
      <trkpt lat="42.318548038601875" lon="3.313448969274759">
        <ele>41.469999999999999</ele>
        <time>2025-05-15T14:06:01Z</time>
      </trkpt>
      <trkpt lat="42.318620961159468" lon="3.31342801451683">
        <ele>40.509999999999998</ele>
        <time>2025-05-15T14:06:02Z</time>
      </trkpt>
      <trkpt lat="42.318712994456291" lon="3.313401024788618">
        <ele>39.549999999999997</ele>
        <time>2025-05-15T14:06:03Z</time>
      </trkpt>
      <trkpt lat="42.318815002217889" lon="3.313371017575264">
        <ele>38.590000000000003</ele>
        <time>2025-05-15T14:06:04Z</time>
      </trkpt>
      <trkpt lat="42.318920027464628" lon="3.31334101036191">
        <ele>37.630000000000003</ele>
        <time>2025-05-15T14:06:05Z</time>
      </trkpt>
      <trkpt lat="42.319056987762451" lon="3.313301028683782">
        <ele>35.710000000000001</ele>
        <time>2025-05-15T14:06:06Z</time>
      </trkpt>
      <trkpt lat="42.319113984704018" lon="3.313198015093803">
        <ele>33.780000000000001</ele>
        <time>2025-05-15T14:06:07Z</time>
      </trkpt>
      <trkpt lat="42.319189002737403" lon="3.313044039532542">
        <ele>31.859999999999999</ele>
        <time>2025-05-15T14:06:08Z</time>
      </trkpt>
      <trkpt lat="42.319208029657602" lon="3.312902972102165">
        <ele>30.899999999999999</ele>
        <time>2025-05-15T14:06:09Z</time>
      </trkpt>
      <trkpt lat="42.319440040737391" lon="3.310790983960033">
        <ele>23.210000000000001</ele>
        <time>2025-05-15T14:06:22Z</time>
      </trkpt>
      <trkpt lat="42.319458983838558" lon="3.310478003695607">
        <ele>24.170000000000002</ele>
        <time>2025-05-15T14:06:24Z</time>
      </trkpt>
      <trkpt lat="42.319454960525036" lon="3.310331990942359">
        <ele>25.129999999999999</ele>
        <time>2025-05-15T14:06:25Z</time>
      </trkpt>
      <trkpt lat="42.319414978846908" lon="3.310210034251213">
        <ele>25.609999999999999</ele>
        <time>2025-05-15T14:06:26Z</time>
      </trkpt>
      <trkpt lat="42.319325963035226" lon="3.310072990134358">
        <ele>26.57</ele>
        <time>2025-05-15T14:06:27Z</time>
      </trkpt>
      <trkpt lat="42.319195037707686" lon="3.310024961829186">
        <ele>27.530000000000001</ele>
        <time>2025-05-15T14:06:28Z</time>
      </trkpt>
      <trkpt lat="42.319083977490664" lon="3.310049017891288">
        <ele>28.5</ele>
        <time>2025-05-15T14:06:29Z</time>
      </trkpt>
      <trkpt lat="42.31896897777915" lon="3.310072990134358">
        <ele>29.460000000000001</ele>
        <time>2025-05-15T14:06:30Z</time>
      </trkpt>
      <trkpt lat="42.318878034129739" lon="3.310056980699301">
        <ele>30.420000000000002</ele>
        <time>2025-05-15T14:06:31Z</time>
      </trkpt>
      <trkpt lat="42.318793963640928" lon="3.310014987364411">
        <ele>31.859999999999999</ele>
        <time>2025-05-15T14:06:32Z</time>
      </trkpt>
      <trkpt lat="42.318714000284672" lon="3.309975005686283">
        <ele>32.82</ele>
        <time>2025-05-15T14:06:33Z</time>
      </trkpt>
      <trkpt lat="42.318677036091685" lon="3.309848019853234">
        <ele>33.780000000000001</ele>
        <time>2025-05-15T14:06:34Z</time>
      </trkpt>
      <trkpt lat="42.318706959486008" lon="3.309742994606495">
        <ele>34.740000000000002</ele>
        <time>2025-05-15T14:06:35Z</time>
      </trkpt>
      <trkpt lat="42.318741995841265" lon="3.309620032086968">
        <ele>35.710000000000001</ele>
        <time>2025-05-15T14:06:36Z</time>
      </trkpt>
      <trkpt lat="42.318833023309708" lon="3.30951701849699">
        <ele>36.670000000000002</ele>
        <time>2025-05-15T14:06:37Z</time>
      </trkpt>
      <trkpt lat="42.318936036899686" lon="3.309449963271618">
        <ele>37.630000000000003</ele>
        <time>2025-05-15T14:06:38Z</time>
      </trkpt>
      <trkpt lat="42.319049024954438" lon="3.309375029057264">
        <ele>38.590000000000003</ele>
        <time>2025-05-15T14:06:39Z</time>
      </trkpt>
      <trkpt lat="42.319167964160442" lon="3.309296993538737">
        <ele>39.549999999999997</ele>
        <time>2025-05-15T14:06:40Z</time>
      </trkpt>
      <trkpt lat="42.319392012432218" lon="3.309149974957109">
        <ele>42.439999999999998</ele>
        <time>2025-05-15T14:06:42Z</time>
      </trkpt>
      <trkpt lat="42.319508017972112" lon="3.309073029085994">
        <ele>43.399999999999999</ele>
        <time>2025-05-15T14:06:43Z</time>
      </trkpt>
      <trkpt lat="42.319561997428536" lon="3.309019971638918">
        <ele>44.359999999999999</ele>
        <time>2025-05-15T14:06:44Z</time>
      </trkpt>
      <trkpt lat="42.319640032947063" lon="3.308942019939423">
        <ele>45.799999999999997</ele>
        <time>2025-05-15T14:06:45Z</time>
      </trkpt>
      <trkpt lat="42.319713039323688" lon="3.308845963329077">
        <ele>46.759999999999998</ele>
        <time>2025-05-15T14:06:46Z</time>
      </trkpt>
      <trkpt lat="42.319756038486958" lon="3.308715038001537">
        <ele>47.719999999999999</ele>
        <time>2025-05-15T14:06:47Z</time>
      </trkpt>
      <trkpt lat="42.319799037650228" lon="3.308586962521076">
        <ele>48.68</ele>
        <time>2025-05-15T14:06:48Z</time>
      </trkpt>
      <trkpt lat="42.319816974923015" lon="3.30846500582993">
        <ele>49.649999999999999</ele>
        <time>2025-05-15T14:06:49Z</time>
      </trkpt>
      <trkpt lat="42.31982703320682" lon="3.308350006118417">
        <ele>50.609999999999999</ele>
        <time>2025-05-15T14:06:50Z</time>
      </trkpt>
      <trkpt lat="42.319836001843214" lon="3.308255961164832">
        <ele>51.57</ele>
        <time>2025-05-15T14:06:51Z</time>
      </trkpt>
      <trkpt lat="42.319843964651227" lon="3.308169040828943">
        <ele>52.530000000000001</ele>
        <time>2025-05-15T14:06:52Z</time>
      </trkpt>
      <trkpt lat="42.319849999621511" lon="3.308080025017262">
        <ele>53.490000000000002</ele>
        <time>2025-05-15T14:06:53Z</time>
      </trkpt>
      <trkpt lat="42.319832984358072" lon="3.307967036962509">
        <ele>54.93</ele>
        <time>2025-05-15T14:06:54Z</time>
      </trkpt>
      <trkpt lat="42.319596027955413" lon="3.306583017110825">
        <ele>63.579999999999998</ele>
        <time>2025-05-15T14:07:03Z</time>
      </trkpt>
      <trkpt lat="42.31926703825593" lon="3.304806975647807">
        <ele>71.269999999999996</ele>
        <time>2025-05-15T14:07:14Z</time>
      </trkpt>
      <trkpt lat="42.318967971950769" lon="3.302842006087303">
        <ele>69.829999999999998</ele>
        <time>2025-05-15T14:07:25Z</time>
      </trkpt>
      <trkpt lat="42.318927990272641" lon="3.302347976714373">
        <ele>67.430000000000007</ele>
        <time>2025-05-15T14:07:28Z</time>
      </trkpt>
      <trkpt lat="42.318960009142756" lon="3.302198024466634">
        <ele>66.469999999999999</ele>
        <time>2025-05-15T14:07:29Z</time>
      </trkpt>
      <trkpt lat="42.318991022184491" lon="3.302051005885005">
        <ele>65.989999999999995</ele>
        <time>2025-05-15T14:07:30Z</time>
      </trkpt>
      <trkpt lat="42.319023963063955" lon="3.301899963989854">
        <ele>65.030000000000001</ele>
        <time>2025-05-15T14:07:31Z</time>
      </trkpt>
      <trkpt lat="42.319091018289328" lon="3.301748000085354">
        <ele>64.069999999999993</ele>
        <time>2025-05-15T14:07:32Z</time>
      </trkpt>
      <trkpt lat="42.319175004959106" lon="3.301603998988867">
        <ele>63.579999999999998</ele>
        <time>2025-05-15T14:07:33Z</time>
      </trkpt>
      <trkpt lat="42.319986037909985" lon="3.299925019964576">
        <ele>60.219999999999999</ele>
        <time>2025-05-15T14:07:43Z</time>
      </trkpt>
      <trkpt lat="42.320368001237512" lon="3.298822967335582">
        <ele>62.619999999999997</ele>
        <time>2025-05-15T14:07:49Z</time>
      </trkpt>
      <trkpt lat="42.32047202065587" lon="3.298686007037759">
        <ele>63.100000000000001</ele>
        <time>2025-05-15T14:07:50Z</time>
      </trkpt>
      <trkpt lat="42.321168975904584" lon="3.297722004354">
        <ele>64.069999999999993</ele>
        <time>2025-05-15T14:07:57Z</time>
      </trkpt>
      <trkpt lat="42.32124499976635" lon="3.297584038227797">
        <ele>63.579999999999998</ele>
        <time>2025-05-15T14:07:58Z</time>
      </trkpt>
      <trkpt lat="42.32131096534431" lon="3.297465015202761">
        <ele>63.579999999999998</ele>
        <time>2025-05-15T14:07:59Z</time>
      </trkpt>
      <trkpt lat="42.321340972557664" lon="3.297265022993088">
        <ele>63.579999999999998</ele>
        <time>2025-05-15T14:08:00Z</time>
      </trkpt>
      <trkpt lat="42.321378020569682" lon="3.297092020511627">
        <ele>63.579999999999998</ele>
        <time>2025-05-15T14:08:01Z</time>
      </trkpt>
      <trkpt lat="42.321421019732952" lon="3.296923963353038">
        <ele>64.549999999999997</ele>
        <time>2025-05-15T14:08:02Z</time>
      </trkpt>
      <trkpt lat="42.321464018896222" lon="3.296761019155383">
        <ele>65.510000000000005</ele>
        <time>2025-05-15T14:08:03Z</time>
      </trkpt>
      <trkpt lat="42.321654036641121" lon="3.296027015894651">
        <ele>72.239999999999995</ele>
        <time>2025-05-15T14:08:09Z</time>
      </trkpt>
      <trkpt lat="42.321654036641121" lon="3.295900030061603">
        <ele>73.680000000000007</ele>
        <time>2025-05-15T14:08:10Z</time>
      </trkpt>
      <trkpt lat="42.321642972528934" lon="3.295166026800871">
        <ele>78.969999999999999</ele>
        <time>2025-05-15T14:08:15Z</time>
      </trkpt>
      <trkpt lat="42.321597961708903" lon="3.295064019039273">
        <ele>79.930000000000007</ele>
        <time>2025-05-15T14:08:16Z</time>
      </trkpt>
      <trkpt lat="42.321531996130943" lon="3.294967962428927">
        <ele>80.890000000000001</ele>
        <time>2025-05-15T14:08:17Z</time>
      </trkpt>
      <trkpt lat="42.32146100141108" lon="3.294910965487361">
        <ele>82.329999999999998</ele>
        <time>2025-05-15T14:08:18Z</time>
      </trkpt>
      <trkpt lat="42.32135396450758" lon="3.294892022386193">
        <ele>83.290000000000006</ele>
        <time>2025-05-15T14:08:19Z</time>
      </trkpt>
      <trkpt lat="42.321262015029788" lon="3.294875007122755">
        <ele>84.25</ele>
        <time>2025-05-15T14:08:20Z</time>
      </trkpt>
      <trkpt lat="42.321165958419442" lon="3.294892022386193">
        <ele>85.209999999999994</ele>
        <time>2025-05-15T14:08:21Z</time>
      </trkpt>
      <trkpt lat="42.321079038083553" lon="3.294926974922419">
        <ele>86.180000000000007</ele>
        <time>2025-05-15T14:08:22Z</time>
      </trkpt>
      <trkpt lat="42.320831017568707" lon="3.295025965198875">
        <ele>89.060000000000002</ele>
        <time>2025-05-15T14:08:25Z</time>
      </trkpt>
      <trkpt lat="42.320748958736658" lon="3.29503602348268">
        <ele>90.019999999999996</ele>
        <time>2025-05-15T14:08:26Z</time>
      </trkpt>
      <trkpt lat="42.32066597789526" lon="3.295027976855636">
        <ele>90.5</ele>
        <time>2025-05-15T14:08:27Z</time>
      </trkpt>
      <trkpt lat="42.320560030639172" lon="3.295019008219242">
        <ele>91.459999999999994</ele>
        <time>2025-05-15T14:08:28Z</time>
      </trkpt>
      <trkpt lat="42.320486018434167" lon="3.294975003227592">
        <ele>91.939999999999998</ele>
        <time>2025-05-15T14:08:29Z</time>
      </trkpt>
      <trkpt lat="42.320399014279246" lon="3.294922029599547">
        <ele>92.420000000000002</ele>
        <time>2025-05-15T14:08:30Z</time>
      </trkpt>
      <trkpt lat="42.320311004295945" lon="3.294862015172839">
        <ele>92.900000000000006</ele>
        <time>2025-05-15T14:08:31Z</time>
      </trkpt>
      <trkpt lat="42.320146970450878" lon="3.294724971055985">
        <ele>93.390000000000001</ele>
        <time>2025-05-15T14:08:33Z</time>
      </trkpt>
      <trkpt lat="42.320071030408144" lon="3.294641990214586">
        <ele>93.390000000000001</ele>
        <time>2025-05-15T14:08:34Z</time>
      </trkpt>
      <trkpt lat="42.320016967132688" lon="3.294534031301737">
        <ele>93.870000000000005</ele>
        <time>2025-05-15T14:08:35Z</time>
      </trkpt>
      <trkpt lat="42.319958964362741" lon="3.294418025761843">
        <ele>93.870000000000005</ele>
        <time>2025-05-15T14:08:36Z</time>
      </trkpt>
      <trkpt lat="42.319929040968418" lon="3.294292967766523">
        <ele>94.349999999999994</ele>
        <time>2025-05-15T14:08:37Z</time>
      </trkpt>
      <trkpt lat="42.319897022098303" lon="3.2941560074687">
        <ele>94.829999999999998</ele>
        <time>2025-05-15T14:08:38Z</time>
      </trkpt>
      <trkpt lat="42.319766012951732" lon="3.293602969497442">
        <ele>96.75</ele>
        <time>2025-05-15T14:08:42Z</time>
      </trkpt>
      <trkpt lat="42.319694012403488" lon="3.293511020019651">
        <ele>97.230000000000004</ele>
        <time>2025-05-15T14:08:43Z</time>
      </trkpt>
      <trkpt lat="42.319617988541722" lon="3.293414041399956">
        <ele>97.709999999999994</ele>
        <time>2025-05-15T14:08:44Z</time>
      </trkpt>
      <trkpt lat="42.319446997717023" lon="3.293246990069747">
        <ele>98.189999999999998</ele>
        <time>2025-05-15T14:08:46Z</time>
      </trkpt>
      <trkpt lat="42.319353958591819" lon="3.293204996734858">
        <ele>98.189999999999998</ele>
        <time>2025-05-15T14:08:47Z</time>
      </trkpt>
      <trkpt lat="42.319255974143744" lon="3.293180018663406">
        <ele>98.670000000000002</ele>
        <time>2025-05-15T14:08:48Z</time>
      </trkpt>
      <trkpt lat="42.319155978038907" lon="3.293180018663406">
        <ele>99.629999999999995</ele>
        <time>2025-05-15T14:08:49Z</time>
      </trkpt>
      <trkpt lat="42.319049024954438" lon="3.293189993128181">
        <ele>100.11</ele>
        <time>2025-05-15T14:08:50Z</time>
      </trkpt>
      <trkpt lat="42.318936958909035" lon="3.293199967592955">
        <ele>100.59999999999999</ele>
        <time>2025-05-15T14:08:51Z</time>
      </trkpt>
      <trkpt lat="42.318724980577826" lon="3.293218994513154">
        <ele>102.52</ele>
        <time>2025-05-15T14:08:53Z</time>
      </trkpt>
      <trkpt lat="42.318636970594525" lon="3.293227041140199">
        <ele>103.48</ele>
        <time>2025-05-15T14:08:54Z</time>
      </trkpt>
      <trkpt lat="42.318509984761477" lon="3.293215977028012">
        <ele>104.44</ele>
        <time>2025-05-15T14:08:55Z</time>
      </trkpt>
      <trkpt lat="42.31847302056849" lon="3.293140958994627">
        <ele>105.40000000000001</ele>
        <time>2025-05-15T14:08:56Z</time>
      </trkpt>
      <trkpt lat="42.318434966728091" lon="3.293066024780273">
        <ele>106.36</ele>
        <time>2025-05-15T14:08:57Z</time>
      </trkpt>
      <trkpt lat="42.318398002535105" lon="3.292962005361915">
        <ele>107.31999999999999</ele>
        <time>2025-05-15T14:08:58Z</time>
      </trkpt>
      <trkpt lat="42.318357015028596" lon="3.292848011478782">
        <ele>107.81</ele>
        <time>2025-05-15T14:08:59Z</time>
      </trkpt>
      <trkpt lat="42.318308986723423" lon="3.29271599650383">
        <ele>108.77</ele>
        <time>2025-05-15T14:09:00Z</time>
      </trkpt>
      <trkpt lat="42.318259030580521" lon="3.292577024549246">
        <ele>109.25</ele>
        <time>2025-05-15T14:09:01Z</time>
      </trkpt>
      <trkpt lat="42.31780800037086" lon="3.291325019672513">
        <ele>104.44</ele>
        <time>2025-05-15T14:09:10Z</time>
      </trkpt>
      <trkpt lat="42.317770030349493" lon="3.291221000254154">
        <ele>103.95999999999999</ele>
        <time>2025-05-15T14:09:11Z</time>
      </trkpt>
      <trkpt lat="42.317802971228957" lon="3.291100971400738">
        <ele>103.48</ele>
        <time>2025-05-15T14:09:12Z</time>
      </trkpt>
      <trkpt lat="42.317832978442311" lon="3.290987983345985">
        <ele>103</ele>
        <time>2025-05-15T14:09:13Z</time>
      </trkpt>
      <trkpt lat="42.317887041717768" lon="3.290882958099246">
        <ele>102.52</ele>
        <time>2025-05-15T14:09:14Z</time>
      </trkpt>
      <trkpt lat="42.317946972325444" lon="3.290766030550003">
        <ele>101.56</ele>
        <time>2025-05-15T14:09:15Z</time>
      </trkpt>
      <trkpt lat="42.318010004237294" lon="3.290643990039825">
        <ele>101.08</ele>
        <time>2025-05-15T14:09:16Z</time>
      </trkpt>
      <trkpt lat="42.318193987011909" lon="3.29028700478375">
        <ele>98.189999999999998</ele>
        <time>2025-05-15T14:09:19Z</time>
      </trkpt>
      <trkpt lat="42.318218965083361" lon="3.290165970101953">
        <ele>96.75</ele>
        <time>2025-05-15T14:09:20Z</time>
      </trkpt>
      <trkpt lat="42.31823799200356" lon="3.290060022845864">
        <ele>95.790000000000006</ele>
        <time>2025-05-15T14:09:21Z</time>
      </trkpt>
      <trkpt lat="42.318205973133445" lon="3.289952985942364">
        <ele>95.310000000000002</ele>
        <time>2025-05-15T14:09:22Z</time>
      </trkpt>
      <trkpt lat="42.318165991455317" lon="3.28985701315105">
        <ele>94.349999999999994</ele>
        <time>2025-05-15T14:09:23Z</time>
      </trkpt>
      <trkpt lat="42.318113017827272" lon="3.289769003167749">
        <ele>93.390000000000001</ele>
        <time>2025-05-15T14:09:24Z</time>
      </trkpt>
      <trkpt lat="42.318035988137126" lon="3.289720974862576">
        <ele>92.900000000000006</ele>
        <time>2025-05-15T14:09:25Z</time>
      </trkpt>
      <trkpt lat="42.317944038659334" lon="3.289678981527686">
        <ele>91.939999999999998</ele>
        <time>2025-05-15T14:09:26Z</time>
      </trkpt>
      <trkpt lat="42.317840019240975" lon="3.289695996791124">
        <ele>90.980000000000004</ele>
        <time>2025-05-15T14:09:27Z</time>
      </trkpt>
      <trkpt lat="42.317724013701081" lon="3.289715023711324">
        <ele>90.5</ele>
        <time>2025-05-15T14:09:28Z</time>
      </trkpt>
      <trkpt lat="42.317264014855027" lon="3.289791969582439">
        <ele>86.659999999999997</ele>
        <time>2025-05-15T14:09:32Z</time>
      </trkpt>
      <trkpt lat="42.317174999043345" lon="3.289784006774426">
        <ele>86.180000000000007</ele>
        <time>2025-05-15T14:09:33Z</time>
      </trkpt>
      <trkpt lat="42.317122025415301" lon="3.289713012054563">
        <ele>85.689999999999998</ele>
        <time>2025-05-15T14:09:34Z</time>
      </trkpt>
      <trkpt lat="42.317057987675071" lon="3.289630031213164">
        <ele>85.209999999999994</ele>
        <time>2025-05-15T14:09:35Z</time>
      </trkpt>
      <trkpt lat="42.316985987126827" lon="3.289534980431199">
        <ele>84.730000000000004</ele>
        <time>2025-05-15T14:09:36Z</time>
      </trkpt>
      <trkpt lat="42.316753976047039" lon="3.289229040965438">
        <ele>82.810000000000002</ele>
        <time>2025-05-15T14:09:39Z</time>
      </trkpt>
      <trkpt lat="42.316699996590614" lon="3.289109012112021">
        <ele>82.329999999999998</ele>
        <time>2025-05-15T14:09:40Z</time>
      </trkpt>
      <trkpt lat="42.316593965515494" lon="3.28873903490603">
        <ele>80.890000000000001</ele>
        <time>2025-05-15T14:09:43Z</time>
      </trkpt>
      <trkpt lat="42.31651802547276" lon="3.288678014650941">
        <ele>80.890000000000001</ele>
        <time>2025-05-15T14:09:44Z</time>
      </trkpt>
      <trkpt lat="42.316439989954233" lon="3.288615988567472">
        <ele>80.409999999999997</ele>
        <time>2025-05-15T14:09:45Z</time>
      </trkpt>
      <trkpt lat="42.316357009112835" lon="3.288572989404202">
        <ele>80.409999999999997</ele>
        <time>2025-05-15T14:09:46Z</time>
      </trkpt>
      <trkpt lat="42.316272016614676" lon="3.288555974140763">
        <ele>80.409999999999997</ele>
        <time>2025-05-15T14:09:47Z</time>
      </trkpt>
      <trkpt lat="42.316189035773277" lon="3.288538036867976">
        <ele>81.370000000000005</ele>
        <time>2025-05-15T14:09:49Z</time>
      </trkpt>
      <trkpt lat="42.314994027838111" lon="3.288291022181511">
        <ele>85.209999999999994</ele>
        <time>2025-05-15T14:09:58Z</time>
      </trkpt>
      <trkpt lat="42.313476987183094" lon="3.287937976419926">
        <ele>89.540000000000006</ele>
        <time>2025-05-15T14:10:08Z</time>
      </trkpt>
      <trkpt lat="42.313350001350045" lon="3.287937976419926">
        <ele>90.019999999999996</ele>
        <time>2025-05-15T14:10:09Z</time>
      </trkpt>
      <trkpt lat="42.313224021345377" lon="3.287977958098054">
        <ele>90.980000000000004</ele>
        <time>2025-05-15T14:10:10Z</time>
      </trkpt>
      <trkpt lat="42.311955001205206" lon="3.288473999127746">
        <ele>88.099999999999994</ele>
        <time>2025-05-15T14:10:21Z</time>
      </trkpt>
      <trkpt lat="42.311867997050285" lon="3.288473999127746">
        <ele>87.620000000000005</ele>
        <time>2025-05-15T14:10:22Z</time>
      </trkpt>
      <trkpt lat="42.311787027865648" lon="3.288423037156463">
        <ele>87.620000000000005</ele>
        <time>2025-05-15T14:10:23Z</time>
      </trkpt>
      <trkpt lat="42.311691977083683" lon="3.288365034386516">
        <ele>87.140000000000001</ele>
        <time>2025-05-15T14:10:24Z</time>
      </trkpt>
      <trkpt lat="42.311590975150466" lon="3.288303008303046">
        <ele>87.140000000000001</ele>
        <time>2025-05-15T14:10:25Z</time>
      </trkpt>
      <trkpt lat="42.310965014621615" lon="3.2879030238837">
        <ele>82.329999999999998</ele>
        <time>2025-05-15T14:10:31Z</time>
      </trkpt>
      <trkpt lat="42.310624038800597" lon="3.287501027807593">
        <ele>78.969999999999999</ele>
        <time>2025-05-15T14:10:35Z</time>
      </trkpt>
      <trkpt lat="42.310485988855362" lon="3.287282008677721">
        <ele>76.560000000000002</ele>
        <time>2025-05-15T14:10:37Z</time>
      </trkpt>
      <trkpt lat="42.310413988307118" lon="3.287196010351181">
        <ele>75.599999999999994</ele>
        <time>2025-05-15T14:10:38Z</time>
      </trkpt>
      <trkpt lat="42.310319021344185" lon="3.287142030894756">
        <ele>75.120000000000005</ele>
        <time>2025-05-15T14:10:39Z</time>
      </trkpt>
      <trkpt lat="42.310225982218981" lon="3.287111017853022">
        <ele>74.159999999999997</ele>
        <time>2025-05-15T14:10:40Z</time>
      </trkpt>
      <trkpt lat="42.310132021084428" lon="3.287080004811287">
        <ele>73.680000000000007</ele>
        <time>2025-05-15T14:10:41Z</time>
      </trkpt>
      <trkpt lat="42.310034958645701" lon="3.287066007032991">
        <ele>72.719999999999999</ele>
        <time>2025-05-15T14:10:42Z</time>
      </trkpt>
      <trkpt lat="42.309938985854387" lon="3.287092996761203">
        <ele>71.760000000000005</ele>
        <time>2025-05-15T14:10:43Z</time>
      </trkpt>
      <trkpt lat="42.309827003628016" lon="3.28712803311646">
        <ele>70.790000000000006</ele>
        <time>2025-05-15T14:10:44Z</time>
      </trkpt>
      <trkpt lat="42.30975198559463" lon="3.287229035049677">
        <ele>70.310000000000002</ele>
        <time>2025-05-15T14:10:45Z</time>
      </trkpt>
      <trkpt lat="42.309674033895135" lon="3.287333976477385">
        <ele>69.829999999999998</ele>
        <time>2025-05-15T14:10:46Z</time>
      </trkpt>
      <trkpt lat="42.30959901586175" lon="3.287435984238982">
        <ele>68.870000000000005</ele>
        <time>2025-05-15T14:10:47Z</time>
      </trkpt>
      <trkpt lat="42.309465995058417" lon="3.287616027519107">
        <ele>66.469999999999999</ele>
        <time>2025-05-15T14:10:49Z</time>
      </trkpt>
      <trkpt lat="42.30938795953989" lon="3.287663972005248">
        <ele>65.510000000000005</ele>
        <time>2025-05-15T14:10:50Z</time>
      </trkpt>
      <trkpt lat="42.309293998405337" lon="3.287722980603576">
        <ele>65.030000000000001</ele>
        <time>2025-05-15T14:10:51Z</time>
      </trkpt>
      <trkpt lat="42.309229038655758" lon="3.287722980603576">
        <ele>64.069999999999993</ele>
        <time>2025-05-15T14:10:52Z</time>
      </trkpt>
      <trkpt lat="42.309154020622373" lon="3.287678975611925">
        <ele>63.100000000000001</ele>
        <time>2025-05-15T14:10:53Z</time>
      </trkpt>
      <trkpt lat="42.309075985103846" lon="3.287615021690726">
        <ele>62.619999999999997</ele>
        <time>2025-05-15T14:10:54Z</time>
      </trkpt>
      <trkpt lat="42.308984035626054" lon="3.28753899782896">
        <ele>62.140000000000001</ele>
        <time>2025-05-15T14:10:55Z</time>
      </trkpt>
      <trkpt lat="42.308499980717897" lon="3.287143958732486">
        <ele>59.740000000000002</ele>
        <time>2025-05-15T14:11:00Z</time>
      </trkpt>
      <trkpt lat="42.308470979332924" lon="3.287041028961539">
        <ele>59.740000000000002</ele>
        <time>2025-05-15T14:11:01Z</time>
      </trkpt>
      <trkpt lat="42.308435020968318" lon="3.286914965137839">
        <ele>59.259999999999998</ele>
        <time>2025-05-15T14:11:02Z</time>
      </trkpt>
      <trkpt lat="42.308413982391357" lon="3.286778004840016">
        <ele>58.780000000000001</ele>
        <time>2025-05-15T14:11:03Z</time>
      </trkpt>
      <trkpt lat="42.308413982391357" lon="3.286650013178587">
        <ele>58.299999999999997</ele>
        <time>2025-05-15T14:11:04Z</time>
      </trkpt>
      <trkpt lat="42.308452958241105" lon="3.286539036780596">
        <ele>57.340000000000003</ele>
        <time>2025-05-15T14:11:05Z</time>
      </trkpt>
      <trkpt lat="42.308489000424743" lon="3.286433005705476">
        <ele>56.859999999999999</ele>
        <time>2025-05-15T14:11:06Z</time>
      </trkpt>
      <trkpt lat="42.30852697044611" lon="3.286321023479104">
        <ele>55.890000000000001</ele>
        <time>2025-05-15T14:11:07Z</time>
      </trkpt>
      <trkpt lat="42.30856804177165" lon="3.286202000454068">
        <ele>55.409999999999997</ele>
        <time>2025-05-15T14:11:08Z</time>
      </trkpt>
      <trkpt lat="42.308651022613049" lon="3.285960014909506">
        <ele>53.009999999999998</ele>
        <time>2025-05-15T14:11:10Z</time>
      </trkpt>
      <trkpt lat="42.308665020391345" lon="3.285832023248076">
        <ele>52.049999999999997</ele>
        <time>2025-05-15T14:11:11Z</time>
      </trkpt>
      <trkpt lat="42.308641970157623" lon="3.285697996616364">
        <ele>51.090000000000003</ele>
        <time>2025-05-15T14:11:12Z</time>
      </trkpt>
      <trkpt lat="42.308594025671482" lon="3.285577967762947">
        <ele>50.130000000000003</ele>
        <time>2025-05-15T14:11:13Z</time>
      </trkpt>
      <trkpt lat="42.308540968224406" lon="3.285448970273137">
        <ele>49.649999999999999</ele>
        <time>2025-05-15T14:11:14Z</time>
      </trkpt>
      <trkpt lat="42.308433009311557" lon="3.285182006657124">
        <ele>48.68</ele>
        <time>2025-05-15T14:11:16Z</time>
      </trkpt>
      <trkpt lat="42.308378024026752" lon="3.285063989460468">
        <ele>48.200000000000003</ele>
        <time>2025-05-15T14:11:17Z</time>
      </trkpt>
      <trkpt lat="42.308328989893198" lon="3.284998023882508">
        <ele>47.719999999999999</ele>
        <time>2025-05-15T14:11:18Z</time>
      </trkpt>
      <trkpt lat="42.308221030980349" lon="3.285029958933592">
        <ele>46.759999999999998</ele>
        <time>2025-05-15T14:11:19Z</time>
      </trkpt>
      <trkpt lat="42.308148024603724" lon="3.285052003338933">
        <ele>45.799999999999997</ele>
        <time>2025-05-15T14:11:20Z</time>
      </trkpt>
      <trkpt lat="42.308087004348636" lon="3.285140013322234">
        <ele>44.840000000000003</ele>
        <time>2025-05-15T14:11:21Z</time>
      </trkpt>
      <trkpt lat="42.308046016842127" lon="3.28526197001338">
        <ele>43.880000000000003</ele>
        <time>2025-05-15T14:11:22Z</time>
      </trkpt>
      <trkpt lat="42.307998994365335" lon="3.285397002473474">
        <ele>43.399999999999999</ele>
        <time>2025-05-15T14:11:23Z</time>
      </trkpt>
      <trkpt lat="42.307663969695568" lon="3.286132011562586">
        <ele>36.670000000000002</ele>
        <time>2025-05-15T14:11:28Z</time>
      </trkpt>
      <trkpt lat="42.30758199468255" lon="3.286238964647055">
        <ele>35.229999999999997</ele>
        <time>2025-05-15T14:11:29Z</time>
      </trkpt>
      <trkpt lat="42.307503037154675" lon="3.28633401542902">
        <ele>33.780000000000001</ele>
        <time>2025-05-15T14:11:30Z</time>
      </trkpt>
      <trkpt lat="42.307413015514612" lon="3.286389000713825">
        <ele>32.340000000000003</ele>
        <time>2025-05-15T14:11:31Z</time>
      </trkpt>
      <trkpt lat="42.30732299387455" lon="3.28644298017025">
        <ele>30.899999999999999</ele>
        <time>2025-05-15T14:11:32Z</time>
      </trkpt>
      <trkpt lat="42.307218974456191" lon="3.286456977948546">
        <ele>29.460000000000001</ele>
        <time>2025-05-15T14:11:33Z</time>
      </trkpt>
      <trkpt lat="42.307114033028483" lon="3.286456977948546">
        <ele>28.02</ele>
        <time>2025-05-15T14:11:34Z</time>
      </trkpt>
      <trkpt lat="42.307005990296602" lon="3.286456977948546">
        <ele>27.050000000000001</ele>
        <time>2025-05-15T14:11:35Z</time>
      </trkpt>
      <trkpt lat="42.306464016437531" lon="3.286411967128515">
        <ele>20.809999999999999</ele>
        <time>2025-05-15T14:11:40Z</time>
      </trkpt>
      <trkpt lat="42.306363014504313" lon="3.286396963521838">
        <ele>19.359999999999999</ele>
        <time>2025-05-15T14:11:41Z</time>
      </trkpt>
      <trkpt lat="42.306292019784451" lon="3.286328986287117">
        <ele>18.399999999999999</ele>
        <time>2025-05-15T14:11:42Z</time>
      </trkpt>
      <trkpt lat="42.306230999529362" lon="3.286235025152564">
        <ele>17.440000000000001</ele>
        <time>2025-05-15T14:11:43Z</time>
      </trkpt>
      <trkpt lat="42.306171990931034" lon="3.286145003512502">
        <ele>16.48</ele>
        <time>2025-05-15T14:11:44Z</time>
      </trkpt>
      <trkpt lat="42.306112982332706" lon="3.286052970215678">
        <ele>15.039999999999999</ele>
        <time>2025-05-15T14:11:45Z</time>
      </trkpt>
      <trkpt lat="42.305907960981131" lon="3.285638988018036">
        <ele>11.19</ele>
        <time>2025-05-15T14:11:49Z</time>
      </trkpt>
      <trkpt lat="42.305868985131383" lon="3.285552989691496">
        <ele>10.710000000000001</ele>
        <time>2025-05-15T14:11:50Z</time>
      </trkpt>
      <trkpt lat="42.305889017879963" lon="3.285450981929898">
        <ele>9.75</ele>
        <time>2025-05-15T14:11:51Z</time>
      </trkpt>
      <trkpt lat="42.305921958759427" lon="3.285350985825062">
        <ele>8.789999999999999</ele>
        <time>2025-05-15T14:11:52Z</time>
      </trkpt>
      <trkpt lat="42.305958000943065" lon="3.285243026912212">
        <ele>8.789999999999999</ele>
        <time>2025-05-15T14:11:53Z</time>
      </trkpt>
      <trkpt lat="42.305995970964432" lon="3.285128027200699">
        <ele>8.310000000000001</ele>
        <time>2025-05-15T14:11:54Z</time>
      </trkpt>
      <trkpt lat="42.306035030633211" lon="3.285011015832424">
        <ele>7.83</ele>
        <time>2025-05-15T14:11:55Z</time>
      </trkpt>
      <trkpt lat="42.306096972897649" lon="3.284782022237778">
        <ele>6.87</ele>
        <time>2025-05-15T14:11:57Z</time>
      </trkpt>
      <trkpt lat="42.306096972897649" lon="3.284632991999388">
        <ele>6.39</ele>
        <time>2025-05-15T14:11:58Z</time>
      </trkpt>
      <trkpt lat="42.306047016754746" lon="3.284584041684866">
        <ele>5.91</ele>
        <time>2025-05-15T14:11:59Z</time>
      </trkpt>
      <trkpt lat="42.305988008156419" lon="3.284524027258158">
        <ele>5.91</ele>
        <time>2025-05-15T14:12:00Z</time>
      </trkpt>
      <trkpt lat="42.305903015658259" lon="3.284503994509578">
        <ele>5.91</ele>
        <time>2025-05-15T14:12:01Z</time>
      </trkpt>
      <trkpt lat="42.305809976533055" lon="3.284559985622764">
        <ele>5.91</ele>
        <time>2025-05-15T14:12:02Z</time>
      </trkpt>
      <trkpt lat="42.305733030661941" lon="3.284643972292543">
        <ele>6.39</ele>
        <time>2025-05-15T14:12:03Z</time>
      </trkpt>
      <trkpt lat="42.305652983486652" lon="3.284730976447463">
        <ele>6.87</ele>
        <time>2025-05-15T14:12:04Z</time>
      </trkpt>
      <trkpt lat="42.305481992661953" lon="3.284886963665485">
        <ele>7.35</ele>
        <time>2025-05-15T14:12:06Z</time>
      </trkpt>
      <trkpt lat="42.305391971021891" lon="3.284919988363981">
        <ele>7.83</ele>
        <time>2025-05-15T14:12:07Z</time>
      </trkpt>
      <trkpt lat="42.305298009887338" lon="3.284930968657136">
        <ele>8.310000000000001</ele>
        <time>2025-05-15T14:12:08Z</time>
      </trkpt>
      <trkpt lat="42.305202037096024" lon="3.284906996414065">
        <ele>9.27</ele>
        <time>2025-05-15T14:12:09Z</time>
      </trkpt>
      <trkpt lat="42.305102963000536" lon="3.284872965887189">
        <ele>10.23</ele>
        <time>2025-05-15T14:12:10Z</time>
      </trkpt>
      <trkpt lat="42.304320009425282" lon="3.284606002271175">
        <ele>16.48</ele>
        <time>2025-05-15T14:12:17Z</time>
      </trkpt>
      <trkpt lat="42.30422898195684" lon="3.284526038914919">
        <ele>17.920000000000002</ele>
        <time>2025-05-15T14:12:18Z</time>
      </trkpt>
      <trkpt lat="42.304170979186893" lon="3.28444398008287">
        <ele>18.879999999999999</ele>
        <time>2025-05-15T14:12:19Z</time>
      </trkpt>
      <trkpt lat="42.304123034700751" lon="3.284376002848148">
        <ele>19.84</ele>
        <time>2025-05-15T14:12:20Z</time>
      </trkpt>
      <trkpt lat="42.304052039980888" lon="3.284344989806414">
        <ele>20.809999999999999</ele>
        <time>2025-05-15T14:12:21Z</time>
      </trkpt>
      <trkpt lat="42.303972998633981" lon="3.284310959279537">
        <ele>22.25</ele>
        <time>2025-05-15T14:12:22Z</time>
      </trkpt>
      <trkpt lat="42.303903009742498" lon="3.284354964271188">
        <ele>23.210000000000001</ele>
        <time>2025-05-15T14:12:23Z</time>
      </trkpt>
      <trkpt lat="42.303818017244339" lon="3.284408021718264">
        <ele>24.170000000000002</ele>
        <time>2025-05-15T14:12:24Z</time>
      </trkpt>
      <trkpt lat="42.303726989775896" lon="3.28446501865983">
        <ele>25.129999999999999</ele>
        <time>2025-05-15T14:12:25Z</time>
      </trkpt>
      <trkpt lat="42.303629005327821" lon="3.284526038914919">
        <ele>26.09</ele>
        <time>2025-05-15T14:12:26Z</time>
      </trkpt>
      <trkpt lat="42.302628960460424" lon="3.284803982824087">
        <ele>35.710000000000001</ele>
        <time>2025-05-15T14:12:36Z</time>
      </trkpt>
      <trkpt lat="42.302542962133884" lon="3.284814041107893">
        <ele>36.189999999999998</ele>
        <time>2025-05-15T14:12:37Z</time>
      </trkpt>
      <trkpt lat="42.301728995516896" lon="3.284882018342614">
        <ele>40.509999999999998</ele>
        <time>2025-05-15T14:12:46Z</time>
      </trkpt>
      <trkpt lat="42.301152991130948" lon="3.284908002242446">
        <ele>40.030000000000001</ele>
        <time>2025-05-15T14:12:52Z</time>
      </trkpt>
      <trkpt lat="42.301036985591054" lon="3.284943960607052">
        <ele>40.030000000000001</ele>
        <time>2025-05-15T14:12:53Z</time>
      </trkpt>
      <trkpt lat="42.300931038334966" lon="3.285030964761972">
        <ele>39.07</ele>
        <time>2025-05-15T14:12:54Z</time>
      </trkpt>
      <trkpt lat="42.300819978117943" lon="3.285122998058796">
        <ele>39.07</ele>
        <time>2025-05-15T14:12:55Z</time>
      </trkpt>
      <trkpt lat="42.30070699006319" lon="3.285216037184">
        <ele>38.109999999999999</ele>
        <time>2025-05-15T14:12:56Z</time>
      </trkpt>
      <trkpt lat="42.299641985446215" lon="3.286085994914174">
        <ele>28.5</ele>
        <time>2025-05-15T14:13:06Z</time>
      </trkpt>
      <trkpt lat="42.299551963806152" lon="3.286156989634037">
        <ele>28.02</ele>
        <time>2025-05-15T14:13:07Z</time>
      </trkpt>
      <trkpt lat="42.299433024600148" lon="3.28614198602736">
        <ele>27.050000000000001</ele>
        <time>2025-05-15T14:13:08Z</time>
      </trkpt>
      <trkpt lat="42.299344008788466" lon="3.286104016005993">
        <ele>26.57</ele>
        <time>2025-05-15T14:13:09Z</time>
      </trkpt>
      <trkpt lat="42.299265973269939" lon="3.286036960780621">
        <ele>25.609999999999999</ele>
        <time>2025-05-15T14:13:10Z</time>
      </trkpt>
      <trkpt lat="42.299195984378457" lon="3.285945011302829">
        <ele>25.129999999999999</ele>
        <time>2025-05-15T14:13:11Z</time>
      </trkpt>
      <trkpt lat="42.299136975780129" lon="3.285826994106174">
        <ele>24.649999999999999</ele>
        <time>2025-05-15T14:13:12Z</time>
      </trkpt>
      <trkpt lat="42.299101017415524" lon="3.285683998838067">
        <ele>23.690000000000001</ele>
        <time>2025-05-15T14:13:13Z</time>
      </trkpt>
      <trkpt lat="42.299064975231886" lon="3.285546032711864">
        <ele>23.210000000000001</ele>
        <time>2025-05-15T14:13:14Z</time>
      </trkpt>
      <trkpt lat="42.298868000507355" lon="3.284704992547631">
        <ele>16.48</ele>
        <time>2025-05-15T14:13:22Z</time>
      </trkpt>
      <trkpt lat="42.298718970268965" lon="3.283788012340665">
        <ele>12.15</ele>
        <time>2025-05-15T14:13:28Z</time>
      </trkpt>
      <trkpt lat="42.298634983599186" lon="3.283307980746031">
        <ele>10.23</ele>
        <time>2025-05-15T14:13:32Z</time>
      </trkpt>
      <trkpt lat="42.298600031062961" lon="3.283226005733013">
        <ele>10.23</ele>
        <time>2025-05-15T14:13:33Z</time>
      </trkpt>
      <trkpt lat="42.298554014414549" lon="3.283143024891615">
        <ele>9.75</ele>
        <time>2025-05-15T14:13:34Z</time>
      </trkpt>
      <trkpt lat="42.298501040786505" lon="3.28304504044354">
        <ele>9.75</ele>
        <time>2025-05-15T14:13:35Z</time>
      </trkpt>
      <trkpt lat="42.29817196726799" lon="3.282646983861923">
        <ele>10.23</ele>
        <time>2025-05-15T14:13:39Z</time>
      </trkpt>
      <trkpt lat="42.298064008355141" lon="3.282537013292313">
        <ele>10.710000000000001</ele>
        <time>2025-05-15T14:13:40Z</time>
      </trkpt>
      <trkpt lat="42.297950014472008" lon="3.282480016350746">
        <ele>11.19</ele>
        <time>2025-05-15T14:13:41Z</time>
      </trkpt>
      <trkpt lat="42.29782403446734" lon="3.282452020794153">
        <ele>12.15</ele>
        <time>2025-05-15T14:13:42Z</time>
      </trkpt>
      <trkpt lat="42.297702999785542" lon="3.282469036057591">
        <ele>12.630000000000001</ele>
        <time>2025-05-15T14:13:43Z</time>
      </trkpt>
      <trkpt lat="42.297581965103745" lon="3.282486973330379">
        <ele>13.6</ele>
        <time>2025-05-15T14:13:44Z</time>
      </trkpt>
      <trkpt lat="42.297470988705754" lon="3.282547993585467">
        <ele>14.08</ele>
        <time>2025-05-15T14:13:45Z</time>
      </trkpt>
      <trkpt lat="42.296609999611974" lon="3.283002963289619">
        <ele>19.359999999999999</ele>
        <time>2025-05-15T14:13:53Z</time>
      </trkpt>
      <trkpt lat="42.29649399407208" lon="3.283042022958398">
        <ele>18.879999999999999</ele>
        <time>2025-05-15T14:13:54Z</time>
      </trkpt>
      <trkpt lat="42.296376982703805" lon="3.28304504044354">
        <ele>18.399999999999999</ele>
        <time>2025-05-15T14:13:55Z</time>
      </trkpt>
      <trkpt lat="42.296260977163911" lon="3.283033976331353">
        <ele>18.399999999999999</ele>
        <time>2025-05-15T14:13:56Z</time>
      </trkpt>
      <trkpt lat="42.296139020472765" lon="3.283007992431521">
        <ele>17.920000000000002</ele>
        <time>2025-05-15T14:13:57Z</time>
      </trkpt>
      <trkpt lat="42.296016979962587" lon="3.282981002703309">
        <ele>17.920000000000002</ele>
        <time>2025-05-15T14:13:58Z</time>
      </trkpt>
      <trkpt lat="42.295901980251074" lon="3.282956024631858">
        <ele>17.920000000000002</ele>
        <time>2025-05-15T14:13:59Z</time>
      </trkpt>
      <trkpt lat="42.295456985011697" lon="3.28281101770699">
        <ele>20.809999999999999</ele>
        <time>2025-05-15T14:14:04Z</time>
      </trkpt>
      <trkpt lat="42.295382972806692" lon="3.282712027430534">
        <ele>21.289999999999999</ele>
        <time>2025-05-15T14:14:05Z</time>
      </trkpt>
      <trkpt lat="42.295316001400352" lon="3.282619994133711">
        <ele>21.77</ele>
        <time>2025-05-15T14:14:06Z</time>
      </trkpt>
      <trkpt lat="42.295261016115546" lon="3.282503988593817">
        <ele>22.25</ele>
        <time>2025-05-15T14:14:07Z</time>
      </trkpt>
      <trkpt lat="42.295222962275147" lon="3.282383037731051">
        <ele>22.73</ele>
        <time>2025-05-15T14:14:08Z</time>
      </trkpt>
      <trkpt lat="42.29518499225378" lon="3.282262003049254">
        <ele>23.210000000000001</ele>
        <time>2025-05-15T14:14:09Z</time>
      </trkpt>
      <trkpt lat="42.295115003362298" lon="3.282151026651263">
        <ele>23.690000000000001</ele>
        <time>2025-05-15T14:14:10Z</time>
      </trkpt>
      <trkpt lat="42.295039985328913" lon="3.282052036374807">
        <ele>24.649999999999999</ele>
        <time>2025-05-15T14:14:11Z</time>
      </trkpt>
      <trkpt lat="42.294964967295527" lon="3.2819539681077">
        <ele>25.609999999999999</ele>
        <time>2025-05-15T14:14:12Z</time>
      </trkpt>
      <trkpt lat="42.294891960918903" lon="3.281857995316386">
        <ele>26.57</ele>
        <time>2025-05-15T14:14:13Z</time>
      </trkpt>
      <trkpt lat="42.294824989512563" lon="3.28175799921155">
        <ele>28.02</ele>
        <time>2025-05-15T14:14:14Z</time>
      </trkpt>
      <trkpt lat="42.294781990349293" lon="3.281635036692023">
        <ele>28.98</ele>
        <time>2025-05-15T14:14:15Z</time>
      </trkpt>
      <trkpt lat="42.294656010344625" lon="3.281272016465664">
        <ele>32.82</ele>
        <time>2025-05-15T14:14:18Z</time>
      </trkpt>
      <trkpt lat="42.294566994532943" lon="3.281163973733783">
        <ele>34.259999999999998</ele>
        <time>2025-05-15T14:14:19Z</time>
      </trkpt>
      <trkpt lat="42.294477978721261" lon="3.28109297901392">
        <ele>35.229999999999997</ele>
        <time>2025-05-15T14:14:20Z</time>
      </trkpt>
      <trkpt lat="42.294391980394721" lon="3.281023995950818">
        <ele>36.189999999999998</ele>
        <time>2025-05-15T14:14:21Z</time>
      </trkpt>
      <trkpt lat="42.294290978461504" lon="3.280959036201239">
        <ele>36.670000000000002</ele>
        <time>2025-05-15T14:14:22Z</time>
      </trkpt>
      <trkpt lat="42.294209003448486" lon="3.2809420209378">
        <ele>37.149999999999999</ele>
        <time>2025-05-15T14:14:23Z</time>
      </trkpt>
      <trkpt lat="42.29408998042345" lon="3.280961969867349">
        <ele>38.109999999999999</ele>
        <time>2025-05-15T14:14:24Z</time>
      </trkpt>
      <trkpt lat="42.293997025117278" lon="3.280977979302406">
        <ele>38.590000000000003</ele>
        <time>2025-05-15T14:14:25Z</time>
      </trkpt>
      <trkpt lat="42.293911026790738" lon="3.280991977080703">
        <ele>39.07</ele>
        <time>2025-05-15T14:14:26Z</time>
      </trkpt>
      <trkpt lat="42.293828967958689" lon="3.281005974858999">
        <ele>39.07</ele>
        <time>2025-05-15T14:14:27Z</time>
      </trkpt>
      <trkpt lat="42.293746992945671" lon="3.281018966808915">
        <ele>39.549999999999997</ele>
        <time>2025-05-15T14:14:28Z</time>
      </trkpt>
      <trkpt lat="42.293578013777733" lon="3.281047968193889">
        <ele>40.030000000000001</ele>
        <time>2025-05-15T14:14:30Z</time>
      </trkpt>
      <trkpt lat="42.293494027107954" lon="3.28104997985065">
        <ele>40.030000000000001</ele>
        <time>2025-05-15T14:14:31Z</time>
      </trkpt>
      <trkpt lat="42.293408028781414" lon="3.28104997985065">
        <ele>40.030000000000001</ele>
        <time>2025-05-15T14:14:32Z</time>
      </trkpt>
      <trkpt lat="42.293333010748029" lon="3.281022990122438">
        <ele>40.030000000000001</ele>
        <time>2025-05-15T14:14:33Z</time>
      </trkpt>
      <trkpt lat="42.293260004371405" lon="3.280991977080703">
        <ele>40.030000000000001</ele>
        <time>2025-05-15T14:14:34Z</time>
      </trkpt>
      <trkpt lat="42.293196972459555" lon="3.28096498735249">
        <ele>40.030000000000001</ele>
        <time>2025-05-15T14:14:35Z</time>
      </trkpt>
      <trkpt lat="42.293143998831511" lon="3.2809420209378">
        <ele>40.509999999999998</ele>
        <time>2025-05-15T14:14:36Z</time>
      </trkpt>
      <trkpt lat="42.293098988011479" lon="3.280922994017601">
        <ele>40.990000000000002</ele>
        <time>2025-05-15T14:14:37Z</time>
      </trkpt>
      <trkpt lat="42.293070992454886" lon="3.280892986804247">
        <ele>40.990000000000002</ele>
        <time>2025-05-15T14:14:38Z</time>
      </trkpt>
      <trkpt lat="42.292860019952059" lon="3.280676985159516">
        <ele>41.950000000000003</ele>
        <time>2025-05-15T14:14:43Z</time>
      </trkpt>
      <trkpt lat="42.292708978056908" lon="3.280586963519454">
        <ele>41.469999999999999</ele>
        <time>2025-05-15T14:14:45Z</time>
      </trkpt>
      <trkpt lat="42.292543016374111" lon="3.28053398989141">
        <ele>40.030000000000001</ele>
        <time>2025-05-15T14:14:47Z</time>
      </trkpt>
      <trkpt lat="42.292502028867602" lon="3.280471041798592">
        <ele>40.030000000000001</ele>
        <time>2025-05-15T14:14:48Z</time>
      </trkpt>
      <trkpt lat="42.292462969198823" lon="3.280411027371883">
        <ele>39.549999999999997</ele>
        <time>2025-05-15T14:14:49Z</time>
      </trkpt>
      <trkpt lat="42.29219701141119" lon="3.280044989660382">
        <ele>38.109999999999999</ele>
        <time>2025-05-15T14:14:55Z</time>
      </trkpt>
      <trkpt lat="42.292073965072632" lon="3.279923032969236">
        <ele>37.149999999999999</ele>
        <time>2025-05-15T14:14:58Z</time>
      </trkpt>
      <trkpt lat="42.292043035849929" lon="3.279892019927502">
        <ele>36.670000000000002</ele>
        <time>2025-05-15T14:14:59Z</time>
      </trkpt>
      <trkpt lat="42.292020991444588" lon="3.279834017157555">
        <ele>36.189999999999998</ele>
        <time>2025-05-15T14:15:00Z</time>
      </trkpt>
      <trkpt lat="42.292020991444588" lon="3.279754975810647">
        <ele>35.710000000000001</ele>
        <time>2025-05-15T14:15:01Z</time>
      </trkpt>
      <trkpt lat="42.29202501475811" lon="3.279664032161236">
        <ele>35.229999999999997</ele>
        <time>2025-05-15T14:15:02Z</time>
      </trkpt>
      <trkpt lat="42.292052004486322" lon="3.279585996642709">
        <ele>34.259999999999998</ele>
        <time>2025-05-15T14:15:03Z</time>
      </trkpt>
      <trkpt lat="42.292080000042915" lon="3.279504021629691">
        <ele>33.780000000000001</ele>
        <time>2025-05-15T14:15:04Z</time>
      </trkpt>
      <trkpt lat="42.292106989771128" lon="3.279424980282784">
        <ele>33.299999999999997</ele>
        <time>2025-05-15T14:15:05Z</time>
      </trkpt>
      <trkpt lat="42.29213397949934" lon="3.279347028583288">
        <ele>32.82</ele>
        <time>2025-05-15T14:15:06Z</time>
      </trkpt>
      <trkpt lat="42.292159963399172" lon="3.279269998893142">
        <ele>32.340000000000003</ele>
        <time>2025-05-15T14:15:07Z</time>
      </trkpt>
      <trkpt lat="42.292187036946416" lon="3.279191963374615">
        <ele>31.859999999999999</ele>
        <time>2025-05-15T14:15:08Z</time>
      </trkpt>
      <trkpt lat="42.292380994185805" lon="3.278704974800348">
        <ele>29.460000000000001</ele>
        <time>2025-05-15T14:15:14Z</time>
      </trkpt>
      <trkpt lat="42.29243203997612" lon="3.278628028929234">
        <ele>29.460000000000001</ele>
        <time>2025-05-15T14:15:15Z</time>
      </trkpt>
      <trkpt lat="42.292485013604164" lon="3.278587963432074">
        <ele>28.98</ele>
        <time>2025-05-15T14:15:16Z</time>
      </trkpt>
      <trkpt lat="42.292616022750735" lon="3.278500959277153">
        <ele>28.5</ele>
        <time>2025-05-15T14:15:18Z</time>
      </trkpt>
      <trkpt lat="42.292683999985456" lon="3.27846902422607">
        <ele>28.5</ele>
        <time>2025-05-15T14:15:19Z</time>
      </trkpt>
      <trkpt lat="42.29282196611166" lon="3.278404986485839">
        <ele>28.5</ele>
        <time>2025-05-15T14:15:21Z</time>
      </trkpt>
      <trkpt lat="42.292876029387116" lon="3.278370033949614">
        <ele>28.5</ele>
        <time>2025-05-15T14:15:22Z</time>
      </trkpt>
      <trkpt lat="42.292936965823174" lon="3.278310019522905">
        <ele>28.5</ele>
        <time>2025-05-15T14:15:23Z</time>
      </trkpt>
      <trkpt lat="42.293004021048546" lon="3.278252016752958">
        <ele>28.5</ele>
        <time>2025-05-15T14:15:24Z</time>
      </trkpt>
      <trkpt lat="42.293065041303635" lon="3.278200970962644">
        <ele>28.02</ele>
        <time>2025-05-15T14:15:25Z</time>
      </trkpt>
      <trkpt lat="42.293123966082931" lon="3.278130982071161">
        <ele>28.02</ele>
        <time>2025-05-15T14:15:26Z</time>
      </trkpt>
      <trkpt lat="42.293183980509639" lon="3.278059987351298">
        <ele>28.02</ele>
        <time>2025-05-15T14:15:27Z</time>
      </trkpt>
      <trkpt lat="42.293242989107966" lon="3.277989998459816">
        <ele>27.530000000000001</ele>
        <time>2025-05-15T14:15:28Z</time>
      </trkpt>
      <trkpt lat="42.29329202324152" lon="3.277920009568334">
        <ele>27.530000000000001</ele>
        <time>2025-05-15T14:15:29Z</time>
      </trkpt>
      <trkpt lat="42.293319012969732" lon="3.277829987928271">
        <ele>27.050000000000001</ele>
        <time>2025-05-15T14:15:30Z</time>
      </trkpt>
      <trkpt lat="42.293343991041183" lon="3.277746001258493">
        <ele>27.050000000000001</ele>
        <time>2025-05-15T14:15:31Z</time>
      </trkpt>
      <trkpt lat="42.293297974392772" lon="3.277663020417094">
        <ele>27.050000000000001</ele>
        <time>2025-05-15T14:15:32Z</time>
      </trkpt>
      <trkpt lat="42.293247012421489" lon="3.277605017647147">
        <ele>27.530000000000001</ele>
        <time>2025-05-15T14:15:33Z</time>
      </trkpt>
      <trkpt lat="42.293186997994781" lon="3.277549026533961">
        <ele>27.530000000000001</ele>
        <time>2025-05-15T14:15:34Z</time>
      </trkpt>
      <trkpt lat="42.293116003274918" lon="3.277535028755665">
        <ele>28.02</ele>
        <time>2025-05-15T14:15:35Z</time>
      </trkpt>
      <trkpt lat="42.293040985241532" lon="3.277520025148988">
        <ele>28.02</ele>
        <time>2025-05-15T14:15:36Z</time>
      </trkpt>
      <trkpt lat="42.292719036340714" lon="3.277445007115603">
        <ele>28.02</ele>
        <time>2025-05-15T14:15:40Z</time>
      </trkpt>
      <trkpt lat="42.292639994993806" lon="3.277413994073868">
        <ele>28.02</ele>
        <time>2025-05-15T14:15:41Z</time>
      </trkpt>
      <trkpt lat="42.292491970583797" lon="3.277321960777044">
        <ele>27.530000000000001</ele>
        <time>2025-05-15T14:15:43Z</time>
      </trkpt>
      <trkpt lat="42.292430028319359" lon="3.277265969663858">
        <ele>27.530000000000001</ele>
        <time>2025-05-15T14:15:44Z</time>
      </trkpt>
      <trkpt lat="42.292365990579128" lon="3.277207966893911">
        <ele>27.050000000000001</ele>
        <time>2025-05-15T14:15:45Z</time>
      </trkpt>
      <trkpt lat="42.292315028607845" lon="3.277105037122965">
        <ele>26.57</ele>
        <time>2025-05-15T14:15:46Z</time>
      </trkpt>
      <trkpt lat="42.292282003909349" lon="3.277006968855858">
        <ele>26.57</ele>
        <time>2025-05-15T14:15:47Z</time>
      </trkpt>
      <trkpt lat="42.292253002524376" lon="3.276899009943008">
        <ele>26.09</ele>
        <time>2025-05-15T14:15:48Z</time>
      </trkpt>
      <trkpt lat="42.292237998917699" lon="3.276788033545017">
        <ele>25.609999999999999</ele>
        <time>2025-05-15T14:15:49Z</time>
      </trkpt>
      <trkpt lat="42.292191982269287" lon="3.2761309761554">
        <ele>26.09</ele>
        <time>2025-05-15T14:15:55Z</time>
      </trkpt>
      <trkpt lat="42.292203968390822" lon="3.276027040556073">
        <ele>26.57</ele>
        <time>2025-05-15T14:15:56Z</time>
      </trkpt>
      <trkpt lat="42.292230036109686" lon="3.275920003652573">
        <ele>26.57</ele>
        <time>2025-05-15T14:15:57Z</time>
      </trkpt>
      <trkpt lat="42.292293990030885" lon="3.275824030861259">
        <ele>27.050000000000001</ele>
        <time>2025-05-15T14:15:58Z</time>
      </trkpt>
      <trkpt lat="42.292358027771115" lon="3.275741972029209">
        <ele>27.530000000000001</ele>
        <time>2025-05-15T14:15:59Z</time>
      </trkpt>
      <trkpt lat="42.292428016662598" lon="3.275664020329714">
        <ele>28.5</ele>
        <time>2025-05-15T14:16:00Z</time>
      </trkpt>
      <trkpt lat="42.292500017210841" lon="3.27559201978147">
        <ele>28.5</ele>
        <time>2025-05-15T14:16:01Z</time>
      </trkpt>
      <trkpt lat="42.292578974738717" lon="3.275513984262943">
        <ele>28.98</ele>
        <time>2025-05-15T14:16:02Z</time>
      </trkpt>
      <trkpt lat="42.292858008295298" lon="3.27537702396512">
        <ele>30.899999999999999</ele>
        <time>2025-05-15T14:16:05Z</time>
      </trkpt>
      <trkpt lat="42.293046014383435" lon="3.275309968739748">
        <ele>31.859999999999999</ele>
        <time>2025-05-15T14:16:07Z</time>
      </trkpt>
      <trkpt lat="42.293137041851878" lon="3.275278033688664">
        <ele>32.340000000000003</ele>
        <time>2025-05-15T14:16:08Z</time>
      </trkpt>
      <trkpt lat="42.293200995773077" lon="3.275212990120053">
        <ele>32.82</ele>
        <time>2025-05-15T14:16:09Z</time>
      </trkpt>
      <trkpt lat="42.293286994099617" lon="3.275122968479991">
        <ele>33.299999999999997</ele>
        <time>2025-05-15T14:16:10Z</time>
      </trkpt>
      <trkpt lat="42.293303003534675" lon="3.27499003149569">
        <ele>33.780000000000001</ele>
        <time>2025-05-15T14:16:11Z</time>
      </trkpt>
      <trkpt lat="42.293322030454874" lon="3.274837983772159">
        <ele>33.780000000000001</ele>
        <time>2025-05-15T14:16:12Z</time>
      </trkpt>
      <trkpt lat="42.293340973556042" lon="3.274673027917743">
        <ele>33.780000000000001</ele>
        <time>2025-05-15T14:16:13Z</time>
      </trkpt>
      <trkpt lat="42.293351031839848" lon="3.274343032389879">
        <ele>33.299999999999997</ele>
        <time>2025-05-15T14:16:15Z</time>
      </trkpt>
      <trkpt lat="42.293351031839848" lon="3.274198025465012">
        <ele>32.82</ele>
        <time>2025-05-15T14:16:16Z</time>
      </trkpt>
      <trkpt lat="42.293278025463223" lon="3.274075984954834">
        <ele>32.82</ele>
        <time>2025-05-15T14:16:17Z</time>
      </trkpt>
      <trkpt lat="42.293222034350038" lon="3.274012031033635">
        <ele>32.340000000000003</ele>
        <time>2025-05-15T14:16:18Z</time>
      </trkpt>
      <trkpt lat="42.293121032416821" lon="3.274012031033635">
        <ele>32.340000000000003</ele>
        <time>2025-05-15T14:16:19Z</time>
      </trkpt>
      <trkpt lat="42.293063029646873" lon="3.274048995226622">
        <ele>31.859999999999999</ele>
        <time>2025-05-15T14:16:20Z</time>
      </trkpt>
      <trkpt lat="42.292988011613488" lon="3.274139016866684">
        <ele>31.379999999999999</ele>
        <time>2025-05-15T14:16:21Z</time>
      </trkpt>
      <trkpt lat="42.292901007458568" lon="3.274243036285043">
        <ele>30.899999999999999</ele>
        <time>2025-05-15T14:16:22Z</time>
      </trkpt>
      <trkpt lat="42.292805034667253" lon="3.274358035996556">
        <ele>30.420000000000002</ele>
        <time>2025-05-15T14:16:23Z</time>
      </trkpt>
      <trkpt lat="42.29269003495574" lon="3.274439005181193">
        <ele>29.940000000000001</ele>
        <time>2025-05-15T14:16:24Z</time>
      </trkpt>
      <trkpt lat="42.292579980567098" lon="3.274493990465999">
        <ele>29.940000000000001</ele>
        <time>2025-05-15T14:16:25Z</time>
      </trkpt>
      <trkpt lat="42.292472021654248" lon="3.274527015164495">
        <ele>28.98</ele>
        <time>2025-05-15T14:16:26Z</time>
      </trkpt>
      <trkpt lat="42.292292984202504" lon="3.27453900128603">
        <ele>28.02</ele>
        <time>2025-05-15T14:16:28Z</time>
      </trkpt>
      <trkpt lat="42.292056027799845" lon="3.274521986022592">
        <ele>26.09</ele>
        <time>2025-05-15T14:16:32Z</time>
      </trkpt>
      <trkpt lat="42.291995007544756" lon="3.274506982415915">
        <ele>25.129999999999999</ele>
        <time>2025-05-15T14:16:33Z</time>
      </trkpt>
      <trkpt lat="42.291933987289667" lon="3.274492984637618">
        <ele>24.649999999999999</ele>
        <time>2025-05-15T14:16:34Z</time>
      </trkpt>
      <trkpt lat="42.291891993954778" lon="3.274484016001225">
        <ele>24.649999999999999</ele>
        <time>2025-05-15T14:16:35Z</time>
      </trkpt>
      <trkpt lat="42.291822005063295" lon="3.274420984089375">
        <ele>24.170000000000002</ele>
        <time>2025-05-15T14:16:36Z</time>
      </trkpt>
      <trkpt lat="42.291755033656955" lon="3.274360969662666">
        <ele>24.170000000000002</ele>
        <time>2025-05-15T14:16:37Z</time>
      </trkpt>
      <trkpt lat="42.291675992310047" lon="3.274288969114423">
        <ele>23.690000000000001</ele>
        <time>2025-05-15T14:16:38Z</time>
      </trkpt>
      <trkpt lat="42.291596028953791" lon="3.274216968566179">
        <ele>23.210000000000001</ele>
        <time>2025-05-15T14:16:39Z</time>
      </trkpt>
      <trkpt lat="42.291520005092025" lon="3.274148991331458">
        <ele>22.73</ele>
        <time>2025-05-15T14:16:40Z</time>
      </trkpt>
      <trkpt lat="42.291453033685684" lon="3.274093000218272">
        <ele>22.25</ele>
        <time>2025-05-15T14:16:41Z</time>
      </trkpt>
      <trkpt lat="42.291331999003887" lon="3.274038014933467">
        <ele>21.289999999999999</ele>
        <time>2025-05-15T14:16:43Z</time>
      </trkpt>
      <trkpt lat="42.291282964870334" lon="3.274015970528126">
        <ele>20.809999999999999</ele>
        <time>2025-05-15T14:16:44Z</time>
      </trkpt>
      <trkpt lat="42.291226973757148" lon="3.273989986628294">
        <ele>19.84</ele>
        <time>2025-05-15T14:16:45Z</time>
      </trkpt>
      <trkpt lat="42.29086403734982" lon="3.273840034380555">
        <ele>16.48</ele>
        <time>2025-05-15T14:16:51Z</time>
      </trkpt>
      <trkpt lat="42.290791030973196" lon="3.273840034380555">
        <ele>16</ele>
        <time>2025-05-15T14:16:52Z</time>
      </trkpt>
      <trkpt lat="42.290720036253333" lon="3.273840034380555">
        <ele>15.52</ele>
        <time>2025-05-15T14:16:53Z</time>
      </trkpt>
      <trkpt lat="42.290652981027961" lon="3.273854032158852">
        <ele>14.56</ele>
        <time>2025-05-15T14:16:54Z</time>
      </trkpt>
      <trkpt lat="42.290583997964859" lon="3.273880016058683">
        <ele>14.08</ele>
        <time>2025-05-15T14:16:55Z</time>
      </trkpt>
      <trkpt lat="42.290463969111443" lon="3.273903988301754">
        <ele>12.630000000000001</ele>
        <time>2025-05-15T14:16:57Z</time>
      </trkpt>
      <trkpt lat="42.290412001311779" lon="3.273903988301754">
        <ele>12.15</ele>
        <time>2025-05-15T14:16:58Z</time>
      </trkpt>
      <trkpt lat="42.290299013257027" lon="3.273871969431639">
        <ele>11.19</ele>
        <time>2025-05-15T14:16:59Z</time>
      </trkpt>
      <trkpt lat="42.290288032963872" lon="3.273807009682059">
        <ele>10.710000000000001</ele>
        <time>2025-05-15T14:17:00Z</time>
      </trkpt>
      <trkpt lat="42.29032700881362" lon="3.273697039112449">
        <ele>9.75</ele>
        <time>2025-05-15T14:17:01Z</time>
      </trkpt>
      <trkpt lat="42.290361039340496" lon="3.27363601885736">
        <ele>9.27</ele>
        <time>2025-05-15T14:17:02Z</time>
      </trkpt>
      <trkpt lat="42.290398003533483" lon="3.273571981117129">
        <ele>8.789999999999999</ele>
        <time>2025-05-15T14:17:03Z</time>
      </trkpt>
      <trkpt lat="42.290807040408254" lon="3.272863039746881">
        <ele>11.67</ele>
        <time>2025-05-15T14:17:10Z</time>
      </trkpt>
      <trkpt lat="42.290850039571524" lon="3.272728007286787">
        <ele>12.15</ele>
        <time>2025-05-15T14:17:11Z</time>
      </trkpt>
      <trkpt lat="42.290856996551156" lon="3.272595992311835">
        <ele>13.119999999999999</ele>
        <time>2025-05-15T14:17:12Z</time>
      </trkpt>
      <trkpt lat="42.290829000994563" lon="3.272470012307167">
        <ele>13.6</ele>
        <time>2025-05-15T14:17:13Z</time>
      </trkpt>
      <trkpt lat="42.290755994617939" lon="3.272382002323866">
        <ele>14.56</ele>
        <time>2025-05-15T14:17:14Z</time>
      </trkpt>
      <trkpt lat="42.290667984634638" lon="3.272337997332215">
        <ele>15.039999999999999</ele>
        <time>2025-05-15T14:17:15Z</time>
      </trkpt>
      <trkpt lat="42.290562959387898" lon="3.272337997332215">
        <ele>15.52</ele>
        <time>2025-05-15T14:17:16Z</time>
      </trkpt>
      <trkpt lat="42.290446031838655" lon="3.272337997332215">
        <ele>16</ele>
        <time>2025-05-15T14:17:17Z</time>
      </trkpt>
      <trkpt lat="42.2903470415622" lon="3.272337997332215">
        <ele>16.960000000000001</ele>
        <time>2025-05-15T14:17:18Z</time>
      </trkpt>
      <trkpt lat="42.290209997445345" lon="3.272275971248746">
        <ele>17.440000000000001</ele>
        <time>2025-05-15T14:17:19Z</time>
      </trkpt>
      <trkpt lat="42.290087034925818" lon="3.272211011499167">
        <ele>18.399999999999999</ele>
        <time>2025-05-15T14:17:20Z</time>
      </trkpt>
      <trkpt lat="42.289286982268095" lon="3.27153199352324">
        <ele>26.57</ele>
        <time>2025-05-15T14:17:27Z</time>
      </trkpt>
      <trkpt lat="42.289220010861754" lon="3.27142302878201">
        <ele>27.530000000000001</ele>
        <time>2025-05-15T14:17:28Z</time>
      </trkpt>
      <trkpt lat="42.28916896507144" lon="3.271302999928594">
        <ele>28.02</ele>
        <time>2025-05-15T14:17:29Z</time>
      </trkpt>
      <trkpt lat="42.289112973958254" lon="3.2711679674685">
        <ele>28.5</ele>
        <time>2025-05-15T14:17:30Z</time>
      </trkpt>
      <trkpt lat="42.289065029472113" lon="3.271013991907239">
        <ele>29.460000000000001</ele>
        <time>2025-05-15T14:17:31Z</time>
      </trkpt>
      <trkpt lat="42.288967967033386" lon="3.270546030253172">
        <ele>31.379999999999999</ele>
        <time>2025-05-15T14:17:34Z</time>
      </trkpt>
      <trkpt lat="42.288937959820032" lon="3.270397000014782">
        <ele>31.859999999999999</ele>
        <time>2025-05-15T14:17:35Z</time>
      </trkpt>
      <trkpt lat="42.288952963426709" lon="3.270222991704941">
        <ele>32.340000000000003</ele>
        <time>2025-05-15T14:17:36Z</time>
      </trkpt>
      <trkpt lat="42.288983976468444" lon="3.270061975345016">
        <ele>32.82</ele>
        <time>2025-05-15T14:17:37Z</time>
      </trkpt>
      <trkpt lat="42.2890380397439" lon="3.269935995340347">
        <ele>33.780000000000001</ele>
        <time>2025-05-15T14:17:38Z</time>
      </trkpt>
      <trkpt lat="42.289135018363595" lon="3.269881010055542">
        <ele>35.229999999999997</ele>
        <time>2025-05-15T14:17:39Z</time>
      </trkpt>
      <trkpt lat="42.289230991154909" lon="3.269827030599117">
        <ele>36.189999999999998</ele>
        <time>2025-05-15T14:17:40Z</time>
      </trkpt>
      <trkpt lat="42.289329981431365" lon="3.269832981750369">
        <ele>37.149999999999999</ele>
        <time>2025-05-15T14:17:41Z</time>
      </trkpt>
      <trkpt lat="42.289439029991627" lon="3.269840022549033">
        <ele>38.109999999999999</ele>
        <time>2025-05-15T14:17:42Z</time>
      </trkpt>
      <trkpt lat="42.290400015190244" lon="3.26994395814836">
        <ele>44.840000000000003</ele>
        <time>2025-05-15T14:17:50Z</time>
      </trkpt>
      <trkpt lat="42.29052297770977" lon="3.269980000331998">
        <ele>45.799999999999997</ele>
        <time>2025-05-15T14:17:51Z</time>
      </trkpt>
      <trkpt lat="42.290633032098413" lon="3.270034985616803">
        <ele>46.759999999999998</ele>
        <time>2025-05-15T14:17:52Z</time>
      </trkpt>
      <trkpt lat="42.290974007919431" lon="3.270225003361702">
        <ele>49.649999999999999</ele>
        <time>2025-05-15T14:17:55Z</time>
      </trkpt>
      <trkpt lat="42.29108196683228" lon="3.270252998918295">
        <ele>50.609999999999999</ele>
        <time>2025-05-15T14:17:56Z</time>
      </trkpt>
      <trkpt lat="42.291205013170838" lon="3.270277976989746">
        <ele>51.090000000000003</ele>
        <time>2025-05-15T14:17:57Z</time>
      </trkpt>
      <trkpt lat="42.291320012882352" lon="3.270257022231817">
        <ele>52.530000000000001</ele>
        <time>2025-05-15T14:17:58Z</time>
      </trkpt>
      <trkpt lat="42.29144498705864" lon="3.270234977826476">
        <ele>53.490000000000002</ele>
        <time>2025-05-15T14:17:59Z</time>
      </trkpt>
      <trkpt lat="42.292034989222884" lon="3.270142022520304">
        <ele>57.82</ele>
        <time>2025-05-15T14:18:04Z</time>
      </trkpt>
      <trkpt lat="42.292144959792495" lon="3.27011302113533">
        <ele>58.780000000000001</ele>
        <time>2025-05-15T14:18:05Z</time>
      </trkpt>
      <trkpt lat="42.292245039716363" lon="3.270029034465551">
        <ele>59.740000000000002</ele>
        <time>2025-05-15T14:18:06Z</time>
      </trkpt>
      <trkpt lat="42.29234604164958" lon="3.269943036139011">
        <ele>60.700000000000003</ele>
        <time>2025-05-15T14:18:07Z</time>
      </trkpt>
      <trkpt lat="42.292444026097655" lon="3.269875980913639">
        <ele>61.659999999999997</ele>
        <time>2025-05-15T14:18:08Z</time>
      </trkpt>
      <trkpt lat="42.292536981403828" lon="3.26983499340713">
        <ele>62.140000000000001</ele>
        <time>2025-05-15T14:18:09Z</time>
      </trkpt>
      <trkpt lat="42.292619962245226" lon="3.269799035042524">
        <ele>63.100000000000001</ele>
        <time>2025-05-15T14:18:10Z</time>
      </trkpt>
      <trkpt lat="42.292701015248895" lon="3.269762992858887">
        <ele>64.069999999999993</ele>
        <time>2025-05-15T14:18:11Z</time>
      </trkpt>
      <trkpt lat="42.292777039110661" lon="3.269711025059223">
        <ele>64.549999999999997</ele>
        <time>2025-05-15T14:18:12Z</time>
      </trkpt>
      <trkpt lat="42.292843004688621" lon="3.269633995369077">
        <ele>65.510000000000005</ele>
        <time>2025-05-15T14:18:13Z</time>
      </trkpt>
      <trkpt lat="42.292878963053226" lon="3.269526958465576">
        <ele>65.989999999999995</ele>
        <time>2025-05-15T14:18:14Z</time>
      </trkpt>
      <trkpt lat="42.292868988588452" lon="3.26940399594605">
        <ele>65.989999999999995</ele>
        <time>2025-05-15T14:18:15Z</time>
      </trkpt>
      <trkpt lat="42.292833030223846" lon="3.269281033426523">
        <ele>66.469999999999999</ele>
        <time>2025-05-15T14:18:16Z</time>
      </trkpt>
      <trkpt lat="42.292795982211828" lon="3.269150024279952">
        <ele>67.430000000000007</ele>
        <time>2025-05-15T14:18:17Z</time>
      </trkpt>
      <trkpt lat="42.292720964178443" lon="3.268887000158429">
        <ele>68.390000000000001</ele>
        <time>2025-05-15T14:18:19Z</time>
      </trkpt>
      <trkpt lat="42.292682994157076" lon="3.268755991011858">
        <ele>68.870000000000005</ele>
        <time>2025-05-15T14:18:20Z</time>
      </trkpt>
      <trkpt lat="42.292663967236876" lon="3.268611989915371">
        <ele>69.829999999999998</ele>
        <time>2025-05-15T14:18:21Z</time>
      </trkpt>
      <trkpt lat="42.29264996945858" lon="3.267571963369846">
        <ele>73.680000000000007</ele>
        <time>2025-05-15T14:18:26Z</time>
      </trkpt>
      <trkpt lat="42.292643012478948" lon="3.267081035301089">
        <ele>77.040000000000006</ele>
        <time>2025-05-15T14:18:29Z</time>
      </trkpt>
      <trkpt lat="42.292587021365762" lon="3.266898980364204">
        <ele>77.519999999999996</ele>
        <time>2025-05-15T14:18:30Z</time>
      </trkpt>
      <trkpt lat="42.292537987232208" lon="3.266737964004278">
        <ele>78.480000000000004</ele>
        <time>2025-05-15T14:18:31Z</time>
      </trkpt>
      <trkpt lat="42.292394991964102" lon="3.266276037320495">
        <ele>80.890000000000001</ele>
        <time>2025-05-15T14:18:34Z</time>
      </trkpt>
      <trkpt lat="42.292400021106005" lon="3.266131030395627">
        <ele>81.849999999999994</ele>
        <time>2025-05-15T14:18:35Z</time>
      </trkpt>
      <trkpt lat="42.292417036369443" lon="3.265992980450392">
        <ele>82.329999999999998</ele>
        <time>2025-05-15T14:18:36Z</time>
      </trkpt>
      <trkpt lat="42.292443020269275" lon="3.265853002667427">
        <ele>83.290000000000006</ele>
        <time>2025-05-15T14:18:37Z</time>
      </trkpt>
      <trkpt lat="42.292486019432545" lon="3.265705984085798">
        <ele>84.25</ele>
        <time>2025-05-15T14:18:38Z</time>
      </trkpt>
      <trkpt lat="42.292590038850904" lon="3.26545000076294">
        <ele>86.180000000000007</ele>
        <time>2025-05-15T14:18:40Z</time>
      </trkpt>
      <trkpt lat="42.292659021914005" lon="3.265340030193329">
        <ele>87.140000000000001</ele>
        <time>2025-05-15T14:18:41Z</time>
      </trkpt>
      <trkpt lat="42.29273303411901" lon="3.265223018825054">
        <ele>88.099999999999994</ele>
        <time>2025-05-15T14:18:42Z</time>
      </trkpt>
      <trkpt lat="42.292892960831523" lon="3.264968041330576">
        <ele>89.540000000000006</ele>
        <time>2025-05-15T14:18:44Z</time>
      </trkpt>
      <trkpt lat="42.292953981086612" lon="3.26480601914227">
        <ele>90.5</ele>
        <time>2025-05-15T14:18:45Z</time>
      </trkpt>
      <trkpt lat="42.293028999119997" lon="3.264519022777677">
        <ele>91.939999999999998</ele>
        <time>2025-05-15T14:18:47Z</time>
      </trkpt>
      <trkpt lat="42.293028999119997" lon="3.264392958953977">
        <ele>92.900000000000006</ele>
        <time>2025-05-15T14:18:48Z</time>
      </trkpt>
      <trkpt lat="42.292998991906643" lon="3.26426899060607">
        <ele>93.870000000000005</ele>
        <time>2025-05-15T14:18:49Z</time>
      </trkpt>
      <trkpt lat="42.292854990810156" lon="3.263850985094905">
        <ele>95.790000000000006</ele>
        <time>2025-05-15T14:18:52Z</time>
      </trkpt>
      <trkpt lat="42.292839987203479" lon="3.263693992048502">
        <ele>96.269999999999996</ele>
        <time>2025-05-15T14:18:53Z</time>
      </trkpt>
      <trkpt lat="42.292846022173762" lon="3.263536999002099">
        <ele>96.75</ele>
        <time>2025-05-15T14:18:54Z</time>
      </trkpt>
      <trkpt lat="42.292850967496634" lon="3.263384029269218">
        <ele>97.230000000000004</ele>
        <time>2025-05-15T14:18:55Z</time>
      </trkpt>
      <trkpt lat="42.292857002466917" lon="3.263239022344351">
        <ele>97.709999999999994</ele>
        <time>2025-05-15T14:18:56Z</time>
      </trkpt>
      <trkpt lat="42.292890027165413" lon="3.263110024854541">
        <ele>98.189999999999998</ele>
        <time>2025-05-15T14:18:57Z</time>
      </trkpt>
      <trkpt lat="42.292921962216496" lon="3.263003993779421">
        <ele>98.670000000000002</ele>
        <time>2025-05-15T14:18:58Z</time>
      </trkpt>
      <trkpt lat="42.293007038533688" lon="3.262899974361062">
        <ele>99.150000000000006</ele>
        <time>2025-05-15T14:18:59Z</time>
      </trkpt>
      <trkpt lat="42.293090019375086" lon="3.262798972427845">
        <ele>99.629999999999995</ele>
        <time>2025-05-15T14:19:00Z</time>
      </trkpt>
      <trkpt lat="42.293196972459555" lon="3.262720014899969">
        <ele>100.11</ele>
        <time>2025-05-15T14:19:01Z</time>
      </trkpt>
      <trkpt lat="42.293337034061551" lon="3.262639967724681">
        <ele>100.59999999999999</ele>
        <time>2025-05-15T14:19:02Z</time>
      </trkpt>
      <trkpt lat="42.293505007401109" lon="3.262542989104986">
        <ele>101.56</ele>
        <time>2025-05-15T14:19:03Z</time>
      </trkpt>
      <trkpt lat="42.293686978518963" lon="3.262437963858247">
        <ele>102.52</ele>
        <time>2025-05-15T14:19:04Z</time>
      </trkpt>
      <trkpt lat="42.294000964611769" lon="3.262255992740393">
        <ele>104.44</ele>
        <time>2025-05-15T14:19:06Z</time>
      </trkpt>
      <trkpt lat="42.294101966544986" lon="3.26216203160584">
        <ele>104.92</ele>
        <time>2025-05-15T14:19:07Z</time>
      </trkpt>
      <trkpt lat="42.294151000678539" lon="3.262051977217197">
        <ele>105.40000000000001</ele>
        <time>2025-05-15T14:19:08Z</time>
      </trkpt>
      <trkpt lat="42.294148989021778" lon="3.261957010254264">
        <ele>105.88</ele>
        <time>2025-05-15T14:19:09Z</time>
      </trkpt>
      <trkpt lat="42.294114036485553" lon="3.261843016371131">
        <ele>106.36</ele>
        <time>2025-05-15T14:19:10Z</time>
      </trkpt>
      <trkpt lat="42.294051004573703" lon="3.261752994731069">
        <ele>106.84</ele>
        <time>2025-05-15T14:19:11Z</time>
      </trkpt>
      <trkpt lat="42.293943967670202" lon="3.26164897531271">
        <ele>107.81</ele>
        <time>2025-05-15T14:19:12Z</time>
      </trkpt>
      <trkpt lat="42.293663006275892" lon="3.261377988383174">
        <ele>109.25</ele>
        <time>2025-05-15T14:19:14Z</time>
      </trkpt>
      <trkpt lat="42.293424960225821" lon="3.261125022545457">
        <ele>110.69</ele>
        <time>2025-05-15T14:19:16Z</time>
      </trkpt>
      <trkpt lat="42.293353965505958" lon="3.260988984256983">
        <ele>111.17</ele>
        <time>2025-05-15T14:19:17Z</time>
      </trkpt>
      <trkpt lat="42.293311972171068" lon="3.260849006474018">
        <ele>112.13</ele>
        <time>2025-05-15T14:19:18Z</time>
      </trkpt>
      <trkpt lat="42.293328987434506" lon="3.260703999549151">
        <ele>112.61</ele>
        <time>2025-05-15T14:19:19Z</time>
      </trkpt>
      <trkpt lat="42.293351031839848" lon="3.260557986795902">
        <ele>113.09</ele>
        <time>2025-05-15T14:19:20Z</time>
      </trkpt>
      <trkpt lat="42.293425966054201" lon="3.260366963222623">
        <ele>113.09</ele>
        <time>2025-05-15T14:19:21Z</time>
      </trkpt>
      <trkpt lat="42.293502995744348" lon="3.260172000154853">
        <ele>113.09</ele>
        <time>2025-05-15T14:19:22Z</time>
      </trkpt>
      <trkpt lat="42.293586982414126" lon="3.259957004338503">
        <ele>113.56999999999999</ele>
        <time>2025-05-15T14:19:23Z</time>
      </trkpt>
      <trkpt lat="42.293693013489246" lon="3.259819960221648">
        <ele>113.56999999999999</ele>
        <time>2025-05-15T14:19:24Z</time>
      </trkpt>
      <trkpt lat="42.293826034292579" lon="3.259694986045361">
        <ele>114.05</ele>
        <time>2025-05-15T14:19:25Z</time>
      </trkpt>
      <trkpt lat="42.293968023732305" lon="3.259606976062059">
        <ele>114.53</ele>
        <time>2025-05-15T14:19:26Z</time>
      </trkpt>
      <trkpt lat="42.294111019000411" lon="3.259580992162228">
        <ele>115.5</ele>
        <time>2025-05-15T14:19:27Z</time>
      </trkpt>
      <trkpt lat="42.29426197707653" lon="3.259588032960892">
        <ele>115.98</ele>
        <time>2025-05-15T14:19:28Z</time>
      </trkpt>
      <trkpt lat="42.294425005093217" lon="3.259618962183595">
        <ele>115.98</ele>
        <time>2025-05-15T14:19:29Z</time>
      </trkpt>
      <trkpt lat="42.294852985069156" lon="3.259699009358883">
        <ele>117.42</ele>
        <time>2025-05-15T14:19:32Z</time>
      </trkpt>
      <trkpt lat="42.294988017529249" lon="3.259653998538852">
        <ele>117.42</ele>
        <time>2025-05-15T14:19:33Z</time>
      </trkpt>
      <trkpt lat="42.295050965622067" lon="3.259618040174246">
        <ele>117.42</ele>
        <time>2025-05-15T14:19:34Z</time>
      </trkpt>
      <trkpt lat="42.295081978663802" lon="3.259503040462732">
        <ele>117.42</ele>
        <time>2025-05-15T14:19:35Z</time>
      </trkpt>
      <trkpt lat="42.295102011412382" lon="3.259372031316161">
        <ele>117.42</ele>
        <time>2025-05-15T14:19:36Z</time>
      </trkpt>
      <trkpt lat="42.295053983107209" lon="3.259223001077771">
        <ele>117.42</ele>
        <time>2025-05-15T14:19:37Z</time>
      </trkpt>
      <trkpt lat="42.295000003650784" lon="3.259057039394975">
        <ele>117.90000000000001</ele>
        <time>2025-05-15T14:19:38Z</time>
      </trkpt>
      <trkpt lat="42.294939989224076" lon="3.258871966972947">
        <ele>118.38</ele>
        <time>2025-05-15T14:19:39Z</time>
      </trkpt>
      <trkpt lat="42.294877963140607" lon="3.258680021390319">
        <ele>118.86</ele>
        <time>2025-05-15T14:19:40Z</time>
      </trkpt>
      <trkpt lat="42.29484099894762" lon="3.258486986160278">
        <ele>119.34</ele>
        <time>2025-05-15T14:19:41Z</time>
      </trkpt>
      <trkpt lat="42.294838987290859" lon="3.258314989507198">
        <ele>119.81999999999999</ele>
        <time>2025-05-15T14:19:42Z</time>
      </trkpt>
      <trkpt lat="42.294852985069156" lon="3.258159002289176">
        <ele>120.78</ele>
        <time>2025-05-15T14:19:43Z</time>
      </trkpt>
      <trkpt lat="42.294928003102541" lon="3.258034028112888">
        <ele>121.26000000000001</ele>
        <time>2025-05-15T14:19:44Z</time>
      </trkpt>
      <trkpt lat="42.295014001429081" lon="3.257893966510892">
        <ele>122.22</ele>
        <time>2025-05-15T14:19:45Z</time>
      </trkpt>
      <trkpt lat="42.295561004430056" lon="3.257127022370696">
        <ele>126.06999999999999</ele>
        <time>2025-05-15T14:19:51Z</time>
      </trkpt>
      <trkpt lat="42.295969035476446" lon="3.256781017407775">
        <ele>128.94999999999999</ele>
        <time>2025-05-15T14:19:55Z</time>
      </trkpt>
      <trkpt lat="42.29602200910449" lon="3.256656965240836">
        <ele>128.94999999999999</ele>
        <time>2025-05-15T14:19:56Z</time>
      </trkpt>
      <trkpt lat="42.296032989397645" lon="3.25655797496438">
        <ele>129.43000000000001</ele>
        <time>2025-05-15T14:19:57Z</time>
      </trkpt>
      <trkpt lat="42.296031983569264" lon="3.256454961374402">
        <ele>129.43000000000001</ele>
        <time>2025-05-15T14:19:58Z</time>
      </trkpt>
      <trkpt lat="42.295993007719517" lon="3.256350019946694">
        <ele>129.91999999999999</ele>
        <time>2025-05-15T14:19:59Z</time>
      </trkpt>
      <trkpt lat="42.29593601077795" lon="3.256242983043194">
        <ele>130.40000000000001</ele>
        <time>2025-05-15T14:20:00Z</time>
      </trkpt>
      <trkpt lat="42.295859986916184" lon="3.256141981109977">
        <ele>130.88</ele>
        <time>2025-05-15T14:20:01Z</time>
      </trkpt>
      <trkpt lat="42.295714979991317" lon="3.255949029698968">
        <ele>132.31999999999999</ele>
        <time>2025-05-15T14:20:03Z</time>
      </trkpt>
      <trkpt lat="42.295653037726879" lon="3.255865965038538">
        <ele>132.80000000000001</ele>
        <time>2025-05-15T14:20:04Z</time>
      </trkpt>
      <trkpt lat="42.295586988329887" lon="3.255839981138706">
        <ele>133.75999999999999</ele>
        <time>2025-05-15T14:20:05Z</time>
      </trkpt>
      <trkpt lat="42.295509036630392" lon="3.255817014724016">
        <ele>134.24000000000001</ele>
        <time>2025-05-15T14:20:06Z</time>
      </trkpt>
      <trkpt lat="42.295415997505188" lon="3.255797987803817">
        <ele>134.72</ele>
        <time>2025-05-15T14:20:07Z</time>
      </trkpt>
      <trkpt lat="42.295298986136913" lon="3.255823971703649">
        <ele>135.68000000000001</ele>
        <time>2025-05-15T14:20:08Z</time>
      </trkpt>
      <trkpt lat="42.295178035274148" lon="3.255851967260242">
        <ele>135.68000000000001</ele>
        <time>2025-05-15T14:20:09Z</time>
      </trkpt>
      <trkpt lat="42.294765980914235" lon="3.255922961980104">
        <ele>138.09</ele>
        <time>2025-05-15T14:20:13Z</time>
      </trkpt>
      <trkpt lat="42.294674031436443" lon="3.25593302026391">
        <ele>138.56999999999999</ele>
        <time>2025-05-15T14:20:14Z</time>
      </trkpt>
      <trkpt lat="42.294287038967013" lon="3.255939977243543">
        <ele>140.00999999999999</ele>
        <time>2025-05-15T14:20:18Z</time>
      </trkpt>
      <trkpt lat="42.294198023155332" lon="3.255916005000472">
        <ele>140.97</ele>
        <time>2025-05-15T14:20:19Z</time>
      </trkpt>
      <trkpt lat="42.294125016778708" lon="3.255867976695299">
        <ele>141.93000000000001</ele>
        <time>2025-05-15T14:20:20Z</time>
      </trkpt>
      <trkpt lat="42.294084029272199" lon="3.255798993632197">
        <ele>142.88999999999999</ele>
        <time>2025-05-15T14:20:21Z</time>
      </trkpt>
      <trkpt lat="42.29404698126018" lon="3.255737973377109">
        <ele>143.37</ele>
        <time>2025-05-15T14:20:22Z</time>
      </trkpt>
      <trkpt lat="42.294014040380716" lon="3.255650969222188">
        <ele>144.34</ele>
        <time>2025-05-15T14:20:23Z</time>
      </trkpt>
      <trkpt lat="42.29400398209691" lon="3.255515014752746">
        <ele>145.30000000000001</ele>
        <time>2025-05-15T14:20:24Z</time>
      </trkpt>
      <trkpt lat="42.293989984318614" lon="3.25533396564424">
        <ele>146.25999999999999</ele>
        <time>2025-05-15T14:20:25Z</time>
      </trkpt>
      <trkpt lat="42.293976992368698" lon="3.255154006183147">
        <ele>147.22</ele>
        <time>2025-05-15T14:20:26Z</time>
      </trkpt>
      <trkpt lat="42.293932987377048" lon="3.255026014521718">
        <ele>148.18000000000001</ele>
        <time>2025-05-15T14:20:27Z</time>
      </trkpt>
      <trkpt lat="42.293879007920623" lon="3.254932975396514">
        <ele>149.13999999999999</ele>
        <time>2025-05-15T14:20:28Z</time>
      </trkpt>
      <trkpt lat="42.293804995715618" lon="3.254904979839921">
        <ele>150.09999999999999</ele>
        <time>2025-05-15T14:20:29Z</time>
      </trkpt>
      <trkpt lat="42.293715979903936" lon="3.254871033132076">
        <ele>150.58000000000001</ele>
        <time>2025-05-15T14:20:30Z</time>
      </trkpt>
      <trkpt lat="42.293626964092255" lon="3.254876984283328">
        <ele>151.06</ele>
        <time>2025-05-15T14:20:31Z</time>
      </trkpt>
      <trkpt lat="42.29352998547256" lon="3.254882013425231">
        <ele>151.53999999999999</ele>
        <time>2025-05-15T14:20:32Z</time>
      </trkpt>
      <trkpt lat="42.293353965505958" lon="3.254892993718386">
        <ele>151.53999999999999</ele>
        <time>2025-05-15T14:20:34Z</time>
      </trkpt>
      <trkpt lat="42.293269978836179" lon="3.254839014261961">
        <ele>152.03</ele>
        <time>2025-05-15T14:20:35Z</time>
      </trkpt>
      <trkpt lat="42.293188003823161" lon="3.254784028977156">
        <ele>152.99000000000001</ele>
        <time>2025-05-15T14:20:36Z</time>
      </trkpt>
      <trkpt lat="42.293137041851878" lon="3.254705993458629">
        <ele>153.47</ele>
        <time>2025-05-15T14:20:37Z</time>
      </trkpt>
      <trkpt lat="42.293103011325002" lon="3.254611026495695">
        <ele>153.94999999999999</ele>
        <time>2025-05-15T14:20:38Z</time>
      </trkpt>
      <trkpt lat="42.293050959706306" lon="3.254464007914066">
        <ele>154.43000000000001</ele>
        <time>2025-05-15T14:20:39Z</time>
      </trkpt>
      <trkpt lat="42.293048026040196" lon="3.254393013194203">
        <ele>154.91</ele>
        <time>2025-05-15T14:20:40Z</time>
      </trkpt>
      <trkpt lat="42.292999997735023" lon="3.253382993862033">
        <ele>157.78999999999999</ele>
        <time>2025-05-15T14:20:46Z</time>
      </trkpt>
      <trkpt lat="42.293005026876926" lon="3.252960965037346">
        <ele>159.24000000000001</ele>
        <time>2025-05-15T14:20:48Z</time>
      </trkpt>
      <trkpt lat="42.293035034090281" lon="3.252746975049377">
        <ele>159.72</ele>
        <time>2025-05-15T14:20:49Z</time>
      </trkpt>
      <trkpt lat="42.293089013546705" lon="3.252532985061407">
        <ele>160.19999999999999</ele>
        <time>2025-05-15T14:20:50Z</time>
      </trkpt>
      <trkpt lat="42.293457984924316" lon="3.251498993486166">
        <ele>164.03999999999999</ele>
        <time>2025-05-15T14:20:55Z</time>
      </trkpt>
      <trkpt lat="42.293457984924316" lon="3.2512900326401">
        <ele>165</ele>
        <time>2025-05-15T14:20:56Z</time>
      </trkpt>
      <trkpt lat="42.293445998802781" lon="3.251059027388692">
        <ele>165.96000000000001</ele>
        <time>2025-05-15T14:20:57Z</time>
      </trkpt>
      <trkpt lat="42.293389001861215" lon="3.250371040776372">
        <ele>168.84999999999999</ele>
        <time>2025-05-15T14:21:00Z</time>
      </trkpt>
      <trkpt lat="42.29342102073133" lon="3.250209018588066">
        <ele>169.33000000000001</ele>
        <time>2025-05-15T14:21:01Z</time>
      </trkpt>
      <trkpt lat="42.293471982702613" lon="3.250074991956353">
        <ele>170.28999999999999</ele>
        <time>2025-05-15T14:21:02Z</time>
      </trkpt>
      <trkpt lat="42.293564015999436" lon="3.249933002516627">
        <ele>171.25</ele>
        <time>2025-05-15T14:21:03Z</time>
      </trkpt>
      <trkpt lat="42.293669041246176" lon="3.249769974499941">
        <ele>172.21000000000001</ele>
        <time>2025-05-15T14:21:04Z</time>
      </trkpt>
      <trkpt lat="42.294143959879875" lon="3.249076958745718">
        <ele>175.09999999999999</ele>
        <time>2025-05-15T14:21:08Z</time>
      </trkpt>
      <trkpt lat="42.294263988733292" lon="3.249010993167758">
        <ele>176.06</ele>
        <time>2025-05-15T14:21:09Z</time>
      </trkpt>
      <trkpt lat="42.294375970959663" lon="3.248948967084289">
        <ele>176.53999999999999</ele>
        <time>2025-05-15T14:21:10Z</time>
      </trkpt>
      <trkpt lat="42.294482002034783" lon="3.248890964314342">
        <ele>177.5</ele>
        <time>2025-05-15T14:21:11Z</time>
      </trkpt>
      <trkpt lat="42.294546039775014" lon="3.248818041756749">
        <ele>178.46000000000001</ele>
        <time>2025-05-15T14:21:12Z</time>
      </trkpt>
      <trkpt lat="42.294595995917916" lon="3.24867001734674">
        <ele>178.94</ele>
        <time>2025-05-15T14:21:13Z</time>
      </trkpt>
      <trkpt lat="42.294580992311239" lon="3.248557029291987">
        <ele>180.38</ele>
        <time>2025-05-15T14:21:14Z</time>
      </trkpt>
      <trkpt lat="42.29455903172493" lon="3.248390983790159">
        <ele>181.34999999999999</ele>
        <time>2025-05-15T14:21:15Z</time>
      </trkpt>
      <trkpt lat="42.294575963169336" lon="3.248233990743756">
        <ele>182.78999999999999</ele>
        <time>2025-05-15T14:21:16Z</time>
      </trkpt>
      <trkpt lat="42.294613011181355" lon="3.248105999082327">
        <ele>183.75</ele>
        <time>2025-05-15T14:21:17Z</time>
      </trkpt>
      <trkpt lat="42.294703032821417" lon="3.24796199798584">
        <ele>184.71000000000001</ele>
        <time>2025-05-15T14:21:18Z</time>
      </trkpt>
      <trkpt lat="42.294786013662815" lon="3.247905001044273">
        <ele>185.66999999999999</ele>
        <time>2025-05-15T14:21:19Z</time>
      </trkpt>
      <trkpt lat="42.294909982010722" lon="3.247820008546114">
        <ele>186.63</ele>
        <time>2025-05-15T14:21:20Z</time>
      </trkpt>
      <trkpt lat="42.295029005035758" lon="3.247738033533096">
        <ele>187.59</ele>
        <time>2025-05-15T14:21:21Z</time>
      </trkpt>
      <trkpt lat="42.295096982270479" lon="3.247624039649963">
        <ele>188.56</ele>
        <time>2025-05-15T14:21:22Z</time>
      </trkpt>
      <trkpt lat="42.295132018625736" lon="3.247508034110069">
        <ele>189.03999999999999</ele>
        <time>2025-05-15T14:21:23Z</time>
      </trkpt>
      <trkpt lat="42.295132018625736" lon="3.247354980558157">
        <ele>190</ele>
        <time>2025-05-15T14:21:24Z</time>
      </trkpt>
      <trkpt lat="42.295132018625736" lon="3.24721097946167">
        <ele>190.47999999999999</ele>
        <time>2025-05-15T14:21:25Z</time>
      </trkpt>
      <trkpt lat="42.295153979212046" lon="3.247037976980209">
        <ele>191.44</ele>
        <time>2025-05-15T14:21:26Z</time>
      </trkpt>
      <trkpt lat="42.295175017789006" lon="3.246864974498749">
        <ele>191.91999999999999</ele>
        <time>2025-05-15T14:21:27Z</time>
      </trkpt>
      <trkpt lat="42.295197984203696" lon="3.246680991724134">
        <ele>192.88</ele>
        <time>2025-05-15T14:21:28Z</time>
      </trkpt>
      <trkpt lat="42.295211981981993" lon="3.246496003121138">
        <ele>193.36000000000001</ele>
        <time>2025-05-15T14:21:29Z</time>
      </trkpt>
      <trkpt lat="42.295173006132245" lon="3.246312020346522">
        <ele>194.31999999999999</ele>
        <time>2025-05-15T14:21:30Z</time>
      </trkpt>
      <trkpt lat="42.295136963948607" lon="3.246138012036681">
        <ele>194.80000000000001</ele>
        <time>2025-05-15T14:21:31Z</time>
      </trkpt>
      <trkpt lat="42.29507502168417" lon="3.245991999283433">
        <ele>195.77000000000001</ele>
        <time>2025-05-15T14:21:32Z</time>
      </trkpt>
      <trkpt lat="42.295006038621068" lon="3.245841963216662">
        <ele>196.72999999999999</ele>
        <time>2025-05-15T14:21:33Z</time>
      </trkpt>
      <trkpt lat="42.294938983395696" lon="3.245698967948556">
        <ele>197.21000000000001</ele>
        <time>2025-05-15T14:21:34Z</time>
      </trkpt>
      <trkpt lat="42.294879974797368" lon="3.245569970458746">
        <ele>197.69</ele>
        <time>2025-05-15T14:21:35Z</time>
      </trkpt>
      <trkpt lat="42.29488299228251" lon="3.245439967140555">
        <ele>198.65000000000001</ele>
        <time>2025-05-15T14:21:36Z</time>
      </trkpt>
      <trkpt lat="42.294891960918903" lon="3.245304012671113">
        <ele>199.61000000000001</ele>
        <time>2025-05-15T14:21:37Z</time>
      </trkpt>
      <trkpt lat="42.294933032244444" lon="3.245157999917865">
        <ele>200.56999999999999</ele>
        <time>2025-05-15T14:21:38Z</time>
      </trkpt>
      <trkpt lat="42.295006038621068" lon="3.245003018528223">
        <ele>201.53</ele>
        <time>2025-05-15T14:21:39Z</time>
      </trkpt>
      <trkpt lat="42.295084996148944" lon="3.244834961369634">
        <ele>202.97999999999999</ele>
        <time>2025-05-15T14:21:40Z</time>
      </trkpt>
      <trkpt lat="42.295361012220383" lon="3.244341015815735">
        <ele>206.34</ele>
        <time>2025-05-15T14:21:43Z</time>
      </trkpt>
      <trkpt lat="42.295465031638741" lon="3.244233978912234">
        <ele>207.30000000000001</ele>
        <time>2025-05-15T14:21:44Z</time>
      </trkpt>
      <trkpt lat="42.295586988329887" lon="3.244149992242456">
        <ele>208.25999999999999</ele>
        <time>2025-05-15T14:21:45Z</time>
      </trkpt>
      <trkpt lat="42.295710034668446" lon="3.244080003350973">
        <ele>209.22</ele>
        <time>2025-05-15T14:21:46Z</time>
      </trkpt>
      <trkpt lat="42.295840959995985" lon="3.244090983644128">
        <ele>209.69999999999999</ele>
        <time>2025-05-15T14:21:47Z</time>
      </trkpt>
      <trkpt lat="42.295969035476446" lon="3.244100958108902">
        <ele>210.66999999999999</ele>
        <time>2025-05-15T14:21:48Z</time>
      </trkpt>
      <trkpt lat="42.29608797468245" lon="3.244111016392708">
        <ele>211.15000000000001</ele>
        <time>2025-05-15T14:21:49Z</time>
      </trkpt>
      <trkpt lat="42.296186964958906" lon="3.244119985029101">
        <ele>211.63</ele>
        <time>2025-05-15T14:21:50Z</time>
      </trkpt>
      <trkpt lat="42.296251002699137" lon="3.244057036936283">
        <ele>212.11000000000001</ele>
        <time>2025-05-15T14:21:51Z</time>
      </trkpt>
      <trkpt lat="42.296304982155561" lon="3.243981013074517">
        <ele>212.11000000000001</ele>
        <time>2025-05-15T14:21:52Z</time>
      </trkpt>
      <trkpt lat="42.29629903100431" lon="3.243889985606074">
        <ele>212.59</ele>
        <time>2025-05-15T14:21:53Z</time>
      </trkpt>
      <trkpt lat="42.296277992427349" lon="3.243766017258167">
        <ele>212.59</ele>
        <time>2025-05-15T14:21:54Z</time>
      </trkpt>
      <trkpt lat="42.296228958293796" lon="3.243669038638473">
        <ele>213.06999999999999</ele>
        <time>2025-05-15T14:21:55Z</time>
      </trkpt>
      <trkpt lat="42.296133991330862" lon="3.243566025048494">
        <ele>213.06999999999999</ele>
        <time>2025-05-15T14:21:56Z</time>
      </trkpt>
      <trkpt lat="42.296026032418013" lon="3.243447002023459">
        <ele>213.55000000000001</ele>
        <time>2025-05-15T14:21:57Z</time>
      </trkpt>
      <trkpt lat="42.29591203853488" lon="3.243322027847171">
        <ele>214.03</ele>
        <time>2025-05-15T14:21:58Z</time>
      </trkpt>
      <trkpt lat="42.295754961669445" lon="3.243052968755364">
        <ele>214.99000000000001</ele>
        <time>2025-05-15T14:22:00Z</time>
      </trkpt>
      <trkpt lat="42.295712968334556" lon="3.242930006235838">
        <ele>214.99000000000001</ele>
        <time>2025-05-15T14:22:01Z</time>
      </trkpt>
      <trkpt lat="42.295738030225039" lon="3.242792040109634">
        <ele>215.94999999999999</ele>
        <time>2025-05-15T14:22:02Z</time>
      </trkpt>
      <trkpt lat="42.295766025781631" lon="3.24263202957809">
        <ele>216.43000000000001</ele>
        <time>2025-05-15T14:22:03Z</time>
      </trkpt>
      <trkpt lat="42.295815981924534" lon="3.242461960762739">
        <ele>216.91</ele>
        <time>2025-05-15T14:22:04Z</time>
      </trkpt>
      <trkpt lat="42.29625997133553" lon="3.241156982257962">
        <ele>221.72</ele>
        <time>2025-05-15T14:22:10Z</time>
      </trkpt>
      <trkpt lat="42.296398021280766" lon="3.240731013938785">
        <ele>224.12</ele>
        <time>2025-05-15T14:22:12Z</time>
      </trkpt>
      <trkpt lat="42.296421993523836" lon="3.240472013130784">
        <ele>225.09</ele>
        <time>2025-05-15T14:22:13Z</time>
      </trkpt>
      <trkpt lat="42.296462981030345" lon="3.240022994577885">
        <ele>227.49000000000001</ele>
        <time>2025-05-15T14:22:15Z</time>
      </trkpt>
      <trkpt lat="42.29651503264904" lon="3.239800035953522">
        <ele>228.93000000000001</ele>
        <time>2025-05-15T14:22:16Z</time>
      </trkpt>
      <trkpt lat="42.296614022925496" lon="3.239381024613977">
        <ele>230.84999999999999</ele>
        <time>2025-05-15T14:22:18Z</time>
      </trkpt>
      <trkpt lat="42.296633971855044" lon="3.239157982170582">
        <ele>231.81</ele>
        <time>2025-05-15T14:22:19Z</time>
      </trkpt>
      <trkpt lat="42.296627014875412" lon="3.238938041031361">
        <ele>232.78</ele>
        <time>2025-05-15T14:22:20Z</time>
      </trkpt>
      <trkpt lat="42.296599019318819" lon="3.23872497305274">
        <ele>233.74000000000001</ele>
        <time>2025-05-15T14:22:21Z</time>
      </trkpt>
      <trkpt lat="42.296545961871743" lon="3.23853000998497">
        <ele>234.22</ele>
        <time>2025-05-15T14:22:22Z</time>
      </trkpt>
      <trkpt lat="42.296486031264067" lon="3.238347033038735">
        <ele>235.18000000000001</ele>
        <time>2025-05-15T14:22:23Z</time>
      </trkpt>
      <trkpt lat="42.29642802849412" lon="3.23816497810185">
        <ele>236.13999999999999</ele>
        <time>2025-05-15T14:22:24Z</time>
      </trkpt>
      <trkpt lat="42.296305987983942" lon="3.237659968435764">
        <ele>238.06</ele>
        <time>2025-05-15T14:22:27Z</time>
      </trkpt>
      <trkpt lat="42.29630196467042" lon="3.237528959289193">
        <ele>239.02000000000001</ele>
        <time>2025-05-15T14:22:28Z</time>
      </trkpt>
      <trkpt lat="42.296334989368916" lon="3.237387975677848">
        <ele>239.50999999999999</ele>
        <time>2025-05-15T14:22:29Z</time>
      </trkpt>
      <trkpt lat="42.296593990176916" lon="3.236622959375382">
        <ele>242.38999999999999</ele>
        <time>2025-05-15T14:22:35Z</time>
      </trkpt>
      <trkpt lat="42.296631960198283" lon="3.236536961048842">
        <ele>242.87</ele>
        <time>2025-05-15T14:22:36Z</time>
      </trkpt>
      <trkpt lat="42.296718964353204" lon="3.236461021006107">
        <ele>242.87</ele>
        <time>2025-05-15T14:22:37Z</time>
      </trkpt>
      <trkpt lat="42.296798005700111" lon="3.236461021006107">
        <ele>242.87</ele>
        <time>2025-05-15T14:22:38Z</time>
      </trkpt>
      <trkpt lat="42.296878974884748" lon="3.23655498214066">
        <ele>242.87</ele>
        <time>2025-05-15T14:22:39Z</time>
      </trkpt>
      <trkpt lat="42.296970002353191" lon="3.236621031537652">
        <ele>242.38999999999999</ele>
        <time>2025-05-15T14:22:40Z</time>
      </trkpt>
      <trkpt lat="42.297061029821634" lon="3.236647015437484">
        <ele>242.38999999999999</ele>
        <time>2025-05-15T14:22:41Z</time>
      </trkpt>
      <trkpt lat="42.297145016491413" lon="3.236608961597085">
        <ele>241.91</ele>
        <time>2025-05-15T14:22:42Z</time>
      </trkpt>
      <trkpt lat="42.297222968190908" lon="3.236550036817789">
        <ele>241.43000000000001</ele>
        <time>2025-05-15T14:22:43Z</time>
      </trkpt>
      <trkpt lat="42.297278037294745" lon="3.236464960500598">
        <ele>240.94999999999999</ele>
        <time>2025-05-15T14:22:44Z</time>
      </trkpt>
      <trkpt lat="42.297317013144493" lon="3.236351972445846">
        <ele>240.47</ele>
        <time>2025-05-15T14:22:45Z</time>
      </trkpt>
      <trkpt lat="42.297355988994241" lon="3.236243007704616">
        <ele>239.50999999999999</ele>
        <time>2025-05-15T14:22:46Z</time>
      </trkpt>
      <trkpt lat="42.297399993985891" lon="3.236136976629496">
        <ele>239.02000000000001</ele>
        <time>2025-05-15T14:22:47Z</time>
      </trkpt>
      <trkpt lat="42.297475012019277" lon="3.236021976917982">
        <ele>238.06</ele>
        <time>2025-05-15T14:22:48Z</time>
      </trkpt>
      <trkpt lat="42.297560004517436" lon="3.23588996194303">
        <ele>237.58000000000001</ele>
        <time>2025-05-15T14:22:49Z</time>
      </trkpt>
      <trkpt lat="42.297940040007234" lon="3.235253021121025">
        <ele>234.69999999999999</ele>
        <time>2025-05-15T14:22:53Z</time>
      </trkpt>
      <trkpt lat="42.298022015020251" lon="3.235082030296326">
        <ele>234.22</ele>
        <time>2025-05-15T14:22:54Z</time>
      </trkpt>
      <trkpt lat="42.298118993639946" lon="3.234733007848263">
        <ele>232.78</ele>
        <time>2025-05-15T14:22:56Z</time>
      </trkpt>
      <trkpt lat="42.298136008903384" lon="3.234556987881661">
        <ele>231.33000000000001</ele>
        <time>2025-05-15T14:22:57Z</time>
      </trkpt>
      <trkpt lat="42.298178002238274" lon="3.233765987679362">
        <ele>228.44999999999999</ele>
        <time>2025-05-15T14:23:01Z</time>
      </trkpt>
      <trkpt lat="42.29823399335146" lon="3.233580999076366">
        <ele>227.49000000000001</ele>
        <time>2025-05-15T14:23:02Z</time>
      </trkpt>
      <trkpt lat="42.298285961151123" lon="3.233414031565189">
        <ele>226.53</ele>
        <time>2025-05-15T14:23:03Z</time>
      </trkpt>
      <trkpt lat="42.298390986397862" lon="3.233255026862025">
        <ele>225.56999999999999</ele>
        <time>2025-05-15T14:23:04Z</time>
      </trkpt>
      <trkpt lat="42.29849299415946" lon="3.233099961653352">
        <ele>225.09</ele>
        <time>2025-05-15T14:23:05Z</time>
      </trkpt>
      <trkpt lat="42.29859902523458" lon="3.232938023284078">
        <ele>224.12</ele>
        <time>2025-05-15T14:23:06Z</time>
      </trkpt>
      <trkpt lat="42.29870798997581" lon="3.23277197778225">
        <ele>223.16</ele>
        <time>2025-05-15T14:23:07Z</time>
      </trkpt>
      <trkpt lat="42.298816032707691" lon="3.232596963644028">
        <ele>222.19999999999999</ele>
        <time>2025-05-15T14:23:08Z</time>
      </trkpt>
      <trkpt lat="42.298917034640908" lon="3.232412980869412">
        <ele>221.72</ele>
        <time>2025-05-15T14:23:09Z</time>
      </trkpt>
      <trkpt lat="42.299014013260603" lon="3.232235033065081">
        <ele>220.75999999999999</ele>
        <time>2025-05-15T14:23:10Z</time>
      </trkpt>
      <trkpt lat="42.299297992140055" lon="3.231716025620699">
        <ele>218.36000000000001</ele>
        <time>2025-05-15T14:23:13Z</time>
      </trkpt>
      <trkpt lat="42.299605021253228" lon="3.2309889793396">
        <ele>215.94999999999999</ele>
        <time>2025-05-15T14:23:17Z</time>
      </trkpt>
      <trkpt lat="42.299807025119662" lon="3.230511965230107">
        <ele>212.59</ele>
        <time>2025-05-15T14:23:20Z</time>
      </trkpt>
      <trkpt lat="42.299907021224499" lon="3.230392020195723">
        <ele>211.15000000000001</ele>
        <time>2025-05-15T14:23:21Z</time>
      </trkpt>
      <trkpt lat="42.300010034814477" lon="3.230267968028784">
        <ele>209.69999999999999</ele>
        <time>2025-05-15T14:23:22Z</time>
      </trkpt>
      <trkpt lat="42.300121011212468" lon="3.230153974145651">
        <ele>208.25999999999999</ele>
        <time>2025-05-15T14:23:23Z</time>
      </trkpt>
      <trkpt lat="42.3002540320158" lon="3.230068981647492">
        <ele>206.81999999999999</ele>
        <time>2025-05-15T14:23:24Z</time>
      </trkpt>
      <trkpt lat="42.301646014675498" lon="3.229173040017486">
        <ele>195.28</ele>
        <time>2025-05-15T14:23:34Z</time>
      </trkpt>
      <trkpt lat="42.302048010751605" lon="3.228967012837529">
        <ele>191.44</ele>
        <time>2025-05-15T14:23:37Z</time>
      </trkpt>
      <trkpt lat="42.302192011848092" lon="3.228908004239202">
        <ele>189.52000000000001</ele>
        <time>2025-05-15T14:23:38Z</time>
      </trkpt>
      <trkpt lat="42.302310029044747" lon="3.22892895899713">
        <ele>188.08000000000001</ele>
        <time>2025-05-15T14:23:39Z</time>
      </trkpt>
      <trkpt lat="42.30244598351419" lon="3.22896902449429">
        <ele>186.63</ele>
        <time>2025-05-15T14:23:40Z</time>
      </trkpt>
      <trkpt lat="42.302538016811013" lon="3.229060973972082">
        <ele>184.71000000000001</ele>
        <time>2025-05-15T14:23:41Z</time>
      </trkpt>
      <trkpt lat="42.302623009309173" lon="3.229145966470242">
        <ele>183.27000000000001</ele>
        <time>2025-05-15T14:23:42Z</time>
      </trkpt>
      <trkpt lat="42.302692998200655" lon="3.229191983118653">
        <ele>182.31</ele>
        <time>2025-05-15T14:23:43Z</time>
      </trkpt>
      <trkpt lat="42.302781008183956" lon="3.229204975068569">
        <ele>181.34999999999999</ele>
        <time>2025-05-15T14:23:44Z</time>
      </trkpt>
      <trkpt lat="42.302899025380611" lon="3.229169016703963">
        <ele>180.87</ele>
        <time>2025-05-15T14:23:45Z</time>
      </trkpt>
      <trkpt lat="42.30317696928978" lon="3.229083018377423">
        <ele>178.46000000000001</ele>
        <time>2025-05-15T14:23:47Z</time>
      </trkpt>
      <trkpt lat="42.303329017013311" lon="3.229035995900631">
        <ele>177.5</ele>
        <time>2025-05-15T14:23:48Z</time>
      </trkpt>
      <trkpt lat="42.303416021168232" lon="3.22894899174571">
        <ele>176.53999999999999</ele>
        <time>2025-05-15T14:23:49Z</time>
      </trkpt>
      <trkpt lat="42.30351802892983" lon="3.228834997862577">
        <ele>175.58000000000001</ele>
        <time>2025-05-15T14:23:50Z</time>
      </trkpt>
      <trkpt lat="42.30360696092248" lon="3.228680016472936">
        <ele>175.09999999999999</ele>
        <time>2025-05-15T14:23:51Z</time>
      </trkpt>
      <trkpt lat="42.303702011704445" lon="3.228515982627869">
        <ele>174.13999999999999</ele>
        <time>2025-05-15T14:23:52Z</time>
      </trkpt>
      <trkpt lat="42.303879959508777" lon="3.228169977664948">
        <ele>172.69</ele>
        <time>2025-05-15T14:23:54Z</time>
      </trkpt>
      <trkpt lat="42.30412102304399" lon="3.227599002420902">
        <ele>170.28999999999999</ele>
        <time>2025-05-15T14:23:57Z</time>
      </trkpt>
      <trkpt lat="42.304477002471685" lon="3.226846978068352">
        <ele>166.44999999999999</ele>
        <time>2025-05-15T14:24:01Z</time>
      </trkpt>
      <trkpt lat="42.30457398109138" lon="3.226699959486723">
        <ele>165.47999999999999</ele>
        <time>2025-05-15T14:24:02Z</time>
      </trkpt>
      <trkpt lat="42.304696021601558" lon="3.226587977260351">
        <ele>164.52000000000001</ele>
        <time>2025-05-15T14:24:03Z</time>
      </trkpt>
      <trkpt lat="42.305233972147107" lon="3.226225040853024">
        <ele>160.19999999999999</ele>
        <time>2025-05-15T14:24:07Z</time>
      </trkpt>
      <trkpt lat="42.305350983515382" lon="3.226225040853024">
        <ele>159.24000000000001</ele>
        <time>2025-05-15T14:24:08Z</time>
      </trkpt>
      <trkpt lat="42.305469000712037" lon="3.226256975904107">
        <ele>158.27000000000001</ele>
        <time>2025-05-15T14:24:09Z</time>
      </trkpt>
      <trkpt lat="42.306161010637879" lon="3.226783024147153">
        <ele>154.43000000000001</ele>
        <time>2025-05-15T14:24:14Z</time>
      </trkpt>
      <trkpt lat="42.306238962337375" lon="3.226918978616595">
        <ele>153.47</ele>
        <time>2025-05-15T14:24:15Z</time>
      </trkpt>
      <trkpt lat="42.306508021429181" lon="3.227549968287349">
        <ele>151.06</ele>
        <time>2025-05-15T14:24:19Z</time>
      </trkpt>
      <trkpt lat="42.306554038077593" lon="3.227673014625907">
        <ele>150.58000000000001</ele>
        <time>2025-05-15T14:24:20Z</time>
      </trkpt>
      <trkpt lat="42.306591002270579" lon="3.227769993245602">
        <ele>150.58000000000001</ele>
        <time>2025-05-15T14:24:21Z</time>
      </trkpt>
      <trkpt lat="42.306667026132345" lon="3.227827996015549">
        <ele>150.58000000000001</ele>
        <time>2025-05-15T14:24:22Z</time>
      </trkpt>
      <trkpt lat="42.306750006973743" lon="3.227890022099018">
        <ele>150.58000000000001</ele>
        <time>2025-05-15T14:24:23Z</time>
      </trkpt>
      <trkpt lat="42.306841034442186" lon="3.227889016270638">
        <ele>150.58000000000001</ele>
        <time>2025-05-15T14:24:24Z</time>
      </trkpt>
      <trkpt lat="42.306928960606456" lon="3.227878035977483">
        <ele>151.06</ele>
        <time>2025-05-15T14:24:25Z</time>
      </trkpt>
      <trkpt lat="42.306984029710293" lon="3.227797988802195">
        <ele>151.06</ele>
        <time>2025-05-15T14:24:26Z</time>
      </trkpt>
      <trkpt lat="42.30704203248024" lon="3.227696986868978">
        <ele>151.06</ele>
        <time>2025-05-15T14:24:27Z</time>
      </trkpt>
      <trkpt lat="42.307051001116633" lon="3.227547034621239">
        <ele>151.06</ele>
        <time>2025-05-15T14:24:28Z</time>
      </trkpt>
      <trkpt lat="42.307060975581408" lon="3.227380989119411">
        <ele>151.06</ele>
        <time>2025-05-15T14:24:29Z</time>
      </trkpt>
      <trkpt lat="42.307029962539673" lon="3.227212009951472">
        <ele>151.06</ele>
        <time>2025-05-15T14:24:30Z</time>
      </trkpt>
      <trkpt lat="42.306987969204783" lon="3.227018974721432">
        <ele>151.06</ele>
        <time>2025-05-15T14:24:31Z</time>
      </trkpt>
      <trkpt lat="42.306943964213133" lon="3.226817976683378">
        <ele>151.06</ele>
        <time>2025-05-15T14:24:32Z</time>
      </trkpt>
      <trkpt lat="42.306324960663915" lon="3.225007988512516">
        <ele>148.66</ele>
        <time>2025-05-15T14:24:41Z</time>
      </trkpt>
      <trkpt lat="42.306010974571109" lon="3.224105006083846">
        <ele>145.30000000000001</ele>
        <time>2025-05-15T14:24:46Z</time>
      </trkpt>
      <trkpt lat="42.306010974571109" lon="3.223924962803721">
        <ele>144.34</ele>
        <time>2025-05-15T14:24:47Z</time>
      </trkpt>
      <trkpt lat="42.306013992056251" lon="3.223731005564332">
        <ele>143.84999999999999</ele>
        <time>2025-05-15T14:24:48Z</time>
      </trkpt>
      <trkpt lat="42.306096972897649" lon="3.223095992580056">
        <ele>140.97</ele>
        <time>2025-05-15T14:24:51Z</time>
      </trkpt>
      <trkpt lat="42.306203003972769" lon="3.222688967362046">
        <ele>140.00999999999999</ele>
        <time>2025-05-15T14:24:53Z</time>
      </trkpt>
      <trkpt lat="42.306298976764083" lon="3.222571033984423">
        <ele>139.05000000000001</ele>
        <time>2025-05-15T14:24:54Z</time>
      </trkpt>
      <trkpt lat="42.306390004232526" lon="3.222461985424161">
        <ele>138.56999999999999</ele>
        <time>2025-05-15T14:24:55Z</time>
      </trkpt>
      <trkpt lat="42.306484971195459" lon="3.222347991541028">
        <ele>137.61000000000001</ele>
        <time>2025-05-15T14:24:56Z</time>
      </trkpt>
      <trkpt lat="42.306567030027509" lon="3.222212959080935">
        <ele>136.63999999999999</ele>
        <time>2025-05-15T14:24:57Z</time>
      </trkpt>
      <trkpt lat="42.306639030575752" lon="3.222059989348054">
        <ele>135.68000000000001</ele>
        <time>2025-05-15T14:24:58Z</time>
      </trkpt>
      <trkpt lat="42.306715976446867" lon="3.221897967159748">
        <ele>134.72</ele>
        <time>2025-05-15T14:24:59Z</time>
      </trkpt>
      <trkpt lat="42.306795017793775" lon="3.22172999382019">
        <ele>133.75999999999999</ele>
        <time>2025-05-15T14:25:00Z</time>
      </trkpt>
      <trkpt lat="42.306955028325319" lon="3.221391029655933">
        <ele>131.36000000000001</ele>
        <time>2025-05-15T14:25:02Z</time>
      </trkpt>
      <trkpt lat="42.307411003857851" lon="3.220618972554803">
        <ele>126.06999999999999</ele>
        <time>2025-05-15T14:25:07Z</time>
      </trkpt>
      <trkpt lat="42.307497002184391" lon="3.220554012805224">
        <ele>125.59</ele>
        <time>2025-05-15T14:25:08Z</time>
      </trkpt>
      <trkpt lat="42.307599009945989" lon="3.220539009198546">
        <ele>124.63</ele>
        <time>2025-05-15T14:25:09Z</time>
      </trkpt>
      <trkpt lat="42.307702023535967" lon="3.220558036118746">
        <ele>124.15000000000001</ele>
        <time>2025-05-15T14:25:10Z</time>
      </trkpt>
      <trkpt lat="42.307824986055493" lon="3.220579996705055">
        <ele>123.67</ele>
        <time>2025-05-15T14:25:11Z</time>
      </trkpt>
      <trkpt lat="42.307962030172348" lon="3.220604974776506">
        <ele>123.19</ele>
        <time>2025-05-15T14:25:12Z</time>
      </trkpt>
      <trkpt lat="42.308070994913578" lon="3.220625007525086">
        <ele>122.22</ele>
        <time>2025-05-15T14:25:13Z</time>
      </trkpt>
      <trkpt lat="42.308199992403388" lon="3.220570022240281">
        <ele>121.73999999999999</ele>
        <time>2025-05-15T14:25:14Z</time>
      </trkpt>
      <trkpt lat="42.30824701488018" lon="3.220489975064993">
        <ele>121.26000000000001</ele>
        <time>2025-05-15T14:25:15Z</time>
      </trkpt>
      <trkpt lat="42.308283979073167" lon="3.220388973131776">
        <ele>120.78</ele>
        <time>2025-05-15T14:25:16Z</time>
      </trkpt>
      <trkpt lat="42.308294959366322" lon="3.220305992290378">
        <ele>120.3</ele>
        <time>2025-05-15T14:25:17Z</time>
      </trkpt>
      <trkpt lat="42.308235028758645" lon="3.220215970650315">
        <ele>119.81999999999999</ele>
        <time>2025-05-15T14:25:18Z</time>
      </trkpt>
      <trkpt lat="42.308168979361653" lon="3.220128966495395">
        <ele>118.86</ele>
        <time>2025-05-15T14:25:19Z</time>
      </trkpt>
      <trkpt lat="42.308055991306901" lon="3.22009501978755">
        <ele>118.38</ele>
        <time>2025-05-15T14:25:20Z</time>
      </trkpt>
      <trkpt lat="42.307927999645472" lon="3.220056965947151">
        <ele>117.42</ele>
        <time>2025-05-15T14:25:21Z</time>
      </trkpt>
      <trkpt lat="42.307489039376378" lon="3.219894021749497">
        <ele>115.5</ele>
        <time>2025-05-15T14:25:24Z</time>
      </trkpt>
      <trkpt lat="42.307385019958019" lon="3.219830989837647">
        <ele>114.53</ele>
        <time>2025-05-15T14:25:25Z</time>
      </trkpt>
      <trkpt lat="42.307299021631479" lon="3.219681037589908">
        <ele>114.05</ele>
        <time>2025-05-15T14:25:26Z</time>
      </trkpt>
      <trkpt lat="42.307262979447842" lon="3.219571989029646">
        <ele>113.09</ele>
        <time>2025-05-15T14:25:27Z</time>
      </trkpt>
      <trkpt lat="42.307275971397758" lon="3.219469981268048">
        <ele>112.61</ele>
        <time>2025-05-15T14:25:28Z</time>
      </trkpt>
      <trkpt lat="42.307314025238156" lon="3.219359004870057">
        <ele>112.13</ele>
        <time>2025-05-15T14:25:29Z</time>
      </trkpt>
      <trkpt lat="42.30738895945251" lon="3.219251967966557">
        <ele>111.65000000000001</ele>
        <time>2025-05-15T14:25:30Z</time>
      </trkpt>
      <trkpt lat="42.307477975264192" lon="3.219126993790269">
        <ele>111.17</ele>
        <time>2025-05-15T14:25:31Z</time>
      </trkpt>
      <trkpt lat="42.30764796026051" lon="3.218819964677095">
        <ele>110.69</ele>
        <time>2025-05-15T14:25:33Z</time>
      </trkpt>
      <trkpt lat="42.307716021314263" lon="3.21867504157126">
        <ele>110.69</ele>
        <time>2025-05-15T14:25:34Z</time>
      </trkpt>
      <trkpt lat="42.307719960808754" lon="3.218510001897812">
        <ele>110.20999999999999</ele>
        <time>2025-05-15T14:25:35Z</time>
      </trkpt>
      <trkpt lat="42.30770998634398" lon="3.218336999416351">
        <ele>109.73</ele>
        <time>2025-05-15T14:25:36Z</time>
      </trkpt>
      <trkpt lat="42.307699006050825" lon="3.218137007206678">
        <ele>109.25</ele>
        <time>2025-05-15T14:25:37Z</time>
      </trkpt>
      <trkpt lat="42.30768701992929" lon="3.21792402304709">
        <ele>108.77</ele>
        <time>2025-05-15T14:25:38Z</time>
      </trkpt>
      <trkpt lat="42.307674027979374" lon="3.217700980603695">
        <ele>107.81</ele>
        <time>2025-05-15T14:25:39Z</time>
      </trkpt>
      <trkpt lat="42.307647038251162" lon="3.217257997021079">
        <ele>105.88</ele>
        <time>2025-05-15T14:25:41Z</time>
      </trkpt>
      <trkpt lat="42.307487027719617" lon="3.215997023507953">
        <ele>101.08</ele>
        <time>2025-05-15T14:25:47Z</time>
      </trkpt>
      <trkpt lat="42.307447968050838" lon="3.215829972177744">
        <ele>100.11</ele>
        <time>2025-05-15T14:25:48Z</time>
      </trkpt>
      <trkpt lat="42.307416032999754" lon="3.215688988566399">
        <ele>99.629999999999995</ele>
        <time>2025-05-15T14:25:49Z</time>
      </trkpt>
      <trkpt lat="42.307436987757683" lon="3.21554297581315">
        <ele>98.670000000000002</ele>
        <time>2025-05-15T14:25:50Z</time>
      </trkpt>
      <trkpt lat="42.30747596360743" lon="3.215410960838199">
        <ele>98.189999999999998</ele>
        <time>2025-05-15T14:25:51Z</time>
      </trkpt>
      <trkpt lat="42.307514017447829" lon="3.215281963348389">
        <ele>97.230000000000004</ele>
        <time>2025-05-15T14:25:52Z</time>
      </trkpt>
      <trkpt lat="42.307552993297577" lon="3.215152965858579">
        <ele>96.75</ele>
        <time>2025-05-15T14:25:53Z</time>
      </trkpt>
      <trkpt lat="42.307632034644485" lon="3.214886002242565">
        <ele>95.790000000000006</ele>
        <time>2025-05-15T14:25:55Z</time>
      </trkpt>
      <trkpt lat="42.30766799300909" lon="3.214723980054259">
        <ele>95.310000000000002</ele>
        <time>2025-05-15T14:25:56Z</time>
      </trkpt>
      <trkpt lat="42.307825991883874" lon="3.213954018428922">
        <ele>91.939999999999998</ele>
        <time>2025-05-15T14:26:00Z</time>
      </trkpt>
      <trkpt lat="42.307897992432117" lon="3.213793002068996">
        <ele>90.980000000000004</ele>
        <time>2025-05-15T14:26:01Z</time>
      </trkpt>
      <trkpt lat="42.307980973273516" lon="3.213658975437284">
        <ele>90.019999999999996</ele>
        <time>2025-05-15T14:26:02Z</time>
      </trkpt>
      <trkpt lat="42.308079041540623" lon="3.213577000424266">
        <ele>89.060000000000002</ele>
        <time>2025-05-15T14:26:03Z</time>
      </trkpt>
      <trkpt lat="42.308194963261485" lon="3.213565014302731">
        <ele>88.099999999999994</ele>
        <time>2025-05-15T14:26:04Z</time>
      </trkpt>
      <trkpt lat="42.308304011821747" lon="3.213565014302731">
        <ele>87.140000000000001</ele>
        <time>2025-05-15T14:26:05Z</time>
      </trkpt>
      <trkpt lat="42.308424962684512" lon="3.213618993759155">
        <ele>86.180000000000007</ele>
        <time>2025-05-15T14:26:06Z</time>
      </trkpt>
      <trkpt lat="42.308521019294858" lon="3.213714966550469">
        <ele>85.209999999999994</ele>
        <time>2025-05-15T14:26:07Z</time>
      </trkpt>
      <trkpt lat="42.308623027056456" lon="3.213841030374169">
        <ele>84.25</ele>
        <time>2025-05-15T14:26:08Z</time>
      </trkpt>
      <trkpt lat="42.308684969320893" lon="3.214003974571824">
        <ele>83.290000000000006</ele>
        <time>2025-05-15T14:26:09Z</time>
      </trkpt>
      <trkpt lat="42.308754036203027" lon="3.214181000366807">
        <ele>82.329999999999998</ele>
        <time>2025-05-15T14:26:10Z</time>
      </trkpt>
      <trkpt lat="42.309376979246736" lon="3.215896021574736">
        <ele>75.599999999999994</ele>
        <time>2025-05-15T14:26:18Z</time>
      </trkpt>
      <trkpt lat="42.30949298478663" lon="3.216044967994094">
        <ele>74.640000000000001</ele>
        <time>2025-05-15T14:26:19Z</time>
      </trkpt>
      <trkpt lat="42.309833038598299" lon="3.216511001810432">
        <ele>72.719999999999999</ele>
        <time>2025-05-15T14:26:22Z</time>
      </trkpt>
      <trkpt lat="42.30987997725606" lon="3.216653997078538">
        <ele>72.239999999999995</ele>
        <time>2025-05-15T14:26:23Z</time>
      </trkpt>
      <trkpt lat="42.30992297641933" lon="3.216781988739967">
        <ele>71.760000000000005</ele>
        <time>2025-05-15T14:26:24Z</time>
      </trkpt>
      <trkpt lat="42.309961030259728" lon="3.216896988451481">
        <ele>71.269999999999996</ele>
        <time>2025-05-15T14:26:25Z</time>
      </trkpt>
      <trkpt lat="42.309991037473083" lon="3.216963959857822">
        <ele>70.310000000000002</ele>
        <time>2025-05-15T14:26:26Z</time>
      </trkpt>
      <trkpt lat="42.310065971687436" lon="3.21702397428453">
        <ele>69.829999999999998</ele>
        <time>2025-05-15T14:26:27Z</time>
      </trkpt>
      <trkpt lat="42.310151970013976" lon="3.217070996761322">
        <ele>69.349999999999994</ele>
        <time>2025-05-15T14:26:28Z</time>
      </trkpt>
      <trkpt lat="42.310251966118813" lon="3.217117013409734">
        <ele>68.870000000000005</ele>
        <time>2025-05-15T14:26:29Z</time>
      </trkpt>
      <trkpt lat="42.310359003022313" lon="3.217165963724256">
        <ele>68.390000000000001</ele>
        <time>2025-05-15T14:26:30Z</time>
      </trkpt>
      <trkpt lat="42.310432009398937" lon="3.217252967879176">
        <ele>67.909999999999997</ele>
        <time>2025-05-15T14:26:31Z</time>
      </trkpt>
      <trkpt lat="42.31050199829042" lon="3.217341983690858">
        <ele>67.430000000000007</ele>
        <time>2025-05-15T14:26:32Z</time>
      </trkpt>
      <trkpt lat="42.310567041859031" lon="3.217423958703876">
        <ele>67.430000000000007</ele>
        <time>2025-05-15T14:26:33Z</time>
      </trkpt>
      <trkpt lat="42.310665026307106" lon="3.217470981180668">
        <ele>67.430000000000007</ele>
        <time>2025-05-15T14:26:34Z</time>
      </trkpt>
      <trkpt lat="42.310763010755181" lon="3.217418007552624">
        <ele>67.430000000000007</ele>
        <time>2025-05-15T14:26:35Z</time>
      </trkpt>
      <trkpt lat="42.310810033231974" lon="3.217313988134265">
        <ele>67.909999999999997</ele>
        <time>2025-05-15T14:26:36Z</time>
      </trkpt>
      <trkpt lat="42.310832999646664" lon="3.217193959280849">
        <ele>68.390000000000001</ele>
        <time>2025-05-15T14:26:37Z</time>
      </trkpt>
      <trkpt lat="42.310858983546495" lon="3.217053981497884">
        <ele>68.390000000000001</ele>
        <time>2025-05-15T14:26:38Z</time>
      </trkpt>
      <trkpt lat="42.310882033780217" lon="3.216934036463499">
        <ele>68.870000000000005</ele>
        <time>2025-05-15T14:26:39Z</time>
      </trkpt>
      <trkpt lat="42.310949005186558" lon="3.216834040358663">
        <ele>68.870000000000005</ele>
        <time>2025-05-15T14:26:40Z</time>
      </trkpt>
      <trkpt lat="42.311001978814602" lon="3.216793974861503">
        <ele>69.349999999999994</ele>
        <time>2025-05-15T14:26:41Z</time>
      </trkpt>
      <trkpt lat="42.311097029596567" lon="3.216761033982039">
        <ele>69.829999999999998</ele>
        <time>2025-05-15T14:26:42Z</time>
      </trkpt>
      <trkpt lat="42.311519980430603" lon="3.216616027057171">
        <ele>70.310000000000002</ele>
        <time>2025-05-15T14:26:45Z</time>
      </trkpt>
      <trkpt lat="42.311669010668993" lon="3.216564981266856">
        <ele>70.310000000000002</ele>
        <time>2025-05-15T14:26:46Z</time>
      </trkpt>
      <trkpt lat="42.311840001493692" lon="3.216509995982051">
        <ele>69.829999999999998</ele>
        <time>2025-05-15T14:26:47Z</time>
      </trkpt>
      <trkpt lat="42.312013003975153" lon="3.216455010697246">
        <ele>69.349999999999994</ele>
        <time>2025-05-15T14:26:48Z</time>
      </trkpt>
      <trkpt lat="42.312176031991839" lon="3.21640295907855">
        <ele>68.870000000000005</ele>
        <time>2025-05-15T14:26:49Z</time>
      </trkpt>
      <trkpt lat="42.312320033088326" lon="3.216343028470874">
        <ele>67.909999999999997</ele>
        <time>2025-05-15T14:26:50Z</time>
      </trkpt>
      <trkpt lat="42.312491023913026" lon="3.216269016265869">
        <ele>66.950000000000003</ele>
        <time>2025-05-15T14:26:51Z</time>
      </trkpt>
      <trkpt lat="42.312563024461269" lon="3.216183017939329">
        <ele>65.989999999999995</ele>
        <time>2025-05-15T14:26:52Z</time>
      </trkpt>
      <trkpt lat="42.312657991424203" lon="3.216067012399435">
        <ele>65.030000000000001</ele>
        <time>2025-05-15T14:26:53Z</time>
      </trkpt>
      <trkpt lat="42.312792018055916" lon="3.215903984382749">
        <ele>64.069999999999993</ele>
        <time>2025-05-15T14:26:54Z</time>
      </trkpt>
      <trkpt lat="42.31286795809865" lon="3.215876994654536">
        <ele>63.100000000000001</ele>
        <time>2025-05-15T14:26:55Z</time>
      </trkpt>
      <trkpt lat="42.313008019700646" lon="3.215827960520983">
        <ele>62.619999999999997</ele>
        <time>2025-05-15T14:26:56Z</time>
      </trkpt>
      <trkpt lat="42.313649989664555" lon="3.21553903631866">
        <ele>57.82</ele>
        <time>2025-05-15T14:27:01Z</time>
      </trkpt>
      <trkpt lat="42.313688965514302" lon="3.215435016900301">
        <ele>57.340000000000003</ele>
        <time>2025-05-15T14:27:02Z</time>
      </trkpt>
      <trkpt lat="42.313715033233166" lon="3.21530400775373">
        <ele>56.859999999999999</ele>
        <time>2025-05-15T14:27:03Z</time>
      </trkpt>
      <trkpt lat="42.313715033233166" lon="3.214965965598822">
        <ele>55.890000000000001</ele>
        <time>2025-05-15T14:27:05Z</time>
      </trkpt>
      <trkpt lat="42.31374504044652" lon="3.214779971167445">
        <ele>54.93</ele>
        <time>2025-05-15T14:27:06Z</time>
      </trkpt>
      <trkpt lat="42.313808994367719" lon="3.214624989777803">
        <ele>54.450000000000003</ele>
        <time>2025-05-15T14:27:07Z</time>
      </trkpt>
      <trkpt lat="42.314033964648843" lon="3.214087039232254">
        <ele>52.049999999999997</ele>
        <time>2025-05-15T14:27:10Z</time>
      </trkpt>
      <trkpt lat="42.314079981297255" lon="3.213874977082014">
        <ele>51.090000000000003</ele>
        <time>2025-05-15T14:27:11Z</time>
      </trkpt>
      <trkpt lat="42.314187018200755" lon="3.213237030431628">
        <ele>49.159999999999997</ele>
        <time>2025-05-15T14:27:14Z</time>
      </trkpt>
      <trkpt lat="42.314181989058852" lon="3.213029997423291">
        <ele>48.200000000000003</ele>
        <time>2025-05-15T14:27:15Z</time>
      </trkpt>
      <trkpt lat="42.314136978238821" lon="3.212834028527141">
        <ele>47.719999999999999</ele>
        <time>2025-05-15T14:27:16Z</time>
      </trkpt>
      <trkpt lat="42.314053997397423" lon="3.212655996903777">
        <ele>47.240000000000002</ele>
        <time>2025-05-15T14:27:17Z</time>
      </trkpt>
      <trkpt lat="42.313955007120967" lon="3.212490035220981">
        <ele>47.240000000000002</ele>
        <time>2025-05-15T14:27:18Z</time>
      </trkpt>
      <trkpt lat="42.313856016844511" lon="3.212322983890772">
        <ele>46.280000000000001</ele>
        <time>2025-05-15T14:27:19Z</time>
      </trkpt>
      <trkpt lat="42.313759960234165" lon="3.212150987237692">
        <ele>45.799999999999997</ele>
        <time>2025-05-15T14:27:20Z</time>
      </trkpt>
      <trkpt lat="42.313674967736006" lon="3.211963986977935">
        <ele>45.32</ele>
        <time>2025-05-15T14:27:21Z</time>
      </trkpt>
      <trkpt lat="42.312598982825875" lon="3.209601966664195">
        <ele>38.590000000000003</ele>
        <time>2025-05-15T14:27:33Z</time>
      </trkpt>
      <trkpt lat="42.312439978122711" lon="3.20918396115303">
        <ele>37.149999999999999</ele>
        <time>2025-05-15T14:27:36Z</time>
      </trkpt>
      <trkpt lat="42.312430003657937" lon="3.209069967269898">
        <ele>36.670000000000002</ele>
        <time>2025-05-15T14:27:37Z</time>
      </trkpt>
      <trkpt lat="42.312465962022543" lon="3.208972988650203">
        <ele>36.189999999999998</ele>
        <time>2025-05-15T14:27:38Z</time>
      </trkpt>
      <trkpt lat="42.312537962570786" lon="3.208910040557385">
        <ele>35.229999999999997</ele>
        <time>2025-05-15T14:27:39Z</time>
      </trkpt>
      <trkpt lat="42.312641981989145" lon="3.208866035565734">
        <ele>34.740000000000002</ele>
        <time>2025-05-15T14:27:40Z</time>
      </trkpt>
      <trkpt lat="42.312766034156084" lon="3.20887902751565">
        <ele>34.259999999999998</ele>
        <time>2025-05-15T14:27:41Z</time>
      </trkpt>
      <trkpt lat="42.312907017767429" lon="3.208894031122327">
        <ele>33.780000000000001</ele>
        <time>2025-05-15T14:27:42Z</time>
      </trkpt>
      <trkpt lat="42.313376991078258" lon="3.208943987265229">
        <ele>31.379999999999999</ele>
        <time>2025-05-15T14:27:45Z</time>
      </trkpt>
      <trkpt lat="42.313543036580086" lon="3.208986986428499">
        <ele>30.420000000000002</ele>
        <time>2025-05-15T14:27:46Z</time>
      </trkpt>
      <trkpt lat="42.315217992290854" lon="3.209480009973049">
        <ele>23.210000000000001</ele>
        <time>2025-05-15T14:27:56Z</time>
      </trkpt>
      <trkpt lat="42.315384959802032" lon="3.209487972781062">
        <ele>22.25</ele>
        <time>2025-05-15T14:27:57Z</time>
      </trkpt>
      <trkpt lat="42.315537007525563" lon="3.209468023851514">
        <ele>21.289999999999999</ele>
        <time>2025-05-15T14:27:58Z</time>
      </trkpt>
      <trkpt lat="42.315683020278811" lon="3.209422007203102">
        <ele>20.32</ele>
        <time>2025-05-15T14:27:59Z</time>
      </trkpt>
      <trkpt lat="42.315947972238064" lon="3.209367021918297">
        <ele>19.359999999999999</ele>
        <time>2025-05-15T14:28:01Z</time>
      </trkpt>
      <trkpt lat="42.316075041890144" lon="3.209381019696593">
        <ele>18.399999999999999</ele>
        <time>2025-05-15T14:28:02Z</time>
      </trkpt>
      <trkpt lat="42.316194986924529" lon="3.209436004981399">
        <ele>17.920000000000002</ele>
        <time>2025-05-15T14:28:03Z</time>
      </trkpt>
      <trkpt lat="42.316322978585958" lon="3.209495013579726">
        <ele>17.440000000000001</ele>
        <time>2025-05-15T14:28:04Z</time>
      </trkpt>
      <trkpt lat="42.316463962197304" lon="3.209560979157686">
        <ele>16.960000000000001</ele>
        <time>2025-05-15T14:28:05Z</time>
      </trkpt>
      <trkpt lat="42.316616009920835" lon="3.209630968049169">
        <ele>16.48</ele>
        <time>2025-05-15T14:28:06Z</time>
      </trkpt>
      <trkpt lat="42.317398963496089" lon="3.210049979388714">
        <ele>14.08</ele>
        <time>2025-05-15T14:28:11Z</time>
      </trkpt>
      <trkpt lat="42.318468997254968" lon="3.210818013176322">
        <ele>12.15</ele>
        <time>2025-05-15T14:28:18Z</time>
      </trkpt>
      <trkpt lat="42.318622972816229" lon="3.210874004289508">
        <ele>11.67</ele>
        <time>2025-05-15T14:28:19Z</time>
      </trkpt>
      <trkpt lat="42.319120019674301" lon="3.210992021486163">
        <ele>8.310000000000001</ele>
        <time>2025-05-15T14:28:23Z</time>
      </trkpt>
      <trkpt lat="42.319195037707686" lon="3.210941981524229">
        <ele>7.83</ele>
        <time>2025-05-15T14:28:24Z</time>
      </trkpt>
      <trkpt lat="42.319276006892323" lon="3.210888002067804">
        <ele>7.35</ele>
        <time>2025-05-15T14:28:25Z</time>
      </trkpt>
      <trkpt lat="42.319379020482302" lon="3.210819019004703">
        <ele>7.35</ele>
        <time>2025-05-15T14:28:26Z</time>
      </trkpt>
      <trkpt lat="42.319487985223532" lon="3.210773002356291">
        <ele>6.87</ele>
        <time>2025-05-15T14:28:27Z</time>
      </trkpt>
      <trkpt lat="42.319618994370103" lon="3.210719022899866">
        <ele>6.39</ele>
        <time>2025-05-15T14:28:28Z</time>
      </trkpt>
      <trkpt lat="42.319756960496306" lon="3.210660014301539">
        <ele>5.91</ele>
        <time>2025-05-15T14:28:29Z</time>
      </trkpt>
      <trkpt lat="42.319900039583445" lon="3.21059999987483">
        <ele>5.42</ele>
        <time>2025-05-15T14:28:30Z</time>
      </trkpt>
      <trkpt lat="42.320049991831183" lon="3.21053302846849">
        <ele>4.46</ele>
        <time>2025-05-15T14:28:31Z</time>
      </trkpt>
      <trkpt lat="42.32049498707056" lon="3.209982002153993">
        <ele>3.02</ele>
        <time>2025-05-15T14:28:35Z</time>
      </trkpt>
      <trkpt lat="42.32053798623383" lon="3.209801958873868">
        <ele>3.02</ele>
        <time>2025-05-15T14:28:36Z</time>
      </trkpt>
      <trkpt lat="42.320576962083578" lon="3.209638008847833">
        <ele>3.02</ele>
        <time>2025-05-15T14:28:37Z</time>
      </trkpt>
      <trkpt lat="42.32060101814568" lon="3.209453020244837">
        <ele>2.54</ele>
        <time>2025-05-15T14:28:38Z</time>
      </trkpt>
      <trkpt lat="42.320598000660539" lon="3.209249004721642">
        <ele>2.54</ele>
        <time>2025-05-15T14:28:39Z</time>
      </trkpt>
      <trkpt lat="42.320645023137331" lon="3.207245981320739">
        <ele>1.58</ele>
        <time>2025-05-15T14:28:48Z</time>
      </trkpt>
      <trkpt lat="42.320689028128982" lon="3.207077002152801">
        <ele>1.58</ele>
        <time>2025-05-15T14:28:49Z</time>
      </trkpt>
      <trkpt lat="42.320760022848845" lon="3.206913974136114">
        <ele>1.1</ele>
        <time>2025-05-15T14:28:50Z</time>
      </trkpt>
      <trkpt lat="42.320817019790411" lon="3.206784976646304">
        <ele>1.1</ele>
        <time>2025-05-15T14:28:51Z</time>
      </trkpt>
      <trkpt lat="42.320936964824796" lon="3.206665031611919">
        <ele>0.62</ele>
        <time>2025-05-15T14:28:52Z</time>
      </trkpt>
      <trkpt lat="42.32105297036469" lon="3.206549026072025">
        <ele>0.14</ele>
        <time>2025-05-15T14:28:53Z</time>
      </trkpt>
      <trkpt lat="42.321178028360009" lon="3.206512983888388">
        <ele>0.14</ele>
        <time>2025-05-15T14:28:54Z</time>
      </trkpt>
      <trkpt lat="42.321333009749651" lon="3.206467973068357">
        <ele>-0.34</ele>
        <time>2025-05-15T14:28:55Z</time>
      </trkpt>
      <trkpt lat="42.322623990476131" lon="3.206101013347507">
        <ele>-3.71</ele>
        <time>2025-05-15T14:29:02Z</time>
      </trkpt>
      <trkpt lat="42.324645034968853" lon="3.205545963719487">
        <ele>-3.23</ele>
        <time>2025-05-15T14:29:13Z</time>
      </trkpt>
      <trkpt lat="42.325952025130391" lon="3.205346977338195">
        <ele>-3.71</ele>
        <time>2025-05-15T14:29:20Z</time>
      </trkpt>
      <trkpt lat="42.32734601944685" lon="3.205306995660067">
        <ele>-2.27</ele>
        <time>2025-05-15T14:29:29Z</time>
      </trkpt>
      <trkpt lat="42.328156968578696" lon="3.205303978174925">
        <ele>-0.82</ele>
        <time>2025-05-15T14:29:35Z</time>
      </trkpt>
      <trkpt lat="42.328619984909892" lon="3.20527296513319">
        <ele>-0.34</ele>
        <time>2025-05-15T14:29:40Z</time>
      </trkpt>
      <trkpt lat="42.328799022361636" lon="3.205389976501465">
        <ele>-0.34</ele>
        <time>2025-05-15T14:29:41Z</time>
      </trkpt>
      <trkpt lat="42.328848978504539" lon="3.205411015078425">
        <ele>-0.82</ele>
        <time>2025-05-15T14:29:43Z</time>
      </trkpt>
      <trkpt lat="42.328919973224401" lon="3.205411015078425">
        <ele>-0.82</ele>
        <time>2025-05-15T14:29:44Z</time>
      </trkpt>
      <trkpt lat="42.328991973772645" lon="3.205303978174925">
        <ele>-0.82</ele>
        <time>2025-05-15T14:29:45Z</time>
      </trkpt>
      <trkpt lat="42.32906598597765" lon="3.20529199205339">
        <ele>-0.82</ele>
        <time>2025-05-15T14:29:46Z</time>
      </trkpt>
      <trkpt lat="42.329137986525893" lon="3.205280005931854">
        <ele>-1.3</ele>
        <time>2025-05-15T14:29:47Z</time>
      </trkpt>
      <trkpt lat="42.329207975417376" lon="3.205268019810319">
        <ele>-1.3</ele>
        <time>2025-05-15T14:29:48Z</time>
      </trkpt>
      <trkpt lat="42.329272013157606" lon="3.205260979011655">
        <ele>-1.3</ele>
        <time>2025-05-15T14:29:49Z</time>
      </trkpt>
      <trkpt lat="42.329334039241076" lon="3.205258967354894">
        <ele>-1.79</ele>
        <time>2025-05-15T14:29:50Z</time>
      </trkpt>
      <trkpt lat="42.329397993162274" lon="3.205257961526513">
        <ele>-1.79</ele>
        <time>2025-05-15T14:29:51Z</time>
      </trkpt>
      <trkpt lat="42.330083968117833" lon="3.205241030082107">
        <ele>-0.82</ele>
        <time>2025-05-15T14:30:01Z</time>
      </trkpt>
      <trkpt lat="42.331017963588238" lon="3.20522703230381">
        <ele>-1.79</ele>
        <time>2025-05-15T14:30:14Z</time>
      </trkpt>
      <trkpt lat="42.331748027354479" lon="3.205179003998637">
        <ele>-5.15</ele>
        <time>2025-05-15T14:30:24Z</time>
      </trkpt>
      <trkpt lat="42.331818016245961" lon="3.205160982906818">
        <ele>-5.63</ele>
        <time>2025-05-15T14:30:25Z</time>
      </trkpt>
      <trkpt lat="42.331885993480682" lon="3.20514103397727">
        <ele>-6.11</ele>
        <time>2025-05-15T14:30:26Z</time>
      </trkpt>
      <trkpt lat="42.331952964887023" lon="3.205118989571929">
        <ele>-6.59</ele>
        <time>2025-05-15T14:30:27Z</time>
      </trkpt>
      <trkpt lat="42.331975009292364" lon="3.205111026763916">
        <ele>-7.07</ele>
        <time>2025-05-15T14:30:28Z</time>
      </trkpt>
      <trkpt lat="42.33211699873209" lon="3.205197025090456">
        <ele>-7.55</ele>
        <time>2025-05-15T14:30:29Z</time>
      </trkpt>
      <trkpt lat="42.332178018987179" lon="3.205160982906818">
        <ele>-8.029999999999999</ele>
        <time>2025-05-15T14:30:30Z</time>
      </trkpt>
      <trkpt lat="42.332210959866643" lon="3.205025028437376">
        <ele>-8.51</ele>
        <time>2025-05-15T14:30:31Z</time>
      </trkpt>
      <trkpt lat="42.33226896263659" lon="3.20499200373888">
        <ele>-9</ele>
        <time>2025-05-15T14:30:32Z</time>
      </trkpt>
      <trkpt lat="42.332336017861962" lon="3.204954033717513">
        <ele>-9.48</ele>
        <time>2025-05-15T14:30:33Z</time>
      </trkpt>
      <trkpt lat="42.332402989268303" lon="3.204917991533876">
        <ele>-9.960000000000001</ele>
        <time>2025-05-15T14:30:34Z</time>
      </trkpt>
      <trkpt lat="42.333145039156079" lon="3.204573998227716">
        <ele>-11.880000000000001</ele>
        <time>2025-05-15T14:30:45Z</time>
      </trkpt>
      <trkpt lat="42.333558015525341" lon="3.204400995746255">
        <ele>-11.4</ele>
        <time>2025-05-15T14:30:51Z</time>
      </trkpt>
      <trkpt lat="42.334128990769386" lon="3.20419698022306">
        <ele>-9.960000000000001</ele>
        <time>2025-05-15T14:30:59Z</time>
      </trkpt>
      <trkpt lat="42.334199985489249" lon="3.204172002151609">
        <ele>-9.960000000000001</ele>
        <time>2025-05-15T14:31:00Z</time>
      </trkpt>
      <trkpt lat="42.33426796272397" lon="3.204148029908538">
        <ele>-9.48</ele>
        <time>2025-05-15T14:31:01Z</time>
      </trkpt>
      <trkpt lat="42.334335017949343" lon="3.204123973846436">
        <ele>-9.48</ele>
        <time>2025-05-15T14:31:02Z</time>
      </trkpt>
      <trkpt lat="42.334406012669206" lon="3.204096984118223">
        <ele>-9.48</ele>
        <time>2025-05-15T14:31:03Z</time>
      </trkpt>
      <trkpt lat="42.334476001560688" lon="3.20406898856163">
        <ele>-9.48</ele>
        <time>2025-05-15T14:31:04Z</time>
      </trkpt>
      <trkpt lat="42.334540039300919" lon="3.204044010490179">
        <ele>-9.48</ele>
        <time>2025-05-15T14:31:05Z</time>
      </trkpt>
      <trkpt lat="42.334599969908595" lon="3.204020960256457">
        <ele>-9.48</ele>
        <time>2025-05-15T14:31:06Z</time>
      </trkpt>
      <trkpt lat="42.334660990163684" lon="3.203996988013387">
        <ele>-9.48</ele>
        <time>2025-05-15T14:31:07Z</time>
      </trkpt>
      <trkpt lat="42.334730979055166" lon="3.203969998285174">
        <ele>-9.48</ele>
        <time>2025-05-15T14:31:08Z</time>
      </trkpt>
      <trkpt lat="42.335008000954986" lon="3.203821973875165">
        <ele>-9.48</ele>
        <time>2025-05-15T14:31:12Z</time>
      </trkpt>
      <trkpt lat="42.335070027038455" lon="3.203764976933599">
        <ele>-9</ele>
        <time>2025-05-15T14:31:13Z</time>
      </trkpt>
      <trkpt lat="42.335132975131273" lon="3.203707979992032">
        <ele>-9</ele>
        <time>2025-05-15T14:31:14Z</time>
      </trkpt>
      <trkpt lat="42.335365992039442" lon="3.203321993350983">
        <ele>-9</ele>
        <time>2025-05-15T14:31:19Z</time>
      </trkpt>
      <trkpt lat="42.33540597371757" lon="3.203245969489217">
        <ele>-8.51</ele>
        <time>2025-05-15T14:31:20Z</time>
      </trkpt>
      <trkpt lat="42.335450984537601" lon="3.203157959505916">
        <ele>-8.51</ele>
        <time>2025-05-15T14:31:21Z</time>
      </trkpt>
      <trkpt lat="42.335484009236097" lon="3.203069027513266">
        <ele>-8.029999999999999</ele>
        <time>2025-05-15T14:31:22Z</time>
      </trkpt>
      <trkpt lat="42.335514016449451" lon="3.202987974509597">
        <ele>-8.029999999999999</ele>
        <time>2025-05-15T14:31:23Z</time>
      </trkpt>
      <trkpt lat="42.335560033097863" lon="3.202863000333309">
        <ele>-8.029999999999999</ele>
        <time>2025-05-15T14:31:25Z</time>
      </trkpt>
      <trkpt lat="42.335578976199031" lon="3.202812038362026">
        <ele>-7.55</ele>
        <time>2025-05-15T14:31:26Z</time>
      </trkpt>
      <trkpt lat="42.335558021441102" lon="3.202685974538326">
        <ele>-7.55</ele>
        <time>2025-05-15T14:31:27Z</time>
      </trkpt>
      <trkpt lat="42.335557015612721" lon="3.202681029215455">
        <ele>-6.59</ele>
        <time>2025-05-15T14:31:28Z</time>
      </trkpt>
      <trkpt lat="42.335529020056129" lon="3.202600982040167">
        <ele>-6.11</ele>
        <time>2025-05-15T14:31:29Z</time>
      </trkpt>
      <trkpt lat="42.335465988144279" lon="3.202420016750693">
        <ele>-5.63</ele>
        <time>2025-05-15T14:31:31Z</time>
      </trkpt>
      <trkpt lat="42.335331039503217" lon="3.202031012624502">
        <ele>-4.19</ele>
        <time>2025-05-15T14:31:36Z</time>
      </trkpt>
      <trkpt lat="42.33523297123611" lon="3.20174703374505">
        <ele>-3.23</ele>
        <time>2025-05-15T14:31:44Z</time>
      </trkpt>
      <trkpt lat="42.335214028134942" lon="3.201690036803484">
        <ele>-3.23</ele>
        <time>2025-05-15T14:32:06Z</time>
      </trkpt>
      <trkpt lat="42.335043037310243" lon="3.201098022982478">
        <ele>-1.79</ele>
        <time>2025-05-15T14:32:12Z</time>
      </trkpt>
      <trkpt lat="42.334628971293569" lon="3.199697993695736">
        <ele>-1.3</ele>
        <time>2025-05-15T14:32:23Z</time>
      </trkpt>
      <trkpt lat="42.33420099131763" lon="3.198213977739215">
        <ele>-4.19</ele>
        <time>2025-05-15T14:32:34Z</time>
      </trkpt>
      <trkpt lat="42.334131002426147" lon="3.197827991098166">
        <ele>-3.23</ele>
        <time>2025-05-15T14:32:37Z</time>
      </trkpt>
      <trkpt lat="42.334137037396431" lon="3.197719026356936">
        <ele>-3.23</ele>
        <time>2025-05-15T14:32:38Z</time>
      </trkpt>
      <trkpt lat="42.334172995761037" lon="3.197596985846758">
        <ele>-2.75</ele>
        <time>2025-05-15T14:32:39Z</time>
      </trkpt>
      <trkpt lat="42.334210965782404" lon="3.197470000013709">
        <ele>-2.75</ele>
        <time>2025-05-15T14:32:40Z</time>
      </trkpt>
      <trkpt lat="42.334250025451183" lon="3.19734301418066">
        <ele>-2.27</ele>
        <time>2025-05-15T14:32:41Z</time>
      </trkpt>
      <trkpt lat="42.334615979343653" lon="3.196349004283547">
        <ele>-0.82</ele>
        <time>2025-05-15T14:32:48Z</time>
      </trkpt>
      <trkpt lat="42.334625031799078" lon="3.196187987923622">
        <ele>0.14</ele>
        <time>2025-05-15T14:32:49Z</time>
      </trkpt>
      <trkpt lat="42.334634000435472" lon="3.196024959906936">
        <ele>0.14</ele>
        <time>2025-05-15T14:32:50Z</time>
      </trkpt>
      <trkpt lat="42.334686974063516" lon="3.195536965504289">
        <ele>1.1</ele>
        <time>2025-05-15T14:32:53Z</time>
      </trkpt>
      <trkpt lat="42.334745982661843" lon="3.195398999378085">
        <ele>1.58</ele>
        <time>2025-05-15T14:32:54Z</time>
      </trkpt>
      <trkpt lat="42.334810020402074" lon="3.195268996059895">
        <ele>1.58</ele>
        <time>2025-05-15T14:32:55Z</time>
      </trkpt>
      <trkpt lat="42.33488897792995" lon="3.195149973034859">
        <ele>2.06</ele>
        <time>2025-05-15T14:32:56Z</time>
      </trkpt>
      <trkpt lat="42.334971036761999" lon="3.195028016343713">
        <ele>2.06</ele>
        <time>2025-05-15T14:32:57Z</time>
      </trkpt>
      <trkpt lat="42.335265995934606" lon="3.194532981142402">
        <ele>3.5</ele>
        <time>2025-05-15T14:33:01Z</time>
      </trkpt>
      <trkpt lat="42.335322992876172" lon="3.194390991702676">
        <ele>3.98</ele>
        <time>2025-05-15T14:33:02Z</time>
      </trkpt>
      <trkpt lat="42.335368003696203" lon="3.194245984777808">
        <ele>4.46</ele>
        <time>2025-05-15T14:33:03Z</time>
      </trkpt>
      <trkpt lat="42.335456013679504" lon="3.19392504170537">
        <ele>5.42</ele>
        <time>2025-05-15T14:33:05Z</time>
      </trkpt>
      <trkpt lat="42.335536982864141" lon="3.193824039772153">
        <ele>5.91</ele>
        <time>2025-05-15T14:33:06Z</time>
      </trkpt>
      <trkpt lat="42.335658017545938" lon="3.193770982325077">
        <ele>6.39</ele>
        <time>2025-05-15T14:33:07Z</time>
      </trkpt>
      <trkpt lat="42.335765976458788" lon="3.193738041445613">
        <ele>6.39</ele>
        <time>2025-05-15T14:33:08Z</time>
      </trkpt>
      <trkpt lat="42.335882987827063" lon="3.193738041445613">
        <ele>6.87</ele>
        <time>2025-05-15T14:33:09Z</time>
      </trkpt>
      <trkpt lat="42.336002010852098" lon="3.193725971505046">
        <ele>6.87</ele>
        <time>2025-05-15T14:33:10Z</time>
      </trkpt>
      <trkpt lat="42.336239973083138" lon="3.193672997877002">
        <ele>6.87</ele>
        <time>2025-05-15T14:33:12Z</time>
      </trkpt>
      <trkpt lat="42.336352961137891" lon="3.193638967350125">
        <ele>7.35</ele>
        <time>2025-05-15T14:33:13Z</time>
      </trkpt>
      <trkpt lat="42.33645798638463" lon="3.193575013428927">
        <ele>7.35</ele>
        <time>2025-05-15T14:33:14Z</time>
      </trkpt>
      <trkpt lat="42.337330961599946" lon="3.193010995164514">
        <ele>8.789999999999999</ele>
        <time>2025-05-15T14:33:22Z</time>
      </trkpt>
      <trkpt lat="42.337421989068389" lon="3.192912004888058">
        <ele>8.789999999999999</ele>
        <time>2025-05-15T14:33:23Z</time>
      </trkpt>
      <trkpt lat="42.337507987394929" lon="3.192794993519783">
        <ele>8.789999999999999</ele>
        <time>2025-05-15T14:33:24Z</time>
      </trkpt>
      <trkpt lat="42.337593985721469" lon="3.192678987979889">
        <ele>8.789999999999999</ele>
        <time>2025-05-15T14:33:25Z</time>
      </trkpt>
      <trkpt lat="42.337683001533151" lon="3.192558037117124">
        <ele>8.789999999999999</ele>
        <time>2025-05-15T14:33:26Z</time>
      </trkpt>
      <trkpt lat="42.338124979287386" lon="3.191798971965909">
        <ele>8.789999999999999</ele>
        <time>2025-05-15T14:33:32Z</time>
      </trkpt>
      <trkpt lat="42.338178036734462" lon="3.191650025546551">
        <ele>8.789999999999999</ele>
        <time>2025-05-15T14:33:33Z</time>
      </trkpt>
      <trkpt lat="42.338191028684378" lon="3.191490015015006">
        <ele>9.27</ele>
        <time>2025-05-15T14:33:34Z</time>
      </trkpt>
      <trkpt lat="42.33824098482728" lon="3.190842010080814">
        <ele>9.27</ele>
        <time>2025-05-15T14:33:38Z</time>
      </trkpt>
      <trkpt lat="42.338310973718762" lon="3.190700020641089">
        <ele>8.789999999999999</ele>
        <time>2025-05-15T14:33:39Z</time>
      </trkpt>
      <trkpt lat="42.338394960388541" lon="3.190605975687504">
        <ele>8.789999999999999</ele>
        <time>2025-05-15T14:33:40Z</time>
      </trkpt>
      <trkpt lat="42.338677011430264" lon="3.190319985151291">
        <ele>8.789999999999999</ele>
        <time>2025-05-15T14:33:43Z</time>
      </trkpt>
      <trkpt lat="42.338738031685352" lon="3.190185036510229">
        <ele>8.789999999999999</ele>
        <time>2025-05-15T14:33:44Z</time>
      </trkpt>
      <trkpt lat="42.33875404112041" lon="3.190026031807065">
        <ele>8.789999999999999</ele>
        <time>2025-05-15T14:33:45Z</time>
      </trkpt>
      <trkpt lat="42.338737025856972" lon="3.189854035153985">
        <ele>8.789999999999999</ele>
        <time>2025-05-15T14:33:46Z</time>
      </trkpt>
      <trkpt lat="42.338721016421914" lon="3.189677009359002">
        <ele>8.789999999999999</ele>
        <time>2025-05-15T14:33:47Z</time>
      </trkpt>
      <trkpt lat="42.33869100920856" lon="3.189361011609435">
        <ele>9.27</ele>
        <time>2025-05-15T14:33:49Z</time>
      </trkpt>
      <trkpt lat="42.338744988664985" lon="3.189235031604767">
        <ele>9.27</ele>
        <time>2025-05-15T14:33:50Z</time>
      </trkpt>
      <trkpt lat="42.338797962293029" lon="3.189110979437828">
        <ele>9.27</ele>
        <time>2025-05-15T14:33:51Z</time>
      </trkpt>
      <trkpt lat="42.338870968669653" lon="3.1890519708395">
        <ele>8.789999999999999</ele>
        <time>2025-05-15T14:33:52Z</time>
      </trkpt>
      <trkpt lat="42.338959984481335" lon="3.189044008031488">
        <ele>8.789999999999999</ele>
        <time>2025-05-15T14:33:53Z</time>
      </trkpt>
      <trkpt lat="42.339053023606539" lon="3.189083989709616">
        <ele>8.310000000000001</ele>
        <time>2025-05-15T14:33:54Z</time>
      </trkpt>
      <trkpt lat="42.339147990569472" lon="3.189171999692917">
        <ele>7.83</ele>
        <time>2025-05-15T14:33:55Z</time>
      </trkpt>
      <trkpt lat="42.33922996558249" lon="3.18928599357605">
        <ele>7.83</ele>
        <time>2025-05-15T14:33:56Z</time>
      </trkpt>
      <trkpt lat="42.33939902856946" lon="3.189523033797741">
        <ele>7.35</ele>
        <time>2025-05-15T14:33:58Z</time>
      </trkpt>
      <trkpt lat="42.339490978047252" lon="3.189583970233798">
        <ele>7.35</ele>
        <time>2025-05-15T14:33:59Z</time>
      </trkpt>
      <trkpt lat="42.339575970545411" lon="3.189616994932294">
        <ele>7.35</ele>
        <time>2025-05-15T14:34:00Z</time>
      </trkpt>
      <trkpt lat="42.339669009670615" lon="3.189575001597405">
        <ele>7.35</ele>
        <time>2025-05-15T14:34:01Z</time>
      </trkpt>
      <trkpt lat="42.339770011603832" lon="3.189526973292232">
        <ele>7.83</ele>
        <time>2025-05-15T14:34:02Z</time>
      </trkpt>
      <trkpt lat="42.339863972738385" lon="3.18943896330893">
        <ele>7.83</ele>
        <time>2025-05-15T14:34:03Z</time>
      </trkpt>
      <trkpt lat="42.340059019625187" lon="3.189257998019457">
        <ele>7.83</ele>
        <time>2025-05-15T14:34:05Z</time>
      </trkpt>
      <trkpt lat="42.340134959667921" lon="3.189144004136324">
        <ele>8.310000000000001</ele>
        <time>2025-05-15T14:34:06Z</time>
      </trkpt>
      <trkpt lat="42.34019698575139" lon="3.189011989161372">
        <ele>8.310000000000001</ele>
        <time>2025-05-15T14:34:07Z</time>
      </trkpt>
      <trkpt lat="42.340212995186448" lon="3.188858013600111">
        <ele>8.310000000000001</ele>
        <time>2025-05-15T14:34:08Z</time>
      </trkpt>
      <trkpt lat="42.340189022943377" lon="3.188709989190102">
        <ele>8.310000000000001</ele>
        <time>2025-05-15T14:34:09Z</time>
      </trkpt>
      <trkpt lat="42.34019597992301" lon="3.188567999750376">
        <ele>8.310000000000001</ele>
        <time>2025-05-15T14:34:10Z</time>
      </trkpt>
      <trkpt lat="42.340252976864576" lon="3.18846900947392">
        <ele>8.310000000000001</ele>
        <time>2025-05-15T14:34:11Z</time>
      </trkpt>
      <trkpt lat="42.340336041525006" lon="3.188411006703973">
        <ele>8.310000000000001</ele>
        <time>2025-05-15T14:34:12Z</time>
      </trkpt>
      <trkpt lat="42.340438971295953" lon="3.188353003934026">
        <ele>8.310000000000001</ele>
        <time>2025-05-15T14:34:13Z</time>
      </trkpt>
      <trkpt lat="42.340552965179086" lon="3.188364990055561">
        <ele>8.789999999999999</ele>
        <time>2025-05-15T14:34:14Z</time>
      </trkpt>
      <trkpt lat="42.340672994032502" lon="3.188379993662238">
        <ele>8.789999999999999</ele>
        <time>2025-05-15T14:34:15Z</time>
      </trkpt>
      <trkpt lat="42.340788999572396" lon="3.188396003097296">
        <ele>8.789999999999999</ele>
        <time>2025-05-15T14:34:16Z</time>
      </trkpt>
      <trkpt lat="42.340893018990755" lon="3.188353003934026">
        <ele>8.789999999999999</ele>
        <time>2025-05-15T14:34:17Z</time>
      </trkpt>
      <trkpt lat="42.340999972075224" lon="3.188295001164079">
        <ele>8.789999999999999</ele>
        <time>2025-05-15T14:34:18Z</time>
      </trkpt>
      <trkpt lat="42.341094017028809" lon="3.188215037807822">
        <ele>9.27</ele>
        <time>2025-05-15T14:34:19Z</time>
      </trkpt>
      <trkpt lat="42.341178003698587" lon="3.188114035874605">
        <ele>9.27</ele>
        <time>2025-05-15T14:34:20Z</time>
      </trkpt>
      <trkpt lat="42.341262996196747" lon="3.188010016456246">
        <ele>9.27</ele>
        <time>2025-05-15T14:34:21Z</time>
      </trkpt>
      <trkpt lat="42.341350000351667" lon="3.187904991209507">
        <ele>9.27</ele>
        <time>2025-05-15T14:34:22Z</time>
      </trkpt>
      <trkpt lat="42.341424012556672" lon="3.187789991497994">
        <ele>8.789999999999999</ele>
        <time>2025-05-15T14:34:23Z</time>
      </trkpt>
      <trkpt lat="42.341499030590057" lon="3.187672980129719">
        <ele>8.789999999999999</ele>
        <time>2025-05-15T14:34:24Z</time>
      </trkpt>
      <trkpt lat="42.341553010046482" lon="3.187549011781812">
        <ele>8.789999999999999</ele>
        <time>2025-05-15T14:34:25Z</time>
      </trkpt>
      <trkpt lat="42.341573964804411" lon="3.187398975715041">
        <ele>8.789999999999999</ele>
        <time>2025-05-15T14:34:26Z</time>
      </trkpt>
      <trkpt lat="42.341585028916597" lon="3.187256986275315">
        <ele>8.789999999999999</ele>
        <time>2025-05-15T14:34:27Z</time>
      </trkpt>
      <trkpt lat="42.341573964804411" lon="3.187109967693687">
        <ele>9.27</ele>
        <time>2025-05-15T14:34:28Z</time>
      </trkpt>
      <trkpt lat="42.341483021155" lon="3.186144037172198">
        <ele>9.75</ele>
        <time>2025-05-15T14:34:34Z</time>
      </trkpt>
      <trkpt lat="42.341459970921278" lon="3.185996012762189">
        <ele>10.23</ele>
        <time>2025-05-15T14:34:35Z</time>
      </trkpt>
      <trkpt lat="42.34137699007988" lon="3.185898028314114">
        <ele>10.23</ele>
        <time>2025-05-15T14:34:36Z</time>
      </trkpt>
      <trkpt lat="42.341237012296915" lon="3.185712033882737">
        <ele>10.710000000000001</ele>
        <time>2025-05-15T14:34:38Z</time>
      </trkpt>
      <trkpt lat="42.341211028397083" lon="3.185593010857701">
        <ele>11.19</ele>
        <time>2025-05-15T14:34:39Z</time>
      </trkpt>
      <trkpt lat="42.341215973719954" lon="3.185465019196272">
        <ele>11.19</ele>
        <time>2025-05-15T14:34:40Z</time>
      </trkpt>
      <trkpt lat="42.341255033388734" lon="3.185313977301121">
        <ele>11.19</ele>
        <time>2025-05-15T14:34:41Z</time>
      </trkpt>
      <trkpt lat="42.341299038380384" lon="3.185144998133183">
        <ele>11.19</ele>
        <time>2025-05-15T14:34:42Z</time>
      </trkpt>
      <trkpt lat="42.341343965381384" lon="3.184969983994961">
        <ele>11.19</ele>
        <time>2025-05-15T14:34:43Z</time>
      </trkpt>
      <trkpt lat="42.341363998129964" lon="3.184791030362248">
        <ele>11.19</ele>
        <time>2025-05-15T14:34:44Z</time>
      </trkpt>
      <trkpt lat="42.341328039765358" lon="3.184646023437381">
        <ele>11.19</ele>
        <time>2025-05-15T14:34:45Z</time>
      </trkpt>
      <trkpt lat="42.341266013681889" lon="3.184490036219358">
        <ele>11.19</ele>
        <time>2025-05-15T14:34:46Z</time>
      </trkpt>
      <trkpt lat="42.341167023405433" lon="3.184369001537561">
        <ele>11.67</ele>
        <time>2025-05-15T14:34:47Z</time>
      </trkpt>
      <trkpt lat="42.341045988723636" lon="3.184220977127552">
        <ele>11.67</ele>
        <time>2025-05-15T14:34:48Z</time>
      </trkpt>
      <trkpt lat="42.340831998735666" lon="3.183901961892843">
        <ele>11.19</ele>
        <time>2025-05-15T14:34:50Z</time>
      </trkpt>
      <trkpt lat="42.340772990137339" lon="3.183719990774989">
        <ele>11.19</ele>
        <time>2025-05-15T14:34:51Z</time>
      </trkpt>
      <trkpt lat="42.340772990137339" lon="3.183511029928923">
        <ele>10.710000000000001</ele>
        <time>2025-05-15T14:34:52Z</time>
      </trkpt>
      <trkpt lat="42.340772990137339" lon="3.183310031890869">
        <ele>10.23</ele>
        <time>2025-05-15T14:34:53Z</time>
      </trkpt>
      <trkpt lat="42.340837027877569" lon="3.183102998882532">
        <ele>10.23</ele>
        <time>2025-05-15T14:34:54Z</time>
      </trkpt>
      <trkpt lat="42.34090500511229" lon="3.182936031371355">
        <ele>9.75</ele>
        <time>2025-05-15T14:34:55Z</time>
      </trkpt>
      <trkpt lat="42.341017993167043" lon="3.182822959497571">
        <ele>9.27</ele>
        <time>2025-05-15T14:34:56Z</time>
      </trkpt>
      <trkpt lat="42.341156965121627" lon="3.182752970606089">
        <ele>8.789999999999999</ele>
        <time>2025-05-15T14:34:57Z</time>
      </trkpt>
      <trkpt lat="42.341330973431468" lon="3.182665966451168">
        <ele>8.310000000000001</ele>
        <time>2025-05-15T14:34:58Z</time>
      </trkpt>
      <trkpt lat="42.341449996456504" lon="3.182682981714606">
        <ele>8.310000000000001</ele>
        <time>2025-05-15T14:34:59Z</time>
      </trkpt>
      <trkpt lat="42.34161201864481" lon="3.182706031948328">
        <ele>8.310000000000001</ele>
        <time>2025-05-15T14:35:00Z</time>
      </trkpt>
      <trkpt lat="42.342949016019702" lon="3.182952040806413">
        <ele>13.6</ele>
        <time>2025-05-15T14:35:08Z</time>
      </trkpt>
      <trkpt lat="42.343071978539228" lon="3.183036027476192">
        <ele>14.08</ele>
        <time>2025-05-15T14:35:09Z</time>
      </trkpt>
      <trkpt lat="42.343189995735884" lon="3.183115990832448">
        <ele>14.56</ele>
        <time>2025-05-15T14:35:10Z</time>
      </trkpt>
      <trkpt lat="42.343297032639384" lon="3.183190003037453">
        <ele>15.039999999999999</ele>
        <time>2025-05-15T14:35:11Z</time>
      </trkpt>
      <trkpt lat="42.343381019309163" lon="3.183211041614413">
        <ele>15.039999999999999</ele>
        <time>2025-05-15T14:35:12Z</time>
      </trkpt>
      <trkpt lat="42.343497024849057" lon="3.183164019137621">
        <ele>15.52</ele>
        <time>2025-05-15T14:35:13Z</time>
      </trkpt>
      <trkpt lat="42.343614036217332" lon="3.183092018589377">
        <ele>16</ele>
        <time>2025-05-15T14:35:14Z</time>
      </trkpt>
      <trkpt lat="42.343730963766575" lon="3.182986993342638">
        <ele>16.48</ele>
        <time>2025-05-15T14:35:15Z</time>
      </trkpt>
      <trkpt lat="42.343865996226668" lon="3.182928990572691">
        <ele>16.960000000000001</ele>
        <time>2025-05-15T14:35:16Z</time>
      </trkpt>
      <trkpt lat="42.344013014808297" lon="3.182902000844479">
        <ele>17.440000000000001</ele>
        <time>2025-05-15T14:35:17Z</time>
      </trkpt>
      <trkpt lat="42.344132037833333" lon="3.182979030534625">
        <ele>17.440000000000001</ele>
        <time>2025-05-15T14:35:18Z</time>
      </trkpt>
      <trkpt lat="42.344259023666382" lon="3.183061005547643">
        <ele>17.920000000000002</ele>
        <time>2025-05-15T14:35:19Z</time>
      </trkpt>
      <trkpt lat="42.344377962872386" lon="3.183138035237789">
        <ele>18.399999999999999</ele>
        <time>2025-05-15T14:35:20Z</time>
      </trkpt>
      <trkpt lat="42.344495980069041" lon="3.183165024966002">
        <ele>19.359999999999999</ele>
        <time>2025-05-15T14:35:21Z</time>
      </trkpt>
      <trkpt lat="42.344604022800922" lon="3.18316200748086">
        <ele>19.359999999999999</ele>
        <time>2025-05-15T14:35:22Z</time>
      </trkpt>
      <trkpt lat="42.344721034169197" lon="3.183095036074519">
        <ele>19.84</ele>
        <time>2025-05-15T14:35:23Z</time>
      </trkpt>
      <trkpt lat="42.344791023060679" lon="3.182968972250819">
        <ele>19.84</ele>
        <time>2025-05-15T14:35:24Z</time>
      </trkpt>
      <trkpt lat="42.344870986416936" lon="3.182825976982713">
        <ele>20.32</ele>
        <time>2025-05-15T14:35:25Z</time>
      </trkpt>
      <trkpt lat="42.344949021935463" lon="3.182697985321283">
        <ele>20.809999999999999</ele>
        <time>2025-05-15T14:35:26Z</time>
      </trkpt>
      <trkpt lat="42.345041977241635" lon="3.182620033621788">
        <ele>20.809999999999999</ele>
        <time>2025-05-15T14:35:27Z</time>
      </trkpt>
      <trkpt lat="42.345145996659994" lon="3.182613998651505">
        <ele>21.289999999999999</ele>
        <time>2025-05-15T14:35:28Z</time>
      </trkpt>
      <trkpt lat="42.345263008028269" lon="3.182655991986394">
        <ele>22.25</ele>
        <time>2025-05-15T14:35:29Z</time>
      </trkpt>
      <trkpt lat="42.345372978597879" lon="3.182728998363018">
        <ele>23.210000000000001</ele>
        <time>2025-05-15T14:35:30Z</time>
      </trkpt>
      <trkpt lat="42.345472974702716" lon="3.182794963940978">
        <ele>23.690000000000001</ele>
        <time>2025-05-15T14:35:31Z</time>
      </trkpt>
      <trkpt lat="42.345590991899371" lon="3.182794963940978">
        <ele>24.649999999999999</ele>
        <time>2025-05-15T14:35:32Z</time>
      </trkpt>
      <trkpt lat="42.345714960247278" lon="3.182750958949328">
        <ele>25.129999999999999</ele>
        <time>2025-05-15T14:35:33Z</time>
      </trkpt>
      <trkpt lat="42.345840018242598" lon="3.182674013078213">
        <ele>25.609999999999999</ele>
        <time>2025-05-15T14:35:34Z</time>
      </trkpt>
      <trkpt lat="42.345972033217549" lon="3.182592038065195">
        <ele>26.09</ele>
        <time>2025-05-15T14:35:35Z</time>
      </trkpt>
      <trkpt lat="42.346692960709333" lon="3.182161040604115">
        <ele>30.420000000000002</ele>
        <time>2025-05-15T14:35:40Z</time>
      </trkpt>
      <trkpt lat="42.346858000382781" lon="3.182114018127322">
        <ele>30.899999999999999</ele>
        <time>2025-05-15T14:35:41Z</time>
      </trkpt>
      <trkpt lat="42.3470279853791" lon="3.18208702839911">
        <ele>31.859999999999999</ele>
        <time>2025-05-15T14:35:42Z</time>
      </trkpt>
      <trkpt lat="42.347995005548" lon="3.181963982060552">
        <ele>35.229999999999997</ele>
        <time>2025-05-15T14:35:48Z</time>
      </trkpt>
      <trkpt lat="42.348118973895907" lon="3.181902039796114">
        <ele>35.710000000000001</ele>
        <time>2025-05-15T14:35:49Z</time>
      </trkpt>
      <trkpt lat="42.348216036334634" lon="3.1817870400846">
        <ele>35.710000000000001</ele>
        <time>2025-05-15T14:35:50Z</time>
      </trkpt>
      <trkpt lat="42.348317038267851" lon="3.181667011231184">
        <ele>35.710000000000001</ele>
        <time>2025-05-15T14:35:51Z</time>
      </trkpt>
      <trkpt lat="42.34842399135232" lon="3.181540025398135">
        <ele>35.229999999999997</ele>
        <time>2025-05-15T14:35:52Z</time>
      </trkpt>
      <trkpt lat="42.348823975771666" lon="3.18090601824224">
        <ele>33.780000000000001</ele>
        <time>2025-05-15T14:35:56Z</time>
      </trkpt>
      <trkpt lat="42.348909974098206" lon="3.18073402158916">
        <ele>33.299999999999997</ele>
        <time>2025-05-15T14:35:57Z</time>
      </trkpt>
      <trkpt lat="42.348933024331927" lon="3.180542998015881">
        <ele>32.82</ele>
        <time>2025-05-15T14:35:58Z</time>
      </trkpt>
      <trkpt lat="42.348938975483179" lon="3.180346023291349">
        <ele>32.340000000000003</ele>
        <time>2025-05-15T14:35:59Z</time>
      </trkpt>
      <trkpt lat="42.348913997411728" lon="3.180150976404548">
        <ele>31.859999999999999</ele>
        <time>2025-05-15T14:36:00Z</time>
      </trkpt>
      <trkpt lat="42.348889019340277" lon="3.179954001680017">
        <ele>31.379999999999999</ele>
        <time>2025-05-15T14:36:01Z</time>
      </trkpt>
      <trkpt lat="42.348864963278174" lon="3.179770018905401">
        <ele>30.899999999999999</ele>
        <time>2025-05-15T14:36:02Z</time>
      </trkpt>
      <trkpt lat="42.348895976319909" lon="3.179629035294056">
        <ele>30.420000000000002</ele>
        <time>2025-05-15T14:36:03Z</time>
      </trkpt>
      <trkpt lat="42.348951967433095" lon="3.1795749720186">
        <ele>29.940000000000001</ele>
        <time>2025-05-15T14:36:04Z</time>
      </trkpt>
      <trkpt lat="42.349023967981339" lon="3.179539013653994">
        <ele>28.98</ele>
        <time>2025-05-15T14:36:05Z</time>
      </trkpt>
      <trkpt lat="42.34911298379302" lon="3.179529961198568">
        <ele>28.5</ele>
        <time>2025-05-15T14:36:06Z</time>
      </trkpt>
      <trkpt lat="42.349211974069476" lon="3.179580001160502">
        <ele>28.02</ele>
        <time>2025-05-15T14:36:07Z</time>
      </trkpt>
      <trkpt lat="42.349334014579654" lon="3.179641021415591">
        <ele>27.530000000000001</ele>
        <time>2025-05-15T14:36:08Z</time>
      </trkpt>
      <trkpt lat="42.349414983764291" lon="3.179620988667011">
        <ele>27.050000000000001</ele>
        <time>2025-05-15T14:36:09Z</time>
      </trkpt>
      <trkpt lat="42.349523026496172" lon="3.179568015038967">
        <ele>26.57</ele>
        <time>2025-05-15T14:36:10Z</time>
      </trkpt>
      <trkpt lat="42.349598966538906" lon="3.179433988407254">
        <ele>26.57</ele>
        <time>2025-05-15T14:36:11Z</time>
      </trkpt>
      <trkpt lat="42.349683959037066" lon="3.179284036159515">
        <ele>26.57</ele>
        <time>2025-05-15T14:36:12Z</time>
      </trkpt>
      <trkpt lat="42.349772974848747" lon="3.179127965122461">
        <ele>26.57</ele>
        <time>2025-05-15T14:36:13Z</time>
      </trkpt>
      <trkpt lat="42.350023007020354" lon="3.178653968498111">
        <ele>26.57</ele>
        <time>2025-05-15T14:36:16Z</time>
      </trkpt>
      <trkpt lat="42.350065000355244" lon="3.178464034572244">
        <ele>27.050000000000001</ele>
        <time>2025-05-15T14:36:17Z</time>
      </trkpt>
      <trkpt lat="42.350095007568598" lon="3.178266976028681">
        <ele>27.050000000000001</ele>
        <time>2025-05-15T14:36:18Z</time>
      </trkpt>
      <trkpt lat="42.350128032267094" lon="3.178052986040711">
        <ele>27.050000000000001</ele>
        <time>2025-05-15T14:36:19Z</time>
      </trkpt>
      <trkpt lat="42.350128032267094" lon="3.177837990224361">
        <ele>27.530000000000001</ele>
        <time>2025-05-15T14:36:20Z</time>
      </trkpt>
      <trkpt lat="42.350167008116841" lon="3.176548015326262">
        <ele>27.530000000000001</ele>
        <time>2025-05-15T14:36:26Z</time>
      </trkpt>
      <trkpt lat="42.350216964259744" lon="3.176412982866168">
        <ele>27.530000000000001</ele>
        <time>2025-05-15T14:36:27Z</time>
      </trkpt>
      <trkpt lat="42.350272033363581" lon="3.176324972882867">
        <ele>27.530000000000001</ele>
        <time>2025-05-15T14:36:28Z</time>
      </trkpt>
      <trkpt lat="42.350328024476767" lon="3.176305023953319">
        <ele>27.530000000000001</ele>
        <time>2025-05-15T14:36:29Z</time>
      </trkpt>
      <trkpt lat="42.350386027246714" lon="3.176293037831783">
        <ele>27.530000000000001</ele>
        <time>2025-05-15T14:36:30Z</time>
      </trkpt>
      <trkpt lat="42.350452998653054" lon="3.176342993974686">
        <ele>27.530000000000001</ele>
        <time>2025-05-15T14:36:31Z</time>
      </trkpt>
      <trkpt lat="42.350526005029678" lon="3.17639596760273">
        <ele>27.530000000000001</ele>
        <time>2025-05-15T14:36:32Z</time>
      </trkpt>
      <trkpt lat="42.350609991699457" lon="3.176457993686199">
        <ele>28.02</ele>
        <time>2025-05-15T14:36:33Z</time>
      </trkpt>
      <trkpt lat="42.350714011117816" lon="3.176531000062823">
        <ele>28.02</ele>
        <time>2025-05-15T14:36:34Z</time>
      </trkpt>
      <trkpt lat="42.350842002779245" lon="3.176563018932939">
        <ele>28.02</ele>
        <time>2025-05-15T14:36:35Z</time>
      </trkpt>
      <trkpt lat="42.350983992218971" lon="3.176552960649133">
        <ele>28.5</ele>
        <time>2025-05-15T14:36:36Z</time>
      </trkpt>
      <trkpt lat="42.351136039942503" lon="3.176523959264159">
        <ele>28.5</ele>
        <time>2025-05-15T14:36:37Z</time>
      </trkpt>
      <trkpt lat="42.351622022688389" lon="3.176399990916252">
        <ele>28.98</ele>
        <time>2025-05-15T14:36:40Z</time>
      </trkpt>
      <trkpt lat="42.351764012128115" lon="3.176291026175022">
        <ele>29.460000000000001</ele>
        <time>2025-05-15T14:36:41Z</time>
      </trkpt>
      <trkpt lat="42.351894015446305" lon="3.176174014806747">
        <ele>29.460000000000001</ele>
        <time>2025-05-15T14:36:42Z</time>
      </trkpt>
      <trkpt lat="42.352012032642961" lon="3.176041999831796">
        <ele>29.940000000000001</ele>
        <time>2025-05-15T14:36:43Z</time>
      </trkpt>
      <trkpt lat="42.352126026526093" lon="3.175915013998747">
        <ele>29.940000000000001</ele>
        <time>2025-05-15T14:36:44Z</time>
      </trkpt>
      <trkpt lat="42.352229962125421" lon="3.175777969881892">
        <ele>29.940000000000001</ele>
        <time>2025-05-15T14:36:45Z</time>
      </trkpt>
      <trkpt lat="42.352310009300709" lon="3.175606979057193">
        <ele>29.940000000000001</ele>
        <time>2025-05-15T14:36:46Z</time>
      </trkpt>
      <trkpt lat="42.352691972628236" lon="3.174796029925346">
        <ele>30.420000000000002</ele>
        <time>2025-05-15T14:36:51Z</time>
      </trkpt>
      <trkpt lat="42.352783000096679" lon="3.174708019942045">
        <ele>30.420000000000002</ele>
        <time>2025-05-15T14:36:52Z</time>
      </trkpt>
      <trkpt lat="42.352888025343418" lon="3.174672983586788">
        <ele>29.940000000000001</ele>
        <time>2025-05-15T14:36:53Z</time>
      </trkpt>
      <trkpt lat="42.353005036711693" lon="3.174640964716673">
        <ele>29.940000000000001</ele>
        <time>2025-05-15T14:36:54Z</time>
      </trkpt>
      <trkpt lat="42.353137973695993" lon="3.174640964716673">
        <ele>29.940000000000001</ele>
        <time>2025-05-15T14:36:55Z</time>
      </trkpt>
      <trkpt lat="42.3532809689641" lon="3.174640964716673">
        <ele>29.460000000000001</ele>
        <time>2025-05-15T14:36:56Z</time>
      </trkpt>
      <trkpt lat="42.353434022516012" lon="3.174601988866925">
        <ele>29.460000000000001</ele>
        <time>2025-05-15T14:36:57Z</time>
      </trkpt>
      <trkpt lat="42.353586992248893" lon="3.174534011632204">
        <ele>28.98</ele>
        <time>2025-05-15T14:36:58Z</time>
      </trkpt>
      <trkpt lat="42.353733005002141" lon="3.174469973891974">
        <ele>28.98</ele>
        <time>2025-05-15T14:36:59Z</time>
      </trkpt>
      <trkpt lat="42.35384096391499" lon="3.174337958917022">
        <ele>28.98</ele>
        <time>2025-05-15T14:37:00Z</time>
      </trkpt>
      <trkpt lat="42.353950012475252" lon="3.174190018326044">
        <ele>28.5</ele>
        <time>2025-05-15T14:37:01Z</time>
      </trkpt>
      <trkpt lat="42.354043973609805" lon="3.174012992531061">
        <ele>28.5</ele>
        <time>2025-05-15T14:37:02Z</time>
      </trkpt>
      <trkpt lat="42.354236003011465" lon="3.173655001446605">
        <ele>27.530000000000001</ele>
        <time>2025-05-15T14:37:04Z</time>
      </trkpt>
      <trkpt lat="42.354292999953032" lon="3.173459032550454">
        <ele>27.530000000000001</ele>
        <time>2025-05-15T14:37:05Z</time>
      </trkpt>
      <trkpt lat="42.354341028258204" lon="3.173277983441949">
        <ele>27.530000000000001</ele>
        <time>2025-05-15T14:37:06Z</time>
      </trkpt>
      <trkpt lat="42.354365000501275" lon="3.173100035637617">
        <ele>27.050000000000001</ele>
        <time>2025-05-15T14:37:07Z</time>
      </trkpt>
      <trkpt lat="42.354322001338005" lon="3.172948993742466">
        <ele>27.530000000000001</ele>
        <time>2025-05-15T14:37:08Z</time>
      </trkpt>
      <trkpt lat="42.354274978861213" lon="3.17278697155416">
        <ele>27.530000000000001</ele>
        <time>2025-05-15T14:37:09Z</time>
      </trkpt>
      <trkpt lat="42.35422502271831" lon="3.172615980729461">
        <ele>27.530000000000001</ele>
        <time>2025-05-15T14:37:10Z</time>
      </trkpt>
      <trkpt lat="42.354172971099615" lon="3.172437027096748">
        <ele>27.530000000000001</ele>
        <time>2025-05-15T14:37:11Z</time>
      </trkpt>
      <trkpt lat="42.354148998856544" lon="3.172254972159863">
        <ele>27.530000000000001</ele>
        <time>2025-05-15T14:37:12Z</time>
      </trkpt>
      <trkpt lat="42.354171965271235" lon="3.172064032405615">
        <ele>27.530000000000001</ele>
        <time>2025-05-15T14:37:13Z</time>
      </trkpt>
      <trkpt lat="42.354312026873231" lon="3.171272026374936">
        <ele>27.050000000000001</ele>
        <time>2025-05-15T14:37:17Z</time>
      </trkpt>
      <trkpt lat="42.354325018823147" lon="3.171078991144896">
        <ele>26.57</ele>
        <time>2025-05-15T14:37:18Z</time>
      </trkpt>
      <trkpt lat="42.354314960539341" lon="3.170892996713519">
        <ele>26.57</ele>
        <time>2025-05-15T14:37:19Z</time>
      </trkpt>
      <trkpt lat="42.354259975254536" lon="3.17072200588882">
        <ele>26.09</ele>
        <time>2025-05-15T14:37:20Z</time>
      </trkpt>
      <trkpt lat="42.354202978312969" lon="3.170544980093837">
        <ele>26.09</ele>
        <time>2025-05-15T14:37:21Z</time>
      </trkpt>
      <trkpt lat="42.354143969714642" lon="3.170364014804363">
        <ele>25.609999999999999</ele>
        <time>2025-05-15T14:37:22Z</time>
      </trkpt>
      <trkpt lat="42.353876000270247" lon="3.169473018497229">
        <ele>24.649999999999999</ele>
        <time>2025-05-15T14:37:27Z</time>
      </trkpt>
      <trkpt lat="42.353870971128345" lon="3.169351983815432">
        <ele>24.649999999999999</ele>
        <time>2025-05-15T14:37:28Z</time>
      </trkpt>
      <trkpt lat="42.353889998048544" lon="3.169250981882215">
        <ele>24.170000000000002</ele>
        <time>2025-05-15T14:37:29Z</time>
      </trkpt>
      <trkpt lat="42.353957975283265" lon="3.169207982718945">
        <ele>24.170000000000002</ele>
        <time>2025-05-15T14:37:30Z</time>
      </trkpt>
      <trkpt lat="42.354057971388102" lon="3.169149979948998">
        <ele>23.690000000000001</ele>
        <time>2025-05-15T14:37:31Z</time>
      </trkpt>
      <trkpt lat="42.354151010513306" lon="3.169203037396073">
        <ele>23.690000000000001</ele>
        <time>2025-05-15T14:37:32Z</time>
      </trkpt>
      <trkpt lat="42.354261986911297" lon="3.169304961338639">
        <ele>23.690000000000001</ele>
        <time>2025-05-15T14:37:33Z</time>
      </trkpt>
      <trkpt lat="42.354361983016133" lon="3.169428007677198">
        <ele>23.690000000000001</ele>
        <time>2025-05-15T14:37:34Z</time>
      </trkpt>
      <trkpt lat="42.354928012937307" lon="3.170095039531589">
        <ele>23.210000000000001</ele>
        <time>2025-05-15T14:37:40Z</time>
      </trkpt>
      <trkpt lat="42.35499900765717" lon="3.170156981796026">
        <ele>23.210000000000001</ele>
        <time>2025-05-15T14:37:41Z</time>
      </trkpt>
      <trkpt lat="42.355065979063511" lon="3.170147007331252">
        <ele>23.690000000000001</ele>
        <time>2025-05-15T14:37:42Z</time>
      </trkpt>
      <trkpt lat="42.355153989046812" lon="3.170132003724575">
        <ele>23.210000000000001</ele>
        <time>2025-05-15T14:37:43Z</time>
      </trkpt>
      <trkpt lat="42.355278041213751" lon="3.170049022883177">
        <ele>23.210000000000001</ele>
        <time>2025-05-15T14:37:44Z</time>
      </trkpt>
      <trkpt lat="42.355336965993047" lon="3.169980039820075">
        <ele>22.73</ele>
        <time>2025-05-15T14:37:45Z</time>
      </trkpt>
      <trkpt lat="42.355511980131269" lon="3.169774012640119">
        <ele>22.25</ele>
        <time>2025-05-15T14:37:47Z</time>
      </trkpt>
      <trkpt lat="42.355593033134937" lon="3.169678039848805">
        <ele>22.25</ele>
        <time>2025-05-15T14:37:48Z</time>
      </trkpt>
      <trkpt lat="42.35566302202642" lon="3.169577037915587">
        <ele>22.25</ele>
        <time>2025-05-15T14:37:49Z</time>
      </trkpt>
      <trkpt lat="42.355715995654464" lon="3.169461032375693">
        <ele>21.77</ele>
        <time>2025-05-15T14:37:50Z</time>
      </trkpt>
      <trkpt lat="42.35577299259603" lon="3.169329017400742">
        <ele>21.77</ele>
        <time>2025-05-15T14:37:51Z</time>
      </trkpt>
      <trkpt lat="42.355785984545946" lon="3.169181998819113">
        <ele>21.289999999999999</ele>
        <time>2025-05-15T14:37:52Z</time>
      </trkpt>
      <trkpt lat="42.355799982324243" lon="3.169031040742993">
        <ele>21.289999999999999</ele>
        <time>2025-05-15T14:37:53Z</time>
      </trkpt>
      <trkpt lat="42.355812974274158" lon="3.168884022161365">
        <ele>21.289999999999999</ele>
        <time>2025-05-15T14:37:54Z</time>
      </trkpt>
      <trkpt lat="42.355825966224074" lon="3.168739015236497">
        <ele>20.809999999999999</ele>
        <time>2025-05-15T14:37:55Z</time>
      </trkpt>
      <trkpt lat="42.355847004801035" lon="3.168602976948023">
        <ele>20.32</ele>
        <time>2025-05-15T14:37:56Z</time>
      </trkpt>
      <trkpt lat="42.356228968128562" lon="3.167555993422866">
        <ele>19.359999999999999</ele>
        <time>2025-05-15T14:38:02Z</time>
      </trkpt>
      <trkpt lat="42.356284037232399" lon="3.167373016476631">
        <ele>19.359999999999999</ele>
        <time>2025-05-15T14:38:03Z</time>
      </trkpt>
      <trkpt lat="42.356328964233398" lon="3.167207976803184">
        <ele>19.359999999999999</ele>
        <time>2025-05-15T14:38:04Z</time>
      </trkpt>
      <trkpt lat="42.356342040002346" lon="3.167058024555445">
        <ele>19.84</ele>
        <time>2025-05-15T14:38:05Z</time>
      </trkpt>
      <trkpt lat="42.35630901530385" lon="3.166777985170484">
        <ele>20.32</ele>
        <time>2025-05-15T14:38:07Z</time>
      </trkpt>
      <trkpt lat="42.356342962011695" lon="3.166648987680674">
        <ele>20.32</ele>
        <time>2025-05-15T14:38:08Z</time>
      </trkpt>
      <trkpt lat="42.356387972831726" lon="3.166543040424585">
        <ele>19.84</ele>
        <time>2025-05-15T14:38:09Z</time>
      </trkpt>
      <trkpt lat="42.35648000612855" lon="3.166486965492368">
        <ele>19.84</ele>
        <time>2025-05-15T14:38:10Z</time>
      </trkpt>
      <trkpt lat="42.356558041647077" lon="3.166486965492368">
        <ele>19.84</ele>
        <time>2025-05-15T14:38:11Z</time>
      </trkpt>
      <trkpt lat="42.356669018045068" lon="3.166503980755806">
        <ele>19.84</ele>
        <time>2025-05-15T14:38:12Z</time>
      </trkpt>
      <trkpt lat="42.356778988614678" lon="3.16655301488936">
        <ele>20.32</ele>
        <time>2025-05-15T14:38:13Z</time>
      </trkpt>
      <trkpt lat="42.357181990519166" lon="3.166731968522072">
        <ele>20.32</ele>
        <time>2025-05-15T14:38:17Z</time>
      </trkpt>
      <trkpt lat="42.357267988845706" lon="3.166722999885678">
        <ele>20.809999999999999</ele>
        <time>2025-05-15T14:38:18Z</time>
      </trkpt>
      <trkpt lat="42.357363039627671" lon="3.166687041521072">
        <ele>20.32</ele>
        <time>2025-05-15T14:38:19Z</time>
      </trkpt>
      <trkpt lat="42.357461024075747" lon="3.166650999337435">
        <ele>20.809999999999999</ele>
        <time>2025-05-15T14:38:20Z</time>
      </trkpt>
      <trkpt lat="42.357561020180583" lon="3.166609006002545">
        <ele>20.809999999999999</ele>
        <time>2025-05-15T14:38:21Z</time>
      </trkpt>
      <trkpt lat="42.357650035992265" lon="3.166534993797541">
        <ele>20.809999999999999</ele>
        <time>2025-05-15T14:38:22Z</time>
      </trkpt>
      <trkpt lat="42.358598029240966" lon="3.16578296944499">
        <ele>19.84</ele>
        <time>2025-05-15T14:38:31Z</time>
      </trkpt>
      <trkpt lat="42.358764996752143" lon="3.165597980841994">
        <ele>19.359999999999999</ele>
        <time>2025-05-15T14:38:33Z</time>
      </trkpt>
      <trkpt lat="42.358883013948798" lon="3.165388014167547">
        <ele>18.879999999999999</ele>
        <time>2025-05-15T14:38:35Z</time>
      </trkpt>
      <trkpt lat="42.358916960656643" lon="3.165260022506118">
        <ele>18.399999999999999</ele>
        <time>2025-05-15T14:38:36Z</time>
      </trkpt>
      <trkpt lat="42.358935987576842" lon="3.165130019187927">
        <ele>17.920000000000002</ele>
        <time>2025-05-15T14:38:37Z</time>
      </trkpt>
      <trkpt lat="42.358926013112068" lon="3.164977971464396">
        <ele>17.440000000000001</ele>
        <time>2025-05-15T14:38:38Z</time>
      </trkpt>
      <trkpt lat="42.358883013948798" lon="3.164831958711147">
        <ele>17.440000000000001</ele>
        <time>2025-05-15T14:38:39Z</time>
      </trkpt>
      <trkpt lat="42.358839008957148" lon="3.164679994806647">
        <ele>16.960000000000001</ele>
        <time>2025-05-15T14:38:40Z</time>
      </trkpt>
      <trkpt lat="42.358795003965497" lon="3.164532976225019">
        <ele>16.960000000000001</ele>
        <time>2025-05-15T14:38:41Z</time>
      </trkpt>
      <trkpt lat="42.358758961781859" lon="3.164408002048731">
        <ele>16.960000000000001</ele>
        <time>2025-05-15T14:38:42Z</time>
      </trkpt>
      <trkpt lat="42.358732977882028" lon="3.16431999206543">
        <ele>16.48</ele>
        <time>2025-05-15T14:38:43Z</time>
      </trkpt>
      <trkpt lat="42.35875996761024" lon="3.164200969040394">
        <ele>16.48</ele>
        <time>2025-05-15T14:38:44Z</time>
      </trkpt>
      <trkpt lat="42.358783017843962" lon="3.164103990420699">
        <ele>16.48</ele>
        <time>2025-05-15T14:38:45Z</time>
      </trkpt>
      <trkpt lat="42.358827022835612" lon="3.164023021236062">
        <ele>16.48</ele>
        <time>2025-05-15T14:38:46Z</time>
      </trkpt>
      <trkpt lat="42.358907992020249" lon="3.16397700458765">
        <ele>16.960000000000001</ele>
        <time>2025-05-15T14:38:47Z</time>
      </trkpt>
      <trkpt lat="42.358984015882015" lon="3.163994019851089">
        <ele>16.960000000000001</ele>
        <time>2025-05-15T14:38:48Z</time>
      </trkpt>
      <trkpt lat="42.359064985066652" lon="3.164011035114527">
        <ele>16.960000000000001</ele>
        <time>2025-05-15T14:38:49Z</time>
      </trkpt>
      <trkpt lat="42.359146038070321" lon="3.164027966558933">
        <ele>16.960000000000001</ele>
        <time>2025-05-15T14:38:50Z</time>
      </trkpt>
      <trkpt lat="42.359224995598197" lon="3.164032995700836">
        <ele>16.960000000000001</ele>
        <time>2025-05-15T14:38:51Z</time>
      </trkpt>
      <trkpt lat="42.359311999753118" lon="3.163997959345579">
        <ele>16.960000000000001</ele>
        <time>2025-05-15T14:38:52Z</time>
      </trkpt>
      <trkpt lat="42.359365979209542" lon="3.163923025131226">
        <ele>17.440000000000001</ele>
        <time>2025-05-15T14:38:53Z</time>
      </trkpt>
      <trkpt lat="42.359420964494348" lon="3.163809031248093">
        <ele>17.920000000000002</ele>
        <time>2025-05-15T14:38:54Z</time>
      </trkpt>
      <trkpt lat="42.359428005293012" lon="3.163686990737915">
        <ele>18.399999999999999</ele>
        <time>2025-05-15T14:38:55Z</time>
      </trkpt>
      <trkpt lat="42.359434962272644" lon="3.163558999076486">
        <ele>18.879999999999999</ele>
        <time>2025-05-15T14:38:56Z</time>
      </trkpt>
      <trkpt lat="42.359629003331065" lon="3.162160981446505">
        <ele>19.359999999999999</ele>
        <time>2025-05-15T14:39:06Z</time>
      </trkpt>
      <trkpt lat="42.359675019979477" lon="3.16204103641212">
        <ele>19.359999999999999</ele>
        <time>2025-05-15T14:39:07Z</time>
      </trkpt>
      <trkpt lat="42.359736962243915" lon="3.161942968145013">
        <ele>19.359999999999999</ele>
        <time>2025-05-15T14:39:08Z</time>
      </trkpt>
      <trkpt lat="42.359822038561106" lon="3.16187197342515">
        <ele>19.359999999999999</ele>
        <time>2025-05-15T14:39:09Z</time>
      </trkpt>
      <trkpt lat="42.359920023009181" lon="3.161859987303615">
        <ele>19.359999999999999</ele>
        <time>2025-05-15T14:39:10Z</time>
      </trkpt>
      <trkpt lat="42.360019013285637" lon="3.161874990910292">
        <ele>19.359999999999999</ele>
        <time>2025-05-15T14:39:11Z</time>
      </trkpt>
      <trkpt lat="42.360105011612177" lon="3.161922013387084">
        <ele>19.359999999999999</ele>
        <time>2025-05-15T14:39:12Z</time>
      </trkpt>
      <trkpt lat="42.360190004110336" lon="3.161968030035496">
        <ele>19.359999999999999</ele>
        <time>2025-05-15T14:39:13Z</time>
      </trkpt>
      <trkpt lat="42.360277008265257" lon="3.161971969529986">
        <ele>18.879999999999999</ele>
        <time>2025-05-15T14:39:14Z</time>
      </trkpt>
      <trkpt lat="42.360367029905319" lon="3.161959983408451">
        <ele>18.879999999999999</ele>
        <time>2025-05-15T14:39:15Z</time>
      </trkpt>
      <trkpt lat="42.360530979931355" lon="3.161937016993761">
        <ele>18.879999999999999</ele>
        <time>2025-05-15T14:39:17Z</time>
      </trkpt>
      <trkpt lat="42.360612032935023" lon="3.161926036700606">
        <ele>18.879999999999999</ele>
        <time>2025-05-15T14:39:18Z</time>
      </trkpt>
      <trkpt lat="42.360763996839523" lon="3.161904998123646">
        <ele>19.359999999999999</ele>
        <time>2025-05-15T14:39:20Z</time>
      </trkpt>
      <trkpt lat="42.36084396019578" lon="3.161886977031827">
        <ele>19.359999999999999</ele>
        <time>2025-05-15T14:39:21Z</time>
      </trkpt>
      <trkpt lat="42.360905986279249" lon="3.161824028939009">
        <ele>20.32</ele>
        <time>2025-05-15T14:39:22Z</time>
      </trkpt>
      <trkpt lat="42.360963989049196" lon="3.161743981763721">
        <ele>20.809999999999999</ele>
        <time>2025-05-15T14:39:23Z</time>
      </trkpt>
      <trkpt lat="42.361007994040847" lon="3.161648008972406">
        <ele>21.77</ele>
        <time>2025-05-15T14:39:24Z</time>
      </trkpt>
      <trkpt lat="42.361092986539006" lon="3.161466037854552">
        <ele>22.73</ele>
        <time>2025-05-15T14:39:26Z</time>
      </trkpt>
      <trkpt lat="42.361151995137334" lon="3.161417003720999">
        <ele>23.210000000000001</ele>
        <time>2025-05-15T14:39:27Z</time>
      </trkpt>
      <trkpt lat="42.361221984028816" lon="3.161359000951052">
        <ele>23.210000000000001</ele>
        <time>2025-05-15T14:39:28Z</time>
      </trkpt>
      <trkpt lat="42.361303037032485" lon="3.161367969587445">
        <ele>23.210000000000001</ele>
        <time>2025-05-15T14:39:29Z</time>
      </trkpt>
      <trkpt lat="42.361415019258857" lon="3.161380039528012">
        <ele>23.690000000000001</ele>
        <time>2025-05-15T14:39:30Z</time>
      </trkpt>
      <trkpt lat="42.361471010372043" lon="3.161427984014154">
        <ele>23.690000000000001</ele>
        <time>2025-05-15T14:39:31Z</time>
      </trkpt>
      <trkpt lat="42.361532030627131" lon="3.161480035632849">
        <ele>23.690000000000001</ele>
        <time>2025-05-15T14:39:32Z</time>
      </trkpt>
      <trkpt lat="42.361582992598414" lon="3.161524040624499">
        <ele>24.170000000000002</ele>
        <time>2025-05-15T14:39:33Z</time>
      </trkpt>
      <trkpt lat="42.361635966226459" lon="3.161569973453879">
        <ele>24.170000000000002</ele>
        <time>2025-05-15T14:39:34Z</time>
      </trkpt>
      <trkpt lat="42.361715007573366" lon="3.161638034507632">
        <ele>24.649999999999999</ele>
        <time>2025-05-15T14:39:35Z</time>
      </trkpt>
      <trkpt lat="42.361759012565017" lon="3.161645997315645">
        <ele>24.649999999999999</ele>
        <time>2025-05-15T14:39:36Z</time>
      </trkpt>
      <trkpt lat="42.361825983971357" lon="3.161655971780419">
        <ele>24.649999999999999</ele>
        <time>2025-05-15T14:39:37Z</time>
      </trkpt>
      <trkpt lat="42.361888010054827" lon="3.161607021465898">
        <ele>24.649999999999999</ele>
        <time>2025-05-15T14:39:38Z</time>
      </trkpt>
      <trkpt lat="42.36193897202611" lon="3.161540972068906">
        <ele>24.649999999999999</ele>
        <time>2025-05-15T14:39:39Z</time>
      </trkpt>
      <trkpt lat="42.361967973411083" lon="3.161438964307308">
        <ele>24.170000000000002</ele>
        <time>2025-05-15T14:39:40Z</time>
      </trkpt>
      <trkpt lat="42.361964033916593" lon="3.161322036758065">
        <ele>24.649999999999999</ele>
        <time>2025-05-15T14:39:41Z</time>
      </trkpt>
      <trkpt lat="42.361952969804406" lon="3.161207959055901">
        <ele>24.170000000000002</ele>
        <time>2025-05-15T14:39:42Z</time>
      </trkpt>
      <trkpt lat="42.361942995339632" lon="3.16109798848629">
        <ele>24.649999999999999</ele>
        <time>2025-05-15T14:39:43Z</time>
      </trkpt>
      <trkpt lat="42.361934026703238" lon="3.160991035401821">
        <ele>24.649999999999999</ele>
        <time>2025-05-15T14:39:44Z</time>
      </trkpt>
      <trkpt lat="42.361945006996393" lon="3.160877041518688">
        <ele>24.649999999999999</ele>
        <time>2025-05-15T14:39:45Z</time>
      </trkpt>
      <trkpt lat="42.361965961754322" lon="3.160770004615188">
        <ele>24.649999999999999</ele>
        <time>2025-05-15T14:39:46Z</time>
      </trkpt>
      <trkpt lat="42.362021030858159" lon="3.160663973540068">
        <ele>24.649999999999999</ele>
        <time>2025-05-15T14:39:47Z</time>
      </trkpt>
      <trkpt lat="42.362086996436119" lon="3.160565989091992">
        <ele>24.649999999999999</ele>
        <time>2025-05-15T14:39:48Z</time>
      </trkpt>
      <trkpt lat="42.362143993377686" lon="3.160478984937072">
        <ele>24.170000000000002</ele>
        <time>2025-05-15T14:39:49Z</time>
      </trkpt>
      <trkpt lat="42.362251030281186" lon="3.160400027409196">
        <ele>23.690000000000001</ele>
        <time>2025-05-15T14:39:50Z</time>
      </trkpt>
      <trkpt lat="42.362338034436107" lon="3.160333978012204">
        <ele>23.210000000000001</ele>
        <time>2025-05-15T14:39:51Z</time>
      </trkpt>
      <trkpt lat="42.362440964207053" lon="3.160292990505695">
        <ele>22.73</ele>
        <time>2025-05-15T14:39:52Z</time>
      </trkpt>
      <trkpt lat="42.36254096031189" lon="3.160312017425895">
        <ele>22.73</ele>
        <time>2025-05-15T14:39:53Z</time>
      </trkpt>
      <trkpt lat="42.362638022750616" lon="3.160330038517714">
        <ele>22.25</ele>
        <time>2025-05-15T14:39:54Z</time>
      </trkpt>
      <trkpt lat="42.362723015248775" lon="3.16034596413374">
        <ele>21.77</ele>
        <time>2025-05-15T14:39:55Z</time>
      </trkpt>
      <trkpt lat="42.362800966948271" lon="3.160343030467629">
        <ele>21.289999999999999</ele>
        <time>2025-05-15T14:39:56Z</time>
      </trkpt>
      <trkpt lat="42.362896017730236" lon="3.160329032689333">
        <ele>20.809999999999999</ele>
        <time>2025-05-15T14:39:57Z</time>
      </trkpt>
      <trkpt lat="42.362954020500183" lon="3.160263989120722">
        <ele>20.32</ele>
        <time>2025-05-15T14:39:58Z</time>
      </trkpt>
      <trkpt lat="42.363023003563285" lon="3.160186959430575">
        <ele>19.84</ele>
        <time>2025-05-15T14:39:59Z</time>
      </trkpt>
      <trkpt lat="42.363088969141245" lon="3.160114036872983">
        <ele>19.359999999999999</ele>
        <time>2025-05-15T14:40:00Z</time>
      </trkpt>
      <trkpt lat="42.363167004659772" lon="3.160036001354456">
        <ele>18.879999999999999</ele>
        <time>2025-05-15T14:40:01Z</time>
      </trkpt>
      <trkpt lat="42.363245962187648" lon="3.159977998584509">
        <ele>18.399999999999999</ele>
        <time>2025-05-15T14:40:02Z</time>
      </trkpt>
      <trkpt lat="42.36333497799933" lon="3.1599560379982">
        <ele>17.920000000000002</ele>
        <time>2025-05-15T14:40:03Z</time>
      </trkpt>
      <trkpt lat="42.363431034609675" lon="3.159951008856297">
        <ele>17.440000000000001</ele>
        <time>2025-05-15T14:40:04Z</time>
      </trkpt>
      <trkpt lat="42.36352801322937" lon="3.159969029948115">
        <ele>16.960000000000001</ele>
        <time>2025-05-15T14:40:05Z</time>
      </trkpt>
      <trkpt lat="42.363625997677445" lon="3.159987973049283">
        <ele>16.48</ele>
        <time>2025-05-15T14:40:06Z</time>
      </trkpt>
      <trkpt lat="42.363822972401977" lon="3.160025021061301">
        <ele>15.52</ele>
        <time>2025-05-15T14:40:08Z</time>
      </trkpt>
      <trkpt lat="42.363918023183942" lon="3.160074977204204">
        <ele>15.039999999999999</ele>
        <time>2025-05-15T14:40:09Z</time>
      </trkpt>
      <trkpt lat="42.363995974883437" lon="3.160161981359124">
        <ele>14.56</ele>
        <time>2025-05-15T14:40:10Z</time>
      </trkpt>
      <trkpt lat="42.364065041765571" lon="3.160264994949102">
        <ele>14.08</ele>
        <time>2025-05-15T14:40:11Z</time>
      </trkpt>
      <trkpt lat="42.364123966544867" lon="3.160383012145758">
        <ele>13.6</ele>
        <time>2025-05-15T14:40:12Z</time>
      </trkpt>
      <trkpt lat="42.364514982327819" lon="3.161168983206153">
        <ele>10.23</ele>
        <time>2025-05-15T14:40:18Z</time>
      </trkpt>
      <trkpt lat="42.364568961784244" lon="3.161273002624512">
        <ele>9.75</ele>
        <time>2025-05-15T14:40:19Z</time>
      </trkpt>
      <trkpt lat="42.364655965939164" lon="3.161320025101304">
        <ele>9.27</ele>
        <time>2025-05-15T14:40:20Z</time>
      </trkpt>
      <trkpt lat="42.364761997014284" lon="3.161337040364742">
        <ele>8.789999999999999</ele>
        <time>2025-05-15T14:40:21Z</time>
      </trkpt>
      <trkpt lat="42.364853024482727" lon="3.161303009837866">
        <ele>8.310000000000001</ele>
        <time>2025-05-15T14:40:22Z</time>
      </trkpt>
      <trkpt lat="42.365823984146118" lon="3.160930015146732">
        <ele>2.54</ele>
        <time>2025-05-15T14:40:31Z</time>
      </trkpt>
      <trkpt lat="42.366809025406837" lon="3.160335989668965">
        <ele>-0.82</ele>
        <time>2025-05-15T14:40:40Z</time>
      </trkpt>
      <trkpt lat="42.366995019838214" lon="3.16017396748066">
        <ele>-1.3</ele>
        <time>2025-05-15T14:40:42Z</time>
      </trkpt>
      <trkpt lat="42.367079006507993" lon="3.160080006346107">
        <ele>-1.3</ele>
        <time>2025-05-15T14:40:43Z</time>
      </trkpt>
      <trkpt lat="42.367170033976436" lon="3.159977998584509">
        <ele>-1.3</ele>
        <time>2025-05-15T14:40:44Z</time>
      </trkpt>
      <trkpt lat="42.367649981752038" lon="3.159247012808919">
        <ele>-1.79</ele>
        <time>2025-05-15T14:40:50Z</time>
      </trkpt>
      <trkpt lat="42.368048960343003" lon="3.158642007037997">
        <ele>-3.23</ele>
        <time>2025-05-15T14:40:55Z</time>
      </trkpt>
      <trkpt lat="42.368264961987734" lon="3.158244034275413">
        <ele>-3.71</ele>
        <time>2025-05-15T14:40:58Z</time>
      </trkpt>
      <trkpt lat="42.368305027484894" lon="3.158116964623332">
        <ele>-3.71</ele>
        <time>2025-05-15T14:40:59Z</time>
      </trkpt>
      <trkpt lat="42.368308966979384" lon="3.15796097740531">
        <ele>-3.71</ele>
        <time>2025-05-15T14:41:00Z</time>
      </trkpt>
      <trkpt lat="42.368264039978385" lon="3.157838014885783">
        <ele>-3.71</ele>
        <time>2025-05-15T14:41:01Z</time>
      </trkpt>
      <trkpt lat="42.368219029158354" lon="3.157736007124186">
        <ele>-4.19</ele>
        <time>2025-05-15T14:41:02Z</time>
      </trkpt>
      <trkpt lat="42.368177035823464" lon="3.157641962170601">
        <ele>-4.19</ele>
        <time>2025-05-15T14:41:03Z</time>
      </trkpt>
      <trkpt lat="42.368131019175053" lon="3.157539032399654">
        <ele>-4.19</ele>
        <time>2025-05-15T14:41:04Z</time>
      </trkpt>
      <trkpt lat="42.368072010576725" lon="3.157420009374619">
        <ele>-5.15</ele>
        <time>2025-05-15T14:41:06Z</time>
      </trkpt>
      <trkpt lat="42.36801702529192" lon="3.157302998006344">
        <ele>-5.63</ele>
        <time>2025-05-15T14:41:08Z</time>
      </trkpt>
      <trkpt lat="42.368000010028481" lon="3.157246001064777">
        <ele>-5.63</ele>
        <time>2025-05-15T14:41:09Z</time>
      </trkpt>
      <trkpt lat="42.367960028350353" lon="3.157109962776303">
        <ele>-5.63</ele>
        <time>2025-05-15T14:41:10Z</time>
      </trkpt>
      <trkpt lat="42.367991041392088" lon="3.157054977491498">
        <ele>-6.11</ele>
        <time>2025-05-15T14:41:11Z</time>
      </trkpt>
      <trkpt lat="42.368028005585074" lon="3.156990017741919">
        <ele>-6.59</ele>
        <time>2025-05-15T14:41:12Z</time>
      </trkpt>
      <trkpt lat="42.3681699950248" lon="3.157031005248427">
        <ele>-6.59</ele>
        <time>2025-05-15T14:41:13Z</time>
      </trkpt>
      <trkpt lat="42.368195978924632" lon="3.157046008855104">
        <ele>-7.07</ele>
        <time>2025-05-15T14:41:14Z</time>
      </trkpt>
      <trkpt lat="42.368295975029469" lon="3.157158996909857">
        <ele>-7.55</ele>
        <time>2025-05-15T14:41:15Z</time>
      </trkpt>
      <trkpt lat="42.368367975577712" lon="3.157240971922875">
        <ele>-7.55</ele>
        <time>2025-05-15T14:41:16Z</time>
      </trkpt>
      <trkpt lat="42.368761003017426" lon="3.157765008509159">
        <ele>-10.44</ele>
        <time>2025-05-15T14:41:23Z</time>
      </trkpt>
      <trkpt lat="42.368800984695554" lon="3.157860981300473">
        <ele>-10.92</ele>
        <time>2025-05-15T14:41:24Z</time>
      </trkpt>
      <trkpt lat="42.368836021050811" lon="3.157965000718832">
        <ele>-10.92</ele>
        <time>2025-05-15T14:41:25Z</time>
      </trkpt>
      <trkpt lat="42.368865022435784" lon="3.158062985166907">
        <ele>-10.44</ele>
        <time>2025-05-15T14:41:26Z</time>
      </trkpt>
      <trkpt lat="42.368893017992377" lon="3.158160969614983">
        <ele>-10.44</ele>
        <time>2025-05-15T14:41:27Z</time>
      </trkpt>
      <trkpt lat="42.368925036862493" lon="3.158269012346864">
        <ele>-10.44</ele>
        <time>2025-05-15T14:41:28Z</time>
      </trkpt>
      <trkpt lat="42.368965018540621" lon="3.158320980146527">
        <ele>-10.44</ele>
        <time>2025-05-15T14:41:29Z</time>
      </trkpt>
      <trkpt lat="42.369074989110231" lon="3.158590961247683">
        <ele>-9.960000000000001</ele>
        <time>2025-05-15T14:41:32Z</time>
      </trkpt>
      <trkpt lat="42.36911497078836" lon="3.15867000259459">
        <ele>-9.960000000000001</ele>
        <time>2025-05-15T14:41:33Z</time>
      </trkpt>
      <trkpt lat="42.369203986600041" lon="3.158848034217954">
        <ele>-9</ele>
        <time>2025-05-15T14:41:35Z</time>
      </trkpt>
      <trkpt lat="42.36924103461206" lon="3.158934032544494">
        <ele>-8.51</ele>
        <time>2025-05-15T14:41:36Z</time>
      </trkpt>
      <trkpt lat="42.369275987148285" lon="3.159017013385892">
        <ele>-8.51</ele>
        <time>2025-05-15T14:41:37Z</time>
      </trkpt>
      <trkpt lat="42.369311023503542" lon="3.15909898839891">
        <ele>-8.51</ele>
        <time>2025-05-15T14:41:38Z</time>
      </trkpt>
      <trkpt lat="42.369348993524909" lon="3.159188004210591">
        <ele>-9</ele>
        <time>2025-05-15T14:41:39Z</time>
      </trkpt>
      <trkpt lat="42.369386963546276" lon="3.159278025850654">
        <ele>-9</ele>
        <time>2025-05-15T14:41:40Z</time>
      </trkpt>
      <trkpt lat="42.369424011558294" lon="3.159366035833955">
        <ele>-9.48</ele>
        <time>2025-05-15T14:41:41Z</time>
      </trkpt>
      <trkpt lat="42.369460975751281" lon="3.159452034160495">
        <ele>-9.48</ele>
        <time>2025-05-15T14:41:42Z</time>
      </trkpt>
      <trkpt lat="42.369498023763299" lon="3.159539038315415">
        <ele>-9.960000000000001</ele>
        <time>2025-05-15T14:41:43Z</time>
      </trkpt>
      <trkpt lat="42.369535993784666" lon="3.159629981964827">
        <ele>-10.44</ele>
        <time>2025-05-15T14:41:44Z</time>
      </trkpt>
      <trkpt lat="42.369575975462794" lon="3.15972201526165">
        <ele>-10.44</ele>
        <time>2025-05-15T14:41:45Z</time>
      </trkpt>
      <trkpt lat="42.369619980454445" lon="3.159814970567823">
        <ele>-10.44</ele>
        <time>2025-05-15T14:41:46Z</time>
      </trkpt>
      <trkpt lat="42.369663985446095" lon="3.159907003864646">
        <ele>-10.44</ele>
        <time>2025-05-15T14:41:47Z</time>
      </trkpt>
      <trkpt lat="42.369704972952604" lon="3.159994008019567">
        <ele>-10.44</ele>
        <time>2025-05-15T14:41:48Z</time>
      </trkpt>
      <trkpt lat="42.369907982647419" lon="3.160434979945421">
        <ele>-9.48</ele>
        <time>2025-05-15T14:41:54Z</time>
      </trkpt>
      <trkpt lat="42.370009990409017" lon="3.16053899936378">
        <ele>-9</ele>
        <time>2025-05-15T14:41:55Z</time>
      </trkpt>
      <trkpt lat="42.370031028985977" lon="3.160509997978807">
        <ele>-9</ele>
        <time>2025-05-15T14:41:56Z</time>
      </trkpt>
      <trkpt lat="42.370117027312517" lon="3.160386029630899">
        <ele>-8.029999999999999</ele>
        <time>2025-05-15T14:41:58Z</time>
      </trkpt>
      <trkpt lat="42.370226997882128" lon="3.160229958593845">
        <ele>-7.07</ele>
        <time>2025-05-15T14:42:00Z</time>
      </trkpt>
      <trkpt lat="42.370398994535208" lon="3.159985039383173">
        <ele>-6.11</ele>
        <time>2025-05-15T14:42:04Z</time>
      </trkpt>
      <trkpt lat="42.37042598426342" lon="3.159946985542774">
        <ele>-6.11</ele>
        <time>2025-05-15T14:42:05Z</time>
      </trkpt>
      <trkpt lat="42.370445011183619" lon="3.159919995814562">
        <ele>-5.63</ele>
        <time>2025-05-15T14:42:06Z</time>
      </trkpt>
      <trkpt lat="42.370459008961916" lon="3.159899963065982">
        <ele>-5.63</ele>
        <time>2025-05-15T14:42:07Z</time>
      </trkpt>
      <trkpt lat="42.370534026995301" lon="3.159792004153132">
        <ele>-4.67</ele>
        <time>2025-05-15T14:42:18Z</time>
      </trkpt>
      <trkpt lat="42.370762014761567" lon="3.159488998353481">
        <ele>-4.67</ele>
        <time>2025-05-15T14:42:24Z</time>
      </trkpt>
      <trkpt lat="42.370823035016656" lon="3.159407023340464">
        <ele>-4.67</ele>
        <time>2025-05-15T14:42:25Z</time>
      </trkpt>
      <trkpt lat="42.371148001402617" lon="3.1589509639889">
        <ele>-4.19</ele>
        <time>2025-05-15T14:42:31Z</time>
      </trkpt>
      <trkpt lat="42.371221007779241" lon="3.158848034217954">
        <ele>-4.19</ele>
        <time>2025-05-15T14:42:32Z</time>
      </trkpt>
      <trkpt lat="42.371321003884077" lon="3.158734040334821">
        <ele>-4.19</ele>
        <time>2025-05-15T14:42:34Z</time>
      </trkpt>
      <trkpt lat="42.371379006654024" lon="3.158666985109448">
        <ele>-4.19</ele>
        <time>2025-05-15T14:42:35Z</time>
      </trkpt>
      <trkpt lat="42.371436003595591" lon="3.158595990389586">
        <ele>-3.71</ele>
        <time>2025-05-15T14:42:36Z</time>
      </trkpt>
      <trkpt lat="42.371548991650343" lon="3.15845400094986">
        <ele>-3.71</ele>
        <time>2025-05-15T14:42:38Z</time>
      </trkpt>
      <trkpt lat="42.371603976935148" lon="3.158385017886758">
        <ele>-3.71</ele>
        <time>2025-05-15T14:42:39Z</time>
      </trkpt>
      <trkpt lat="42.372212000191212" lon="3.157640034332871">
        <ele>-5.15</ele>
        <time>2025-05-15T14:42:49Z</time>
      </trkpt>
      <trkpt lat="42.372280983254313" lon="3.157558981329203">
        <ele>-5.15</ele>
        <time>2025-05-15T14:42:50Z</time>
      </trkpt>
      <trkpt lat="42.372771995142102" lon="3.157132007181644">
        <ele>-5.63</ele>
        <time>2025-05-15T14:42:58Z</time>
      </trkpt>
      <trkpt lat="42.373590990900993" lon="3.156730011105537">
        <ele>-8.029999999999999</ele>
        <time>2025-05-15T14:43:09Z</time>
      </trkpt>
      <trkpt lat="42.3737339861691" lon="3.156669996678829">
        <ele>-8.51</ele>
        <time>2025-05-15T14:43:11Z</time>
      </trkpt>
      <trkpt lat="42.373959040269256" lon="3.156576035544276">
        <ele>-9</ele>
        <time>2025-05-15T14:43:14Z</time>
      </trkpt>
      <trkpt lat="42.374036991968751" lon="3.15654301084578">
        <ele>-8.51</ele>
        <time>2025-05-15T14:43:15Z</time>
      </trkpt>
      <trkpt lat="42.374258022755384" lon="3.156293984502554">
        <ele>-8.51</ele>
        <time>2025-05-15T14:43:21Z</time>
      </trkpt>
      <trkpt lat="42.374283000826836" lon="3.156257020309568">
        <ele>-8.51</ele>
        <time>2025-05-15T14:43:22Z</time>
      </trkpt>
      <trkpt lat="42.37433597445488" lon="3.156188037246466">
        <ele>-8.51</ele>
        <time>2025-05-15T14:43:23Z</time>
      </trkpt>
      <trkpt lat="42.374410992488265" lon="3.156200023368001">
        <ele>-8.51</ele>
        <time>2025-05-15T14:43:24Z</time>
      </trkpt>
      <trkpt lat="42.375142984092236" lon="3.156326003372669">
        <ele>-9</ele>
        <time>2025-05-15T14:43:30Z</time>
      </trkpt>
      <trkpt lat="42.376320976763964" lon="3.156470004469156">
        <ele>-8.51</ele>
        <time>2025-05-15T14:43:39Z</time>
      </trkpt>
      <trkpt lat="42.376662036404014" lon="3.156488025560975">
        <ele>-7.07</ele>
        <time>2025-05-15T14:43:42Z</time>
      </trkpt>
      <trkpt lat="42.376774018630385" lon="3.15645600669086">
        <ele>-6.59</ele>
        <time>2025-05-15T14:43:43Z</time>
      </trkpt>
      <trkpt lat="42.376893041655421" lon="3.156418036669493">
        <ele>-6.59</ele>
        <time>2025-05-15T14:43:44Z</time>
      </trkpt>
      <trkpt lat="42.377018015831709" lon="3.156377971172333">
        <ele>-6.11</ele>
        <time>2025-05-15T14:43:45Z</time>
      </trkpt>
      <trkpt lat="42.377141984179616" lon="3.156312005594373">
        <ele>-5.63</ele>
        <time>2025-05-15T14:43:46Z</time>
      </trkpt>
      <trkpt lat="42.377256983891129" lon="3.156223995611072">
        <ele>-5.63</ele>
        <time>2025-05-15T14:43:47Z</time>
      </trkpt>
      <trkpt lat="42.377917980775237" lon="3.155633993446827">
        <ele>-3.23</ele>
        <time>2025-05-15T14:43:53Z</time>
      </trkpt>
      <trkpt lat="42.37802904099226" lon="3.155504995957017">
        <ele>-2.75</ele>
        <time>2025-05-15T14:43:54Z</time>
      </trkpt>
      <trkpt lat="42.378133982419968" lon="3.155352026224136">
        <ele>-2.27</ele>
        <time>2025-05-15T14:43:55Z</time>
      </trkpt>
      <trkpt lat="42.37837303429842" lon="3.154918011277914">
        <ele>-1.3</ele>
        <time>2025-05-15T14:43:58Z</time>
      </trkpt>
      <trkpt lat="42.378446040675044" lon="3.154803011566401">
        <ele>-1.3</ele>
        <time>2025-05-15T14:43:59Z</time>
      </trkpt>
      <trkpt lat="42.378548970445991" lon="3.154725981876254">
        <ele>-1.79</ele>
        <time>2025-05-15T14:44:00Z</time>
      </trkpt>
      <trkpt lat="42.378672016784549" lon="3.154692035168409">
        <ele>-1.79</ele>
        <time>2025-05-15T14:44:01Z</time>
      </trkpt>
      <trkpt lat="42.378806965425611" lon="3.154667979106307">
        <ele>-2.27</ele>
        <time>2025-05-15T14:44:02Z</time>
      </trkpt>
      <trkpt lat="42.378937974572182" lon="3.154682982712984">
        <ele>-2.27</ele>
        <time>2025-05-15T14:44:03Z</time>
      </trkpt>
      <trkpt lat="42.379193035885692" lon="3.154720030725002">
        <ele>-3.23</ele>
        <time>2025-05-15T14:44:05Z</time>
      </trkpt>
      <trkpt lat="42.380125019699335" lon="3.154780967161059">
        <ele>-5.15</ele>
        <time>2025-05-15T14:44:12Z</time>
      </trkpt>
      <trkpt lat="42.380255023017526" lon="3.154762024059892">
        <ele>-5.63</ele>
        <time>2025-05-15T14:44:13Z</time>
      </trkpt>
      <trkpt lat="42.380387037992477" lon="3.154726987704635">
        <ele>-5.63</ele>
        <time>2025-05-15T14:44:14Z</time>
      </trkpt>
      <trkpt lat="42.381112994626164" lon="3.154428005218506">
        <ele>-7.55</ele>
        <time>2025-05-15T14:44:20Z</time>
      </trkpt>
      <trkpt lat="42.381234029307961" lon="3.154428005218506">
        <ele>-8.029999999999999</ele>
        <time>2025-05-15T14:44:21Z</time>
      </trkpt>
      <trkpt lat="42.381362020969391" lon="3.154434962198138">
        <ele>-8.51</ele>
        <time>2025-05-15T14:44:22Z</time>
      </trkpt>
      <trkpt lat="42.381493030115962" lon="3.154478967189789">
        <ele>-9</ele>
        <time>2025-05-15T14:44:23Z</time>
      </trkpt>
      <trkpt lat="42.381610041484237" lon="3.154588015750051">
        <ele>-9</ele>
        <time>2025-05-15T14:44:24Z</time>
      </trkpt>
      <trkpt lat="42.381709031760693" lon="3.154693963006139">
        <ele>-9</ele>
        <time>2025-05-15T14:44:25Z</time>
      </trkpt>
      <trkpt lat="42.381828976795077" lon="3.154843999072909">
        <ele>-9</ele>
        <time>2025-05-15T14:44:26Z</time>
      </trkpt>
      <trkpt lat="42.381879016757011" lon="3.155015995725989">
        <ele>-9</ele>
        <time>2025-05-15T14:44:27Z</time>
      </trkpt>
      <trkpt lat="42.381929978728294" lon="3.155194027349353">
        <ele>-9</ele>
        <time>2025-05-15T14:44:28Z</time>
      </trkpt>
      <trkpt lat="42.381944982334971" lon="3.155435007065535">
        <ele>-9</ele>
        <time>2025-05-15T14:44:29Z</time>
      </trkpt>
      <trkpt lat="42.381922015920281" lon="3.155630975961685">
        <ele>-8.51</ele>
        <time>2025-05-15T14:44:30Z</time>
      </trkpt>
      <trkpt lat="42.38189703784883" lon="3.155826022848487">
        <ele>-8.51</ele>
        <time>2025-05-15T14:44:31Z</time>
      </trkpt>
      <trkpt lat="42.381871975958347" lon="3.156004976481199">
        <ele>-7.55</ele>
        <time>2025-05-15T14:44:32Z</time>
      </trkpt>
      <trkpt lat="42.381800981238484" lon="3.156681982800365">
        <ele>-5.15</ele>
        <time>2025-05-15T14:44:36Z</time>
      </trkpt>
      <trkpt lat="42.381815984845161" lon="3.156803017482162">
        <ele>-4.67</ele>
        <time>2025-05-15T14:44:37Z</time>
      </trkpt>
      <trkpt lat="42.381836017593741" lon="3.156922040507197">
        <ele>-3.71</ele>
        <time>2025-05-15T14:44:38Z</time>
      </trkpt>
      <trkpt lat="42.381871975958347" lon="3.156989011913538">
        <ele>-2.75</ele>
        <time>2025-05-15T14:44:39Z</time>
      </trkpt>
      <trkpt lat="42.381952023133636" lon="3.157068975269795">
        <ele>-2.27</ele>
        <time>2025-05-15T14:44:40Z</time>
      </trkpt>
      <trkpt lat="42.382032992318273" lon="3.157139969989657">
        <ele>-1.3</ele>
        <time>2025-05-15T14:44:41Z</time>
      </trkpt>
      <trkpt lat="42.382132988423109" lon="3.15718699246645">
        <ele>-0.82</ele>
        <time>2025-05-15T14:44:42Z</time>
      </trkpt>
      <trkpt lat="42.382229967042804" lon="3.157233009114862">
        <ele>0.14</ele>
        <time>2025-05-15T14:44:43Z</time>
      </trkpt>
      <trkpt lat="42.382522998377681" lon="3.157322024926543">
        <ele>2.54</ele>
        <time>2025-05-15T14:44:46Z</time>
      </trkpt>
      <trkpt lat="42.382622994482517" lon="3.15733602270484">
        <ele>3.02</ele>
        <time>2025-05-15T14:44:47Z</time>
      </trkpt>
      <trkpt lat="42.3828000202775" lon="3.157345997169614">
        <ele>3.98</ele>
        <time>2025-05-15T14:44:49Z</time>
      </trkpt>
      <trkpt lat="42.382879983633757" lon="3.157350020483136">
        <ele>3.98</ele>
        <time>2025-05-15T14:44:50Z</time>
      </trkpt>
      <trkpt lat="42.382958019152284" lon="3.157388996332884">
        <ele>3.98</ele>
        <time>2025-05-15T14:44:51Z</time>
      </trkpt>
      <trkpt lat="42.383113000541925" lon="3.1575090251863">
        <ele>3.98</ele>
        <time>2025-05-15T14:44:53Z</time>
      </trkpt>
      <trkpt lat="42.383178966119885" lon="3.157559987157583">
        <ele>3.98</ele>
        <time>2025-05-15T14:44:54Z</time>
      </trkpt>
      <trkpt lat="42.383259013295174" lon="3.157554036006331">
        <ele>3.98</ele>
        <time>2025-05-15T14:44:55Z</time>
      </trkpt>
      <trkpt lat="42.383342999964952" lon="3.157546995207667">
        <ele>3.98</ele>
        <time>2025-05-15T14:44:56Z</time>
      </trkpt>
      <trkpt lat="42.383433021605015" lon="3.157538026571274">
        <ele>3.98</ele>
        <time>2025-05-15T14:44:57Z</time>
      </trkpt>
      <trkpt lat="42.383516002446413" lon="3.157468037679792">
        <ele>3.98</ele>
        <time>2025-05-15T14:44:58Z</time>
      </trkpt>
      <trkpt lat="42.383600994944572" lon="3.157396959140897">
        <ele>3.5</ele>
        <time>2025-05-15T14:44:59Z</time>
      </trkpt>
      <trkpt lat="42.383922021836042" lon="3.157129995524883">
        <ele>3.5</ele>
        <time>2025-05-15T14:45:03Z</time>
      </trkpt>
      <trkpt lat="42.383988993242383" lon="3.15701499581337">
        <ele>3.5</ele>
        <time>2025-05-15T14:45:04Z</time>
      </trkpt>
      <trkpt lat="42.384044984355569" lon="3.156892033293843">
        <ele>3.5</ele>
        <time>2025-05-15T14:45:05Z</time>
      </trkpt>
      <trkpt lat="42.384121008217335" lon="3.156617023050785">
        <ele>3.02</ele>
        <time>2025-05-15T14:45:07Z</time>
      </trkpt>
      <trkpt lat="42.384186973795295" lon="3.156373025849462">
        <ele>2.54</ele>
        <time>2025-05-15T14:45:09Z</time>
      </trkpt>
      <trkpt lat="42.384237013757229" lon="3.156283004209399">
        <ele>2.06</ele>
        <time>2025-05-15T14:45:10Z</time>
      </trkpt>
      <trkpt lat="42.384300967678428" lon="3.156217960640788">
        <ele>2.06</ele>
        <time>2025-05-15T14:45:11Z</time>
      </trkpt>
      <trkpt lat="42.384370034560561" lon="3.156171021983028">
        <ele>2.06</ele>
        <time>2025-05-15T14:45:12Z</time>
      </trkpt>
      <trkpt lat="42.384446980431676" lon="3.156137997284532">
        <ele>1.58</ele>
        <time>2025-05-15T14:45:13Z</time>
      </trkpt>
      <trkpt lat="42.384542031213641" lon="3.156148977577686">
        <ele>1.58</ele>
        <time>2025-05-15T14:45:14Z</time>
      </trkpt>
      <trkpt lat="42.384640015661716" lon="3.15619801171124">
        <ele>1.1</ele>
        <time>2025-05-15T14:45:15Z</time>
      </trkpt>
      <trkpt lat="42.384708998724818" lon="3.156286021694541">
        <ele>0.62</ele>
        <time>2025-05-15T14:45:16Z</time>
      </trkpt>
      <trkpt lat="42.384785022586584" lon="3.156389035284519">
        <ele>0.62</ele>
        <time>2025-05-15T14:45:17Z</time>
      </trkpt>
      <trkpt lat="42.384819975122809" lon="3.156511997804046">
        <ele>0.14</ele>
        <time>2025-05-15T14:45:18Z</time>
      </trkpt>
      <trkpt lat="42.384837996214628" lon="3.156654993072152">
        <ele>0.62</ele>
        <time>2025-05-15T14:45:19Z</time>
      </trkpt>
      <trkpt lat="42.384851993992925" lon="3.156787008047104">
        <ele>1.1</ele>
        <time>2025-05-15T14:45:20Z</time>
      </trkpt>
      <trkpt lat="42.384949978441" lon="3.157280031591654">
        <ele>2.54</ele>
        <time>2025-05-15T14:45:24Z</time>
      </trkpt>
      <trkpt lat="42.385001024231315" lon="3.15740299411118">
        <ele>3.02</ele>
        <time>2025-05-15T14:45:25Z</time>
      </trkpt>
      <trkpt lat="42.385167991742492" lon="3.157772971317172">
        <ele>3.98</ele>
        <time>2025-05-15T14:45:28Z</time>
      </trkpt>
      <trkpt lat="42.385209985077381" lon="3.157919989898801">
        <ele>4.46</ele>
        <time>2025-05-15T14:45:29Z</time>
      </trkpt>
      <trkpt lat="42.385236974805593" lon="3.158054016530514">
        <ele>4.46</ele>
        <time>2025-05-15T14:45:30Z</time>
      </trkpt>
      <trkpt lat="42.385266982018948" lon="3.158173961564899">
        <ele>4.94</ele>
        <time>2025-05-15T14:45:31Z</time>
      </trkpt>
      <trkpt lat="42.385309981182218" lon="3.158294996246696">
        <ele>4.94</ele>
        <time>2025-05-15T14:45:32Z</time>
      </trkpt>
      <trkpt lat="42.385352980345488" lon="3.158415025100112">
        <ele>4.94</ele>
        <time>2025-05-15T14:45:33Z</time>
      </trkpt>
      <trkpt lat="42.385425986722112" lon="3.15849700011313">
        <ele>5.42</ele>
        <time>2025-05-15T14:45:34Z</time>
      </trkpt>
      <trkpt lat="42.385511985048652" lon="3.158572018146515">
        <ele>5.42</ele>
        <time>2025-05-15T14:45:35Z</time>
      </trkpt>
      <trkpt lat="42.385617010295391" lon="3.158577969297767">
        <ele>5.42</ele>
        <time>2025-05-15T14:45:36Z</time>
      </trkpt>
      <trkpt lat="42.385725975036621" lon="3.158561959862709">
        <ele>5.42</ele>
        <time>2025-05-15T14:45:37Z</time>
      </trkpt>
      <trkpt lat="42.385838041082025" lon="3.158545028418303">
        <ele>5.42</ele>
        <time>2025-05-15T14:45:38Z</time>
      </trkpt>
      <trkpt lat="42.385950023308396" lon="3.158528013154864">
        <ele>5.42</ele>
        <time>2025-05-15T14:45:39Z</time>
      </trkpt>
      <trkpt lat="42.386747980490327" lon="3.158340007066727">
        <ele>9.27</ele>
        <time>2025-05-15T14:45:46Z</time>
      </trkpt>
      <trkpt lat="42.386847976595163" lon="3.158284015953541">
        <ele>10.23</ele>
        <time>2025-05-15T14:45:47Z</time>
      </trkpt>
      <trkpt lat="42.386940009891987" lon="3.15821997821331">
        <ele>10.710000000000001</ele>
        <time>2025-05-15T14:45:48Z</time>
      </trkpt>
      <trkpt lat="42.387030031532049" lon="3.15817303955555">
        <ele>11.67</ele>
        <time>2025-05-15T14:45:49Z</time>
      </trkpt>
      <trkpt lat="42.387126004323363" lon="3.158146971836686">
        <ele>12.630000000000001</ele>
        <time>2025-05-15T14:45:50Z</time>
      </trkpt>
      <trkpt lat="42.387231029570103" lon="3.158119982108474">
        <ele>13.6</ele>
        <time>2025-05-15T14:45:51Z</time>
      </trkpt>
      <trkpt lat="42.387328008189797" lon="3.158162981271744">
        <ele>14.08</ele>
        <time>2025-05-15T14:45:52Z</time>
      </trkpt>
      <trkpt lat="42.387423980981112" lon="3.158204974606633">
        <ele>15.039999999999999</ele>
        <time>2025-05-15T14:45:53Z</time>
      </trkpt>
      <trkpt lat="42.387626990675926" lon="3.158284015953541">
        <ele>16.960000000000001</ele>
        <time>2025-05-15T14:45:55Z</time>
      </trkpt>
      <trkpt lat="42.387739978730679" lon="3.158302959054709">
        <ele>17.440000000000001</ele>
        <time>2025-05-15T14:45:56Z</time>
      </trkpt>
      <trkpt lat="42.387854978442192" lon="3.158277980983257">
        <ele>17.920000000000002</ele>
        <time>2025-05-15T14:45:57Z</time>
      </trkpt>
      <trkpt lat="42.388417990878224" lon="3.15815300680697">
        <ele>20.809999999999999</ele>
        <time>2025-05-15T14:46:02Z</time>
      </trkpt>
      <trkpt lat="42.388527961447835" lon="3.158103972673416">
        <ele>21.289999999999999</ele>
        <time>2025-05-15T14:46:03Z</time>
      </trkpt>
      <trkpt lat="42.388636004179716" lon="3.158019986003637">
        <ele>21.289999999999999</ele>
        <time>2025-05-15T14:46:04Z</time>
      </trkpt>
      <trkpt lat="42.388733988627791" lon="3.157900962978602">
        <ele>21.77</ele>
        <time>2025-05-15T14:46:05Z</time>
      </trkpt>
      <trkpt lat="42.388833984732628" lon="3.157770959660411">
        <ele>21.77</ele>
        <time>2025-05-15T14:46:06Z</time>
      </trkpt>
      <trkpt lat="42.388933980837464" lon="3.157632993534207">
        <ele>22.25</ele>
        <time>2025-05-15T14:46:07Z</time>
      </trkpt>
      <trkpt lat="42.389275040477514" lon="3.157075010240078">
        <ele>23.210000000000001</ele>
        <time>2025-05-15T14:46:11Z</time>
      </trkpt>
      <trkpt lat="42.389319967478514" lon="3.15690896473825">
        <ele>23.690000000000001</ele>
        <time>2025-05-15T14:46:12Z</time>
      </trkpt>
      <trkpt lat="42.389360032975674" lon="3.156739985570312">
        <ele>24.170000000000002</ele>
        <time>2025-05-15T14:46:13Z</time>
      </trkpt>
      <trkpt lat="42.389435973018408" lon="3.156412001699209">
        <ele>25.129999999999999</ele>
        <time>2025-05-15T14:46:15Z</time>
      </trkpt>
      <trkpt lat="42.389491964131594" lon="3.156258026137948">
        <ele>25.609999999999999</ele>
        <time>2025-05-15T14:46:16Z</time>
      </trkpt>
      <trkpt lat="42.389608975499868" lon="3.15594102256">
        <ele>26.09</ele>
        <time>2025-05-15T14:46:18Z</time>
      </trkpt>
      <trkpt lat="42.3896539863199" lon="3.155787969008088">
        <ele>26.09</ele>
        <time>2025-05-15T14:46:19Z</time>
      </trkpt>
      <trkpt lat="42.389658009633422" lon="3.155632987618446">
        <ele>26.57</ele>
        <time>2025-05-15T14:46:20Z</time>
      </trkpt>
      <trkpt lat="42.389662032946944" lon="3.155485969036818">
        <ele>26.57</ele>
        <time>2025-05-15T14:46:21Z</time>
      </trkpt>
      <trkpt lat="42.389665972441435" lon="3.155351020395756">
        <ele>27.050000000000001</ele>
        <time>2025-05-15T14:46:22Z</time>
      </trkpt>
      <trkpt lat="42.389668989926577" lon="3.155222022905946">
        <ele>27.050000000000001</ele>
        <time>2025-05-15T14:46:23Z</time>
      </trkpt>
      <trkpt lat="42.389673013240099" lon="3.155092019587755">
        <ele>27.530000000000001</ele>
        <time>2025-05-15T14:46:24Z</time>
      </trkpt>
      <trkpt lat="42.389711989089847" lon="3.154958998784423">
        <ele>27.530000000000001</ele>
        <time>2025-05-15T14:46:25Z</time>
      </trkpt>
      <trkpt lat="42.389777032658458" lon="3.154836958274245">
        <ele>28.02</ele>
        <time>2025-05-15T14:46:26Z</time>
      </trkpt>
      <trkpt lat="42.38984601572156" lon="3.154707960784435">
        <ele>28.5</ele>
        <time>2025-05-15T14:46:27Z</time>
      </trkpt>
      <trkpt lat="42.389918016269803" lon="3.154573012143374">
        <ele>28.5</ele>
        <time>2025-05-15T14:46:28Z</time>
      </trkpt>
      <trkpt lat="42.389992028474808" lon="3.154434040188789">
        <ele>28.5</ele>
        <time>2025-05-15T14:46:29Z</time>
      </trkpt>
      <trkpt lat="42.390183974057436" lon="3.154201023280621">
        <ele>28.98</ele>
        <time>2025-05-15T14:46:31Z</time>
      </trkpt>
      <trkpt lat="42.390463007614017" lon="3.153846971690655">
        <ele>29.460000000000001</ele>
        <time>2025-05-15T14:46:34Z</time>
      </trkpt>
      <trkpt lat="42.390532996505499" lon="3.153719985857606">
        <ele>29.460000000000001</ele>
        <time>2025-05-15T14:46:35Z</time>
      </trkpt>
      <trkpt lat="42.39055504091084" lon="3.153553018346429">
        <ele>29.460000000000001</ele>
        <time>2025-05-15T14:46:36Z</time>
      </trkpt>
      <trkpt lat="42.390575995668769" lon="3.153398036956787">
        <ele>28.98</ele>
        <time>2025-05-15T14:46:37Z</time>
      </trkpt>
      <trkpt lat="42.390555962920189" lon="3.153214976191521">
        <ele>28.02</ele>
        <time>2025-05-15T14:46:38Z</time>
      </trkpt>
      <trkpt lat="42.390538025647402" lon="3.153047002851963">
        <ele>27.050000000000001</ele>
        <time>2025-05-15T14:46:39Z</time>
      </trkpt>
      <trkpt lat="42.390526039525867" lon="3.152721030637622">
        <ele>25.609999999999999</ele>
        <time>2025-05-15T14:46:41Z</time>
      </trkpt>
      <trkpt lat="42.390554035082459" lon="3.152569988742471">
        <ele>24.170000000000002</ele>
        <time>2025-05-15T14:46:42Z</time>
      </trkpt>
      <trkpt lat="42.390602985396981" lon="3.152406960725784">
        <ele>23.210000000000001</ele>
        <time>2025-05-15T14:46:43Z</time>
      </trkpt>
      <trkpt lat="42.390680015087128" lon="3.152276035398245">
        <ele>22.25</ele>
        <time>2025-05-15T14:46:44Z</time>
      </trkpt>
      <trkpt lat="42.390768025070429" lon="3.152155000716448">
        <ele>21.289999999999999</ele>
        <time>2025-05-15T14:46:45Z</time>
      </trkpt>
      <trkpt lat="42.390867015346885" lon="3.152055004611611">
        <ele>20.809999999999999</ele>
        <time>2025-05-15T14:46:46Z</time>
      </trkpt>
      <trkpt lat="42.390975980088115" lon="3.151989961043">
        <ele>19.84</ele>
        <time>2025-05-15T14:46:47Z</time>
      </trkpt>
      <trkpt lat="42.391092991456389" lon="3.151938999071717">
        <ele>18.879999999999999</ele>
        <time>2025-05-15T14:46:48Z</time>
      </trkpt>
      <trkpt lat="42.391239004209638" lon="3.151928018778563">
        <ele>17.920000000000002</ele>
        <time>2025-05-15T14:46:49Z</time>
      </trkpt>
      <trkpt lat="42.391389962285757" lon="3.151919972151518">
        <ele>17.440000000000001</ele>
        <time>2025-05-15T14:46:50Z</time>
      </trkpt>
      <trkpt lat="42.391530023887753" lon="3.151938999071717">
        <ele>16.48</ele>
        <time>2025-05-15T14:46:51Z</time>
      </trkpt>
      <trkpt lat="42.392853023484349" lon="3.152100015431643">
        <ele>10.23</ele>
        <time>2025-05-15T14:47:01Z</time>
      </trkpt>
      <trkpt lat="42.392996018752456" lon="3.152058022096753">
        <ele>9.27</ele>
        <time>2025-05-15T14:47:02Z</time>
      </trkpt>
      <trkpt lat="42.393142031505704" lon="3.152016028761864">
        <ele>7.83</ele>
        <time>2025-05-15T14:47:03Z</time>
      </trkpt>
      <trkpt lat="42.394298985600471" lon="3.151778988540173">
        <ele>-0.34</ele>
        <time>2025-05-15T14:47:11Z</time>
      </trkpt>
      <trkpt lat="42.395171038806438" lon="3.151796003803611">
        <ele>-2.27</ele>
        <time>2025-05-15T14:47:18Z</time>
      </trkpt>
      <trkpt lat="42.395275980234146" lon="3.151812013238668">
        <ele>-2.75</ele>
        <time>2025-05-15T14:47:19Z</time>
      </trkpt>
      <trkpt lat="42.395339012145996" lon="3.151894994080067">
        <ele>-2.75</ele>
        <time>2025-05-15T14:47:20Z</time>
      </trkpt>
      <trkpt lat="42.395401960238814" lon="3.151978980749846">
        <ele>-2.75</ele>
        <time>2025-05-15T14:47:21Z</time>
      </trkpt>
      <trkpt lat="42.395473038777709" lon="3.152121976017952">
        <ele>-3.23</ele>
        <time>2025-05-15T14:47:22Z</time>
      </trkpt>
      <trkpt lat="42.395484019070864" lon="3.152256002649665">
        <ele>-3.71</ele>
        <time>2025-05-15T14:47:23Z</time>
      </trkpt>
      <trkpt lat="42.395468009635806" lon="3.152430010959506">
        <ele>-3.71</ele>
        <time>2025-05-15T14:47:24Z</time>
      </trkpt>
      <trkpt lat="42.395439008250833" lon="3.152572000399232">
        <ele>-3.23</ele>
        <time>2025-05-15T14:47:25Z</time>
      </trkpt>
      <trkpt lat="42.395274974405766" lon="3.153508007526398">
        <ele>1.1</ele>
        <time>2025-05-15T14:47:32Z</time>
      </trkpt>
      <trkpt lat="42.395274974405766" lon="3.153613032773137">
        <ele>2.06</ele>
        <time>2025-05-15T14:47:33Z</time>
      </trkpt>
      <trkpt lat="42.395330965518951" lon="3.15370598807931">
        <ele>3.02</ele>
        <time>2025-05-15T14:47:34Z</time>
      </trkpt>
      <trkpt lat="42.395385028794408" lon="3.153795003890991">
        <ele>3.98</ele>
        <time>2025-05-15T14:47:35Z</time>
      </trkpt>
      <trkpt lat="42.395448982715607" lon="3.153840014711022">
        <ele>4.94</ele>
        <time>2025-05-15T14:47:36Z</time>
      </trkpt>
      <trkpt lat="42.395533975213766" lon="3.153863986954093">
        <ele>5.91</ele>
        <time>2025-05-15T14:47:37Z</time>
      </trkpt>
      <trkpt lat="42.395614022389054" lon="3.153850995004177">
        <ele>7.35</ele>
        <time>2025-05-15T14:47:38Z</time>
      </trkpt>
      <trkpt lat="42.395705971866846" lon="3.153822999447584">
        <ele>8.310000000000001</ele>
        <time>2025-05-15T14:47:39Z</time>
      </trkpt>
      <trkpt lat="42.39579901099205" lon="3.153793998062611">
        <ele>9.27</ele>
        <time>2025-05-15T14:47:40Z</time>
      </trkpt>
      <trkpt lat="42.395890960469842" lon="3.153764996677637">
        <ele>9.75</ele>
        <time>2025-05-15T14:47:41Z</time>
      </trkpt>
      <trkpt lat="42.395979976281524" lon="3.153786035254598">
        <ele>10.710000000000001</ele>
        <time>2025-05-15T14:47:42Z</time>
      </trkpt>
      <trkpt lat="42.396048037335277" lon="3.153805984184146">
        <ele>11.19</ele>
        <time>2025-05-15T14:47:43Z</time>
      </trkpt>
      <trkpt lat="42.396106040105224" lon="3.153873961418867">
        <ele>11.67</ele>
        <time>2025-05-15T14:47:44Z</time>
      </trkpt>
      <trkpt lat="42.396153984591365" lon="3.153930036351085">
        <ele>13.119999999999999</ele>
        <time>2025-05-15T14:47:45Z</time>
      </trkpt>
      <trkpt lat="42.396193966269493" lon="3.154020980000496">
        <ele>14.08</ele>
        <time>2025-05-15T14:47:46Z</time>
      </trkpt>
      <trkpt lat="42.396225985139608" lon="3.15413698554039">
        <ele>15.039999999999999</ele>
        <time>2025-05-15T14:47:47Z</time>
      </trkpt>
      <trkpt lat="42.396240988746285" lon="3.154272018000484">
        <ele>16.48</ele>
        <time>2025-05-15T14:47:48Z</time>
      </trkpt>
      <trkpt lat="42.396240988746285" lon="3.154397998005152">
        <ele>17.920000000000002</ele>
        <time>2025-05-15T14:47:49Z</time>
      </trkpt>
      <trkpt lat="42.396283987909555" lon="3.154510986059904">
        <ele>18.399999999999999</ele>
        <time>2025-05-15T14:47:50Z</time>
      </trkpt>
      <trkpt lat="42.396325981244445" lon="3.154610982164741">
        <ele>19.359999999999999</ele>
        <time>2025-05-15T14:47:51Z</time>
      </trkpt>
      <trkpt lat="42.39638096652925" lon="3.154690023511648">
        <ele>19.84</ele>
        <time>2025-05-15T14:47:52Z</time>
      </trkpt>
      <trkpt lat="42.396455984562635" lon="3.154748026281595">
        <ele>20.32</ele>
        <time>2025-05-15T14:47:53Z</time>
      </trkpt>
      <trkpt lat="42.396545000374317" lon="3.154813991859555">
        <ele>20.809999999999999</ele>
        <time>2025-05-15T14:47:54Z</time>
      </trkpt>
      <trkpt lat="42.396640973165631" lon="3.154813991859555">
        <ele>21.289999999999999</ele>
        <time>2025-05-15T14:47:55Z</time>
      </trkpt>
      <trkpt lat="42.396741975098848" lon="3.154813991859555">
        <ele>22.25</ele>
        <time>2025-05-15T14:47:56Z</time>
      </trkpt>
      <trkpt lat="42.396849012002349" lon="3.154785996302962">
        <ele>22.73</ele>
        <time>2025-05-15T14:47:57Z</time>
      </trkpt>
      <trkpt lat="42.396958982571959" lon="3.154742997139692">
        <ele>23.690000000000001</ele>
        <time>2025-05-15T14:47:58Z</time>
      </trkpt>
      <trkpt lat="42.397067025303841" lon="3.154699997976422">
        <ele>24.649999999999999</ele>
        <time>2025-05-15T14:47:59Z</time>
      </trkpt>
      <trkpt lat="42.397552002221346" lon="3.154507968574762">
        <ele>28.5</ele>
        <time>2025-05-15T14:48:04Z</time>
      </trkpt>
      <trkpt lat="42.397638000547886" lon="3.15445801243186">
        <ele>28.98</ele>
        <time>2025-05-15T14:48:05Z</time>
      </trkpt>
      <trkpt lat="42.397707989439368" lon="3.154374025762081">
        <ele>29.460000000000001</ele>
        <time>2025-05-15T14:48:06Z</time>
      </trkpt>
      <trkpt lat="42.397760963067412" lon="3.154278974980116">
        <ele>30.420000000000002</ele>
        <time>2025-05-15T14:48:07Z</time>
      </trkpt>
      <trkpt lat="42.397778984159231" lon="3.154160035774112">
        <ele>30.899999999999999</ele>
        <time>2025-05-15T14:48:08Z</time>
      </trkpt>
      <trkpt lat="42.397769009694457" lon="3.15405098721385">
        <ele>31.379999999999999</ele>
        <time>2025-05-15T14:48:09Z</time>
      </trkpt>
      <trkpt lat="42.397748976945877" lon="3.15396498888731">
        <ele>31.859999999999999</ele>
        <time>2025-05-15T14:48:10Z</time>
      </trkpt>
      <trkpt lat="42.397706983610988" lon="3.153869016095996">
        <ele>32.82</ele>
        <time>2025-05-15T14:48:11Z</time>
      </trkpt>
      <trkpt lat="42.397665996104479" lon="3.153800033032894">
        <ele>33.299999999999997</ele>
        <time>2025-05-15T14:48:12Z</time>
      </trkpt>
      <trkpt lat="42.397575974464417" lon="3.153759967535734">
        <ele>34.259999999999998</ele>
        <time>2025-05-15T14:48:13Z</time>
      </trkpt>
      <trkpt lat="42.397485030815005" lon="3.153719985857606">
        <ele>35.229999999999997</ele>
        <time>2025-05-15T14:48:14Z</time>
      </trkpt>
      <trkpt lat="42.397383023053408" lon="3.153728032484651">
        <ele>36.189999999999998</ele>
        <time>2025-05-15T14:48:15Z</time>
      </trkpt>
      <trkpt lat="42.397276991978288" lon="3.153735995292664">
        <ele>36.670000000000002</ele>
        <time>2025-05-15T14:48:16Z</time>
      </trkpt>
      <trkpt lat="42.397205997258425" lon="3.153741024434567">
        <ele>37.149999999999999</ele>
        <time>2025-05-15T14:48:17Z</time>
      </trkpt>
      <trkpt lat="42.39708898589015" lon="3.153653014451265">
        <ele>37.630000000000003</ele>
        <time>2025-05-15T14:48:18Z</time>
      </trkpt>
      <trkpt lat="42.397016985341907" lon="3.153583025559783">
        <ele>38.590000000000003</ele>
        <time>2025-05-15T14:48:19Z</time>
      </trkpt>
      <trkpt lat="42.396969962865114" lon="3.153504990041256">
        <ele>39.07</ele>
        <time>2025-05-15T14:48:20Z</time>
      </trkpt>
      <trkpt lat="42.396949008107185" lon="3.153368029743433">
        <ele>39.549999999999997</ele>
        <time>2025-05-15T14:48:21Z</time>
      </trkpt>
      <trkpt lat="42.396930987015367" lon="3.15325303003192">
        <ele>40.030000000000001</ele>
        <time>2025-05-15T14:48:22Z</time>
      </trkpt>
      <trkpt lat="42.396952025592327" lon="3.153139036148787">
        <ele>40.509999999999998</ele>
        <time>2025-05-15T14:48:23Z</time>
      </trkpt>
      <trkpt lat="42.396997958421707" lon="3.153033005073667">
        <ele>40.990000000000002</ele>
        <time>2025-05-15T14:48:24Z</time>
      </trkpt>
      <trkpt lat="42.397060990333557" lon="3.152934014797211">
        <ele>41.950000000000003</ele>
        <time>2025-05-15T14:48:25Z</time>
      </trkpt>
      <trkpt lat="42.397139025852084" lon="3.15282697789371">
        <ele>42.439999999999998</ele>
        <time>2025-05-15T14:48:26Z</time>
      </trkpt>
      <trkpt lat="42.397247990593314" lon="3.152745002880693">
        <ele>42.920000000000002</ele>
        <time>2025-05-15T14:48:27Z</time>
      </trkpt>
      <trkpt lat="42.397380005568266" lon="3.152656992897391">
        <ele>43.880000000000003</ele>
        <time>2025-05-15T14:48:28Z</time>
      </trkpt>
      <trkpt lat="42.397848973050714" lon="3.152434034273028">
        <ele>46.759999999999998</ele>
        <time>2025-05-15T14:48:31Z</time>
      </trkpt>
      <trkpt lat="42.398219034075737" lon="3.152282992377877">
        <ele>49.159999999999997</ele>
        <time>2025-05-15T14:48:33Z</time>
      </trkpt>
      <trkpt lat="42.398388013243675" lon="3.152177967131138">
        <ele>50.609999999999999</ele>
        <time>2025-05-15T14:48:34Z</time>
      </trkpt>
      <trkpt lat="42.398536037653685" lon="3.152040001004934">
        <ele>52.049999999999997</ele>
        <time>2025-05-15T14:48:35Z</time>
      </trkpt>
      <trkpt lat="42.398665035143495" lon="3.151870016008616">
        <ele>53.009999999999998</ele>
        <time>2025-05-15T14:48:36Z</time>
      </trkpt>
      <trkpt lat="42.398765031248331" lon="3.151656026020646">
        <ele>54.450000000000003</ele>
        <time>2025-05-15T14:48:37Z</time>
      </trkpt>
      <trkpt lat="42.398810964077711" lon="3.15138797275722">
        <ele>55.890000000000001</ele>
        <time>2025-05-15T14:48:38Z</time>
      </trkpt>
      <trkpt lat="42.398852035403252" lon="3.15112603828311">
        <ele>57.340000000000003</ele>
        <time>2025-05-15T14:48:39Z</time>
      </trkpt>
      <trkpt lat="42.398891011252999" lon="3.150868965312839">
        <ele>58.780000000000001</ele>
        <time>2025-05-15T14:48:40Z</time>
      </trkpt>
      <trkpt lat="42.398987989872694" lon="3.150344006717205">
        <ele>61.18</ele>
        <time>2025-05-15T14:48:42Z</time>
      </trkpt>
      <trkpt lat="42.399080023169518" lon="3.150105038657785">
        <ele>61.659999999999997</ele>
        <time>2025-05-15T14:48:43Z</time>
      </trkpt>
      <trkpt lat="42.399169960990548" lon="3.149864980950952">
        <ele>62.619999999999997</ele>
        <time>2025-05-15T14:48:44Z</time>
      </trkpt>
      <trkpt lat="42.399268029257655" lon="3.149626012891531">
        <ele>62.619999999999997</ele>
        <time>2025-05-15T14:48:45Z</time>
      </trkpt>
      <trkpt lat="42.39938898012042" lon="3.149429038167">
        <ele>62.140000000000001</ele>
        <time>2025-05-15T14:48:46Z</time>
      </trkpt>
      <trkpt lat="42.399528035894036" lon="3.149255029857159">
        <ele>62.140000000000001</ele>
        <time>2025-05-15T14:48:47Z</time>
      </trkpt>
      <trkpt lat="42.399663990363479" lon="3.149094013497233">
        <ele>61.18</ele>
        <time>2025-05-15T14:48:48Z</time>
      </trkpt>
      <trkpt lat="42.399812014773488" lon="3.148944983258843">
        <ele>60.700000000000003</ele>
        <time>2025-05-15T14:48:49Z</time>
      </trkpt>
      <trkpt lat="42.399970013648272" lon="3.148887986317277">
        <ele>59.740000000000002</ele>
        <time>2025-05-15T14:48:50Z</time>
      </trkpt>
      <trkpt lat="42.400126000866294" lon="3.148864014074206">
        <ele>58.780000000000001</ele>
        <time>2025-05-15T14:48:51Z</time>
      </trkpt>
      <trkpt lat="42.400276958942413" lon="3.148854039609432">
        <ele>57.340000000000003</ele>
        <time>2025-05-15T14:48:52Z</time>
      </trkpt>
      <trkpt lat="42.400411991402507" lon="3.148814979940653">
        <ele>56.369999999999997</ele>
        <time>2025-05-15T14:48:53Z</time>
      </trkpt>
      <trkpt lat="42.400530008599162" lon="3.148736022412777">
        <ele>54.93</ele>
        <time>2025-05-15T14:48:54Z</time>
      </trkpt>
      <trkpt lat="42.400619024410844" lon="3.148623034358025">
        <ele>53.969999999999999</ele>
        <time>2025-05-15T14:48:55Z</time>
      </trkpt>
      <trkpt lat="42.400670992210507" lon="3.148467969149351">
        <ele>53.009999999999998</ele>
        <time>2025-05-15T14:48:56Z</time>
      </trkpt>
      <trkpt lat="42.400722038000822" lon="3.148268982768059">
        <ele>52.049999999999997</ele>
        <time>2025-05-15T14:48:57Z</time>
      </trkpt>
      <trkpt lat="42.400777023285627" lon="3.148054992780089">
        <ele>50.609999999999999</ele>
        <time>2025-05-15T14:48:58Z</time>
      </trkpt>
      <trkpt lat="42.400864027440548" lon="3.147601028904319">
        <ele>49.159999999999997</ele>
        <time>2025-05-15T14:49:00Z</time>
      </trkpt>
      <trkpt lat="42.4008699785918" lon="3.147377986460924">
        <ele>47.719999999999999</ele>
        <time>2025-05-15T14:49:01Z</time>
      </trkpt>
      <trkpt lat="42.400834020227194" lon="3.147161984816194">
        <ele>46.759999999999998</ele>
        <time>2025-05-15T14:49:02Z</time>
      </trkpt>
      <trkpt lat="42.400823961943388" lon="3.146936008706689">
        <ele>45.32</ele>
        <time>2025-05-15T14:49:03Z</time>
      </trkpt>
      <trkpt lat="42.400850029662251" lon="3.146751020103693">
        <ele>44.359999999999999</ele>
        <time>2025-05-15T14:49:04Z</time>
      </trkpt>
      <trkpt lat="42.40091398358345" lon="3.146583968773484">
        <ele>42.920000000000002</ele>
        <time>2025-05-15T14:49:05Z</time>
      </trkpt>
      <trkpt lat="42.401026971638203" lon="3.146454971283674">
        <ele>41.950000000000003</ele>
        <time>2025-05-15T14:49:06Z</time>
      </trkpt>
      <trkpt lat="42.401150017976761" lon="3.146319016814232">
        <ele>40.509999999999998</ele>
        <time>2025-05-15T14:49:07Z</time>
      </trkpt>
      <trkpt lat="42.401279015466571" lon="3.146176021546125">
        <ele>39.07</ele>
        <time>2025-05-15T14:49:08Z</time>
      </trkpt>
      <trkpt lat="42.401390997692943" lon="3.146018022671342">
        <ele>38.109999999999999</ele>
        <time>2025-05-15T14:49:09Z</time>
      </trkpt>
      <trkpt lat="42.401490993797779" lon="3.145856000483036">
        <ele>36.670000000000002</ele>
        <time>2025-05-15T14:49:10Z</time>
      </trkpt>
      <trkpt lat="42.401548996567726" lon="3.145666988566518">
        <ele>35.710000000000001</ele>
        <time>2025-05-15T14:49:11Z</time>
      </trkpt>
      <trkpt lat="42.401584032922983" lon="3.145468002185226">
        <ele>34.259999999999998</ele>
        <time>2025-05-15T14:49:12Z</time>
      </trkpt>
      <trkpt lat="42.401584032922983" lon="3.145243031904101">
        <ele>32.82</ele>
        <time>2025-05-15T14:49:13Z</time>
      </trkpt>
      <trkpt lat="42.401584032922983" lon="3.145013032481074">
        <ele>31.859999999999999</ele>
        <time>2025-05-15T14:49:14Z</time>
      </trkpt>
      <trkpt lat="42.401542039588094" lon="3.144782027229667">
        <ele>30.899999999999999</ele>
        <time>2025-05-15T14:49:15Z</time>
      </trkpt>
      <trkpt lat="42.401495017111301" lon="3.144529983401299">
        <ele>29.460000000000001</ele>
        <time>2025-05-15T14:49:16Z</time>
      </trkpt>
      <trkpt lat="42.401423016563058" lon="3.144291015341878">
        <ele>28.5</ele>
        <time>2025-05-15T14:49:17Z</time>
      </trkpt>
      <trkpt lat="42.401332994922996" lon="3.144062021747232">
        <ele>27.530000000000001</ele>
        <time>2025-05-15T14:49:18Z</time>
      </trkpt>
      <trkpt lat="42.401241967454553" lon="3.143848031759262">
        <ele>26.09</ele>
        <time>2025-05-15T14:49:19Z</time>
      </trkpt>
      <trkpt lat="42.401096960529685" lon="3.143467996269465">
        <ele>23.690000000000001</ele>
        <time>2025-05-15T14:49:21Z</time>
      </trkpt>
      <trkpt lat="42.401098972186446" lon="3.143331035971642">
        <ele>22.73</ele>
        <time>2025-05-15T14:49:22Z</time>
      </trkpt>
      <trkpt lat="42.401111964136362" lon="3.143205977976322">
        <ele>21.77</ele>
        <time>2025-05-15T14:49:23Z</time>
      </trkpt>
      <trkpt lat="42.401164015755057" lon="3.143143029883504">
        <ele>21.289999999999999</ele>
        <time>2025-05-15T14:49:24Z</time>
      </trkpt>
      <trkpt lat="42.401246996596456" lon="3.143076980486512">
        <ele>20.809999999999999</ele>
        <time>2025-05-15T14:49:25Z</time>
      </trkpt>
      <trkpt lat="42.401355961337686" lon="3.143076980486512">
        <ele>19.84</ele>
        <time>2025-05-15T14:49:26Z</time>
      </trkpt>
      <trkpt lat="42.401451012119651" lon="3.143159039318562">
        <ele>19.359999999999999</ele>
        <time>2025-05-15T14:49:27Z</time>
      </trkpt>
      <trkpt lat="42.401561988517642" lon="3.143270015716553">
        <ele>18.399999999999999</ele>
        <time>2025-05-15T14:49:28Z</time>
      </trkpt>
      <trkpt lat="42.401658967137337" lon="3.143433965742588">
        <ele>17.440000000000001</ele>
        <time>2025-05-15T14:49:29Z</time>
      </trkpt>
      <trkpt lat="42.401767009869218" lon="3.143617026507855">
        <ele>16.960000000000001</ele>
        <time>2025-05-15T14:49:30Z</time>
      </trkpt>
      <trkpt lat="42.402393976226449" lon="3.144544987007976">
        <ele>13.119999999999999</ele>
        <time>2025-05-15T14:49:36Z</time>
      </trkpt>
      <trkpt lat="42.402497995644808" lon="3.144608018919826">
        <ele>12.630000000000001</ele>
        <time>2025-05-15T14:49:37Z</time>
      </trkpt>
      <trkpt lat="42.402617018669844" lon="3.144636014476419">
        <ele>12.630000000000001</ele>
        <time>2025-05-15T14:49:38Z</time>
      </trkpt>
      <trkpt lat="42.402751967310905" lon="3.144594021141529">
        <ele>12.15</ele>
        <time>2025-05-15T14:49:39Z</time>
      </trkpt>
      <trkpt lat="42.402894962579012" lon="3.144546998664737">
        <ele>11.67</ele>
        <time>2025-05-15T14:49:40Z</time>
      </trkpt>
      <trkpt lat="42.403444983065128" lon="3.144353963434696">
        <ele>11.19</ele>
        <time>2025-05-15T14:49:44Z</time>
      </trkpt>
      <trkpt lat="42.403579009696841" lon="3.144342983141542">
        <ele>10.710000000000001</ele>
        <time>2025-05-15T14:49:45Z</time>
      </trkpt>
      <trkpt lat="42.403665008023381" lon="3.144364021718502">
        <ele>10.23</ele>
        <time>2025-05-15T14:49:46Z</time>
      </trkpt>
      <trkpt lat="42.403751006349921" lon="3.144473992288113">
        <ele>10.23</ele>
        <time>2025-05-15T14:49:47Z</time>
      </trkpt>
      <trkpt lat="42.403816971927881" lon="3.144571976736188">
        <ele>10.23</ele>
        <time>2025-05-15T14:49:48Z</time>
      </trkpt>
      <trkpt lat="42.403843961656094" lon="3.144742967560887">
        <ele>10.710000000000001</ele>
        <time>2025-05-15T14:49:49Z</time>
      </trkpt>
      <trkpt lat="42.403872963041067" lon="3.144930973649025">
        <ele>11.19</ele>
        <time>2025-05-15T14:49:50Z</time>
      </trkpt>
      <trkpt lat="42.403902970254421" lon="3.145135995000601">
        <ele>11.19</ele>
        <time>2025-05-15T14:49:51Z</time>
      </trkpt>
      <trkpt lat="42.404033979400992" lon="3.146764012053609">
        <ele>11.19</ele>
        <time>2025-05-15T14:49:58Z</time>
      </trkpt>
      <trkpt lat="42.404063986614347" lon="3.146957969292998">
        <ele>10.710000000000001</ele>
        <time>2025-05-15T14:49:59Z</time>
      </trkpt>
      <trkpt lat="42.404119977727532" lon="3.147138012573123">
        <ele>10.710000000000001</ele>
        <time>2025-05-15T14:50:00Z</time>
      </trkpt>
      <trkpt lat="42.404188038781285" lon="3.147286958992481">
        <ele>10.710000000000001</ele>
        <time>2025-05-15T14:50:01Z</time>
      </trkpt>
      <trkpt lat="42.404299015179276" lon="3.147384021431208">
        <ele>10.710000000000001</ele>
        <time>2025-05-15T14:50:02Z</time>
      </trkpt>
      <trkpt lat="42.404437987133861" lon="3.147422997280955">
        <ele>11.19</ele>
        <time>2025-05-15T14:50:03Z</time>
      </trkpt>
      <trkpt lat="42.404577964916825" lon="3.147439006716013">
        <ele>10.710000000000001</ele>
        <time>2025-05-15T14:50:04Z</time>
      </trkpt>
      <trkpt lat="42.404714003205299" lon="3.14745401032269">
        <ele>11.19</ele>
        <time>2025-05-15T14:50:05Z</time>
      </trkpt>
      <trkpt lat="42.404834032058716" lon="3.147542020305991">
        <ele>11.19</ele>
        <time>2025-05-15T14:50:06Z</time>
      </trkpt>
      <trkpt lat="42.404948025941849" lon="3.147628018632531">
        <ele>11.19</ele>
        <time>2025-05-15T14:50:07Z</time>
      </trkpt>
      <trkpt lat="42.405022038146853" lon="3.147783000022173">
        <ele>11.67</ele>
        <time>2025-05-15T14:50:08Z</time>
      </trkpt>
      <trkpt lat="42.405078029260039" lon="3.147942004725337">
        <ele>12.15</ele>
        <time>2025-05-15T14:50:09Z</time>
      </trkpt>
      <trkpt lat="42.405075011774898" lon="3.148150965571404">
        <ele>12.630000000000001</ele>
        <time>2025-05-15T14:50:10Z</time>
      </trkpt>
      <trkpt lat="42.405037963762879" lon="3.14833402633667">
        <ele>13.6</ele>
        <time>2025-05-15T14:50:11Z</time>
      </trkpt>
      <trkpt lat="42.40495297126472" lon="3.148523038253188">
        <ele>14.08</ele>
        <time>2025-05-15T14:50:12Z</time>
      </trkpt>
      <trkpt lat="42.404822967946529" lon="3.148662010207772">
        <ele>15.039999999999999</ele>
        <time>2025-05-15T14:50:13Z</time>
      </trkpt>
      <trkpt lat="42.404683995991945" lon="3.148752031847835">
        <ele>16</ele>
        <time>2025-05-15T14:50:14Z</time>
      </trkpt>
      <trkpt lat="42.40456597879529" lon="3.148827971890569">
        <ele>16.960000000000001</ele>
        <time>2025-05-15T14:50:15Z</time>
      </trkpt>
      <trkpt lat="42.404490960761905" lon="3.148956969380379">
        <ele>17.920000000000002</ele>
        <time>2025-05-15T14:50:16Z</time>
      </trkpt>
      <trkpt lat="42.404416026547551" lon="3.149084961041808">
        <ele>18.879999999999999</ele>
        <time>2025-05-15T14:50:17Z</time>
      </trkpt>
      <trkpt lat="42.404404962435365" lon="3.149269027635455">
        <ele>19.359999999999999</ele>
        <time>2025-05-15T14:50:18Z</time>
      </trkpt>
      <trkpt lat="42.404396999627352" lon="3.149464996531606">
        <ele>20.32</ele>
        <time>2025-05-15T14:50:19Z</time>
      </trkpt>
      <trkpt lat="42.404433963820338" lon="3.149676974862814">
        <ele>21.289999999999999</ele>
        <time>2025-05-15T14:50:20Z</time>
      </trkpt>
      <trkpt lat="42.404471011832356" lon="3.149890964850783">
        <ele>22.25</ele>
        <time>2025-05-15T14:50:21Z</time>
      </trkpt>
      <trkpt lat="42.404533037915826" lon="3.150089029222727">
        <ele>23.690000000000001</ele>
        <time>2025-05-15T14:50:22Z</time>
      </trkpt>
      <trkpt lat="42.404605960473418" lon="3.15029002726078">
        <ele>24.649999999999999</ele>
        <time>2025-05-15T14:50:23Z</time>
      </trkpt>
      <trkpt lat="42.404681984335184" lon="3.150496976450086">
        <ele>25.129999999999999</ele>
        <time>2025-05-15T14:50:24Z</time>
      </trkpt>
      <trkpt lat="42.405272992327809" lon="3.151899017393589">
        <ele>29.940000000000001</ele>
        <time>2025-05-15T14:50:31Z</time>
      </trkpt>
      <trkpt lat="42.405482036992908" lon="3.152540987357497">
        <ele>31.379999999999999</ele>
        <time>2025-05-15T14:50:34Z</time>
      </trkpt>
      <trkpt lat="42.40553199313581" lon="3.152690017595887">
        <ele>31.859999999999999</ele>
        <time>2025-05-15T14:50:35Z</time>
      </trkpt>
      <trkpt lat="42.405647998675704" lon="3.152762018144131">
        <ele>31.859999999999999</ele>
        <time>2025-05-15T14:50:36Z</time>
      </trkpt>
      <trkpt lat="42.405741037800908" lon="3.152784984558821">
        <ele>32.340000000000003</ele>
        <time>2025-05-15T14:50:37Z</time>
      </trkpt>
      <trkpt lat="42.405864000320435" lon="3.152743997052312">
        <ele>32.340000000000003</ele>
        <time>2025-05-15T14:50:38Z</time>
      </trkpt>
      <trkpt lat="42.405977994203568" lon="3.152687000110745">
        <ele>32.340000000000003</ele>
        <time>2025-05-15T14:50:39Z</time>
      </trkpt>
      <trkpt lat="42.4060919880867" lon="3.152526989579201">
        <ele>31.859999999999999</ele>
        <time>2025-05-15T14:50:40Z</time>
      </trkpt>
      <trkpt lat="42.406201036646962" lon="3.152372008189559">
        <ele>31.859999999999999</ele>
        <time>2025-05-15T14:50:41Z</time>
      </trkpt>
      <trkpt lat="42.406333973631263" lon="3.152260025963187">
        <ele>31.379999999999999</ele>
        <time>2025-05-15T14:50:42Z</time>
      </trkpt>
      <trkpt lat="42.40647797472775" lon="3.152218032628298">
        <ele>31.379999999999999</ele>
        <time>2025-05-15T14:50:43Z</time>
      </trkpt>
      <trkpt lat="42.406630022451282" lon="3.152218032628298">
        <ele>30.899999999999999</ele>
        <time>2025-05-15T14:50:44Z</time>
      </trkpt>
      <trkpt lat="42.406791960820556" lon="3.152256002649665">
        <ele>29.940000000000001</ele>
        <time>2025-05-15T14:50:45Z</time>
      </trkpt>
      <trkpt lat="42.406944008544087" lon="3.152358010411263">
        <ele>29.460000000000001</ele>
        <time>2025-05-15T14:50:46Z</time>
      </trkpt>
      <trkpt lat="42.407055990770459" lon="3.152505028992891">
        <ele>29.460000000000001</ele>
        <time>2025-05-15T14:50:47Z</time>
      </trkpt>
      <trkpt lat="42.407146012410522" lon="3.152665039524436">
        <ele>28.98</ele>
        <time>2025-05-15T14:50:48Z</time>
      </trkpt>
      <trkpt lat="42.40718599408865" lon="3.152829995378852">
        <ele>28.5</ele>
        <time>2025-05-15T14:50:49Z</time>
      </trkpt>
      <trkpt lat="42.407191023230553" lon="3.15304197371006">
        <ele>28.5</ele>
        <time>2025-05-15T14:50:50Z</time>
      </trkpt>
      <trkpt lat="42.407196974381804" lon="3.153283037245274">
        <ele>28.5</ele>
        <time>2025-05-15T14:50:51Z</time>
      </trkpt>
      <trkpt lat="42.407203009352088" lon="3.153530973941088">
        <ele>28.02</ele>
        <time>2025-05-15T14:50:52Z</time>
      </trkpt>
      <trkpt lat="42.407222036272287" lon="3.153762985020876">
        <ele>28.02</ele>
        <time>2025-05-15T14:50:53Z</time>
      </trkpt>
      <trkpt lat="42.407308034598827" lon="3.153932970017195">
        <ele>27.530000000000001</ele>
        <time>2025-05-15T14:50:54Z</time>
      </trkpt>
      <trkpt lat="42.407406019046903" lon="3.154061967507005">
        <ele>27.530000000000001</ele>
        <time>2025-05-15T14:50:55Z</time>
      </trkpt>
      <trkpt lat="42.407538034021854" lon="3.154155006632209">
        <ele>27.530000000000001</ele>
        <time>2025-05-15T14:50:56Z</time>
      </trkpt>
      <trkpt lat="42.407700978219509" lon="3.154209991917014">
        <ele>27.530000000000001</ele>
        <time>2025-05-15T14:50:57Z</time>
      </trkpt>
      <trkpt lat="42.407876998186111" lon="3.154174033552408">
        <ele>27.530000000000001</ele>
        <time>2025-05-15T14:50:58Z</time>
      </trkpt>
      <trkpt lat="42.408052012324333" lon="3.154131034389138">
        <ele>28.02</ele>
        <time>2025-05-15T14:50:59Z</time>
      </trkpt>
      <trkpt lat="42.40821797400713" lon="3.154031038284302">
        <ele>28.98</ele>
        <time>2025-05-15T14:51:00Z</time>
      </trkpt>
      <trkpt lat="42.408363986760378" lon="3.153870021924377">
        <ele>29.460000000000001</ele>
        <time>2025-05-15T14:51:01Z</time>
      </trkpt>
      <trkpt lat="42.408487033098936" lon="3.153675980865955">
        <ele>30.420000000000002</ele>
        <time>2025-05-15T14:51:02Z</time>
      </trkpt>
      <trkpt lat="42.408569008111954" lon="3.153441036120057">
        <ele>31.379999999999999</ele>
        <time>2025-05-15T14:51:03Z</time>
      </trkpt>
      <trkpt lat="42.408651988953352" lon="3.153205001726747">
        <ele>32.340000000000003</ele>
        <time>2025-05-15T14:51:04Z</time>
      </trkpt>
      <trkpt lat="42.408824991434813" lon="3.152777021750808">
        <ele>33.299999999999997</ele>
        <time>2025-05-15T14:51:06Z</time>
      </trkpt>
      <trkpt lat="42.408940996974707" lon="3.152593038976193">
        <ele>33.780000000000001</ele>
        <time>2025-05-15T14:51:07Z</time>
      </trkpt>
      <trkpt lat="42.40905599668622" lon="3.152434034273028">
        <ele>34.259999999999998</ele>
        <time>2025-05-15T14:51:08Z</time>
      </trkpt>
      <trkpt lat="42.409192034974694" lon="3.152332026511431">
        <ele>34.259999999999998</ele>
        <time>2025-05-15T14:51:09Z</time>
      </trkpt>
      <trkpt lat="42.409311980009079" lon="3.152324985712767">
        <ele>34.259999999999998</ele>
        <time>2025-05-15T14:51:10Z</time>
      </trkpt>
      <trkpt lat="42.409413987770677" lon="3.152336971834302">
        <ele>34.259999999999998</ele>
        <time>2025-05-15T14:51:11Z</time>
      </trkpt>
      <trkpt lat="42.409514989703894" lon="3.152406960725784">
        <ele>34.259999999999998</ele>
        <time>2025-05-15T14:51:12Z</time>
      </trkpt>
      <trkpt lat="42.409612974151969" lon="3.152533024549484">
        <ele>34.259999999999998</ele>
        <time>2025-05-15T14:51:13Z</time>
      </trkpt>
      <trkpt lat="42.409667037427425" lon="3.152722036466003">
        <ele>34.740000000000002</ele>
        <time>2025-05-15T14:51:14Z</time>
      </trkpt>
      <trkpt lat="42.409690003842115" lon="3.152939965948463">
        <ele>35.229999999999997</ele>
        <time>2025-05-15T14:51:15Z</time>
      </trkpt>
      <trkpt lat="42.409714981913567" lon="3.153166025876999">
        <ele>35.229999999999997</ele>
        <time>2025-05-15T14:51:16Z</time>
      </trkpt>
      <trkpt lat="42.40974398329854" lon="3.153398958966136">
        <ele>35.710000000000001</ele>
        <time>2025-05-15T14:51:17Z</time>
      </trkpt>
      <trkpt lat="42.409814978018403" lon="3.153628036379814">
        <ele>36.670000000000002</ele>
        <time>2025-05-15T14:51:18Z</time>
      </trkpt>
      <trkpt lat="42.409891001880169" lon="3.153873961418867">
        <ele>38.109999999999999</ele>
        <time>2025-05-15T14:51:19Z</time>
      </trkpt>
      <trkpt lat="42.410002984106541" lon="3.154108989983797">
        <ele>39.07</ele>
        <time>2025-05-15T14:51:20Z</time>
      </trkpt>
      <trkpt lat="42.41012996993959" lon="3.154344018548727">
        <ele>40.509999999999998</ele>
        <time>2025-05-15T14:51:21Z</time>
      </trkpt>
      <trkpt lat="42.410271959379315" lon="3.154574017971754">
        <ele>41.950000000000003</ele>
        <time>2025-05-15T14:51:22Z</time>
      </trkpt>
      <trkpt lat="42.410429958254099" lon="3.154779961332679">
        <ele>43.399999999999999</ele>
        <time>2025-05-15T14:51:23Z</time>
      </trkpt>
      <trkpt lat="42.410583011806011" lon="3.154980959370732">
        <ele>44.840000000000003</ele>
        <time>2025-05-15T14:51:24Z</time>
      </trkpt>
      <trkpt lat="42.41073003038764" lon="3.155172988772392">
        <ele>46.759999999999998</ele>
        <time>2025-05-15T14:51:25Z</time>
      </trkpt>
      <trkpt lat="42.410892974585295" lon="3.155293017625809">
        <ele>48.200000000000003</ele>
        <time>2025-05-15T14:51:26Z</time>
      </trkpt>
      <trkpt lat="42.411038987338543" lon="3.155374992638826">
        <ele>49.649999999999999</ele>
        <time>2025-05-15T14:51:27Z</time>
      </trkpt>
      <trkpt lat="42.411181982606649" lon="3.155407011508942">
        <ele>51.090000000000003</ele>
        <time>2025-05-15T14:51:28Z</time>
      </trkpt>
      <trkpt lat="42.411324977874756" lon="3.15538102760911">
        <ele>52.049999999999997</ele>
        <time>2025-05-15T14:51:29Z</time>
      </trkpt>
      <trkpt lat="42.411450035870075" lon="3.155270973220468">
        <ele>53.009999999999998</ele>
        <time>2025-05-15T14:51:30Z</time>
      </trkpt>
      <trkpt lat="42.411551959812641" lon="3.155116997659206">
        <ele>54.450000000000003</ele>
        <time>2025-05-15T14:51:31Z</time>
      </trkpt>
      <trkpt lat="42.411648016422987" lon="3.154938966035843">
        <ele>55.409999999999997</ele>
        <time>2025-05-15T14:51:32Z</time>
      </trkpt>
      <trkpt lat="42.411740971729159" lon="3.154749032109976">
        <ele>56.369999999999997</ele>
        <time>2025-05-15T14:51:33Z</time>
      </trkpt>
      <trkpt lat="42.412126958370209" lon="3.154044030234218">
        <ele>60.700000000000003</ele>
        <time>2025-05-15T14:51:37Z</time>
      </trkpt>
      <trkpt lat="42.412230977788568" lon="3.153955014422536">
        <ele>61.659999999999997</ele>
        <time>2025-05-15T14:51:38Z</time>
      </trkpt>
      <trkpt lat="42.412313036620617" lon="3.153934981673956">
        <ele>62.619999999999997</ele>
        <time>2025-05-15T14:51:39Z</time>
      </trkpt>
      <trkpt lat="42.412435999140143" lon="3.153980998322368">
        <ele>63.100000000000001</ele>
        <time>2025-05-15T14:51:40Z</time>
      </trkpt>
      <trkpt lat="42.412521997466683" lon="3.154059033840895">
        <ele>63.579999999999998</ele>
        <time>2025-05-15T14:51:41Z</time>
      </trkpt>
      <trkpt lat="42.412593998014927" lon="3.154187025502324">
        <ele>64.549999999999997</ele>
        <time>2025-05-15T14:51:42Z</time>
      </trkpt>
      <trkpt lat="42.412618976086378" lon="3.154363967478275">
        <ele>65.510000000000005</ele>
        <time>2025-05-15T14:51:43Z</time>
      </trkpt>
      <trkpt lat="42.412630040198565" lon="3.154574017971754">
        <ele>66.469999999999999</ele>
        <time>2025-05-15T14:51:44Z</time>
      </trkpt>
      <trkpt lat="42.412620987743139" lon="3.15480200573802">
        <ele>67.430000000000007</ele>
        <time>2025-05-15T14:51:45Z</time>
      </trkpt>
      <trkpt lat="42.412620987743139" lon="3.156345030292869">
        <ele>74.159999999999997</ele>
        <time>2025-05-15T14:51:51Z</time>
      </trkpt>
      <trkpt lat="42.412657029926777" lon="3.156557008624077">
        <ele>74.640000000000001</ele>
        <time>2025-05-15T14:51:52Z</time>
      </trkpt>
      <trkpt lat="42.412716038525105" lon="3.15673696808517">
        <ele>75.120000000000005</ele>
        <time>2025-05-15T14:51:53Z</time>
      </trkpt>
      <trkpt lat="42.41281402297318" lon="3.156876023858786">
        <ele>75.599999999999994</ele>
        <time>2025-05-15T14:51:54Z</time>
      </trkpt>
      <trkpt lat="42.412942014634609" lon="3.156964033842087">
        <ele>76.079999999999998</ele>
        <time>2025-05-15T14:51:55Z</time>
      </trkpt>
      <trkpt lat="42.413080986589193" lon="3.157048020511866">
        <ele>75.599999999999994</ele>
        <time>2025-05-15T14:51:56Z</time>
      </trkpt>
      <trkpt lat="42.413207972422242" lon="3.157155979424715">
        <ele>75.599999999999994</ele>
        <time>2025-05-15T14:51:57Z</time>
      </trkpt>
      <trkpt lat="42.41330998018384" lon="3.157310960814357">
        <ele>75.599999999999994</ele>
        <time>2025-05-15T14:51:58Z</time>
      </trkpt>
      <trkpt lat="42.413351973518729" lon="3.157511036843061">
        <ele>75.120000000000005</ele>
        <time>2025-05-15T14:51:59Z</time>
      </trkpt>
      <trkpt lat="42.41339597851038" lon="3.157726032659411">
        <ele>75.599999999999994</ele>
        <time>2025-05-15T14:52:00Z</time>
      </trkpt>
      <trkpt lat="42.413443000987172" lon="3.157948991283774">
        <ele>76.079999999999998</ele>
        <time>2025-05-15T14:52:01Z</time>
      </trkpt>
      <trkpt lat="42.413491029292345" lon="3.158177984878421">
        <ele>76.560000000000002</ele>
        <time>2025-05-15T14:52:02Z</time>
      </trkpt>
      <trkpt lat="42.413566969335079" lon="3.158404966816306">
        <ele>77.519999999999996</ele>
        <time>2025-05-15T14:52:03Z</time>
      </trkpt>
      <trkpt lat="42.413666965439916" lon="3.158622980117798">
        <ele>78</ele>
        <time>2025-05-15T14:52:04Z</time>
      </trkpt>
      <trkpt lat="42.413763022050261" lon="3.158830013126135">
        <ele>78.480000000000004</ele>
        <time>2025-05-15T14:52:05Z</time>
      </trkpt>
      <trkpt lat="42.413895037025213" lon="3.158962028101087">
        <ele>78.969999999999999</ele>
        <time>2025-05-15T14:52:06Z</time>
      </trkpt>
      <trkpt lat="42.414051024243236" lon="3.159106029197574">
        <ele>79.450000000000003</ele>
        <time>2025-05-15T14:52:07Z</time>
      </trkpt>
      <trkpt lat="42.414175998419523" lon="3.159155985340476">
        <ele>79.930000000000007</ele>
        <time>2025-05-15T14:52:08Z</time>
      </trkpt>
      <trkpt lat="42.414345983415842" lon="3.159223962575197">
        <ele>79.930000000000007</ele>
        <time>2025-05-15T14:52:09Z</time>
      </trkpt>
      <trkpt lat="42.414525020867586" lon="3.159295963123441">
        <ele>80.409999999999997</ele>
        <time>2025-05-15T14:52:10Z</time>
      </trkpt>
      <trkpt lat="42.414676984772086" lon="3.159453961998224">
        <ele>80.409999999999997</ele>
        <time>2025-05-15T14:52:11Z</time>
      </trkpt>
      <trkpt lat="42.414804976433516" lon="3.159641968086362">
        <ele>80.890000000000001</ele>
        <time>2025-05-15T14:52:12Z</time>
      </trkpt>
      <trkpt lat="42.414931962266564" lon="3.159828968346119">
        <ele>81.370000000000005</ele>
        <time>2025-05-15T14:52:13Z</time>
      </trkpt>
      <trkpt lat="42.415056014433503" lon="3.160003982484341">
        <ele>82.329999999999998</ele>
        <time>2025-05-15T14:52:14Z</time>
      </trkpt>
      <trkpt lat="42.41519900970161" lon="3.160146977752447">
        <ele>82.810000000000002</ele>
        <time>2025-05-15T14:52:15Z</time>
      </trkpt>
      <trkpt lat="42.415354996919632" lon="3.160250997170806">
        <ele>83.769999999999996</ele>
        <time>2025-05-15T14:52:16Z</time>
      </trkpt>
      <trkpt lat="42.416257979348302" lon="3.160750977694988">
        <ele>86.180000000000007</ele>
        <time>2025-05-15T14:52:23Z</time>
      </trkpt>
      <trkpt lat="42.41663902066648" lon="3.16086002625525">
        <ele>87.140000000000001</ele>
        <time>2025-05-15T14:52:26Z</time>
      </trkpt>
      <trkpt lat="42.416772041469812" lon="3.160886010155082">
        <ele>87.620000000000005</ele>
        <time>2025-05-15T14:52:27Z</time>
      </trkpt>
      <trkpt lat="42.421020995825529" lon="3.160842005163431">
        <ele>81.370000000000005</ele>
        <time>2025-05-15T14:52:59Z</time>
      </trkpt>
      <trkpt lat="42.421861030161381" lon="3.160846028476954">
        <ele>81.370000000000005</ele>
        <time>2025-05-15T14:53:02Z</time>
      </trkpt>
      <trkpt lat="42.422679020091891" lon="3.161130007356405">
        <ele>83.769999999999996</ele>
        <time>2025-05-15T14:53:08Z</time>
      </trkpt>
      <trkpt lat="42.422802988439798" lon="3.161257999017835">
        <ele>84.25</ele>
        <time>2025-05-15T14:53:09Z</time>
      </trkpt>
      <trkpt lat="42.423136001452804" lon="3.161766026169062">
        <ele>82.329999999999998</ele>
        <time>2025-05-15T14:53:12Z</time>
      </trkpt>
      <trkpt lat="42.423209007829428" lon="3.161970041692257">
        <ele>81.370000000000005</ele>
        <time>2025-05-15T14:53:13Z</time>
      </trkpt>
      <trkpt lat="42.423276985064149" lon="3.162171961739659">
        <ele>80.890000000000001</ele>
        <time>2025-05-15T14:53:14Z</time>
      </trkpt>
      <trkpt lat="42.423576973378658" lon="3.16406300291419">
        <ele>70.790000000000006</ele>
        <time>2025-05-15T14:53:23Z</time>
      </trkpt>
      <trkpt lat="42.423652997240424" lon="3.164440020918846">
        <ele>68.390000000000001</ele>
        <time>2025-05-15T14:53:25Z</time>
      </trkpt>
      <trkpt lat="42.423714017495513" lon="3.1646219920367">
        <ele>67.430000000000007</ele>
        <time>2025-05-15T14:53:26Z</time>
      </trkpt>
      <trkpt lat="42.424019034951925" lon="3.165019964799285">
        <ele>66.950000000000003</ele>
        <time>2025-05-15T14:53:30Z</time>
      </trkpt>
      <trkpt lat="42.424178039655089" lon="3.165087020024657">
        <ele>66.469999999999999</ele>
        <time>2025-05-15T14:53:31Z</time>
      </trkpt>
      <trkpt lat="42.424313994124532" lon="3.165108980610967">
        <ele>65.510000000000005</ele>
        <time>2025-05-15T14:53:32Z</time>
      </trkpt>
      <trkpt lat="42.424485990777612" lon="3.16509498283267">
        <ele>64.549999999999997</ele>
        <time>2025-05-15T14:53:33Z</time>
      </trkpt>
      <trkpt lat="42.42460903711617" lon="3.16502901725471">
        <ele>63.579999999999998</ele>
        <time>2025-05-15T14:53:34Z</time>
      </trkpt>
      <trkpt lat="42.424747003242373" lon="3.164928015321493">
        <ele>63.100000000000001</ele>
        <time>2025-05-15T14:53:35Z</time>
      </trkpt>
      <trkpt lat="42.424887986853719" lon="3.164756018668413">
        <ele>61.659999999999997</ele>
        <time>2025-05-15T14:53:36Z</time>
      </trkpt>
      <trkpt lat="42.424985971301794" lon="3.16453498788178">
        <ele>61.18</ele>
        <time>2025-05-15T14:53:37Z</time>
      </trkpt>
      <trkpt lat="42.425085967406631" lon="3.164309011772275">
        <ele>59.259999999999998</ele>
        <time>2025-05-15T14:53:38Z</time>
      </trkpt>
      <trkpt lat="42.42529802955687" lon="3.163922019302845">
        <ele>55.890000000000001</ele>
        <time>2025-05-15T14:53:40Z</time>
      </trkpt>
      <trkpt lat="42.425404982641339" lon="3.163758991286159">
        <ele>53.969999999999999</ele>
        <time>2025-05-15T14:53:41Z</time>
      </trkpt>
      <trkpt lat="42.425517970696092" lon="3.163626976311207">
        <ele>52.530000000000001</ele>
        <time>2025-05-15T14:53:42Z</time>
      </trkpt>
      <trkpt lat="42.425589971244335" lon="3.163463026285172">
        <ele>51.090000000000003</ele>
        <time>2025-05-15T14:53:43Z</time>
      </trkpt>
      <trkpt lat="42.425616038963199" lon="3.163306033238769">
        <ele>50.130000000000003</ele>
        <time>2025-05-15T14:53:44Z</time>
      </trkpt>
      <trkpt lat="42.425616038963199" lon="3.163161026313901">
        <ele>48.68</ele>
        <time>2025-05-15T14:53:45Z</time>
      </trkpt>
      <trkpt lat="42.425564993172884" lon="3.163077961653471">
        <ele>47.240000000000002</ele>
        <time>2025-05-15T14:53:46Z</time>
      </trkpt>
      <trkpt lat="42.425497015938163" lon="3.16296799108386">
        <ele>46.280000000000001</ele>
        <time>2025-05-15T14:53:47Z</time>
      </trkpt>
      <trkpt lat="42.425442030653358" lon="3.16288199275732">
        <ele>44.840000000000003</ele>
        <time>2025-05-15T14:53:48Z</time>
      </trkpt>
      <trkpt lat="42.425311021506786" lon="3.162827007472515">
        <ele>43.880000000000003</ele>
        <time>2025-05-15T14:53:49Z</time>
      </trkpt>
      <trkpt lat="42.425171965733171" lon="3.162771016359329">
        <ele>42.920000000000002</ele>
        <time>2025-05-15T14:53:50Z</time>
      </trkpt>
      <trkpt lat="42.42501899600029" lon="3.16273296251893">
        <ele>41.469999999999999</ele>
        <time>2025-05-15T14:53:51Z</time>
      </trkpt>
      <trkpt lat="42.424895027652383" lon="3.162717958912253">
        <ele>40.030000000000001</ele>
        <time>2025-05-15T14:53:52Z</time>
      </trkpt>
      <trkpt lat="42.424754966050386" lon="3.162747966125608">
        <ele>38.590000000000003</ele>
        <time>2025-05-15T14:53:53Z</time>
      </trkpt>
      <trkpt lat="42.424618005752563" lon="3.162778979167342">
        <ele>37.149999999999999</ele>
        <time>2025-05-15T14:53:54Z</time>
      </trkpt>
      <trkpt lat="42.424488002434373" lon="3.162824995815754">
        <ele>35.710000000000001</ele>
        <time>2025-05-15T14:53:55Z</time>
      </trkpt>
      <trkpt lat="42.42437400855124" lon="3.162865983322263">
        <ele>34.740000000000002</ele>
        <time>2025-05-15T14:53:56Z</time>
      </trkpt>
      <trkpt lat="42.424255991354585" lon="3.162831030786037">
        <ele>33.299999999999997</ele>
        <time>2025-05-15T14:53:57Z</time>
      </trkpt>
      <trkpt lat="42.424165969714522" lon="3.162743020802736">
        <ele>32.340000000000003</ele>
        <time>2025-05-15T14:53:58Z</time>
      </trkpt>
      <trkpt lat="42.424135962501168" lon="3.162597008049488">
        <ele>31.379999999999999</ele>
        <time>2025-05-15T14:53:59Z</time>
      </trkpt>
      <trkpt lat="42.424135962501168" lon="3.162431968376041">
        <ele>30.420000000000002</ele>
        <time>2025-05-15T14:54:00Z</time>
      </trkpt>
      <trkpt lat="42.424166975542903" lon="3.162263995036483">
        <ele>29.460000000000001</ele>
        <time>2025-05-15T14:54:01Z</time>
      </trkpt>
      <trkpt lat="42.42420201189816" lon="3.162072971463203">
        <ele>28.5</ele>
        <time>2025-05-15T14:54:02Z</time>
      </trkpt>
      <trkpt lat="42.424352969974279" lon="3.16141901537776">
        <ele>24.649999999999999</ele>
        <time>2025-05-15T14:54:06Z</time>
      </trkpt>
      <trkpt lat="42.424408039078116" lon="3.161364030092955">
        <ele>23.690000000000001</ele>
        <time>2025-05-15T14:54:07Z</time>
      </trkpt>
      <trkpt lat="42.42450300604105" lon="3.161321030929685">
        <ele>22.73</ele>
        <time>2025-05-15T14:54:08Z</time>
      </trkpt>
      <trkpt lat="42.424604007974267" lon="3.161275014281273">
        <ele>21.77</ele>
        <time>2025-05-15T14:54:09Z</time>
      </trkpt>
      <trkpt lat="42.424696041271091" lon="3.161219023168087">
        <ele>20.809999999999999</ele>
        <time>2025-05-15T14:54:10Z</time>
      </trkpt>
      <trkpt lat="42.424923023208976" lon="3.161057000979781">
        <ele>17.920000000000002</ele>
        <time>2025-05-15T14:54:13Z</time>
      </trkpt>
      <trkpt lat="42.424979014322162" lon="3.160991035401821">
        <ele>17.440000000000001</ele>
        <time>2025-05-15T14:54:14Z</time>
      </trkpt>
      <trkpt lat="42.425032993778586" lon="3.160920040681958">
        <ele>16.960000000000001</ele>
        <time>2025-05-15T14:54:15Z</time>
      </trkpt>
      <trkpt lat="42.425123015418649" lon="3.160801017656922">
        <ele>15.52</ele>
        <time>2025-05-15T14:54:17Z</time>
      </trkpt>
      <trkpt lat="42.425174983218312" lon="3.160788025707007">
        <ele>15.039999999999999</ele>
        <time>2025-05-15T14:54:18Z</time>
      </trkpt>
      <trkpt lat="42.42521203123033" lon="3.160781990736723">
        <ele>14.08</ele>
        <time>2025-05-15T14:54:19Z</time>
      </trkpt>
      <trkpt lat="42.425259975716472" lon="3.160814009606838">
        <ele>13.6</ele>
        <time>2025-05-15T14:54:20Z</time>
      </trkpt>
      <trkpt lat="42.425266010686755" lon="3.160883998498321">
        <ele>12.630000000000001</ele>
        <time>2025-05-15T14:54:21Z</time>
      </trkpt>
      <trkpt lat="42.42525695823133" lon="3.160967985168099">
        <ele>12.15</ele>
        <time>2025-05-15T14:54:22Z</time>
      </trkpt>
      <trkpt lat="42.425227034837008" lon="3.161044009029865">
        <ele>11.67</ele>
        <time>2025-05-15T14:54:23Z</time>
      </trkpt>
      <trkpt lat="42.425172971561551" lon="3.161107040941715">
        <ele>10.710000000000001</ele>
        <time>2025-05-15T14:54:24Z</time>
      </trkpt>
      <trkpt lat="42.425113962963223" lon="3.161175018176436">
        <ele>10.23</ele>
        <time>2025-05-15T14:54:25Z</time>
      </trkpt>
      <trkpt lat="42.425044979900122" lon="3.161251964047551">
        <ele>9.27</ele>
        <time>2025-05-15T14:54:26Z</time>
      </trkpt>
      <trkpt lat="42.424970967695117" lon="3.161334022879601">
        <ele>8.310000000000001</ele>
        <time>2025-05-15T14:54:27Z</time>
      </trkpt>
      <trkpt lat="42.42491103708744" lon="3.161409040912986">
        <ele>7.35</ele>
        <time>2025-05-15T14:54:28Z</time>
      </trkpt>
      <trkpt lat="42.424859991297126" lon="3.161490010097623">
        <ele>6.39</ele>
        <time>2025-05-15T14:54:29Z</time>
      </trkpt>
      <trkpt lat="42.424807017669082" lon="3.161572990939021">
        <ele>5.42</ele>
        <time>2025-05-15T14:54:30Z</time>
      </trkpt>
      <trkpt lat="42.424779022112489" lon="3.161641974002123">
        <ele>4.94</ele>
        <time>2025-05-15T14:54:31Z</time>
      </trkpt>
      <trkpt lat="42.424779022112489" lon="3.161701988428831">
        <ele>4.46</ele>
        <time>2025-05-15T14:54:32Z</time>
      </trkpt>
      <trkpt lat="42.42480400018394" lon="3.161744987592101">
        <ele>3.98</ele>
        <time>2025-05-15T14:54:33Z</time>
      </trkpt>
      <trkpt lat="42.424831995740533" lon="3.161794021725655">
        <ele>3.5</ele>
        <time>2025-05-15T14:54:34Z</time>
      </trkpt>
      <trkpt lat="42.424860997125506" lon="3.161844983696938">
        <ele>3.02</ele>
        <time>2025-05-15T14:54:35Z</time>
      </trkpt>
      <trkpt lat="42.424885975196958" lon="3.16184900701046">
        <ele>2.06</ele>
        <time>2025-05-15T14:54:36Z</time>
      </trkpt>
      <trkpt lat="42.424946995452046" lon="3.161840960383415">
        <ele>1.1</ele>
        <time>2025-05-15T14:54:37Z</time>
      </trkpt>
      <trkpt lat="42.425014972686768" lon="3.161830985918641">
        <ele>0.62</ele>
        <time>2025-05-15T14:54:38Z</time>
      </trkpt>
      <trkpt lat="42.42506199516356" lon="3.161794021725655">
        <ele>-0.34</ele>
        <time>2025-05-15T14:54:39Z</time>
      </trkpt>
      <trkpt lat="42.425118992105126" lon="3.161749010905623">
        <ele>-0.82</ele>
        <time>2025-05-15T14:54:40Z</time>
      </trkpt>
      <trkpt lat="42.425236003473401" lon="3.161655971780419">
        <ele>-1.3</ele>
        <time>2025-05-15T14:54:42Z</time>
      </trkpt>
      <trkpt lat="42.425478994846344" lon="3.161464026197791">
        <ele>-3.23</ele>
        <time>2025-05-15T14:54:46Z</time>
      </trkpt>
      <trkpt lat="42.425530040636659" lon="3.161423038691282">
        <ele>-3.71</ele>
        <time>2025-05-15T14:54:47Z</time>
      </trkpt>
      <trkpt lat="42.425602041184902" lon="3.161409040912986">
        <ele>-4.19</ele>
        <time>2025-05-15T14:54:48Z</time>
      </trkpt>
      <trkpt lat="42.425657026469707" lon="3.161381967365742">
        <ele>-4.67</ele>
        <time>2025-05-15T14:54:49Z</time>
      </trkpt>
      <trkpt lat="42.425712011754513" lon="3.161321030929685">
        <ele>-5.63</ele>
        <time>2025-05-15T14:54:50Z</time>
      </trkpt>
      <trkpt lat="42.425723997876048" lon="3.161273002624512">
        <ele>-6.11</ele>
        <time>2025-05-15T14:54:51Z</time>
      </trkpt>
      <trkpt lat="42.425723997876048" lon="3.161179041489959">
        <ele>-6.59</ele>
        <time>2025-05-15T14:54:52Z</time>
      </trkpt>
      <trkpt lat="42.425723997876048" lon="3.161107962951064">
        <ele>-7.55</ele>
        <time>2025-05-15T14:54:53Z</time>
      </trkpt>
      <trkpt lat="42.425723997876048" lon="3.161045014858246">
        <ele>-8.029999999999999</ele>
        <time>2025-05-15T14:54:54Z</time>
      </trkpt>
      <trkpt lat="42.425723997876048" lon="3.160977959632874">
        <ele>-8.51</ele>
        <time>2025-05-15T14:54:55Z</time>
      </trkpt>
      <trkpt lat="42.425723997876048" lon="3.160894978791475">
        <ele>-9</ele>
        <time>2025-05-15T14:54:56Z</time>
      </trkpt>
      <trkpt lat="42.425723997876048" lon="3.160801017656922">
        <ele>-9.48</ele>
        <time>2025-05-15T14:54:57Z</time>
      </trkpt>
      <trkpt lat="42.425723997876048" lon="3.160720970481634">
        <ele>-9.960000000000001</ele>
        <time>2025-05-15T14:54:58Z</time>
      </trkpt>
      <trkpt lat="42.425745036453009" lon="3.160178996622562">
        <ele>-12.359999999999999</ele>
        <time>2025-05-15T14:55:06Z</time>
      </trkpt>
      <trkpt lat="42.425780994817615" lon="3.160178996622562">
        <ele>-12.84</ele>
        <time>2025-05-15T14:55:07Z</time>
      </trkpt>
      <trkpt lat="42.425834974274039" lon="3.160178996622562">
        <ele>-13.32</ele>
        <time>2025-05-15T14:55:08Z</time>
      </trkpt>
      <trkpt lat="42.425891971215606" lon="3.160178996622562">
        <ele>-13.800000000000001</ele>
        <time>2025-05-15T14:55:09Z</time>
      </trkpt>
      <trkpt lat="42.425957014784217" lon="3.160182014107704">
        <ele>-14.279999999999999</ele>
        <time>2025-05-15T14:55:10Z</time>
      </trkpt>
      <trkpt lat="42.426206963136792" lon="3.160226019099355">
        <ele>-15.720000000000001</ele>
        <time>2025-05-15T14:55:14Z</time>
      </trkpt>
      <trkpt lat="42.426276030018926" lon="3.16023699939251">
        <ele>-15.720000000000001</ele>
        <time>2025-05-15T14:55:15Z</time>
      </trkpt>
      <trkpt lat="42.426347024738789" lon="3.160247979685664">
        <ele>-16.210000000000001</ele>
        <time>2025-05-15T14:55:16Z</time>
      </trkpt>
      <trkpt lat="42.426507035270333" lon="3.160273963585496">
        <ele>-16.690000000000001</ele>
        <time>2025-05-15T14:55:19Z</time>
      </trkpt>
      <trkpt lat="42.426581969484687" lon="3.160286033526063">
        <ele>-16.690000000000001</ele>
        <time>2025-05-15T14:55:20Z</time>
      </trkpt>
      <trkpt lat="42.426622034981847" lon="3.160305982455611">
        <ele>-16.690000000000001</ele>
        <time>2025-05-15T14:55:21Z</time>
      </trkpt>
      <trkpt lat="42.426676014438272" lon="3.160331966355443">
        <ele>-16.690000000000001</ele>
        <time>2025-05-15T14:55:22Z</time>
      </trkpt>
      <trkpt lat="42.426732005551457" lon="3.160349987447262">
        <ele>-16.210000000000001</ele>
        <time>2025-05-15T14:55:23Z</time>
      </trkpt>
      <trkpt lat="42.426795037463307" lon="3.160349987447262">
        <ele>-16.210000000000001</ele>
        <time>2025-05-15T14:55:24Z</time>
      </trkpt>
      <trkpt lat="42.426861003041267" lon="3.160349987447262">
        <ele>-15.720000000000001</ele>
        <time>2025-05-15T14:55:25Z</time>
      </trkpt>
      <trkpt lat="42.426949013024569" lon="3.160275975242257">
        <ele>-15.720000000000001</ele>
        <time>2025-05-15T14:55:26Z</time>
      </trkpt>
      <trkpt lat="42.426965022459626" lon="3.16019500605762">
        <ele>-15.720000000000001</ele>
        <time>2025-05-15T14:55:27Z</time>
      </trkpt>
      <trkpt lat="42.426968039944768" lon="3.160083023831248">
        <ele>-15.24</ele>
        <time>2025-05-15T14:55:28Z</time>
      </trkpt>
      <trkpt lat="42.426968039944768" lon="3.159990990534425">
        <ele>-14.76</ele>
        <time>2025-05-15T14:55:29Z</time>
      </trkpt>
      <trkpt lat="42.426968039944768" lon="3.159444993361831">
        <ele>-12.359999999999999</ele>
        <time>2025-05-15T14:55:35Z</time>
      </trkpt>
      <trkpt lat="42.426971979439259" lon="3.159367041662335">
        <ele>-12.359999999999999</ele>
        <time>2025-05-15T14:55:36Z</time>
      </trkpt>
      <trkpt lat="42.427002992480993" lon="3.158767987042666">
        <ele>-10.92</ele>
        <time>2025-05-15T14:55:43Z</time>
      </trkpt>
      <trkpt lat="42.427007015794516" lon="3.158685006201267">
        <ele>-10.92</ele>
        <time>2025-05-15T14:55:44Z</time>
      </trkpt>
      <trkpt lat="42.427028976380825" lon="3.158598002046347">
        <ele>-10.44</ele>
        <time>2025-05-15T14:55:45Z</time>
      </trkpt>
      <trkpt lat="42.42708002217114" lon="3.158557014539838">
        <ele>-10.92</ele>
        <time>2025-05-15T14:55:46Z</time>
      </trkpt>
      <trkpt lat="42.427143976092339" lon="3.15851996652782">
        <ele>-10.92</ele>
        <time>2025-05-15T14:55:47Z</time>
      </trkpt>
      <trkpt lat="42.427214970812201" lon="3.158503035083413">
        <ele>-10.92</ele>
        <time>2025-05-15T14:55:48Z</time>
      </trkpt>
      <trkpt lat="42.427285965532064" lon="3.158486019819975">
        <ele>-10.92</ele>
        <time>2025-05-15T14:55:49Z</time>
      </trkpt>
      <trkpt lat="42.427741019055247" lon="3.158376971259713">
        <ele>-10.44</ele>
        <time>2025-05-15T14:55:55Z</time>
      </trkpt>
      <trkpt lat="42.4281320348382" lon="3.158302959054709">
        <ele>-9.48</ele>
        <time>2025-05-15T14:56:00Z</time>
      </trkpt>
      <trkpt lat="42.428196994587779" lon="3.158335983753204">
        <ele>-9</ele>
        <time>2025-05-15T14:56:01Z</time>
      </trkpt>
      <trkpt lat="42.428277041763067" lon="3.158375965431333">
        <ele>-8.51</ele>
        <time>2025-05-15T14:56:02Z</time>
      </trkpt>
      <trkpt lat="42.428300008177757" lon="3.158465987071395">
        <ele>-8.029999999999999</ele>
        <time>2025-05-15T14:56:03Z</time>
      </trkpt>
      <trkpt lat="42.42830696515739" lon="3.158580986782908">
        <ele>-8.029999999999999</ele>
        <time>2025-05-15T14:56:04Z</time>
      </trkpt>
      <trkpt lat="42.428277041763067" lon="3.158654998987913">
        <ele>-7.07</ele>
        <time>2025-05-15T14:56:05Z</time>
      </trkpt>
      <trkpt lat="42.428219961002469" lon="3.158703027293086">
        <ele>-6.59</ele>
        <time>2025-05-15T14:56:06Z</time>
      </trkpt>
      <trkpt lat="42.428149972110987" lon="3.158761030063033">
        <ele>-6.11</ele>
        <time>2025-05-15T14:56:07Z</time>
      </trkpt>
      <trkpt lat="42.428077971562743" lon="3.15882096067071">
        <ele>-5.15</ele>
        <time>2025-05-15T14:56:08Z</time>
      </trkpt>
      <trkpt lat="42.428004965186119" lon="3.158880975097418">
        <ele>-4.67</ele>
        <time>2025-05-15T14:56:09Z</time>
      </trkpt>
      <trkpt lat="42.427929025143385" lon="3.158937972038984">
        <ele>-3.71</ele>
        <time>2025-05-15T14:56:10Z</time>
      </trkpt>
      <trkpt lat="42.427850989624858" lon="3.158995974808931">
        <ele>-3.23</ele>
        <time>2025-05-15T14:56:11Z</time>
      </trkpt>
      <trkpt lat="42.427761973813176" lon="3.159063030034304">
        <ele>-2.27</ele>
        <time>2025-05-15T14:56:12Z</time>
      </trkpt>
      <trkpt lat="42.427715035155416" lon="3.15914198756218">
        <ele>-1.79</ele>
        <time>2025-05-15T14:56:13Z</time>
      </trkpt>
      <trkpt lat="42.427669018507004" lon="3.159218011423945">
        <ele>-0.82</ele>
        <time>2025-05-15T14:56:14Z</time>
      </trkpt>
      <trkpt lat="42.427629036828876" lon="3.159339968115091">
        <ele>0.14</ele>
        <time>2025-05-15T14:56:15Z</time>
      </trkpt>
      <trkpt lat="42.427620990201831" lon="3.159450022503734">
        <ele>1.1</ele>
        <time>2025-05-15T14:56:16Z</time>
      </trkpt>
      <trkpt lat="42.427613027393818" lon="3.159563010558486">
        <ele>2.06</ele>
        <time>2025-05-15T14:56:17Z</time>
      </trkpt>
      <trkpt lat="42.42764001712203" lon="3.159681027755141">
        <ele>3.02</ele>
        <time>2025-05-15T14:56:18Z</time>
      </trkpt>
      <trkpt lat="42.427663989365101" lon="3.159769037738442">
        <ele>4.94</ele>
        <time>2025-05-15T14:56:19Z</time>
      </trkpt>
      <trkpt lat="42.427703971043229" lon="3.159841960296035">
        <ele>6.87</ele>
        <time>2025-05-15T14:56:20Z</time>
      </trkpt>
      <trkpt lat="42.427756022661924" lon="3.15989401191473">
        <ele>8.310000000000001</ele>
        <time>2025-05-15T14:56:21Z</time>
      </trkpt>
      <trkpt lat="42.42781100794673" lon="3.159947991371155">
        <ele>9.27</ele>
        <time>2025-05-15T14:56:22Z</time>
      </trkpt>
      <trkpt lat="42.427874961867929" lon="3.15997900441289">
        <ele>9.75</ele>
        <time>2025-05-15T14:56:23Z</time>
      </trkpt>
      <trkpt lat="42.427951991558075" lon="3.159961989149451">
        <ele>10.710000000000001</ele>
        <time>2025-05-15T14:56:24Z</time>
      </trkpt>
      <trkpt lat="42.428031032904983" lon="3.159942962229252">
        <ele>11.19</ele>
        <time>2025-05-15T14:56:25Z</time>
      </trkpt>
      <trkpt lat="42.428127005696297" lon="3.159921001642942">
        <ele>11.67</ele>
        <time>2025-05-15T14:56:26Z</time>
      </trkpt>
      <trkpt lat="42.428190959617496" lon="3.159880014136434">
        <ele>12.630000000000001</ele>
        <time>2025-05-15T14:56:27Z</time>
      </trkpt>
      <trkpt lat="42.428257009014487" lon="3.159838020801544">
        <ele>13.119999999999999</ele>
        <time>2025-05-15T14:56:28Z</time>
      </trkpt>
      <trkpt lat="42.428320962935686" lon="3.159797033295035">
        <ele>14.08</ele>
        <time>2025-05-15T14:56:29Z</time>
      </trkpt>
      <trkpt lat="42.428387012332678" lon="3.159755039960146">
        <ele>15.039999999999999</ele>
        <time>2025-05-15T14:56:30Z</time>
      </trkpt>
      <trkpt lat="42.42845700122416" lon="3.159710029140115">
        <ele>16</ele>
        <time>2025-05-15T14:56:31Z</time>
      </trkpt>
      <trkpt lat="42.42860603146255" lon="3.159613972529769">
        <ele>17.920000000000002</ele>
        <time>2025-05-15T14:56:33Z</time>
      </trkpt>
      <trkpt lat="42.42912202142179" lon="3.15925195813179">
        <ele>24.649999999999999</ele>
        <time>2025-05-15T14:56:40Z</time>
      </trkpt>
      <trkpt lat="42.429454028606415" lon="3.158973008394241">
        <ele>28.5</ele>
        <time>2025-05-15T14:56:45Z</time>
      </trkpt>
      <trkpt lat="42.429518988355994" lon="3.158920034766197">
        <ele>28.98</ele>
        <time>2025-05-15T14:56:46Z</time>
      </trkpt>
      <trkpt lat="42.429647985845804" lon="3.158825989812613">
        <ele>29.940000000000001</ele>
        <time>2025-05-15T14:56:48Z</time>
      </trkpt>
      <trkpt lat="42.429709006100893" lon="3.158781984820962">
        <ele>30.420000000000002</ele>
        <time>2025-05-15T14:56:49Z</time>
      </trkpt>
      <trkpt lat="42.429780000820756" lon="3.158800005912781">
        <ele>30.899999999999999</ele>
        <time>2025-05-15T14:56:50Z</time>
      </trkpt>
      <trkpt lat="42.429835991933942" lon="3.158848034217954">
        <ele>31.379999999999999</ele>
        <time>2025-05-15T14:56:51Z</time>
      </trkpt>
      <trkpt lat="42.429886031895876" lon="3.158923974260688">
        <ele>31.859999999999999</ele>
        <time>2025-05-15T14:56:52Z</time>
      </trkpt>
      <trkpt lat="42.429886031895876" lon="3.159018019214273">
        <ele>31.859999999999999</ele>
        <time>2025-05-15T14:56:53Z</time>
      </trkpt>
      <trkpt lat="42.429867004975677" lon="3.159121032804251">
        <ele>32.340000000000003</ele>
        <time>2025-05-15T14:56:54Z</time>
      </trkpt>
      <trkpt lat="42.4298329744488" lon="3.159222034737468">
        <ele>32.340000000000003</ele>
        <time>2025-05-15T14:56:55Z</time>
      </trkpt>
      <trkpt lat="42.429800033569336" lon="3.159325970336795">
        <ele>32.82</ele>
        <time>2025-05-15T14:56:56Z</time>
      </trkpt>
      <trkpt lat="42.429792992770672" lon="3.159448010846973">
        <ele>33.299999999999997</ele>
        <time>2025-05-15T14:56:57Z</time>
      </trkpt>
      <trkpt lat="42.42978704161942" lon="3.159566028043628">
        <ele>33.780000000000001</ele>
        <time>2025-05-15T14:56:58Z</time>
      </trkpt>
      <trkpt lat="42.429748987779021" lon="3.159774988889694">
        <ele>34.740000000000002</ele>
        <time>2025-05-15T14:57:00Z</time>
      </trkpt>
      <trkpt lat="42.429710011929274" lon="3.159860987216234">
        <ele>35.229999999999997</ele>
        <time>2025-05-15T14:57:01Z</time>
      </trkpt>
      <trkpt lat="42.429596018046141" lon="3.160126022994518">
        <ele>36.670000000000002</ele>
        <time>2025-05-15T14:57:04Z</time>
      </trkpt>
      <trkpt lat="42.429559975862503" lon="3.160239011049271">
        <ele>37.630000000000003</ele>
        <time>2025-05-15T14:57:05Z</time>
      </trkpt>
      <trkpt lat="42.429480012506247" lon="3.160696998238564">
        <ele>40.509999999999998</ele>
        <time>2025-05-15T14:57:09Z</time>
      </trkpt>
      <trkpt lat="42.42950901389122" lon="3.160799006000161">
        <ele>40.990000000000002</ele>
        <time>2025-05-15T14:57:10Z</time>
      </trkpt>
      <trkpt lat="42.429541032761335" lon="3.160890033468604">
        <ele>41.950000000000003</ele>
        <time>2025-05-15T14:57:11Z</time>
      </trkpt>
      <trkpt lat="42.429577996954322" lon="3.160992041230202">
        <ele>42.920000000000002</ele>
        <time>2025-05-15T14:57:12Z</time>
      </trkpt>
      <trkpt lat="42.429630970582366" lon="3.161089019849896">
        <ele>43.399999999999999</ele>
        <time>2025-05-15T14:57:13Z</time>
      </trkpt>
      <trkpt lat="42.429694002494216" lon="3.161191027611494">
        <ele>44.359999999999999</ele>
        <time>2025-05-15T14:57:14Z</time>
      </trkpt>
      <trkpt lat="42.429758040234447" lon="3.161294041201472">
        <ele>44.840000000000003</ele>
        <time>2025-05-15T14:57:15Z</time>
      </trkpt>
      <trkpt lat="42.429842026904225" lon="3.161378027871251">
        <ele>45.799999999999997</ele>
        <time>2025-05-15T14:57:16Z</time>
      </trkpt>
      <trkpt lat="42.429929031059146" lon="3.161466037854552">
        <ele>46.280000000000001</ele>
        <time>2025-05-15T14:57:17Z</time>
      </trkpt>
      <trkpt lat="42.430046964436769" lon="3.161487998440862">
        <ele>47.240000000000002</ele>
        <time>2025-05-15T14:57:18Z</time>
      </trkpt>
      <trkpt lat="42.430185014382005" lon="3.161513982340694">
        <ele>47.719999999999999</ele>
        <time>2025-05-15T14:57:19Z</time>
      </trkpt>
      <trkpt lat="42.430333038792014" lon="3.16152798011899">
        <ele>48.68</ele>
        <time>2025-05-15T14:57:20Z</time>
      </trkpt>
      <trkpt lat="42.43060402572155" lon="3.161515993997455">
        <ele>50.609999999999999</ele>
        <time>2025-05-15T14:57:22Z</time>
      </trkpt>
      <trkpt lat="42.430765964090824" lon="3.161509037017822">
        <ele>51.090000000000003</ele>
        <time>2025-05-15T14:57:23Z</time>
      </trkpt>
      <trkpt lat="42.430865038186312" lon="3.161457991227508">
        <ele>52.530000000000001</ele>
        <time>2025-05-15T14:57:24Z</time>
      </trkpt>
      <trkpt lat="42.431671964004636" lon="3.161000004038215">
        <ele>57.82</ele>
        <time>2025-05-15T14:57:30Z</time>
      </trkpt>
      <trkpt lat="42.431797021999955" lon="3.160906964913011">
        <ele>58.780000000000001</ele>
        <time>2025-05-15T14:57:31Z</time>
      </trkpt>
      <trkpt lat="42.43221896700561" lon="3.160485019907355">
        <ele>62.619999999999997</ele>
        <time>2025-05-15T14:57:37Z</time>
      </trkpt>
      <trkpt lat="42.432260038331151" lon="3.160458030179143">
        <ele>63.100000000000001</ele>
        <time>2025-05-15T14:57:38Z</time>
      </trkpt>
      <trkpt lat="42.432342013344169" lon="3.160458030179143">
        <ele>64.069999999999993</ele>
        <time>2025-05-15T14:57:40Z</time>
      </trkpt>
      <trkpt lat="42.432404039427638" lon="3.160470016300678">
        <ele>64.549999999999997</ele>
        <time>2025-05-15T14:57:41Z</time>
      </trkpt>
      <trkpt lat="42.432442009449005" lon="3.160531958565116">
        <ele>64.549999999999997</ele>
        <time>2025-05-15T14:57:42Z</time>
      </trkpt>
      <trkpt lat="42.432470005005598" lon="3.160615023225546">
        <ele>65.510000000000005</ele>
        <time>2025-05-15T14:57:43Z</time>
      </trkpt>
      <trkpt lat="42.432468999177217" lon="3.160730022937059">
        <ele>65.989999999999995</ele>
        <time>2025-05-15T14:57:44Z</time>
      </trkpt>
      <trkpt lat="42.43243102915585" lon="3.160824989899993">
        <ele>66.469999999999999</ele>
        <time>2025-05-15T14:57:45Z</time>
      </trkpt>
      <trkpt lat="42.432390041649342" lon="3.160929009318352">
        <ele>66.950000000000003</ele>
        <time>2025-05-15T14:57:46Z</time>
      </trkpt>
      <trkpt lat="42.43234695866704" lon="3.161038979887962">
        <ele>67.909999999999997</ele>
        <time>2025-05-15T14:57:47Z</time>
      </trkpt>
      <trkpt lat="42.432260038331151" lon="3.161260010674596">
        <ele>69.349999999999994</ele>
        <time>2025-05-15T14:57:49Z</time>
      </trkpt>
      <trkpt lat="42.432226007804275" lon="3.16137601621449">
        <ele>69.829999999999998</ele>
        <time>2025-05-15T14:57:50Z</time>
      </trkpt>
      <trkpt lat="42.432197006419301" lon="3.161494033411145">
        <ele>70.310000000000002</ele>
        <time>2025-05-15T14:57:51Z</time>
      </trkpt>
      <trkpt lat="42.432169010862708" lon="3.161607021465898">
        <ele>70.790000000000006</ele>
        <time>2025-05-15T14:57:52Z</time>
      </trkpt>
      <trkpt lat="42.432160964235663" lon="3.161725960671902">
        <ele>71.760000000000005</ele>
        <time>2025-05-15T14:57:53Z</time>
      </trkpt>
      <trkpt lat="42.432160964235663" lon="3.161850012838841">
        <ele>72.239999999999995</ele>
        <time>2025-05-15T14:57:54Z</time>
      </trkpt>
      <trkpt lat="42.432160964235663" lon="3.161970041692257">
        <ele>72.719999999999999</ele>
        <time>2025-05-15T14:57:55Z</time>
      </trkpt>
      <trkpt lat="42.43217596784234" lon="3.162075988948345">
        <ele>73.200000000000003</ele>
        <time>2025-05-15T14:57:56Z</time>
      </trkpt>
      <trkpt lat="42.432190971449018" lon="3.162177996709943">
        <ele>74.159999999999997</ele>
        <time>2025-05-15T14:57:57Z</time>
      </trkpt>
      <trkpt lat="42.432203963398933" lon="3.162259971722961">
        <ele>74.640000000000001</ele>
        <time>2025-05-15T14:57:58Z</time>
      </trkpt>
      <trkpt lat="42.432255009189248" lon="3.162329038605094">
        <ele>75.120000000000005</ele>
        <time>2025-05-15T14:57:59Z</time>
      </trkpt>
      <trkpt lat="42.432305971160531" lon="3.162396010011435">
        <ele>76.079999999999998</ele>
        <time>2025-05-15T14:58:00Z</time>
      </trkpt>
      <trkpt lat="42.432352993637323" lon="3.162434985861182">
        <ele>76.560000000000002</ele>
        <time>2025-05-15T14:58:01Z</time>
      </trkpt>
      <trkpt lat="42.432433040812612" lon="3.162447977811098">
        <ele>77.040000000000006</ele>
        <time>2025-05-15T14:58:02Z</time>
      </trkpt>
      <trkpt lat="42.432510992512107" lon="3.162460969761014">
        <ele>77.519999999999996</ele>
        <time>2025-05-15T14:58:03Z</time>
      </trkpt>
      <trkpt lat="42.432579975575209" lon="3.162473039701581">
        <ele>78</ele>
        <time>2025-05-15T14:58:04Z</time>
      </trkpt>
      <trkpt lat="42.432636972516775" lon="3.162482008337975">
        <ele>78</ele>
        <time>2025-05-15T14:58:05Z</time>
      </trkpt>
      <trkpt lat="42.43268801830709" lon="3.162490976974368">
        <ele>78.480000000000004</ele>
        <time>2025-05-15T14:58:06Z</time>
      </trkpt>
      <trkpt lat="42.432746021077037" lon="3.162501035258174">
        <ele>78.480000000000004</ele>
        <time>2025-05-15T14:58:07Z</time>
      </trkpt>
      <trkpt lat="42.432976020500064" lon="3.162539005279541">
        <ele>78.969999999999999</ele>
        <time>2025-05-15T14:58:10Z</time>
      </trkpt>
      <trkpt lat="42.433254970237613" lon="3.162689041346312">
        <ele>79.930000000000007</ele>
        <time>2025-05-15T14:58:14Z</time>
      </trkpt>
      <trkpt lat="42.433296963572502" lon="3.162747966125608">
        <ele>80.409999999999997</ele>
        <time>2025-05-15T14:58:15Z</time>
      </trkpt>
      <trkpt lat="42.433363012969494" lon="3.16283899359405">
        <ele>80.409999999999997</ele>
        <time>2025-05-15T14:58:16Z</time>
      </trkpt>
      <trkpt lat="42.433380028232932" lon="3.162906970828772">
        <ele>80.409999999999997</ele>
        <time>2025-05-15T14:58:17Z</time>
      </trkpt>
      <trkpt lat="42.433401988819242" lon="3.16298802383244">
        <ele>79.930000000000007</ele>
        <time>2025-05-15T14:58:18Z</time>
      </trkpt>
      <trkpt lat="42.433424033224583" lon="3.163071004673839">
        <ele>80.409999999999997</ele>
        <time>2025-05-15T14:58:19Z</time>
      </trkpt>
      <trkpt lat="42.433448005467653" lon="3.163161026313901">
        <ele>80.409999999999997</ele>
        <time>2025-05-15T14:58:20Z</time>
      </trkpt>
      <trkpt lat="42.433448005467653" lon="3.163275020197034">
        <ele>80.890000000000001</ele>
        <time>2025-05-15T14:58:21Z</time>
      </trkpt>
      <trkpt lat="42.433448005467653" lon="3.163385996595025">
        <ele>81.370000000000005</ele>
        <time>2025-05-15T14:58:22Z</time>
      </trkpt>
      <trkpt lat="42.433407017961144" lon="3.163513988256455">
        <ele>81.849999999999994</ele>
        <time>2025-05-15T14:58:23Z</time>
      </trkpt>
      <trkpt lat="42.433353960514069" lon="3.163609961047769">
        <ele>82.329999999999998</ele>
        <time>2025-05-15T14:58:24Z</time>
      </trkpt>
      <trkpt lat="42.433330994099379" lon="3.163711968809366">
        <ele>82.810000000000002</ele>
        <time>2025-05-15T14:58:25Z</time>
      </trkpt>
      <trkpt lat="42.433320013806224" lon="3.163836020976305">
        <ele>83.290000000000006</ele>
        <time>2025-05-15T14:58:26Z</time>
      </trkpt>
      <trkpt lat="42.433324037119746" lon="3.163979016244412">
        <ele>83.769999999999996</ele>
        <time>2025-05-15T14:58:27Z</time>
      </trkpt>
      <trkpt lat="42.433326970785856" lon="3.164131985977292">
        <ele>84.25</ele>
        <time>2025-05-15T14:58:28Z</time>
      </trkpt>
      <trkpt lat="42.433330994099379" lon="3.164296019822359">
        <ele>84.730000000000004</ele>
        <time>2025-05-15T14:58:29Z</time>
      </trkpt>
      <trkpt lat="42.433335017412901" lon="3.164452007040381">
        <ele>85.209999999999994</ele>
        <time>2025-05-15T14:58:30Z</time>
      </trkpt>
      <trkpt lat="42.433364018797874" lon="3.164797006174922">
        <ele>88.099999999999994</ele>
        <time>2025-05-15T14:58:33Z</time>
      </trkpt>
      <trkpt lat="42.433393020182848" lon="3.164884010329843">
        <ele>89.060000000000002</ele>
        <time>2025-05-15T14:58:34Z</time>
      </trkpt>
      <trkpt lat="42.433422021567822" lon="3.164970008656383">
        <ele>89.540000000000006</ele>
        <time>2025-05-15T14:58:35Z</time>
      </trkpt>
      <trkpt lat="42.433449011296034" lon="3.1650519836694">
        <ele>90.5</ele>
        <time>2025-05-15T14:58:36Z</time>
      </trkpt>
      <trkpt lat="42.433469966053963" lon="3.16511400975287">
        <ele>91.459999999999994</ele>
        <time>2025-05-15T14:58:37Z</time>
      </trkpt>
      <trkpt lat="42.433459991589189" lon="3.16517997533083">
        <ele>91.939999999999998</ele>
        <time>2025-05-15T14:58:38Z</time>
      </trkpt>
      <trkpt lat="42.433449011296034" lon="3.165257005020976">
        <ele>92.900000000000006</ele>
        <time>2025-05-15T14:58:39Z</time>
      </trkpt>
      <trkpt lat="42.433423027396202" lon="3.165290029719472">
        <ele>93.390000000000001</ele>
        <time>2025-05-15T14:58:40Z</time>
      </trkpt>
      <trkpt lat="42.43337600491941" lon="3.165335962548852">
        <ele>94.349999999999994</ele>
        <time>2025-05-15T14:58:41Z</time>
      </trkpt>
      <trkpt lat="42.433320013806224" lon="3.165392959490418">
        <ele>95.310000000000002</ele>
        <time>2025-05-15T14:58:42Z</time>
      </trkpt>
      <trkpt lat="42.433278020471334" lon="3.165393965318799">
        <ele>96.269999999999996</ele>
        <time>2025-05-15T14:58:43Z</time>
      </trkpt>
      <trkpt lat="42.433209037408233" lon="3.16539597697556">
        <ele>97.230000000000004</ele>
        <time>2025-05-15T14:58:44Z</time>
      </trkpt>
      <trkpt lat="42.432698998600245" lon="3.165412992238998">
        <ele>101.56</ele>
        <time>2025-05-15T14:58:50Z</time>
      </trkpt>
      <trkpt lat="42.432622974738479" lon="3.165433024987578">
        <ele>102.04000000000001</ele>
        <time>2025-05-15T14:58:51Z</time>
      </trkpt>
      <trkpt lat="42.432552985846996" lon="3.165473006665707">
        <ele>102.52</ele>
        <time>2025-05-15T14:58:52Z</time>
      </trkpt>
      <trkpt lat="42.432479979470372" lon="3.165516005828977">
        <ele>103</ele>
        <time>2025-05-15T14:58:53Z</time>
      </trkpt>
      <trkpt lat="42.432396998628974" lon="3.16556503996253">
        <ele>103.95999999999999</ele>
        <time>2025-05-15T14:58:54Z</time>
      </trkpt>
      <trkpt lat="42.432340001687407" lon="3.16565103828907">
        <ele>104.44</ele>
        <time>2025-05-15T14:58:55Z</time>
      </trkpt>
      <trkpt lat="42.432228019461036" lon="3.16582496277988">
        <ele>105.88</ele>
        <time>2025-05-15T14:58:57Z</time>
      </trkpt>
      <trkpt lat="42.43217303417623" lon="3.16590802744031">
        <ele>106.36</ele>
        <time>2025-05-15T14:58:58Z</time>
      </trkpt>
      <trkpt lat="42.431968012824655" lon="3.1664680223912">
        <ele>109.73</ele>
        <time>2025-05-15T14:59:04Z</time>
      </trkpt>
      <trkpt lat="42.431968012824655" lon="3.166552009060979">
        <ele>110.69</ele>
        <time>2025-05-15T14:59:05Z</time>
      </trkpt>
      <trkpt lat="42.431968012824655" lon="3.166615962982178">
        <ele>111.17</ele>
        <time>2025-05-15T14:59:06Z</time>
      </trkpt>
      <trkpt lat="42.432035990059376" lon="3.166667008772492">
        <ele>112.13</ele>
        <time>2025-05-15T14:59:07Z</time>
      </trkpt>
      <trkpt lat="42.432088041678071" lon="3.16670598462224">
        <ele>113.09</ele>
        <time>2025-05-15T14:59:08Z</time>
      </trkpt>
      <trkpt lat="42.432134980335832" lon="3.166741020977497">
        <ele>113.56999999999999</ele>
        <time>2025-05-15T14:59:09Z</time>
      </trkpt>
      <trkpt lat="42.432187031954527" lon="3.166713025420904">
        <ele>114.53</ele>
        <time>2025-05-15T14:59:10Z</time>
      </trkpt>
      <trkpt lat="42.432246040552855" lon="3.166673965752125">
        <ele>115.5</ele>
        <time>2025-05-15T14:59:11Z</time>
      </trkpt>
      <trkpt lat="42.432288033887744" lon="3.166598025709391">
        <ele>115.98</ele>
        <time>2025-05-15T14:59:12Z</time>
      </trkpt>
      <trkpt lat="42.432311000302434" lon="3.166529964655638">
        <ele>116.94</ele>
        <time>2025-05-15T14:59:13Z</time>
      </trkpt>
      <trkpt lat="42.432311000302434" lon="3.166395016014576">
        <ele>118.38</ele>
        <time>2025-05-15T14:59:14Z</time>
      </trkpt>
      <trkpt lat="42.432311000302434" lon="3.166298037394881">
        <ele>119.34</ele>
        <time>2025-05-15T14:59:15Z</time>
      </trkpt>
      <trkpt lat="42.432311000302434" lon="3.166100978851318">
        <ele>121.26000000000001</ele>
        <time>2025-05-15T14:59:18Z</time>
      </trkpt>
      <trkpt lat="42.432362968102098" lon="3.16601799800992">
        <ele>121.73999999999999</ele>
        <time>2025-05-15T14:59:19Z</time>
      </trkpt>
      <trkpt lat="42.432418037205935" lon="3.165928982198238">
        <ele>122.22</ele>
        <time>2025-05-15T14:59:20Z</time>
      </trkpt>
      <trkpt lat="42.432479979470372" lon="3.165898974984884">
        <ele>122.70999999999999</ele>
        <time>2025-05-15T14:59:21Z</time>
      </trkpt>
      <trkpt lat="42.432547034695745" lon="3.16586502827704">
        <ele>123.19</ele>
        <time>2025-05-15T14:59:22Z</time>
      </trkpt>
      <trkpt lat="42.432638984173536" lon="3.165852958336473">
        <ele>123.19</ele>
        <time>2025-05-15T14:59:23Z</time>
      </trkpt>
      <trkpt lat="42.432720959186554" lon="3.165841978043318">
        <ele>123.19</ele>
        <time>2025-05-15T14:59:24Z</time>
      </trkpt>
      <trkpt lat="42.432807963341475" lon="3.165829991921783">
        <ele>123.19</ele>
        <time>2025-05-15T14:59:25Z</time>
      </trkpt>
      <trkpt lat="42.432907037436962" lon="3.165838038548827">
        <ele>123.19</ele>
        <time>2025-05-15T14:59:26Z</time>
      </trkpt>
      <trkpt lat="42.433019019663334" lon="3.165882965549827">
        <ele>123.19</ele>
        <time>2025-05-15T14:59:27Z</time>
      </trkpt>
      <trkpt lat="42.43314198218286" lon="3.165934011340141">
        <ele>123.67</ele>
        <time>2025-05-15T14:59:28Z</time>
      </trkpt>
      <trkpt lat="42.433276008814573" lon="3.165988996624947">
        <ele>124.15000000000001</ele>
        <time>2025-05-15T14:59:29Z</time>
      </trkpt>
      <trkpt lat="42.433409029617906" lon="3.16604096442461">
        <ele>124.63</ele>
        <time>2025-05-15T14:59:30Z</time>
      </trkpt>
      <trkpt lat="42.433531992137432" lon="3.166088992729783">
        <ele>125.59</ele>
        <time>2025-05-15T14:59:31Z</time>
      </trkpt>
      <trkpt lat="42.433638023212552" lon="3.166120005771518">
        <ele>126.55</ele>
        <time>2025-05-15T14:59:32Z</time>
      </trkpt>
      <trkpt lat="42.433736007660627" lon="3.166108019649983">
        <ele>127.03</ele>
        <time>2025-05-15T14:59:33Z</time>
      </trkpt>
      <trkpt lat="42.433825023472309" lon="3.166054040193558">
        <ele>127.98999999999999</ele>
        <time>2025-05-15T14:59:34Z</time>
      </trkpt>
      <trkpt lat="42.433888977393508" lon="3.165961001068354">
        <ele>128.47</ele>
        <time>2025-05-15T14:59:35Z</time>
      </trkpt>
      <trkpt lat="42.433952009305358" lon="3.165855975821614">
        <ele>129.43000000000001</ele>
        <time>2025-05-15T14:59:36Z</time>
      </trkpt>
      <trkpt lat="42.433997020125389" lon="3.165720021352172">
        <ele>129.91999999999999</ele>
        <time>2025-05-15T14:59:37Z</time>
      </trkpt>
      <trkpt lat="42.434048987925053" lon="3.165565961971879">
        <ele>130.40000000000001</ele>
        <time>2025-05-15T14:59:38Z</time>
      </trkpt>
      <trkpt lat="42.434091987088323" lon="3.165435958653688">
        <ele>130.88</ele>
        <time>2025-05-15T14:59:39Z</time>
      </trkpt>
      <trkpt lat="42.434106990695" lon="3.165213000029326">
        <ele>131.84</ele>
        <time>2025-05-15T14:59:40Z</time>
      </trkpt>
      <trkpt lat="42.434119982644916" lon="3.165015019476414">
        <ele>132.80000000000001</ele>
        <time>2025-05-15T14:59:41Z</time>
      </trkpt>
      <trkpt lat="42.434147978201509" lon="3.16459801979363">
        <ele>134.72</ele>
        <time>2025-05-15T14:59:43Z</time>
      </trkpt>
      <trkpt lat="42.434182008728385" lon="3.164387969300151">
        <ele>136.16</ele>
        <time>2025-05-15T14:59:44Z</time>
      </trkpt>
      <trkpt lat="42.434246968477964" lon="3.164182025939226">
        <ele>137.13</ele>
        <time>2025-05-15T14:59:45Z</time>
      </trkpt>
      <trkpt lat="42.43445098400116" lon="3.163536032661796">
        <ele>140.97</ele>
        <time>2025-05-15T14:59:48Z</time>
      </trkpt>
      <trkpt lat="42.434520972892642" lon="3.163303015753627">
        <ele>142.41</ele>
        <time>2025-05-15T14:59:49Z</time>
      </trkpt>
      <trkpt lat="42.434518039226532" lon="3.163063963875175">
        <ele>143.84999999999999</ele>
        <time>2025-05-15T14:59:50Z</time>
      </trkpt>
      <trkpt lat="42.434512004256248" lon="3.16163401119411">
        <ele>151.53999999999999</ele>
        <time>2025-05-15T14:59:56Z</time>
      </trkpt>
      <trkpt lat="42.434539999812841" lon="3.161412980407476">
        <ele>152.99000000000001</ele>
        <time>2025-05-15T14:59:57Z</time>
      </trkpt>
      <trkpt lat="42.434590961784124" lon="3.161208964884281">
        <ele>153.94999999999999</ele>
        <time>2025-05-15T14:59:58Z</time>
      </trkpt>
      <trkpt lat="42.434701016172767" lon="3.160571018233895">
        <ele>156.83000000000001</ele>
        <time>2025-05-15T15:00:01Z</time>
      </trkpt>
      <trkpt lat="42.43470897898078" lon="3.160354010760784">
        <ele>157.78999999999999</ele>
        <time>2025-05-15T15:00:02Z</time>
      </trkpt>
      <trkpt lat="42.434734962880611" lon="3.159972969442606">
        <ele>159.24000000000001</ele>
        <time>2025-05-15T15:00:04Z</time>
      </trkpt>
      <trkpt lat="42.434786008670926" lon="3.159826034680009">
        <ele>159.72</ele>
        <time>2025-05-15T15:00:05Z</time>
      </trkpt>
      <trkpt lat="42.434848034754395" lon="3.159697037190199">
        <ele>160.19999999999999</ele>
        <time>2025-05-15T15:00:06Z</time>
      </trkpt>
      <trkpt lat="42.434935038909316" lon="3.159596035256982">
        <ele>160.19999999999999</ele>
        <time>2025-05-15T15:00:07Z</time>
      </trkpt>
      <trkpt lat="42.435012990608811" lon="3.159505007788539">
        <ele>160.68000000000001</ele>
        <time>2025-05-15T15:00:08Z</time>
      </trkpt>
      <trkpt lat="42.435079040005803" lon="3.159427978098393">
        <ele>160.68000000000001</ele>
        <time>2025-05-15T15:00:09Z</time>
      </trkpt>
      <trkpt lat="42.435085996985435" lon="3.159296968951821">
        <ele>160.19999999999999</ele>
        <time>2025-05-15T15:00:10Z</time>
      </trkpt>
      <trkpt lat="42.435093959793448" lon="3.15916595980525">
        <ele>160.19999999999999</ele>
        <time>2025-05-15T15:00:11Z</time>
      </trkpt>
      <trkpt lat="42.43509697727859" lon="3.159024976193905">
        <ele>159.72</ele>
        <time>2025-05-15T15:00:12Z</time>
      </trkpt>
      <trkpt lat="42.435063030570745" lon="3.158871000632644">
        <ele>159.72</ele>
        <time>2025-05-15T15:00:13Z</time>
      </trkpt>
      <trkpt lat="42.435024976730347" lon="3.158708978444338">
        <ele>159.72</ele>
        <time>2025-05-15T15:00:14Z</time>
      </trkpt>
      <trkpt lat="42.434989018365741" lon="3.158546034246683">
        <ele>159.24000000000001</ele>
        <time>2025-05-15T15:00:15Z</time>
      </trkpt>
      <trkpt lat="42.434960016980767" lon="3.158393986523151">
        <ele>158.75</ele>
        <time>2025-05-15T15:00:16Z</time>
      </trkpt>
      <trkpt lat="42.434934033080935" lon="3.158250991255045">
        <ele>158.75</ele>
        <time>2025-05-15T15:00:17Z</time>
      </trkpt>
      <trkpt lat="42.434940990060568" lon="3.158100033178926">
        <ele>158.27000000000001</ele>
        <time>2025-05-15T15:00:18Z</time>
      </trkpt>
      <trkpt lat="42.434954987838864" lon="3.157948991283774">
        <ele>157.31</ele>
        <time>2025-05-15T15:00:19Z</time>
      </trkpt>
      <trkpt lat="42.434972003102303" lon="3.157774982973933">
        <ele>156.83000000000001</ele>
        <time>2025-05-15T15:00:20Z</time>
      </trkpt>
      <trkpt lat="42.435032017529011" lon="3.157612038776279">
        <ele>156.34999999999999</ele>
        <time>2025-05-15T15:00:21Z</time>
      </trkpt>
      <trkpt lat="42.435099994763732" lon="3.157429983839393">
        <ele>155.87</ele>
        <time>2025-05-15T15:00:22Z</time>
      </trkpt>
      <trkpt lat="42.435168977826834" lon="3.157243989408016">
        <ele>155.38999999999999</ele>
        <time>2025-05-15T15:00:23Z</time>
      </trkpt>
      <trkpt lat="42.435254976153374" lon="3.157068975269795">
        <ele>154.43000000000001</ele>
        <time>2025-05-15T15:00:24Z</time>
      </trkpt>
      <trkpt lat="42.435350026935339" lon="3.156902007758617">
        <ele>153.47</ele>
        <time>2025-05-15T15:00:25Z</time>
      </trkpt>
      <trkpt lat="42.43546100333333" lon="3.15677996724844">
        <ele>152.99000000000001</ele>
        <time>2025-05-15T15:00:26Z</time>
      </trkpt>
      <trkpt lat="42.435570973902941" lon="3.15667100250721">
        <ele>152.50999999999999</ele>
        <time>2025-05-15T15:00:27Z</time>
      </trkpt>
      <trkpt lat="42.43569603189826" lon="3.15660897642374">
        <ele>152.03</ele>
        <time>2025-05-15T15:00:28Z</time>
      </trkpt>
      <trkpt lat="42.435822011902928" lon="3.156546028330922">
        <ele>151.06</ele>
        <time>2025-05-15T15:00:29Z</time>
      </trkpt>
      <trkpt lat="42.435946986079216" lon="3.156482996419072">
        <ele>150.58000000000001</ele>
        <time>2025-05-15T15:00:30Z</time>
      </trkpt>
      <trkpt lat="42.43606198579073" lon="3.156425999477506">
        <ele>149.62</ele>
        <time>2025-05-15T15:00:31Z</time>
      </trkpt>
      <trkpt lat="42.436152007430792" lon="3.156380988657475">
        <ele>149.13999999999999</ele>
        <time>2025-05-15T15:00:32Z</time>
      </trkpt>
      <trkpt lat="42.436231970787048" lon="3.156433962285519">
        <ele>149.13999999999999</ele>
        <time>2025-05-15T15:00:33Z</time>
      </trkpt>
      <trkpt lat="42.436281004920602" lon="3.156466986984015">
        <ele>148.66</ele>
        <time>2025-05-15T15:00:34Z</time>
      </trkpt>
      <trkpt lat="42.436281004920602" lon="3.156560026109219">
        <ele>148.18000000000001</ele>
        <time>2025-05-15T15:00:35Z</time>
      </trkpt>
      <trkpt lat="42.436275975778699" lon="3.156645018607378">
        <ele>147.69999999999999</ele>
        <time>2025-05-15T15:00:36Z</time>
      </trkpt>
      <trkpt lat="42.436229959130287" lon="3.15671400167048">
        <ele>147.22</ele>
        <time>2025-05-15T15:00:37Z</time>
      </trkpt>
      <trkpt lat="42.436156030744314" lon="3.156769992783666">
        <ele>146.74000000000001</ele>
        <time>2025-05-15T15:00:38Z</time>
      </trkpt>
      <trkpt lat="42.436060979962349" lon="3.15677803941071">
        <ele>145.78</ele>
        <time>2025-05-15T15:00:39Z</time>
      </trkpt>
      <trkpt lat="42.435958972200751" lon="3.156786002218723">
        <ele>144.81999999999999</ele>
        <time>2025-05-15T15:00:40Z</time>
      </trkpt>
      <trkpt lat="42.435866016894579" lon="3.156809974461794">
        <ele>143.84999999999999</ele>
        <time>2025-05-15T15:00:41Z</time>
      </trkpt>
      <trkpt lat="42.435764009132981" lon="3.156841993331909">
        <ele>142.88999999999999</ele>
        <time>2025-05-15T15:00:42Z</time>
      </trkpt>
      <trkpt lat="42.435657978057861" lon="3.156874012202025">
        <ele>141.44999999999999</ele>
        <time>2025-05-15T15:00:43Z</time>
      </trkpt>
      <trkpt lat="42.435597041621804" lon="3.156990017741919">
        <ele>140.49000000000001</ele>
        <time>2025-05-15T15:00:44Z</time>
      </trkpt>
      <trkpt lat="42.43552403524518" lon="3.157128989696503">
        <ele>139.53</ele>
        <time>2025-05-15T15:00:45Z</time>
      </trkpt>
      <trkpt lat="42.435453962534666" lon="3.15729402936995">
        <ele>138.56999999999999</ele>
        <time>2025-05-15T15:00:46Z</time>
      </trkpt>
      <trkpt lat="42.435415992513299" lon="3.157476000487804">
        <ele>137.61000000000001</ele>
        <time>2025-05-15T15:00:47Z</time>
      </trkpt>
      <trkpt lat="42.435379028320312" lon="3.157654032111168">
        <ele>136.63999999999999</ele>
        <time>2025-05-15T15:00:48Z</time>
      </trkpt>
      <trkpt lat="42.435357989743352" lon="3.157994002103806">
        <ele>134.72</ele>
        <time>2025-05-15T15:00:50Z</time>
      </trkpt>
      <trkpt lat="42.435377016663551" lon="3.158141020685434">
        <ele>134.24000000000001</ele>
        <time>2025-05-15T15:00:51Z</time>
      </trkpt>
      <trkpt lat="42.435421021655202" lon="3.158291978761554">
        <ele>133.75999999999999</ele>
        <time>2025-05-15T15:00:52Z</time>
      </trkpt>
      <trkpt lat="42.435468966141343" lon="3.158460035920143">
        <ele>133.28</ele>
        <time>2025-05-15T15:00:53Z</time>
      </trkpt>
      <trkpt lat="42.435522023588419" lon="3.158642007037997">
        <ele>132.80000000000001</ele>
        <time>2025-05-15T15:00:54Z</time>
      </trkpt>
      <trkpt lat="42.435574997216463" lon="3.158826995640993">
        <ele>132.31999999999999</ele>
        <time>2025-05-15T15:00:55Z</time>
      </trkpt>
      <trkpt lat="42.435657978057861" lon="3.15899102948606">
        <ele>131.84</ele>
        <time>2025-05-15T15:00:56Z</time>
      </trkpt>
      <trkpt lat="42.43576199747622" lon="3.159152967855334">
        <ele>131.36000000000001</ele>
        <time>2025-05-15T15:00:57Z</time>
      </trkpt>
      <trkpt lat="42.436462976038456" lon="3.160288967192173">
        <ele>127.03</ele>
        <time>2025-05-15T15:01:03Z</time>
      </trkpt>
      <trkpt lat="42.436602031812072" lon="3.160455012694001">
        <ele>126.06999999999999</ele>
        <time>2025-05-15T15:01:04Z</time>
      </trkpt>
      <trkpt lat="42.436847034841776" lon="3.160747038200498">
        <ele>123.67</ele>
        <time>2025-05-15T15:01:06Z</time>
      </trkpt>
      <trkpt lat="42.436953987926245" lon="3.160886010155082">
        <ele>122.70999999999999</ele>
        <time>2025-05-15T15:01:07Z</time>
      </trkpt>
      <trkpt lat="42.437173007056117" lon="3.161463020369411">
        <ele>119.34</ele>
        <time>2025-05-15T15:01:10Z</time>
      </trkpt>
      <trkpt lat="42.437241990119219" lon="3.161642979830504">
        <ele>118.38</ele>
        <time>2025-05-15T15:01:11Z</time>
      </trkpt>
      <trkpt lat="42.43730703368783" lon="3.161815982311964">
        <ele>117.42</ele>
        <time>2025-05-15T15:01:12Z</time>
      </trkpt>
      <trkpt lat="42.437391020357609" lon="3.161970041692257">
        <ele>116.45999999999999</ele>
        <time>2025-05-15T15:01:13Z</time>
      </trkpt>
      <trkpt lat="42.437504008412361" lon="3.162067020311952">
        <ele>115.98</ele>
        <time>2025-05-15T15:01:14Z</time>
      </trkpt>
      <trkpt lat="42.437621019780636" lon="3.162126028910279">
        <ele>115.01000000000001</ele>
        <time>2025-05-15T15:01:15Z</time>
      </trkpt>
      <trkpt lat="42.437734007835388" lon="3.162182020023465">
        <ele>114.53</ele>
        <time>2025-05-15T15:01:16Z</time>
      </trkpt>
      <trkpt lat="42.437821011990309" lon="3.162248991429806">
        <ele>113.56999999999999</ele>
        <time>2025-05-15T15:01:17Z</time>
      </trkpt>
      <trkpt lat="42.437881026417017" lon="3.162361979484558">
        <ele>112.61</ele>
        <time>2025-05-15T15:01:18Z</time>
      </trkpt>
      <trkpt lat="42.437945986166596" lon="3.162485025823116">
        <ele>112.13</ele>
        <time>2025-05-15T15:01:19Z</time>
      </trkpt>
      <trkpt lat="42.438027039170265" lon="3.162612011656165">
        <ele>111.17</ele>
        <time>2025-05-15T15:01:20Z</time>
      </trkpt>
      <trkpt lat="42.438133992254734" lon="3.162717958912253">
        <ele>110.20999999999999</ele>
        <time>2025-05-15T15:01:21Z</time>
      </trkpt>
      <trkpt lat="42.438238011673093" lon="3.162821978330612">
        <ele>109.25</ele>
        <time>2025-05-15T15:01:22Z</time>
      </trkpt>
      <trkpt lat="42.438315963372588" lon="3.162948964163661">
        <ele>108.29000000000001</ele>
        <time>2025-05-15T15:01:23Z</time>
      </trkpt>
      <trkpt lat="42.43838201276958" lon="3.163091959431768">
        <ele>107.31999999999999</ele>
        <time>2025-05-15T15:01:24Z</time>
      </trkpt>
      <trkpt lat="42.438399028033018" lon="3.163264961913228">
        <ele>105.88</ele>
        <time>2025-05-15T15:01:25Z</time>
      </trkpt>
      <trkpt lat="42.438416965305805" lon="3.163457997143269">
        <ele>104.44</ele>
        <time>2025-05-15T15:01:26Z</time>
      </trkpt>
      <trkpt lat="42.438435992226005" lon="3.163656983524561">
        <ele>103</ele>
        <time>2025-05-15T15:01:27Z</time>
      </trkpt>
      <trkpt lat="42.438432974740863" lon="3.16386803984642">
        <ele>102.04000000000001</ele>
        <time>2025-05-15T15:01:28Z</time>
      </trkpt>
      <trkpt lat="42.438396010547876" lon="3.164075994864106">
        <ele>101.08</ele>
        <time>2025-05-15T15:01:29Z</time>
      </trkpt>
      <trkpt lat="42.438358040526509" lon="3.164291996508837">
        <ele>100.11</ele>
        <time>2025-05-15T15:01:30Z</time>
      </trkpt>
      <trkpt lat="42.43831998668611" lon="3.164509003981948">
        <ele>99.150000000000006</ele>
        <time>2025-05-15T15:01:31Z</time>
      </trkpt>
      <trkpt lat="42.438282016664743" lon="3.164723999798298">
        <ele>98.189999999999998</ele>
        <time>2025-05-15T15:01:32Z</time>
      </trkpt>
      <trkpt lat="42.43821102194488" lon="3.165125995874405">
        <ele>96.269999999999996</ele>
        <time>2025-05-15T15:01:34Z</time>
      </trkpt>
      <trkpt lat="42.438142960891128" lon="3.165304027497768">
        <ele>94.829999999999998</ele>
        <time>2025-05-15T15:01:35Z</time>
      </trkpt>
      <trkpt lat="42.438045982271433" lon="3.165429001674056">
        <ele>93.870000000000005</ele>
        <time>2025-05-15T15:01:36Z</time>
      </trkpt>
      <trkpt lat="42.437920002266765" lon="3.165533021092415">
        <ele>92.900000000000006</ele>
        <time>2025-05-15T15:01:37Z</time>
      </trkpt>
      <trkpt lat="42.437783963978291" lon="3.165642991662026">
        <ele>91.939999999999998</ele>
        <time>2025-05-15T15:01:38Z</time>
      </trkpt>
      <trkpt lat="42.437658989802003" lon="3.165743993595243">
        <ele>91.459999999999994</ele>
        <time>2025-05-15T15:01:39Z</time>
      </trkpt>
      <trkpt lat="42.437573997303843" lon="3.165849018841982">
        <ele>90.5</ele>
        <time>2025-05-15T15:01:40Z</time>
      </trkpt>
      <trkpt lat="42.437528986483812" lon="3.165982039645314">
        <ele>90.019999999999996</ele>
        <time>2025-05-15T15:01:41Z</time>
      </trkpt>
      <trkpt lat="42.43747903034091" lon="3.166131991893053">
        <ele>89.060000000000002</ele>
        <time>2025-05-15T15:01:42Z</time>
      </trkpt>
      <trkpt lat="42.437411975115538" lon="3.166290996596217">
        <ele>87.620000000000005</ele>
        <time>2025-05-15T15:01:43Z</time>
      </trkpt>
      <trkpt lat="42.437313990667462" lon="3.166433991864324">
        <ele>86.180000000000007</ele>
        <time>2025-05-15T15:01:44Z</time>
      </trkpt>
      <trkpt lat="42.437216006219387" lon="3.16657698713243">
        <ele>85.209999999999994</ele>
        <time>2025-05-15T15:01:45Z</time>
      </trkpt>
      <trkpt lat="42.437142999842763" lon="3.166727023199201">
        <ele>83.769999999999996</ele>
        <time>2025-05-15T15:01:46Z</time>
      </trkpt>
      <trkpt lat="42.437101006507874" lon="3.166884016245604">
        <ele>82.810000000000002</ele>
        <time>2025-05-15T15:01:47Z</time>
      </trkpt>
      <trkpt lat="42.437067981809378" lon="3.167012007907033">
        <ele>81.849999999999994</ele>
        <time>2025-05-15T15:01:48Z</time>
      </trkpt>
      <trkpt lat="42.437068987637758" lon="3.16711300984025">
        <ele>81.370000000000005</ele>
        <time>2025-05-15T15:01:49Z</time>
      </trkpt>
      <trkpt lat="42.437095977365971" lon="3.167194984853268">
        <ele>80.409999999999997</ele>
        <time>2025-05-15T15:01:50Z</time>
      </trkpt>
      <trkpt lat="42.43715800344944" lon="3.167245024815202">
        <ele>79.930000000000007</ele>
        <time>2025-05-15T15:01:51Z</time>
      </trkpt>
      <trkpt lat="42.437240984290838" lon="3.167291041463614">
        <ele>79.450000000000003</ele>
        <time>2025-05-15T15:01:52Z</time>
      </trkpt>
      <trkpt lat="42.437357995659113" lon="3.167321970686317">
        <ele>78.969999999999999</ele>
        <time>2025-05-15T15:01:53Z</time>
      </trkpt>
      <trkpt lat="42.437487998977304" lon="3.167357007041574">
        <ele>78</ele>
        <time>2025-05-15T15:01:54Z</time>
      </trkpt>
      <trkpt lat="42.4382100161165" lon="3.167548030614853">
        <ele>73.680000000000007</ele>
        <time>2025-05-15T15:02:00Z</time>
      </trkpt>
      <trkpt lat="42.438298026099801" lon="3.167617013677955">
        <ele>72.719999999999999</ele>
        <time>2025-05-15T15:02:01Z</time>
      </trkpt>
      <trkpt lat="42.438364997506142" lon="3.167708041146398">
        <ele>72.239999999999995</ele>
        <time>2025-05-15T15:02:02Z</time>
      </trkpt>
      <trkpt lat="42.43844797834754" lon="3.167818011716008">
        <ele>71.760000000000005</ele>
        <time>2025-05-15T15:02:03Z</time>
      </trkpt>
      <trkpt lat="42.438476979732513" lon="3.167935023084283">
        <ele>71.269999999999996</ele>
        <time>2025-05-15T15:02:04Z</time>
      </trkpt>
      <trkpt lat="42.43851201608777" lon="3.168075000867248">
        <ele>70.790000000000006</ele>
        <time>2025-05-15T15:02:05Z</time>
      </trkpt>
      <trkpt lat="42.438500029966235" lon="3.168182959780097">
        <ele>70.310000000000002</ele>
        <time>2025-05-15T15:02:06Z</time>
      </trkpt>
      <trkpt lat="42.438442027196288" lon="3.168310029432178">
        <ele>69.349999999999994</ele>
        <time>2025-05-15T15:02:07Z</time>
      </trkpt>
      <trkpt lat="42.438357034698129" lon="3.168382029980421">
        <ele>68.870000000000005</ele>
        <time>2025-05-15T15:02:08Z</time>
      </trkpt>
      <trkpt lat="42.438242034986615" lon="3.168480014428496">
        <ele>67.909999999999997</ele>
        <time>2025-05-15T15:02:09Z</time>
      </trkpt>
      <trkpt lat="42.438099961727858" lon="3.168600965291262">
        <ele>66.469999999999999</ele>
        <time>2025-05-15T15:02:10Z</time>
      </trkpt>
      <trkpt lat="42.437945986166596" lon="3.168731974437833">
        <ele>65.510000000000005</ele>
        <time>2025-05-15T15:02:11Z</time>
      </trkpt>
      <trkpt lat="42.437640968710184" lon="3.168989969417453">
        <ele>64.069999999999993</ele>
        <time>2025-05-15T15:02:13Z</time>
      </trkpt>
      <trkpt lat="42.437586989253759" lon="3.169118966907263">
        <ele>63.100000000000001</ele>
        <time>2025-05-15T15:02:14Z</time>
      </trkpt>
      <trkpt lat="42.43756796233356" lon="3.169201025739312">
        <ele>62.619999999999997</ele>
        <time>2025-05-15T15:02:15Z</time>
      </trkpt>
      <trkpt lat="42.43756796233356" lon="3.169341003522277">
        <ele>62.140000000000001</ele>
        <time>2025-05-15T15:02:16Z</time>
      </trkpt>
      <trkpt lat="42.437606016173959" lon="3.169471006840468">
        <ele>61.18</ele>
        <time>2025-05-15T15:02:17Z</time>
      </trkpt>
      <trkpt lat="42.437657983973622" lon="3.169646020978689">
        <ele>60.700000000000003</ele>
        <time>2025-05-15T15:02:18Z</time>
      </trkpt>
      <trkpt lat="42.437726967036724" lon="3.169778035953641">
        <ele>59.740000000000002</ele>
        <time>2025-05-15T15:02:19Z</time>
      </trkpt>
      <trkpt lat="42.437824029475451" lon="3.169870991259813">
        <ele>58.780000000000001</ele>
        <time>2025-05-15T15:02:20Z</time>
      </trkpt>
      <trkpt lat="42.437955960631371" lon="3.169918013736606">
        <ele>57.82</ele>
        <time>2025-05-15T15:02:21Z</time>
      </trkpt>
      <trkpt lat="42.438099039718509" lon="3.169968975707889">
        <ele>56.859999999999999</ele>
        <time>2025-05-15T15:02:22Z</time>
      </trkpt>
      <trkpt lat="42.43825402110815" lon="3.170024966821075">
        <ele>55.890000000000001</ele>
        <time>2025-05-15T15:02:23Z</time>
      </trkpt>
      <trkpt lat="42.438421994447708" lon="3.170085987076163">
        <ele>55.409999999999997</ele>
        <time>2025-05-15T15:02:24Z</time>
      </trkpt>
      <trkpt lat="42.438593991100788" lon="3.170147007331252">
        <ele>54.450000000000003</ele>
        <time>2025-05-15T15:02:25Z</time>
      </trkpt>
      <trkpt lat="42.438741009682417" lon="3.170278016477823">
        <ele>53.490000000000002</ele>
        <time>2025-05-15T15:02:26Z</time>
      </trkpt>
      <trkpt lat="42.438864978030324" lon="3.17040198482573">
        <ele>52.530000000000001</ele>
        <time>2025-05-15T15:02:27Z</time>
      </trkpt>
      <trkpt lat="42.43896396830678" lon="3.17050701007247">
        <ele>51.57</ele>
        <time>2025-05-15T15:02:28Z</time>
      </trkpt>
      <trkpt lat="42.43898500688374" lon="3.170644976198673">
        <ele>50.609999999999999</ele>
        <time>2025-05-15T15:02:29Z</time>
      </trkpt>
      <trkpt lat="42.43900503963232" lon="3.170782020315528">
        <ele>49.159999999999997</ele>
        <time>2025-05-15T15:02:30Z</time>
      </trkpt>
      <trkpt lat="42.438958017155528" lon="3.170909006148577">
        <ele>48.200000000000003</ele>
        <time>2025-05-15T15:02:31Z</time>
      </trkpt>
      <trkpt lat="42.438904959708452" lon="3.171055018901825">
        <ele>46.759999999999998</ele>
        <time>2025-05-15T15:02:32Z</time>
      </trkpt>
      <trkpt lat="42.438841005787253" lon="3.171228021383286">
        <ele>45.799999999999997</ele>
        <time>2025-05-15T15:02:33Z</time>
      </trkpt>
      <trkpt lat="42.43853397667408" lon="3.172108959406614">
        <ele>42.439999999999998</ele>
        <time>2025-05-15T15:02:38Z</time>
      </trkpt>
      <trkpt lat="42.43853397667408" lon="3.172252960503101">
        <ele>41.950000000000003</ele>
        <time>2025-05-15T15:02:39Z</time>
      </trkpt>
      <trkpt lat="42.438585022464395" lon="3.17235304042697">
        <ele>40.990000000000002</ele>
        <time>2025-05-15T15:02:40Z</time>
      </trkpt>
      <trkpt lat="42.438658028841019" lon="3.172444989904761">
        <ele>40.030000000000001</ele>
        <time>2025-05-15T15:02:41Z</time>
      </trkpt>
      <trkpt lat="42.438751989975572" lon="3.172525959089398">
        <ele>39.549999999999997</ele>
        <time>2025-05-15T15:02:42Z</time>
      </trkpt>
      <trkpt lat="42.438869001343846" lon="3.172580022364855">
        <ele>39.07</ele>
        <time>2025-05-15T15:02:43Z</time>
      </trkpt>
      <trkpt lat="42.438997998833656" lon="3.172615980729461">
        <ele>38.590000000000003</ele>
        <time>2025-05-15T15:02:44Z</time>
      </trkpt>
      <trkpt lat="42.439131019636989" lon="3.172651017084718">
        <ele>38.109999999999999</ele>
        <time>2025-05-15T15:02:45Z</time>
      </trkpt>
      <trkpt lat="42.439273009076715" lon="3.172688987106085">
        <ele>37.630000000000003</ele>
        <time>2025-05-15T15:02:46Z</time>
      </trkpt>
      <trkpt lat="42.439418016001582" lon="3.172770962119103">
        <ele>36.670000000000002</ele>
        <time>2025-05-15T15:02:47Z</time>
      </trkpt>
      <trkpt lat="42.439555982127786" lon="3.172894008457661">
        <ele>36.189999999999998</ele>
        <time>2025-05-15T15:02:48Z</time>
      </trkpt>
      <trkpt lat="42.439814982935786" lon="3.173140017315745">
        <ele>35.229999999999997</ele>
        <time>2025-05-15T15:02:50Z</time>
      </trkpt>
      <trkpt lat="42.43993098847568" lon="3.173249987885356">
        <ele>34.740000000000002</ele>
        <time>2025-05-15T15:02:51Z</time>
      </trkpt>
      <trkpt lat="42.440010029822588" lon="3.173419972881675">
        <ele>34.259999999999998</ele>
        <time>2025-05-15T15:02:52Z</time>
      </trkpt>
      <trkpt lat="42.440068032592535" lon="3.173615019768477">
        <ele>33.780000000000001</ele>
        <time>2025-05-15T15:02:53Z</time>
      </trkpt>
      <trkpt lat="42.440130980685353" lon="3.173826998099685">
        <ele>33.780000000000001</ele>
        <time>2025-05-15T15:02:54Z</time>
      </trkpt>
      <trkpt lat="42.440198035910726" lon="3.174262018874288">
        <ele>32.82</ele>
        <time>2025-05-15T15:02:56Z</time>
      </trkpt>
      <trkpt lat="42.44018797762692" lon="3.174475003033876">
        <ele>31.859999999999999</ele>
        <time>2025-05-15T15:02:57Z</time>
      </trkpt>
      <trkpt lat="42.440136009827256" lon="3.174666026607156">
        <ele>31.379999999999999</ele>
        <time>2025-05-15T15:02:58Z</time>
      </trkpt>
      <trkpt lat="42.43997398763895" lon="3.175261979922652">
        <ele>30.899999999999999</ele>
        <time>2025-05-15T15:03:02Z</time>
      </trkpt>
      <trkpt lat="42.439957978203893" lon="3.175364993512631">
        <ele>30.899999999999999</ele>
        <time>2025-05-15T15:03:03Z</time>
      </trkpt>
      <trkpt lat="42.439996032044291" lon="3.175440011546016">
        <ele>31.379999999999999</ele>
        <time>2025-05-15T15:03:04Z</time>
      </trkpt>
      <trkpt lat="42.440029978752136" lon="3.175508994609118">
        <ele>31.379999999999999</ele>
        <time>2025-05-15T15:03:05Z</time>
      </trkpt>
      <trkpt lat="42.440071972087026" lon="3.175520980730653">
        <ele>31.859999999999999</ele>
        <time>2025-05-15T15:03:06Z</time>
      </trkpt>
      <trkpt lat="42.440139027312398" lon="3.175520980730653">
        <ele>31.859999999999999</ele>
        <time>2025-05-15T15:03:07Z</time>
      </trkpt>
      <trkpt lat="42.440193006768823" lon="3.175482004880905">
        <ele>31.859999999999999</ele>
        <time>2025-05-15T15:03:08Z</time>
      </trkpt>
      <trkpt lat="42.440271964296699" lon="3.175371028482914">
        <ele>32.340000000000003</ele>
        <time>2025-05-15T15:03:09Z</time>
      </trkpt>
      <trkpt lat="42.44029501453042" lon="3.175285030156374">
        <ele>32.82</ele>
        <time>2025-05-15T15:03:10Z</time>
      </trkpt>
      <trkpt lat="42.440336002036929" lon="3.175134994089603">
        <ele>32.82</ele>
        <time>2025-05-15T15:03:11Z</time>
      </trkpt>
      <trkpt lat="42.440344970673323" lon="3.174951011314988">
        <ele>32.82</ele>
        <time>2025-05-15T15:03:12Z</time>
      </trkpt>
      <trkpt lat="42.440374977886677" lon="3.174329996109009">
        <ele>32.82</ele>
        <time>2025-05-15T15:03:15Z</time>
      </trkpt>
      <trkpt lat="42.440370032563806" lon="3.174122963100672">
        <ele>33.299999999999997</ele>
        <time>2025-05-15T15:03:16Z</time>
      </trkpt>
      <trkpt lat="42.440227959305048" lon="3.172563007101417">
        <ele>32.82</ele>
        <time>2025-05-15T15:03:24Z</time>
      </trkpt>
      <trkpt lat="42.440186971798539" lon="3.172425040975213">
        <ele>32.82</ele>
        <time>2025-05-15T15:03:25Z</time>
      </trkpt>
      <trkpt lat="42.440110025927424" lon="3.172322027385235">
        <ele>32.340000000000003</ele>
        <time>2025-05-15T15:03:26Z</time>
      </trkpt>
      <trkpt lat="42.44001598097384" lon="3.172261007130146">
        <ele>32.340000000000003</ele>
        <time>2025-05-15T15:03:27Z</time>
      </trkpt>
      <trkpt lat="42.439893018454313" lon="3.172221025452018">
        <ele>31.859999999999999</ele>
        <time>2025-05-15T15:03:28Z</time>
      </trkpt>
      <trkpt lat="42.439755974337459" lon="3.172178026288748">
        <ele>31.379999999999999</ele>
        <time>2025-05-15T15:03:29Z</time>
      </trkpt>
      <trkpt lat="42.43920000270009" lon="3.171994965523481">
        <ele>29.940000000000001</ele>
        <time>2025-05-15T15:03:34Z</time>
      </trkpt>
      <trkpt lat="42.439131019636989" lon="3.171942997723818">
        <ele>30.420000000000002</ele>
        <time>2025-05-15T15:03:35Z</time>
      </trkpt>
      <trkpt lat="42.43911299854517" lon="3.171820035204291">
        <ele>29.940000000000001</ele>
        <time>2025-05-15T15:03:36Z</time>
      </trkpt>
      <trkpt lat="42.43913303129375" lon="3.171678967773914">
        <ele>30.420000000000002</ele>
        <time>2025-05-15T15:03:37Z</time>
      </trkpt>
      <trkpt lat="42.439188016578555" lon="3.171556005254388">
        <ele>30.420000000000002</ele>
        <time>2025-05-15T15:03:38Z</time>
      </trkpt>
      <trkpt lat="42.439267979934812" lon="3.171429019421339">
        <ele>30.899999999999999</ele>
        <time>2025-05-15T15:03:39Z</time>
      </trkpt>
      <trkpt lat="42.439356995746493" lon="3.17130102775991">
        <ele>30.899999999999999</ele>
        <time>2025-05-15T15:03:40Z</time>
      </trkpt>
      <trkpt lat="42.439647009596229" lon="3.170878998935223">
        <ele>31.379999999999999</ele>
        <time>2025-05-15T15:03:43Z</time>
      </trkpt>
      <trkpt lat="42.439997959882021" lon="3.170282039791346">
        <ele>30.899999999999999</ele>
        <time>2025-05-15T15:03:48Z</time>
      </trkpt>
      <trkpt lat="42.440008018165827" lon="3.170200986787677">
        <ele>30.420000000000002</ele>
        <time>2025-05-15T15:03:49Z</time>
      </trkpt>
      <trkpt lat="42.43999301455915" lon="3.170113982632756">
        <ele>29.940000000000001</ele>
        <time>2025-05-15T15:03:50Z</time>
      </trkpt>
      <trkpt lat="42.439928976818919" lon="3.17005698569119">
        <ele>29.940000000000001</ele>
        <time>2025-05-15T15:03:51Z</time>
      </trkpt>
      <trkpt lat="42.43982101790607" lon="3.169963024556637">
        <ele>29.460000000000001</ele>
        <time>2025-05-15T15:03:52Z</time>
      </trkpt>
      <trkpt lat="42.439748011529446" lon="3.169926982372999">
        <ele>28.98</ele>
        <time>2025-05-15T15:03:53Z</time>
      </trkpt>
      <trkpt lat="42.439638040959835" lon="3.169871997088194">
        <ele>28.98</ele>
        <time>2025-05-15T15:03:54Z</time>
      </trkpt>
      <trkpt lat="42.439051978290081" lon="3.16951802931726">
        <ele>24.649999999999999</ele>
        <time>2025-05-15T15:04:00Z</time>
      </trkpt>
      <trkpt lat="42.439048960804939" lon="3.16943496465683">
        <ele>24.170000000000002</ele>
        <time>2025-05-15T15:04:01Z</time>
      </trkpt>
      <trkpt lat="42.439048960804939" lon="3.169362964108586">
        <ele>23.690000000000001</ele>
        <time>2025-05-15T15:04:02Z</time>
      </trkpt>
      <trkpt lat="42.439087014645338" lon="3.169286018237472">
        <ele>23.210000000000001</ele>
        <time>2025-05-15T15:04:03Z</time>
      </trkpt>
      <trkpt lat="42.439140994101763" lon="3.169255005195737">
        <ele>23.210000000000001</ele>
        <time>2025-05-15T15:04:04Z</time>
      </trkpt>
      <trkpt lat="42.439221041277051" lon="3.169218963012099">
        <ele>22.73</ele>
        <time>2025-05-15T15:04:05Z</time>
      </trkpt>
      <trkpt lat="42.43930603377521" lon="3.169180992990732">
        <ele>22.73</ele>
        <time>2025-05-15T15:04:06Z</time>
      </trkpt>
      <trkpt lat="42.439941968768835" lon="3.16887304186821">
        <ele>18.879999999999999</ele>
        <time>2025-05-15T15:04:13Z</time>
      </trkpt>
      <trkpt lat="42.440013969317079" lon="3.168792994692922">
        <ele>18.399999999999999</ele>
        <time>2025-05-15T15:04:14Z</time>
      </trkpt>
      <trkpt lat="42.440099967643619" lon="3.168697021901608">
        <ele>17.920000000000002</ele>
        <time>2025-05-15T15:04:15Z</time>
      </trkpt>
      <trkpt lat="42.440202981233597" lon="3.168371971696615">
        <ele>15.52</ele>
        <time>2025-05-15T15:04:18Z</time>
      </trkpt>
      <trkpt lat="42.440235000103712" lon="3.168264012783766">
        <ele>14.56</ele>
        <time>2025-05-15T15:04:19Z</time>
      </trkpt>
      <trkpt lat="42.440325021743774" lon="3.167905015870929">
        <ele>12.15</ele>
        <time>2025-05-15T15:04:22Z</time>
      </trkpt>
      <trkpt lat="42.440354023128748" lon="3.167789010331035">
        <ele>11.67</ele>
        <time>2025-05-15T15:04:23Z</time>
      </trkpt>
      <trkpt lat="42.440377995371819" lon="3.167685996741056">
        <ele>10.710000000000001</ele>
        <time>2025-05-15T15:04:24Z</time>
      </trkpt>
      <trkpt lat="42.440347988158464" lon="3.167579965665937">
        <ele>10.23</ele>
        <time>2025-05-15T15:04:25Z</time>
      </trkpt>
      <trkpt lat="42.440288979560137" lon="3.167483992874622">
        <ele>9.27</ele>
        <time>2025-05-15T15:04:26Z</time>
      </trkpt>
      <trkpt lat="42.440207004547119" lon="3.167388020083308">
        <ele>8.310000000000001</ele>
        <time>2025-05-15T15:04:27Z</time>
      </trkpt>
      <trkpt lat="42.44014497846365" lon="3.16730503924191">
        <ele>7.83</ele>
        <time>2025-05-15T15:04:28Z</time>
      </trkpt>
      <trkpt lat="42.44008001871407" lon="3.167218035086989">
        <ele>7.35</ele>
        <time>2025-05-15T15:04:29Z</time>
      </trkpt>
      <trkpt lat="42.440057974308729" lon="3.16711300984025">
        <ele>6.39</ele>
        <time>2025-05-15T15:04:30Z</time>
      </trkpt>
      <trkpt lat="42.4400370195508" lon="3.167009996250272">
        <ele>4.94</ele>
        <time>2025-05-15T15:04:31Z</time>
      </trkpt>
      <trkpt lat="42.440053028985858" lon="3.166672959923744">
        <ele>0.62</ele>
        <time>2025-05-15T15:04:34Z</time>
      </trkpt>
      <trkpt lat="42.440069960430264" lon="3.166577992960811">
        <ele>-0.82</ele>
        <time>2025-05-15T15:04:35Z</time>
      </trkpt>
      <trkpt lat="42.440103990957141" lon="3.16649098880589">
        <ele>-2.27</ele>
        <time>2025-05-15T15:04:36Z</time>
      </trkpt>
      <trkpt lat="42.440154030919075" lon="3.166413037106395">
        <ele>-3.23</ele>
        <time>2025-05-15T15:04:37Z</time>
      </trkpt>
      <trkpt lat="42.44020901620388" lon="3.166327960789204">
        <ele>-4.67</ele>
        <time>2025-05-15T15:04:38Z</time>
      </trkpt>
      <trkpt lat="42.440265007317066" lon="3.166241040453315">
        <ele>-6.11</ele>
        <time>2025-05-15T15:04:39Z</time>
      </trkpt>
      <trkpt lat="42.440339019522071" lon="3.166211033239961">
        <ele>-7.55</ele>
        <time>2025-05-15T15:04:40Z</time>
      </trkpt>
      <trkpt lat="42.44042401202023" lon="3.166185971349478">
        <ele>-8.51</ele>
        <time>2025-05-15T15:04:41Z</time>
      </trkpt>
      <trkpt lat="42.44050900451839" lon="3.166161999106407">
        <ele>-9.48</ele>
        <time>2025-05-15T15:04:42Z</time>
      </trkpt>
      <trkpt lat="42.440603971481323" lon="3.166109025478363">
        <ele>-10.44</ele>
        <time>2025-05-15T15:04:43Z</time>
      </trkpt>
      <trkpt lat="42.440679995343089" lon="3.166026966646314">
        <ele>-10.92</ele>
        <time>2025-05-15T15:04:44Z</time>
      </trkpt>
      <trkpt lat="42.44102499447763" lon="3.165637962520123">
        <ele>-14.279999999999999</ele>
        <time>2025-05-15T15:04:51Z</time>
      </trkpt>
      <trkpt lat="42.44111099280417" lon="3.165540983900428">
        <ele>-14.76</ele>
        <time>2025-05-15T15:04:53Z</time>
      </trkpt>
      <trkpt lat="42.441278966143727" lon="3.165403017774224">
        <ele>-15.24</ele>
        <time>2025-05-15T15:04:56Z</time>
      </trkpt>
      <trkpt lat="42.441335963085294" lon="3.165366975590587">
        <ele>-15.720000000000001</ele>
        <time>2025-05-15T15:04:57Z</time>
      </trkpt>
      <trkpt lat="42.441431013867259" lon="3.165306961163878">
        <ele>-15.720000000000001</ele>
        <time>2025-05-15T15:04:58Z</time>
      </trkpt>
      <trkpt lat="42.441469989717007" lon="3.165314001962543">
        <ele>-15.720000000000001</ele>
        <time>2025-05-15T15:04:59Z</time>
      </trkpt>
      <trkpt lat="42.441538972780108" lon="3.165326993912458">
        <ele>-15.24</ele>
        <time>2025-05-15T15:05:00Z</time>
      </trkpt>
      <trkpt lat="42.441598987206817" lon="3.165337974205613">
        <ele>-15.24</ele>
        <time>2025-05-15T15:05:01Z</time>
      </trkpt>
      <trkpt lat="42.441657995805144" lon="3.165348032489419">
        <ele>-15.24</ele>
        <time>2025-05-15T15:05:02Z</time>
      </trkpt>
      <trkpt lat="42.441714992746711" lon="3.165381979197264">
        <ele>-14.76</ele>
        <time>2025-05-15T15:05:03Z</time>
      </trkpt>
      <trkpt lat="42.441775007173419" lon="3.165421960875392">
        <ele>-14.76</ele>
        <time>2025-05-15T15:05:04Z</time>
      </trkpt>
      <trkpt lat="42.441839966922998" lon="3.165464960038662">
        <ele>-14.76</ele>
        <time>2025-05-15T15:05:05Z</time>
      </trkpt>
      <trkpt lat="42.441904004663229" lon="3.165511982515454">
        <ele>-14.76</ele>
        <time>2025-05-15T15:05:06Z</time>
      </trkpt>
      <trkpt lat="42.441969970241189" lon="3.165557999163866">
        <ele>-14.76</ele>
        <time>2025-05-15T15:05:07Z</time>
      </trkpt>
      <trkpt lat="42.442037025466561" lon="3.165597980841994">
        <ele>-14.279999999999999</ele>
        <time>2025-05-15T15:05:08Z</time>
      </trkpt>
      <trkpt lat="42.442211033776402" lon="3.165725972503424">
        <ele>-13.32</ele>
        <time>2025-05-15T15:05:11Z</time>
      </trkpt>
      <trkpt lat="42.442269958555698" lon="3.165766038000584">
        <ele>-13.32</ele>
        <time>2025-05-15T15:05:12Z</time>
      </trkpt>
      <trkpt lat="42.442383030429482" lon="3.165875002741814">
        <ele>-12.359999999999999</ele>
        <time>2025-05-15T15:05:14Z</time>
      </trkpt>
      <trkpt lat="42.442460982128978" lon="3.165971981361508">
        <ele>-11.880000000000001</ele>
        <time>2025-05-15T15:05:15Z</time>
      </trkpt>
      <trkpt lat="42.442471962422132" lon="3.166049011051655">
        <ele>-10.92</ele>
        <time>2025-05-15T15:05:16Z</time>
      </trkpt>
      <trkpt lat="42.442456036806107" lon="3.166179014369845">
        <ele>-10.44</ele>
        <time>2025-05-15T15:05:17Z</time>
      </trkpt>
      <trkpt lat="42.442414965480566" lon="3.166267024353147">
        <ele>-9.960000000000001</ele>
        <time>2025-05-15T15:05:18Z</time>
      </trkpt>
      <trkpt lat="42.442372972145677" lon="3.166358973830938">
        <ele>-9.48</ele>
        <time>2025-05-15T15:05:19Z</time>
      </trkpt>
      <trkpt lat="42.442346988245845" lon="3.166460981592536">
        <ele>-8.51</ele>
        <time>2025-05-15T15:05:20Z</time>
      </trkpt>
      <trkpt lat="42.44233500212431" lon="3.166586039587855">
        <ele>-8.029999999999999</ele>
        <time>2025-05-15T15:05:21Z</time>
      </trkpt>
      <trkpt lat="42.442322010174394" lon="3.166718976572156">
        <ele>-7.07</ele>
        <time>2025-05-15T15:05:22Z</time>
      </trkpt>
      <trkpt lat="42.442307006567717" lon="3.166861971840262">
        <ele>-6.11</ele>
        <time>2025-05-15T15:05:23Z</time>
      </trkpt>
      <trkpt lat="42.44229300878942" lon="3.167004967108369">
        <ele>-4.67</ele>
        <time>2025-05-15T15:05:24Z</time>
      </trkpt>
      <trkpt lat="42.442316981032491" lon="3.167158020660281">
        <ele>-3.71</ele>
        <time>2025-05-15T15:05:25Z</time>
      </trkpt>
      <trkpt lat="42.442351011559367" lon="3.167294980958104">
        <ele>-1.79</ele>
        <time>2025-05-15T15:05:26Z</time>
      </trkpt>
      <trkpt lat="42.442425023764372" lon="3.167405035346746">
        <ele>-0.34</ele>
        <time>2025-05-15T15:05:27Z</time>
      </trkpt>
      <trkpt lat="42.442498030140996" lon="3.167508970946074">
        <ele>0.62</ele>
        <time>2025-05-15T15:05:28Z</time>
      </trkpt>
      <trkpt lat="42.442600959911942" lon="3.167562028393149">
        <ele>1.58</ele>
        <time>2025-05-15T15:05:29Z</time>
      </trkpt>
      <trkpt lat="42.442704979330301" lon="3.167609972879291">
        <ele>2.54</ele>
        <time>2025-05-15T15:05:30Z</time>
      </trkpt>
      <trkpt lat="42.442810004577041" lon="3.167653977870941">
        <ele>3.5</ele>
        <time>2025-05-15T15:05:31Z</time>
      </trkpt>
      <trkpt lat="42.442919975146651" lon="3.167688008397818">
        <ele>4.46</ele>
        <time>2025-05-15T15:05:32Z</time>
      </trkpt>
      <trkpt lat="42.443931000307202" lon="3.168102996423841">
        <ele>15.039999999999999</ele>
        <time>2025-05-15T15:05:42Z</time>
      </trkpt>
      <trkpt lat="42.444029990583658" lon="3.168123029172421">
        <ele>16.48</ele>
        <time>2025-05-15T15:05:43Z</time>
      </trkpt>
      <trkpt lat="42.444133004173636" lon="3.168130991980434">
        <ele>17.440000000000001</ele>
        <time>2025-05-15T15:05:44Z</time>
      </trkpt>
      <trkpt lat="42.444222019985318" lon="3.168092016130686">
        <ele>18.879999999999999</ele>
        <time>2025-05-15T15:05:45Z</time>
      </trkpt>
      <trkpt lat="42.444308018311858" lon="3.168044993653894">
        <ele>20.32</ele>
        <time>2025-05-15T15:05:46Z</time>
      </trkpt>
      <trkpt lat="42.444398961961269" lon="3.167979028075934">
        <ele>21.289999999999999</ele>
        <time>2025-05-15T15:05:47Z</time>
      </trkpt>
      <trkpt lat="42.444478003308177" lon="3.167861010879278">
        <ele>22.25</ele>
        <time>2025-05-15T15:05:48Z</time>
      </trkpt>
      <trkpt lat="42.444532988592982" lon="3.167774006724358">
        <ele>23.690000000000001</ele>
        <time>2025-05-15T15:05:49Z</time>
      </trkpt>
      <trkpt lat="42.444596020504832" lon="3.167664036154747">
        <ele>25.129999999999999</ele>
        <time>2025-05-15T15:05:50Z</time>
      </trkpt>
      <trkpt lat="42.444670032709837" lon="3.167568985372782">
        <ele>26.57</ele>
        <time>2025-05-15T15:05:51Z</time>
      </trkpt>
      <trkpt lat="42.444748990237713" lon="3.167475024238229">
        <ele>27.530000000000001</ele>
        <time>2025-05-15T15:05:52Z</time>
      </trkpt>
      <trkpt lat="42.444820990785956" lon="3.167388020083308">
        <ele>28.98</ele>
        <time>2025-05-15T15:05:53Z</time>
      </trkpt>
      <trkpt lat="42.444922998547554" lon="3.167395982891321">
        <ele>30.420000000000002</ele>
        <time>2025-05-15T15:05:54Z</time>
      </trkpt>
      <trkpt lat="42.445024000480771" lon="3.167403023689985">
        <ele>31.379999999999999</ele>
        <time>2025-05-15T15:05:55Z</time>
      </trkpt>
      <trkpt lat="42.445123996585608" lon="3.167410986497998">
        <ele>32.340000000000003</ele>
        <time>2025-05-15T15:05:56Z</time>
      </trkpt>
      <trkpt lat="42.445233967155218" lon="3.167447028681636">
        <ele>33.299999999999997</ele>
        <time>2025-05-15T15:05:57Z</time>
      </trkpt>
      <trkpt lat="42.445350978523493" lon="3.167486004531384">
        <ele>34.259999999999998</ele>
        <time>2025-05-15T15:05:58Z</time>
      </trkpt>
      <trkpt lat="42.445832015946507" lon="3.167646015062928">
        <ele>39.07</ele>
        <time>2025-05-15T15:06:03Z</time>
      </trkpt>
      <trkpt lat="42.445923965424299" lon="3.167646015062928">
        <ele>40.030000000000001</ele>
        <time>2025-05-15T15:06:04Z</time>
      </trkpt>
      <trkpt lat="42.446023039519787" lon="3.167646015062928">
        <ele>40.509999999999998</ele>
        <time>2025-05-15T15:06:05Z</time>
      </trkpt>
      <trkpt lat="42.446121023967862" lon="3.167569991201162">
        <ele>41.469999999999999</ele>
        <time>2025-05-15T15:06:06Z</time>
      </trkpt>
      <trkpt lat="42.446222025901079" lon="3.167491033673286">
        <ele>42.439999999999998</ele>
        <time>2025-05-15T15:06:07Z</time>
      </trkpt>
      <trkpt lat="42.446325961500406" lon="3.167409980669618">
        <ele>42.920000000000002</ele>
        <time>2025-05-15T15:06:08Z</time>
      </trkpt>
      <trkpt lat="42.446426041424274" lon="3.167326999828219">
        <ele>43.880000000000003</ele>
        <time>2025-05-15T15:06:09Z</time>
      </trkpt>
      <trkpt lat="42.446966003626585" lon="3.166728029027581">
        <ele>48.200000000000003</ele>
        <time>2025-05-15T15:06:17Z</time>
      </trkpt>
      <trkpt lat="42.447329023852944" lon="3.166348999366164">
        <ele>50.609999999999999</ele>
        <time>2025-05-15T15:06:23Z</time>
      </trkpt>
      <trkpt lat="42.447388032451272" lon="3.166287979111075">
        <ele>51.090000000000003</ele>
        <time>2025-05-15T15:06:24Z</time>
      </trkpt>
      <trkpt lat="42.447821963578463" lon="3.165749022737145">
        <ele>53.490000000000002</ele>
        <time>2025-05-15T15:06:31Z</time>
      </trkpt>
      <trkpt lat="42.447875021025538" lon="3.165649026632309">
        <ele>53.490000000000002</ele>
        <time>2025-05-15T15:06:32Z</time>
      </trkpt>
      <trkpt lat="42.44792397134006" lon="3.165534026920795">
        <ele>53.490000000000002</ele>
        <time>2025-05-15T15:06:33Z</time>
      </trkpt>
      <trkpt lat="42.447975017130375" lon="3.165413998067379">
        <ele>53.969999999999999</ele>
        <time>2025-05-15T15:06:34Z</time>
      </trkpt>
      <trkpt lat="42.447997983545065" lon="3.165277959778905">
        <ele>54.450000000000003</ele>
        <time>2025-05-15T15:06:35Z</time>
      </trkpt>
      <trkpt lat="42.448021033778787" lon="3.165139993652701">
        <ele>54.93</ele>
        <time>2025-05-15T15:06:36Z</time>
      </trkpt>
      <trkpt lat="42.448038971051574" lon="3.165009990334511">
        <ele>55.409999999999997</ele>
        <time>2025-05-15T15:06:37Z</time>
      </trkpt>
      <trkpt lat="42.448032014071941" lon="3.164874035865068">
        <ele>55.409999999999997</ele>
        <time>2025-05-15T15:06:38Z</time>
      </trkpt>
      <trkpt lat="42.448024973273277" lon="3.164737997576594">
        <ele>55.409999999999997</ele>
        <time>2025-05-15T15:06:39Z</time>
      </trkpt>
      <trkpt lat="42.448018016293645" lon="3.16459902562201">
        <ele>54.93</ele>
        <time>2025-05-15T15:06:40Z</time>
      </trkpt>
      <trkpt lat="42.447932017967105" lon="3.164059985429049">
        <ele>55.409999999999997</ele>
        <time>2025-05-15T15:06:44Z</time>
      </trkpt>
      <trkpt lat="42.447935035452247" lon="3.163926964625716">
        <ele>55.409999999999997</ele>
        <time>2025-05-15T15:06:45Z</time>
      </trkpt>
      <trkpt lat="42.447981974110007" lon="3.163823029026389">
        <ele>55.409999999999997</ele>
        <time>2025-05-15T15:06:46Z</time>
      </trkpt>
      <trkpt lat="42.44805296882987" lon="3.163721021264792">
        <ele>55.409999999999997</ele>
        <time>2025-05-15T15:06:47Z</time>
      </trkpt>
      <trkpt lat="42.448151959106326" lon="3.163666035979986">
        <ele>54.93</ele>
        <time>2025-05-15T15:06:48Z</time>
      </trkpt>
      <trkpt lat="42.448263019323349" lon="3.163622030988336">
        <ele>54.93</ele>
        <time>2025-05-15T15:06:49Z</time>
      </trkpt>
      <trkpt lat="42.448378019034863" lon="3.163595041260123">
        <ele>54.450000000000003</ele>
        <time>2025-05-15T15:06:50Z</time>
      </trkpt>
      <trkpt lat="42.448485977947712" lon="3.16356997936964">
        <ele>54.450000000000003</ele>
        <time>2025-05-15T15:06:51Z</time>
      </trkpt>
      <trkpt lat="42.448566025123" lon="3.163493033498526">
        <ele>53.969999999999999</ele>
        <time>2025-05-15T15:06:52Z</time>
      </trkpt>
      <trkpt lat="42.448640037328005" lon="3.163419021293521">
        <ele>53.969999999999999</ele>
        <time>2025-05-15T15:06:53Z</time>
      </trkpt>
      <trkpt lat="42.448665015399456" lon="3.163290023803711">
        <ele>53.969999999999999</ele>
        <time>2025-05-15T15:06:54Z</time>
      </trkpt>
      <trkpt lat="42.448693010956049" lon="3.163146022707224">
        <ele>54.450000000000003</ele>
        <time>2025-05-15T15:06:55Z</time>
      </trkpt>
      <trkpt lat="42.448723018169403" lon="3.162991041317582">
        <ele>54.450000000000003</ele>
        <time>2025-05-15T15:06:56Z</time>
      </trkpt>
      <trkpt lat="42.448795018717647" lon="3.162634978070855">
        <ele>54.93</ele>
        <time>2025-05-15T15:06:58Z</time>
      </trkpt>
      <trkpt lat="42.448945976793766" lon="3.162128962576389">
        <ele>55.890000000000001</ele>
        <time>2025-05-15T15:07:01Z</time>
      </trkpt>
      <trkpt lat="42.448958968743682" lon="3.161952020600438">
        <ele>56.369999999999997</ele>
        <time>2025-05-15T15:07:02Z</time>
      </trkpt>
      <trkpt lat="42.448924016207457" lon="3.161774994805455">
        <ele>56.859999999999999</ele>
        <time>2025-05-15T15:07:03Z</time>
      </trkpt>
      <trkpt lat="42.448871964588761" lon="3.161584977060556">
        <ele>56.859999999999999</ele>
        <time>2025-05-15T15:07:04Z</time>
      </trkpt>
      <trkpt lat="42.448817985132337" lon="3.161386996507645">
        <ele>57.340000000000003</ele>
        <time>2025-05-15T15:07:05Z</time>
      </trkpt>
      <trkpt lat="42.44876098819077" lon="3.161180969327688">
        <ele>57.340000000000003</ele>
        <time>2025-05-15T15:07:06Z</time>
      </trkpt>
      <trkpt lat="42.44863098487258" lon="3.160590967163444">
        <ele>57.82</ele>
        <time>2025-05-15T15:07:09Z</time>
      </trkpt>
      <trkpt lat="42.448621010407805" lon="3.160417964681983">
        <ele>57.82</ele>
        <time>2025-05-15T15:07:10Z</time>
      </trkpt>
      <trkpt lat="42.448682030662894" lon="3.160293996334076">
        <ele>57.82</ele>
        <time>2025-05-15T15:07:11Z</time>
      </trkpt>
      <trkpt lat="42.448757970705628" lon="3.16017497330904">
        <ele>57.82</ele>
        <time>2025-05-15T15:07:12Z</time>
      </trkpt>
      <trkpt lat="42.448865007609129" lon="3.160141026601195">
        <ele>57.340000000000003</ele>
        <time>2025-05-15T15:07:13Z</time>
      </trkpt>
      <trkpt lat="42.448998028412461" lon="3.160117976367474">
        <ele>57.340000000000003</ele>
        <time>2025-05-15T15:07:14Z</time>
      </trkpt>
      <trkpt lat="42.449144041165709" lon="3.160092998296022">
        <ele>56.859999999999999</ele>
        <time>2025-05-15T15:07:15Z</time>
      </trkpt>
      <trkpt lat="42.449288964271545" lon="3.160068020224571">
        <ele>56.369999999999997</ele>
        <time>2025-05-15T15:07:16Z</time>
      </trkpt>
      <trkpt lat="42.449417961761355" lon="3.160019991919398">
        <ele>56.369999999999997</ele>
        <time>2025-05-15T15:07:17Z</time>
      </trkpt>
      <trkpt lat="42.44951200671494" lon="3.159914966672659">
        <ele>56.369999999999997</ele>
        <time>2025-05-15T15:07:18Z</time>
      </trkpt>
      <trkpt lat="42.449573026970029" lon="3.159778006374836">
        <ele>56.859999999999999</ele>
        <time>2025-05-15T15:07:19Z</time>
      </trkpt>
      <trkpt lat="42.449594987556338" lon="3.159603998064995">
        <ele>56.859999999999999</ele>
        <time>2025-05-15T15:07:20Z</time>
      </trkpt>
      <trkpt lat="42.449608985334635" lon="3.159410962834954">
        <ele>57.340000000000003</ele>
        <time>2025-05-15T15:07:21Z</time>
      </trkpt>
      <trkpt lat="42.449616026133299" lon="3.159198984503746">
        <ele>57.82</ele>
        <time>2025-05-15T15:07:22Z</time>
      </trkpt>
      <trkpt lat="42.449690038338304" lon="3.158071031793952">
        <ele>58.780000000000001</ele>
        <time>2025-05-15T15:07:27Z</time>
      </trkpt>
      <trkpt lat="42.449739994481206" lon="3.157879002392292">
        <ele>58.780000000000001</ele>
        <time>2025-05-15T15:07:28Z</time>
      </trkpt>
      <trkpt lat="42.449837978929281" lon="3.157713962718844">
        <ele>58.299999999999997</ele>
        <time>2025-05-15T15:07:29Z</time>
      </trkpt>
      <trkpt lat="42.449965970590711" lon="3.157575996592641">
        <ele>58.780000000000001</ele>
        <time>2025-05-15T15:07:30Z</time>
      </trkpt>
      <trkpt lat="42.450108965858817" lon="3.157458985224366">
        <ele>58.780000000000001</ele>
        <time>2025-05-15T15:07:31Z</time>
      </trkpt>
      <trkpt lat="42.450530994683504" lon="3.15710199996829">
        <ele>58.780000000000001</ele>
        <time>2025-05-15T15:07:34Z</time>
      </trkpt>
      <trkpt lat="42.450640965253115" lon="3.156968979164958">
        <ele>59.259999999999998</ele>
        <time>2025-05-15T15:07:35Z</time>
      </trkpt>
      <trkpt lat="42.450735010206699" lon="3.156854985281825">
        <ele>59.259999999999998</ele>
        <time>2025-05-15T15:07:36Z</time>
      </trkpt>
      <trkpt lat="42.450814973562956" lon="3.156766975298524">
        <ele>59.259999999999998</ele>
        <time>2025-05-15T15:07:37Z</time>
      </trkpt>
      <trkpt lat="42.450906001031399" lon="3.156781978905201">
        <ele>59.259999999999998</ele>
        <time>2025-05-15T15:07:38Z</time>
      </trkpt>
      <trkpt lat="42.450970960780978" lon="3.156859008595347">
        <ele>59.259999999999998</ele>
        <time>2025-05-15T15:07:39Z</time>
      </trkpt>
      <trkpt lat="42.451000967994332" lon="3.156990017741919">
        <ele>59.259999999999998</ele>
        <time>2025-05-15T15:07:40Z</time>
      </trkpt>
      <trkpt lat="42.451000967994332" lon="3.157147010788322">
        <ele>59.259999999999998</ele>
        <time>2025-05-15T15:07:41Z</time>
      </trkpt>
      <trkpt lat="42.451000967994332" lon="3.157329987734556">
        <ele>58.780000000000001</ele>
        <time>2025-05-15T15:07:42Z</time>
      </trkpt>
      <trkpt lat="42.451000967994332" lon="3.157515982165933">
        <ele>58.780000000000001</ele>
        <time>2025-05-15T15:07:43Z</time>
      </trkpt>
      <trkpt lat="42.451056959107518" lon="3.157651014626026">
        <ele>58.299999999999997</ele>
        <time>2025-05-15T15:07:44Z</time>
      </trkpt>
      <trkpt lat="42.451126025989652" lon="3.15778998658061">
        <ele>57.82</ele>
        <time>2025-05-15T15:07:45Z</time>
      </trkpt>
      <trkpt lat="42.451233984902501" lon="3.157842038199306">
        <ele>57.340000000000003</ele>
        <time>2025-05-15T15:07:46Z</time>
      </trkpt>
      <trkpt lat="42.45135803706944" lon="3.157860981300473">
        <ele>57.340000000000003</ele>
        <time>2025-05-15T15:07:47Z</time>
      </trkpt>
      <trkpt lat="42.451491979882121" lon="3.157837009057403">
        <ele>57.340000000000003</ele>
        <time>2025-05-15T15:07:48Z</time>
      </trkpt>
      <trkpt lat="42.451635980978608" lon="3.157780012115836">
        <ele>57.340000000000003</ele>
        <time>2025-05-15T15:07:49Z</time>
      </trkpt>
      <trkpt lat="42.45178802870214" lon="3.157719997689128">
        <ele>57.340000000000003</ele>
        <time>2025-05-15T15:07:50Z</time>
      </trkpt>
      <trkpt lat="42.45224199257791" lon="3.157582031562924">
        <ele>56.859999999999999</ele>
        <time>2025-05-15T15:07:53Z</time>
      </trkpt>
      <trkpt lat="42.452352968975902" lon="3.157582031562924">
        <ele>56.859999999999999</ele>
        <time>2025-05-15T15:07:54Z</time>
      </trkpt>
      <trkpt lat="42.452443996444345" lon="3.157700970768929">
        <ele>56.859999999999999</ele>
        <time>2025-05-15T15:07:55Z</time>
      </trkpt>
      <trkpt lat="42.452523959800601" lon="3.157803984358907">
        <ele>56.859999999999999</ele>
        <time>2025-05-15T15:07:56Z</time>
      </trkpt>
      <trkpt lat="42.452609958127141" lon="3.157914960756898">
        <ele>56.369999999999997</ele>
        <time>2025-05-15T15:07:57Z</time>
      </trkpt>
      <trkpt lat="42.452706014737487" lon="3.158040018752217">
        <ele>55.890000000000001</ele>
        <time>2025-05-15T15:07:58Z</time>
      </trkpt>
      <trkpt lat="42.452813973650336" lon="3.158178990706801">
        <ele>55.409999999999997</ele>
        <time>2025-05-15T15:07:59Z</time>
      </trkpt>
      <trkpt lat="42.45292997919023" lon="3.158330032601953">
        <ele>54.93</ele>
        <time>2025-05-15T15:08:00Z</time>
      </trkpt>
      <trkpt lat="42.453329041600227" lon="3.158726999536157">
        <ele>53.969999999999999</ele>
        <time>2025-05-15T15:08:03Z</time>
      </trkpt>
      <trkpt lat="42.453467007726431" lon="3.158812997862697">
        <ele>53.490000000000002</ele>
        <time>2025-05-15T15:08:04Z</time>
      </trkpt>
      <trkpt lat="42.453622994944453" lon="3.15884199924767">
        <ele>53.490000000000002</ele>
        <time>2025-05-15T15:08:05Z</time>
      </trkpt>
      <trkpt lat="42.453785017132759" lon="3.15886496566236">
        <ele>53.009999999999998</ele>
        <time>2025-05-15T15:08:06Z</time>
      </trkpt>
      <trkpt lat="42.453934969380498" lon="3.158814003691077">
        <ele>52.530000000000001</ele>
        <time>2025-05-15T15:08:07Z</time>
      </trkpt>
      <trkpt lat="42.45408701710403" lon="3.158725993707776">
        <ele>52.049999999999997</ele>
        <time>2025-05-15T15:08:08Z</time>
      </trkpt>
      <trkpt lat="42.454240992665291" lon="3.158629015088081">
        <ele>52.049999999999997</ele>
        <time>2025-05-15T15:08:09Z</time>
      </trkpt>
      <trkpt lat="42.45471297763288" lon="3.158331038430333">
        <ele>51.090000000000003</ele>
        <time>2025-05-15T15:08:12Z</time>
      </trkpt>
      <trkpt lat="42.454872988164425" lon="3.158289967104793">
        <ele>51.090000000000003</ele>
        <time>2025-05-15T15:08:13Z</time>
      </trkpt>
      <trkpt lat="42.455011960119009" lon="3.158317962661386">
        <ele>50.609999999999999</ele>
        <time>2025-05-15T15:08:14Z</time>
      </trkpt>
      <trkpt lat="42.455106005072594" lon="3.1583880353719">
        <ele>50.609999999999999</ele>
        <time>2025-05-15T15:08:15Z</time>
      </trkpt>
      <trkpt lat="42.455170964822173" lon="3.158503035083413">
        <ele>50.609999999999999</ele>
        <time>2025-05-15T15:08:16Z</time>
      </trkpt>
      <trkpt lat="42.455239025875926" lon="3.158619962632656">
        <ele>50.609999999999999</ele>
        <time>2025-05-15T15:08:17Z</time>
      </trkpt>
      <trkpt lat="42.455323012545705" lon="3.158707972615957">
        <ele>50.130000000000003</ele>
        <time>2025-05-15T15:08:18Z</time>
      </trkpt>
      <trkpt lat="42.455416973680258" lon="3.15873496234417">
        <ele>50.130000000000003</ele>
        <time>2025-05-15T15:08:19Z</time>
      </trkpt>
      <trkpt lat="42.455520993098617" lon="3.158717025071383">
        <ele>50.130000000000003</ele>
        <time>2025-05-15T15:08:20Z</time>
      </trkpt>
      <trkpt lat="42.455638004466891" lon="3.158695986494422">
        <ele>50.130000000000003</ele>
        <time>2025-05-15T15:08:21Z</time>
      </trkpt>
      <trkpt lat="42.455748980864882" lon="3.158613005653024">
        <ele>50.130000000000003</ele>
        <time>2025-05-15T15:08:22Z</time>
      </trkpt>
      <trkpt lat="42.455864986404777" lon="3.158526001498103">
        <ele>49.649999999999999</ele>
        <time>2025-05-15T15:08:23Z</time>
      </trkpt>
      <trkpt lat="42.456595972180367" lon="3.157707005739212">
        <ele>46.280000000000001</ele>
        <time>2025-05-15T15:08:30Z</time>
      </trkpt>
      <trkpt lat="42.456662021577358" lon="3.157600974664092">
        <ele>45.799999999999997</ele>
        <time>2025-05-15T15:08:31Z</time>
      </trkpt>
      <trkpt lat="42.456686999648809" lon="3.157560992985964">
        <ele>45.799999999999997</ele>
        <time>2025-05-15T15:08:32Z</time>
      </trkpt>
      <trkpt lat="42.456817002967" lon="3.157482035458088">
        <ele>45.32</ele>
        <time>2025-05-15T15:08:33Z</time>
      </trkpt>
      <trkpt lat="42.45683703571558" lon="3.157411040738225">
        <ele>45.32</ele>
        <time>2025-05-15T15:08:34Z</time>
      </trkpt>
      <trkpt lat="42.45679403655231" lon="3.157324958592653">
        <ele>45.32</ele>
        <time>2025-05-15T15:08:35Z</time>
      </trkpt>
      <trkpt lat="42.45679697021842" lon="3.157114991918206">
        <ele>45.799999999999997</ele>
        <time>2025-05-15T15:08:36Z</time>
      </trkpt>
      <trkpt lat="42.456846004351974" lon="3.156974008306861">
        <ele>45.799999999999997</ele>
        <time>2025-05-15T15:08:37Z</time>
      </trkpt>
      <trkpt lat="42.456914987415075" lon="3.156833024695516">
        <ele>46.280000000000001</ele>
        <time>2025-05-15T15:08:38Z</time>
      </trkpt>
      <trkpt lat="42.456984976306558" lon="3.156698998063803">
        <ele>46.759999999999998</ele>
        <time>2025-05-15T15:08:39Z</time>
      </trkpt>
      <trkpt lat="42.457050019875169" lon="3.156577041372657">
        <ele>46.759999999999998</ele>
        <time>2025-05-15T15:08:40Z</time>
      </trkpt>
      <trkpt lat="42.45705203153193" lon="3.156430022791028">
        <ele>47.240000000000002</ele>
        <time>2025-05-15T15:08:41Z</time>
      </trkpt>
      <trkpt lat="42.457039961591363" lon="3.15628401003778">
        <ele>47.719999999999999</ele>
        <time>2025-05-15T15:08:42Z</time>
      </trkpt>
      <trkpt lat="42.456987993791699" lon="3.156142020598054">
        <ele>48.200000000000003</ele>
        <time>2025-05-15T15:08:43Z</time>
      </trkpt>
      <trkpt lat="42.456912975758314" lon="3.156004976481199">
        <ele>48.200000000000003</ele>
        <time>2025-05-15T15:08:44Z</time>
      </trkpt>
      <trkpt lat="42.456820020452142" lon="3.155873967334628">
        <ele>48.200000000000003</ele>
        <time>2025-05-15T15:08:45Z</time>
      </trkpt>
      <trkpt lat="42.456636037677526" lon="3.155587976798415">
        <ele>48.200000000000003</ele>
        <time>2025-05-15T15:08:47Z</time>
      </trkpt>
      <trkpt lat="42.456601001322269" lon="3.155412040650845">
        <ele>48.200000000000003</ele>
        <time>2025-05-15T15:08:48Z</time>
      </trkpt>
      <trkpt lat="42.45658197440207" lon="3.155250018462539">
        <ele>48.200000000000003</ele>
        <time>2025-05-15T15:08:49Z</time>
      </trkpt>
      <trkpt lat="42.456611981615424" lon="3.155089002102613">
        <ele>47.719999999999999</ele>
        <time>2025-05-15T15:08:50Z</time>
      </trkpt>
      <trkpt lat="42.456675013527274" lon="3.154954975470901">
        <ele>47.240000000000002</ele>
        <time>2025-05-15T15:08:51Z</time>
      </trkpt>
      <trkpt lat="42.456771992146969" lon="3.154830001294613">
        <ele>47.240000000000002</ele>
        <time>2025-05-15T15:08:52Z</time>
      </trkpt>
      <trkpt lat="42.456881962716579" lon="3.154704021289945">
        <ele>47.240000000000002</ele>
        <time>2025-05-15T15:08:53Z</time>
      </trkpt>
      <trkpt lat="42.457757033407688" lon="3.153745969757438">
        <ele>48.200000000000003</ele>
        <time>2025-05-15T15:09:00Z</time>
      </trkpt>
      <trkpt lat="42.457889970391989" lon="3.153672963380814">
        <ele>48.68</ele>
        <time>2025-05-15T15:09:01Z</time>
      </trkpt>
      <trkpt lat="42.458025002852082" lon="3.153661983087659">
        <ele>48.68</ele>
        <time>2025-05-15T15:09:02Z</time>
      </trkpt>
      <trkpt lat="42.458164980635047" lon="3.153685033321381">
        <ele>48.68</ele>
        <time>2025-05-15T15:09:03Z</time>
      </trkpt>
      <trkpt lat="42.458304036408663" lon="3.153752004727721">
        <ele>48.200000000000003</ele>
        <time>2025-05-15T15:09:04Z</time>
      </trkpt>
      <trkpt lat="42.458592960610986" lon="3.153890976682305">
        <ele>48.200000000000003</ele>
        <time>2025-05-15T15:09:06Z</time>
      </trkpt>
      <trkpt lat="42.458724975585938" lon="3.153924001380801">
        <ele>48.200000000000003</ele>
        <time>2025-05-15T15:09:07Z</time>
      </trkpt>
      <trkpt lat="42.458851039409637" lon="3.153892988339067">
        <ele>48.200000000000003</ele>
        <time>2025-05-15T15:09:08Z</time>
      </trkpt>
      <trkpt lat="42.458952963352203" lon="3.153812019154429">
        <ele>48.68</ele>
        <time>2025-05-15T15:09:09Z</time>
      </trkpt>
      <trkpt lat="42.459006020799279" lon="3.153689978644252">
        <ele>48.68</ele>
        <time>2025-05-15T15:09:10Z</time>
      </trkpt>
      <trkpt lat="42.459056982770562" lon="3.1535579636693">
        <ele>49.159999999999997</ele>
        <time>2025-05-15T15:09:11Z</time>
      </trkpt>
      <trkpt lat="42.459056982770562" lon="3.153417985886335">
        <ele>49.649999999999999</ele>
        <time>2025-05-15T15:09:12Z</time>
      </trkpt>
      <trkpt lat="42.459038961678743" lon="3.15325303003192">
        <ele>50.130000000000003</ele>
        <time>2025-05-15T15:09:13Z</time>
      </trkpt>
      <trkpt lat="42.459018006920815" lon="3.15306100063026">
        <ele>50.609999999999999</ele>
        <time>2025-05-15T15:09:14Z</time>
      </trkpt>
      <trkpt lat="42.458994034677744" lon="3.152836030349135">
        <ele>51.090000000000003</ele>
        <time>2025-05-15T15:09:15Z</time>
      </trkpt>
      <trkpt lat="42.458991017192602" lon="3.152593960985541">
        <ele>51.090000000000003</ele>
        <time>2025-05-15T15:09:16Z</time>
      </trkpt>
      <trkpt lat="42.459006020799279" lon="3.152344012632966">
        <ele>51.090000000000003</ele>
        <time>2025-05-15T15:09:17Z</time>
      </trkpt>
      <trkpt lat="42.459020018577576" lon="3.152105966582894">
        <ele>50.609999999999999</ele>
        <time>2025-05-15T15:09:18Z</time>
      </trkpt>
      <trkpt lat="42.459003003314137" lon="3.15187999047339">
        <ele>50.609999999999999</ele>
        <time>2025-05-15T15:09:19Z</time>
      </trkpt>
      <trkpt lat="42.458962015807629" lon="3.151659965515137">
        <ele>50.609999999999999</ele>
        <time>2025-05-15T15:09:20Z</time>
      </trkpt>
      <trkpt lat="42.458894038572907" lon="3.151422003284097">
        <ele>50.130000000000003</ele>
        <time>2025-05-15T15:09:21Z</time>
      </trkpt>
      <trkpt lat="42.458828995004296" lon="3.151196027174592">
        <ele>50.130000000000003</ele>
        <time>2025-05-15T15:09:22Z</time>
      </trkpt>
      <trkpt lat="42.458767974749207" lon="3.150982959195972">
        <ele>49.649999999999999</ele>
        <time>2025-05-15T15:09:23Z</time>
      </trkpt>
      <trkpt lat="42.458682982251048" lon="3.150824960321188">
        <ele>49.649999999999999</ele>
        <time>2025-05-15T15:09:24Z</time>
      </trkpt>
      <trkpt lat="42.458584997802973" lon="3.150695962831378">
        <ele>49.649999999999999</ele>
        <time>2025-05-15T15:09:25Z</time>
      </trkpt>
      <trkpt lat="42.458488019183278" lon="3.150567971169949">
        <ele>49.649999999999999</ele>
        <time>2025-05-15T15:09:26Z</time>
      </trkpt>
      <trkpt lat="42.458390034735203" lon="3.150438973680139">
        <ele>49.649999999999999</ele>
        <time>2025-05-15T15:09:27Z</time>
      </trkpt>
      <trkpt lat="42.458307975903153" lon="3.150298995897174">
        <ele>49.649999999999999</ele>
        <time>2025-05-15T15:09:28Z</time>
      </trkpt>
      <trkpt lat="42.458245027810335" lon="3.150146026164293">
        <ele>49.649999999999999</ele>
        <time>2025-05-15T15:09:29Z</time>
      </trkpt>
      <trkpt lat="42.458217032253742" lon="3.149978974834085">
        <ele>50.130000000000003</ele>
        <time>2025-05-15T15:09:30Z</time>
      </trkpt>
      <trkpt lat="42.458230024203658" lon="3.149806978181005">
        <ele>50.609999999999999</ele>
        <time>2025-05-15T15:09:31Z</time>
      </trkpt>
      <trkpt lat="42.458261037245393" lon="3.149633975699544">
        <ele>51.090000000000003</ele>
        <time>2025-05-15T15:09:32Z</time>
      </trkpt>
      <trkpt lat="42.458290960639715" lon="3.149457033723593">
        <ele>51.090000000000003</ele>
        <time>2025-05-15T15:09:33Z</time>
      </trkpt>
      <trkpt lat="42.458275035023689" lon="3.149262992665172">
        <ele>51.57</ele>
        <time>2025-05-15T15:09:34Z</time>
      </trkpt>
      <trkpt lat="42.458250978961587" lon="3.149079009890556">
        <ele>52.049999999999997</ele>
        <time>2025-05-15T15:09:35Z</time>
      </trkpt>
      <trkpt lat="42.458232035860419" lon="3.148935008794069">
        <ele>52.049999999999997</ele>
        <time>2025-05-15T15:09:36Z</time>
      </trkpt>
      <trkpt lat="42.458247961476445" lon="3.148771980777383">
        <ele>52.530000000000001</ele>
        <time>2025-05-15T15:09:37Z</time>
      </trkpt>
      <trkpt lat="42.458287021145225" lon="3.148669973015785">
        <ele>52.530000000000001</ele>
        <time>2025-05-15T15:09:38Z</time>
      </trkpt>
      <trkpt lat="42.458356004208326" lon="3.148589003831148">
        <ele>52.530000000000001</ele>
        <time>2025-05-15T15:09:39Z</time>
      </trkpt>
      <trkpt lat="42.458453988656402" lon="3.148575006052852">
        <ele>52.530000000000001</ele>
        <time>2025-05-15T15:09:40Z</time>
      </trkpt>
      <trkpt lat="42.45857703499496" lon="3.148629991337657">
        <ele>52.530000000000001</ele>
        <time>2025-05-15T15:09:41Z</time>
      </trkpt>
      <trkpt lat="42.458701003342867" lon="3.148715989664197">
        <ele>52.530000000000001</ele>
        <time>2025-05-15T15:09:42Z</time>
      </trkpt>
      <trkpt lat="42.458837041631341" lon="3.148810034617782">
        <ele>52.049999999999997</ele>
        <time>2025-05-15T15:09:43Z</time>
      </trkpt>
      <trkpt lat="42.459081038832664" lon="3.148978007957339">
        <ele>51.090000000000003</ele>
        <time>2025-05-15T15:09:45Z</time>
      </trkpt>
      <trkpt lat="42.459187991917133" lon="3.149013966321945">
        <ele>51.090000000000003</ele>
        <time>2025-05-15T15:09:46Z</time>
      </trkpt>
      <trkpt lat="42.45928798802197" lon="3.148985970765352">
        <ele>51.090000000000003</ele>
        <time>2025-05-15T15:09:47Z</time>
      </trkpt>
      <trkpt lat="42.459369041025639" lon="3.148898966610432">
        <ele>51.090000000000003</ele>
        <time>2025-05-15T15:09:48Z</time>
      </trkpt>
      <trkpt lat="42.459411034360528" lon="3.148776004090905">
        <ele>51.090000000000003</ele>
        <time>2025-05-15T15:09:49Z</time>
      </trkpt>
      <trkpt lat="42.459396030753851" lon="3.148641977459192">
        <ele>51.57</ele>
        <time>2025-05-15T15:09:50Z</time>
      </trkpt>
      <trkpt lat="42.459379015490413" lon="3.148488001897931">
        <ele>51.57</ele>
        <time>2025-05-15T15:09:51Z</time>
      </trkpt>
      <trkpt lat="42.459380021318793" lon="3.148326985538006">
        <ele>51.57</ele>
        <time>2025-05-15T15:09:52Z</time>
      </trkpt>
      <trkpt lat="42.459406005218625" lon="3.148158006370068">
        <ele>51.090000000000003</ele>
        <time>2025-05-15T15:09:53Z</time>
      </trkpt>
      <trkpt lat="42.459461996331811" lon="3.1480129994452">
        <ele>50.609999999999999</ele>
        <time>2025-05-15T15:09:54Z</time>
      </trkpt>
      <trkpt lat="42.45973901823163" lon="3.147425008937717">
        <ele>49.159999999999997</ele>
        <time>2025-05-15T15:09:58Z</time>
      </trkpt>
      <trkpt lat="42.459812024608254" lon="3.147349990904331">
        <ele>48.68</ele>
        <time>2025-05-15T15:09:59Z</time>
      </trkpt>
      <trkpt lat="42.45989098213613" lon="3.147295005619526">
        <ele>48.68</ele>
        <time>2025-05-15T15:10:00Z</time>
      </trkpt>
      <trkpt lat="42.459970023483038" lon="3.147240020334721">
        <ele>48.200000000000003</ele>
        <time>2025-05-15T15:10:01Z</time>
      </trkpt>
      <trkpt lat="42.460056021809578" lon="3.14730397425592">
        <ele>48.200000000000003</ele>
        <time>2025-05-15T15:10:02Z</time>
      </trkpt>
      <trkpt lat="42.460092986002564" lon="3.147377986460924">
        <ele>48.200000000000003</ele>
        <time>2025-05-15T15:10:03Z</time>
      </trkpt>
      <trkpt lat="42.460107989609241" lon="3.147546965628862">
        <ele>48.200000000000003</ele>
        <time>2025-05-15T15:10:04Z</time>
      </trkpt>
      <trkpt lat="42.460090974345803" lon="3.147703958675265">
        <ele>48.68</ele>
        <time>2025-05-15T15:10:05Z</time>
      </trkpt>
      <trkpt lat="42.460073037073016" lon="3.147876961156726">
        <ele>49.159999999999997</ele>
        <time>2025-05-15T15:10:06Z</time>
      </trkpt>
      <trkpt lat="42.460059961304069" lon="3.148045018315315">
        <ele>49.649999999999999</ele>
        <time>2025-05-15T15:10:07Z</time>
      </trkpt>
      <trkpt lat="42.460116036236286" lon="3.148223971948028">
        <ele>50.130000000000003</ele>
        <time>2025-05-15T15:10:08Z</time>
      </trkpt>
      <trkpt lat="42.460179990157485" lon="3.148423964157701">
        <ele>51.090000000000003</ele>
        <time>2025-05-15T15:10:09Z</time>
      </trkpt>
      <trkpt lat="42.460218966007233" lon="3.148638959974051">
        <ele>52.049999999999997</ele>
        <time>2025-05-15T15:10:10Z</time>
      </trkpt>
      <trkpt lat="42.460218966007233" lon="3.148870971053839">
        <ele>52.530000000000001</ele>
        <time>2025-05-15T15:10:11Z</time>
      </trkpt>
      <trkpt lat="42.460204968228936" lon="3.149105999618769">
        <ele>53.490000000000002</ele>
        <time>2025-05-15T15:10:12Z</time>
      </trkpt>
      <trkpt lat="42.460200022906065" lon="3.14955803565681">
        <ele>55.409999999999997</ele>
        <time>2025-05-15T15:10:14Z</time>
      </trkpt>
      <trkpt lat="42.460228018462658" lon="3.149749981239438">
        <ele>56.369999999999997</ele>
        <time>2025-05-15T15:10:15Z</time>
      </trkpt>
      <trkpt lat="42.460307981818914" lon="3.149899011477828">
        <ele>57.340000000000003</ele>
        <time>2025-05-15T15:10:16Z</time>
      </trkpt>
      <trkpt lat="42.460391968488693" lon="3.150041000917554">
        <ele>57.82</ele>
        <time>2025-05-15T15:10:17Z</time>
      </trkpt>
      <trkpt lat="42.460516020655632" lon="3.150146026164293">
        <ele>58.780000000000001</ele>
        <time>2025-05-15T15:10:18Z</time>
      </trkpt>
      <trkpt lat="42.460639989003539" lon="3.150250967592001">
        <ele>59.740000000000002</ele>
        <time>2025-05-15T15:10:19Z</time>
      </trkpt>
      <trkpt lat="42.460764963179827" lon="3.150287009775639">
        <ele>60.219999999999999</ele>
        <time>2025-05-15T15:10:20Z</time>
      </trkpt>
      <trkpt lat="42.460879040881991" lon="3.150301007553935">
        <ele>60.700000000000003</ele>
        <time>2025-05-15T15:10:21Z</time>
      </trkpt>
      <trkpt lat="42.460981970652938" lon="3.150212997570634">
        <ele>61.659999999999997</ele>
        <time>2025-05-15T15:10:22Z</time>
      </trkpt>
      <trkpt lat="42.461037961766124" lon="3.150105038657785">
        <ele>62.619999999999997</ele>
        <time>2025-05-15T15:10:23Z</time>
      </trkpt>
      <trkpt lat="42.461064029484987" lon="3.149986015632749">
        <ele>63.100000000000001</ele>
        <time>2025-05-15T15:10:24Z</time>
      </trkpt>
      <trkpt lat="42.461055982857943" lon="3.149804966524243">
        <ele>63.579999999999998</ele>
        <time>2025-05-15T15:10:25Z</time>
      </trkpt>
      <trkpt lat="42.46104902587831" lon="3.149621989578009">
        <ele>64.069999999999993</ele>
        <time>2025-05-15T15:10:26Z</time>
      </trkpt>
      <trkpt lat="42.461061011999846" lon="3.149418979883194">
        <ele>64.549999999999997</ele>
        <time>2025-05-15T15:10:27Z</time>
      </trkpt>
      <trkpt lat="42.461107028648257" lon="3.149234997108579">
        <ele>65.030000000000001</ele>
        <time>2025-05-15T15:10:28Z</time>
      </trkpt>
      <trkpt lat="42.461211970075965" lon="3.149073980748653">
        <ele>65.510000000000005</ele>
        <time>2025-05-15T15:10:29Z</time>
      </trkpt>
      <trkpt lat="42.461318001151085" lon="3.148911958560348">
        <ele>65.989999999999995</ele>
        <time>2025-05-15T15:10:30Z</time>
      </trkpt>
      <trkpt lat="42.461433000862598" lon="3.148768041282892">
        <ele>65.989999999999995</ele>
        <time>2025-05-15T15:10:31Z</time>
      </trkpt>
      <trkpt lat="42.461558980867267" lon="3.148664021864533">
        <ele>66.469999999999999</ele>
        <time>2025-05-15T15:10:32Z</time>
      </trkpt>
      <trkpt lat="42.461670963093638" lon="3.14857198856771">
        <ele>66.469999999999999</ele>
        <time>2025-05-15T15:10:33Z</time>
      </trkpt>
      <trkpt lat="42.461751010268927" lon="3.14850602298975">
        <ele>66.950000000000003</ele>
        <time>2025-05-15T15:10:34Z</time>
      </trkpt>
      <trkpt lat="42.461857963353395" lon="3.14850602298975">
        <ele>66.950000000000003</ele>
        <time>2025-05-15T15:10:35Z</time>
      </trkpt>
      <trkpt lat="42.461916971951723" lon="3.148553967475891">
        <ele>66.950000000000003</ele>
        <time>2025-05-15T15:10:36Z</time>
      </trkpt>
      <trkpt lat="42.461986960843205" lon="3.148630997166038">
        <ele>66.950000000000003</ele>
        <time>2025-05-15T15:10:37Z</time>
      </trkpt>
      <trkpt lat="42.461986960843205" lon="3.148769969120622">
        <ele>66.950000000000003</ele>
        <time>2025-05-15T15:10:38Z</time>
      </trkpt>
      <trkpt lat="42.461965000256896" lon="3.148925034329295">
        <ele>66.950000000000003</ele>
        <time>2025-05-15T15:10:39Z</time>
      </trkpt>
      <trkpt lat="42.461939016357064" lon="3.149084039032459">
        <ele>67.430000000000007</ele>
        <time>2025-05-15T15:10:40Z</time>
      </trkpt>
      <trkpt lat="42.461913032457232" lon="3.149245977401733">
        <ele>67.430000000000007</ele>
        <time>2025-05-15T15:10:41Z</time>
      </trkpt>
      <trkpt lat="42.461938010528684" lon="3.149382015690208">
        <ele>67.909999999999997</ele>
        <time>2025-05-15T15:10:42Z</time>
      </trkpt>
      <trkpt lat="42.462009005248547" lon="3.149501038715243">
        <ele>68.390000000000001</ele>
        <time>2025-05-15T15:10:43Z</time>
      </trkpt>
      <trkpt lat="42.462110007181764" lon="3.149575972929597">
        <ele>68.870000000000005</ele>
        <time>2025-05-15T15:10:44Z</time>
      </trkpt>
      <trkpt lat="42.46223296970129" lon="3.149636993184686">
        <ele>69.829999999999998</ele>
        <time>2025-05-15T15:10:45Z</time>
      </trkpt>
      <trkpt lat="42.462354004383087" lon="3.149698013439775">
        <ele>70.310000000000002</ele>
        <time>2025-05-15T15:10:46Z</time>
      </trkpt>
      <trkpt lat="42.462477972730994" lon="3.149770013988018">
        <ele>71.269999999999996</ele>
        <time>2025-05-15T15:10:47Z</time>
      </trkpt>
      <trkpt lat="42.462588027119637" lon="3.149878978729248">
        <ele>72.239999999999995</ele>
        <time>2025-05-15T15:10:48Z</time>
      </trkpt>
      <trkpt lat="42.462673019617796" lon="3.150049969553947">
        <ele>72.719999999999999</ele>
        <time>2025-05-15T15:10:49Z</time>
      </trkpt>
      <trkpt lat="42.462761029601097" lon="3.150232024490833">
        <ele>73.680000000000007</ele>
        <time>2025-05-15T15:10:50Z</time>
      </trkpt>
      <trkpt lat="42.462849039584398" lon="3.150421036407352">
        <ele>74.640000000000001</ele>
        <time>2025-05-15T15:10:51Z</time>
      </trkpt>
      <trkpt lat="42.463036961853504" lon="3.150804005563259">
        <ele>76.560000000000002</ele>
        <time>2025-05-15T15:10:53Z</time>
      </trkpt>
      <trkpt lat="42.463167971000075" lon="3.150962004438043">
        <ele>77.040000000000006</ele>
        <time>2025-05-15T15:10:54Z</time>
      </trkpt>
      <trkpt lat="42.463323958218098" lon="3.151099970564246">
        <ele>78</ele>
        <time>2025-05-15T15:10:55Z</time>
      </trkpt>
      <trkpt lat="42.463659988716245" lon="3.151291999965906">
        <ele>79.450000000000003</ele>
        <time>2025-05-15T15:10:57Z</time>
      </trkpt>
      <trkpt lat="42.463838020339608" lon="3.151358971372247">
        <ele>80.409999999999997</ele>
        <time>2025-05-15T15:10:58Z</time>
      </trkpt>
      <trkpt lat="42.464022003114223" lon="3.151397025212646">
        <ele>81.370000000000005</ele>
        <time>2025-05-15T15:10:59Z</time>
      </trkpt>
      <trkpt lat="42.464722981676459" lon="3.151444969698787">
        <ele>85.209999999999994</ele>
        <time>2025-05-15T15:11:03Z</time>
      </trkpt>
      <trkpt lat="42.464866982772946" lon="3.151422003284097">
        <ele>85.689999999999998</ele>
        <time>2025-05-15T15:11:04Z</time>
      </trkpt>
      <trkpt lat="42.464987011626363" lon="3.151356959715486">
        <ele>86.180000000000007</ele>
        <time>2025-05-15T15:11:05Z</time>
      </trkpt>
      <trkpt lat="42.465092958882451" lon="3.151299962773919">
        <ele>87.140000000000001</ele>
        <time>2025-05-15T15:11:06Z</time>
      </trkpt>
      <trkpt lat="42.465192032977939" lon="3.15127900801599">
        <ele>87.620000000000005</ele>
        <time>2025-05-15T15:11:07Z</time>
      </trkpt>
      <trkpt lat="42.465294040739536" lon="3.151288982480764">
        <ele>88.099999999999994</ele>
        <time>2025-05-15T15:11:08Z</time>
      </trkpt>
      <trkpt lat="42.465379033237696" lon="3.151346985250711">
        <ele>88.579999999999998</ele>
        <time>2025-05-15T15:11:09Z</time>
      </trkpt>
      <trkpt lat="42.465431001037359" lon="3.151459973305464">
        <ele>89.060000000000002</ele>
        <time>2025-05-15T15:11:10Z</time>
      </trkpt>
      <trkpt lat="42.465446004644036" lon="3.151615960523486">
        <ele>89.540000000000006</ele>
        <time>2025-05-15T15:11:11Z</time>
      </trkpt>
      <trkpt lat="42.465410968288779" lon="3.151792986318469">
        <ele>90.5</ele>
        <time>2025-05-15T15:11:12Z</time>
      </trkpt>
      <trkpt lat="42.465366963297129" lon="3.15198702737689">
        <ele>90.980000000000004</ele>
        <time>2025-05-15T15:11:13Z</time>
      </trkpt>
      <trkpt lat="42.465294962748885" lon="3.152166986837983">
        <ele>91.459999999999994</ele>
        <time>2025-05-15T15:11:14Z</time>
      </trkpt>
      <trkpt lat="42.465220028534532" lon="3.15235298126936">
        <ele>92.420000000000002</ele>
        <time>2025-05-15T15:11:15Z</time>
      </trkpt>
      <trkpt lat="42.465121960267425" lon="3.15252497792244">
        <ele>92.900000000000006</ele>
        <time>2025-05-15T15:11:16Z</time>
      </trkpt>
      <trkpt lat="42.465020036324859" lon="3.152690017595887">
        <ele>93.390000000000001</ele>
        <time>2025-05-15T15:11:17Z</time>
      </trkpt>
      <trkpt lat="42.464926997199655" lon="3.152839969843626">
        <ele>94.349999999999994</ele>
        <time>2025-05-15T15:11:18Z</time>
      </trkpt>
      <trkpt lat="42.464880980551243" lon="3.153058988973498">
        <ele>95.310000000000002</ele>
        <time>2025-05-15T15:11:19Z</time>
      </trkpt>
      <trkpt lat="42.464840998873115" lon="3.153248000890017">
        <ele>96.269999999999996</ele>
        <time>2025-05-15T15:11:20Z</time>
      </trkpt>
      <trkpt lat="42.464882992208004" lon="3.15349099226296">
        <ele>96.75</ele>
        <time>2025-05-15T15:11:21Z</time>
      </trkpt>
      <trkpt lat="42.464922973886132" lon="3.153721997514367">
        <ele>97.709999999999994</ele>
        <time>2025-05-15T15:11:22Z</time>
      </trkpt>
      <trkpt lat="42.464963961392641" lon="3.153958031907678">
        <ele>98.670000000000002</ele>
        <time>2025-05-15T15:11:23Z</time>
      </trkpt>
      <trkpt lat="42.465183986350894" lon="3.154825977981091">
        <ele>102.04000000000001</ele>
        <time>2025-05-15T15:11:27Z</time>
      </trkpt>
      <trkpt lat="42.465265039354563" lon="3.154980037361383">
        <ele>103</ele>
        <time>2025-05-15T15:11:28Z</time>
      </trkpt>
      <trkpt lat="42.465372998267412" lon="3.155126972123981">
        <ele>103.95999999999999</ele>
        <time>2025-05-15T15:11:29Z</time>
      </trkpt>
      <trkpt lat="42.465479029342532" lon="3.155270973220468">
        <ele>104.44</ele>
        <time>2025-05-15T15:11:30Z</time>
      </trkpt>
      <trkpt lat="42.465607021003962" lon="3.155368035659194">
        <ele>105.40000000000001</ele>
        <time>2025-05-15T15:11:31Z</time>
      </trkpt>
      <trkpt lat="42.465738030150533" lon="3.15544699318707">
        <ele>106.36</ele>
        <time>2025-05-15T15:11:32Z</time>
      </trkpt>
      <trkpt lat="42.465871972963214" lon="3.155494015663862">
        <ele>106.84</ele>
        <time>2025-05-15T15:11:33Z</time>
      </trkpt>
      <trkpt lat="42.466017985716462" lon="3.155469037592411">
        <ele>108.29000000000001</ele>
        <time>2025-05-15T15:11:34Z</time>
      </trkpt>
      <trkpt lat="42.466160980984569" lon="3.155401982367039">
        <ele>109.25</ele>
        <time>2025-05-15T15:11:35Z</time>
      </trkpt>
      <trkpt lat="42.466300036758184" lon="3.155299974605441">
        <ele>110.20999999999999</ele>
        <time>2025-05-15T15:11:36Z</time>
      </trkpt>
      <trkpt lat="42.466440014541149" lon="3.155196039006114">
        <ele>111.17</ele>
        <time>2025-05-15T15:11:37Z</time>
      </trkpt>
      <trkpt lat="42.466569012030959" lon="3.155100988224149">
        <ele>112.13</ele>
        <time>2025-05-15T15:11:38Z</time>
      </trkpt>
      <trkpt lat="42.466703960672021" lon="3.155115991830826">
        <ele>112.61</ele>
        <time>2025-05-15T15:11:39Z</time>
      </trkpt>
      <trkpt lat="42.466832036152482" lon="3.155149016529322">
        <ele>113.56999999999999</ele>
        <time>2025-05-15T15:11:40Z</time>
      </trkpt>
      <trkpt lat="42.466959021985531" lon="3.155243983492255">
        <ele>114.05</ele>
        <time>2025-05-15T15:11:41Z</time>
      </trkpt>
      <trkpt lat="42.467090031132102" lon="3.155353032052517">
        <ele>115.01000000000001</ele>
        <time>2025-05-15T15:11:42Z</time>
      </trkpt>
      <trkpt lat="42.467219028621912" lon="3.155464008450508">
        <ele>115.5</ele>
        <time>2025-05-15T15:11:43Z</time>
      </trkpt>
      <trkpt lat="42.467342996969819" lon="3.155570039525628">
        <ele>115.98</ele>
        <time>2025-05-15T15:11:44Z</time>
      </trkpt>
      <trkpt lat="42.46745003387332" lon="3.155651008710265">
        <ele>116.45999999999999</ele>
        <time>2025-05-15T15:11:45Z</time>
      </trkpt>
      <trkpt lat="42.46756000444293" lon="3.155651008710265">
        <ele>117.42</ele>
        <time>2025-05-15T15:11:46Z</time>
      </trkpt>
      <trkpt lat="42.467640973627567" lon="3.155598035082221">
        <ele>117.90000000000001</ele>
        <time>2025-05-15T15:11:47Z</time>
      </trkpt>
      <trkpt lat="42.467718003317714" lon="3.155513964593411">
        <ele>118.38</ele>
        <time>2025-05-15T15:11:48Z</time>
      </trkpt>
      <trkpt lat="42.467761002480984" lon="3.155357977375388">
        <ele>118.86</ele>
        <time>2025-05-15T15:11:49Z</time>
      </trkpt>
      <trkpt lat="42.467781035229564" lon="3.155190004035831">
        <ele>119.34</ele>
        <time>2025-05-15T15:11:50Z</time>
      </trkpt>
      <trkpt lat="42.467781035229564" lon="3.154984982684255">
        <ele>119.81999999999999</ele>
        <time>2025-05-15T15:11:51Z</time>
      </trkpt>
      <trkpt lat="42.467781035229564" lon="3.154761018231511">
        <ele>120.3</ele>
        <time>2025-05-15T15:11:52Z</time>
      </trkpt>
      <trkpt lat="42.467781035229564" lon="3.154085017740727">
        <ele>120.78</ele>
        <time>2025-05-15T15:11:55Z</time>
      </trkpt>
      <trkpt lat="42.467858986929059" lon="3.153847977519035">
        <ele>120.78</ele>
        <time>2025-05-15T15:11:56Z</time>
      </trkpt>
      <trkpt lat="42.467927969992161" lon="3.153675980865955">
        <ele>120.78</ele>
        <time>2025-05-15T15:11:57Z</time>
      </trkpt>
      <trkpt lat="42.468041041865945" lon="3.153543965891004">
        <ele>120.78</ele>
        <time>2025-05-15T15:11:58Z</time>
      </trkpt>
      <trkpt lat="42.468155035749078" lon="3.153409017249942">
        <ele>120.3</ele>
        <time>2025-05-15T15:11:59Z</time>
      </trkpt>
      <trkpt lat="42.468262994661927" lon="3.153283037245274">
        <ele>120.3</ele>
        <time>2025-05-15T15:12:00Z</time>
      </trkpt>
      <trkpt lat="42.468329966068268" lon="3.153135012835264">
        <ele>120.3</ele>
        <time>2025-05-15T15:12:01Z</time>
      </trkpt>
      <trkpt lat="42.468391992151737" lon="3.152983970940113">
        <ele>120.3</ele>
        <time>2025-05-15T15:12:02Z</time>
      </trkpt>
      <trkpt lat="42.468417976051569" lon="3.152821026742458">
        <ele>120.78</ele>
        <time>2025-05-15T15:12:03Z</time>
      </trkpt>
      <trkpt lat="42.468403978273273" lon="3.152641989290714">
        <ele>120.78</ele>
        <time>2025-05-15T15:12:04Z</time>
      </trkpt>
      <trkpt lat="42.46835402213037" lon="3.152469992637634">
        <ele>120.78</ele>
        <time>2025-05-15T15:12:05Z</time>
      </trkpt>
      <trkpt lat="42.468294007703662" lon="3.152280980721116">
        <ele>120.78</ele>
        <time>2025-05-15T15:12:06Z</time>
      </trkpt>
      <trkpt lat="42.468266012147069" lon="3.152083000168204">
        <ele>119.81999999999999</ele>
        <time>2025-05-15T15:12:07Z</time>
      </trkpt>
      <trkpt lat="42.468255031853914" lon="3.151908991858363">
        <ele>119.34</ele>
        <time>2025-05-15T15:12:08Z</time>
      </trkpt>
      <trkpt lat="42.468316974118352" lon="3.151788963004947">
        <ele>118.86</ele>
        <time>2025-05-15T15:12:09Z</time>
      </trkpt>
      <trkpt lat="42.468404984101653" lon="3.151672035455704">
        <ele>118.38</ele>
        <time>2025-05-15T15:12:10Z</time>
      </trkpt>
      <trkpt lat="42.468492994084954" lon="3.151555024087429">
        <ele>117.90000000000001</ele>
        <time>2025-05-15T15:12:11Z</time>
      </trkpt>
      <trkpt lat="42.468553008511662" lon="3.151413034647703">
        <ele>116.94</ele>
        <time>2025-05-15T15:12:12Z</time>
      </trkpt>
      <trkpt lat="42.46859097853303" lon="3.151267021894455">
        <ele>116.45999999999999</ele>
        <time>2025-05-15T15:12:13Z</time>
      </trkpt>
      <trkpt lat="42.468564994633198" lon="3.151112040504813">
        <ele>115.5</ele>
        <time>2025-05-15T15:12:14Z</time>
      </trkpt>
      <trkpt lat="42.468535993248224" lon="3.150937026366592">
        <ele>115.01000000000001</ele>
        <time>2025-05-15T15:12:15Z</time>
      </trkpt>
      <trkpt lat="42.468510009348392" lon="3.150780033320189">
        <ele>114.53</ele>
        <time>2025-05-15T15:12:16Z</time>
      </trkpt>
      <trkpt lat="42.468510009348392" lon="3.15057098865509">
        <ele>114.05</ele>
        <time>2025-05-15T15:12:17Z</time>
      </trkpt>
      <trkpt lat="42.46856801211834" lon="3.150410978123546">
        <ele>113.09</ele>
        <time>2025-05-15T15:12:18Z</time>
      </trkpt>
      <trkpt lat="42.468667002394795" lon="3.150287009775639">
        <ele>112.61</ele>
        <time>2025-05-15T15:12:19Z</time>
      </trkpt>
      <trkpt lat="42.468779990449548" lon="3.150157006457448">
        <ele>112.13</ele>
        <time>2025-05-15T15:12:20Z</time>
      </trkpt>
      <trkpt lat="42.468907982110977" lon="3.150061033666134">
        <ele>111.65000000000001</ele>
        <time>2025-05-15T15:12:21Z</time>
      </trkpt>
      <trkpt lat="42.469050977379084" lon="3.150030020624399">
        <ele>110.69</ele>
        <time>2025-05-15T15:12:22Z</time>
      </trkpt>
      <trkpt lat="42.469182992354035" lon="3.149973023682833">
        <ele>110.20999999999999</ele>
        <time>2025-05-15T15:12:23Z</time>
      </trkpt>
      <trkpt lat="42.46927997097373" lon="3.1498590297997">
        <ele>109.25</ele>
        <time>2025-05-15T15:12:24Z</time>
      </trkpt>
      <trkpt lat="42.469390025362372" lon="3.149729026481509">
        <ele>108.29000000000001</ele>
        <time>2025-05-15T15:12:25Z</time>
      </trkpt>
      <trkpt lat="42.469505025073886" lon="3.149659959599376">
        <ele>107.81</ele>
        <time>2025-05-15T15:12:26Z</time>
      </trkpt>
      <trkpt lat="42.469642991200089" lon="3.149576978757978">
        <ele>106.84</ele>
        <time>2025-05-15T15:12:27Z</time>
      </trkpt>
      <trkpt lat="42.46977299451828" lon="3.149459967389703">
        <ele>105.88</ele>
        <time>2025-05-15T15:12:28Z</time>
      </trkpt>
      <trkpt lat="42.469882965087891" lon="3.149320995435119">
        <ele>105.40000000000001</ele>
        <time>2025-05-15T15:12:29Z</time>
      </trkpt>
      <trkpt lat="42.469978015869856" lon="3.149154027923942">
        <ele>104.92</ele>
        <time>2025-05-15T15:12:30Z</time>
      </trkpt>
      <trkpt lat="42.47000802308321" lon="3.148954035714269">
        <ele>104.44</ele>
        <time>2025-05-15T15:12:31Z</time>
      </trkpt>
      <trkpt lat="42.470036018639803" lon="3.148758988827467">
        <ele>103.95999999999999</ele>
        <time>2025-05-15T15:12:32Z</time>
      </trkpt>
      <trkpt lat="42.470063008368015" lon="3.148577017709613">
        <ele>103.95999999999999</ele>
        <time>2025-05-15T15:12:33Z</time>
      </trkpt>
      <trkpt lat="42.470120005309582" lon="3.148435028269887">
        <ele>103</ele>
        <time>2025-05-15T15:12:34Z</time>
      </trkpt>
      <trkpt lat="42.470211032778025" lon="3.148331008851528">
        <ele>102.52</ele>
        <time>2025-05-15T15:12:35Z</time>
      </trkpt>
      <trkpt lat="42.470327960327268" lon="3.148290021345019">
        <ele>102.52</ele>
        <time>2025-05-15T15:12:36Z</time>
      </trkpt>
      <trkpt lat="42.470462992787361" lon="3.14829396083951">
        <ele>101.56</ele>
        <time>2025-05-15T15:12:37Z</time>
      </trkpt>
      <trkpt lat="42.470597019419074" lon="3.148370990529656">
        <ele>101.08</ele>
        <time>2025-05-15T15:12:38Z</time>
      </trkpt>
      <trkpt lat="42.470743032172322" lon="3.148445002734661">
        <ele>100.11</ele>
        <time>2025-05-15T15:12:39Z</time>
      </trkpt>
      <trkpt lat="42.470905976369977" lon="3.148468974977732">
        <ele>99.150000000000006</ele>
        <time>2025-05-15T15:12:40Z</time>
      </trkpt>
      <trkpt lat="42.471065986901522" lon="3.148493031039834">
        <ele>98.189999999999998</ele>
        <time>2025-05-15T15:12:41Z</time>
      </trkpt>
      <trkpt lat="42.471209987998009" lon="3.148548016324639">
        <ele>97.709999999999994</ele>
        <time>2025-05-15T15:12:42Z</time>
      </trkpt>
      <trkpt lat="42.471325993537903" lon="3.148627979680896">
        <ele>96.75</ele>
        <time>2025-05-15T15:12:43Z</time>
      </trkpt>
      <trkpt lat="42.471435964107513" lon="3.148696962743998">
        <ele>95.790000000000006</ele>
        <time>2025-05-15T15:12:44Z</time>
      </trkpt>
      <trkpt lat="42.471550963819027" lon="3.148662010207772">
        <ele>94.829999999999998</ele>
        <time>2025-05-15T15:12:45Z</time>
      </trkpt>
      <trkpt lat="42.471647020429373" lon="3.148566037416458">
        <ele>94.349999999999994</ele>
        <time>2025-05-15T15:12:46Z</time>
      </trkpt>
      <trkpt lat="42.471745004877448" lon="3.148437039926648">
        <ele>93.870000000000005</ele>
        <time>2025-05-15T15:12:47Z</time>
      </trkpt>
      <trkpt lat="42.471851035952568" lon="3.148290021345019">
        <ele>92.900000000000006</ele>
        <time>2025-05-15T15:12:48Z</time>
      </trkpt>
      <trkpt lat="42.472080029547215" lon="3.147973017767072">
        <ele>91.459999999999994</ele>
        <time>2025-05-15T15:12:50Z</time>
      </trkpt>
      <trkpt lat="42.472185976803303" lon="3.147825999185443">
        <ele>90.5</ele>
        <time>2025-05-15T15:12:51Z</time>
      </trkpt>
      <trkpt lat="42.472289996221662" lon="3.147761961445212">
        <ele>89.540000000000006</ele>
        <time>2025-05-15T15:12:52Z</time>
      </trkpt>
      <trkpt lat="42.472389992326498" lon="3.147741006687284">
        <ele>88.579999999999998</ele>
        <time>2025-05-15T15:12:53Z</time>
      </trkpt>
      <trkpt lat="42.472492000088096" lon="3.147718962281942">
        <ele>88.099999999999994</ele>
        <time>2025-05-15T15:12:54Z</time>
      </trkpt>
      <trkpt lat="42.472600964829326" lon="3.147695995867252">
        <ele>87.620000000000005</ele>
        <time>2025-05-15T15:12:55Z</time>
      </trkpt>
      <trkpt lat="42.472680006176233" lon="3.147616032510996">
        <ele>86.659999999999997</ele>
        <time>2025-05-15T15:12:56Z</time>
      </trkpt>
      <trkpt lat="42.47276097536087" lon="3.147492986172438">
        <ele>86.180000000000007</ele>
        <time>2025-05-15T15:12:57Z</time>
      </trkpt>
      <trkpt lat="42.472844962030649" lon="3.147359965369105">
        <ele>85.689999999999998</ele>
        <time>2025-05-15T15:12:58Z</time>
      </trkpt>
      <trkpt lat="42.472927020862699" lon="3.147224010899663">
        <ele>84.730000000000004</ele>
        <time>2025-05-15T15:12:59Z</time>
      </trkpt>
      <trkpt lat="42.47306096367538" lon="3.147158967331052">
        <ele>84.25</ele>
        <time>2025-05-15T15:13:00Z</time>
      </trkpt>
      <trkpt lat="42.473191972821951" lon="3.147099036723375">
        <ele>83.769999999999996</ele>
        <time>2025-05-15T15:13:01Z</time>
      </trkpt>
      <trkpt lat="42.473329016938806" lon="3.147037010639906">
        <ele>83.290000000000006</ele>
        <time>2025-05-15T15:13:02Z</time>
      </trkpt>
      <trkpt lat="42.473462959751487" lon="3.146942965686321">
        <ele>82.329999999999998</ele>
        <time>2025-05-15T15:13:03Z</time>
      </trkpt>
      <trkpt lat="42.473566979169846" lon="3.14678899012506">
        <ele>81.370000000000005</ele>
        <time>2025-05-15T15:13:04Z</time>
      </trkpt>
      <trkpt lat="42.473643003031611" lon="3.146602995693684">
        <ele>80.890000000000001</ele>
        <time>2025-05-15T15:13:05Z</time>
      </trkpt>
      <trkpt lat="42.473684996366501" lon="3.14640099182725">
        <ele>80.409999999999997</ele>
        <time>2025-05-15T15:13:06Z</time>
      </trkpt>
      <trkpt lat="42.473692037165165" lon="3.146181972697377">
        <ele>79.930000000000007</ele>
        <time>2025-05-15T15:13:07Z</time>
      </trkpt>
      <trkpt lat="42.473698994144797" lon="3.145968988537788">
        <ele>79.450000000000003</ele>
        <time>2025-05-15T15:13:08Z</time>
      </trkpt>
      <trkpt lat="42.473722966387868" lon="3.145752986893058">
        <ele>78.480000000000004</ele>
        <time>2025-05-15T15:13:09Z</time>
      </trkpt>
      <trkpt lat="42.473796978592873" lon="3.145570009946823">
        <ele>78</ele>
        <time>2025-05-15T15:13:10Z</time>
      </trkpt>
      <trkpt lat="42.473960006609559" lon="3.145308997482061">
        <ele>77.040000000000006</ele>
        <time>2025-05-15T15:13:12Z</time>
      </trkpt>
      <trkpt lat="42.473978027701378" lon="3.145162984728813">
        <ele>76.560000000000002</ele>
        <time>2025-05-15T15:13:13Z</time>
      </trkpt>
      <trkpt lat="42.474003005772829" lon="3.144943965598941">
        <ele>76.079999999999998</ele>
        <time>2025-05-15T15:13:14Z</time>
      </trkpt>
      <trkpt lat="42.473955983296037" lon="3.14483298920095">
        <ele>75.599999999999994</ele>
        <time>2025-05-15T15:13:15Z</time>
      </trkpt>
      <trkpt lat="42.473882976919413" lon="3.144663004204631">
        <ele>74.640000000000001</ele>
        <time>2025-05-15T15:13:16Z</time>
      </trkpt>
      <trkpt lat="42.473799996078014" lon="3.144482960924506">
        <ele>74.159999999999997</ele>
        <time>2025-05-15T15:13:17Z</time>
      </trkpt>
      <trkpt lat="42.473679967224598" lon="3.144362010061741">
        <ele>73.200000000000003</ele>
        <time>2025-05-15T15:13:18Z</time>
      </trkpt>
      <trkpt lat="42.473579971119761" lon="3.144224965944886">
        <ele>72.719999999999999</ele>
        <time>2025-05-15T15:13:19Z</time>
      </trkpt>
      <trkpt lat="42.473521968349814" lon="3.14408197067678">
        <ele>71.760000000000005</ele>
        <time>2025-05-15T15:13:20Z</time>
      </trkpt>
      <trkpt lat="42.47348802164197" lon="3.143913997337222">
        <ele>70.790000000000006</ele>
        <time>2025-05-15T15:13:21Z</time>
      </trkpt>
      <trkpt lat="42.47351199388504" lon="3.143749041482806">
        <ele>69.829999999999998</ele>
        <time>2025-05-15T15:13:22Z</time>
      </trkpt>
      <trkpt lat="42.473540995270014" lon="3.143546031787992">
        <ele>69.349999999999994</ele>
        <time>2025-05-15T15:13:23Z</time>
      </trkpt>
      <trkpt lat="42.473603021353483" lon="3.143357019871473">
        <ele>68.870000000000005</ele>
        <time>2025-05-15T15:13:24Z</time>
      </trkpt>
      <trkpt lat="42.473687008023262" lon="3.143180999904871">
        <ele>67.909999999999997</ele>
        <time>2025-05-15T15:13:25Z</time>
      </trkpt>
      <trkpt lat="42.473772000521421" lon="3.143001962453127">
        <ele>67.430000000000007</ele>
        <time>2025-05-15T15:13:26Z</time>
      </trkpt>
      <trkpt lat="42.4738559871912" lon="3.142826026305556">
        <ele>66.950000000000003</ele>
        <time>2025-05-15T15:13:27Z</time>
      </trkpt>
      <trkpt lat="42.473935028538108" lon="3.142660986632109">
        <ele>66.469999999999999</ele>
        <time>2025-05-15T15:13:28Z</time>
      </trkpt>
      <trkpt lat="42.474032007157803" lon="3.142524026334286">
        <ele>65.989999999999995</ele>
        <time>2025-05-15T15:13:29Z</time>
      </trkpt>
      <trkpt lat="42.474158992990851" lon="3.142430987209082">
        <ele>65.989999999999995</ele>
        <time>2025-05-15T15:13:30Z</time>
      </trkpt>
      <trkpt lat="42.474309029057622" lon="3.142374996095896">
        <ele>65.510000000000005</ele>
        <time>2025-05-15T15:13:31Z</time>
      </trkpt>
      <trkpt lat="42.474464010447264" lon="3.142316993325949">
        <ele>65.030000000000001</ele>
        <time>2025-05-15T15:13:32Z</time>
      </trkpt>
      <trkpt lat="42.474614968523383" lon="3.142259996384382">
        <ele>64.549999999999997</ele>
        <time>2025-05-15T15:13:33Z</time>
      </trkpt>
      <trkpt lat="42.474741032347083" lon="3.142178021371365">
        <ele>64.069999999999993</ele>
        <time>2025-05-15T15:13:34Z</time>
      </trkpt>
      <trkpt lat="42.474946975708008" lon="3.142002001404762">
        <ele>62.619999999999997</ele>
        <time>2025-05-15T15:13:36Z</time>
      </trkpt>
      <trkpt lat="42.475060969591141" lon="3.142028991132975">
        <ele>62.140000000000001</ele>
        <time>2025-05-15T15:13:37Z</time>
      </trkpt>
      <trkpt lat="42.475168006494641" lon="3.142081964761019">
        <ele>61.18</ele>
        <time>2025-05-15T15:13:38Z</time>
      </trkpt>
      <trkpt lat="42.475286023691297" lon="3.142140973359346">
        <ele>61.18</ele>
        <time>2025-05-15T15:13:39Z</time>
      </trkpt>
      <trkpt lat="42.475409992039204" lon="3.142153965309262">
        <ele>60.700000000000003</ele>
        <time>2025-05-15T15:13:40Z</time>
      </trkpt>
      <trkpt lat="42.475525997579098" lon="3.142133010551333">
        <ele>60.219999999999999</ele>
        <time>2025-05-15T15:13:41Z</time>
      </trkpt>
      <trkpt lat="42.475635968148708" lon="3.142062015831471">
        <ele>59.740000000000002</ele>
        <time>2025-05-15T15:13:42Z</time>
      </trkpt>
      <trkpt lat="42.47572397813201" lon="3.141955984756351">
        <ele>59.259999999999998</ele>
        <time>2025-05-15T15:13:43Z</time>
      </trkpt>
      <trkpt lat="42.475804025307298" lon="3.141860011965036">
        <ele>58.780000000000001</ele>
        <time>2025-05-15T15:13:44Z</time>
      </trkpt>
      <trkpt lat="42.475877031683922" lon="3.141820030286908">
        <ele>58.780000000000001</ele>
        <time>2025-05-15T15:13:45Z</time>
      </trkpt>
      <trkpt lat="42.475946014747024" lon="3.141823969781399">
        <ele>58.780000000000001</ele>
        <time>2025-05-15T15:13:46Z</time>
      </trkpt>
      <trkpt lat="42.476023966446519" lon="3.141864035278559">
        <ele>58.299999999999997</ele>
        <time>2025-05-15T15:13:47Z</time>
      </trkpt>
      <trkpt lat="42.476065037772059" lon="3.141971994191408">
        <ele>58.299999999999997</ele>
        <time>2025-05-15T15:13:48Z</time>
      </trkpt>
      <trkpt lat="42.476088004186749" lon="3.142114989459515">
        <ele>57.82</ele>
        <time>2025-05-15T15:13:49Z</time>
      </trkpt>
      <trkpt lat="42.476117005571723" lon="3.142292015254498">
        <ele>57.340000000000003</ele>
        <time>2025-05-15T15:13:50Z</time>
      </trkpt>
      <trkpt lat="42.476201998069882" lon="3.14281496219337">
        <ele>55.890000000000001</ele>
        <time>2025-05-15T15:13:53Z</time>
      </trkpt>
      <trkpt lat="42.476255977526307" lon="3.142939014360309">
        <ele>55.409999999999997</ele>
        <time>2025-05-15T15:13:54Z</time>
      </trkpt>
      <trkpt lat="42.476333007216454" lon="3.143038004636765">
        <ele>55.409999999999997</ele>
        <time>2025-05-15T15:13:55Z</time>
      </trkpt>
      <trkpt lat="42.476431997492909" lon="3.143090978264809">
        <ele>54.93</ele>
        <time>2025-05-15T15:13:56Z</time>
      </trkpt>
      <trkpt lat="42.476556971669197" lon="3.143115034326911">
        <ele>54.93</ele>
        <time>2025-05-15T15:13:57Z</time>
      </trkpt>
      <trkpt lat="42.476684041321278" lon="3.143077986314893">
        <ele>54.450000000000003</ele>
        <time>2025-05-15T15:13:58Z</time>
      </trkpt>
      <trkpt lat="42.476807003840804" lon="3.143021995201707">
        <ele>53.969999999999999</ele>
        <time>2025-05-15T15:13:59Z</time>
      </trkpt>
      <trkpt lat="42.476916974410415" lon="3.142928034067154">
        <ele>53.969999999999999</ele>
        <time>2025-05-15T15:14:00Z</time>
      </trkpt>
      <trkpt lat="42.477006996050477" lon="3.142788978293538">
        <ele>53.490000000000002</ele>
        <time>2025-05-15T15:14:01Z</time>
      </trkpt>
      <trkpt lat="42.477072039619088" lon="3.142635002732277">
        <ele>53.490000000000002</ele>
        <time>2025-05-15T15:14:02Z</time>
      </trkpt>
      <trkpt lat="42.477117972448468" lon="3.142467029392719">
        <ele>53.009999999999998</ele>
        <time>2025-05-15T15:14:03Z</time>
      </trkpt>
      <trkpt lat="42.477158037945628" lon="3.142325961962342">
        <ele>52.530000000000001</ele>
        <time>2025-05-15T15:14:04Z</time>
      </trkpt>
      <trkpt lat="42.477230960503221" lon="3.142180033028126">
        <ele>52.049999999999997</ele>
        <time>2025-05-15T15:14:05Z</time>
      </trkpt>
      <trkpt lat="42.477311007678509" lon="3.142098980024457">
        <ele>51.57</ele>
        <time>2025-05-15T15:14:06Z</time>
      </trkpt>
      <trkpt lat="42.477412009611726" lon="3.142070984467864">
        <ele>51.090000000000003</ele>
        <time>2025-05-15T15:14:07Z</time>
      </trkpt>
      <trkpt lat="42.477508988231421" lon="3.142051035538316">
        <ele>50.609999999999999</ele>
        <time>2025-05-15T15:14:08Z</time>
      </trkpt>
      <trkpt lat="42.477603033185005" lon="3.142097974196076">
        <ele>50.130000000000003</ele>
        <time>2025-05-15T15:14:09Z</time>
      </trkpt>
      <trkpt lat="42.477703029289842" lon="3.142148014158011">
        <ele>49.649999999999999</ele>
        <time>2025-05-15T15:14:10Z</time>
      </trkpt>
      <trkpt lat="42.477782992646098" lon="3.142242981120944">
        <ele>48.68</ele>
        <time>2025-05-15T15:14:11Z</time>
      </trkpt>
      <trkpt lat="42.47782900929451" lon="3.142369966953993">
        <ele>47.719999999999999</ele>
        <time>2025-05-15T15:14:12Z</time>
      </trkpt>
      <trkpt lat="42.477878965437412" lon="3.142506005242467">
        <ele>47.240000000000002</ele>
        <time>2025-05-15T15:14:13Z</time>
      </trkpt>
      <trkpt lat="42.477925987914205" lon="3.142637014389038">
        <ele>46.280000000000001</ele>
        <time>2025-05-15T15:14:14Z</time>
      </trkpt>
      <trkpt lat="42.478005029261112" lon="3.142712032422423">
        <ele>45.32</ele>
        <time>2025-05-15T15:14:15Z</time>
      </trkpt>
      <trkpt lat="42.478095972910523" lon="3.142765006050468">
        <ele>44.840000000000003</ele>
        <time>2025-05-15T15:14:16Z</time>
      </trkpt>
      <trkpt lat="42.478165961802006" lon="3.142712032422423">
        <ele>43.880000000000003</ele>
        <time>2025-05-15T15:14:17Z</time>
      </trkpt>
      <trkpt lat="42.478251960128546" lon="3.142647994682193">
        <ele>43.399999999999999</ele>
        <time>2025-05-15T15:14:18Z</time>
      </trkpt>
      <trkpt lat="42.478318009525537" lon="3.142564008012414">
        <ele>42.920000000000002</ele>
        <time>2025-05-15T15:14:19Z</time>
      </trkpt>
      <trkpt lat="42.478400990366936" lon="3.142459988594055">
        <ele>42.920000000000002</ele>
        <time>2025-05-15T15:14:20Z</time>
      </trkpt>
      <trkpt lat="42.478489000350237" lon="3.142347000539303">
        <ele>42.439999999999998</ele>
        <time>2025-05-15T15:14:21Z</time>
      </trkpt>
      <trkpt lat="42.47858103364706" lon="3.142237029969692">
        <ele>41.950000000000003</ele>
        <time>2025-05-15T15:14:22Z</time>
      </trkpt>
      <trkpt lat="42.478703996166587" lon="3.142186990007758">
        <ele>41.469999999999999</ele>
        <time>2025-05-15T15:14:23Z</time>
      </trkpt>
      <trkpt lat="42.478828970342875" lon="3.142136028036475">
        <ele>40.990000000000002</ele>
        <time>2025-05-15T15:14:24Z</time>
      </trkpt>
      <trkpt lat="42.478952016681433" lon="3.142084982246161">
        <ele>40.509999999999998</ele>
        <time>2025-05-15T15:14:25Z</time>
      </trkpt>
      <trkpt lat="42.479068022221327" lon="3.142020022496581">
        <ele>40.030000000000001</ele>
        <time>2025-05-15T15:14:26Z</time>
      </trkpt>
      <trkpt lat="42.479158965870738" lon="3.141906028613448">
        <ele>39.07</ele>
        <time>2025-05-15T15:14:27Z</time>
      </trkpt>
      <trkpt lat="42.479228032752872" lon="3.141787005588412">
        <ele>38.590000000000003</ele>
        <time>2025-05-15T15:14:28Z</time>
      </trkpt>
      <trkpt lat="42.479258961975574" lon="3.141645016148686">
        <ele>38.109999999999999</ele>
        <time>2025-05-15T15:14:29Z</time>
      </trkpt>
      <trkpt lat="42.479250999167562" lon="3.141493974253535">
        <ele>37.630000000000003</ele>
        <time>2025-05-15T15:14:30Z</time>
      </trkpt>
      <trkpt lat="42.479240018874407" lon="3.141328012570739">
        <ele>36.670000000000002</ele>
        <time>2025-05-15T15:14:31Z</time>
      </trkpt>
      <trkpt lat="42.479239013046026" lon="3.141161967068911">
        <ele>36.189999999999998</ele>
        <time>2025-05-15T15:14:32Z</time>
      </trkpt>
      <trkpt lat="42.479239013046026" lon="3.140844963490963">
        <ele>34.740000000000002</ele>
        <time>2025-05-15T15:14:34Z</time>
      </trkpt>
      <trkpt lat="42.479259967803955" lon="3.140501976013184">
        <ele>32.340000000000003</ele>
        <time>2025-05-15T15:14:37Z</time>
      </trkpt>
      <trkpt lat="42.479202970862389" lon="3.140355963259935">
        <ele>31.859999999999999</ele>
        <time>2025-05-15T15:14:38Z</time>
      </trkpt>
      <trkpt lat="42.479158965870738" lon="3.140241969376802">
        <ele>31.379999999999999</ele>
        <time>2025-05-15T15:14:39Z</time>
      </trkpt>
      <trkpt lat="42.479114960879087" lon="3.14012898132205">
        <ele>30.420000000000002</ele>
        <time>2025-05-15T15:14:40Z</time>
      </trkpt>
      <trkpt lat="42.479073973372579" lon="3.140024961903691">
        <ele>28.98</ele>
        <time>2025-05-15T15:14:41Z</time>
      </trkpt>
      <trkpt lat="42.479093000292778" lon="3.139894036576152">
        <ele>27.530000000000001</ele>
        <time>2025-05-15T15:14:42Z</time>
      </trkpt>
      <trkpt lat="42.479143040254712" lon="3.139796974137425">
        <ele>26.09</ele>
        <time>2025-05-15T15:14:43Z</time>
      </trkpt>
      <trkpt lat="42.479216968640685" lon="3.139754980802536">
        <ele>24.649999999999999</ele>
        <time>2025-05-15T15:14:44Z</time>
      </trkpt>
      <trkpt lat="42.479314031079412" lon="3.139742994681001">
        <ele>23.210000000000001</ele>
        <time>2025-05-15T15:14:45Z</time>
      </trkpt>
      <trkpt lat="42.479412015527487" lon="3.139768978580833">
        <ele>22.25</ele>
        <time>2025-05-15T15:14:46Z</time>
      </trkpt>
      <trkpt lat="42.47950698249042" lon="3.139794040471315">
        <ele>20.809999999999999</ele>
        <time>2025-05-15T15:14:47Z</time>
      </trkpt>
      <trkpt lat="42.479748968034983" lon="3.139851959422231">
        <ele>17.440000000000001</ele>
        <time>2025-05-15T15:14:50Z</time>
      </trkpt>
      <trkpt lat="42.480010986328125" lon="3.139900993555784">
        <ele>14.08</ele>
        <time>2025-05-15T15:14:54Z</time>
      </trkpt>
      <trkpt lat="42.480139983817935" lon="3.140029991045594">
        <ele>14.08</ele>
        <time>2025-05-15T15:14:55Z</time>
      </trkpt>
      <trkpt lat="42.480207961052656" lon="3.139947010204196">
        <ele>13.6</ele>
        <time>2025-05-15T15:14:56Z</time>
      </trkpt>
      <trkpt lat="42.480119029060006" lon="3.139751041308045">
        <ele>13.6</ele>
        <time>2025-05-15T15:14:57Z</time>
      </trkpt>
      <trkpt lat="42.48010796494782" lon="3.139713993296027">
        <ele>13.6</ele>
        <time>2025-05-15T15:14:58Z</time>
      </trkpt>
      <trkpt lat="42.480081981047988" lon="3.139621037989855">
        <ele>13.6</ele>
        <time>2025-05-15T15:14:59Z</time>
      </trkpt>
      <trkpt lat="42.480003023520112" lon="3.139346027746797">
        <ele>12.630000000000001</ele>
        <time>2025-05-15T15:15:02Z</time>
      </trkpt>
      <trkpt lat="42.479996988549829" lon="3.139277966693044">
        <ele>12.15</ele>
        <time>2025-05-15T15:15:03Z</time>
      </trkpt>
      <trkpt lat="42.480028001591563" lon="3.139185011386871">
        <ele>11.67</ele>
        <time>2025-05-15T15:15:04Z</time>
      </trkpt>
      <trkpt lat="42.480060020461679" lon="3.139099013060331">
        <ele>11.67</ele>
        <time>2025-05-15T15:15:05Z</time>
      </trkpt>
      <trkpt lat="42.480119029060006" lon="3.139017038047314">
        <ele>11.19</ele>
        <time>2025-05-15T15:15:06Z</time>
      </trkpt>
      <trkpt lat="42.480181977152824" lon="3.138929028064013">
        <ele>11.19</ele>
        <time>2025-05-15T15:15:07Z</time>
      </trkpt>
      <trkpt lat="42.480362020432949" lon="3.138675978407264">
        <ele>11.19</ele>
        <time>2025-05-15T15:15:10Z</time>
      </trkpt>
      <trkpt lat="42.480400996282697" lon="3.138577993959189">
        <ele>11.67</ele>
        <time>2025-05-15T15:15:11Z</time>
      </trkpt>
      <trkpt lat="42.48042999766767" lon="3.138481015339494">
        <ele>11.67</ele>
        <time>2025-05-15T15:15:12Z</time>
      </trkpt>
      <trkpt lat="42.480462016537786" lon="3.138378001749516">
        <ele>11.67</ele>
        <time>2025-05-15T15:15:13Z</time>
      </trkpt>
      <trkpt lat="42.480467967689037" lon="3.138269037008286">
        <ele>11.67</ele>
        <time>2025-05-15T15:15:14Z</time>
      </trkpt>
      <trkpt lat="42.480474002659321" lon="3.138152025640011">
        <ele>11.67</ele>
        <time>2025-05-15T15:15:15Z</time>
      </trkpt>
      <trkpt lat="42.480480037629604" lon="3.138033002614975">
        <ele>11.67</ele>
        <time>2025-05-15T15:15:16Z</time>
      </trkpt>
      <trkpt lat="42.480480959638953" lon="3.137910040095449">
        <ele>11.67</ele>
        <time>2025-05-15T15:15:17Z</time>
      </trkpt>
      <trkpt lat="42.48047199100256" lon="3.137668976560235">
        <ele>11.19</ele>
        <time>2025-05-15T15:15:19Z</time>
      </trkpt>
      <trkpt lat="42.480464028194547" lon="3.137446017935872">
        <ele>10.23</ele>
        <time>2025-05-15T15:15:21Z</time>
      </trkpt>
      <trkpt lat="42.480445001274347" lon="3.137338981032372">
        <ele>9.75</ele>
        <time>2025-05-15T15:15:22Z</time>
      </trkpt>
      <trkpt lat="42.48040703125298" lon="3.13725097104907">
        <ele>9.27</ele>
        <time>2025-05-15T15:15:23Z</time>
      </trkpt>
      <trkpt lat="42.480368977412581" lon="3.13716497272253">
        <ele>9.27</ele>
        <time>2025-05-15T15:15:24Z</time>
      </trkpt>
      <trkpt lat="42.480298988521099" lon="3.137095989659429">
        <ele>8.789999999999999</ele>
        <time>2025-05-15T15:15:25Z</time>
      </trkpt>
      <trkpt lat="42.480236040428281" lon="3.137053996324539">
        <ele>8.310000000000001</ele>
        <time>2025-05-15T15:15:26Z</time>
      </trkpt>
      <trkpt lat="42.480177031829953" lon="3.137053996324539">
        <ele>8.310000000000001</ele>
        <time>2025-05-15T15:15:27Z</time>
      </trkpt>
      <trkpt lat="42.48010796494782" lon="3.137063970789313">
        <ele>7.83</ele>
        <time>2025-05-15T15:15:28Z</time>
      </trkpt>
      <trkpt lat="42.480046022683382" lon="3.137090960517526">
        <ele>7.35</ele>
        <time>2025-05-15T15:15:29Z</time>
      </trkpt>
      <trkpt lat="42.479975027963519" lon="3.137145023792982">
        <ele>6.87</ele>
        <time>2025-05-15T15:15:30Z</time>
      </trkpt>
      <trkpt lat="42.479904033243656" lon="3.137197997421026">
        <ele>6.39</ele>
        <time>2025-05-15T15:15:31Z</time>
      </trkpt>
      <trkpt lat="42.47984703630209" lon="3.137295981869102">
        <ele>5.91</ele>
        <time>2025-05-15T15:15:32Z</time>
      </trkpt>
      <trkpt lat="42.479772018268704" lon="3.137362031266093">
        <ele>5.42</ele>
        <time>2025-05-15T15:15:33Z</time>
      </trkpt>
      <trkpt lat="42.479701023548841" lon="3.137425985187292">
        <ele>4.94</ele>
        <time>2025-05-15T15:15:34Z</time>
      </trkpt>
      <trkpt lat="42.47963204048574" lon="3.13744300045073">
        <ele>3.98</ele>
        <time>2025-05-15T15:15:35Z</time>
      </trkpt>
      <trkpt lat="42.479568002745509" lon="3.13742196187377">
        <ele>3.5</ele>
        <time>2025-05-15T15:15:36Z</time>
      </trkpt>
      <trkpt lat="42.479511005803943" lon="3.137403018772602">
        <ele>3.02</ele>
        <time>2025-05-15T15:15:37Z</time>
      </trkpt>
      <trkpt lat="42.479464989155531" lon="3.137317020446062">
        <ele>2.54</ele>
        <time>2025-05-15T15:15:38Z</time>
      </trkpt>
      <trkpt lat="42.479465994983912" lon="3.137210989370942">
        <ele>2.06</ele>
        <time>2025-05-15T15:15:39Z</time>
      </trkpt>
      <trkpt lat="42.479499019682407" lon="3.137133959680796">
        <ele>2.06</ele>
        <time>2025-05-15T15:15:40Z</time>
      </trkpt>
      <trkpt lat="42.479545958340168" lon="3.137060031294823">
        <ele>1.58</ele>
        <time>2025-05-15T15:15:41Z</time>
      </trkpt>
      <trkpt lat="42.479602033272386" lon="3.136999011039734">
        <ele>1.1</ele>
        <time>2025-05-15T15:15:42Z</time>
      </trkpt>
      <trkpt lat="42.479658024385571" lon="3.136936984956265">
        <ele>1.1</ele>
        <time>2025-05-15T15:15:43Z</time>
      </trkpt>
      <trkpt lat="42.479712003841996" lon="3.136878982186317">
        <ele>0.62</ele>
        <time>2025-05-15T15:15:44Z</time>
      </trkpt>
      <trkpt lat="42.479753997176886" lon="3.136832965537906">
        <ele>0.62</ele>
        <time>2025-05-15T15:15:45Z</time>
      </trkpt>
      <trkpt lat="42.479817029088736" lon="3.136769011616707">
        <ele>0.62</ele>
        <time>2025-05-15T15:15:46Z</time>
      </trkpt>
      <trkpt lat="42.480036970227957" lon="3.136471034958959">
        <ele>-0.34</ele>
        <time>2025-05-15T15:15:51Z</time>
      </trkpt>
      <trkpt lat="42.480063959956169" lon="3.136372966691852">
        <ele>-0.34</ele>
        <time>2025-05-15T15:15:52Z</time>
      </trkpt>
      <trkpt lat="42.480078041553497" lon="3.136267019435763">
        <ele>-0.34</ele>
        <time>2025-05-15T15:15:53Z</time>
      </trkpt>
      <trkpt lat="42.480092039331794" lon="3.136166017502546">
        <ele>-0.82</ele>
        <time>2025-05-15T15:15:54Z</time>
      </trkpt>
      <trkpt lat="42.480089021846652" lon="3.136077001690865">
        <ele>-0.82</ele>
        <time>2025-05-15T15:15:55Z</time>
      </trkpt>
      <trkpt lat="42.480075024068356" lon="3.135997960343957">
        <ele>-0.82</ele>
        <time>2025-05-15T15:15:56Z</time>
      </trkpt>
      <trkpt lat="42.48006203211844" lon="3.135920008644462">
        <ele>-1.3</ele>
        <time>2025-05-15T15:15:57Z</time>
      </trkpt>
      <trkpt lat="42.480049040168524" lon="3.135847002267838">
        <ele>-1.3</ele>
        <time>2025-05-15T15:15:58Z</time>
      </trkpt>
      <trkpt lat="42.480038981884718" lon="3.135788999497891">
        <ele>-1.79</ele>
        <time>2025-05-15T15:15:59Z</time>
      </trkpt>
      <trkpt lat="42.480029007419944" lon="3.135733008384705">
        <ele>-1.79</ele>
        <time>2025-05-15T15:16:00Z</time>
      </trkpt>
      <trkpt lat="42.480018027126789" lon="3.135670982301235">
        <ele>-1.79</ele>
        <time>2025-05-15T15:16:01Z</time>
      </trkpt>
      <trkpt lat="42.480005035176873" lon="3.135604010894895">
        <ele>-2.27</ele>
        <time>2025-05-15T15:16:02Z</time>
      </trkpt>
      <trkpt lat="42.479991037398577" lon="3.135540978983045">
        <ele>-2.27</ele>
        <time>2025-05-15T15:16:03Z</time>
      </trkpt>
      <trkpt lat="42.479975027963519" lon="3.135474007576704">
        <ele>-2.27</ele>
        <time>2025-05-15T15:16:04Z</time>
      </trkpt>
      <trkpt lat="42.479959018528461" lon="3.135403012856841">
        <ele>-2.75</ele>
        <time>2025-05-15T15:16:05Z</time>
      </trkpt>
      <trkpt lat="42.479929011315107" lon="3.135094977915287">
        <ele>-2.27</ele>
        <time>2025-05-15T15:16:09Z</time>
      </trkpt>
      <trkpt lat="42.479920964688063" lon="3.134596003219485">
        <ele>-1.79</ele>
        <time>2025-05-15T15:16:15Z</time>
      </trkpt>
      <trkpt lat="42.479930017143488" lon="3.134504975751042">
        <ele>-1.79</ele>
        <time>2025-05-15T15:16:16Z</time>
      </trkpt>
      <trkpt lat="42.479947032406926" lon="3.134343959391117">
        <ele>-1.3</ele>
        <time>2025-05-15T15:16:18Z</time>
      </trkpt>
      <trkpt lat="42.480281973257661" lon="3.133154986426234">
        <ele>0.62</ele>
        <time>2025-05-15T15:16:30Z</time>
      </trkpt>
      <trkpt lat="42.480478025972843" lon="3.132449984550476">
        <ele>1.58</ele>
        <time>2025-05-15T15:16:41Z</time>
      </trkpt>
      <trkpt lat="42.480512978509068" lon="3.132219985127449">
        <ele>2.06</ele>
        <time>2025-05-15T15:16:46Z</time>
      </trkpt>
      <trkpt lat="42.4805389624089" lon="3.132042959332466">
        <ele>2.06</ele>
        <time>2025-05-15T15:16:49Z</time>
      </trkpt>
      <trkpt lat="42.480568969622254" lon="3.131852019578219">
        <ele>2.54</ele>
        <time>2025-05-15T15:16:57Z</time>
      </trkpt>
      <trkpt lat="42.480573998764157" lon="3.1318149715662">
        <ele>3.02</ele>
        <time>2025-05-15T15:17:01Z</time>
      </trkpt>
      <trkpt lat="42.480581039562821" lon="3.13176803290844">
        <ele>3.02</ele>
        <time>2025-05-15T15:17:02Z</time>
      </trkpt>
      <trkpt lat="42.480659997090697" lon="3.131119022145867">
        <ele>3.5</ele>
        <time>2025-05-15T15:17:11Z</time>
      </trkpt>
      <trkpt lat="42.480695033445954" lon="3.130936967208982">
        <ele>3.5</ele>
        <time>2025-05-15T15:17:14Z</time>
      </trkpt>
      <trkpt lat="42.480921009555459" lon="3.130315029993653">
        <ele>3.02</ele>
        <time>2025-05-15T15:17:24Z</time>
      </trkpt>
      <trkpt lat="42.48094598762691" lon="3.130264990031719">
        <ele>2.54</ele>
        <time>2025-05-15T15:17:25Z</time>
      </trkpt>
      <trkpt lat="42.480992004275322" lon="3.130172034725547">
        <ele>2.54</ele>
        <time>2025-05-15T15:17:27Z</time>
      </trkpt>
      <trkpt lat="42.481012959033251" lon="3.130130041390657">
        <ele>2.54</ele>
        <time>2025-05-15T15:17:28Z</time>
      </trkpt>
      <trkpt lat="42.481113960966468" lon="3.129952009767294">
        <ele>1.58</ele>
        <time>2025-05-15T15:17:32Z</time>
      </trkpt>
      <trkpt lat="42.481141034513712" lon="3.129908004775643">
        <ele>1.58</ele>
        <time>2025-05-15T15:17:33Z</time>
      </trkpt>
      <trkpt lat="42.481166012585163" lon="3.129867017269135">
        <ele>1.58</ele>
        <time>2025-05-15T15:17:34Z</time>
      </trkpt>
      <trkpt lat="42.481191996484995" lon="3.129831980913878">
        <ele>1.58</ele>
        <time>2025-05-15T15:17:35Z</time>
      </trkpt>
      <trkpt lat="42.481222003698349" lon="3.12979401089251">
        <ele>1.1</ele>
        <time>2025-05-15T15:17:36Z</time>
      </trkpt>
      <trkpt lat="42.481252010911703" lon="3.129756962880492">
        <ele>1.1</ele>
        <time>2025-05-15T15:17:37Z</time>
      </trkpt>
      <trkpt lat="42.481516040861607" lon="3.129436019808054">
        <ele>0.62</ele>
        <time>2025-05-15T15:17:46Z</time>
      </trkpt>
      <trkpt lat="42.481800019741058" lon="3.129250025376678">
        <ele>1.58</ele>
        <time>2025-05-15T15:17:55Z</time>
      </trkpt>
      <trkpt lat="42.481901021674275" lon="3.129183975979686">
        <ele>1.58</ele>
        <time>2025-05-15T15:18:00Z</time>
      </trkpt>
      <trkpt lat="42.481941003352404" lon="3.129157992079854">
        <ele>0.62</ele>
        <time>2025-05-15T15:18:04Z</time>
      </trkpt>
      <trkpt lat="42.481960030272603" lon="3.129145000129938">
        <ele>0.14</ele>
        <time>2025-05-15T15:18:05Z</time>
      </trkpt>
      <trkpt lat="42.48201803304255" lon="3.129107030108571">
        <ele>0.14</ele>
        <time>2025-05-15T15:18:18Z</time>
      </trkpt>
      <trkpt lat="42.482046028599143" lon="3.129081968218088">
        <ele>0.14</ele>
        <time>2025-05-15T15:18:19Z</time>
      </trkpt>
      <trkpt lat="42.482030019164085" lon="3.129065036773682">
        <ele>0.14</ele>
        <time>2025-05-15T15:18:20Z</time>
      </trkpt>
      <trkpt lat="42.482009986415505" lon="3.129042992368341">
        <ele>-0.34</ele>
        <time>2025-05-15T15:18:21Z</time>
      </trkpt>
      <trkpt lat="42.481984002515674" lon="3.129016002640128">
        <ele>-0.34</ele>
        <time>2025-05-15T15:18:22Z</time>
      </trkpt>
      <trkpt lat="42.481961958110332" lon="3.128992030397058">
        <ele>-0.34</ele>
        <time>2025-05-15T15:18:23Z</time>
      </trkpt>
      <trkpt lat="42.481944020837545" lon="3.128973003476858">
        <ele>-0.34</ele>
        <time>2025-05-15T15:18:24Z</time>
      </trkpt>
      <trkpt lat="42.481930023059249" lon="3.128956994041801">
        <ele>-0.82</ele>
        <time>2025-05-15T15:18:25Z</time>
      </trkpt>
      <trkpt lat="42.481917031109333" lon="3.128944002091885">
        <ele>-0.82</ele>
        <time>2025-05-15T15:18:26Z</time>
      </trkpt>
      <trkpt lat="42.481917031109333" lon="3.128944002091885">
        <ele>-1.3</ele>
        <time>2025-05-15T15:18:27Z</time>
      </trkpt>
      <trkpt lat="42.481917031109333" lon="3.128944002091885">
        <ele>-1.3</ele>
        <time>2025-05-15T15:18:47Z</time>
      </trkpt>
      <trkpt lat="42.481901021674275" lon="3.128686007112265">
        <ele>3.98</ele>
        <time>2025-05-15T15:39:19Z</time>
      </trkpt>
      <trkpt lat="42.481947038322687" lon="3.128790026530623">
        <ele>-1.79</ele>
        <time>2025-05-15T15:39:53Z</time>
      </trkpt>
      <trkpt lat="42.481909990310669" lon="3.128795977681875">
        <ele>2.06</ele>
        <time>2025-05-15T15:40:34Z</time>
      </trkpt>
      <trkpt lat="42.481903033331037" lon="3.128873007372022">
        <ele>5.91</ele>
        <time>2025-05-15T15:41:01Z</time>
      </trkpt>
      <trkpt lat="42.481903033331037" lon="3.128873007372022">
        <ele>5.91</ele>
        <time>2025-05-15T15:41:08Z</time>
      </trkpt>
      <trkpt lat="42.481991965323687" lon="3.129123961552978">
        <ele>5.42</ele>
        <time>2025-05-15T15:41:10Z</time>
      </trkpt>
      <trkpt lat="42.481981990858912" lon="3.129131002351642">
        <ele>5.42</ele>
        <time>2025-05-15T15:41:11Z</time>
      </trkpt>
      <trkpt lat="42.481958018615842" lon="3.129147011786699">
        <ele>3.98</ele>
        <time>2025-05-15T15:41:14Z</time>
      </trkpt>
      <trkpt lat="42.481988025829196" lon="3.129126979038119">
        <ele>3.5</ele>
        <time>2025-05-15T15:41:15Z</time>
      </trkpt>
      <trkpt lat="42.482032030820847" lon="3.129097977653146">
        <ele>2.54</ele>
        <time>2025-05-15T15:41:16Z</time>
      </trkpt>
      <trkpt lat="42.482266975566745" lon="3.129000999033451">
        <ele>1.58</ele>
        <time>2025-05-15T15:41:20Z</time>
      </trkpt>
      <trkpt lat="42.482322966679931" lon="3.129000999033451">
        <ele>1.58</ele>
        <time>2025-05-15T15:41:21Z</time>
      </trkpt>
      <trkpt lat="42.482418017461896" lon="3.129000999033451">
        <ele>1.1</ele>
        <time>2025-05-15T15:41:23Z</time>
      </trkpt>
      <trkpt lat="42.482474008575082" lon="3.128991024568677">
        <ele>0.62</ele>
        <time>2025-05-15T15:41:24Z</time>
      </trkpt>
      <trkpt lat="42.482516001909971" lon="3.128980966284871">
        <ele>0.62</ele>
        <time>2025-05-15T15:41:25Z</time>
      </trkpt>
      <trkpt lat="42.482547014951706" lon="3.128973003476858">
        <ele>0.14</ele>
        <time>2025-05-15T15:41:26Z</time>
      </trkpt>
      <trkpt lat="42.482608035206795" lon="3.128957999870181">
        <ele>-0.34</ele>
        <time>2025-05-15T15:41:27Z</time>
      </trkpt>
      <trkpt lat="42.482608035206795" lon="3.128957999870181">
        <ele>-1.79</ele>
        <time>2025-05-15T15:41:38Z</time>
      </trkpt>
      <trkpt lat="42.48285798355937" lon="3.129016002640128">
        <ele>-2.75</ele>
        <time>2025-05-15T15:41:44Z</time>
      </trkpt>
      <trkpt lat="42.482908023521304" lon="3.129022037610412">
        <ele>-3.23</ele>
        <time>2025-05-15T15:41:45Z</time>
      </trkpt>
      <trkpt lat="42.482954040169716" lon="3.12906201928854">
        <ele>-3.71</ele>
        <time>2025-05-15T15:41:46Z</time>
      </trkpt>
      <trkpt lat="42.483001984655857" lon="3.129104012623429">
        <ele>-3.71</ele>
        <time>2025-05-15T15:41:47Z</time>
      </trkpt>
      <trkpt lat="42.48305001296103" lon="3.129146005958319">
        <ele>-3.71</ele>
        <time>2025-05-15T15:41:48Z</time>
      </trkpt>
      <trkpt lat="42.4830930121243" lon="3.129192022606731">
        <ele>-3.71</ele>
        <time>2025-05-15T15:41:49Z</time>
      </trkpt>
      <trkpt lat="42.483127964660525" lon="3.129251031205058">
        <ele>-3.71</ele>
        <time>2025-05-15T15:41:50Z</time>
      </trkpt>
      <trkpt lat="42.483153026551008" lon="3.129315990954638">
        <ele>-4.19</ele>
        <time>2025-05-15T15:41:51Z</time>
      </trkpt>
      <trkpt lat="42.483178004622459" lon="3.129381034523249">
        <ele>-4.19</ele>
        <time>2025-05-15T15:41:52Z</time>
      </trkpt>
      <trkpt lat="42.483207006007433" lon="3.129456974565983">
        <ele>-3.71</ele>
        <time>2025-05-15T15:41:53Z</time>
      </trkpt>
      <trkpt lat="42.483239024877548" lon="3.129551019519568">
        <ele>-3.71</ele>
        <time>2025-05-15T15:41:54Z</time>
      </trkpt>
      <trkpt lat="42.483435999602079" lon="3.130226014181972">
        <ele>1.1</ele>
        <time>2025-05-15T15:42:01Z</time>
      </trkpt>
      <trkpt lat="42.48358896933496" lon="3.13050102442503">
        <ele>3.02</ele>
        <time>2025-05-15T15:42:05Z</time>
      </trkpt>
      <trkpt lat="42.483630040660501" lon="3.130574030801654">
        <ele>3.5</ele>
        <time>2025-05-15T15:42:06Z</time>
      </trkpt>
      <trkpt lat="42.484046034514904" lon="3.131224969401956">
        <ele>10.710000000000001</ele>
        <time>2025-05-15T15:42:16Z</time>
      </trkpt>
      <trkpt lat="42.484087022021413" lon="3.131258999928832">
        <ele>11.67</ele>
        <time>2025-05-15T15:42:17Z</time>
      </trkpt>
      <trkpt lat="42.484143013134599" lon="3.13127500936389">
        <ele>12.15</ele>
        <time>2025-05-15T15:42:18Z</time>
      </trkpt>
      <trkpt lat="42.484203027561307" lon="3.131291018798947">
        <ele>13.119999999999999</ele>
        <time>2025-05-15T15:42:19Z</time>
      </trkpt>
      <trkpt lat="42.484262036159635" lon="3.131307028234005">
        <ele>14.08</ele>
        <time>2025-05-15T15:42:20Z</time>
      </trkpt>
      <trkpt lat="42.48431702144444" lon="3.131312979385257">
        <ele>14.56</ele>
        <time>2025-05-15T15:42:21Z</time>
      </trkpt>
      <trkpt lat="42.484362032264471" lon="3.131294958293438">
        <ele>15.039999999999999</ele>
        <time>2025-05-15T15:42:22Z</time>
      </trkpt>
      <trkpt lat="42.48440301977098" lon="3.131278026849031">
        <ele>16</ele>
        <time>2025-05-15T15:42:23Z</time>
      </trkpt>
      <trkpt lat="42.48444601893425" lon="3.131261011585593">
        <ele>16</ele>
        <time>2025-05-15T15:42:24Z</time>
      </trkpt>
      <trkpt lat="42.484495975077152" lon="3.131240978837013">
        <ele>16.48</ele>
        <time>2025-05-15T15:42:25Z</time>
      </trkpt>
      <trkpt lat="42.48455498367548" lon="3.131209965795279">
        <ele>16.960000000000001</ele>
        <time>2025-05-15T15:42:26Z</time>
      </trkpt>
      <trkpt lat="42.484624972566962" lon="3.131167972460389">
        <ele>17.440000000000001</ele>
        <time>2025-05-15T15:42:27Z</time>
      </trkpt>
      <trkpt lat="42.48481398448348" lon="3.131064036861062">
        <ele>19.84</ele>
        <time>2025-05-15T15:42:30Z</time>
      </trkpt>
      <trkpt lat="42.484885985031724" lon="3.131032017990947">
        <ele>20.32</ele>
        <time>2025-05-15T15:42:31Z</time>
      </trkpt>
      <trkpt lat="42.485554022714496" lon="3.130549974739552">
        <ele>28.02</ele>
        <time>2025-05-15T15:42:42Z</time>
      </trkpt>
      <trkpt lat="42.485660975798965" lon="3.130383007228375">
        <ele>29.940000000000001</ele>
        <time>2025-05-15T15:42:44Z</time>
      </trkpt>
      <trkpt lat="42.485715039074421" lon="3.130297008901835">
        <ele>30.899999999999999</ele>
        <time>2025-05-15T15:42:45Z</time>
      </trkpt>
      <trkpt lat="42.486170008778572" lon="3.129218006506562">
        <ele>33.299999999999997</ele>
        <time>2025-05-15T15:42:55Z</time>
      </trkpt>
      <trkpt lat="42.486492041498423" lon="3.128635967150331">
        <ele>30.420000000000002</ele>
        <time>2025-05-15T15:43:00Z</time>
      </trkpt>
      <trkpt lat="42.486539985984564" lon="3.128504035994411">
        <ele>29.940000000000001</ele>
        <time>2025-05-15T15:43:01Z</time>
      </trkpt>
      <trkpt lat="42.486578039824963" lon="3.128400016576052">
        <ele>29.460000000000001</ele>
        <time>2025-05-15T15:43:02Z</time>
      </trkpt>
      <trkpt lat="42.486563958227634" lon="3.128251992166042">
        <ele>28.98</ele>
        <time>2025-05-15T15:43:03Z</time>
      </trkpt>
      <trkpt lat="42.486546020954847" lon="3.128140009939671">
        <ele>28.5</ele>
        <time>2025-05-15T15:43:04Z</time>
      </trkpt>
      <trkpt lat="42.486498998478055" lon="3.12803003937006">
        <ele>28.02</ele>
        <time>2025-05-15T15:43:05Z</time>
      </trkpt>
      <trkpt lat="42.486425992101431" lon="3.127947980538011">
        <ele>27.530000000000001</ele>
        <time>2025-05-15T15:43:06Z</time>
      </trkpt>
      <trkpt lat="42.486340999603271" lon="3.127862988039851">
        <ele>27.050000000000001</ele>
        <time>2025-05-15T15:43:07Z</time>
      </trkpt>
      <trkpt lat="42.48625198379159" lon="3.127773972228169">
        <ele>26.57</ele>
        <time>2025-05-15T15:43:08Z</time>
      </trkpt>
      <trkpt lat="42.486161040142179" lon="3.127694008871913">
        <ele>26.57</ele>
        <time>2025-05-15T15:43:09Z</time>
      </trkpt>
      <trkpt lat="42.485965993255377" lon="3.127514971420169">
        <ele>25.129999999999999</ele>
        <time>2025-05-15T15:43:11Z</time>
      </trkpt>
      <trkpt lat="42.485878989100456" lon="3.127403995022178">
        <ele>24.649999999999999</ele>
        <time>2025-05-15T15:43:12Z</time>
      </trkpt>
      <trkpt lat="42.485829032957554" lon="3.127254964783788">
        <ele>23.690000000000001</ele>
        <time>2025-05-15T15:43:13Z</time>
      </trkpt>
      <trkpt lat="42.485786033794284" lon="3.127109035849571">
        <ele>22.73</ele>
        <time>2025-05-15T15:43:14Z</time>
      </trkpt>
      <trkpt lat="42.485742028802633" lon="3.126962017267942">
        <ele>21.77</ele>
        <time>2025-05-15T15:43:15Z</time>
      </trkpt>
      <trkpt lat="42.485699029639363" lon="3.126817010343075">
        <ele>20.809999999999999</ele>
        <time>2025-05-15T15:43:16Z</time>
      </trkpt>
      <trkpt lat="42.485687965527177" lon="3.126687007024884">
        <ele>20.32</ele>
        <time>2025-05-15T15:43:17Z</time>
      </trkpt>
      <trkpt lat="42.485678996890783" lon="3.126573013141751">
        <ele>19.359999999999999</ele>
        <time>2025-05-15T15:43:18Z</time>
      </trkpt>
      <trkpt lat="42.48567103408277" lon="3.126480979844928">
        <ele>18.879999999999999</ele>
        <time>2025-05-15T15:43:19Z</time>
      </trkpt>
      <trkpt lat="42.485664999112487" lon="3.126395987346768">
        <ele>17.920000000000002</ele>
        <time>2025-05-15T15:43:20Z</time>
      </trkpt>
      <trkpt lat="42.485657958313823" lon="3.126315018162131">
        <ele>17.440000000000001</ele>
        <time>2025-05-15T15:43:21Z</time>
      </trkpt>
      <trkpt lat="42.485655024647713" lon="3.126275958493352">
        <ele>16.960000000000001</ele>
        <time>2025-05-15T15:43:22Z</time>
      </trkpt>
      <trkpt lat="42.48573599383235" lon="3.12622700817883">
        <ele>16.48</ele>
        <time>2025-05-15T15:43:23Z</time>
      </trkpt>
      <trkpt lat="42.485777987167239" lon="3.126121982932091">
        <ele>15.52</ele>
        <time>2025-05-15T15:43:24Z</time>
      </trkpt>
      <trkpt lat="42.485856022685766" lon="3.126103039830923">
        <ele>15.52</ele>
        <time>2025-05-15T15:43:25Z</time>
      </trkpt>
      <trkpt lat="42.485943026840687" lon="3.126083007082343">
        <ele>15.039999999999999</ele>
        <time>2025-05-15T15:43:26Z</time>
      </trkpt>
      <trkpt lat="42.486042017117143" lon="3.126060040667653">
        <ele>15.039999999999999</ele>
        <time>2025-05-15T15:43:27Z</time>
      </trkpt>
      <trkpt lat="42.486533029004931" lon="3.126123994588852">
        <ele>11.19</ele>
        <time>2025-05-15T15:43:32Z</time>
      </trkpt>
      <trkpt lat="42.486622966825962" lon="3.126169005408883">
        <ele>10.710000000000001</ele>
        <time>2025-05-15T15:43:33Z</time>
      </trkpt>
      <trkpt lat="42.486705025658011" lon="3.126219967380166">
        <ele>9.27</ele>
        <time>2025-05-15T15:43:34Z</time>
      </trkpt>
      <trkpt lat="42.486777026206255" lon="3.126273024827242">
        <ele>8.789999999999999</ele>
        <time>2025-05-15T15:43:35Z</time>
      </trkpt>
      <trkpt lat="42.486843997612596" lon="3.126320969313383">
        <ele>8.310000000000001</ele>
        <time>2025-05-15T15:43:36Z</time>
      </trkpt>
      <trkpt lat="42.486909041181207" lon="3.126366985961795">
        <ele>7.35</ele>
        <time>2025-05-15T15:43:37Z</time>
      </trkpt>
      <trkpt lat="42.486976012587547" lon="3.126416020095348">
        <ele>6.87</ele>
        <time>2025-05-15T15:43:38Z</time>
      </trkpt>
      <trkpt lat="42.487770030274987" lon="3.12702002003789">
        <ele>5.42</ele>
        <time>2025-05-15T15:43:49Z</time>
      </trkpt>
      <trkpt lat="42.488315021619201" lon="3.127263011410832">
        <ele>6.87</ele>
        <time>2025-05-15T15:43:57Z</time>
      </trkpt>
      <trkpt lat="42.488382998853922" lon="3.127263011410832">
        <ele>7.35</ele>
        <time>2025-05-15T15:43:58Z</time>
      </trkpt>
      <trkpt lat="42.488435972481966" lon="3.127242978662252">
        <ele>7.83</ele>
        <time>2025-05-15T15:43:59Z</time>
      </trkpt>
      <trkpt lat="42.488511996343732" lon="3.127198973670602">
        <ele>8.310000000000001</ele>
        <time>2025-05-15T15:44:00Z</time>
      </trkpt>
      <trkpt lat="42.488567987456918" lon="3.127146000042558">
        <ele>9.27</ele>
        <time>2025-05-15T15:44:01Z</time>
      </trkpt>
      <trkpt lat="42.488624984398484" lon="3.12704298645258">
        <ele>9.75</ele>
        <time>2025-05-15T15:44:02Z</time>
      </trkpt>
      <trkpt lat="42.48867996968329" lon="3.126940978690982">
        <ele>10.710000000000001</ele>
        <time>2025-05-15T15:44:03Z</time>
      </trkpt>
      <trkpt lat="42.488687010481954" lon="3.12680896371603">
        <ele>11.19</ele>
        <time>2025-05-15T15:44:04Z</time>
      </trkpt>
      <trkpt lat="42.488692961633205" lon="3.126682983711362">
        <ele>11.67</ele>
        <time>2025-05-15T15:44:05Z</time>
      </trkpt>
      <trkpt lat="42.488717017695308" lon="3.125408012419939">
        <ele>18.399999999999999</ele>
        <time>2025-05-15T15:44:13Z</time>
      </trkpt>
      <trkpt lat="42.488706959411502" lon="3.124846005812287">
        <ele>21.289999999999999</ele>
        <time>2025-05-15T15:44:16Z</time>
      </trkpt>
      <trkpt lat="42.48867996968329" lon="3.12465799972415">
        <ele>22.25</ele>
        <time>2025-05-15T15:44:17Z</time>
      </trkpt>
      <trkpt lat="42.488620961084962" lon="3.124321969226003">
        <ele>24.649999999999999</ele>
        <time>2025-05-15T15:44:19Z</time>
      </trkpt>
      <trkpt lat="42.488635964691639" lon="3.124151984229684">
        <ele>26.09</ele>
        <time>2025-05-15T15:44:20Z</time>
      </trkpt>
      <trkpt lat="42.488650968298316" lon="3.123966995626688">
        <ele>27.050000000000001</ele>
        <time>2025-05-15T15:44:21Z</time>
      </trkpt>
      <trkpt lat="42.488694973289967" lon="3.123783012852073">
        <ele>28.02</ele>
        <time>2025-05-15T15:44:22Z</time>
      </trkpt>
      <trkpt lat="42.488779965788126" lon="3.123574974015355">
        <ele>28.98</ele>
        <time>2025-05-15T15:44:23Z</time>
      </trkpt>
      <trkpt lat="42.488876022398472" lon="3.123342040926218">
        <ele>29.940000000000001</ele>
        <time>2025-05-15T15:44:24Z</time>
      </trkpt>
      <trkpt lat="42.48897903598845" lon="3.123088991269469">
        <ele>30.899999999999999</ele>
        <time>2025-05-15T15:44:25Z</time>
      </trkpt>
      <trkpt lat="42.490036999806762" lon="3.120706016197801">
        <ele>42.920000000000002</ele>
        <time>2025-05-15T15:44:34Z</time>
      </trkpt>
      <trkpt lat="42.490652985870838" lon="3.119528023526073">
        <ele>51.57</ele>
        <time>2025-05-15T15:44:40Z</time>
      </trkpt>
      <trkpt lat="42.490773014724255" lon="3.119375975802541">
        <ele>53.009999999999998</ele>
        <time>2025-05-15T15:44:41Z</time>
      </trkpt>
      <trkpt lat="42.490890026092529" lon="3.119228035211563">
        <ele>53.969999999999999</ele>
        <time>2025-05-15T15:44:42Z</time>
      </trkpt>
      <trkpt lat="42.491026986390352" lon="3.119118986651301">
        <ele>55.409999999999997</ele>
        <time>2025-05-15T15:44:43Z</time>
      </trkpt>
      <trkpt lat="42.491174004971981" lon="3.119032988324761">
        <ele>56.859999999999999</ele>
        <time>2025-05-15T15:44:44Z</time>
      </trkpt>
      <trkpt lat="42.491332003846765" lon="3.118997029960156">
        <ele>58.299999999999997</ele>
        <time>2025-05-15T15:44:45Z</time>
      </trkpt>
      <trkpt lat="42.491478016600013" lon="3.118969034403563">
        <ele>60.219999999999999</ele>
        <time>2025-05-15T15:44:46Z</time>
      </trkpt>
      <trkpt lat="42.491603996604681" lon="3.118958976119757">
        <ele>61.659999999999997</ele>
        <time>2025-05-15T15:44:47Z</time>
      </trkpt>
      <trkpt lat="42.491912031546235" lon="3.118954030796886">
        <ele>65.030000000000001</ele>
        <time>2025-05-15T15:44:50Z</time>
      </trkpt>
      <trkpt lat="42.492876034229994" lon="3.119294000789523">
        <ele>67.430000000000007</ele>
        <time>2025-05-15T15:44:58Z</time>
      </trkpt>
      <trkpt lat="42.493193037807941" lon="3.119303975254297">
        <ele>66.950000000000003</ele>
        <time>2025-05-15T15:45:00Z</time>
      </trkpt>
      <trkpt lat="42.493360005319118" lon="3.119274973869324">
        <ele>66.950000000000003</ele>
        <time>2025-05-15T15:45:01Z</time>
      </trkpt>
      <trkpt lat="42.49353501945734" lon="3.11924496665597">
        <ele>66.469999999999999</ele>
        <time>2025-05-15T15:45:02Z</time>
      </trkpt>
      <trkpt lat="42.493710033595562" lon="3.119213031604886">
        <ele>66.469999999999999</ele>
        <time>2025-05-15T15:45:03Z</time>
      </trkpt>
      <trkpt lat="42.493883036077023" lon="3.119138013571501">
        <ele>65.989999999999995</ele>
        <time>2025-05-15T15:45:04Z</time>
      </trkpt>
      <trkpt lat="42.494054026901722" lon="3.119044974446297">
        <ele>65.510000000000005</ele>
        <time>2025-05-15T15:45:05Z</time>
      </trkpt>
      <trkpt lat="42.49422200024128" lon="3.118908014148474">
        <ele>64.549999999999997</ele>
        <time>2025-05-15T15:45:06Z</time>
      </trkpt>
      <trkpt lat="42.495074020698667" lon="3.11827702447772">
        <ele>58.299999999999997</ele>
        <time>2025-05-15T15:45:11Z</time>
      </trkpt>
      <trkpt lat="42.495237970724702" lon="3.118220027536154">
        <ele>56.859999999999999</ele>
        <time>2025-05-15T15:45:12Z</time>
      </trkpt>
      <trkpt lat="42.495408961549401" lon="3.118178034201264">
        <ele>55.409999999999997</ele>
        <time>2025-05-15T15:45:13Z</time>
      </trkpt>
      <trkpt lat="42.495572995394468" lon="3.118198988959193">
        <ele>54.450000000000003</ele>
        <time>2025-05-15T15:45:14Z</time>
      </trkpt>
      <trkpt lat="42.495753038674593" lon="3.118252968415618">
        <ele>53.009999999999998</ele>
        <time>2025-05-15T15:45:15Z</time>
      </trkpt>
      <trkpt lat="42.495936015620828" lon="3.118308959528804">
        <ele>51.57</ele>
        <time>2025-05-15T15:45:16Z</time>
      </trkpt>
      <trkpt lat="42.496079010888934" lon="3.118458995595574">
        <ele>50.609999999999999</ele>
        <time>2025-05-15T15:45:17Z</time>
      </trkpt>
      <trkpt lat="42.496238015592098" lon="3.118645995855331">
        <ele>49.159999999999997</ele>
        <time>2025-05-15T15:45:18Z</time>
      </trkpt>
      <trkpt lat="42.496398026123643" lon="3.118834001943469">
        <ele>47.240000000000002</ele>
        <time>2025-05-15T15:45:19Z</time>
      </trkpt>
      <trkpt lat="42.496842015534639" lon="3.119318978860974">
        <ele>41.950000000000003</ele>
        <time>2025-05-15T15:45:22Z</time>
      </trkpt>
      <trkpt lat="42.496981993317604" lon="3.119422998279333">
        <ele>40.509999999999998</ele>
        <time>2025-05-15T15:45:23Z</time>
      </trkpt>
      <trkpt lat="42.497147032991052" lon="3.119476977735758">
        <ele>38.590000000000003</ele>
        <time>2025-05-15T15:45:24Z</time>
      </trkpt>
      <trkpt lat="42.497320035472512" lon="3.119494998827577">
        <ele>36.189999999999998</ele>
        <time>2025-05-15T15:45:25Z</time>
      </trkpt>
      <trkpt lat="42.497503012418747" lon="3.119494998827577">
        <ele>34.259999999999998</ele>
        <time>2025-05-15T15:45:26Z</time>
      </trkpt>
      <trkpt lat="42.499065985903144" lon="3.119454011321068">
        <ele>18.879999999999999</ele>
        <time>2025-05-15T15:45:35Z</time>
      </trkpt>
      <trkpt lat="42.499543000012636" lon="3.119491981342435">
        <ele>14.56</ele>
        <time>2025-05-15T15:45:39Z</time>
      </trkpt>
      <trkpt lat="42.49963897280395" lon="3.119560964405537">
        <ele>13.119999999999999</ele>
        <time>2025-05-15T15:45:40Z</time>
      </trkpt>
      <trkpt lat="42.499722959473729" lon="3.119641011580825">
        <ele>11.67</ele>
        <time>2025-05-15T15:45:41Z</time>
      </trkpt>
      <trkpt lat="42.499799989163876" lon="3.119736984372139">
        <ele>10.710000000000001</ele>
        <time>2025-05-15T15:45:42Z</time>
      </trkpt>
      <trkpt lat="42.499882970005274" lon="3.119841003790498">
        <ele>9.75</ele>
        <time>2025-05-15T15:45:43Z</time>
      </trkpt>
      <trkpt lat="42.499954970553517" lon="3.119975030422211">
        <ele>9.27</ele>
        <time>2025-05-15T15:45:44Z</time>
      </trkpt>
      <trkpt lat="42.500234004110098" lon="3.120451038703322">
        <ele>5.42</ele>
        <time>2025-05-15T15:45:48Z</time>
      </trkpt>
      <trkpt lat="42.500322014093399" lon="3.120544999837875">
        <ele>4.94</ele>
        <time>2025-05-15T15:45:49Z</time>
      </trkpt>
      <trkpt lat="42.500634994357824" lon="3.120820010080934">
        <ele>3.02</ele>
        <time>2025-05-15T15:45:53Z</time>
      </trkpt>
      <trkpt lat="42.500724010169506" lon="3.120874995365739">
        <ele>2.06</ele>
        <time>2025-05-15T15:45:54Z</time>
      </trkpt>
      <trkpt lat="42.50081998296082" lon="3.120911037549377">
        <ele>1.58</ele>
        <time>2025-05-15T15:45:55Z</time>
      </trkpt>
      <trkpt lat="42.500935988500714" lon="3.120911037549377">
        <ele>1.1</ele>
        <time>2025-05-15T15:45:56Z</time>
      </trkpt>
      <trkpt lat="42.501060962677002" lon="3.120911037549377">
        <ele>0.62</ele>
        <time>2025-05-15T15:45:57Z</time>
      </trkpt>
      <trkpt lat="42.50116397626698" lon="3.120869966223836">
        <ele>0.14</ele>
        <time>2025-05-15T15:45:58Z</time>
      </trkpt>
      <trkpt lat="42.501282999292016" lon="3.120822021737695">
        <ele>-0.82</ele>
        <time>2025-05-15T15:45:59Z</time>
      </trkpt>
      <trkpt lat="42.502046003937721" lon="3.120471993461251">
        <ele>-7.55</ele>
        <time>2025-05-15T15:46:06Z</time>
      </trkpt>
      <trkpt lat="42.502111969515681" lon="3.120529996231198">
        <ele>-7.55</ele>
        <time>2025-05-15T15:46:07Z</time>
      </trkpt>
      <trkpt lat="42.502241972833872" lon="3.120567966252565">
        <ele>-8.029999999999999</ele>
        <time>2025-05-15T15:46:08Z</time>
      </trkpt>
      <trkpt lat="42.502292012795806" lon="3.120652036741376">
        <ele>-8.51</ele>
        <time>2025-05-15T15:46:09Z</time>
      </trkpt>
      <trkpt lat="42.502364013344049" lon="3.12077097594738">
        <ele>-8.51</ele>
        <time>2025-05-15T15:46:10Z</time>
      </trkpt>
      <trkpt lat="42.502455962821841" lon="3.120907014235854">
        <ele>-9</ele>
        <time>2025-05-15T15:46:11Z</time>
      </trkpt>
      <trkpt lat="42.502573980018497" lon="3.121000975370407">
        <ele>-9</ele>
        <time>2025-05-15T15:46:12Z</time>
      </trkpt>
      <trkpt lat="42.502707000821829" lon="3.121085967868567">
        <ele>-9</ele>
        <time>2025-05-15T15:46:13Z</time>
      </trkpt>
      <trkpt lat="42.502846978604794" lon="3.121145982295275">
        <ele>-9</ele>
        <time>2025-05-15T15:46:14Z</time>
      </trkpt>
      <trkpt lat="42.502991985529661" lon="3.121202979236841">
        <ele>-9.48</ele>
        <time>2025-05-15T15:46:15Z</time>
      </trkpt>
      <trkpt lat="42.503421977162361" lon="3.121340023353696">
        <ele>-9</ele>
        <time>2025-05-15T15:46:18Z</time>
      </trkpt>
      <trkpt lat="42.503582993522286" lon="3.121323008090258">
        <ele>-9</ele>
        <time>2025-05-15T15:46:19Z</time>
      </trkpt>
      <trkpt lat="42.503733029589057" lon="3.121305992826819">
        <ele>-9</ele>
        <time>2025-05-15T15:46:20Z</time>
      </trkpt>
      <trkpt lat="42.504981011152267" lon="3.120996030047536">
        <ele>-9</ele>
        <time>2025-05-15T15:46:29Z</time>
      </trkpt>
      <trkpt lat="42.505086958408356" lon="3.120929980650544">
        <ele>-9</ele>
        <time>2025-05-15T15:46:30Z</time>
      </trkpt>
      <trkpt lat="42.505177985876799" lon="3.120831996202469">
        <ele>-8.51</ele>
        <time>2025-05-15T15:46:31Z</time>
      </trkpt>
      <trkpt lat="42.505263984203339" lon="3.120721019804478">
        <ele>-8.51</ele>
        <time>2025-05-15T15:46:32Z</time>
      </trkpt>
      <trkpt lat="42.505346965044737" lon="3.1205989792943">
        <ele>-8.029999999999999</ele>
        <time>2025-05-15T15:46:33Z</time>
      </trkpt>
      <trkpt lat="42.505420977249742" lon="3.120439974591136">
        <ele>-8.029999999999999</ele>
        <time>2025-05-15T15:46:34Z</time>
      </trkpt>
      <trkpt lat="42.50550102442503" lon="3.120266972109675">
        <ele>-8.029999999999999</ele>
        <time>2025-05-15T15:46:35Z</time>
      </trkpt>
      <trkpt lat="42.505589034408331" lon="3.120077960193157">
        <ele>-8.029999999999999</ele>
        <time>2025-05-15T15:46:36Z</time>
      </trkpt>
      <trkpt lat="42.5056769605726" lon="3.119850978255272">
        <ele>-7.55</ele>
        <time>2025-05-15T15:46:37Z</time>
      </trkpt>
      <trkpt lat="42.506027994677424" lon="3.118971968069673">
        <ele>-4.19</ele>
        <time>2025-05-15T15:46:41Z</time>
      </trkpt>
      <trkpt lat="42.506068982183933" lon="3.118800977244973">
        <ele>-3.23</ele>
        <time>2025-05-15T15:46:42Z</time>
      </trkpt>
      <trkpt lat="42.50608297996223" lon="3.118604002520442">
        <ele>-2.27</ele>
        <time>2025-05-15T15:46:43Z</time>
      </trkpt>
      <trkpt lat="42.50608297996223" lon="3.11840602196753">
        <ele>-1.3</ele>
        <time>2025-05-15T15:46:44Z</time>
      </trkpt>
      <trkpt lat="42.50608297996223" lon="3.11819395981729">
        <ele>-0.34</ele>
        <time>2025-05-15T15:46:45Z</time>
      </trkpt>
      <trkpt lat="42.506152968853712" lon="3.116296967491508">
        <ele>6.87</ele>
        <time>2025-05-15T15:46:53Z</time>
      </trkpt>
      <trkpt lat="42.506249025464058" lon="3.115680981427431">
        <ele>10.23</ele>
        <time>2025-05-15T15:46:57Z</time>
      </trkpt>
      <trkpt lat="42.506296969950199" lon="3.11550403945148">
        <ele>11.19</ele>
        <time>2025-05-15T15:46:58Z</time>
      </trkpt>
      <trkpt lat="42.506296969950199" lon="3.11550403945148">
        <ele>12.15</ele>
        <time>2025-05-15T15:46:59Z</time>
      </trkpt>
      <trkpt lat="42.50636201351881" lon="3.11541804112494">
        <ele>13.119999999999999</ele>
        <time>2025-05-15T15:47:00Z</time>
      </trkpt>
      <trkpt lat="42.506428984925151" lon="3.11541804112494">
        <ele>13.119999999999999</ele>
        <time>2025-05-15T15:47:01Z</time>
      </trkpt>
      <trkpt lat="42.506545996293426" lon="3.115462968125939">
        <ele>14.08</ele>
        <time>2025-05-15T15:47:02Z</time>
      </trkpt>
      <trkpt lat="42.50657600350678" lon="3.115640999749303">
        <ele>14.56</ele>
        <time>2025-05-15T15:47:03Z</time>
      </trkpt>
      <trkpt lat="42.50657600350678" lon="3.115753987804055">
        <ele>15.52</ele>
        <time>2025-05-15T15:47:04Z</time>
      </trkpt>
      <trkpt lat="42.50657600350678" lon="3.115883991122246">
        <ele>16</ele>
        <time>2025-05-15T15:47:05Z</time>
      </trkpt>
      <trkpt lat="42.50657600350678" lon="3.116031009703875">
        <ele>16.960000000000001</ele>
        <time>2025-05-15T15:47:06Z</time>
      </trkpt>
      <trkpt lat="42.50657600350678" lon="3.116209041327238">
        <ele>17.920000000000002</ele>
        <time>2025-05-15T15:47:07Z</time>
      </trkpt>
      <trkpt lat="42.506587989628315" lon="3.116424959152937">
        <ele>18.879999999999999</ele>
        <time>2025-05-15T15:47:08Z</time>
      </trkpt>
      <trkpt lat="42.506655966863036" lon="3.116879006847739">
        <ele>21.77</ele>
        <time>2025-05-15T15:47:10Z</time>
      </trkpt>
      <trkpt lat="42.506722016260028" lon="3.117048991844058">
        <ele>23.210000000000001</ele>
        <time>2025-05-15T15:47:11Z</time>
      </trkpt>
      <trkpt lat="42.506785970181227" lon="3.117186035960913">
        <ele>24.170000000000002</ele>
        <time>2025-05-15T15:47:12Z</time>
      </trkpt>
      <trkpt lat="42.506911028176546" lon="3.117283014580607">
        <ele>25.129999999999999</ele>
        <time>2025-05-15T15:47:13Z</time>
      </trkpt>
      <trkpt lat="42.507042037323117" lon="3.117336994037032">
        <ele>26.57</ele>
        <time>2025-05-15T15:47:14Z</time>
      </trkpt>
      <trkpt lat="42.507200036197901" lon="3.117340011522174">
        <ele>27.530000000000001</ele>
        <time>2025-05-15T15:47:15Z</time>
      </trkpt>
      <trkpt lat="42.507338002324104" lon="3.1173300370574">
        <ele>28.98</ele>
        <time>2025-05-15T15:47:16Z</time>
      </trkpt>
      <trkpt lat="42.507464988157153" lon="3.117258958518505">
        <ele>30.420000000000002</ele>
        <time>2025-05-15T15:47:17Z</time>
      </trkpt>
      <trkpt lat="42.507605971768498" lon="3.117156028747559">
        <ele>31.379999999999999</ele>
        <time>2025-05-15T15:47:18Z</time>
      </trkpt>
      <trkpt lat="42.507696999236941" lon="3.117025019600987">
        <ele>32.82</ele>
        <time>2025-05-15T15:47:19Z</time>
      </trkpt>
      <trkpt lat="42.50780001282692" lon="3.116876995190978">
        <ele>34.259999999999998</ele>
        <time>2025-05-15T15:47:20Z</time>
      </trkpt>
      <trkpt lat="42.508002016693354" lon="3.116637021303177">
        <ele>37.149999999999999</ele>
        <time>2025-05-15T15:47:22Z</time>
      </trkpt>
      <trkpt lat="42.508122967556119" lon="3.11657901853323">
        <ele>38.590000000000003</ele>
        <time>2025-05-15T15:47:23Z</time>
      </trkpt>
      <trkpt lat="42.508247019723058" lon="3.116519004106522">
        <ele>39.549999999999997</ele>
        <time>2025-05-15T15:47:24Z</time>
      </trkpt>
      <trkpt lat="42.508367970585823" lon="3.116459995508194">
        <ele>40.509999999999998</ele>
        <time>2025-05-15T15:47:25Z</time>
      </trkpt>
      <trkpt lat="42.508483976125717" lon="3.116404004395008">
        <ele>41.469999999999999</ele>
        <time>2025-05-15T15:47:26Z</time>
      </trkpt>
      <trkpt lat="42.508587995544076" lon="3.116330998018384">
        <ele>42.439999999999998</ele>
        <time>2025-05-15T15:47:27Z</time>
      </trkpt>
      <trkpt lat="42.508657984435558" lon="3.116198983043432">
        <ele>43.399999999999999</ele>
        <time>2025-05-15T15:47:28Z</time>
      </trkpt>
      <trkpt lat="42.508731996640563" lon="3.116056993603706">
        <ele>44.359999999999999</ele>
        <time>2025-05-15T15:47:29Z</time>
      </trkpt>
      <trkpt lat="42.508811037987471" lon="3.115907041355968">
        <ele>44.840000000000003</ele>
        <time>2025-05-15T15:47:30Z</time>
      </trkpt>
      <trkpt lat="42.508889995515347" lon="3.115758011117578">
        <ele>46.280000000000001</ele>
        <time>2025-05-15T15:47:31Z</time>
      </trkpt>
      <trkpt lat="42.508969036862254" lon="3.115606969222426">
        <ele>47.240000000000002</ele>
        <time>2025-05-15T15:47:32Z</time>
      </trkpt>
      <trkpt lat="42.50906802713871" lon="3.115478977560997">
        <ele>48.200000000000003</ele>
        <time>2025-05-15T15:47:33Z</time>
      </trkpt>
      <trkpt lat="42.509196018800139" lon="3.115388033911586">
        <ele>48.68</ele>
        <time>2025-05-15T15:47:34Z</time>
      </trkpt>
      <trkpt lat="42.509332979097962" lon="3.115326007828116">
        <ele>49.649999999999999</ele>
        <time>2025-05-15T15:47:35Z</time>
      </trkpt>
      <trkpt lat="42.509479997679591" lon="3.115317039191723">
        <ele>50.609999999999999</ele>
        <time>2025-05-15T15:47:36Z</time>
      </trkpt>
      <trkpt lat="42.509632967412472" lon="3.115350985899568">
        <ele>51.57</ele>
        <time>2025-05-15T15:47:37Z</time>
      </trkpt>
      <trkpt lat="42.50977898016572" lon="3.115383004769683">
        <ele>52.530000000000001</ele>
        <time>2025-05-15T15:47:38Z</time>
      </trkpt>
      <trkpt lat="42.509904038161039" lon="3.115430027246475">
        <ele>53.969999999999999</ele>
        <time>2025-05-15T15:47:39Z</time>
      </trkpt>
      <trkpt lat="42.509988024830818" lon="3.115541003644466">
        <ele>54.450000000000003</ele>
        <time>2025-05-15T15:47:40Z</time>
      </trkpt>
      <trkpt lat="42.510030018165708" lon="3.115695985034108">
        <ele>55.409999999999997</ele>
        <time>2025-05-15T15:47:41Z</time>
      </trkpt>
      <trkpt lat="42.510076034814119" lon="3.115863036364317">
        <ele>55.890000000000001</ele>
        <time>2025-05-15T15:47:42Z</time>
      </trkpt>
      <trkpt lat="42.510149041190743" lon="3.116018017753959">
        <ele>57.340000000000003</ele>
        <time>2025-05-15T15:47:43Z</time>
      </trkpt>
      <trkpt lat="42.510232022032142" lon="3.116147015243769">
        <ele>57.82</ele>
        <time>2025-05-15T15:47:44Z</time>
      </trkpt>
      <trkpt lat="42.510362025350332" lon="3.116221027448773">
        <ele>58.780000000000001</ele>
        <time>2025-05-15T15:47:45Z</time>
      </trkpt>
      <trkpt lat="42.510503008961678" lon="3.116284981369972">
        <ele>59.740000000000002</ele>
        <time>2025-05-15T15:47:46Z</time>
      </trkpt>
      <trkpt lat="42.510652039200068" lon="3.116352036595345">
        <ele>61.18</ele>
        <time>2025-05-15T15:47:47Z</time>
      </trkpt>
      <trkpt lat="42.510819006711245" lon="3.116390006616712">
        <ele>62.140000000000001</ele>
        <time>2025-05-15T15:47:48Z</time>
      </trkpt>
      <trkpt lat="42.51098396256566" lon="3.116422025486827">
        <ele>63.579999999999998</ele>
        <time>2025-05-15T15:47:49Z</time>
      </trkpt>
      <trkpt lat="42.511143973097205" lon="3.116452032700181">
        <ele>65.030000000000001</ele>
        <time>2025-05-15T15:47:50Z</time>
      </trkpt>
      <trkpt lat="42.511284034699202" lon="3.116490002721548">
        <ele>66.469999999999999</ele>
        <time>2025-05-15T15:47:51Z</time>
      </trkpt>
      <trkpt lat="42.511401968076825" lon="3.11653702519834">
        <ele>67.430000000000007</ele>
        <time>2025-05-15T15:47:52Z</time>
      </trkpt>
      <trkpt lat="42.511503975838423" lon="3.116554962471128">
        <ele>68.390000000000001</ele>
        <time>2025-05-15T15:47:53Z</time>
      </trkpt>
      <trkpt lat="42.511587962508202" lon="3.116526966914535">
        <ele>69.349999999999994</ele>
        <time>2025-05-15T15:47:54Z</time>
      </trkpt>
      <trkpt lat="42.511665998026729" lon="3.116462007164955">
        <ele>69.829999999999998</ele>
        <time>2025-05-15T15:47:55Z</time>
      </trkpt>
      <trkpt lat="42.511720983311534" lon="3.116371985524893">
        <ele>69.829999999999998</ele>
        <time>2025-05-15T15:47:56Z</time>
      </trkpt>
      <trkpt lat="42.511759037151933" lon="3.116248017176986">
        <ele>69.829999999999998</ele>
        <time>2025-05-15T15:47:57Z</time>
      </trkpt>
      <trkpt lat="42.511784015223384" lon="3.116090018302202">
        <ele>69.349999999999994</ele>
        <time>2025-05-15T15:47:58Z</time>
      </trkpt>
      <trkpt lat="42.511812010779977" lon="3.115916009992361">
        <ele>68.870000000000005</ele>
        <time>2025-05-15T15:47:59Z</time>
      </trkpt>
      <trkpt lat="42.511847969144583" lon="3.115729009732604">
        <ele>68.870000000000005</ele>
        <time>2025-05-15T15:48:00Z</time>
      </trkpt>
      <trkpt lat="42.511901026591659" lon="3.115534968674183">
        <ele>68.390000000000001</ele>
        <time>2025-05-15T15:48:01Z</time>
      </trkpt>
      <trkpt lat="42.512263962998986" lon="3.11404399573803">
        <ele>63.579999999999998</ele>
        <time>2025-05-15T15:48:08Z</time>
      </trkpt>
      <trkpt lat="42.512282989919186" lon="3.113840986043215">
        <ele>63.100000000000001</ele>
        <time>2025-05-15T15:48:09Z</time>
      </trkpt>
      <trkpt lat="42.512301011011004" lon="3.1136379763484">
        <ele>62.140000000000001</ele>
        <time>2025-05-15T15:48:10Z</time>
      </trkpt>
      <trkpt lat="42.512354990467429" lon="3.113438989967108">
        <ele>60.700000000000003</ele>
        <time>2025-05-15T15:48:11Z</time>
      </trkpt>
      <trkpt lat="42.512421039864421" lon="3.113233968615532">
        <ele>59.740000000000002</ele>
        <time>2025-05-15T15:48:12Z</time>
      </trkpt>
      <trkpt lat="42.512520030140877" lon="3.11284395866096">
        <ele>57.340000000000003</ele>
        <time>2025-05-15T15:48:14Z</time>
      </trkpt>
      <trkpt lat="42.512520030140877" lon="3.11266902834177">
        <ele>56.369999999999997</ele>
        <time>2025-05-15T15:48:15Z</time>
      </trkpt>
      <trkpt lat="42.512493962422013" lon="3.112490996718407">
        <ele>55.409999999999997</ele>
        <time>2025-05-15T15:48:16Z</time>
      </trkpt>
      <trkpt lat="42.512391032651067" lon="3.111941982060671">
        <ele>53.490000000000002</ele>
        <time>2025-05-15T15:48:19Z</time>
      </trkpt>
      <trkpt lat="42.512440988793969" lon="3.111817007884383">
        <ele>53.009999999999998</ele>
        <time>2025-05-15T15:48:20Z</time>
      </trkpt>
      <trkpt lat="42.512495974078774" lon="3.111652974039316">
        <ele>52.530000000000001</ele>
        <time>2025-05-15T15:48:21Z</time>
      </trkpt>
      <trkpt lat="42.512584989890456" lon="3.111311998218298">
        <ele>50.609999999999999</ele>
        <time>2025-05-15T15:48:23Z</time>
      </trkpt>
      <trkpt lat="42.51261499710381" lon="3.111115023493767">
        <ele>49.159999999999997</ele>
        <time>2025-05-15T15:48:24Z</time>
      </trkpt>
      <trkpt lat="42.512607034295797" lon="3.110887035727501">
        <ele>48.200000000000003</ele>
        <time>2025-05-15T15:48:25Z</time>
      </trkpt>
      <trkpt lat="42.51254903152585" lon="3.110697017982602">
        <ele>47.240000000000002</ele>
        <time>2025-05-15T15:48:26Z</time>
      </trkpt>
      <trkpt lat="42.512489017099142" lon="3.1105019710958">
        <ele>46.759999999999998</ele>
        <time>2025-05-15T15:48:27Z</time>
      </trkpt>
      <trkpt lat="42.512468984350562" lon="3.110300973057747">
        <ele>45.799999999999997</ele>
        <time>2025-05-15T15:48:28Z</time>
      </trkpt>
      <trkpt lat="42.512458004057407" lon="3.110102992504835">
        <ele>44.840000000000003</ele>
        <time>2025-05-15T15:48:29Z</time>
      </trkpt>
      <trkpt lat="42.512493040412664" lon="3.109944993630052">
        <ele>44.359999999999999</ele>
        <time>2025-05-15T15:48:30Z</time>
      </trkpt>
      <trkpt lat="42.51255196519196" lon="3.109779031947255">
        <ele>43.399999999999999</ele>
        <time>2025-05-15T15:48:31Z</time>
      </trkpt>
      <trkpt lat="42.512610973790288" lon="3.109608041122556">
        <ele>42.920000000000002</ele>
        <time>2025-05-15T15:48:32Z</time>
      </trkpt>
      <trkpt lat="42.512672999873757" lon="3.109431015327573">
        <ele>41.950000000000003</ele>
        <time>2025-05-15T15:48:33Z</time>
      </trkpt>
      <trkpt lat="42.512770984321833" lon="3.109028013423085">
        <ele>40.509999999999998</ele>
        <time>2025-05-15T15:48:35Z</time>
      </trkpt>
      <trkpt lat="42.512789005413651" lon="3.108830032870174">
        <ele>39.549999999999997</ele>
        <time>2025-05-15T15:48:36Z</time>
      </trkpt>
      <trkpt lat="42.512787999585271" lon="3.108622999861836">
        <ele>38.590000000000003</ele>
        <time>2025-05-15T15:48:37Z</time>
      </trkpt>
      <trkpt lat="42.512765033170581" lon="3.108420995995402">
        <ele>37.630000000000003</ele>
        <time>2025-05-15T15:48:38Z</time>
      </trkpt>
      <trkpt lat="42.512726979330182" lon="3.108219997957349">
        <ele>36.670000000000002</ele>
        <time>2025-05-15T15:48:39Z</time>
      </trkpt>
      <trkpt lat="42.512675011530519" lon="3.108010031282902">
        <ele>35.710000000000001</ele>
        <time>2025-05-15T15:48:40Z</time>
      </trkpt>
      <trkpt lat="42.512622037902474" lon="3.107795035466552">
        <ele>34.740000000000002</ele>
        <time>2025-05-15T15:48:41Z</time>
      </trkpt>
      <trkpt lat="42.512263040989637" lon="3.105606017634273">
        <ele>31.859999999999999</ele>
        <time>2025-05-15T15:48:50Z</time>
      </trkpt>
      <trkpt lat="42.512297993525863" lon="3.102890029549599">
        <ele>35.229999999999997</ele>
        <time>2025-05-15T15:49:00Z</time>
      </trkpt>
      <trkpt lat="42.512519024312496" lon="3.099257983267307">
        <ele>46.280000000000001</ele>
        <time>2025-05-15T15:49:13Z</time>
      </trkpt>
      <trkpt lat="42.512263040989637" lon="3.096776017919183">
        <ele>54.450000000000003</ele>
        <time>2025-05-15T15:49:21Z</time>
      </trkpt>
      <trkpt lat="42.511517973616719" lon="3.095131991431117">
        <ele>61.659999999999997</ele>
        <time>2025-05-15T15:49:27Z</time>
      </trkpt>
      <trkpt lat="42.510071005672216" lon="3.092375015839934">
        <ele>76.560000000000002</ele>
        <time>2025-05-15T15:49:38Z</time>
      </trkpt>
      <trkpt lat="42.509660962969065" lon="3.090625964105129">
        <ele>85.209999999999994</ele>
        <time>2025-05-15T15:49:45Z</time>
      </trkpt>
      <trkpt lat="42.509358040988445" lon="3.088424038141966">
        <ele>95.310000000000002</ele>
        <time>2025-05-15T15:49:54Z</time>
      </trkpt>
      <trkpt lat="42.509436998516321" lon="3.087441008538008">
        <ele>99.629999999999995</ele>
        <time>2025-05-15T15:49:58Z</time>
      </trkpt>
      <trkpt lat="42.509482009336352" lon="3.08720899745822">
        <ele>100.59999999999999</ele>
        <time>2025-05-15T15:49:59Z</time>
      </trkpt>
      <trkpt lat="42.509527020156384" lon="3.086981009691954">
        <ele>101.56</ele>
        <time>2025-05-15T15:50:00Z</time>
      </trkpt>
      <trkpt lat="42.510104030370712" lon="3.085422981530428">
        <ele>106.84</ele>
        <time>2025-05-15T15:50:08Z</time>
      </trkpt>
      <trkpt lat="42.510566962882876" lon="3.084483034908772">
        <ele>109.25</ele>
        <time>2025-05-15T15:50:14Z</time>
      </trkpt>
      <trkpt lat="42.513520997017622" lon="3.077303012832999">
        <ele>109.73</ele>
        <time>2025-05-15T15:50:47Z</time>
      </trkpt>
      <trkpt lat="42.513286974281073" lon="3.07805797085166">
        <ele>101.08</ele>
        <time>2025-05-15T15:50:52Z</time>
      </trkpt>
      <trkpt lat="42.514081997796893" lon="3.075697962194681">
        <ele>89.060000000000002</ele>
        <time>2025-05-15T15:51:02Z</time>
      </trkpt>
      <trkpt lat="42.515311958268285" lon="3.073163023218513">
        <ele>78.480000000000004</ele>
        <time>2025-05-15T15:51:13Z</time>
      </trkpt>
      <trkpt lat="42.516275038942695" lon="3.071386981755495">
        <ele>83.769999999999996</ele>
        <time>2025-05-15T15:51:21Z</time>
      </trkpt>
      <trkpt lat="42.516553988680243" lon="3.071085987612605">
        <ele>87.140000000000001</ele>
        <time>2025-05-15T15:51:23Z</time>
      </trkpt>
      <trkpt lat="42.516723973676562" lon="3.070965958759189">
        <ele>88.579999999999998</ele>
        <time>2025-05-15T15:51:24Z</time>
      </trkpt>
      <trkpt lat="42.516902005299926" lon="3.070840984582901">
        <ele>90.5</ele>
        <time>2025-05-15T15:51:25Z</time>
      </trkpt>
      <trkpt lat="42.518210001289845" lon="3.070169007405639">
        <ele>102.04000000000001</ele>
        <time>2025-05-15T15:51:32Z</time>
      </trkpt>
      <trkpt lat="42.518391972407699" lon="3.070033974945545">
        <ele>103.48</ele>
        <time>2025-05-15T15:51:33Z</time>
      </trkpt>
      <trkpt lat="42.51856698654592" lon="3.069881005212665">
        <ele>104.44</ele>
        <time>2025-05-15T15:51:34Z</time>
      </trkpt>
      <trkpt lat="42.518730014562607" lon="3.069696016609669">
        <ele>105.40000000000001</ele>
        <time>2025-05-15T15:51:35Z</time>
      </trkpt>
      <trkpt lat="42.520511001348495" lon="3.067779997363687">
        <ele>110.69</ele>
        <time>2025-05-15T15:51:46Z</time>
      </trkpt>
      <trkpt lat="42.522008009254932" lon="3.066620025783777">
        <ele>105.88</ele>
        <time>2025-05-15T15:51:55Z</time>
      </trkpt>
      <trkpt lat="42.523597972467542" lon="3.065136009827256">
        <ele>95.310000000000002</ele>
        <time>2025-05-15T15:52:05Z</time>
      </trkpt>
      <trkpt lat="42.525234958156943" lon="3.06372701190412">
        <ele>80.890000000000001</ele>
        <time>2025-05-15T15:52:14Z</time>
      </trkpt>
      <trkpt lat="42.525554979220033" lon="3.063330966979265">
        <ele>77.040000000000006</ele>
        <time>2025-05-15T15:52:16Z</time>
      </trkpt>
      <trkpt lat="42.526354026049376" lon="3.06179297156632">
        <ele>62.140000000000001</ele>
        <time>2025-05-15T15:52:23Z</time>
      </trkpt>
      <trkpt lat="42.527110995724797" lon="3.05938602425158">
        <ele>45.32</ele>
        <time>2025-05-15T15:52:33Z</time>
      </trkpt>
      <trkpt lat="42.527359016239643" lon="3.058926025405526">
        <ele>42.439999999999998</ele>
        <time>2025-05-15T15:52:35Z</time>
      </trkpt>
      <trkpt lat="42.527509974315763" lon="3.05872100405395">
        <ele>40.990000000000002</ele>
        <time>2025-05-15T15:52:36Z</time>
      </trkpt>
      <trkpt lat="42.527677025645971" lon="3.05852796882391">
        <ele>39.549999999999997</ele>
        <time>2025-05-15T15:52:37Z</time>
      </trkpt>
      <trkpt lat="42.527840975672007" lon="3.058340968564153">
        <ele>38.109999999999999</ele>
        <time>2025-05-15T15:52:38Z</time>
      </trkpt>
      <trkpt lat="42.528027975931764" lon="3.058212976902723">
        <ele>37.149999999999999</ele>
        <time>2025-05-15T15:52:39Z</time>
      </trkpt>
      <trkpt lat="42.528216987848282" lon="3.058082973584533">
        <ele>35.710000000000001</ele>
        <time>2025-05-15T15:52:40Z</time>
      </trkpt>
      <trkpt lat="42.529452983289957" lon="3.057421976700425">
        <ele>32.340000000000003</ele>
        <time>2025-05-15T15:52:47Z</time>
      </trkpt>
      <trkpt lat="42.529945001006126" lon="3.057015035301447">
        <ele>30.899999999999999</ele>
        <time>2025-05-15T15:52:50Z</time>
      </trkpt>
      <trkpt lat="42.53010299988091" lon="3.056835997849703">
        <ele>30.420000000000002</ele>
        <time>2025-05-15T15:52:51Z</time>
      </trkpt>
      <trkpt lat="42.53025496378541" lon="3.056627959012985">
        <ele>29.940000000000001</ele>
        <time>2025-05-15T15:52:52Z</time>
      </trkpt>
      <trkpt lat="42.531051998957992" lon="3.054944034665823">
        <ele>28.5</ele>
        <time>2025-05-15T15:52:59Z</time>
      </trkpt>
      <trkpt lat="42.531129028648138" lon="3.054686961695552">
        <ele>28.02</ele>
        <time>2025-05-15T15:53:00Z</time>
      </trkpt>
      <trkpt lat="42.531174961477518" lon="3.054428966715932">
        <ele>27.050000000000001</ele>
        <time>2025-05-15T15:53:01Z</time>
      </trkpt>
      <trkpt lat="42.531459024176002" lon="3.051773998886347">
        <ele>24.170000000000002</ele>
        <time>2025-05-15T15:53:11Z</time>
      </trkpt>
      <trkpt lat="42.532062018290162" lon="3.049667961895466">
        <ele>20.32</ele>
        <time>2025-05-15T15:53:19Z</time>
      </trkpt>
      <trkpt lat="42.532994002103806" lon="3.047341983765364">
        <ele>16</ele>
        <time>2025-05-15T15:53:27Z</time>
      </trkpt>
      <trkpt lat="42.534541971981525" lon="3.043483039364219">
        <ele>17.440000000000001</ele>
        <time>2025-05-15T15:53:39Z</time>
      </trkpt>
      <trkpt lat="42.535159969702363" lon="3.040604023262858">
        <ele>18.399999999999999</ele>
        <time>2025-05-15T15:53:47Z</time>
      </trkpt>
      <trkpt lat="42.535287961363792" lon="3.037607995793223">
        <ele>20.32</ele>
        <time>2025-05-15T15:53:55Z</time>
      </trkpt>
      <trkpt lat="42.535315034911036" lon="3.037229971960187">
        <ele>20.32</ele>
        <time>2025-05-15T15:53:56Z</time>
      </trkpt>
      <trkpt lat="42.535680988803506" lon="3.034663014113903">
        <ele>20.32</ele>
        <time>2025-05-15T15:54:03Z</time>
      </trkpt>
      <trkpt lat="42.536604003980756" lon="3.031566990539432">
        <ele>21.289999999999999</ele>
        <time>2025-05-15T15:54:12Z</time>
      </trkpt>
      <trkpt lat="42.537651993334293" lon="3.028292013332248">
        <ele>20.809999999999999</ele>
        <time>2025-05-15T15:54:22Z</time>
      </trkpt>
      <trkpt lat="42.539195017889142" lon="3.023485997691751">
        <ele>16.960000000000001</ele>
        <time>2025-05-15T15:54:37Z</time>
      </trkpt>
      <trkpt lat="42.540814988315105" lon="3.018445959314704">
        <ele>16.48</ele>
        <time>2025-05-15T15:54:53Z</time>
      </trkpt>
      <trkpt lat="42.542572002857924" lon="3.013052958995104">
        <ele>19.359999999999999</ele>
        <time>2025-05-15T15:55:10Z</time>
      </trkpt>
      <trkpt lat="42.543668020516634" lon="3.010707031935453">
        <ele>21.289999999999999</ele>
        <time>2025-05-15T15:55:18Z</time>
      </trkpt>
      <trkpt lat="42.544357012957335" lon="3.009692989289761">
        <ele>21.77</ele>
        <time>2025-05-15T15:55:22Z</time>
      </trkpt>
      <trkpt lat="42.546179993078113" lon="3.007787028327584">
        <ele>24.170000000000002</ele>
        <time>2025-05-15T15:55:31Z</time>
      </trkpt>
      <trkpt lat="42.54810799844563" lon="3.006681958213449">
        <ele>25.609999999999999</ele>
        <time>2025-05-15T15:55:39Z</time>
      </trkpt>
      <trkpt lat="42.550168018788099" lon="3.006187006831169">
        <ele>26.09</ele>
        <time>2025-05-15T15:55:47Z</time>
      </trkpt>
      <trkpt lat="42.551709031686187" lon="3.006155993789434">
        <ele>26.09</ele>
        <time>2025-05-15T15:55:53Z</time>
      </trkpt>
      <trkpt lat="42.554871020838618" lon="3.006197987124324">
        <ele>25.609999999999999</ele>
        <time>2025-05-15T15:56:05Z</time>
      </trkpt>
      <trkpt lat="42.55775598809123" lon="3.006212990731001">
        <ele>19.84</ele>
        <time>2025-05-15T15:56:16Z</time>
      </trkpt>
      <trkpt lat="42.561159962788224" lon="3.006207039579749">
        <ele>15.52</ele>
        <time>2025-05-15T15:56:29Z</time>
      </trkpt>
      <trkpt lat="42.563221994787455" lon="3.005650984123349">
        <ele>13.6</ele>
        <time>2025-05-15T15:56:37Z</time>
      </trkpt>
      <trkpt lat="42.564872978255153" lon="3.004547003656626">
        <ele>10.23</ele>
        <time>2025-05-15T15:56:44Z</time>
      </trkpt>
      <trkpt lat="42.567461980506778" lon="3.002090016379952">
        <ele>9.27</ele>
        <time>2025-05-15T15:56:56Z</time>
      </trkpt>
      <trkpt lat="42.569573968648911" lon="2.999963024631143">
        <ele>9.27</ele>
        <time>2025-05-15T15:57:06Z</time>
      </trkpt>
      <trkpt lat="42.572400011122227" lon="2.997331023216248">
        <ele>10.23</ele>
        <time>2025-05-15T15:57:19Z</time>
      </trkpt>
      <trkpt lat="42.575080962851644" lon="2.99505801871419">
        <ele>12.630000000000001</ele>
        <time>2025-05-15T15:57:31Z</time>
      </trkpt>
      <trkpt lat="42.577910022810102" lon="2.992392992600799">
        <ele>10.710000000000001</ele>
        <time>2025-05-15T15:57:44Z</time>
      </trkpt>
      <trkpt lat="42.580285035073757" lon="2.990154018625617">
        <ele>9.75</ele>
        <time>2025-05-15T15:57:55Z</time>
      </trkpt>
      <trkpt lat="42.582169035449624" lon="2.98837898299098">
        <ele>11.19</ele>
        <time>2025-05-15T15:58:04Z</time>
      </trkpt>
      <trkpt lat="42.583808032795787" lon="2.986822966486216">
        <ele>16</ele>
        <time>2025-05-15T15:58:13Z</time>
      </trkpt>
      <trkpt lat="42.585421968251467" lon="2.985311960801482">
        <ele>19.359999999999999</ele>
        <time>2025-05-15T15:58:22Z</time>
      </trkpt>
      <trkpt lat="42.587074041366577" lon="2.983743958175182">
        <ele>18.879999999999999</ele>
        <time>2025-05-15T15:58:31Z</time>
      </trkpt>
      <trkpt lat="42.588760983198881" lon="2.982678031548858">
        <ele>17.440000000000001</ele>
        <time>2025-05-15T15:58:39Z</time>
      </trkpt>
      <trkpt lat="42.59028397500515" lon="2.982222978025675">
        <ele>16</ele>
        <time>2025-05-15T15:58:46Z</time>
      </trkpt>
      <trkpt lat="42.592423958703876" lon="2.981733977794647">
        <ele>16</ele>
        <time>2025-05-15T15:58:54Z</time>
      </trkpt>
      <trkpt lat="42.595234997570515" lon="2.981241960078478">
        <ele>14.08</ele>
        <time>2025-05-15T15:59:04Z</time>
      </trkpt>
      <trkpt lat="42.597057977691293" lon="2.981570027768612">
        <ele>13.119999999999999</ele>
        <time>2025-05-15T15:59:11Z</time>
      </trkpt>
      <trkpt lat="42.598802000284195" lon="2.982497988268733">
        <ele>11.67</ele>
        <time>2025-05-15T15:59:18Z</time>
      </trkpt>
      <trkpt lat="42.600984983146191" lon="2.983675980940461">
        <ele>12.15</ele>
        <time>2025-05-15T15:59:27Z</time>
      </trkpt>
      <trkpt lat="42.602870995178819" lon="2.983842026442289">
        <ele>10.23</ele>
        <time>2025-05-15T15:59:34Z</time>
      </trkpt>
      <trkpt lat="42.605486987158656" lon="2.983940010890365">
        <ele>9.75</ele>
        <time>2025-05-15T15:59:44Z</time>
      </trkpt>
      <trkpt lat="42.608498018234968" lon="2.984739979729056">
        <ele>9.27</ele>
        <time>2025-05-15T15:59:56Z</time>
      </trkpt>
      <trkpt lat="42.611153991892934" lon="2.985223028808832">
        <ele>6.39</ele>
        <time>2025-05-15T16:00:06Z</time>
      </trkpt>
      <trkpt lat="42.612699028104544" lon="2.984776021912694">
        <ele>5.91</ele>
        <time>2025-05-15T16:00:12Z</time>
      </trkpt>
      <trkpt lat="42.614054968580604" lon="2.983774971216917">
        <ele>5.42</ele>
        <time>2025-05-15T16:00:18Z</time>
      </trkpt>
      <trkpt lat="42.615214018151164" lon="2.98203899525106">
        <ele>4.94</ele>
        <time>2025-05-15T16:00:25Z</time>
      </trkpt>
      <trkpt lat="42.615856993943453" lon="2.980180978775024">
        <ele>3.5</ele>
        <time>2025-05-15T16:00:31Z</time>
      </trkpt>
      <trkpt lat="42.616347000002861" lon="2.97703399322927">
        <ele>-1.3</ele>
        <time>2025-05-15T16:00:40Z</time>
      </trkpt>
      <trkpt lat="42.616772968322039" lon="2.9737030249089">
        <ele>-1.3</ele>
        <time>2025-05-15T16:00:49Z</time>
      </trkpt>
      <trkpt lat="42.616828037425876" lon="2.970279017463327">
        <ele>1.1</ele>
        <time>2025-05-15T16:00:58Z</time>
      </trkpt>
      <trkpt lat="42.616800963878632" lon="2.966539012268186">
        <ele>4.94</ele>
        <time>2025-05-15T16:01:08Z</time>
      </trkpt>
      <trkpt lat="42.616566019132733" lon="2.963940035551786">
        <ele>6.87</ele>
        <time>2025-05-15T16:01:15Z</time>
      </trkpt>
      <trkpt lat="42.616097973659635" lon="2.960653994232416">
        <ele>8.310000000000001</ele>
        <time>2025-05-15T16:01:24Z</time>
      </trkpt>
      <trkpt lat="42.616306012496352" lon="2.958160964772105">
        <ele>7.83</ele>
        <time>2025-05-15T16:01:31Z</time>
      </trkpt>
      <trkpt lat="42.616978995501995" lon="2.956179985776544">
        <ele>5.42</ele>
        <time>2025-05-15T16:01:37Z</time>
      </trkpt>
      <trkpt lat="42.618044000118971" lon="2.954642996191979">
        <ele>4.46</ele>
        <time>2025-05-15T16:01:43Z</time>
      </trkpt>
      <trkpt lat="42.619818029925227" lon="2.952993018552661">
        <ele>3.98</ele>
        <time>2025-05-15T16:01:51Z</time>
      </trkpt>
      <trkpt lat="42.622216008603573" lon="2.950860997661948">
        <ele>3.98</ele>
        <time>2025-05-15T16:02:02Z</time>
      </trkpt>
      <trkpt lat="42.624982036650181" lon="2.948411973193288">
        <ele>5.42</ele>
        <time>2025-05-15T16:02:15Z</time>
      </trkpt>
      <trkpt lat="42.627662988379598" lon="2.946028998121619">
        <ele>10.23</ele>
        <time>2025-05-15T16:02:28Z</time>
      </trkpt>
      <trkpt lat="42.630065996199846" lon="2.943887002766132">
        <ele>8.789999999999999</ele>
        <time>2025-05-15T16:02:39Z</time>
      </trkpt>
      <trkpt lat="42.632504040375352" lon="2.941863024607301">
        <ele>9.27</ele>
        <time>2025-05-15T16:02:49Z</time>
      </trkpt>
      <trkpt lat="42.635222040116787" lon="2.939580967649818">
        <ele>10.23</ele>
        <time>2025-05-15T16:03:01Z</time>
      </trkpt>
      <trkpt lat="42.638085968792439" lon="2.937066983431578">
        <ele>14.08</ele>
        <time>2025-05-15T16:03:14Z</time>
      </trkpt>
      <trkpt lat="42.641056012362242" lon="2.934464989230037">
        <ele>15.039999999999999</ele>
        <time>2025-05-15T16:03:27Z</time>
      </trkpt>
      <trkpt lat="42.643579971045256" lon="2.932270020246506">
        <ele>14.08</ele>
        <time>2025-05-15T16:03:38Z</time>
      </trkpt>
      <trkpt lat="42.646668031811714" lon="2.929559983313084">
        <ele>18.399999999999999</ele>
        <time>2025-05-15T16:03:52Z</time>
      </trkpt>
      <trkpt lat="42.648664014413953" lon="2.928169006481767">
        <ele>22.25</ele>
        <time>2025-05-15T16:04:01Z</time>
      </trkpt>
      <trkpt lat="42.65044298954308" lon="2.927657039836049">
        <ele>23.690000000000001</ele>
        <time>2025-05-15T16:04:09Z</time>
      </trkpt>
      <trkpt lat="42.652303017675877" lon="2.927111964672804">
        <ele>24.170000000000002</ele>
        <time>2025-05-15T16:04:17Z</time>
      </trkpt>
      <trkpt lat="42.654250971972942" lon="2.926550963893533">
        <ele>24.649999999999999</ele>
        <time>2025-05-15T16:04:26Z</time>
      </trkpt>
      <trkpt lat="42.656631013378501" lon="2.925590984523296">
        <ele>24.649999999999999</ele>
        <time>2025-05-15T16:04:37Z</time>
      </trkpt>
      <trkpt lat="42.658190969377756" lon="2.924555987119675">
        <ele>26.09</ele>
        <time>2025-05-15T16:04:45Z</time>
      </trkpt>
      <trkpt lat="42.659606002271175" lon="2.923496011644602">
        <ele>27.050000000000001</ele>
        <time>2025-05-15T16:04:53Z</time>
      </trkpt>
      <trkpt lat="42.661002008244395" lon="2.922459002584219">
        <ele>28.02</ele>
        <time>2025-05-15T16:05:02Z</time>
      </trkpt>
      <trkpt lat="42.662536986172199" lon="2.921305987983942">
        <ele>28.98</ele>
        <time>2025-05-15T16:05:13Z</time>
      </trkpt>
      <trkpt lat="42.663820004090667" lon="2.920583970844746">
        <ele>30.420000000000002</ele>
        <time>2025-05-15T16:05:23Z</time>
      </trkpt>
      <trkpt lat="42.665217015892267" lon="2.919621979817748">
        <ele>30.420000000000002</ele>
        <time>2025-05-15T16:05:35Z</time>
      </trkpt>
      <trkpt lat="42.665392030030489" lon="2.919521983712912">
        <ele>30.420000000000002</ele>
        <time>2025-05-15T16:05:37Z</time>
      </trkpt>
      <trkpt lat="42.665512980893254" lon="2.919466998428106">
        <ele>30.420000000000002</ele>
        <time>2025-05-15T16:05:38Z</time>
      </trkpt>
      <trkpt lat="42.665552962571383" lon="2.919479990378022">
        <ele>30.420000000000002</ele>
        <time>2025-05-15T16:05:39Z</time>
      </trkpt>
      <trkpt lat="42.665635021403432" lon="2.919506980106235">
        <ele>30.899999999999999</ele>
        <time>2025-05-15T16:05:40Z</time>
      </trkpt>
      <trkpt lat="42.665713978931308" lon="2.919527012854815">
        <ele>30.899999999999999</ele>
        <time>2025-05-15T16:05:41Z</time>
      </trkpt>
      <trkpt lat="42.665797965601087" lon="2.919485019519925">
        <ele>31.379999999999999</ele>
        <time>2025-05-15T16:05:42Z</time>
      </trkpt>
      <trkpt lat="42.665881030261517" lon="2.919444032013416">
        <ele>31.379999999999999</ele>
        <time>2025-05-15T16:05:43Z</time>
      </trkpt>
      <trkpt lat="42.665951019152999" lon="2.919363984838128">
        <ele>31.859999999999999</ele>
        <time>2025-05-15T16:05:44Z</time>
      </trkpt>
      <trkpt lat="42.666007010266185" lon="2.919252002611756">
        <ele>31.859999999999999</ele>
        <time>2025-05-15T16:05:45Z</time>
      </trkpt>
      <trkpt lat="42.666024025529623" lon="2.919114036485553">
        <ele>32.340000000000003</ele>
        <time>2025-05-15T16:05:46Z</time>
      </trkpt>
      <trkpt lat="42.666111029684544" lon="2.919005993753672">
        <ele>32.340000000000003</ele>
        <time>2025-05-15T16:05:47Z</time>
      </trkpt>
      <trkpt lat="42.666200967505574" lon="2.918927036225796">
        <ele>32.340000000000003</ele>
        <time>2025-05-15T16:05:48Z</time>
      </trkpt>
      <trkpt lat="42.66629702411592" lon="2.918841037899256">
        <ele>32.82</ele>
        <time>2025-05-15T16:05:49Z</time>
      </trkpt>
      <trkpt lat="42.667781040072441" lon="2.918010978028178">
        <ele>33.299999999999997</ele>
        <time>2025-05-15T16:06:02Z</time>
      </trkpt>
      <trkpt lat="42.668909998610616" lon="2.917362973093987">
        <ele>31.859999999999999</ele>
        <time>2025-05-15T16:06:12Z</time>
      </trkpt>
      <trkpt lat="42.66964903101325" lon="2.916924012824893">
        <ele>33.780000000000001</ele>
        <time>2025-05-15T16:06:20Z</time>
      </trkpt>
      <trkpt lat="42.669733017683029" lon="2.916868021711707">
        <ele>33.780000000000001</ele>
        <time>2025-05-15T16:06:21Z</time>
      </trkpt>
      <trkpt lat="42.669876012951136" lon="2.916771965101361">
        <ele>34.259999999999998</ele>
        <time>2025-05-15T16:06:23Z</time>
      </trkpt>
      <trkpt lat="42.670005010440946" lon="2.916686972603202">
        <ele>34.259999999999998</ele>
        <time>2025-05-15T16:06:26Z</time>
      </trkpt>
      <trkpt lat="42.670073993504047" lon="2.916700970381498">
        <ele>34.259999999999998</ele>
        <time>2025-05-15T16:06:27Z</time>
      </trkpt>
      <trkpt lat="42.67014498822391" lon="2.916732989251614">
        <ele>34.740000000000002</ele>
        <time>2025-05-15T16:06:28Z</time>
      </trkpt>
      <trkpt lat="42.670254036784172" lon="2.916735000908375">
        <ele>34.740000000000002</ele>
        <time>2025-05-15T16:06:29Z</time>
      </trkpt>
      <trkpt lat="42.670340035110712" lon="2.916678003966808">
        <ele>34.740000000000002</ele>
        <time>2025-05-15T16:06:30Z</time>
      </trkpt>
      <trkpt lat="42.670406000688672" lon="2.916548000648618">
        <ele>34.740000000000002</ele>
        <time>2025-05-15T16:06:31Z</time>
      </trkpt>
      <trkpt lat="42.670562993735075" lon="2.916428977623582">
        <ele>35.710000000000001</ele>
        <time>2025-05-15T16:06:33Z</time>
      </trkpt>
      <trkpt lat="42.670643962919712" lon="2.916367035359144">
        <ele>36.189999999999998</ele>
        <time>2025-05-15T16:06:34Z</time>
      </trkpt>
      <trkpt lat="42.6707430370152" lon="2.916291011497378">
        <ele>36.189999999999998</ele>
        <time>2025-05-15T16:06:35Z</time>
      </trkpt>
      <trkpt lat="42.670868011191487" lon="2.916201995685697">
        <ele>36.189999999999998</ele>
        <time>2025-05-15T16:06:36Z</time>
      </trkpt>
      <trkpt lat="42.67100103199482" lon="2.916155979037285">
        <ele>36.670000000000002</ele>
        <time>2025-05-15T16:06:37Z</time>
      </trkpt>
      <trkpt lat="42.672336017712951" lon="2.915502022951841">
        <ele>40.030000000000001</ele>
        <time>2025-05-15T16:06:45Z</time>
      </trkpt>
      <trkpt lat="42.673637978732586" lon="2.914786040782929">
        <ele>41.469999999999999</ele>
        <time>2025-05-15T16:06:53Z</time>
      </trkpt>
      <trkpt lat="42.675032978877425" lon="2.914019012823701">
        <ele>43.399999999999999</ele>
        <time>2025-05-15T16:07:03Z</time>
      </trkpt>
      <trkpt lat="42.676248019561172" lon="2.913400009274483">
        <ele>44.359999999999999</ele>
        <time>2025-05-15T16:07:12Z</time>
      </trkpt>
      <trkpt lat="42.677244963124394" lon="2.91320102289319">
        <ele>41.950000000000003</ele>
        <time>2025-05-15T16:07:20Z</time>
      </trkpt>
      <trkpt lat="42.677520979195833" lon="2.913208985701203">
        <ele>41.469999999999999</ele>
        <time>2025-05-15T16:07:24Z</time>
      </trkpt>
      <trkpt lat="42.677573030814528" lon="2.9132229834795">
        <ele>40.990000000000002</ele>
        <time>2025-05-15T16:07:25Z</time>
      </trkpt>
      <trkpt lat="42.677658023312688" lon="2.91324402205646">
        <ele>40.509999999999998</ele>
        <time>2025-05-15T16:07:26Z</time>
      </trkpt>
      <trkpt lat="42.67777000553906" lon="2.913356004282832">
        <ele>40.509999999999998</ele>
        <time>2025-05-15T16:07:28Z</time>
      </trkpt>
      <trkpt lat="42.677841000258923" lon="2.913389028981328">
        <ele>40.030000000000001</ele>
        <time>2025-05-15T16:07:29Z</time>
      </trkpt>
      <trkpt lat="42.677928004413843" lon="2.913376959040761">
        <ele>39.549999999999997</ele>
        <time>2025-05-15T16:07:30Z</time>
      </trkpt>
      <trkpt lat="42.677994975820184" lon="2.913319962099195">
        <ele>39.07</ele>
        <time>2025-05-15T16:07:31Z</time>
      </trkpt>
      <trkpt lat="42.678057001903653" lon="2.913232035934925">
        <ele>39.07</ele>
        <time>2025-05-15T16:07:32Z</time>
      </trkpt>
      <trkpt lat="42.678108969703317" lon="2.913135979324579">
        <ele>38.590000000000003</ele>
        <time>2025-05-15T16:07:33Z</time>
      </trkpt>
      <trkpt lat="42.678108969703317" lon="2.913017040118575">
        <ele>38.590000000000003</ele>
        <time>2025-05-15T16:07:34Z</time>
      </trkpt>
      <trkpt lat="42.678108969703317" lon="2.91292198933661">
        <ele>38.590000000000003</ele>
        <time>2025-05-15T16:07:35Z</time>
      </trkpt>
      <trkpt lat="42.678185999393463" lon="2.912811012938619">
        <ele>38.109999999999999</ele>
        <time>2025-05-15T16:07:36Z</time>
      </trkpt>
      <trkpt lat="42.67824400216341" lon="2.91272702626884">
        <ele>38.109999999999999</ele>
        <time>2025-05-15T16:07:37Z</time>
      </trkpt>
      <trkpt lat="42.678308039903641" lon="2.912634992972016">
        <ele>38.109999999999999</ele>
        <time>2025-05-15T16:07:38Z</time>
      </trkpt>
      <trkpt lat="42.678376017138362" lon="2.912538014352322">
        <ele>37.630000000000003</ele>
        <time>2025-05-15T16:07:39Z</time>
      </trkpt>
      <trkpt lat="42.678452041000128" lon="2.912427959963679">
        <ele>37.630000000000003</ele>
        <time>2025-05-15T16:07:40Z</time>
      </trkpt>
      <trkpt lat="42.67852102406323" lon="2.912364006042481">
        <ele>37.630000000000003</ele>
        <time>2025-05-15T16:07:41Z</time>
      </trkpt>
      <trkpt lat="42.679374972358346" lon="2.911741985008121">
        <ele>35.229999999999997</ele>
        <time>2025-05-15T16:07:50Z</time>
      </trkpt>
      <trkpt lat="42.680566962808371" lon="2.911012005060911">
        <ele>33.780000000000001</ele>
        <time>2025-05-15T16:08:02Z</time>
      </trkpt>
      <trkpt lat="42.680691014975309" lon="2.910941010341048">
        <ele>33.780000000000001</ele>
        <time>2025-05-15T16:08:04Z</time>
      </trkpt>
      <trkpt lat="42.680826969444752" lon="2.910925000905991">
        <ele>33.780000000000001</ele>
        <time>2025-05-15T16:08:05Z</time>
      </trkpt>
      <trkpt lat="42.680920008569956" lon="2.911033965647221">
        <ele>33.780000000000001</ele>
        <time>2025-05-15T16:08:06Z</time>
      </trkpt>
      <trkpt lat="42.680935012176633" lon="2.911033965647221">
        <ele>33.780000000000001</ele>
        <time>2025-05-15T16:08:07Z</time>
      </trkpt>
      <trkpt lat="42.681010030210018" lon="2.911028014495969">
        <ele>34.259999999999998</ele>
        <time>2025-05-15T16:08:08Z</time>
      </trkpt>
      <trkpt lat="42.681059986352921" lon="2.910964982584119">
        <ele>34.259999999999998</ele>
        <time>2025-05-15T16:08:09Z</time>
      </trkpt>
      <trkpt lat="42.681125029921532" lon="2.910921983420849">
        <ele>34.259999999999998</ele>
        <time>2025-05-15T16:08:10Z</time>
      </trkpt>
      <trkpt lat="42.681182026863098" lon="2.910914020612836">
        <ele>34.740000000000002</ele>
        <time>2025-05-15T16:08:11Z</time>
      </trkpt>
      <trkpt lat="42.68123097717762" lon="2.910905973985791">
        <ele>34.740000000000002</ele>
        <time>2025-05-15T16:08:12Z</time>
      </trkpt>
      <trkpt lat="42.681274982169271" lon="2.910900022834539">
        <ele>34.740000000000002</ele>
        <time>2025-05-15T16:08:13Z</time>
      </trkpt>
      <trkpt lat="42.68131404183805" lon="2.910894993692637">
        <ele>34.740000000000002</ele>
        <time>2025-05-15T16:08:14Z</time>
      </trkpt>
      <trkpt lat="42.681347988545895" lon="2.910889964550734">
        <ele>34.740000000000002</ele>
        <time>2025-05-15T16:08:15Z</time>
      </trkpt>
      <trkpt lat="42.681394005194306" lon="2.910894993692637">
        <ele>34.740000000000002</ele>
        <time>2025-05-15T16:08:16Z</time>
      </trkpt>
      <trkpt lat="42.681399034336209" lon="2.910926006734371">
        <ele>35.229999999999997</ele>
        <time>2025-05-15T16:08:23Z</time>
      </trkpt>
      <trkpt lat="42.6814029738307" lon="2.910951990634203">
        <ele>35.229999999999997</ele>
        <time>2025-05-15T16:08:24Z</time>
      </trkpt>
      <trkpt lat="42.681385958567262" lon="2.911034971475601">
        <ele>35.229999999999997</ele>
        <time>2025-05-15T16:08:25Z</time>
      </trkpt>
      <trkpt lat="42.681371038779616" lon="2.911047041416168">
        <ele>35.710000000000001</ele>
        <time>2025-05-15T16:08:26Z</time>
      </trkpt>
      <trkpt lat="42.681357963010669" lon="2.911058021709323">
        <ele>35.710000000000001</ele>
        <time>2025-05-15T16:08:27Z</time>
      </trkpt>
      <trkpt lat="42.681357963010669" lon="2.911058021709323">
        <ele>36.189999999999998</ele>
        <time>2025-05-15T16:08:38Z</time>
      </trkpt>
      <trkpt lat="42.681357963010669" lon="2.911058021709323">
        <ele>36.189999999999998</ele>
        <time>2025-05-15T16:09:26Z</time>
      </trkpt>
      <trkpt lat="42.681357963010669" lon="2.911058021709323">
        <ele>36.189999999999998</ele>
        <time>2025-05-15T16:10:27Z</time>
      </trkpt>
      <trkpt lat="42.681357963010669" lon="2.911058021709323">
        <ele>37.149999999999999</ele>
        <time>2025-05-15T16:11:18Z</time>
      </trkpt>
      <trkpt lat="42.681357963010669" lon="2.911058021709323">
        <ele>37.149999999999999</ele>
        <time>2025-05-15T16:12:15Z</time>
      </trkpt>
      <trkpt lat="42.681357963010669" lon="2.911058021709323">
        <ele>37.149999999999999</ele>
        <time>2025-05-15T16:13:08Z</time>
      </trkpt>
      <trkpt lat="42.681357963010669" lon="2.911058021709323">
        <ele>37.149999999999999</ele>
        <time>2025-05-15T16:14:08Z</time>
      </trkpt>
      <trkpt lat="42.681357963010669" lon="2.911058021709323">
        <ele>37.149999999999999</ele>
        <time>2025-05-15T16:15:05Z</time>
      </trkpt>
      <trkpt lat="42.681357963010669" lon="2.911058021709323">
        <ele>37.630000000000003</ele>
        <time>2025-05-15T16:16:00Z</time>
      </trkpt>
      <trkpt lat="42.681357963010669" lon="2.911058021709323">
        <ele>38.109999999999999</ele>
        <time>2025-05-15T16:16:46Z</time>
      </trkpt>
      <trkpt lat="42.681340025737882" lon="2.911073025316">
        <ele>38.590000000000003</ele>
        <time>2025-05-15T16:16:53Z</time>
      </trkpt>
      <trkpt lat="42.681371038779616" lon="2.911047041416168">
        <ele>38.590000000000003</ele>
        <time>2025-05-15T16:16:54Z</time>
      </trkpt>
      <trkpt lat="42.681413032114506" lon="2.911008987575769">
        <ele>38.590000000000003</ele>
        <time>2025-05-15T16:16:55Z</time>
      </trkpt>
      <trkpt lat="42.681401968002319" lon="2.910943021997809">
        <ele>39.07</ele>
        <time>2025-05-15T16:16:56Z</time>
      </trkpt>
      <trkpt lat="42.681392999365926" lon="2.910892982035875">
        <ele>39.07</ele>
        <time>2025-05-15T16:16:57Z</time>
      </trkpt>
      <trkpt lat="42.681379001587629" lon="2.910885019227862">
        <ele>39.549999999999997</ele>
        <time>2025-05-15T16:16:58Z</time>
      </trkpt>
      <trkpt lat="42.68135997466743" lon="2.910888036713004">
        <ele>39.549999999999997</ele>
        <time>2025-05-15T16:16:59Z</time>
      </trkpt>
      <trkpt lat="42.681350000202656" lon="2.910888958722353">
        <ele>40.030000000000001</ele>
        <time>2025-05-15T16:17:06Z</time>
      </trkpt>
      <trkpt lat="42.681320998817682" lon="2.910892982035875">
        <ele>40.030000000000001</ele>
        <time>2025-05-15T16:17:07Z</time>
      </trkpt>
      <trkpt lat="42.681285962462425" lon="2.910898011177778">
        <ele>40.030000000000001</ele>
        <time>2025-05-15T16:17:08Z</time>
      </trkpt>
      <trkpt lat="42.681258972734213" lon="2.910902034491301">
        <ele>40.509999999999998</ele>
        <time>2025-05-15T16:17:09Z</time>
      </trkpt>
      <trkpt lat="42.681090999394655" lon="2.910830033943057">
        <ele>40.509999999999998</ele>
        <time>2025-05-15T16:17:19Z</time>
      </trkpt>
      <trkpt lat="42.681090999394655" lon="2.910780999809504">
        <ele>40.509999999999998</ele>
        <time>2025-05-15T16:17:20Z</time>
      </trkpt>
      <trkpt lat="42.681192001327872" lon="2.910676980391145">
        <ele>40.030000000000001</ele>
        <time>2025-05-15T16:17:21Z</time>
      </trkpt>
      <trkpt lat="42.681232988834381" lon="2.910654013976455">
        <ele>40.030000000000001</ele>
        <time>2025-05-15T16:17:22Z</time>
      </trkpt>
      <trkpt lat="42.681286968290806" lon="2.910624006763101">
        <ele>39.549999999999997</ele>
        <time>2025-05-15T16:17:23Z</time>
      </trkpt>
      <trkpt lat="42.681356035172939" lon="2.910584025084972">
        <ele>39.07</ele>
        <time>2025-05-15T16:17:24Z</time>
      </trkpt>
      <trkpt lat="42.681998005136847" lon="2.910211030393839">
        <ele>38.590000000000003</ele>
        <time>2025-05-15T16:17:30Z</time>
      </trkpt>
      <trkpt lat="42.682983968406916" lon="2.909674001857638">
        <ele>40.030000000000001</ele>
        <time>2025-05-15T16:17:38Z</time>
      </trkpt>
      <trkpt lat="42.683456037193537" lon="2.909420030191541">
        <ele>42.920000000000002</ele>
        <time>2025-05-15T16:17:44Z</time>
      </trkpt>
      <trkpt lat="42.684046039357781" lon="2.909105960279703">
        <ele>47.240000000000002</ele>
        <time>2025-05-15T16:17:54Z</time>
      </trkpt>
      <trkpt lat="42.685040971264243" lon="2.908530039712787">
        <ele>50.609999999999999</ele>
        <time>2025-05-15T16:18:03Z</time>
      </trkpt>
      <trkpt lat="42.685735998675227" lon="2.90793601423502">
        <ele>51.090000000000003</ele>
        <time>2025-05-15T16:18:10Z</time>
      </trkpt>
      <trkpt lat="42.685811016708612" lon="2.907835012301803">
        <ele>51.090000000000003</ele>
        <time>2025-05-15T16:18:11Z</time>
      </trkpt>
      <trkpt lat="42.686069011688232" lon="2.907547010108829">
        <ele>50.130000000000003</ele>
        <time>2025-05-15T16:18:15Z</time>
      </trkpt>
      <trkpt lat="42.686235979199409" lon="2.90744299069047">
        <ele>48.68</ele>
        <time>2025-05-15T16:18:21Z</time>
      </trkpt>
      <trkpt lat="42.686273027211428" lon="2.90742002427578">
        <ele>48.68</ele>
        <time>2025-05-15T16:18:22Z</time>
      </trkpt>
      <trkpt lat="42.686334969475865" lon="2.907385993748903">
        <ele>48.200000000000003</ele>
        <time>2025-05-15T16:18:23Z</time>
      </trkpt>
      <trkpt lat="42.686424991115928" lon="2.907381970435381">
        <ele>48.200000000000003</ele>
        <time>2025-05-15T16:18:24Z</time>
      </trkpt>
      <trkpt lat="42.686509983614087" lon="2.907353974878788">
        <ele>47.719999999999999</ele>
        <time>2025-05-15T16:18:25Z</time>
      </trkpt>
      <trkpt lat="42.686591036617756" lon="2.907282980158925">
        <ele>47.240000000000002</ele>
        <time>2025-05-15T16:18:26Z</time>
      </trkpt>
      <trkpt lat="42.686652978882194" lon="2.90716303512454">
        <ele>46.759999999999998</ele>
        <time>2025-05-15T16:18:27Z</time>
      </trkpt>
      <trkpt lat="42.686662031337619" lon="2.907049963250756">
        <ele>46.280000000000001</ele>
        <time>2025-05-15T16:18:28Z</time>
      </trkpt>
      <trkpt lat="42.686668988317251" lon="2.906946027651429">
        <ele>45.799999999999997</ele>
        <time>2025-05-15T16:18:29Z</time>
      </trkpt>
      <trkpt lat="42.686669994145632" lon="2.906934963539243">
        <ele>45.799999999999997</ele>
        <time>2025-05-15T16:18:30Z</time>
      </trkpt>
      <trkpt lat="42.686648033559322" lon="2.906729020178318">
        <ele>45.32</ele>
        <time>2025-05-15T16:18:31Z</time>
      </trkpt>
      <trkpt lat="42.686697989702225" lon="2.906661964952946">
        <ele>44.840000000000003</ele>
        <time>2025-05-15T16:18:32Z</time>
      </trkpt>
      <trkpt lat="42.686762027442455" lon="2.906577978283167">
        <ele>44.840000000000003</ele>
        <time>2025-05-15T16:18:33Z</time>
      </trkpt>
      <trkpt lat="42.686982974410057" lon="2.906286958605051">
        <ele>43.880000000000003</ele>
        <time>2025-05-15T16:18:36Z</time>
      </trkpt>
      <trkpt lat="42.687056986615062" lon="2.906189979985356">
        <ele>43.880000000000003</ele>
        <time>2025-05-15T16:18:37Z</time>
      </trkpt>
      <trkpt lat="42.687129992991686" lon="2.906095013022423">
        <ele>43.880000000000003</ele>
        <time>2025-05-15T16:18:38Z</time>
      </trkpt>
      <trkpt lat="42.687208028510213" lon="2.905993005260825">
        <ele>43.880000000000003</ele>
        <time>2025-05-15T16:18:39Z</time>
      </trkpt>
      <trkpt lat="42.687287991866469" lon="2.905886974185705">
        <ele>43.880000000000003</ele>
        <time>2025-05-15T16:18:40Z</time>
      </trkpt>
      <trkpt lat="42.688016965985298" lon="2.904930012300611">
        <ele>44.840000000000003</ele>
        <time>2025-05-15T16:18:49Z</time>
      </trkpt>
      <trkpt lat="42.688998989760876" lon="2.903612963855267">
        <ele>45.799999999999997</ele>
        <time>2025-05-15T16:19:00Z</time>
      </trkpt>
      <trkpt lat="42.689818991348147" lon="2.902516024187207">
        <ele>48.68</ele>
        <time>2025-05-15T16:19:10Z</time>
      </trkpt>
      <trkpt lat="42.68988898023963" lon="2.902424996718764">
        <ele>49.159999999999997</ele>
        <time>2025-05-15T16:19:11Z</time>
      </trkpt>
      <trkpt lat="42.689951006323099" lon="2.902342015877366">
        <ele>49.649999999999999</ele>
        <time>2025-05-15T16:19:12Z</time>
      </trkpt>
      <trkpt lat="42.690470013767481" lon="2.901660986244679">
        <ele>53.009999999999998</ele>
        <time>2025-05-15T16:19:22Z</time>
      </trkpt>
      <trkpt lat="42.690773019567132" lon="2.901128986850381">
        <ele>53.009999999999998</ele>
        <time>2025-05-15T16:19:30Z</time>
      </trkpt>
      <trkpt lat="42.690868992358446" lon="2.900830004364252">
        <ele>54.450000000000003</ele>
        <time>2025-05-15T16:19:33Z</time>
      </trkpt>
      <trkpt lat="42.6908989995718" lon="2.900716010481119">
        <ele>54.93</ele>
        <time>2025-05-15T16:19:34Z</time>
      </trkpt>
      <trkpt lat="42.69096203148365" lon="2.900473019108176">
        <ele>55.409999999999997</ele>
        <time>2025-05-15T16:19:36Z</time>
      </trkpt>
      <trkpt lat="42.691095974296331" lon="2.899270970374346">
        <ele>58.299999999999997</ele>
        <time>2025-05-15T16:19:45Z</time>
      </trkpt>
      <trkpt lat="42.691118018701673" lon="2.898938041180372">
        <ele>59.259999999999998</ele>
        <time>2025-05-15T16:19:52Z</time>
      </trkpt>
      <trkpt lat="42.691118018701673" lon="2.898938041180372">
        <ele>59.259999999999998</ele>
        <time>2025-05-15T16:20:19Z</time>
      </trkpt>
      <trkpt lat="42.691131010651588" lon="2.898749029263854">
        <ele>60.219999999999999</ele>
        <time>2025-05-15T16:20:38Z</time>
      </trkpt>
      <trkpt lat="42.691137967631221" lon="2.898647021502256">
        <ele>60.219999999999999</ele>
        <time>2025-05-15T16:20:39Z</time>
      </trkpt>
      <trkpt lat="42.691192030906677" lon="2.897934978827834">
        <ele>59.740000000000002</ele>
        <time>2025-05-15T16:20:46Z</time>
      </trkpt>
      <trkpt lat="42.691196976229548" lon="2.897876976057887">
        <ele>59.740000000000002</ele>
        <time>2025-05-15T16:20:47Z</time>
      </trkpt>
      <trkpt lat="42.691200999543071" lon="2.897828025743365">
        <ele>59.259999999999998</ele>
        <time>2025-05-15T16:20:48Z</time>
      </trkpt>
      <trkpt lat="42.691205022856593" lon="2.897785026580095">
        <ele>59.259999999999998</ele>
        <time>2025-05-15T16:20:49Z</time>
      </trkpt>
      <trkpt lat="42.691208040341735" lon="2.897745966911316">
        <ele>59.259999999999998</ele>
        <time>2025-05-15T16:20:50Z</time>
      </trkpt>
      <trkpt lat="42.691225977614522" lon="2.897529965266585">
        <ele>57.82</ele>
        <time>2025-05-15T16:20:58Z</time>
      </trkpt>
      <trkpt lat="42.691230000928044" lon="2.897483026608825">
        <ele>57.340000000000003</ele>
        <time>2025-05-15T16:21:14Z</time>
      </trkpt>
      <trkpt lat="42.691245004534721" lon="2.897307006642222">
        <ele>56.859999999999999</ele>
        <time>2025-05-15T16:21:21Z</time>
      </trkpt>
      <trkpt lat="42.69126595929265" lon="2.897060997784138">
        <ele>60.700000000000003</ele>
        <time>2025-05-15T16:21:41Z</time>
      </trkpt>
      <trkpt lat="42.691297978162766" lon="2.896621031686664">
        <ele>66.950000000000003</ele>
        <time>2025-05-15T16:21:56Z</time>
      </trkpt>
      <trkpt lat="42.69130501896143" lon="2.89652799256146">
        <ele>67.430000000000007</ele>
        <time>2025-05-15T16:22:10Z</time>
      </trkpt>
      <trkpt lat="42.691260008141398" lon="2.896518018096685">
        <ele>66.950000000000003</ele>
        <time>2025-05-15T16:22:11Z</time>
      </trkpt>
      <trkpt lat="42.691227989271283" lon="2.896510977298021">
        <ele>66.950000000000003</ele>
        <time>2025-05-15T16:22:12Z</time>
      </trkpt>
      <trkpt lat="42.691193958744407" lon="2.896503014490008">
        <ele>66.469999999999999</ele>
        <time>2025-05-15T16:22:13Z</time>
      </trkpt>
      <trkpt lat="42.691152971237898" lon="2.896493962034583">
        <ele>66.469999999999999</ele>
        <time>2025-05-15T16:22:14Z</time>
      </trkpt>
      <trkpt lat="42.691106032580137" lon="2.896482981741428">
        <ele>65.989999999999995</ele>
        <time>2025-05-15T16:22:15Z</time>
      </trkpt>
      <trkpt lat="42.69049197435379" lon="2.896325988695025">
        <ele>64.069999999999993</ele>
        <time>2025-05-15T16:22:26Z</time>
      </trkpt>
      <trkpt lat="42.690371023491025" lon="2.896295981481671">
        <ele>63.579999999999998</ele>
        <time>2025-05-15T16:22:28Z</time>
      </trkpt>
      <trkpt lat="42.689869031310081" lon="2.896167989820242">
        <ele>58.780000000000001</ele>
        <time>2025-05-15T16:22:38Z</time>
      </trkpt>
      <trkpt lat="42.689493019133806" lon="2.896024994552136">
        <ele>53.969999999999999</ele>
        <time>2025-05-15T16:22:47Z</time>
      </trkpt>
      <trkpt lat="42.689442979171872" lon="2.89598903618753">
        <ele>53.969999999999999</ele>
        <time>2025-05-15T16:22:48Z</time>
      </trkpt>
      <trkpt lat="42.689396040514112" lon="2.895942013710737">
        <ele>53.490000000000002</ele>
        <time>2025-05-15T16:22:49Z</time>
      </trkpt>
      <trkpt lat="42.689226977527142" lon="2.89571100845933">
        <ele>52.530000000000001</ele>
        <time>2025-05-15T16:22:53Z</time>
      </trkpt>
      <trkpt lat="42.68918196670711" lon="2.895655017346144">
        <ele>52.530000000000001</ele>
        <time>2025-05-15T16:22:54Z</time>
      </trkpt>
      <trkpt lat="42.689137039706111" lon="2.895598020404577">
        <ele>52.530000000000001</ele>
        <time>2025-05-15T16:22:55Z</time>
      </trkpt>
      <trkpt lat="42.68892296589911" lon="2.89526198990643">
        <ele>50.130000000000003</ele>
        <time>2025-05-15T16:23:04Z</time>
      </trkpt>
      <trkpt lat="42.688795980066061" lon="2.895070966333151">
        <ele>46.759999999999998</ele>
        <time>2025-05-15T16:23:14Z</time>
      </trkpt>
      <trkpt lat="42.688795980066061" lon="2.895070966333151">
        <ele>45.799999999999997</ele>
        <time>2025-05-15T16:23:25Z</time>
      </trkpt>
      <trkpt lat="42.688764967024326" lon="2.894872985780239">
        <ele>45.32</ele>
        <time>2025-05-15T16:23:37Z</time>
      </trkpt>
      <trkpt lat="42.688773013651371" lon="2.894793022423983">
        <ele>45.32</ele>
        <time>2025-05-15T16:23:38Z</time>
      </trkpt>
      <trkpt lat="42.688720962032676" lon="2.894715992733836">
        <ele>44.840000000000003</ele>
        <time>2025-05-15T16:23:39Z</time>
      </trkpt>
      <trkpt lat="42.688720962032676" lon="2.89446696639061">
        <ele>44.359999999999999</ele>
        <time>2025-05-15T16:23:41Z</time>
      </trkpt>
      <trkpt lat="42.68875096924603" lon="2.894371999427676">
        <ele>44.359999999999999</ele>
        <time>2025-05-15T16:23:42Z</time>
      </trkpt>
      <trkpt lat="42.688921960070729" lon="2.893832959234715">
        <ele>43.399999999999999</ele>
        <time>2025-05-15T16:23:48Z</time>
      </trkpt>
      <trkpt lat="42.688951967284083" lon="2.893743021413684">
        <ele>43.880000000000003</ele>
        <time>2025-05-15T16:23:49Z</time>
      </trkpt>
      <trkpt lat="42.689017010852695" lon="2.893592985346913">
        <ele>44.359999999999999</ele>
        <time>2025-05-15T16:23:51Z</time>
      </trkpt>
      <trkpt lat="42.689039977267385" lon="2.893539005890489">
        <ele>44.840000000000003</ele>
        <time>2025-05-15T16:23:52Z</time>
      </trkpt>
      <trkpt lat="42.689057998359203" lon="2.893496006727219">
        <ele>44.840000000000003</ele>
        <time>2025-05-15T16:23:53Z</time>
      </trkpt>
      <trkpt lat="42.689076019451022" lon="2.893457030877471">
        <ele>45.32</ele>
        <time>2025-05-15T16:23:54Z</time>
      </trkpt>
      <trkpt lat="42.689097980037332" lon="2.893420988693833">
        <ele>45.799999999999997</ele>
        <time>2025-05-15T16:23:55Z</time>
      </trkpt>
      <trkpt lat="42.689126981422305" lon="2.893375977873802">
        <ele>45.799999999999997</ele>
        <time>2025-05-15T16:23:56Z</time>
      </trkpt>
      <trkpt lat="42.689613969996572" lon="2.892679022625089">
        <ele>46.759999999999998</ele>
        <time>2025-05-15T16:24:05Z</time>
      </trkpt>
      <trkpt lat="42.690203972160816" lon="2.891878969967365">
        <ele>45.32</ele>
        <time>2025-05-15T16:24:14Z</time>
      </trkpt>
      <trkpt lat="42.690264992415905" lon="2.891794983297586">
        <ele>44.840000000000003</ele>
        <time>2025-05-15T16:24:15Z</time>
      </trkpt>
      <trkpt lat="42.690327018499374" lon="2.891708984971046">
        <ele>44.840000000000003</ele>
        <time>2025-05-15T16:24:16Z</time>
      </trkpt>
      <trkpt lat="42.69076899625361" lon="2.891120994463563">
        <ele>45.32</ele>
        <time>2025-05-15T16:24:25Z</time>
      </trkpt>
      <trkpt lat="42.690799003466964" lon="2.891080006957054">
        <ele>45.32</ele>
        <time>2025-05-15T16:24:26Z</time>
      </trkpt>
      <trkpt lat="42.690957002341747" lon="2.890870040282607">
        <ele>45.32</ele>
        <time>2025-05-15T16:24:33Z</time>
      </trkpt>
      <trkpt lat="42.691025985404849" lon="2.890778006985784">
        <ele>45.32</ele>
        <time>2025-05-15T16:24:34Z</time>
      </trkpt>
      <trkpt lat="42.690992960706353" lon="2.890822011977434">
        <ele>45.32</ele>
        <time>2025-05-15T16:24:35Z</time>
      </trkpt>
      <trkpt lat="42.690992960706353" lon="2.890822011977434">
        <ele>45.799999999999997</ele>
        <time>2025-05-15T16:24:47Z</time>
      </trkpt>
      <trkpt lat="42.690992960706353" lon="2.890822011977434">
        <ele>45.799999999999997</ele>
        <time>2025-05-15T16:25:25Z</time>
      </trkpt>
      <trkpt lat="42.690996984019876" lon="2.890816982835531">
        <ele>45.799999999999997</ele>
        <time>2025-05-15T16:25:58Z</time>
      </trkpt>
      <trkpt lat="42.691013999283314" lon="2.890794016420841">
        <ele>45.799999999999997</ele>
        <time>2025-05-15T16:25:59Z</time>
      </trkpt>
      <trkpt lat="42.691039983183146" lon="2.890758980065584">
        <ele>45.32</ele>
        <time>2025-05-15T16:26:00Z</time>
      </trkpt>
      <trkpt lat="42.691076025366783" lon="2.890709023922682">
        <ele>44.840000000000003</ele>
        <time>2025-05-15T16:26:01Z</time>
      </trkpt>
      <trkpt lat="42.691121036186814" lon="2.890646997839212">
        <ele>44.359999999999999</ele>
        <time>2025-05-15T16:26:02Z</time>
      </trkpt>
      <trkpt lat="42.691311975941062" lon="2.89038104005158">
        <ele>42.920000000000002</ele>
        <time>2025-05-15T16:26:06Z</time>
      </trkpt>
      <trkpt lat="42.691360004246235" lon="2.890315996482968">
        <ele>41.950000000000003</ele>
        <time>2025-05-15T16:26:07Z</time>
      </trkpt>
      <trkpt lat="42.691734004765749" lon="2.88982498459518">
        <ele>41.469999999999999</ele>
        <time>2025-05-15T16:26:14Z</time>
      </trkpt>
      <trkpt lat="42.691955035552382" lon="2.889526002109051">
        <ele>41.950000000000003</ele>
        <time>2025-05-15T16:26:18Z</time>
      </trkpt>
      <trkpt lat="42.692070035263896" lon="2.889363979920745">
        <ele>42.439999999999998</ele>
        <time>2025-05-15T16:26:20Z</time>
      </trkpt>
      <trkpt lat="42.692126026377082" lon="2.889284016564488">
        <ele>42.439999999999998</ele>
        <time>2025-05-15T16:26:21Z</time>
      </trkpt>
      <trkpt lat="42.692184029147029" lon="2.889202041551471">
        <ele>42.920000000000002</ele>
        <time>2025-05-15T16:26:22Z</time>
      </trkpt>
      <trkpt lat="42.692660037428141" lon="2.888541966676712">
        <ele>41.469999999999999</ele>
        <time>2025-05-15T16:26:29Z</time>
      </trkpt>
      <trkpt lat="42.692720973864198" lon="2.888458985835314">
        <ele>41.469999999999999</ele>
        <time>2025-05-15T16:26:30Z</time>
      </trkpt>
      <trkpt lat="42.692774031311274" lon="2.888384973630309">
        <ele>40.990000000000002</ele>
        <time>2025-05-15T16:26:31Z</time>
      </trkpt>
      <trkpt lat="42.692905040457845" lon="2.888205014169216">
        <ele>39.549999999999997</ele>
        <time>2025-05-15T16:26:34Z</time>
      </trkpt>
      <trkpt lat="42.692996989935637" lon="2.888079034164548">
        <ele>37.630000000000003</ele>
        <time>2025-05-15T16:26:39Z</time>
      </trkpt>
      <trkpt lat="42.692996989935637" lon="2.888079034164548">
        <ele>37.630000000000003</ele>
        <time>2025-05-15T16:26:56Z</time>
      </trkpt>
      <trkpt lat="42.693061027675867" lon="2.887991024181247">
        <ele>36.670000000000002</ele>
        <time>2025-05-15T16:27:18Z</time>
      </trkpt>
      <trkpt lat="42.693095980212092" lon="2.887942995876074">
        <ele>36.670000000000002</ele>
        <time>2025-05-15T16:27:19Z</time>
      </trkpt>
      <trkpt lat="42.693135039880872" lon="2.887889016419649">
        <ele>36.189999999999998</ele>
        <time>2025-05-15T16:27:20Z</time>
      </trkpt>
      <trkpt lat="42.693179966881871" lon="2.887838976457715">
        <ele>36.189999999999998</ele>
        <time>2025-05-15T16:27:21Z</time>
      </trkpt>
      <trkpt lat="42.693221038207412" lon="2.887845011427999">
        <ele>36.189999999999998</ele>
        <time>2025-05-15T16:27:22Z</time>
      </trkpt>
      <trkpt lat="42.693250039592385" lon="2.887849034741521">
        <ele>36.670000000000002</ele>
        <time>2025-05-15T16:27:23Z</time>
      </trkpt>
      <trkpt lat="42.693278035148978" lon="2.887852974236012">
        <ele>37.630000000000003</ele>
        <time>2025-05-15T16:27:24Z</time>
      </trkpt>
      <trkpt lat="42.693308964371681" lon="2.887858003377914">
        <ele>39.07</ele>
        <time>2025-05-15T16:27:25Z</time>
      </trkpt>
      <trkpt lat="42.693346012383699" lon="2.887863032519817">
        <ele>39.07</ele>
        <time>2025-05-15T16:27:26Z</time>
      </trkpt>
      <trkpt lat="42.693400997668505" lon="2.88787099532783">
        <ele>39.07</ele>
        <time>2025-05-15T16:27:27Z</time>
      </trkpt>
      <trkpt lat="42.693471992388368" lon="2.887880969792604">
        <ele>39.07</ele>
        <time>2025-05-15T16:27:28Z</time>
      </trkpt>
      <trkpt lat="42.693509040400386" lon="2.887880969792604">
        <ele>39.07</ele>
        <time>2025-05-15T16:27:29Z</time>
      </trkpt>
      <trkpt lat="42.693581962957978" lon="2.887880969792604">
        <ele>39.07</ele>
        <time>2025-05-15T16:27:30Z</time>
      </trkpt>
      <trkpt lat="42.693658992648125" lon="2.887880969792604">
        <ele>39.07</ele>
        <time>2025-05-15T16:27:31Z</time>
      </trkpt>
      <trkpt lat="42.693733004853129" lon="2.887880969792604">
        <ele>39.07</ele>
        <time>2025-05-15T16:27:32Z</time>
      </trkpt>
      <trkpt lat="42.693800982087851" lon="2.887880969792604">
        <ele>39.07</ele>
        <time>2025-05-15T16:27:33Z</time>
      </trkpt>
      <trkpt lat="42.693866025656462" lon="2.887880969792604">
        <ele>39.549999999999997</ele>
        <time>2025-05-15T16:27:34Z</time>
      </trkpt>
      <trkpt lat="42.693921010941267" lon="2.887880969792604">
        <ele>40.030000000000001</ele>
        <time>2025-05-15T16:27:35Z</time>
      </trkpt>
      <trkpt lat="42.693958980962634" lon="2.887763036414981">
        <ele>40.030000000000001</ele>
        <time>2025-05-15T16:27:36Z</time>
      </trkpt>
      <trkpt lat="42.693943977355957" lon="2.887731017544866">
        <ele>40.509999999999998</ele>
        <time>2025-05-15T16:27:37Z</time>
      </trkpt>
      <trkpt lat="42.693895027041435" lon="2.887648958712816">
        <ele>40.509999999999998</ele>
        <time>2025-05-15T16:27:38Z</time>
      </trkpt>
      <trkpt lat="42.693851022049785" lon="2.887575030326843">
        <ele>40.509999999999998</ele>
        <time>2025-05-15T16:27:39Z</time>
      </trkpt>
      <trkpt lat="42.693514991551638" lon="2.887001037597656">
        <ele>40.030000000000001</ele>
        <time>2025-05-15T16:27:45Z</time>
      </trkpt>
      <trkpt lat="42.693452965468168" lon="2.886894000694156">
        <ele>40.030000000000001</ele>
        <time>2025-05-15T16:27:46Z</time>
      </trkpt>
      <trkpt lat="42.69339001737535" lon="2.886784030124545">
        <ele>40.509999999999998</ele>
        <time>2025-05-15T16:27:47Z</time>
      </trkpt>
      <trkpt lat="42.693325979635119" lon="2.886673975735903">
        <ele>40.509999999999998</ele>
        <time>2025-05-15T16:27:48Z</time>
      </trkpt>
      <trkpt lat="42.69326101988554" lon="2.886562999337912">
        <ele>40.990000000000002</ele>
        <time>2025-05-15T16:27:49Z</time>
      </trkpt>
      <trkpt lat="42.693196982145309" lon="2.886457974091172">
        <ele>41.469999999999999</ele>
        <time>2025-05-15T16:27:50Z</time>
      </trkpt>
      <trkpt lat="42.693137973546982" lon="2.886360995471478">
        <ele>41.950000000000003</ele>
        <time>2025-05-15T16:27:51Z</time>
      </trkpt>
      <trkpt lat="42.692905962467194" lon="2.885977020487189">
        <ele>43.399999999999999</ele>
        <time>2025-05-15T16:27:57Z</time>
      </trkpt>
      <trkpt lat="42.692881990224123" lon="2.88593796081841">
        <ele>43.399999999999999</ele>
        <time>2025-05-15T16:27:58Z</time>
      </trkpt>
      <trkpt lat="42.692895988002419" lon="2.885848022997379">
        <ele>43.399999999999999</ele>
        <time>2025-05-15T16:27:59Z</time>
      </trkpt>
      <trkpt lat="42.692936975508928" lon="2.885816004127264">
        <ele>43.399999999999999</ele>
        <time>2025-05-15T16:28:00Z</time>
      </trkpt>
      <trkpt lat="42.692993972450495" lon="2.885769987478852">
        <ele>43.399999999999999</ele>
        <time>2025-05-15T16:28:01Z</time>
      </trkpt>
      <trkpt lat="42.693049963563681" lon="2.885725982487202">
        <ele>42.920000000000002</ele>
        <time>2025-05-15T16:28:02Z</time>
      </trkpt>
      <trkpt lat="42.693108972162008" lon="2.885678038001061">
        <ele>42.920000000000002</ele>
        <time>2025-05-15T16:28:03Z</time>
      </trkpt>
      <trkpt lat="42.693173009902239" lon="2.885626992210746">
        <ele>42.920000000000002</ele>
        <time>2025-05-15T16:28:04Z</time>
      </trkpt>
      <trkpt lat="42.693236041814089" lon="2.885584998875856">
        <ele>42.920000000000002</ele>
        <time>2025-05-15T16:28:05Z</time>
      </trkpt>
      <trkpt lat="42.69330401904881" lon="2.885539988055825">
        <ele>42.920000000000002</ele>
        <time>2025-05-15T16:28:06Z</time>
      </trkpt>
      <trkpt lat="42.693828977644444" lon="2.885193983092904">
        <ele>37.630000000000003</ele>
        <time>2025-05-15T16:28:14Z</time>
      </trkpt>
      <trkpt lat="42.693887986242771" lon="2.885159030556679">
        <ele>36.670000000000002</ele>
        <time>2025-05-15T16:28:15Z</time>
      </trkpt>
      <trkpt lat="42.693953029811382" lon="2.885118965059519">
        <ele>35.710000000000001</ele>
        <time>2025-05-15T16:28:16Z</time>
      </trkpt>
      <trkpt lat="42.694015977904201" lon="2.885079989209771">
        <ele>35.229999999999997</ele>
        <time>2025-05-15T16:28:17Z</time>
      </trkpt>
      <trkpt lat="42.694076998159289" lon="2.885043025016785">
        <ele>34.259999999999998</ele>
        <time>2025-05-15T16:28:18Z</time>
      </trkpt>
      <trkpt lat="42.694731960073113" lon="2.884643962606788">
        <ele>29.940000000000001</ele>
        <time>2025-05-15T16:28:28Z</time>
      </trkpt>
      <trkpt lat="42.694850983098149" lon="2.884566010907292">
        <ele>28.98</ele>
        <time>2025-05-15T16:28:30Z</time>
      </trkpt>
      <trkpt lat="42.694890964776278" lon="2.88453902117908">
        <ele>28.02</ele>
        <time>2025-05-15T16:28:31Z</time>
      </trkpt>
      <trkpt lat="42.694995990023017" lon="2.884641028940678">
        <ele>27.530000000000001</ele>
        <time>2025-05-15T16:28:32Z</time>
      </trkpt>
      <trkpt lat="42.694995990023017" lon="2.884641028940678">
        <ele>27.050000000000001</ele>
        <time>2025-05-15T16:28:33Z</time>
      </trkpt>
      <trkpt lat="42.695003030821681" lon="2.884644968435168">
        <ele>26.57</ele>
        <time>2025-05-15T16:28:34Z</time>
      </trkpt>
      <trkpt lat="42.695032032206655" lon="2.884660977870226">
        <ele>26.09</ele>
        <time>2025-05-15T16:28:35Z</time>
      </trkpt>
      <trkpt lat="42.695058016106486" lon="2.884675981476903">
        <ele>25.609999999999999</ele>
        <time>2025-05-15T16:28:36Z</time>
      </trkpt>
      <trkpt lat="42.695086011663079" lon="2.884691990911961">
        <ele>25.129999999999999</ele>
        <time>2025-05-15T16:28:37Z</time>
      </trkpt>
      <trkpt lat="42.695113001391292" lon="2.884706994518638">
        <ele>25.129999999999999</ele>
        <time>2025-05-15T16:28:38Z</time>
      </trkpt>
      <trkpt lat="42.695136973634362" lon="2.884720992296934">
        <ele>25.129999999999999</ele>
        <time>2025-05-15T16:28:39Z</time>
      </trkpt>
      <trkpt lat="42.695167986676097" lon="2.884738007560372">
        <ele>25.609999999999999</ele>
        <time>2025-05-15T16:28:40Z</time>
      </trkpt>
      <trkpt lat="42.695212997496128" lon="2.884763991460204">
        <ele>26.09</ele>
        <time>2025-05-15T16:28:41Z</time>
      </trkpt>
      <trkpt lat="42.695265971124172" lon="2.884793998673558">
        <ele>26.09</ele>
        <time>2025-05-15T16:28:42Z</time>
      </trkpt>
      <trkpt lat="42.695462023839355" lon="2.884904975071549">
        <ele>26.57</ele>
        <time>2025-05-15T16:28:45Z</time>
      </trkpt>
      <trkpt lat="42.695522960275412" lon="2.884939005598426">
        <ele>26.57</ele>
        <time>2025-05-15T16:28:46Z</time>
      </trkpt>
      <trkpt lat="42.695639971643686" lon="2.885005977004767">
        <ele>27.530000000000001</ele>
        <time>2025-05-15T16:28:48Z</time>
      </trkpt>
      <trkpt lat="42.695982959121466" lon="2.885661022737622">
        <ele>34.259999999999998</ele>
        <time>2025-05-15T16:28:59Z</time>
      </trkpt>
      <trkpt lat="42.6961849629879" lon="2.886080034077168">
        <ele>37.630000000000003</ele>
        <time>2025-05-15T16:29:05Z</time>
      </trkpt>
      <trkpt lat="42.696216981858015" lon="2.886148011311889">
        <ele>38.109999999999999</ele>
        <time>2025-05-15T16:29:06Z</time>
      </trkpt>
      <trkpt lat="42.69633499905467" lon="2.886394020169973">
        <ele>40.509999999999998</ele>
        <time>2025-05-15T16:29:11Z</time>
      </trkpt>
      <trkpt lat="42.696627024561167" lon="2.886915039271116">
        <ele>42.439999999999998</ele>
        <time>2025-05-15T16:29:19Z</time>
      </trkpt>
      <trkpt lat="42.69665895961225" lon="2.886958038434386">
        <ele>42.439999999999998</ele>
        <time>2025-05-15T16:29:20Z</time>
      </trkpt>
      <trkpt lat="42.696876972913742" lon="2.887249980121851">
        <ele>43.399999999999999</ele>
        <time>2025-05-15T16:29:28Z</time>
      </trkpt>
      <trkpt lat="42.696911003440619" lon="2.887294990941882">
        <ele>42.920000000000002</ele>
        <time>2025-05-15T16:29:30Z</time>
      </trkpt>
      <trkpt lat="42.696911003440619" lon="2.887294990941882">
        <ele>42.439999999999998</ele>
        <time>2025-05-15T16:29:43Z</time>
      </trkpt>
      <trkpt lat="42.696974035352468" lon="2.887373026460409">
        <ele>40.990000000000002</ele>
        <time>2025-05-15T16:29:51Z</time>
      </trkpt>
      <trkpt lat="42.697003036737442" lon="2.887405967339873">
        <ele>40.509999999999998</ele>
        <time>2025-05-15T16:29:52Z</time>
      </trkpt>
      <trkpt lat="42.697037989273667" lon="2.887445027008653">
        <ele>40.030000000000001</ele>
        <time>2025-05-15T16:29:53Z</time>
      </trkpt>
      <trkpt lat="42.697079982608557" lon="2.887491965666413">
        <ele>40.030000000000001</ele>
        <time>2025-05-15T16:29:54Z</time>
      </trkpt>
      <trkpt lat="42.697119964286685" lon="2.887537982314825">
        <ele>39.549999999999997</ele>
        <time>2025-05-15T16:29:55Z</time>
      </trkpt>
      <trkpt lat="42.697291960939765" lon="2.887731017544866">
        <ele>38.109999999999999</ele>
        <time>2025-05-15T16:30:03Z</time>
      </trkpt>
      <trkpt lat="42.697291960939765" lon="2.887845011427999">
        <ele>38.109999999999999</ele>
        <time>2025-05-15T16:30:06Z</time>
      </trkpt>
      <trkpt lat="42.697291960939765" lon="2.887867977842689">
        <ele>38.590000000000003</ele>
        <time>2025-05-15T16:30:07Z</time>
      </trkpt>
      <trkpt lat="42.697291960939765" lon="2.887880969792604">
        <ele>39.07</ele>
        <time>2025-05-15T16:30:08Z</time>
      </trkpt>
      <trkpt lat="42.697335965931416" lon="2.887855991721153">
        <ele>39.07</ele>
        <time>2025-05-15T16:30:19Z</time>
      </trkpt>
      <trkpt lat="42.69745297729969" lon="2.887791031971574">
        <ele>37.630000000000003</ele>
        <time>2025-05-15T16:30:27Z</time>
      </trkpt>
      <trkpt lat="42.697876011952758" lon="2.887608977034688">
        <ele>39.07</ele>
        <time>2025-05-15T16:30:37Z</time>
      </trkpt>
      <trkpt lat="42.698642034083605" lon="2.887274958193302">
        <ele>38.590000000000003</ele>
        <time>2025-05-15T16:30:47Z</time>
      </trkpt>
      <trkpt lat="42.699501011520624" lon="2.886871034279466">
        <ele>38.590000000000003</ele>
        <time>2025-05-15T16:30:57Z</time>
      </trkpt>
      <trkpt lat="42.699558008462191" lon="2.886843960732222">
        <ele>38.109999999999999</ele>
        <time>2025-05-15T16:30:58Z</time>
      </trkpt>
      <trkpt lat="42.699721036478877" lon="2.886755028739572">
        <ele>37.630000000000003</ele>
        <time>2025-05-15T16:31:02Z</time>
      </trkpt>
      <trkpt lat="42.699721036478877" lon="2.886755028739572">
        <ele>37.149999999999999</ele>
        <time>2025-05-15T16:31:14Z</time>
      </trkpt>
      <trkpt lat="42.699746014550328" lon="2.886741030961275">
        <ele>37.149999999999999</ele>
        <time>2025-05-15T16:31:31Z</time>
      </trkpt>
      <trkpt lat="42.699765963479877" lon="2.886730972677469">
        <ele>36.670000000000002</ele>
        <time>2025-05-15T16:31:32Z</time>
      </trkpt>
      <trkpt lat="42.699793959036469" lon="2.886716974899173">
        <ele>36.670000000000002</ele>
        <time>2025-05-15T16:31:33Z</time>
      </trkpt>
      <trkpt lat="42.699888003990054" lon="2.886679004877806">
        <ele>36.189999999999998</ele>
        <time>2025-05-15T16:31:34Z</time>
      </trkpt>
      <trkpt lat="42.699890015646815" lon="2.886677999049425">
        <ele>36.670000000000002</ele>
        <time>2025-05-15T16:31:35Z</time>
      </trkpt>
      <trkpt lat="42.699945000931621" lon="2.886651009321213">
        <ele>37.149999999999999</ele>
        <time>2025-05-15T16:31:36Z</time>
      </trkpt>
      <trkpt lat="42.700038040056825" lon="2.88660398684442">
        <ele>37.149999999999999</ele>
        <time>2025-05-15T16:31:37Z</time>
      </trkpt>
      <trkpt lat="42.700532991439104" lon="2.886383039876819">
        <ele>38.590000000000003</ele>
        <time>2025-05-15T16:31:44Z</time>
      </trkpt>
      <trkpt lat="42.700596023350954" lon="2.886350015178323">
        <ele>38.590000000000003</ele>
        <time>2025-05-15T16:31:45Z</time>
      </trkpt>
      <trkpt lat="42.700677998363972" lon="2.886306010186672">
        <ele>38.590000000000003</ele>
        <time>2025-05-15T16:31:46Z</time>
      </trkpt>
      <trkpt lat="42.700878996402025" lon="2.886218000203371">
        <ele>37.149999999999999</ele>
        <time>2025-05-15T16:31:48Z</time>
      </trkpt>
      <trkpt lat="42.701729005202651" lon="2.885804018005729">
        <ele>36.189999999999998</ele>
        <time>2025-05-15T16:31:55Z</time>
      </trkpt>
      <trkpt lat="42.703084023669362" lon="2.885030033066869">
        <ele>37.149999999999999</ele>
        <time>2025-05-15T16:32:06Z</time>
      </trkpt>
      <trkpt lat="42.704482963308692" lon="2.884248001500964">
        <ele>34.259999999999998</ele>
        <time>2025-05-15T16:32:16Z</time>
      </trkpt>
      <trkpt lat="42.704913960769773" lon="2.884005010128021">
        <ele>32.82</ele>
        <time>2025-05-15T16:32:20Z</time>
      </trkpt>
      <trkpt lat="42.705026026815176" lon="2.884036023169756">
        <ele>32.82</ele>
        <time>2025-05-15T16:32:21Z</time>
      </trkpt>
      <trkpt lat="42.705131974071264" lon="2.884010961279273">
        <ele>32.340000000000003</ele>
        <time>2025-05-15T16:32:22Z</time>
      </trkpt>
      <trkpt lat="42.705236999318004" lon="2.884004004299641">
        <ele>32.340000000000003</ele>
        <time>2025-05-15T16:32:23Z</time>
      </trkpt>
      <trkpt lat="42.705344036221504" lon="2.884021019563079">
        <ele>32.82</ele>
        <time>2025-05-15T16:32:24Z</time>
      </trkpt>
      <trkpt lat="42.705466998741031" lon="2.884039962664247">
        <ele>32.340000000000003</ele>
        <time>2025-05-15T16:32:25Z</time>
      </trkpt>
      <trkpt lat="42.705518966540694" lon="2.884096959605813">
        <ele>32.340000000000003</ele>
        <time>2025-05-15T16:32:26Z</time>
      </trkpt>
      <trkpt lat="42.705575963482261" lon="2.884158985689282">
        <ele>32.82</ele>
        <time>2025-05-15T16:32:27Z</time>
      </trkpt>
      <trkpt lat="42.70563698373735" lon="2.884225035086274">
        <ele>32.82</ele>
        <time>2025-05-15T16:32:28Z</time>
      </trkpt>
      <trkpt lat="42.705710995942354" lon="2.884328970685601">
        <ele>32.82</ele>
        <time>2025-05-15T16:32:29Z</time>
      </trkpt>
      <trkpt lat="42.705739997327328" lon="2.884443970397115">
        <ele>32.82</ele>
        <time>2025-05-15T16:32:30Z</time>
      </trkpt>
      <trkpt lat="42.706190021708608" lon="2.885533031076193">
        <ele>32.82</ele>
        <time>2025-05-15T16:32:40Z</time>
      </trkpt>
      <trkpt lat="42.706238972023129" lon="2.885647024959326">
        <ele>32.82</ele>
        <time>2025-05-15T16:32:41Z</time>
      </trkpt>
      <trkpt lat="42.706302003934979" lon="2.885721037164331">
        <ele>32.82</ele>
        <time>2025-05-15T16:32:42Z</time>
      </trkpt>
      <trkpt lat="42.706377021968365" lon="2.88580602966249">
        <ele>32.82</ele>
        <time>2025-05-15T16:32:43Z</time>
      </trkpt>
      <trkpt lat="42.70645204000175" lon="2.88589202798903">
        <ele>33.299999999999997</ele>
        <time>2025-05-15T16:32:44Z</time>
      </trkpt>
      <trkpt lat="42.706797961145639" lon="2.886228980496526">
        <ele>33.299999999999997</ele>
        <time>2025-05-15T16:32:49Z</time>
      </trkpt>
      <trkpt lat="42.706883037462831" lon="2.886268040165305">
        <ele>32.82</ele>
        <time>2025-05-15T16:32:50Z</time>
      </trkpt>
      <trkpt lat="42.706944979727268" lon="2.886297041550279">
        <ele>32.82</ele>
        <time>2025-05-15T16:32:51Z</time>
      </trkpt>
      <trkpt lat="42.707052016630769" lon="2.886345991864801">
        <ele>31.379999999999999</ele>
        <time>2025-05-15T16:32:53Z</time>
      </trkpt>
      <trkpt lat="42.70707699470222" lon="2.886356972157955">
        <ele>30.899999999999999</ele>
        <time>2025-05-15T16:32:54Z</time>
      </trkpt>
      <trkpt lat="42.707046987488866" lon="2.886482030153275">
        <ele>30.420000000000002</ele>
        <time>2025-05-15T16:32:55Z</time>
      </trkpt>
      <trkpt lat="42.707032989710569" lon="2.886542966589332">
        <ele>29.940000000000001</ele>
        <time>2025-05-15T16:32:56Z</time>
      </trkpt>
      <trkpt lat="42.707019997760653" lon="2.886599041521549">
        <ele>29.460000000000001</ele>
        <time>2025-05-15T16:32:57Z</time>
      </trkpt>
      <trkpt lat="42.70699099637568" lon="2.886722004041076">
        <ele>29.460000000000001</ele>
        <time>2025-05-15T16:32:58Z</time>
      </trkpt>
      <trkpt lat="42.70699099637568" lon="2.886722004041076">
        <ele>28.98</ele>
        <time>2025-05-15T16:32:59Z</time>
      </trkpt>
      <trkpt lat="42.706971969455481" lon="2.88673298433423">
        <ele>28.5</ele>
        <time>2025-05-15T16:33:00Z</time>
      </trkpt>
      <trkpt lat="42.706955038011074" lon="2.886742958799005">
        <ele>28.02</ele>
        <time>2025-05-15T16:33:01Z</time>
      </trkpt>
      <trkpt lat="42.706840960308909" lon="2.886808002367616">
        <ele>27.050000000000001</ele>
        <time>2025-05-15T16:33:05Z</time>
      </trkpt>
      <trkpt lat="42.706835009157658" lon="2.886831974610686">
        <ele>27.050000000000001</ele>
        <time>2025-05-15T16:33:06Z</time>
      </trkpt>
      <trkpt lat="42.706668963655829" lon="2.887559020891786">
        <ele>26.09</ele>
        <time>2025-05-15T16:33:14Z</time>
      </trkpt>
      <trkpt lat="42.706651026383042" lon="2.887604031711817">
        <ele>25.609999999999999</ele>
        <time>2025-05-15T16:33:15Z</time>
      </trkpt>
      <trkpt lat="42.706562010571361" lon="2.887731017544866">
        <ele>25.609999999999999</ele>
        <time>2025-05-15T16:33:17Z</time>
      </trkpt>
      <trkpt lat="42.706520017236471" lon="2.88774199783802">
        <ele>25.609999999999999</ele>
        <time>2025-05-15T16:33:18Z</time>
      </trkpt>
      <trkpt lat="42.706395965069532" lon="2.887774016708136">
        <ele>25.609999999999999</ele>
        <time>2025-05-15T16:33:20Z</time>
      </trkpt>
      <trkpt lat="42.706332011148334" lon="2.887790026143193">
        <ele>25.609999999999999</ele>
        <time>2025-05-15T16:33:21Z</time>
      </trkpt>
      <trkpt lat="42.706264033913612" lon="2.88780796341598">
        <ele>25.609999999999999</ele>
        <time>2025-05-15T16:33:22Z</time>
      </trkpt>
      <trkpt lat="42.706197984516621" lon="2.887824978679419">
        <ele>25.609999999999999</ele>
        <time>2025-05-15T16:33:23Z</time>
      </trkpt>
      <trkpt lat="42.706135036423802" lon="2.887841993942857">
        <ele>26.09</ele>
        <time>2025-05-15T16:33:24Z</time>
      </trkpt>
      <trkpt lat="42.70606798119843" lon="2.887859009206295">
        <ele>26.57</ele>
        <time>2025-05-15T16:33:25Z</time>
      </trkpt>
      <trkpt lat="42.706030011177063" lon="2.887921035289764">
        <ele>26.57</ele>
        <time>2025-05-15T16:33:26Z</time>
      </trkpt>
      <trkpt lat="42.705985000357032" lon="2.887994041666389">
        <ele>27.050000000000001</ele>
        <time>2025-05-15T16:33:27Z</time>
      </trkpt>
      <trkpt lat="42.705937977880239" lon="2.888069981709123">
        <ele>27.050000000000001</ele>
        <time>2025-05-15T16:33:28Z</time>
      </trkpt>
      <trkpt lat="42.705789031460881" lon="2.888310039415956">
        <ele>27.530000000000001</ele>
        <time>2025-05-15T16:33:31Z</time>
      </trkpt>
      <trkpt lat="42.705762963742018" lon="2.888390002772212">
        <ele>27.530000000000001</ele>
        <time>2025-05-15T16:33:32Z</time>
      </trkpt>
      <trkpt lat="42.705732034519315" lon="2.888479018583894">
        <ele>28.02</ele>
        <time>2025-05-15T16:33:33Z</time>
      </trkpt>
      <trkpt lat="42.70570102147758" lon="2.888567028567195">
        <ele>27.530000000000001</ele>
        <time>2025-05-15T16:33:34Z</time>
      </trkpt>
      <trkpt lat="42.705669002607465" lon="2.888656966388226">
        <ele>27.530000000000001</ele>
        <time>2025-05-15T16:33:35Z</time>
      </trkpt>
      <trkpt lat="42.70563698373735" lon="2.888746988028288">
        <ele>27.530000000000001</ele>
        <time>2025-05-15T16:33:36Z</time>
      </trkpt>
      <trkpt lat="42.705604964867234" lon="2.888838015496731">
        <ele>27.530000000000001</ele>
        <time>2025-05-15T16:33:37Z</time>
      </trkpt>
      <trkpt lat="42.705574035644531" lon="2.888928037136793">
        <ele>27.530000000000001</ele>
        <time>2025-05-15T16:33:38Z</time>
      </trkpt>
      <trkpt lat="42.705369014292955" lon="2.889527007937431">
        <ele>27.530000000000001</ele>
        <time>2025-05-15T16:33:45Z</time>
      </trkpt>
      <trkpt lat="42.705188971012831" lon="2.890041992068291">
        <ele>27.530000000000001</ele>
        <time>2025-05-15T16:33:51Z</time>
      </trkpt>
      <trkpt lat="42.705151000991464" lon="2.890130002051592">
        <ele>27.050000000000001</ele>
        <time>2025-05-15T16:33:52Z</time>
      </trkpt>
      <trkpt lat="42.705043964087963" lon="2.890382967889309">
        <ele>27.530000000000001</ele>
        <time>2025-05-15T16:33:55Z</time>
      </trkpt>
      <trkpt lat="42.705014040693641" lon="2.890454968437553">
        <ele>27.530000000000001</ele>
        <time>2025-05-15T16:33:56Z</time>
      </trkpt>
      <trkpt lat="42.704987972974777" lon="2.890522023662925">
        <ele>27.530000000000001</ele>
        <time>2025-05-15T16:33:57Z</time>
      </trkpt>
      <trkpt lat="42.705025020986795" lon="2.890588995069265">
        <ele>27.530000000000001</ele>
        <time>2025-05-15T16:33:58Z</time>
      </trkpt>
      <trkpt lat="42.705049999058247" lon="2.89066200144589">
        <ele>27.530000000000001</ele>
        <time>2025-05-15T16:33:59Z</time>
      </trkpt>
      <trkpt lat="42.705076988786459" lon="2.890744982287288">
        <ele>27.530000000000001</ele>
        <time>2025-05-15T16:34:00Z</time>
      </trkpt>
      <trkpt lat="42.705104984343052" lon="2.890828968957067">
        <ele>27.530000000000001</ele>
        <time>2025-05-15T16:34:01Z</time>
      </trkpt>
      <trkpt lat="42.705131974071264" lon="2.890909016132355">
        <ele>27.530000000000001</ele>
        <time>2025-05-15T16:34:02Z</time>
      </trkpt>
      <trkpt lat="42.705158963799477" lon="2.890989985316992">
        <ele>27.530000000000001</ele>
        <time>2025-05-15T16:34:03Z</time>
      </trkpt>
      <trkpt lat="42.705229036509991" lon="2.891201041638851">
        <ele>27.530000000000001</ele>
        <time>2025-05-15T16:34:06Z</time>
      </trkpt>
      <trkpt lat="42.70524999126792" lon="2.891263989731669">
        <ele>27.530000000000001</ele>
        <time>2025-05-15T16:34:07Z</time>
      </trkpt>
      <trkpt lat="42.705346969887614" lon="2.891555009409785">
        <ele>27.530000000000001</ele>
        <time>2025-05-15T16:34:11Z</time>
      </trkpt>
      <trkpt lat="42.705390974879265" lon="2.891723988577724">
        <ele>27.050000000000001</ele>
        <time>2025-05-15T16:34:13Z</time>
      </trkpt>
      <trkpt lat="42.705410001799464" lon="2.891806969419122">
        <ele>27.050000000000001</ele>
        <time>2025-05-15T16:34:14Z</time>
      </trkpt>
      <trkpt lat="42.705473033711314" lon="2.892078040167689">
        <ele>28.5</ele>
        <time>2025-05-15T16:34:21Z</time>
      </trkpt>
      <trkpt lat="42.705458030104637" lon="2.892257999628782">
        <ele>28.98</ele>
        <time>2025-05-15T16:34:27Z</time>
      </trkpt>
      <trkpt lat="42.705415030941367" lon="2.892277026548982">
        <ele>28.98</ele>
        <time>2025-05-15T16:34:28Z</time>
      </trkpt>
      <trkpt lat="42.70535996183753" lon="2.892299992963672">
        <ele>28.98</ele>
        <time>2025-05-15T16:34:29Z</time>
      </trkpt>
      <trkpt lat="42.705299025401473" lon="2.892324971035123">
        <ele>29.460000000000001</ele>
        <time>2025-05-15T16:34:30Z</time>
      </trkpt>
      <trkpt lat="42.705236999318004" lon="2.892351038753986">
        <ele>29.940000000000001</ele>
        <time>2025-05-15T16:34:31Z</time>
      </trkpt>
      <trkpt lat="42.704857969656587" lon="2.892504008486867">
        <ele>30.899999999999999</ele>
        <time>2025-05-15T16:34:36Z</time>
      </trkpt>
      <trkpt lat="42.704597041010857" lon="2.89261800237">
        <ele>31.379999999999999</ele>
        <time>2025-05-15T16:34:39Z</time>
      </trkpt>
      <trkpt lat="42.704533003270626" lon="2.892645997926593">
        <ele>32.340000000000003</ele>
        <time>2025-05-15T16:34:40Z</time>
      </trkpt>
      <trkpt lat="42.704482963308692" lon="2.892667036503553">
        <ele>32.82</ele>
        <time>2025-05-15T16:34:41Z</time>
      </trkpt>
      <trkpt lat="42.704457985237241" lon="2.892741970717907">
        <ele>33.299999999999997</ele>
        <time>2025-05-15T16:34:42Z</time>
      </trkpt>
      <trkpt lat="42.704483969137073" lon="2.892808020114899">
        <ele>33.299999999999997</ele>
        <time>2025-05-15T16:34:43Z</time>
      </trkpt>
      <trkpt lat="42.704514982178807" lon="2.892888989299536">
        <ele>33.780000000000001</ele>
        <time>2025-05-15T16:34:44Z</time>
      </trkpt>
      <trkpt lat="42.704550018534064" lon="2.892980016767979">
        <ele>34.259999999999998</ele>
        <time>2025-05-15T16:34:45Z</time>
      </trkpt>
      <trkpt lat="42.70458203740418" lon="2.893062997609377">
        <ele>34.740000000000002</ele>
        <time>2025-05-15T16:34:46Z</time>
      </trkpt>
      <trkpt lat="42.704611038789153" lon="2.893139021471143">
        <ele>34.740000000000002</ele>
        <time>2025-05-15T16:34:47Z</time>
      </trkpt>
      <trkpt lat="42.704689996317029" lon="2.893332978710532">
        <ele>35.710000000000001</ele>
        <time>2025-05-15T16:34:50Z</time>
      </trkpt>
      <trkpt lat="42.704721009358764" lon="2.893405985087156">
        <ele>36.189999999999998</ele>
        <time>2025-05-15T16:34:51Z</time>
      </trkpt>
      <trkpt lat="42.704753028228879" lon="2.893481003120542">
        <ele>36.189999999999998</ele>
        <time>2025-05-15T16:34:52Z</time>
      </trkpt>
      <trkpt lat="42.705053016543388" lon="2.894176030531526">
        <ele>37.630000000000003</ele>
        <time>2025-05-15T16:35:03Z</time>
      </trkpt>
      <trkpt lat="42.705220989882946" lon="2.894565034657717">
        <ele>37.630000000000003</ele>
        <time>2025-05-15T16:35:11Z</time>
      </trkpt>
      <trkpt lat="42.705240016803145" lon="2.894611973315477">
        <ele>37.630000000000003</ele>
        <time>2025-05-15T16:35:12Z</time>
      </trkpt>
      <trkpt lat="42.705258037894964" lon="2.894655978307128">
        <ele>37.630000000000003</ele>
        <time>2025-05-15T16:35:13Z</time>
      </trkpt>
      <trkpt lat="42.705272035673261" lon="2.894693026319146">
        <ele>37.630000000000003</ele>
        <time>2025-05-15T16:35:14Z</time>
      </trkpt>
      <trkpt lat="42.705283015966415" lon="2.894721021875739">
        <ele>37.630000000000003</ele>
        <time>2025-05-15T16:35:15Z</time>
      </trkpt>
      <trkpt lat="42.705290978774428" lon="2.894742982462049">
        <ele>37.149999999999999</ele>
        <time>2025-05-15T16:35:16Z</time>
      </trkpt>
      <trkpt lat="42.705290978774428" lon="2.894742982462049">
        <ele>36.670000000000002</ele>
        <time>2025-05-15T16:35:20Z</time>
      </trkpt>
      <trkpt lat="42.705312017351389" lon="2.894799979403615">
        <ele>36.670000000000002</ele>
        <time>2025-05-15T16:35:21Z</time>
      </trkpt>
      <trkpt lat="42.70533598959446" lon="2.894865022972226">
        <ele>35.710000000000001</ele>
        <time>2025-05-15T16:35:32Z</time>
      </trkpt>
      <trkpt lat="42.70533598959446" lon="2.894865022972226">
        <ele>35.710000000000001</ele>
        <time>2025-05-15T16:35:53Z</time>
      </trkpt>
      <trkpt lat="42.705342024564743" lon="2.894882960245013">
        <ele>35.710000000000001</ele>
        <time>2025-05-15T16:36:02Z</time>
      </trkpt>
    </trkseg>
  </trk>

</gpx>